﻿<?xml version="1.0" encoding="UTF-8" standalone="no" ?>
<gpx xmlns="http://www.topografix.com/GPX/1/1" xmlns:gpxx="http://www.garmin.com/xmlschemas/GpxExtensions/v3" xmlns:gpxtpx="http://www.garmin.com/xmlschemas/TrackPointExtension/v1" creator="https://www.mapstogpx.com/strava" version="1.1" xmlns:xsi="http://www.w3.org/2001/XMLSchema-instance" xsi:schemaLocation="http://www.topografix.com/GPX/1/1 http://www.topografix.com/GPX/1/1/gpx.xsd http://www.garmin.com/xmlschemas/GpxExtensions/v3 http://www.garmin.com/xmlschemas/GpxExtensionsv3.xsd http://www.garmin.com/xmlschemas/TrackPointExtension/v1 http://www.garmin.com/xmlschemas/TrackPointExtensionv1.xsd" xmlns:gpxdata="http://www.cluetrust.com/XML/GPXDATA/1/0">
 <metadata>
  <name>סינג הללויה עם פירות העונה.</name>
  <author>
   <name>Asaf Savion (V12)</name>
   <link href="https://www.strava.com/activities/792994473"/>
  </author>
  <link href="https://www.mapstogpx.com/strava" />
  <time>2017-01-04T19:02:42Z</time>
 </metadata>
 <trk>
  <name>סינג הללויה עם פירות העונה.</name>
  <link href="https://www.strava.com/activities/792994473"/>
  <number>1</number>
  <trkseg>
   <trkpt lat="30.850329" lon="34.78416"><ele>481.1</ele><name>TP00001</name><time>2016-12-28T19:02:42Z</time></trkpt>
   <trkpt lat="30.850309" lon="34.784108"><ele>480.8</ele><name>TP00002</name><time>2016-12-28T19:03:58Z</time></trkpt>
   <trkpt lat="30.850279" lon="34.784089"><ele>480.7</ele><name>TP00003</name><time>2016-12-28T19:04:00Z</time></trkpt>
   <trkpt lat="30.850257" lon="34.784064"><ele>480.5</ele><name>TP00004</name><time>2016-12-28T19:04:02Z</time></trkpt>
   <trkpt lat="30.850219" lon="34.783995"><ele>480.1</ele><name>TP00005</name><time>2016-12-28T19:04:04Z</time></trkpt>
   <trkpt lat="30.850188" lon="34.783957"><ele>479.9</ele><name>TP00006</name><time>2016-12-28T19:04:05Z</time></trkpt>
   <trkpt lat="30.850153" lon="34.783921"><ele>479.6</ele><name>TP00007</name><time>2016-12-28T19:04:06Z</time></trkpt>
   <trkpt lat="30.850079" lon="34.783807"><ele>479</ele><name>TP00008</name><time>2016-12-28T19:04:08Z</time></trkpt>
   <trkpt lat="30.850066" lon="34.783757"><ele>478.8</ele><name>TP00009</name><time>2016-12-28T19:04:09Z</time></trkpt>
   <trkpt lat="30.850059" lon="34.783711"><ele>478.8</ele><name>TP00010</name><time>2016-12-28T19:04:10Z</time></trkpt>
   <trkpt lat="30.850052" lon="34.783662"><ele>478.8</ele><name>TP00011</name><time>2016-12-28T19:04:11Z</time></trkpt>
   <trkpt lat="30.850049" lon="34.783614"><ele>478.9</ele><name>TP00012</name><time>2016-12-28T19:04:12Z</time></trkpt>
   <trkpt lat="30.850043" lon="34.78357"><ele>478.9</ele><name>TP00013</name><time>2016-12-28T19:04:13Z</time></trkpt>
   <trkpt lat="30.850041" lon="34.783524"><ele>479</ele><name>TP00014</name><time>2016-12-28T19:04:14Z</time></trkpt>
   <trkpt lat="30.850037" lon="34.783482"><ele>479.1</ele><name>TP00015</name><time>2016-12-28T19:04:15Z</time></trkpt>
   <trkpt lat="30.850032" lon="34.783438"><ele>479.1</ele><name>TP00016</name><time>2016-12-28T19:04:16Z</time></trkpt>
   <trkpt lat="30.850033" lon="34.783398"><ele>479.2</ele><name>TP00017</name><time>2016-12-28T19:04:17Z</time></trkpt>
   <trkpt lat="30.850028" lon="34.783361"><ele>479.3</ele><name>TP00018</name><time>2016-12-28T19:04:18Z</time></trkpt>
   <trkpt lat="30.850022" lon="34.783323"><ele>479.3</ele><name>TP00019</name><time>2016-12-28T19:04:19Z</time></trkpt>
   <trkpt lat="30.850013" lon="34.783285"><ele>479.4</ele><name>TP00020</name><time>2016-12-28T19:04:20Z</time></trkpt>
   <trkpt lat="30.850002" lon="34.783245"><ele>479.4</ele><name>TP00021</name><time>2016-12-28T19:04:21Z</time></trkpt>
   <trkpt lat="30.849999" lon="34.783201"><ele>479.5</ele><name>TP00022</name><time>2016-12-28T19:04:22Z</time></trkpt>
   <trkpt lat="30.849987" lon="34.783164"><ele>479.5</ele><name>TP00023</name><time>2016-12-28T19:04:23Z</time></trkpt>
   <trkpt lat="30.849976" lon="34.783116"><ele>479.6</ele><name>TP00024</name><time>2016-12-28T19:04:24Z</time></trkpt>
   <trkpt lat="30.849962" lon="34.783074"><ele>479.7</ele><name>TP00025</name><time>2016-12-28T19:04:25Z</time></trkpt>
   <trkpt lat="30.849948" lon="34.783032"><ele>479.8</ele><name>TP00026</name><time>2016-12-28T19:04:26Z</time></trkpt>
   <trkpt lat="30.849937" lon="34.782986"><ele>479.9</ele><name>TP00027</name><time>2016-12-28T19:04:27Z</time></trkpt>
   <trkpt lat="30.849925" lon="34.782942"><ele>479.9</ele><name>TP00028</name><time>2016-12-28T19:04:28Z</time></trkpt>
   <trkpt lat="30.849916" lon="34.782895"><ele>480</ele><name>TP00029</name><time>2016-12-28T19:04:29Z</time></trkpt>
   <trkpt lat="30.849913" lon="34.78285"><ele>480.1</ele><name>TP00030</name><time>2016-12-28T19:04:30Z</time></trkpt>
   <trkpt lat="30.849922" lon="34.782803"><ele>480.2</ele><name>TP00031</name><time>2016-12-28T19:04:31Z</time></trkpt>
   <trkpt lat="30.849944" lon="34.782758"><ele>480.3</ele><name>TP00032</name><time>2016-12-28T19:04:32Z</time></trkpt>
   <trkpt lat="30.849968" lon="34.782722"><ele>480.3</ele><name>TP00033</name><time>2016-12-28T19:04:33Z</time></trkpt>
   <trkpt lat="30.849997" lon="34.782692"><ele>480.4</ele><name>TP00034</name><time>2016-12-28T19:04:34Z</time></trkpt>
   <trkpt lat="30.850032" lon="34.782666"><ele>480.5</ele><name>TP00035</name><time>2016-12-28T19:04:35Z</time></trkpt>
   <trkpt lat="30.850069" lon="34.782644"><ele>480.5</ele><name>TP00036</name><time>2016-12-28T19:04:36Z</time></trkpt>
   <trkpt lat="30.85011" lon="34.78263"><ele>480.6</ele><name>TP00037</name><time>2016-12-28T19:04:37Z</time></trkpt>
   <trkpt lat="30.850153" lon="34.782621"><ele>480.6</ele><name>TP00038</name><time>2016-12-28T19:04:38Z</time></trkpt>
   <trkpt lat="30.850196" lon="34.782613"><ele>480.6</ele><name>TP00039</name><time>2016-12-28T19:04:39Z</time></trkpt>
   <trkpt lat="30.850236" lon="34.782605"><ele>480.7</ele><name>TP00040</name><time>2016-12-28T19:04:40Z</time></trkpt>
   <trkpt lat="30.850272" lon="34.782597"><ele>480.7</ele><name>TP00041</name><time>2016-12-28T19:04:41Z</time></trkpt>
   <trkpt lat="30.850303" lon="34.782588"><ele>480.7</ele><name>TP00042</name><time>2016-12-28T19:04:42Z</time></trkpt>
   <trkpt lat="30.850331" lon="34.782576"><ele>480.8</ele><name>TP00043</name><time>2016-12-28T19:04:43Z</time></trkpt>
   <trkpt lat="30.850353" lon="34.782555"><ele>480.8</ele><name>TP00044</name><time>2016-12-28T19:04:44Z</time></trkpt>
   <trkpt lat="30.850367" lon="34.782518"><ele>480.9</ele><name>TP00045</name><time>2016-12-28T19:04:45Z</time></trkpt>
   <trkpt lat="30.850367" lon="34.782468"><ele>481</ele><name>TP00046</name><time>2016-12-28T19:04:46Z</time></trkpt>
   <trkpt lat="30.850357" lon="34.782415"><ele>481.2</ele><name>TP00047</name><time>2016-12-28T19:04:47Z</time></trkpt>
   <trkpt lat="30.850345" lon="34.78236"><ele>481.3</ele><name>TP00048</name><time>2016-12-28T19:04:48Z</time></trkpt>
   <trkpt lat="30.850336" lon="34.782305"><ele>481.4</ele><name>TP00049</name><time>2016-12-28T19:04:49Z</time></trkpt>
   <trkpt lat="30.850317" lon="34.782241"><ele>481.5</ele><name>TP00050</name><time>2016-12-28T19:04:50Z</time></trkpt>
   <trkpt lat="30.850302" lon="34.78219"><ele>481.6</ele><name>TP00051</name><time>2016-12-28T19:04:51Z</time></trkpt>
   <trkpt lat="30.850295" lon="34.782136"><ele>481.7</ele><name>TP00052</name><time>2016-12-28T19:04:52Z</time></trkpt>
   <trkpt lat="30.850284" lon="34.782083"><ele>481.8</ele><name>TP00053</name><time>2016-12-28T19:04:53Z</time></trkpt>
   <trkpt lat="30.850274" lon="34.782033"><ele>481.9</ele><name>TP00054</name><time>2016-12-28T19:04:54Z</time></trkpt>
   <trkpt lat="30.850267" lon="34.781982"><ele>482</ele><name>TP00055</name><time>2016-12-28T19:04:55Z</time></trkpt>
   <trkpt lat="30.850255" lon="34.781929"><ele>482.1</ele><name>TP00056</name><time>2016-12-28T19:04:56Z</time></trkpt>
   <trkpt lat="30.850248" lon="34.781877"><ele>482.2</ele><name>TP00057</name><time>2016-12-28T19:04:57Z</time></trkpt>
   <trkpt lat="30.850234" lon="34.781828"><ele>482.3</ele><name>TP00058</name><time>2016-12-28T19:04:58Z</time></trkpt>
   <trkpt lat="30.850226" lon="34.781777"><ele>482.4</ele><name>TP00059</name><time>2016-12-28T19:04:59Z</time></trkpt>
   <trkpt lat="30.850219" lon="34.781725"><ele>482.5</ele><name>TP00060</name><time>2016-12-28T19:05:00Z</time></trkpt>
   <trkpt lat="30.850209" lon="34.781669"><ele>482.6</ele><name>TP00061</name><time>2016-12-28T19:05:01Z</time></trkpt>
   <trkpt lat="30.850203" lon="34.781609"><ele>482.7</ele><name>TP00062</name><time>2016-12-28T19:05:02Z</time></trkpt>
   <trkpt lat="30.850195" lon="34.781546"><ele>482.9</ele><name>TP00063</name><time>2016-12-28T19:05:03Z</time></trkpt>
   <trkpt lat="30.850192" lon="34.781488"><ele>483</ele><name>TP00064</name><time>2016-12-28T19:05:04Z</time></trkpt>
   <trkpt lat="30.850184" lon="34.781433"><ele>483.1</ele><name>TP00065</name><time>2016-12-28T19:05:05Z</time></trkpt>
   <trkpt lat="30.850176" lon="34.781373"><ele>483.2</ele><name>TP00066</name><time>2016-12-28T19:05:06Z</time></trkpt>
   <trkpt lat="30.850165" lon="34.781314"><ele>483.3</ele><name>TP00067</name><time>2016-12-28T19:05:07Z</time></trkpt>
   <trkpt lat="30.850152" lon="34.781256"><ele>483.4</ele><name>TP00068</name><time>2016-12-28T19:05:08Z</time></trkpt>
   <trkpt lat="30.850139" lon="34.7812"><ele>483.3</ele><name>TP00069</name><time>2016-12-28T19:05:09Z</time></trkpt>
   <trkpt lat="30.850123" lon="34.781144"><ele>483.2</ele><name>TP00070</name><time>2016-12-28T19:05:10Z</time></trkpt>
   <trkpt lat="30.85012" lon="34.781081"><ele>483.2</ele><name>TP00071</name><time>2016-12-28T19:05:11Z</time></trkpt>
   <trkpt lat="30.85011" lon="34.781021"><ele>483.1</ele><name>TP00072</name><time>2016-12-28T19:05:12Z</time></trkpt>
   <trkpt lat="30.8501" lon="34.780961"><ele>483</ele><name>TP00073</name><time>2016-12-28T19:05:13Z</time></trkpt>
   <trkpt lat="30.850089" lon="34.780902"><ele>483</ele><name>TP00074</name><time>2016-12-28T19:05:14Z</time></trkpt>
   <trkpt lat="30.850079" lon="34.780844"><ele>482.9</ele><name>TP00075</name><time>2016-12-28T19:05:15Z</time></trkpt>
   <trkpt lat="30.850064" lon="34.780789"><ele>482.8</ele><name>TP00076</name><time>2016-12-28T19:05:16Z</time></trkpt>
   <trkpt lat="30.850053" lon="34.780731"><ele>482.8</ele><name>TP00077</name><time>2016-12-28T19:05:17Z</time></trkpt>
   <trkpt lat="30.850041" lon="34.780676"><ele>482.7</ele><name>TP00078</name><time>2016-12-28T19:05:18Z</time></trkpt>
   <trkpt lat="30.850028" lon="34.78062"><ele>482.7</ele><name>TP00079</name><time>2016-12-28T19:05:19Z</time></trkpt>
   <trkpt lat="30.850017" lon="34.780566"><ele>482.6</ele><name>TP00080</name><time>2016-12-28T19:05:20Z</time></trkpt>
   <trkpt lat="30.850004" lon="34.780509"><ele>482.6</ele><name>TP00081</name><time>2016-12-28T19:05:21Z</time></trkpt>
   <trkpt lat="30.849995" lon="34.780452"><ele>482.5</ele><name>TP00082</name><time>2016-12-28T19:05:22Z</time></trkpt>
   <trkpt lat="30.849986" lon="34.780396"><ele>482.4</ele><name>TP00083</name><time>2016-12-28T19:05:23Z</time></trkpt>
   <trkpt lat="30.849977" lon="34.780337"><ele>482.2</ele><name>TP00084</name><time>2016-12-28T19:05:24Z</time></trkpt>
   <trkpt lat="30.849967" lon="34.780279"><ele>482.1</ele><name>TP00085</name><time>2016-12-28T19:05:25Z</time></trkpt>
   <trkpt lat="30.849957" lon="34.78022"><ele>481.9</ele><name>TP00086</name><time>2016-12-28T19:05:26Z</time></trkpt>
   <trkpt lat="30.84995" lon="34.78016"><ele>481.7</ele><name>TP00087</name><time>2016-12-28T19:05:27Z</time></trkpt>
   <trkpt lat="30.84994" lon="34.780101"><ele>481.5</ele><name>TP00088</name><time>2016-12-28T19:05:28Z</time></trkpt>
   <trkpt lat="30.84993" lon="34.780039"><ele>481.3</ele><name>TP00089</name><time>2016-12-28T19:05:29Z</time></trkpt>
   <trkpt lat="30.849933" lon="34.779978"><ele>481.1</ele><name>TP00090</name><time>2016-12-28T19:05:30Z</time></trkpt>
   <trkpt lat="30.849934" lon="34.779916"><ele>481</ele><name>TP00091</name><time>2016-12-28T19:05:31Z</time></trkpt>
   <trkpt lat="30.849935" lon="34.779856"><ele>480.8</ele><name>TP00092</name><time>2016-12-28T19:05:32Z</time></trkpt>
   <trkpt lat="30.849937" lon="34.779795"><ele>480.6</ele><name>TP00093</name><time>2016-12-28T19:05:33Z</time></trkpt>
   <trkpt lat="30.849942" lon="34.779737"><ele>480.4</ele><name>TP00094</name><time>2016-12-28T19:05:34Z</time></trkpt>
   <trkpt lat="30.849945" lon="34.779677"><ele>480.3</ele><name>TP00095</name><time>2016-12-28T19:05:35Z</time></trkpt>
   <trkpt lat="30.849951" lon="34.779613"><ele>480.1</ele><name>TP00096</name><time>2016-12-28T19:05:36Z</time></trkpt>
   <trkpt lat="30.849969" lon="34.779558"><ele>480</ele><name>TP00097</name><time>2016-12-28T19:05:37Z</time></trkpt>
   <trkpt lat="30.849992" lon="34.779497"><ele>480.1</ele><name>TP00098</name><time>2016-12-28T19:05:38Z</time></trkpt>
   <trkpt lat="30.85002" lon="34.779439"><ele>480.1</ele><name>TP00099</name><time>2016-12-28T19:05:39Z</time></trkpt>
   <trkpt lat="30.850054" lon="34.779386"><ele>480.1</ele><name>TP00100</name><time>2016-12-28T19:05:40Z</time></trkpt>
   <trkpt lat="30.850086" lon="34.779334"><ele>480.2</ele><name>TP00101</name><time>2016-12-28T19:05:41Z</time></trkpt>
   <trkpt lat="30.850123" lon="34.779288"><ele>480.2</ele><name>TP00102</name><time>2016-12-28T19:05:42Z</time></trkpt>
   <trkpt lat="30.85015" lon="34.779233"><ele>480.3</ele><name>TP00103</name><time>2016-12-28T19:05:43Z</time></trkpt>
   <trkpt lat="30.850144" lon="34.779171"><ele>480.3</ele><name>TP00104</name><time>2016-12-28T19:05:44Z</time></trkpt>
   <trkpt lat="30.850139" lon="34.779115"><ele>480.4</ele><name>TP00105</name><time>2016-12-28T19:05:45Z</time></trkpt>
   <trkpt lat="30.850124" lon="34.779051"><ele>480.4</ele><name>TP00106</name><time>2016-12-28T19:05:46Z</time></trkpt>
   <trkpt lat="30.850137" lon="34.778997"><ele>480.5</ele><name>TP00107</name><time>2016-12-28T19:05:47Z</time></trkpt>
   <trkpt lat="30.850164" lon="34.778949"><ele>480.5</ele><name>TP00108</name><time>2016-12-28T19:05:48Z</time></trkpt>
   <trkpt lat="30.850179" lon="34.778892"><ele>480.6</ele><name>TP00109</name><time>2016-12-28T19:05:49Z</time></trkpt>
   <trkpt lat="30.850196" lon="34.778852"><ele>480.6</ele><name>TP00110</name><time>2016-12-28T19:05:50Z</time></trkpt>
   <trkpt lat="30.850212" lon="34.778816"><ele>480.7</ele><name>TP00111</name><time>2016-12-28T19:05:51Z</time></trkpt>
   <trkpt lat="30.850233" lon="34.778783"><ele>480.7</ele><name>TP00112</name><time>2016-12-28T19:05:52Z</time></trkpt>
   <trkpt lat="30.850258" lon="34.778747"><ele>480.8</ele><name>TP00113</name><time>2016-12-28T19:05:53Z</time></trkpt>
   <trkpt lat="30.850281" lon="34.778707"><ele>480.8</ele><name>TP00114</name><time>2016-12-28T19:05:54Z</time></trkpt>
   <trkpt lat="30.850305" lon="34.778672"><ele>480.9</ele><name>TP00115</name><time>2016-12-28T19:05:55Z</time></trkpt>
   <trkpt lat="30.850336" lon="34.778631"><ele>480.9</ele><name>TP00116</name><time>2016-12-28T19:05:56Z</time></trkpt>
   <trkpt lat="30.850361" lon="34.77859"><ele>480.9</ele><name>TP00117</name><time>2016-12-28T19:05:57Z</time></trkpt>
   <trkpt lat="30.850385" lon="34.778546"><ele>481</ele><name>TP00118</name><time>2016-12-28T19:05:58Z</time></trkpt>
   <trkpt lat="30.850413" lon="34.778501"><ele>481</ele><name>TP00119</name><time>2016-12-28T19:05:59Z</time></trkpt>
   <trkpt lat="30.850443" lon="34.778458"><ele>481</ele><name>TP00120</name><time>2016-12-28T19:06:00Z</time></trkpt>
   <trkpt lat="30.850472" lon="34.77841"><ele>480.9</ele><name>TP00121</name><time>2016-12-28T19:06:01Z</time></trkpt>
   <trkpt lat="30.850502" lon="34.778357"><ele>480.9</ele><name>TP00122</name><time>2016-12-28T19:06:02Z</time></trkpt>
   <trkpt lat="30.850528" lon="34.778314"><ele>480.9</ele><name>TP00123</name><time>2016-12-28T19:06:03Z</time></trkpt>
   <trkpt lat="30.850556" lon="34.778263"><ele>480.8</ele><name>TP00124</name><time>2016-12-28T19:06:04Z</time></trkpt>
   <trkpt lat="30.850586" lon="34.778213"><ele>480.7</ele><name>TP00125</name><time>2016-12-28T19:06:05Z</time></trkpt>
   <trkpt lat="30.850616" lon="34.778168"><ele>480.7</ele><name>TP00126</name><time>2016-12-28T19:06:06Z</time></trkpt>
   <trkpt lat="30.850653" lon="34.778117"><ele>480.6</ele><name>TP00127</name><time>2016-12-28T19:06:07Z</time></trkpt>
   <trkpt lat="30.850684" lon="34.778072"><ele>480.5</ele><name>TP00128</name><time>2016-12-28T19:06:08Z</time></trkpt>
   <trkpt lat="30.850717" lon="34.778027"><ele>480.4</ele><name>TP00129</name><time>2016-12-28T19:06:09Z</time></trkpt>
   <trkpt lat="30.850748" lon="34.777976"><ele>480.3</ele><name>TP00130</name><time>2016-12-28T19:06:10Z</time></trkpt>
   <trkpt lat="30.850784" lon="34.777931"><ele>480.1</ele><name>TP00131</name><time>2016-12-28T19:06:11Z</time></trkpt>
   <trkpt lat="30.850816" lon="34.777884"><ele>480</ele><name>TP00132</name><time>2016-12-28T19:06:12Z</time></trkpt>
   <trkpt lat="30.850853" lon="34.777833"><ele>479.8</ele><name>TP00133</name><time>2016-12-28T19:06:13Z</time></trkpt>
   <trkpt lat="30.850895" lon="34.777784"><ele>479.6</ele><name>TP00134</name><time>2016-12-28T19:06:14Z</time></trkpt>
   <trkpt lat="30.850936" lon="34.777748"><ele>479.5</ele><name>TP00135</name><time>2016-12-28T19:06:15Z</time></trkpt>
   <trkpt lat="30.850972" lon="34.777717"><ele>479.4</ele><name>TP00136</name><time>2016-12-28T19:06:16Z</time></trkpt>
   <trkpt lat="30.851003" lon="34.777693"><ele>479.4</ele><name>TP00137</name><time>2016-12-28T19:06:17Z</time></trkpt>
   <trkpt lat="30.851015" lon="34.777652"><ele>479.3</ele><name>TP00138</name><time>2016-12-28T19:06:18Z</time></trkpt>
   <trkpt lat="30.851036" lon="34.777601"><ele>479.2</ele><name>TP00139</name><time>2016-12-28T19:06:19Z</time></trkpt>
   <trkpt lat="30.851068" lon="34.77756"><ele>479.2</ele><name>TP00140</name><time>2016-12-28T19:06:20Z</time></trkpt>
   <trkpt lat="30.851098" lon="34.77751"><ele>479.1</ele><name>TP00141</name><time>2016-12-28T19:06:21Z</time></trkpt>
   <trkpt lat="30.851129" lon="34.777459"><ele>479.1</ele><name>TP00142</name><time>2016-12-28T19:06:22Z</time></trkpt>
   <trkpt lat="30.851159" lon="34.777411"><ele>479</ele><name>TP00143</name><time>2016-12-28T19:06:23Z</time></trkpt>
   <trkpt lat="30.851192" lon="34.777362"><ele>479</ele><name>TP00144</name><time>2016-12-28T19:06:24Z</time></trkpt>
   <trkpt lat="30.851228" lon="34.777309"><ele>479</ele><name>TP00145</name><time>2016-12-28T19:06:25Z</time></trkpt>
   <trkpt lat="30.851257" lon="34.777263"><ele>479</ele><name>TP00146</name><time>2016-12-28T19:06:26Z</time></trkpt>
   <trkpt lat="30.851291" lon="34.777214"><ele>478.8</ele><name>TP00147</name><time>2016-12-28T19:06:27Z</time></trkpt>
   <trkpt lat="30.851323" lon="34.777163"><ele>478.7</ele><name>TP00148</name><time>2016-12-28T19:06:28Z</time></trkpt>
   <trkpt lat="30.851357" lon="34.777109"><ele>478.6</ele><name>TP00149</name><time>2016-12-28T19:06:29Z</time></trkpt>
   <trkpt lat="30.85139" lon="34.777059"><ele>478.4</ele><name>TP00150</name><time>2016-12-28T19:06:30Z</time></trkpt>
   <trkpt lat="30.851423" lon="34.777008"><ele>478.2</ele><name>TP00151</name><time>2016-12-28T19:06:31Z</time></trkpt>
   <trkpt lat="30.851456" lon="34.776957"><ele>478</ele><name>TP00152</name><time>2016-12-28T19:06:32Z</time></trkpt>
   <trkpt lat="30.851489" lon="34.776905"><ele>477.9</ele><name>TP00153</name><time>2016-12-28T19:06:33Z</time></trkpt>
   <trkpt lat="30.851522" lon="34.776849"><ele>477.7</ele><name>TP00154</name><time>2016-12-28T19:06:34Z</time></trkpt>
   <trkpt lat="30.851558" lon="34.776797"><ele>477.6</ele><name>TP00155</name><time>2016-12-28T19:06:35Z</time></trkpt>
   <trkpt lat="30.851594" lon="34.776746"><ele>477.5</ele><name>TP00156</name><time>2016-12-28T19:06:36Z</time></trkpt>
   <trkpt lat="30.85163" lon="34.776694"><ele>477.5</ele><name>TP00157</name><time>2016-12-28T19:06:37Z</time></trkpt>
   <trkpt lat="30.851667" lon="34.77664"><ele>477.5</ele><name>TP00158</name><time>2016-12-28T19:06:38Z</time></trkpt>
   <trkpt lat="30.851703" lon="34.776585"><ele>477.5</ele><name>TP00159</name><time>2016-12-28T19:06:39Z</time></trkpt>
   <trkpt lat="30.851743" lon="34.77653"><ele>477.6</ele><name>TP00160</name><time>2016-12-28T19:06:40Z</time></trkpt>
   <trkpt lat="30.851781" lon="34.77647"><ele>477.7</ele><name>TP00161</name><time>2016-12-28T19:06:41Z</time></trkpt>
   <trkpt lat="30.85182" lon="34.776416"><ele>477.8</ele><name>TP00162</name><time>2016-12-28T19:06:42Z</time></trkpt>
   <trkpt lat="30.851856" lon="34.776362"><ele>478</ele><name>TP00163</name><time>2016-12-28T19:06:43Z</time></trkpt>
   <trkpt lat="30.851895" lon="34.776306"><ele>478.2</ele><name>TP00164</name><time>2016-12-28T19:06:44Z</time></trkpt>
   <trkpt lat="30.851964" lon="34.776197"><ele>478.3</ele><name>TP00165</name><time>2016-12-28T19:06:46Z</time></trkpt>
   <trkpt lat="30.852" lon="34.776142"><ele>478.3</ele><name>TP00166</name><time>2016-12-28T19:06:47Z</time></trkpt>
   <trkpt lat="30.852034" lon="34.776091"><ele>478.3</ele><name>TP00167</name><time>2016-12-28T19:06:48Z</time></trkpt>
   <trkpt lat="30.852068" lon="34.776045"><ele>478.4</ele><name>TP00168</name><time>2016-12-28T19:06:49Z</time></trkpt>
   <trkpt lat="30.852103" lon="34.775992"><ele>478.4</ele><name>TP00169</name><time>2016-12-28T19:06:50Z</time></trkpt>
   <trkpt lat="30.852136" lon="34.775944"><ele>478.5</ele><name>TP00170</name><time>2016-12-28T19:06:51Z</time></trkpt>
   <trkpt lat="30.852173" lon="34.77589"><ele>478.5</ele><name>TP00171</name><time>2016-12-28T19:06:52Z</time></trkpt>
   <trkpt lat="30.85221" lon="34.775842"><ele>478.5</ele><name>TP00172</name><time>2016-12-28T19:06:53Z</time></trkpt>
   <trkpt lat="30.852249" lon="34.775788"><ele>478.6</ele><name>TP00173</name><time>2016-12-28T19:06:54Z</time></trkpt>
   <trkpt lat="30.852279" lon="34.775735"><ele>478.7</ele><name>TP00174</name><time>2016-12-28T19:06:55Z</time></trkpt>
   <trkpt lat="30.852314" lon="34.775686"><ele>478.8</ele><name>TP00175</name><time>2016-12-28T19:06:56Z</time></trkpt>
   <trkpt lat="30.852346" lon="34.775637"><ele>478.9</ele><name>TP00176</name><time>2016-12-28T19:06:57Z</time></trkpt>
   <trkpt lat="30.852379" lon="34.775587"><ele>479</ele><name>TP00177</name><time>2016-12-28T19:06:58Z</time></trkpt>
   <trkpt lat="30.852414" lon="34.775538"><ele>479.1</ele><name>TP00178</name><time>2016-12-28T19:06:59Z</time></trkpt>
   <trkpt lat="30.852443" lon="34.775497"><ele>479.2</ele><name>TP00179</name><time>2016-12-28T19:07:00Z</time></trkpt>
   <trkpt lat="30.85248" lon="34.775449"><ele>479.4</ele><name>TP00180</name><time>2016-12-28T19:07:01Z</time></trkpt>
   <trkpt lat="30.85251" lon="34.775406"><ele>479.6</ele><name>TP00181</name><time>2016-12-28T19:07:02Z</time></trkpt>
   <trkpt lat="30.852537" lon="34.775361"><ele>479.8</ele><name>TP00182</name><time>2016-12-28T19:07:03Z</time></trkpt>
   <trkpt lat="30.852564" lon="34.775315"><ele>480.1</ele><name>TP00183</name><time>2016-12-28T19:07:04Z</time></trkpt>
   <trkpt lat="30.852592" lon="34.775271"><ele>480.3</ele><name>TP00184</name><time>2016-12-28T19:07:05Z</time></trkpt>
   <trkpt lat="30.852618" lon="34.775227"><ele>480.6</ele><name>TP00185</name><time>2016-12-28T19:07:06Z</time></trkpt>
   <trkpt lat="30.852641" lon="34.775183"><ele>480.8</ele><name>TP00186</name><time>2016-12-28T19:07:07Z</time></trkpt>
   <trkpt lat="30.852665" lon="34.775137"><ele>481.1</ele><name>TP00187</name><time>2016-12-28T19:07:08Z</time></trkpt>
   <trkpt lat="30.852696" lon="34.775093"><ele>481.3</ele><name>TP00188</name><time>2016-12-28T19:07:09Z</time></trkpt>
   <trkpt lat="30.852724" lon="34.77505"><ele>481.6</ele><name>TP00189</name><time>2016-12-28T19:07:10Z</time></trkpt>
   <trkpt lat="30.85275" lon="34.775006"><ele>481.9</ele><name>TP00190</name><time>2016-12-28T19:07:11Z</time></trkpt>
   <trkpt lat="30.852779" lon="34.774966"><ele>482.2</ele><name>TP00191</name><time>2016-12-28T19:07:12Z</time></trkpt>
   <trkpt lat="30.852806" lon="34.774922"><ele>482.4</ele><name>TP00192</name><time>2016-12-28T19:07:13Z</time></trkpt>
   <trkpt lat="30.852829" lon="34.774872"><ele>482.7</ele><name>TP00193</name><time>2016-12-28T19:07:14Z</time></trkpt>
   <trkpt lat="30.852855" lon="34.774821"><ele>483</ele><name>TP00194</name><time>2016-12-28T19:07:15Z</time></trkpt>
   <trkpt lat="30.85288" lon="34.77477"><ele>483.3</ele><name>TP00195</name><time>2016-12-28T19:07:16Z</time></trkpt>
   <trkpt lat="30.852909" lon="34.774721"><ele>483.6</ele><name>TP00196</name><time>2016-12-28T19:07:17Z</time></trkpt>
   <trkpt lat="30.852932" lon="34.774666"><ele>483.8</ele><name>TP00197</name><time>2016-12-28T19:07:18Z</time></trkpt>
   <trkpt lat="30.85296" lon="34.774615"><ele>484</ele><name>TP00198</name><time>2016-12-28T19:07:19Z</time></trkpt>
   <trkpt lat="30.852983" lon="34.774561"><ele>484.1</ele><name>TP00199</name><time>2016-12-28T19:07:20Z</time></trkpt>
   <trkpt lat="30.853007" lon="34.774504"><ele>484.2</ele><name>TP00200</name><time>2016-12-28T19:07:21Z</time></trkpt>
   <trkpt lat="30.853032" lon="34.77445"><ele>484.2</ele><name>TP00201</name><time>2016-12-28T19:07:22Z</time></trkpt>
   <trkpt lat="30.853054" lon="34.774391"><ele>484.3</ele><name>TP00202</name><time>2016-12-28T19:07:23Z</time></trkpt>
   <trkpt lat="30.853078" lon="34.77433"><ele>484.3</ele><name>TP00203</name><time>2016-12-28T19:07:24Z</time></trkpt>
   <trkpt lat="30.853098" lon="34.774273"><ele>484.3</ele><name>TP00204</name><time>2016-12-28T19:07:25Z</time></trkpt>
   <trkpt lat="30.853124" lon="34.774215"><ele>484.4</ele><name>TP00205</name><time>2016-12-28T19:07:26Z</time></trkpt>
   <trkpt lat="30.853142" lon="34.774158"><ele>484.4</ele><name>TP00206</name><time>2016-12-28T19:07:27Z</time></trkpt>
   <trkpt lat="30.853155" lon="34.774098"><ele>484.4</ele><name>TP00207</name><time>2016-12-28T19:07:28Z</time></trkpt>
   <trkpt lat="30.853169" lon="34.77404"><ele>484.4</ele><name>TP00208</name><time>2016-12-28T19:07:29Z</time></trkpt>
   <trkpt lat="30.853182" lon="34.77398"><ele>484.4</ele><name>TP00209</name><time>2016-12-28T19:07:30Z</time></trkpt>
   <trkpt lat="30.853199" lon="34.773923"><ele>484.3</ele><name>TP00210</name><time>2016-12-28T19:07:31Z</time></trkpt>
   <trkpt lat="30.853215" lon="34.773864"><ele>484.3</ele><name>TP00211</name><time>2016-12-28T19:07:32Z</time></trkpt>
   <trkpt lat="30.853229" lon="34.773804"><ele>484.3</ele><name>TP00212</name><time>2016-12-28T19:07:33Z</time></trkpt>
   <trkpt lat="30.853245" lon="34.77374"><ele>484.2</ele><name>TP00213</name><time>2016-12-28T19:07:34Z</time></trkpt>
   <trkpt lat="30.853258" lon="34.773678"><ele>484.2</ele><name>TP00214</name><time>2016-12-28T19:07:35Z</time></trkpt>
   <trkpt lat="30.853275" lon="34.773619"><ele>484.3</ele><name>TP00215</name><time>2016-12-28T19:07:36Z</time></trkpt>
   <trkpt lat="30.853291" lon="34.77356"><ele>484.3</ele><name>TP00216</name><time>2016-12-28T19:07:37Z</time></trkpt>
   <trkpt lat="30.853307" lon="34.773499"><ele>484.3</ele><name>TP00217</name><time>2016-12-28T19:07:38Z</time></trkpt>
   <trkpt lat="30.85332" lon="34.773438"><ele>484.4</ele><name>TP00218</name><time>2016-12-28T19:07:39Z</time></trkpt>
   <trkpt lat="30.853338" lon="34.77338"><ele>484.4</ele><name>TP00219</name><time>2016-12-28T19:07:40Z</time></trkpt>
   <trkpt lat="30.853347" lon="34.773317"><ele>484.5</ele><name>TP00220</name><time>2016-12-28T19:07:41Z</time></trkpt>
   <trkpt lat="30.853362" lon="34.77326"><ele>484.6</ele><name>TP00221</name><time>2016-12-28T19:07:42Z</time></trkpt>
   <trkpt lat="30.853373" lon="34.773202"><ele>484.7</ele><name>TP00222</name><time>2016-12-28T19:07:43Z</time></trkpt>
   <trkpt lat="30.853388" lon="34.773141"><ele>484.8</ele><name>TP00223</name><time>2016-12-28T19:07:44Z</time></trkpt>
   <trkpt lat="30.853403" lon="34.773082"><ele>484.9</ele><name>TP00224</name><time>2016-12-28T19:07:45Z</time></trkpt>
   <trkpt lat="30.853417" lon="34.773023"><ele>485</ele><name>TP00225</name><time>2016-12-28T19:07:46Z</time></trkpt>
   <trkpt lat="30.85343" lon="34.772967"><ele>485.1</ele><name>TP00226</name><time>2016-12-28T19:07:47Z</time></trkpt>
   <trkpt lat="30.853445" lon="34.77291"><ele>485.3</ele><name>TP00227</name><time>2016-12-28T19:07:48Z</time></trkpt>
   <trkpt lat="30.853463" lon="34.772853"><ele>485.4</ele><name>TP00228</name><time>2016-12-28T19:07:49Z</time></trkpt>
   <trkpt lat="30.853479" lon="34.772795"><ele>485.5</ele><name>TP00229</name><time>2016-12-28T19:07:50Z</time></trkpt>
   <trkpt lat="30.85349" lon="34.772736"><ele>485.6</ele><name>TP00230</name><time>2016-12-28T19:07:51Z</time></trkpt>
   <trkpt lat="30.853505" lon="34.772678"><ele>485.7</ele><name>TP00231</name><time>2016-12-28T19:07:52Z</time></trkpt>
   <trkpt lat="30.853518" lon="34.77262"><ele>485.9</ele><name>TP00232</name><time>2016-12-28T19:07:53Z</time></trkpt>
   <trkpt lat="30.853532" lon="34.772566"><ele>486</ele><name>TP00233</name><time>2016-12-28T19:07:54Z</time></trkpt>
   <trkpt lat="30.853547" lon="34.772506"><ele>486.1</ele><name>TP00234</name><time>2016-12-28T19:07:55Z</time></trkpt>
   <trkpt lat="30.853562" lon="34.772453"><ele>486.3</ele><name>TP00235</name><time>2016-12-28T19:07:56Z</time></trkpt>
   <trkpt lat="30.853576" lon="34.772395"><ele>486.4</ele><name>TP00236</name><time>2016-12-28T19:07:57Z</time></trkpt>
   <trkpt lat="30.85359" lon="34.772338"><ele>486.6</ele><name>TP00237</name><time>2016-12-28T19:07:58Z</time></trkpt>
   <trkpt lat="30.853605" lon="34.772283"><ele>486.8</ele><name>TP00238</name><time>2016-12-28T19:07:59Z</time></trkpt>
   <trkpt lat="30.853616" lon="34.772226"><ele>486.9</ele><name>TP00239</name><time>2016-12-28T19:08:00Z</time></trkpt>
   <trkpt lat="30.853629" lon="34.77217"><ele>487.1</ele><name>TP00240</name><time>2016-12-28T19:08:01Z</time></trkpt>
   <trkpt lat="30.85364" lon="34.772119"><ele>487.3</ele><name>TP00241</name><time>2016-12-28T19:08:02Z</time></trkpt>
   <trkpt lat="30.853652" lon="34.772061"><ele>487.5</ele><name>TP00242</name><time>2016-12-28T19:08:03Z</time></trkpt>
   <trkpt lat="30.853667" lon="34.772007"><ele>487.7</ele><name>TP00243</name><time>2016-12-28T19:08:04Z</time></trkpt>
   <trkpt lat="30.85368" lon="34.77195"><ele>487.9</ele><name>TP00244</name><time>2016-12-28T19:08:05Z</time></trkpt>
   <trkpt lat="30.853693" lon="34.77189"><ele>488.1</ele><name>TP00245</name><time>2016-12-28T19:08:06Z</time></trkpt>
   <trkpt lat="30.853706" lon="34.771834"><ele>488.3</ele><name>TP00246</name><time>2016-12-28T19:08:07Z</time></trkpt>
   <trkpt lat="30.853722" lon="34.771777"><ele>488.6</ele><name>TP00247</name><time>2016-12-28T19:08:08Z</time></trkpt>
   <trkpt lat="30.853737" lon="34.77172"><ele>488.8</ele><name>TP00248</name><time>2016-12-28T19:08:09Z</time></trkpt>
   <trkpt lat="30.85375" lon="34.771665"><ele>489</ele><name>TP00249</name><time>2016-12-28T19:08:10Z</time></trkpt>
   <trkpt lat="30.853766" lon="34.771611"><ele>489.2</ele><name>TP00250</name><time>2016-12-28T19:08:11Z</time></trkpt>
   <trkpt lat="30.85378" lon="34.771561"><ele>489.3</ele><name>TP00251</name><time>2016-12-28T19:08:12Z</time></trkpt>
   <trkpt lat="30.853792" lon="34.771507"><ele>489.5</ele><name>TP00252</name><time>2016-12-28T19:08:13Z</time></trkpt>
   <trkpt lat="30.8538" lon="34.771451"><ele>489.7</ele><name>TP00253</name><time>2016-12-28T19:08:14Z</time></trkpt>
   <trkpt lat="30.853812" lon="34.771396"><ele>489.8</ele><name>TP00254</name><time>2016-12-28T19:08:15Z</time></trkpt>
   <trkpt lat="30.853823" lon="34.771347"><ele>490</ele><name>TP00255</name><time>2016-12-28T19:08:16Z</time></trkpt>
   <trkpt lat="30.853837" lon="34.771295"><ele>490.2</ele><name>TP00256</name><time>2016-12-28T19:08:17Z</time></trkpt>
   <trkpt lat="30.853852" lon="34.771244"><ele>490.4</ele><name>TP00257</name><time>2016-12-28T19:08:18Z</time></trkpt>
   <trkpt lat="30.853863" lon="34.771195"><ele>490.6</ele><name>TP00258</name><time>2016-12-28T19:08:19Z</time></trkpt>
   <trkpt lat="30.853878" lon="34.771145"><ele>490.9</ele><name>TP00259</name><time>2016-12-28T19:08:20Z</time></trkpt>
   <trkpt lat="30.853888" lon="34.771092"><ele>491.2</ele><name>TP00260</name><time>2016-12-28T19:08:21Z</time></trkpt>
   <trkpt lat="30.8539" lon="34.77104"><ele>491.5</ele><name>TP00261</name><time>2016-12-28T19:08:22Z</time></trkpt>
   <trkpt lat="30.853912" lon="34.770989"><ele>491.8</ele><name>TP00262</name><time>2016-12-28T19:08:23Z</time></trkpt>
   <trkpt lat="30.853924" lon="34.770937"><ele>492.1</ele><name>TP00263</name><time>2016-12-28T19:08:24Z</time></trkpt>
   <trkpt lat="30.853938" lon="34.770887"><ele>492.4</ele><name>TP00264</name><time>2016-12-28T19:08:25Z</time></trkpt>
   <trkpt lat="30.853946" lon="34.770834"><ele>492.7</ele><name>TP00265</name><time>2016-12-28T19:08:26Z</time></trkpt>
   <trkpt lat="30.853963" lon="34.77078"><ele>493</ele><name>TP00266</name><time>2016-12-28T19:08:27Z</time></trkpt>
   <trkpt lat="30.853974" lon="34.770729"><ele>493.4</ele><name>TP00267</name><time>2016-12-28T19:08:28Z</time></trkpt>
   <trkpt lat="30.853986" lon="34.770679"><ele>493.7</ele><name>TP00268</name><time>2016-12-28T19:08:29Z</time></trkpt>
   <trkpt lat="30.853997" lon="34.770631"><ele>494</ele><name>TP00269</name><time>2016-12-28T19:08:30Z</time></trkpt>
   <trkpt lat="30.853998" lon="34.77059"><ele>494.2</ele><name>TP00270</name><time>2016-12-28T19:08:31Z</time></trkpt>
   <trkpt lat="30.853973" lon="34.770563"><ele>494.2</ele><name>TP00271</name><time>2016-12-28T19:08:32Z</time></trkpt>
   <trkpt lat="30.853943" lon="34.770539"><ele>494</ele><name>TP00272</name><time>2016-12-28T19:08:33Z</time></trkpt>
   <trkpt lat="30.853925" lon="34.770493"><ele>494.1</ele><name>TP00273</name><time>2016-12-28T19:08:34Z</time></trkpt>
   <trkpt lat="30.85392" lon="34.770441"><ele>494.3</ele><name>TP00274</name><time>2016-12-28T19:08:35Z</time></trkpt>
   <trkpt lat="30.853912" lon="34.770395"><ele>494.4</ele><name>TP00275</name><time>2016-12-28T19:08:36Z</time></trkpt>
   <trkpt lat="30.853902" lon="34.770354"><ele>494.5</ele><name>TP00276</name><time>2016-12-28T19:08:37Z</time></trkpt>
   <trkpt lat="30.853896" lon="34.770305"><ele>494.6</ele><name>TP00277</name><time>2016-12-28T19:08:39Z</time></trkpt>
   <trkpt lat="30.853876" lon="34.770255"><ele>494.6</ele><name>TP00278</name><time>2016-12-28T19:08:41Z</time></trkpt>
   <trkpt lat="30.853858" lon="34.770229"><ele>494.5</ele><name>TP00279</name><time>2016-12-28T19:08:42Z</time></trkpt>
   <trkpt lat="30.853813" lon="34.770178"><ele>494.3</ele><name>TP00280</name><time>2016-12-28T19:08:44Z</time></trkpt>
   <trkpt lat="30.853743" lon="34.770099"><ele>494.1</ele><name>TP00281</name><time>2016-12-28T19:08:46Z</time></trkpt>
   <trkpt lat="30.853716" lon="34.770063"><ele>494.1</ele><name>TP00282</name><time>2016-12-28T19:08:47Z</time></trkpt>
   <trkpt lat="30.853684" lon="34.770024"><ele>494.1</ele><name>TP00283</name><time>2016-12-28T19:08:48Z</time></trkpt>
   <trkpt lat="30.853651" lon="34.769984"><ele>494.1</ele><name>TP00284</name><time>2016-12-28T19:08:49Z</time></trkpt>
   <trkpt lat="30.853628" lon="34.769947"><ele>494.1</ele><name>TP00285</name><time>2016-12-28T19:08:50Z</time></trkpt>
   <trkpt lat="30.853601" lon="34.769915"><ele>494.1</ele><name>TP00286</name><time>2016-12-28T19:08:51Z</time></trkpt>
   <trkpt lat="30.853573" lon="34.769884"><ele>494.1</ele><name>TP00287</name><time>2016-12-28T19:08:52Z</time></trkpt>
   <trkpt lat="30.853539" lon="34.769851"><ele>494.1</ele><name>TP00288</name><time>2016-12-28T19:08:53Z</time></trkpt>
   <trkpt lat="30.853499" lon="34.769814"><ele>494.1</ele><name>TP00289</name><time>2016-12-28T19:08:54Z</time></trkpt>
   <trkpt lat="30.853455" lon="34.769774"><ele>494.1</ele><name>TP00290</name><time>2016-12-28T19:08:55Z</time></trkpt>
   <trkpt lat="30.85341" lon="34.76973"><ele>494.1</ele><name>TP00291</name><time>2016-12-28T19:08:56Z</time></trkpt>
   <trkpt lat="30.853367" lon="34.769689"><ele>494.1</ele><name>TP00292</name><time>2016-12-28T19:08:57Z</time></trkpt>
   <trkpt lat="30.853324" lon="34.769651"><ele>494.1</ele><name>TP00293</name><time>2016-12-28T19:08:58Z</time></trkpt>
   <trkpt lat="30.853277" lon="34.769612"><ele>494.2</ele><name>TP00294</name><time>2016-12-28T19:08:59Z</time></trkpt>
   <trkpt lat="30.853233" lon="34.769571"><ele>494.2</ele><name>TP00295</name><time>2016-12-28T19:09:00Z</time></trkpt>
   <trkpt lat="30.853195" lon="34.769528"><ele>494.5</ele><name>TP00296</name><time>2016-12-28T19:09:01Z</time></trkpt>
   <trkpt lat="30.853152" lon="34.769491"><ele>494.7</ele><name>TP00297</name><time>2016-12-28T19:09:02Z</time></trkpt>
   <trkpt lat="30.85312" lon="34.769453"><ele>494.9</ele><name>TP00298</name><time>2016-12-28T19:09:03Z</time></trkpt>
   <trkpt lat="30.853081" lon="34.769422"><ele>495</ele><name>TP00299</name><time>2016-12-28T19:09:04Z</time></trkpt>
   <trkpt lat="30.853047" lon="34.769393"><ele>495.1</ele><name>TP00300</name><time>2016-12-28T19:09:05Z</time></trkpt>
   <trkpt lat="30.853005" lon="34.769352"><ele>495.3</ele><name>TP00301</name><time>2016-12-28T19:09:07Z</time></trkpt>
   <trkpt lat="30.852942" lon="34.769302"><ele>495.5</ele><name>TP00302</name><time>2016-12-28T19:09:08Z</time></trkpt>
   <trkpt lat="30.852883" lon="34.769251"><ele>495.7</ele><name>TP00303</name><time>2016-12-28T19:09:09Z</time></trkpt>
   <trkpt lat="30.852832" lon="34.769205"><ele>496</ele><name>TP00304</name><time>2016-12-28T19:09:10Z</time></trkpt>
   <trkpt lat="30.852788" lon="34.769165"><ele>496.2</ele><name>TP00305</name><time>2016-12-28T19:09:11Z</time></trkpt>
   <trkpt lat="30.852747" lon="34.769131"><ele>496.4</ele><name>TP00306</name><time>2016-12-28T19:09:12Z</time></trkpt>
   <trkpt lat="30.852721" lon="34.769109"><ele>496.5</ele><name>TP00307</name><time>2016-12-28T19:09:13Z</time></trkpt>
   <trkpt lat="30.852686" lon="34.769077"><ele>496.6</ele><name>TP00308</name><time>2016-12-28T19:09:14Z</time></trkpt>
   <trkpt lat="30.852653" lon="34.769044"><ele>496.8</ele><name>TP00309</name><time>2016-12-28T19:09:15Z</time></trkpt>
   <trkpt lat="30.852632" lon="34.769008"><ele>497</ele><name>TP00310</name><time>2016-12-28T19:09:16Z</time></trkpt>
   <trkpt lat="30.852629" lon="34.76897"><ele>497.3</ele><name>TP00311</name><time>2016-12-28T19:09:17Z</time></trkpt>
   <trkpt lat="30.852632" lon="34.768931"><ele>497.6</ele><name>TP00312</name><time>2016-12-28T19:09:18Z</time></trkpt>
   <trkpt lat="30.852623" lon="34.7689"><ele>497.8</ele><name>TP00313</name><time>2016-12-28T19:09:19Z</time></trkpt>
   <trkpt lat="30.852605" lon="34.768862"><ele>498</ele><name>TP00314</name><time>2016-12-28T19:09:21Z</time></trkpt>
   <trkpt lat="30.85259" lon="34.768826"><ele>498.3</ele><name>TP00315</name><time>2016-12-28T19:09:22Z</time></trkpt>
   <trkpt lat="30.852587" lon="34.768786"><ele>498.5</ele><name>TP00316</name><time>2016-12-28T19:09:23Z</time></trkpt>
   <trkpt lat="30.852594" lon="34.768745"><ele>498.9</ele><name>TP00317</name><time>2016-12-28T19:09:24Z</time></trkpt>
   <trkpt lat="30.852622" lon="34.768694"><ele>499.3</ele><name>TP00318</name><time>2016-12-28T19:09:26Z</time></trkpt>
   <trkpt lat="30.852639" lon="34.768663"><ele>499.5</ele><name>TP00319</name><time>2016-12-28T19:09:27Z</time></trkpt>
   <trkpt lat="30.85266" lon="34.76862"><ele>499.8</ele><name>TP00320</name><time>2016-12-28T19:09:28Z</time></trkpt>
   <trkpt lat="30.852682" lon="34.768566"><ele>500.2</ele><name>TP00321</name><time>2016-12-28T19:09:29Z</time></trkpt>
   <trkpt lat="30.852696" lon="34.768528"><ele>500.4</ele><name>TP00322</name><time>2016-12-28T19:09:30Z</time></trkpt>
   <trkpt lat="30.852707" lon="34.768496"><ele>500.6</ele><name>TP00323</name><time>2016-12-28T19:09:31Z</time></trkpt>
   <trkpt lat="30.852721" lon="34.768457"><ele>500.9</ele><name>TP00324</name><time>2016-12-28T19:09:32Z</time></trkpt>
   <trkpt lat="30.852739" lon="34.768415"><ele>501.1</ele><name>TP00325</name><time>2016-12-28T19:09:33Z</time></trkpt>
   <trkpt lat="30.852756" lon="34.768374"><ele>501.4</ele><name>TP00326</name><time>2016-12-28T19:09:34Z</time></trkpt>
   <trkpt lat="30.852774" lon="34.768334"><ele>501.7</ele><name>TP00327</name><time>2016-12-28T19:09:35Z</time></trkpt>
   <trkpt lat="30.852793" lon="34.768294"><ele>501.9</ele><name>TP00328</name><time>2016-12-28T19:09:36Z</time></trkpt>
   <trkpt lat="30.852848" lon="34.768155"><ele>502.7</ele><name>TP00329</name><time>2016-12-28T19:09:39Z</time></trkpt>
   <trkpt lat="30.85286" lon="34.768114"><ele>503</ele><name>TP00330</name><time>2016-12-28T19:09:40Z</time></trkpt>
   <trkpt lat="30.85287" lon="34.768071"><ele>503.2</ele><name>TP00331</name><time>2016-12-28T19:09:41Z</time></trkpt>
   <trkpt lat="30.852876" lon="34.768024"><ele>503.4</ele><name>TP00332</name><time>2016-12-28T19:09:42Z</time></trkpt>
   <trkpt lat="30.852882" lon="34.767979"><ele>503.7</ele><name>TP00333</name><time>2016-12-28T19:09:43Z</time></trkpt>
   <trkpt lat="30.85289" lon="34.76793"><ele>503.9</ele><name>TP00334</name><time>2016-12-28T19:09:44Z</time></trkpt>
   <trkpt lat="30.852893" lon="34.767899"><ele>504</ele><name>TP00335</name><time>2016-12-28T19:09:45Z</time></trkpt>
   <trkpt lat="30.852898" lon="34.767844"><ele>504</ele><name>TP00336</name><time>2016-12-28T19:09:47Z</time></trkpt>
   <trkpt lat="30.852872" lon="34.767814"><ele>504</ele><name>TP00337</name><time>2016-12-28T19:09:49Z</time></trkpt>
   <trkpt lat="30.852843" lon="34.767821"><ele>504</ele><name>TP00338</name><time>2016-12-28T19:09:50Z</time></trkpt>
   <trkpt lat="30.852818" lon="34.767766"><ele>504.1</ele><name>TP00339</name><time>2016-12-28T19:09:52Z</time></trkpt>
   <trkpt lat="30.852832" lon="34.767719"><ele>504.1</ele><name>TP00340</name><time>2016-12-28T19:09:53Z</time></trkpt>
   <trkpt lat="30.852818" lon="34.767677"><ele>504.2</ele><name>TP00341</name><time>2016-12-28T19:09:55Z</time></trkpt>
   <trkpt lat="30.852801" lon="34.767643"><ele>504.2</ele><name>TP00342</name><time>2016-12-28T19:09:57Z</time></trkpt>
   <trkpt lat="30.852792" lon="34.767603"><ele>504.3</ele><name>TP00343</name><time>2016-12-28T19:09:59Z</time></trkpt>
   <trkpt lat="30.852797" lon="34.76756"><ele>504.3</ele><name>TP00344</name><time>2016-12-28T19:10:00Z</time></trkpt>
   <trkpt lat="30.852802" lon="34.767518"><ele>504.4</ele><name>TP00345</name><time>2016-12-28T19:10:01Z</time></trkpt>
   <trkpt lat="30.852808" lon="34.767476"><ele>504.4</ele><name>TP00346</name><time>2016-12-28T19:10:02Z</time></trkpt>
   <trkpt lat="30.852814" lon="34.767432"><ele>504.5</ele><name>TP00347</name><time>2016-12-28T19:10:03Z</time></trkpt>
   <trkpt lat="30.852827" lon="34.767385"><ele>504.4</ele><name>TP00348</name><time>2016-12-28T19:10:04Z</time></trkpt>
   <trkpt lat="30.852838" lon="34.767341"><ele>504.4</ele><name>TP00349</name><time>2016-12-28T19:10:05Z</time></trkpt>
   <trkpt lat="30.852849" lon="34.767294"><ele>504.4</ele><name>TP00350</name><time>2016-12-28T19:10:06Z</time></trkpt>
   <trkpt lat="30.852859" lon="34.767249"><ele>504.4</ele><name>TP00351</name><time>2016-12-28T19:10:07Z</time></trkpt>
   <trkpt lat="30.852869" lon="34.767203"><ele>504.3</ele><name>TP00352</name><time>2016-12-28T19:10:08Z</time></trkpt>
   <trkpt lat="30.852883" lon="34.767162"><ele>504.3</ele><name>TP00353</name><time>2016-12-28T19:10:09Z</time></trkpt>
   <trkpt lat="30.852906" lon="34.767133"><ele>504.1</ele><name>TP00354</name><time>2016-12-28T19:10:10Z</time></trkpt>
   <trkpt lat="30.852921" lon="34.767087"><ele>504.1</ele><name>TP00355</name><time>2016-12-28T19:10:11Z</time></trkpt>
   <trkpt lat="30.852934" lon="34.767043"><ele>504.4</ele><name>TP00356</name><time>2016-12-28T19:10:12Z</time></trkpt>
   <trkpt lat="30.852954" lon="34.766981"><ele>504.8</ele><name>TP00357</name><time>2016-12-28T19:10:13Z</time></trkpt>
   <trkpt lat="30.85297" lon="34.766921"><ele>505.2</ele><name>TP00358</name><time>2016-12-28T19:10:14Z</time></trkpt>
   <trkpt lat="30.852983" lon="34.766863"><ele>505.6</ele><name>TP00359</name><time>2016-12-28T19:10:15Z</time></trkpt>
   <trkpt lat="30.85299" lon="34.76683"><ele>505.7</ele><name>TP00360</name><time>2016-12-28T19:10:16Z</time></trkpt>
   <trkpt lat="30.852999" lon="34.766776"><ele>506</ele><name>TP00361</name><time>2016-12-28T19:10:17Z</time></trkpt>
   <trkpt lat="30.853013" lon="34.76672"><ele>506.3</ele><name>TP00362</name><time>2016-12-28T19:10:18Z</time></trkpt>
   <trkpt lat="30.853024" lon="34.766629"><ele>506.7</ele><name>TP00363</name><time>2016-12-28T19:10:20Z</time></trkpt>
   <trkpt lat="30.853041" lon="34.766543"><ele>507.1</ele><name>TP00364</name><time>2016-12-28T19:10:21Z</time></trkpt>
   <trkpt lat="30.853056" lon="34.766464"><ele>507.4</ele><name>TP00365</name><time>2016-12-28T19:10:22Z</time></trkpt>
   <trkpt lat="30.85307" lon="34.766391"><ele>507.8</ele><name>TP00366</name><time>2016-12-28T19:10:23Z</time></trkpt>
   <trkpt lat="30.853082" lon="34.766322"><ele>508</ele><name>TP00367</name><time>2016-12-28T19:10:24Z</time></trkpt>
   <trkpt lat="30.853095" lon="34.766258"><ele>508.3</ele><name>TP00368</name><time>2016-12-28T19:10:25Z</time></trkpt>
   <trkpt lat="30.853108" lon="34.766191"><ele>508.6</ele><name>TP00369</name><time>2016-12-28T19:10:26Z</time></trkpt>
   <trkpt lat="30.853121" lon="34.766131"><ele>509</ele><name>TP00370</name><time>2016-12-28T19:10:27Z</time></trkpt>
   <trkpt lat="30.853134" lon="34.766073"><ele>509.3</ele><name>TP00371</name><time>2016-12-28T19:10:28Z</time></trkpt>
   <trkpt lat="30.853144" lon="34.766014"><ele>509.6</ele><name>TP00372</name><time>2016-12-28T19:10:29Z</time></trkpt>
   <trkpt lat="30.853153" lon="34.765968"><ele>509.9</ele><name>TP00373</name><time>2016-12-28T19:10:30Z</time></trkpt>
   <trkpt lat="30.853159" lon="34.765936"><ele>510.1</ele><name>TP00374</name><time>2016-12-28T19:10:31Z</time></trkpt>
   <trkpt lat="30.853165" lon="34.765901"><ele>510.3</ele><name>TP00375</name><time>2016-12-28T19:10:32Z</time></trkpt>
   <trkpt lat="30.853173" lon="34.765857"><ele>510.6</ele><name>TP00376</name><time>2016-12-28T19:10:33Z</time></trkpt>
   <trkpt lat="30.853179" lon="34.765805"><ele>510.8</ele><name>TP00377</name><time>2016-12-28T19:10:34Z</time></trkpt>
   <trkpt lat="30.853186" lon="34.76575"><ele>511.1</ele><name>TP00378</name><time>2016-12-28T19:10:35Z</time></trkpt>
   <trkpt lat="30.853195" lon="34.765693"><ele>511.5</ele><name>TP00379</name><time>2016-12-28T19:10:36Z</time></trkpt>
   <trkpt lat="30.853198" lon="34.765633"><ele>511.7</ele><name>TP00380</name><time>2016-12-28T19:10:38Z</time></trkpt>
   <trkpt lat="30.853194" lon="34.76559"><ele>511.9</ele><name>TP00381</name><time>2016-12-28T19:10:39Z</time></trkpt>
   <trkpt lat="30.853189" lon="34.76555"><ele>512</ele><name>TP00382</name><time>2016-12-28T19:10:40Z</time></trkpt>
   <trkpt lat="30.853183" lon="34.765512"><ele>512.1</ele><name>TP00383</name><time>2016-12-28T19:10:41Z</time></trkpt>
   <trkpt lat="30.853173" lon="34.765475"><ele>512.2</ele><name>TP00384</name><time>2016-12-28T19:10:42Z</time></trkpt>
   <trkpt lat="30.853159" lon="34.765437"><ele>512.2</ele><name>TP00385</name><time>2016-12-28T19:10:43Z</time></trkpt>
   <trkpt lat="30.853144" lon="34.765393"><ele>512.4</ele><name>TP00386</name><time>2016-12-28T19:10:44Z</time></trkpt>
   <trkpt lat="30.853131" lon="34.765271"><ele>513.3</ele><name>TP00387</name><time>2016-12-28T19:10:47Z</time></trkpt>
   <trkpt lat="30.853133" lon="34.765227"><ele>513.7</ele><name>TP00388</name><time>2016-12-28T19:10:48Z</time></trkpt>
   <trkpt lat="30.853134" lon="34.765186"><ele>514</ele><name>TP00389</name><time>2016-12-28T19:10:49Z</time></trkpt>
   <trkpt lat="30.85314" lon="34.765145"><ele>514.5</ele><name>TP00390</name><time>2016-12-28T19:10:50Z</time></trkpt>
   <trkpt lat="30.853141" lon="34.765101"><ele>514.9</ele><name>TP00391</name><time>2016-12-28T19:10:51Z</time></trkpt>
   <trkpt lat="30.853143" lon="34.765054"><ele>515.3</ele><name>TP00392</name><time>2016-12-28T19:10:53Z</time></trkpt>
   <trkpt lat="30.853147" lon="34.764998"><ele>515.8</ele><name>TP00393</name><time>2016-12-28T19:10:55Z</time></trkpt>
   <trkpt lat="30.853152" lon="34.764961"><ele>516.2</ele><name>TP00394</name><time>2016-12-28T19:10:56Z</time></trkpt>
   <trkpt lat="30.853153" lon="34.764919"><ele>516.6</ele><name>TP00395</name><time>2016-12-28T19:10:57Z</time></trkpt>
   <trkpt lat="30.853152" lon="34.76488"><ele>516.9</ele><name>TP00396</name><time>2016-12-28T19:10:58Z</time></trkpt>
   <trkpt lat="30.853147" lon="34.764845"><ele>517.2</ele><name>TP00397</name><time>2016-12-28T19:10:59Z</time></trkpt>
   <trkpt lat="30.85314" lon="34.764807"><ele>517.4</ele><name>TP00398</name><time>2016-12-28T19:11:00Z</time></trkpt>
   <trkpt lat="30.85313" lon="34.764768"><ele>517.5</ele><name>TP00399</name><time>2016-12-28T19:11:01Z</time></trkpt>
   <trkpt lat="30.853118" lon="34.764724"><ele>517.7</ele><name>TP00400</name><time>2016-12-28T19:11:02Z</time></trkpt>
   <trkpt lat="30.853105" lon="34.764676"><ele>517.9</ele><name>TP00401</name><time>2016-12-28T19:11:03Z</time></trkpt>
   <trkpt lat="30.853096" lon="34.76463"><ele>518.1</ele><name>TP00402</name><time>2016-12-28T19:11:04Z</time></trkpt>
   <trkpt lat="30.85309" lon="34.764584"><ele>518.3</ele><name>TP00403</name><time>2016-12-28T19:11:05Z</time></trkpt>
   <trkpt lat="30.853092" lon="34.764528"><ele>518.6</ele><name>TP00404</name><time>2016-12-28T19:11:06Z</time></trkpt>
   <trkpt lat="30.853098" lon="34.76448"><ele>519</ele><name>TP00405</name><time>2016-12-28T19:11:07Z</time></trkpt>
   <trkpt lat="30.853105" lon="34.764436"><ele>519.4</ele><name>TP00406</name><time>2016-12-28T19:11:08Z</time></trkpt>
   <trkpt lat="30.853112" lon="34.764392"><ele>519.7</ele><name>TP00407</name><time>2016-12-28T19:11:09Z</time></trkpt>
   <trkpt lat="30.853117" lon="34.76435"><ele>520</ele><name>TP00408</name><time>2016-12-28T19:11:10Z</time></trkpt>
   <trkpt lat="30.853123" lon="34.764306"><ele>520.4</ele><name>TP00409</name><time>2016-12-28T19:11:11Z</time></trkpt>
   <trkpt lat="30.853128" lon="34.764262"><ele>520.7</ele><name>TP00410</name><time>2016-12-28T19:11:12Z</time></trkpt>
   <trkpt lat="30.853134" lon="34.76422"><ele>521</ele><name>TP00411</name><time>2016-12-28T19:11:13Z</time></trkpt>
   <trkpt lat="30.85314" lon="34.764178"><ele>521.4</ele><name>TP00412</name><time>2016-12-28T19:11:14Z</time></trkpt>
   <trkpt lat="30.853146" lon="34.764138"><ele>521.7</ele><name>TP00413</name><time>2016-12-28T19:11:15Z</time></trkpt>
   <trkpt lat="30.853151" lon="34.764095"><ele>522</ele><name>TP00414</name><time>2016-12-28T19:11:16Z</time></trkpt>
   <trkpt lat="30.853155" lon="34.764055"><ele>522.3</ele><name>TP00415</name><time>2016-12-28T19:11:17Z</time></trkpt>
   <trkpt lat="30.853159" lon="34.764015"><ele>522.6</ele><name>TP00416</name><time>2016-12-28T19:11:18Z</time></trkpt>
   <trkpt lat="30.853162" lon="34.76398"><ele>522.8</ele><name>TP00417</name><time>2016-12-28T19:11:19Z</time></trkpt>
   <trkpt lat="30.853161" lon="34.763941"><ele>523</ele><name>TP00418</name><time>2016-12-28T19:11:20Z</time></trkpt>
   <trkpt lat="30.853158" lon="34.763907"><ele>523.1</ele><name>TP00419</name><time>2016-12-28T19:11:21Z</time></trkpt>
   <trkpt lat="30.853151" lon="34.763872"><ele>523.2</ele><name>TP00420</name><time>2016-12-28T19:11:22Z</time></trkpt>
   <trkpt lat="30.85314" lon="34.763816"><ele>523.2</ele><name>TP00421</name><time>2016-12-28T19:11:23Z</time></trkpt>
   <trkpt lat="30.853131" lon="34.76377"><ele>523.3</ele><name>TP00422</name><time>2016-12-28T19:11:24Z</time></trkpt>
   <trkpt lat="30.853124" lon="34.763716"><ele>523.3</ele><name>TP00423</name><time>2016-12-28T19:11:26Z</time></trkpt>
   <trkpt lat="30.853121" lon="34.763663"><ele>523.4</ele><name>TP00424</name><time>2016-12-28T19:11:27Z</time></trkpt>
   <trkpt lat="30.853122" lon="34.763615"><ele>523.6</ele><name>TP00425</name><time>2016-12-28T19:11:28Z</time></trkpt>
   <trkpt lat="30.853126" lon="34.76357"><ele>523.8</ele><name>TP00426</name><time>2016-12-28T19:11:29Z</time></trkpt>
   <trkpt lat="30.853134" lon="34.763524"><ele>524</ele><name>TP00427</name><time>2016-12-28T19:11:30Z</time></trkpt>
   <trkpt lat="30.853146" lon="34.76348"><ele>524.4</ele><name>TP00428</name><time>2016-12-28T19:11:31Z</time></trkpt>
   <trkpt lat="30.853157" lon="34.763448"><ele>524.7</ele><name>TP00429</name><time>2016-12-28T19:11:32Z</time></trkpt>
   <trkpt lat="30.85317" lon="34.763419"><ele>525</ele><name>TP00430</name><time>2016-12-28T19:11:33Z</time></trkpt>
   <trkpt lat="30.853216" lon="34.763316"><ele>526.1</ele><name>TP00431</name><time>2016-12-28T19:11:35Z</time></trkpt>
   <trkpt lat="30.853233" lon="34.763278"><ele>526.5</ele><name>TP00432</name><time>2016-12-28T19:11:36Z</time></trkpt>
   <trkpt lat="30.85324" lon="34.76324"><ele>526.7</ele><name>TP00433</name><time>2016-12-28T19:11:37Z</time></trkpt>
   <trkpt lat="30.853247" lon="34.763203"><ele>526.9</ele><name>TP00434</name><time>2016-12-28T19:11:38Z</time></trkpt>
   <trkpt lat="30.853254" lon="34.763167"><ele>527.1</ele><name>TP00435</name><time>2016-12-28T19:11:39Z</time></trkpt>
   <trkpt lat="30.853263" lon="34.763132"><ele>527.4</ele><name>TP00436</name><time>2016-12-28T19:11:40Z</time></trkpt>
   <trkpt lat="30.853268" lon="34.7631"><ele>527.5</ele><name>TP00437</name><time>2016-12-28T19:11:41Z</time></trkpt>
   <trkpt lat="30.853273" lon="34.76306"><ele>527.7</ele><name>TP00438</name><time>2016-12-28T19:11:43Z</time></trkpt>
   <trkpt lat="30.853274" lon="34.763016"><ele>527.8</ele><name>TP00439</name><time>2016-12-28T19:11:45Z</time></trkpt>
   <trkpt lat="30.853275" lon="34.762962"><ele>527.9</ele><name>TP00440</name><time>2016-12-28T19:11:47Z</time></trkpt>
   <trkpt lat="30.853275" lon="34.762918"><ele>528</ele><name>TP00441</name><time>2016-12-28T19:11:48Z</time></trkpt>
   <trkpt lat="30.853275" lon="34.762873"><ele>527.9</ele><name>TP00442</name><time>2016-12-28T19:11:49Z</time></trkpt>
   <trkpt lat="30.853276" lon="34.762829"><ele>527.9</ele><name>TP00443</name><time>2016-12-28T19:11:50Z</time></trkpt>
   <trkpt lat="30.853276" lon="34.762785"><ele>527.8</ele><name>TP00444</name><time>2016-12-28T19:11:51Z</time></trkpt>
   <trkpt lat="30.853276" lon="34.762741"><ele>527.7</ele><name>TP00445</name><time>2016-12-28T19:11:52Z</time></trkpt>
   <trkpt lat="30.853277" lon="34.762695"><ele>527.6</ele><name>TP00446</name><time>2016-12-28T19:11:53Z</time></trkpt>
   <trkpt lat="30.853283" lon="34.762565"><ele>527.4</ele><name>TP00447</name><time>2016-12-28T19:11:55Z</time></trkpt>
   <trkpt lat="30.853285" lon="34.762527"><ele>527.4</ele><name>TP00448</name><time>2016-12-28T19:11:56Z</time></trkpt>
   <trkpt lat="30.853287" lon="34.762489"><ele>527.3</ele><name>TP00449</name><time>2016-12-28T19:11:57Z</time></trkpt>
   <trkpt lat="30.853294" lon="34.762453"><ele>527.3</ele><name>TP00450</name><time>2016-12-28T19:11:58Z</time></trkpt>
   <trkpt lat="30.853305" lon="34.762416"><ele>527.3</ele><name>TP00451</name><time>2016-12-28T19:11:59Z</time></trkpt>
   <trkpt lat="30.853314" lon="34.762376"><ele>527.2</ele><name>TP00452</name><time>2016-12-28T19:12:00Z</time></trkpt>
   <trkpt lat="30.853327" lon="34.76234"><ele>527.2</ele><name>TP00453</name><time>2016-12-28T19:12:01Z</time></trkpt>
   <trkpt lat="30.853343" lon="34.7623"><ele>527.2</ele><name>TP00454</name><time>2016-12-28T19:12:03Z</time></trkpt>
   <trkpt lat="30.853364" lon="34.762254"><ele>527.1</ele><name>TP00455</name><time>2016-12-28T19:12:05Z</time></trkpt>
   <trkpt lat="30.853377" lon="34.762222"><ele>527.1</ele><name>TP00456</name><time>2016-12-28T19:12:07Z</time></trkpt>
   <trkpt lat="30.853386" lon="34.762187"><ele>527</ele><name>TP00457</name><time>2016-12-28T19:12:08Z</time></trkpt>
   <trkpt lat="30.853393" lon="34.762155"><ele>526.9</ele><name>TP00458</name><time>2016-12-28T19:12:09Z</time></trkpt>
   <trkpt lat="30.853399" lon="34.762123"><ele>526.7</ele><name>TP00459</name><time>2016-12-28T19:12:10Z</time></trkpt>
   <trkpt lat="30.853408" lon="34.762073"><ele>526.8</ele><name>TP00460</name><time>2016-12-28T19:12:12Z</time></trkpt>
   <trkpt lat="30.853416" lon="34.76203"><ele>527.5</ele><name>TP00461</name><time>2016-12-28T19:12:13Z</time></trkpt>
   <trkpt lat="30.853425" lon="34.761988"><ele>528.1</ele><name>TP00462</name><time>2016-12-28T19:12:14Z</time></trkpt>
   <trkpt lat="30.853446" lon="34.761932"><ele>529.1</ele><name>TP00463</name><time>2016-12-28T19:12:16Z</time></trkpt>
   <trkpt lat="30.85347" lon="34.761895"><ele>529.8</ele><name>TP00464</name><time>2016-12-28T19:12:17Z</time></trkpt>
   <trkpt lat="30.853499" lon="34.76186"><ele>530.4</ele><name>TP00465</name><time>2016-12-28T19:12:18Z</time></trkpt>
   <trkpt lat="30.85353" lon="34.761829"><ele>531</ele><name>TP00466</name><time>2016-12-28T19:12:19Z</time></trkpt>
   <trkpt lat="30.853555" lon="34.761806"><ele>531.4</ele><name>TP00467</name><time>2016-12-28T19:12:20Z</time></trkpt>
   <trkpt lat="30.853584" lon="34.761784"><ele>531.9</ele><name>TP00468</name><time>2016-12-28T19:12:22Z</time></trkpt>
   <trkpt lat="30.853611" lon="34.761767"><ele>532.3</ele><name>TP00469</name><time>2016-12-28T19:12:23Z</time></trkpt>
   <trkpt lat="30.853636" lon="34.76175"><ele>532.6</ele><name>TP00470</name><time>2016-12-28T19:12:24Z</time></trkpt>
   <trkpt lat="30.853659" lon="34.761732"><ele>533</ele><name>TP00471</name><time>2016-12-28T19:12:25Z</time></trkpt>
   <trkpt lat="30.853705" lon="34.761701"><ele>533.7</ele><name>TP00472</name><time>2016-12-28T19:12:27Z</time></trkpt>
   <trkpt lat="30.853749" lon="34.761669"><ele>534.5</ele><name>TP00473</name><time>2016-12-28T19:12:29Z</time></trkpt>
   <trkpt lat="30.853792" lon="34.761644"><ele>535</ele><name>TP00474</name><time>2016-12-28T19:12:31Z</time></trkpt>
   <trkpt lat="30.853833" lon="34.761618"><ele>535.5</ele><name>TP00475</name><time>2016-12-28T19:12:33Z</time></trkpt>
   <trkpt lat="30.853862" lon="34.761599"><ele>535.8</ele><name>TP00476</name><time>2016-12-28T19:12:35Z</time></trkpt>
   <trkpt lat="30.853904" lon="34.761575"><ele>536.2</ele><name>TP00477</name><time>2016-12-28T19:12:38Z</time></trkpt>
   <trkpt lat="30.853942" lon="34.761556"><ele>536.5</ele><name>TP00478</name><time>2016-12-28T19:12:40Z</time></trkpt>
   <trkpt lat="30.853981" lon="34.761543"><ele>536.7</ele><name>TP00479</name><time>2016-12-28T19:12:42Z</time></trkpt>
   <trkpt lat="30.854022" lon="34.761531"><ele>536.8</ele><name>TP00480</name><time>2016-12-28T19:12:44Z</time></trkpt>
   <trkpt lat="30.854059" lon="34.761508"><ele>537.1</ele><name>TP00481</name><time>2016-12-28T19:12:46Z</time></trkpt>
   <trkpt lat="30.854097" lon="34.761481"><ele>537.4</ele><name>TP00482</name><time>2016-12-28T19:12:48Z</time></trkpt>
   <trkpt lat="30.854131" lon="34.761457"><ele>537.7</ele><name>TP00483</name><time>2016-12-28T19:12:50Z</time></trkpt>
   <trkpt lat="30.854161" lon="34.761434"><ele>537.9</ele><name>TP00484</name><time>2016-12-28T19:12:52Z</time></trkpt>
   <trkpt lat="30.854189" lon="34.76142"><ele>538</ele><name>TP00485</name><time>2016-12-28T19:12:54Z</time></trkpt>
   <trkpt lat="30.854211" lon="34.761398"><ele>538.2</ele><name>TP00486</name><time>2016-12-28T19:12:56Z</time></trkpt>
   <trkpt lat="30.854244" lon="34.761372"><ele>538.4</ele><name>TP00487</name><time>2016-12-28T19:12:58Z</time></trkpt>
   <trkpt lat="30.854269" lon="34.761349"><ele>538.5</ele><name>TP00488</name><time>2016-12-28T19:13:00Z</time></trkpt>
   <trkpt lat="30.854308" lon="34.761328"><ele>538.6</ele><name>TP00489</name><time>2016-12-28T19:13:02Z</time></trkpt>
   <trkpt lat="30.854335" lon="34.761317"><ele>538.6</ele><name>TP00490</name><time>2016-12-28T19:13:03Z</time></trkpt>
   <trkpt lat="30.85438" lon="34.761296"><ele>538.6</ele><name>TP00491</name><time>2016-12-28T19:13:05Z</time></trkpt>
   <trkpt lat="30.854417" lon="34.761272"><ele>538.6</ele><name>TP00492</name><time>2016-12-28T19:13:07Z</time></trkpt>
   <trkpt lat="30.854453" lon="34.76125"><ele>538.6</ele><name>TP00493</name><time>2016-12-28T19:13:09Z</time></trkpt>
   <trkpt lat="30.85449" lon="34.761231"><ele>538.7</ele><name>TP00494</name><time>2016-12-28T19:13:11Z</time></trkpt>
   <trkpt lat="30.854526" lon="34.76121"><ele>538.9</ele><name>TP00495</name><time>2016-12-28T19:13:13Z</time></trkpt>
   <trkpt lat="30.854568" lon="34.761186"><ele>539</ele><name>TP00496</name><time>2016-12-28T19:13:15Z</time></trkpt>
   <trkpt lat="30.854607" lon="34.76115"><ele>539.6</ele><name>TP00497</name><time>2016-12-28T19:13:17Z</time></trkpt>
   <trkpt lat="30.854644" lon="34.761118"><ele>540.2</ele><name>TP00498</name><time>2016-12-28T19:13:19Z</time></trkpt>
   <trkpt lat="30.854674" lon="34.761088"><ele>540.8</ele><name>TP00499</name><time>2016-12-28T19:13:21Z</time></trkpt>
   <trkpt lat="30.8547" lon="34.761064"><ele>541.2</ele><name>TP00500</name><time>2016-12-28T19:13:23Z</time></trkpt>
   <trkpt lat="30.854727" lon="34.761033"><ele>541.8</ele><name>TP00501</name><time>2016-12-28T19:13:25Z</time></trkpt>
   <trkpt lat="30.854756" lon="34.760997"><ele>542.3</ele><name>TP00502</name><time>2016-12-28T19:13:27Z</time></trkpt>
   <trkpt lat="30.854789" lon="34.760964"><ele>542.8</ele><name>TP00503</name><time>2016-12-28T19:13:29Z</time></trkpt>
   <trkpt lat="30.854833" lon="34.760928"><ele>543.4</ele><name>TP00504</name><time>2016-12-28T19:13:31Z</time></trkpt>
   <trkpt lat="30.854876" lon="34.7609"><ele>543.8</ele><name>TP00505</name><time>2016-12-28T19:13:33Z</time></trkpt>
   <trkpt lat="30.85493" lon="34.76087"><ele>544.3</ele><name>TP00506</name><time>2016-12-28T19:13:35Z</time></trkpt>
   <trkpt lat="30.854962" lon="34.76085"><ele>544.5</ele><name>TP00507</name><time>2016-12-28T19:13:36Z</time></trkpt>
   <trkpt lat="30.85499" lon="34.760834"><ele>544.7</ele><name>TP00508</name><time>2016-12-28T19:13:37Z</time></trkpt>
   <trkpt lat="30.855034" lon="34.760821"><ele>544.9</ele><name>TP00509</name><time>2016-12-28T19:13:39Z</time></trkpt>
   <trkpt lat="30.855071" lon="34.760823"><ele>545</ele><name>TP00510</name><time>2016-12-28T19:13:41Z</time></trkpt>
   <trkpt lat="30.855105" lon="34.760829"><ele>545</ele><name>TP00511</name><time>2016-12-28T19:13:43Z</time></trkpt>
   <trkpt lat="30.855136" lon="34.760826"><ele>545</ele><name>TP00512</name><time>2016-12-28T19:13:45Z</time></trkpt>
   <trkpt lat="30.855173" lon="34.760797"><ele>545.3</ele><name>TP00513</name><time>2016-12-28T19:13:47Z</time></trkpt>
   <trkpt lat="30.85521" lon="34.76077"><ele>545.5</ele><name>TP00514</name><time>2016-12-28T19:13:49Z</time></trkpt>
   <trkpt lat="30.855243" lon="34.760751"><ele>545.7</ele><name>TP00515</name><time>2016-12-28T19:13:51Z</time></trkpt>
   <trkpt lat="30.85528" lon="34.760734"><ele>545.8</ele><name>TP00516</name><time>2016-12-28T19:13:53Z</time></trkpt>
   <trkpt lat="30.855315" lon="34.760721"><ele>545.9</ele><name>TP00517</name><time>2016-12-28T19:13:55Z</time></trkpt>
   <trkpt lat="30.85535" lon="34.760711"><ele>545.9</ele><name>TP00518</name><time>2016-12-28T19:13:57Z</time></trkpt>
   <trkpt lat="30.855386" lon="34.7607"><ele>546</ele><name>TP00519</name><time>2016-12-28T19:13:59Z</time></trkpt>
   <trkpt lat="30.855422" lon="34.760693"><ele>546</ele><name>TP00520</name><time>2016-12-28T19:14:01Z</time></trkpt>
   <trkpt lat="30.855458" lon="34.760693"><ele>546</ele><name>TP00521</name><time>2016-12-28T19:14:03Z</time></trkpt>
   <trkpt lat="30.855497" lon="34.760695"><ele>545.9</ele><name>TP00522</name><time>2016-12-28T19:14:05Z</time></trkpt>
   <trkpt lat="30.855535" lon="34.760697"><ele>545.8</ele><name>TP00523</name><time>2016-12-28T19:14:07Z</time></trkpt>
   <trkpt lat="30.855576" lon="34.760694"><ele>545.8</ele><name>TP00524</name><time>2016-12-28T19:14:09Z</time></trkpt>
   <trkpt lat="30.855617" lon="34.760695"><ele>545.8</ele><name>TP00525</name><time>2016-12-28T19:14:11Z</time></trkpt>
   <trkpt lat="30.855651" lon="34.760715"><ele>545.6</ele><name>TP00526</name><time>2016-12-28T19:14:13Z</time></trkpt>
   <trkpt lat="30.855664" lon="34.760748"><ele>545.5</ele><name>TP00527</name><time>2016-12-28T19:14:15Z</time></trkpt>
   <trkpt lat="30.85567" lon="34.76079"><ele>545.4</ele><name>TP00528</name><time>2016-12-28T19:14:17Z</time></trkpt>
   <trkpt lat="30.855676" lon="34.760836"><ele>545.2</ele><name>TP00529</name><time>2016-12-28T19:14:19Z</time></trkpt>
   <trkpt lat="30.855679" lon="34.76088"><ele>545</ele><name>TP00530</name><time>2016-12-28T19:14:21Z</time></trkpt>
   <trkpt lat="30.855685" lon="34.760927"><ele>544.8</ele><name>TP00531</name><time>2016-12-28T19:14:23Z</time></trkpt>
   <trkpt lat="30.85569" lon="34.760983"><ele>544.6</ele><name>TP00532</name><time>2016-12-28T19:14:26Z</time></trkpt>
   <trkpt lat="30.855693" lon="34.761035"><ele>544.4</ele><name>TP00533</name><time>2016-12-28T19:14:28Z</time></trkpt>
   <trkpt lat="30.855698" lon="34.761084"><ele>544.3</ele><name>TP00534</name><time>2016-12-28T19:14:30Z</time></trkpt>
   <trkpt lat="30.855704" lon="34.761133"><ele>544.1</ele><name>TP00535</name><time>2016-12-28T19:14:32Z</time></trkpt>
   <trkpt lat="30.85571" lon="34.76118"><ele>543.9</ele><name>TP00536</name><time>2016-12-28T19:14:34Z</time></trkpt>
   <trkpt lat="30.855716" lon="34.761228"><ele>543.7</ele><name>TP00537</name><time>2016-12-28T19:14:36Z</time></trkpt>
   <trkpt lat="30.855719" lon="34.761262"><ele>543.7</ele><name>TP00538</name><time>2016-12-28T19:14:38Z</time></trkpt>
   <trkpt lat="30.85572" lon="34.761303"><ele>543.8</ele><name>TP00539</name><time>2016-12-28T19:14:40Z</time></trkpt>
   <trkpt lat="30.855722" lon="34.761341"><ele>543.8</ele><name>TP00540</name><time>2016-12-28T19:14:42Z</time></trkpt>
   <trkpt lat="30.85573" lon="34.761389"><ele>543.9</ele><name>TP00541</name><time>2016-12-28T19:14:44Z</time></trkpt>
   <trkpt lat="30.855743" lon="34.76143"><ele>544</ele><name>TP00542</name><time>2016-12-28T19:14:46Z</time></trkpt>
   <trkpt lat="30.855763" lon="34.761463"><ele>544</ele><name>TP00543</name><time>2016-12-28T19:14:48Z</time></trkpt>
   <trkpt lat="30.855784" lon="34.761501"><ele>544.1</ele><name>TP00544</name><time>2016-12-28T19:14:50Z</time></trkpt>
   <trkpt lat="30.855799" lon="34.761534"><ele>544.1</ele><name>TP00545</name><time>2016-12-28T19:14:52Z</time></trkpt>
   <trkpt lat="30.855819" lon="34.761579"><ele>544.1</ele><name>TP00546</name><time>2016-12-28T19:14:54Z</time></trkpt>
   <trkpt lat="30.855837" lon="34.761617"><ele>544.2</ele><name>TP00547</name><time>2016-12-28T19:14:56Z</time></trkpt>
   <trkpt lat="30.855869" lon="34.76163"><ele>544.1</ele><name>TP00548</name><time>2016-12-28T19:14:58Z</time></trkpt>
   <trkpt lat="30.855905" lon="34.76164"><ele>544</ele><name>TP00549</name><time>2016-12-28T19:15:00Z</time></trkpt>
   <trkpt lat="30.855932" lon="34.761645"><ele>543.9</ele><name>TP00550</name><time>2016-12-28T19:15:02Z</time></trkpt>
   <trkpt lat="30.85597" lon="34.761656"><ele>543.8</ele><name>TP00551</name><time>2016-12-28T19:15:04Z</time></trkpt>
   <trkpt lat="30.856004" lon="34.76167"><ele>543.7</ele><name>TP00552</name><time>2016-12-28T19:15:06Z</time></trkpt>
   <trkpt lat="30.856036" lon="34.761697"><ele>543.7</ele><name>TP00553</name><time>2016-12-28T19:15:09Z</time></trkpt>
   <trkpt lat="30.856075" lon="34.761737"><ele>543.6</ele><name>TP00554</name><time>2016-12-28T19:15:11Z</time></trkpt>
   <trkpt lat="30.856094" lon="34.761764"><ele>543.5</ele><name>TP00555</name><time>2016-12-28T19:15:12Z</time></trkpt>
   <trkpt lat="30.85611" lon="34.761797"><ele>543.5</ele><name>TP00556</name><time>2016-12-28T19:15:13Z</time></trkpt>
   <trkpt lat="30.856125" lon="34.761835"><ele>543.5</ele><name>TP00557</name><time>2016-12-28T19:15:14Z</time></trkpt>
   <trkpt lat="30.856136" lon="34.761867"><ele>543.4</ele><name>TP00558</name><time>2016-12-28T19:15:15Z</time></trkpt>
   <trkpt lat="30.856181" lon="34.762017"><ele>543.3</ele><name>TP00559</name><time>2016-12-28T19:15:18Z</time></trkpt>
   <trkpt lat="30.856196" lon="34.762058"><ele>543.3</ele><name>TP00560</name><time>2016-12-28T19:15:19Z</time></trkpt>
   <trkpt lat="30.856214" lon="34.762101"><ele>543.3</ele><name>TP00561</name><time>2016-12-28T19:15:20Z</time></trkpt>
   <trkpt lat="30.85623" lon="34.762146"><ele>543.6</ele><name>TP00562</name><time>2016-12-28T19:15:21Z</time></trkpt>
   <trkpt lat="30.856245" lon="34.762191"><ele>543.9</ele><name>TP00563</name><time>2016-12-28T19:15:22Z</time></trkpt>
   <trkpt lat="30.856266" lon="34.762236"><ele>544.3</ele><name>TP00564</name><time>2016-12-28T19:15:23Z</time></trkpt>
   <trkpt lat="30.85628" lon="34.762268"><ele>544.6</ele><name>TP00565</name><time>2016-12-28T19:15:24Z</time></trkpt>
   <trkpt lat="30.856297" lon="34.762305"><ele>545</ele><name>TP00566</name><time>2016-12-28T19:15:26Z</time></trkpt>
   <trkpt lat="30.856303" lon="34.762347"><ele>545.3</ele><name>TP00567</name><time>2016-12-28T19:15:28Z</time></trkpt>
   <trkpt lat="30.856298" lon="34.762395"><ele>545.7</ele><name>TP00568</name><time>2016-12-28T19:15:31Z</time></trkpt>
   <trkpt lat="30.856302" lon="34.76244"><ele>546.1</ele><name>TP00569</name><time>2016-12-28T19:15:32Z</time></trkpt>
   <trkpt lat="30.856323" lon="34.762476"><ele>546.5</ele><name>TP00570</name><time>2016-12-28T19:15:33Z</time></trkpt>
   <trkpt lat="30.856357" lon="34.762504"><ele>546.8</ele><name>TP00571</name><time>2016-12-28T19:15:34Z</time></trkpt>
   <trkpt lat="30.856399" lon="34.762528"><ele>547.1</ele><name>TP00572</name><time>2016-12-28T19:15:35Z</time></trkpt>
   <trkpt lat="30.856443" lon="34.762552"><ele>547.4</ele><name>TP00573</name><time>2016-12-28T19:15:36Z</time></trkpt>
   <trkpt lat="30.856486" lon="34.762582"><ele>547.8</ele><name>TP00574</name><time>2016-12-28T19:15:37Z</time></trkpt>
   <trkpt lat="30.856528" lon="34.762618"><ele>548.2</ele><name>TP00575</name><time>2016-12-28T19:15:38Z</time></trkpt>
   <trkpt lat="30.856572" lon="34.762654"><ele>548.6</ele><name>TP00576</name><time>2016-12-28T19:15:39Z</time></trkpt>
   <trkpt lat="30.856621" lon="34.76268"><ele>548.9</ele><name>TP00577</name><time>2016-12-28T19:15:40Z</time></trkpt>
   <trkpt lat="30.856686" lon="34.762695"><ele>549.2</ele><name>TP00578</name><time>2016-12-28T19:15:41Z</time></trkpt>
   <trkpt lat="30.856751" lon="34.762702"><ele>549.4</ele><name>TP00579</name><time>2016-12-28T19:15:42Z</time></trkpt>
   <trkpt lat="30.856816" lon="34.762707"><ele>549.6</ele><name>TP00580</name><time>2016-12-28T19:15:43Z</time></trkpt>
   <trkpt lat="30.85688" lon="34.76272"><ele>549.9</ele><name>TP00581</name><time>2016-12-28T19:15:44Z</time></trkpt>
   <trkpt lat="30.856942" lon="34.762747"><ele>550.2</ele><name>TP00582</name><time>2016-12-28T19:15:45Z</time></trkpt>
   <trkpt lat="30.857002" lon="34.762789"><ele>550.7</ele><name>TP00583</name><time>2016-12-28T19:15:46Z</time></trkpt>
   <trkpt lat="30.857052" lon="34.762842"><ele>551.3</ele><name>TP00584</name><time>2016-12-28T19:15:47Z</time></trkpt>
   <trkpt lat="30.857094" lon="34.762891"><ele>551.8</ele><name>TP00585</name><time>2016-12-28T19:15:48Z</time></trkpt>
   <trkpt lat="30.857137" lon="34.76294"><ele>552</ele><name>TP00586</name><time>2016-12-28T19:15:49Z</time></trkpt>
   <trkpt lat="30.857174" lon="34.762977"><ele>552.1</ele><name>TP00587</name><time>2016-12-28T19:15:50Z</time></trkpt>
   <trkpt lat="30.857239" lon="34.76302"><ele>552.2</ele><name>TP00588</name><time>2016-12-28T19:15:52Z</time></trkpt>
   <trkpt lat="30.857303" lon="34.76305"><ele>552.1</ele><name>TP00589</name><time>2016-12-28T19:15:53Z</time></trkpt>
   <trkpt lat="30.857356" lon="34.763074"><ele>552</ele><name>TP00590</name><time>2016-12-28T19:15:54Z</time></trkpt>
   <trkpt lat="30.857405" lon="34.763099"><ele>552</ele><name>TP00591</name><time>2016-12-28T19:15:55Z</time></trkpt>
   <trkpt lat="30.857456" lon="34.763123"><ele>551.9</ele><name>TP00592</name><time>2016-12-28T19:15:56Z</time></trkpt>
   <trkpt lat="30.857506" lon="34.763146"><ele>551.8</ele><name>TP00593</name><time>2016-12-28T19:15:57Z</time></trkpt>
   <trkpt lat="30.857554" lon="34.763168"><ele>551.7</ele><name>TP00594</name><time>2016-12-28T19:15:58Z</time></trkpt>
   <trkpt lat="30.857595" lon="34.763177"><ele>551.6</ele><name>TP00595</name><time>2016-12-28T19:15:59Z</time></trkpt>
   <trkpt lat="30.8577" lon="34.763215"><ele>551.3</ele><name>TP00596</name><time>2016-12-28T19:16:01Z</time></trkpt>
   <trkpt lat="30.857732" lon="34.763247"><ele>551.2</ele><name>TP00597</name><time>2016-12-28T19:16:02Z</time></trkpt>
   <trkpt lat="30.857755" lon="34.763291"><ele>551.2</ele><name>TP00598</name><time>2016-12-28T19:16:03Z</time></trkpt>
   <trkpt lat="30.857785" lon="34.76333"><ele>551.1</ele><name>TP00599</name><time>2016-12-28T19:16:04Z</time></trkpt>
   <trkpt lat="30.857816" lon="34.76337"><ele>551</ele><name>TP00600</name><time>2016-12-28T19:16:05Z</time></trkpt>
   <trkpt lat="30.85786" lon="34.763405"><ele>550.9</ele><name>TP00601</name><time>2016-12-28T19:16:06Z</time></trkpt>
   <trkpt lat="30.857914" lon="34.763434"><ele>550.6</ele><name>TP00602</name><time>2016-12-28T19:16:07Z</time></trkpt>
   <trkpt lat="30.857964" lon="34.763468"><ele>550.4</ele><name>TP00603</name><time>2016-12-28T19:16:08Z</time></trkpt>
   <trkpt lat="30.85801" lon="34.76349"><ele>550.2</ele><name>TP00604</name><time>2016-12-28T19:16:09Z</time></trkpt>
   <trkpt lat="30.858051" lon="34.763527"><ele>550</ele><name>TP00605</name><time>2016-12-28T19:16:10Z</time></trkpt>
   <trkpt lat="30.858085" lon="34.763566"><ele>550</ele><name>TP00606</name><time>2016-12-28T19:16:11Z</time></trkpt>
   <trkpt lat="30.858122" lon="34.763605"><ele>549.9</ele><name>TP00607</name><time>2016-12-28T19:16:12Z</time></trkpt>
   <trkpt lat="30.858159" lon="34.763644"><ele>549.8</ele><name>TP00608</name><time>2016-12-28T19:16:13Z</time></trkpt>
   <trkpt lat="30.858196" lon="34.763678"><ele>549.8</ele><name>TP00609</name><time>2016-12-28T19:16:14Z</time></trkpt>
   <trkpt lat="30.858235" lon="34.763708"><ele>549.7</ele><name>TP00610</name><time>2016-12-28T19:16:15Z</time></trkpt>
   <trkpt lat="30.858274" lon="34.763743"><ele>549.7</ele><name>TP00611</name><time>2016-12-28T19:16:16Z</time></trkpt>
   <trkpt lat="30.858302" lon="34.763772"><ele>549.7</ele><name>TP00612</name><time>2016-12-28T19:16:17Z</time></trkpt>
   <trkpt lat="30.858341" lon="34.763802"><ele>549.6</ele><name>TP00613</name><time>2016-12-28T19:16:18Z</time></trkpt>
   <trkpt lat="30.858376" lon="34.763836"><ele>549.6</ele><name>TP00614</name><time>2016-12-28T19:16:19Z</time></trkpt>
   <trkpt lat="30.858411" lon="34.763877"><ele>549.5</ele><name>TP00615</name><time>2016-12-28T19:16:20Z</time></trkpt>
   <trkpt lat="30.858443" lon="34.763925"><ele>549.5</ele><name>TP00616</name><time>2016-12-28T19:16:21Z</time></trkpt>
   <trkpt lat="30.858474" lon="34.763972"><ele>549.5</ele><name>TP00617</name><time>2016-12-28T19:16:22Z</time></trkpt>
   <trkpt lat="30.858511" lon="34.76401"><ele>549.5</ele><name>TP00618</name><time>2016-12-28T19:16:23Z</time></trkpt>
   <trkpt lat="30.858555" lon="34.764038"><ele>549.4</ele><name>TP00619</name><time>2016-12-28T19:16:24Z</time></trkpt>
   <trkpt lat="30.85859" lon="34.764075"><ele>549.4</ele><name>TP00620</name><time>2016-12-28T19:16:25Z</time></trkpt>
   <trkpt lat="30.858618" lon="34.764124"><ele>549.4</ele><name>TP00621</name><time>2016-12-28T19:16:26Z</time></trkpt>
   <trkpt lat="30.858638" lon="34.764171"><ele>549.4</ele><name>TP00622</name><time>2016-12-28T19:16:27Z</time></trkpt>
   <trkpt lat="30.858648" lon="34.764219"><ele>549.5</ele><name>TP00623</name><time>2016-12-28T19:16:28Z</time></trkpt>
   <trkpt lat="30.858643" lon="34.764279"><ele>549.7</ele><name>TP00624</name><time>2016-12-28T19:16:29Z</time></trkpt>
   <trkpt lat="30.858633" lon="34.764337"><ele>549.8</ele><name>TP00625</name><time>2016-12-28T19:16:30Z</time></trkpt>
   <trkpt lat="30.858616" lon="34.764405"><ele>550.1</ele><name>TP00626</name><time>2016-12-28T19:16:31Z</time></trkpt>
   <trkpt lat="30.8586" lon="34.764473"><ele>550.3</ele><name>TP00627</name><time>2016-12-28T19:16:32Z</time></trkpt>
   <trkpt lat="30.858567" lon="34.764533"><ele>550.5</ele><name>TP00628</name><time>2016-12-28T19:16:33Z</time></trkpt>
   <trkpt lat="30.858528" lon="34.764574"><ele>550.8</ele><name>TP00629</name><time>2016-12-28T19:16:34Z</time></trkpt>
   <trkpt lat="30.858494" lon="34.764623"><ele>550.6</ele><name>TP00630</name><time>2016-12-28T19:16:35Z</time></trkpt>
   <trkpt lat="30.858477" lon="34.764678"><ele>550.2</ele><name>TP00631</name><time>2016-12-28T19:16:36Z</time></trkpt>
   <trkpt lat="30.858468" lon="34.764743"><ele>549.6</ele><name>TP00632</name><time>2016-12-28T19:16:37Z</time></trkpt>
   <trkpt lat="30.858466" lon="34.764808"><ele>549</ele><name>TP00633</name><time>2016-12-28T19:16:38Z</time></trkpt>
   <trkpt lat="30.858468" lon="34.764879"><ele>548.4</ele><name>TP00634</name><time>2016-12-28T19:16:39Z</time></trkpt>
   <trkpt lat="30.858472" lon="34.764951"><ele>547.8</ele><name>TP00635</name><time>2016-12-28T19:16:40Z</time></trkpt>
   <trkpt lat="30.858477" lon="34.765022"><ele>547.1</ele><name>TP00636</name><time>2016-12-28T19:16:41Z</time></trkpt>
   <trkpt lat="30.858512" lon="34.765088"><ele>546.4</ele><name>TP00637</name><time>2016-12-28T19:16:42Z</time></trkpt>
   <trkpt lat="30.858549" lon="34.765146"><ele>545.8</ele><name>TP00638</name><time>2016-12-28T19:16:43Z</time></trkpt>
   <trkpt lat="30.858597" lon="34.765181"><ele>545.4</ele><name>TP00639</name><time>2016-12-28T19:16:44Z</time></trkpt>
   <trkpt lat="30.858652" lon="34.765191"><ele>545.2</ele><name>TP00640</name><time>2016-12-28T19:16:45Z</time></trkpt>
   <trkpt lat="30.858783" lon="34.765157"><ele>545</ele><name>TP00641</name><time>2016-12-28T19:16:47Z</time></trkpt>
   <trkpt lat="30.858859" lon="34.765133"><ele>544.9</ele><name>TP00642</name><time>2016-12-28T19:16:48Z</time></trkpt>
   <trkpt lat="30.858939" lon="34.7651"><ele>544.9</ele><name>TP00643</name><time>2016-12-28T19:16:49Z</time></trkpt>
   <trkpt lat="30.859031" lon="34.765083"><ele>544.7</ele><name>TP00644</name><time>2016-12-28T19:16:50Z</time></trkpt>
   <trkpt lat="30.85912" lon="34.765064"><ele>544.6</ele><name>TP00645</name><time>2016-12-28T19:16:51Z</time></trkpt>
   <trkpt lat="30.859211" lon="34.765052"><ele>544.3</ele><name>TP00646</name><time>2016-12-28T19:16:52Z</time></trkpt>
   <trkpt lat="30.859301" lon="34.765036"><ele>544.2</ele><name>TP00647</name><time>2016-12-28T19:16:53Z</time></trkpt>
   <trkpt lat="30.859392" lon="34.765026"><ele>543.9</ele><name>TP00648</name><time>2016-12-28T19:16:54Z</time></trkpt>
   <trkpt lat="30.859486" lon="34.765022"><ele>543.6</ele><name>TP00649</name><time>2016-12-28T19:16:55Z</time></trkpt>
   <trkpt lat="30.859583" lon="34.765012"><ele>543.4</ele><name>TP00650</name><time>2016-12-28T19:16:56Z</time></trkpt>
   <trkpt lat="30.859681" lon="34.76501"><ele>543</ele><name>TP00651</name><time>2016-12-28T19:16:57Z</time></trkpt>
   <trkpt lat="30.859776" lon="34.765019"><ele>542.6</ele><name>TP00652</name><time>2016-12-28T19:16:58Z</time></trkpt>
   <trkpt lat="30.859871" lon="34.765019"><ele>542.2</ele><name>TP00653</name><time>2016-12-28T19:16:59Z</time></trkpt>
   <trkpt lat="30.859964" lon="34.765027"><ele>541.8</ele><name>TP00654</name><time>2016-12-28T19:17:00Z</time></trkpt>
   <trkpt lat="30.860052" lon="34.765045"><ele>541.2</ele><name>TP00655</name><time>2016-12-28T19:17:01Z</time></trkpt>
   <trkpt lat="30.860138" lon="34.765071"><ele>540.5</ele><name>TP00656</name><time>2016-12-28T19:17:02Z</time></trkpt>
   <trkpt lat="30.860226" lon="34.765072"><ele>540.1</ele><name>TP00657</name><time>2016-12-28T19:17:03Z</time></trkpt>
   <trkpt lat="30.86031" lon="34.765073"><ele>539.8</ele><name>TP00658</name><time>2016-12-28T19:17:04Z</time></trkpt>
   <trkpt lat="30.860385" lon="34.765086"><ele>539.3</ele><name>TP00659</name><time>2016-12-28T19:17:05Z</time></trkpt>
   <trkpt lat="30.860467" lon="34.765102"><ele>538.8</ele><name>TP00660</name><time>2016-12-28T19:17:06Z</time></trkpt>
   <trkpt lat="30.860545" lon="34.765109"><ele>538.4</ele><name>TP00661</name><time>2016-12-28T19:17:07Z</time></trkpt>
   <trkpt lat="30.860625" lon="34.765109"><ele>538.2</ele><name>TP00662</name><time>2016-12-28T19:17:08Z</time></trkpt>
   <trkpt lat="30.860702" lon="34.765107"><ele>538</ele><name>TP00663</name><time>2016-12-28T19:17:09Z</time></trkpt>
   <trkpt lat="30.860785" lon="34.765133"><ele>537.4</ele><name>TP00664</name><time>2016-12-28T19:17:10Z</time></trkpt>
   <trkpt lat="30.86087" lon="34.765146"><ele>537</ele><name>TP00665</name><time>2016-12-28T19:17:11Z</time></trkpt>
   <trkpt lat="30.86095" lon="34.76514"><ele>536.8</ele><name>TP00666</name><time>2016-12-28T19:17:12Z</time></trkpt>
   <trkpt lat="30.861027" lon="34.765141"><ele>536.6</ele><name>TP00667</name><time>2016-12-28T19:17:13Z</time></trkpt>
   <trkpt lat="30.861103" lon="34.765131"><ele>536.5</ele><name>TP00668</name><time>2016-12-28T19:17:14Z</time></trkpt>
   <trkpt lat="30.861181" lon="34.765112"><ele>536.5</ele><name>TP00669</name><time>2016-12-28T19:17:15Z</time></trkpt>
   <trkpt lat="30.861259" lon="34.765082"><ele>536.6</ele><name>TP00670</name><time>2016-12-28T19:17:16Z</time></trkpt>
   <trkpt lat="30.861344" lon="34.765045"><ele>536.4</ele><name>TP00671</name><time>2016-12-28T19:17:17Z</time></trkpt>
   <trkpt lat="30.861432" lon="34.765015"><ele>536.1</ele><name>TP00672</name><time>2016-12-28T19:17:18Z</time></trkpt>
   <trkpt lat="30.861526" lon="34.765"><ele>535.7</ele><name>TP00673</name><time>2016-12-28T19:17:19Z</time></trkpt>
   <trkpt lat="30.861614" lon="34.764987"><ele>535.2</ele><name>TP00674</name><time>2016-12-28T19:17:20Z</time></trkpt>
   <trkpt lat="30.861707" lon="34.764973"><ele>534.8</ele><name>TP00675</name><time>2016-12-28T19:17:21Z</time></trkpt>
   <trkpt lat="30.861796" lon="34.764962"><ele>534.3</ele><name>TP00676</name><time>2016-12-28T19:17:22Z</time></trkpt>
   <trkpt lat="30.861881" lon="34.764975"><ele>533.6</ele><name>TP00677</name><time>2016-12-28T19:17:23Z</time></trkpt>
   <trkpt lat="30.861969" lon="34.764995"><ele>532.8</ele><name>TP00678</name><time>2016-12-28T19:17:24Z</time></trkpt>
   <trkpt lat="30.862059" lon="34.765003"><ele>532.1</ele><name>TP00679</name><time>2016-12-28T19:17:25Z</time></trkpt>
   <trkpt lat="30.862147" lon="34.765003"><ele>531.6</ele><name>TP00680</name><time>2016-12-28T19:17:26Z</time></trkpt>
   <trkpt lat="30.862232" lon="34.764996"><ele>531</ele><name>TP00681</name><time>2016-12-28T19:17:27Z</time></trkpt>
   <trkpt lat="30.862317" lon="34.765"><ele>530.5</ele><name>TP00682</name><time>2016-12-28T19:17:28Z</time></trkpt>
   <trkpt lat="30.8624" lon="34.764993"><ele>529.9</ele><name>TP00683</name><time>2016-12-28T19:17:29Z</time></trkpt>
   <trkpt lat="30.862485" lon="34.764991"><ele>529.4</ele><name>TP00684</name><time>2016-12-28T19:17:30Z</time></trkpt>
   <trkpt lat="30.862569" lon="34.764984"><ele>528.8</ele><name>TP00685</name><time>2016-12-28T19:17:31Z</time></trkpt>
   <trkpt lat="30.862648" lon="34.764967"><ele>528.3</ele><name>TP00686</name><time>2016-12-28T19:17:32Z</time></trkpt>
   <trkpt lat="30.862733" lon="34.764962"><ele>527.8</ele><name>TP00687</name><time>2016-12-28T19:17:33Z</time></trkpt>
   <trkpt lat="30.862813" lon="34.76494"><ele>527.2</ele><name>TP00688</name><time>2016-12-28T19:17:34Z</time></trkpt>
   <trkpt lat="30.862891" lon="34.764913"><ele>526.6</ele><name>TP00689</name><time>2016-12-28T19:17:35Z</time></trkpt>
   <trkpt lat="30.862959" lon="34.764877"><ele>526.3</ele><name>TP00690</name><time>2016-12-28T19:17:36Z</time></trkpt>
   <trkpt lat="30.86303" lon="34.764858"><ele>526.1</ele><name>TP00691</name><time>2016-12-28T19:17:37Z</time></trkpt>
   <trkpt lat="30.863093" lon="34.764818"><ele>525.9</ele><name>TP00692</name><time>2016-12-28T19:17:38Z</time></trkpt>
   <trkpt lat="30.86315" lon="34.764759"><ele>525.5</ele><name>TP00693</name><time>2016-12-28T19:17:39Z</time></trkpt>
   <trkpt lat="30.863205" lon="34.764698"><ele>525.1</ele><name>TP00694</name><time>2016-12-28T19:17:40Z</time></trkpt>
   <trkpt lat="30.863261" lon="34.764637"><ele>524.6</ele><name>TP00695</name><time>2016-12-28T19:17:41Z</time></trkpt>
   <trkpt lat="30.863326" lon="34.764572"><ele>524.1</ele><name>TP00696</name><time>2016-12-28T19:17:42Z</time></trkpt>
   <trkpt lat="30.863401" lon="34.764515"><ele>524.3</ele><name>TP00697</name><time>2016-12-28T19:17:43Z</time></trkpt>
   <trkpt lat="30.863458" lon="34.764436"><ele>524.9</ele><name>TP00698</name><time>2016-12-28T19:17:44Z</time></trkpt>
   <trkpt lat="30.86352" lon="34.764375"><ele>525.2</ele><name>TP00699</name><time>2016-12-28T19:17:45Z</time></trkpt>
   <trkpt lat="30.863595" lon="34.764334"><ele>525.3</ele><name>TP00700</name><time>2016-12-28T19:17:46Z</time></trkpt>
   <trkpt lat="30.863666" lon="34.764287"><ele>525.5</ele><name>TP00701</name><time>2016-12-28T19:17:47Z</time></trkpt>
   <trkpt lat="30.863739" lon="34.764243"><ele>525.7</ele><name>TP00702</name><time>2016-12-28T19:17:48Z</time></trkpt>
   <trkpt lat="30.863821" lon="34.76422"><ele>525.6</ele><name>TP00703</name><time>2016-12-28T19:17:49Z</time></trkpt>
   <trkpt lat="30.863905" lon="34.764218"><ele>525.3</ele><name>TP00704</name><time>2016-12-28T19:17:50Z</time></trkpt>
   <trkpt lat="30.863989" lon="34.764212"><ele>525</ele><name>TP00705</name><time>2016-12-28T19:17:51Z</time></trkpt>
   <trkpt lat="30.864063" lon="34.764174"><ele>525.1</ele><name>TP00706</name><time>2016-12-28T19:17:52Z</time></trkpt>
   <trkpt lat="30.864138" lon="34.764167"><ele>524.9</ele><name>TP00707</name><time>2016-12-28T19:17:53Z</time></trkpt>
   <trkpt lat="30.864213" lon="34.764165"><ele>524.6</ele><name>TP00708</name><time>2016-12-28T19:17:54Z</time></trkpt>
   <trkpt lat="30.864291" lon="34.764154"><ele>524.4</ele><name>TP00709</name><time>2016-12-28T19:17:55Z</time></trkpt>
   <trkpt lat="30.864368" lon="34.764145"><ele>524.1</ele><name>TP00710</name><time>2016-12-28T19:17:56Z</time></trkpt>
   <trkpt lat="30.864448" lon="34.764139"><ele>523.8</ele><name>TP00711</name><time>2016-12-28T19:17:57Z</time></trkpt>
   <trkpt lat="30.864526" lon="34.764123"><ele>523.7</ele><name>TP00712</name><time>2016-12-28T19:17:58Z</time></trkpt>
   <trkpt lat="30.864603" lon="34.764102"><ele>523.5</ele><name>TP00713</name><time>2016-12-28T19:17:59Z</time></trkpt>
   <trkpt lat="30.86468" lon="34.764077"><ele>523.4</ele><name>TP00714</name><time>2016-12-28T19:18:00Z</time></trkpt>
   <trkpt lat="30.864754" lon="34.764046"><ele>523.4</ele><name>TP00715</name><time>2016-12-28T19:18:01Z</time></trkpt>
   <trkpt lat="30.864829" lon="34.764018"><ele>523.4</ele><name>TP00716</name><time>2016-12-28T19:18:02Z</time></trkpt>
   <trkpt lat="30.864909" lon="34.763991"><ele>523.3</ele><name>TP00717</name><time>2016-12-28T19:18:03Z</time></trkpt>
   <trkpt lat="30.864988" lon="34.763973"><ele>523.1</ele><name>TP00718</name><time>2016-12-28T19:18:04Z</time></trkpt>
   <trkpt lat="30.865075" lon="34.763957"><ele>522.9</ele><name>TP00719</name><time>2016-12-28T19:18:05Z</time></trkpt>
   <trkpt lat="30.86516" lon="34.763958"><ele>522.6</ele><name>TP00720</name><time>2016-12-28T19:18:06Z</time></trkpt>
   <trkpt lat="30.865242" lon="34.763964"><ele>522.2</ele><name>TP00721</name><time>2016-12-28T19:18:07Z</time></trkpt>
   <trkpt lat="30.865319" lon="34.763969"><ele>521.8</ele><name>TP00722</name><time>2016-12-28T19:18:08Z</time></trkpt>
   <trkpt lat="30.865398" lon="34.76399"><ele>521.2</ele><name>TP00723</name><time>2016-12-28T19:18:09Z</time></trkpt>
   <trkpt lat="30.865468" lon="34.764014"><ele>520.4</ele><name>TP00724</name><time>2016-12-28T19:18:10Z</time></trkpt>
   <trkpt lat="30.865537" lon="34.76404"><ele>519.6</ele><name>TP00725</name><time>2016-12-28T19:18:11Z</time></trkpt>
   <trkpt lat="30.865604" lon="34.764064"><ele>518.8</ele><name>TP00726</name><time>2016-12-28T19:18:12Z</time></trkpt>
   <trkpt lat="30.865679" lon="34.764105"><ele>517.8</ele><name>TP00727</name><time>2016-12-28T19:18:13Z</time></trkpt>
   <trkpt lat="30.865744" lon="34.764133"><ele>517.1</ele><name>TP00728</name><time>2016-12-28T19:18:14Z</time></trkpt>
   <trkpt lat="30.865815" lon="34.764143"><ele>516.6</ele><name>TP00729</name><time>2016-12-28T19:18:15Z</time></trkpt>
   <trkpt lat="30.865886" lon="34.764132"><ele>516.2</ele><name>TP00730</name><time>2016-12-28T19:18:16Z</time></trkpt>
   <trkpt lat="30.865961" lon="34.764106"><ele>515.8</ele><name>TP00731</name><time>2016-12-28T19:18:17Z</time></trkpt>
   <trkpt lat="30.866036" lon="34.764082"><ele>515.4</ele><name>TP00732</name><time>2016-12-28T19:18:18Z</time></trkpt>
   <trkpt lat="30.866109" lon="34.764058"><ele>515</ele><name>TP00733</name><time>2016-12-28T19:18:19Z</time></trkpt>
   <trkpt lat="30.866179" lon="34.764023"><ele>514.6</ele><name>TP00734</name><time>2016-12-28T19:18:20Z</time></trkpt>
   <trkpt lat="30.866255" lon="34.764007"><ele>514.1</ele><name>TP00735</name><time>2016-12-28T19:18:21Z</time></trkpt>
   <trkpt lat="30.866331" lon="34.76399"><ele>513.7</ele><name>TP00736</name><time>2016-12-28T19:18:22Z</time></trkpt>
   <trkpt lat="30.866406" lon="34.763989"><ele>513.4</ele><name>TP00737</name><time>2016-12-28T19:18:23Z</time></trkpt>
   <trkpt lat="30.866481" lon="34.763988"><ele>513</ele><name>TP00738</name><time>2016-12-28T19:18:24Z</time></trkpt>
   <trkpt lat="30.866552" lon="34.76398"><ele>512.6</ele><name>TP00739</name><time>2016-12-28T19:18:25Z</time></trkpt>
   <trkpt lat="30.866624" lon="34.763968"><ele>512.2</ele><name>TP00740</name><time>2016-12-28T19:18:26Z</time></trkpt>
   <trkpt lat="30.866695" lon="34.763955"><ele>511.8</ele><name>TP00741</name><time>2016-12-28T19:18:27Z</time></trkpt>
   <trkpt lat="30.866752" lon="34.763916"><ele>511.4</ele><name>TP00742</name><time>2016-12-28T19:18:28Z</time></trkpt>
   <trkpt lat="30.866805" lon="34.76387"><ele>510.9</ele><name>TP00743</name><time>2016-12-28T19:18:29Z</time></trkpt>
   <trkpt lat="30.866851" lon="34.763816"><ele>510.3</ele><name>TP00744</name><time>2016-12-28T19:18:30Z</time></trkpt>
   <trkpt lat="30.866891" lon="34.763746"><ele>509.6</ele><name>TP00745</name><time>2016-12-28T19:18:31Z</time></trkpt>
   <trkpt lat="30.866925" lon="34.763671"><ele>509.5</ele><name>TP00746</name><time>2016-12-28T19:18:32Z</time></trkpt>
   <trkpt lat="30.866948" lon="34.763583"><ele>509.6</ele><name>TP00747</name><time>2016-12-28T19:18:33Z</time></trkpt>
   <trkpt lat="30.866973" lon="34.763495"><ele>509.6</ele><name>TP00748</name><time>2016-12-28T19:18:34Z</time></trkpt>
   <trkpt lat="30.867017" lon="34.763417"><ele>509.4</ele><name>TP00749</name><time>2016-12-28T19:18:35Z</time></trkpt>
   <trkpt lat="30.867071" lon="34.763336"><ele>509.1</ele><name>TP00750</name><time>2016-12-28T19:18:36Z</time></trkpt>
   <trkpt lat="30.867122" lon="34.76325"><ele>509.2</ele><name>TP00751</name><time>2016-12-28T19:18:37Z</time></trkpt>
   <trkpt lat="30.86717" lon="34.763168"><ele>509.2</ele><name>TP00752</name><time>2016-12-28T19:18:38Z</time></trkpt>
   <trkpt lat="30.867214" lon="34.763094"><ele>509.2</ele><name>TP00753</name><time>2016-12-28T19:18:39Z</time></trkpt>
   <trkpt lat="30.867265" lon="34.763065"><ele>509</ele><name>TP00754</name><time>2016-12-28T19:18:40Z</time></trkpt>
   <trkpt lat="30.867318" lon="34.763061"><ele>508.8</ele><name>TP00755</name><time>2016-12-28T19:18:41Z</time></trkpt>
   <trkpt lat="30.867373" lon="34.763055"><ele>508.6</ele><name>TP00756</name><time>2016-12-28T19:18:42Z</time></trkpt>
   <trkpt lat="30.867432" lon="34.763041"><ele>508.3</ele><name>TP00757</name><time>2016-12-28T19:18:43Z</time></trkpt>
   <trkpt lat="30.867491" lon="34.763007"><ele>507.9</ele><name>TP00758</name><time>2016-12-28T19:18:44Z</time></trkpt>
   <trkpt lat="30.867555" lon="34.762975"><ele>507.5</ele><name>TP00759</name><time>2016-12-28T19:18:45Z</time></trkpt>
   <trkpt lat="30.86766" lon="34.762887"><ele>506.8</ele><name>TP00760</name><time>2016-12-28T19:18:47Z</time></trkpt>
   <trkpt lat="30.86769" lon="34.762838"><ele>507</ele><name>TP00761</name><time>2016-12-28T19:18:48Z</time></trkpt>
   <trkpt lat="30.867711" lon="34.762789"><ele>507.2</ele><name>TP00762</name><time>2016-12-28T19:18:49Z</time></trkpt>
   <trkpt lat="30.867732" lon="34.762736"><ele>507.4</ele><name>TP00763</name><time>2016-12-28T19:18:50Z</time></trkpt>
   <trkpt lat="30.867756" lon="34.762677"><ele>507.7</ele><name>TP00764</name><time>2016-12-28T19:18:51Z</time></trkpt>
   <trkpt lat="30.867787" lon="34.762612"><ele>507.9</ele><name>TP00765</name><time>2016-12-28T19:18:52Z</time></trkpt>
   <trkpt lat="30.867831" lon="34.762552"><ele>507.9</ele><name>TP00766</name><time>2016-12-28T19:18:53Z</time></trkpt>
   <trkpt lat="30.867888" lon="34.762501"><ele>507.8</ele><name>TP00767</name><time>2016-12-28T19:18:54Z</time></trkpt>
   <trkpt lat="30.867938" lon="34.762448"><ele>507.7</ele><name>TP00768</name><time>2016-12-28T19:18:55Z</time></trkpt>
   <trkpt lat="30.867981" lon="34.762385"><ele>507.9</ele><name>TP00769</name><time>2016-12-28T19:18:56Z</time></trkpt>
   <trkpt lat="30.868048" lon="34.762355"><ele>507.7</ele><name>TP00770</name><time>2016-12-28T19:18:57Z</time></trkpt>
   <trkpt lat="30.868114" lon="34.762324"><ele>507.6</ele><name>TP00771</name><time>2016-12-28T19:18:58Z</time></trkpt>
   <trkpt lat="30.868181" lon="34.762309"><ele>507.4</ele><name>TP00772</name><time>2016-12-28T19:18:59Z</time></trkpt>
   <trkpt lat="30.868248" lon="34.762294"><ele>507.1</ele><name>TP00773</name><time>2016-12-28T19:19:00Z</time></trkpt>
   <trkpt lat="30.868315" lon="34.76228"><ele>506.9</ele><name>TP00774</name><time>2016-12-28T19:19:01Z</time></trkpt>
   <trkpt lat="30.868381" lon="34.762266"><ele>506.7</ele><name>TP00775</name><time>2016-12-28T19:19:02Z</time></trkpt>
   <trkpt lat="30.868448" lon="34.762255"><ele>506.4</ele><name>TP00776</name><time>2016-12-28T19:19:03Z</time></trkpt>
   <trkpt lat="30.86851" lon="34.762246"><ele>506.2</ele><name>TP00777</name><time>2016-12-28T19:19:04Z</time></trkpt>
   <trkpt lat="30.868569" lon="34.76223"><ele>506</ele><name>TP00778</name><time>2016-12-28T19:19:05Z</time></trkpt>
   <trkpt lat="30.868629" lon="34.762238"><ele>505.7</ele><name>TP00779</name><time>2016-12-28T19:19:06Z</time></trkpt>
   <trkpt lat="30.868696" lon="34.762235"><ele>505.3</ele><name>TP00780</name><time>2016-12-28T19:19:07Z</time></trkpt>
   <trkpt lat="30.868755" lon="34.762216"><ele>505.2</ele><name>TP00781</name><time>2016-12-28T19:19:08Z</time></trkpt>
   <trkpt lat="30.868817" lon="34.762178"><ele>505.4</ele><name>TP00782</name><time>2016-12-28T19:19:09Z</time></trkpt>
   <trkpt lat="30.868887" lon="34.762166"><ele>505.4</ele><name>TP00783</name><time>2016-12-28T19:19:10Z</time></trkpt>
   <trkpt lat="30.868944" lon="34.762157"><ele>505.5</ele><name>TP00784</name><time>2016-12-28T19:19:11Z</time></trkpt>
   <trkpt lat="30.869006" lon="34.762161"><ele>505.4</ele><name>TP00785</name><time>2016-12-28T19:19:12Z</time></trkpt>
   <trkpt lat="30.869073" lon="34.762178"><ele>505.2</ele><name>TP00786</name><time>2016-12-28T19:19:13Z</time></trkpt>
   <trkpt lat="30.869142" lon="34.762186"><ele>505.1</ele><name>TP00787</name><time>2016-12-28T19:19:14Z</time></trkpt>
   <trkpt lat="30.869211" lon="34.762194"><ele>505</ele><name>TP00788</name><time>2016-12-28T19:19:15Z</time></trkpt>
   <trkpt lat="30.869271" lon="34.762203"><ele>504.8</ele><name>TP00789</name><time>2016-12-28T19:19:16Z</time></trkpt>
   <trkpt lat="30.869338" lon="34.762213"><ele>504.7</ele><name>TP00790</name><time>2016-12-28T19:19:17Z</time></trkpt>
   <trkpt lat="30.869401" lon="34.762219"><ele>504.6</ele><name>TP00791</name><time>2016-12-28T19:19:18Z</time></trkpt>
   <trkpt lat="30.869474" lon="34.762245"><ele>504.2</ele><name>TP00792</name><time>2016-12-28T19:19:19Z</time></trkpt>
   <trkpt lat="30.869543" lon="34.762276"><ele>503.7</ele><name>TP00793</name><time>2016-12-28T19:19:20Z</time></trkpt>
   <trkpt lat="30.869612" lon="34.762307"><ele>503.3</ele><name>TP00794</name><time>2016-12-28T19:19:21Z</time></trkpt>
   <trkpt lat="30.869683" lon="34.762338"><ele>502.8</ele><name>TP00795</name><time>2016-12-28T19:19:22Z</time></trkpt>
   <trkpt lat="30.869758" lon="34.762371"><ele>502.3</ele><name>TP00796</name><time>2016-12-28T19:19:23Z</time></trkpt>
   <trkpt lat="30.869821" lon="34.762417"><ele>501.7</ele><name>TP00797</name><time>2016-12-28T19:19:24Z</time></trkpt>
   <trkpt lat="30.869892" lon="34.762462"><ele>501.1</ele><name>TP00798</name><time>2016-12-28T19:19:25Z</time></trkpt>
   <trkpt lat="30.86996" lon="34.76251"><ele>500.4</ele><name>TP00799</name><time>2016-12-28T19:19:26Z</time></trkpt>
   <trkpt lat="30.870021" lon="34.762568"><ele>499.7</ele><name>TP00800</name><time>2016-12-28T19:19:27Z</time></trkpt>
   <trkpt lat="30.870079" lon="34.762619"><ele>499</ele><name>TP00801</name><time>2016-12-28T19:19:28Z</time></trkpt>
   <trkpt lat="30.870151" lon="34.762666"><ele>498.3</ele><name>TP00802</name><time>2016-12-28T19:19:29Z</time></trkpt>
   <trkpt lat="30.870222" lon="34.762692"><ele>497.9</ele><name>TP00803</name><time>2016-12-28T19:19:30Z</time></trkpt>
   <trkpt lat="30.870296" lon="34.762703"><ele>497.7</ele><name>TP00804</name><time>2016-12-28T19:19:31Z</time></trkpt>
   <trkpt lat="30.870366" lon="34.762702"><ele>497.6</ele><name>TP00805</name><time>2016-12-28T19:19:32Z</time></trkpt>
   <trkpt lat="30.870431" lon="34.762699"><ele>497.6</ele><name>TP00806</name><time>2016-12-28T19:19:33Z</time></trkpt>
   <trkpt lat="30.870502" lon="34.762698"><ele>497.5</ele><name>TP00807</name><time>2016-12-28T19:19:34Z</time></trkpt>
   <trkpt lat="30.870571" lon="34.762695"><ele>497.5</ele><name>TP00808</name><time>2016-12-28T19:19:35Z</time></trkpt>
   <trkpt lat="30.870641" lon="34.762691"><ele>497.5</ele><name>TP00809</name><time>2016-12-28T19:19:36Z</time></trkpt>
   <trkpt lat="30.870707" lon="34.762679"><ele>497.6</ele><name>TP00810</name><time>2016-12-28T19:19:37Z</time></trkpt>
   <trkpt lat="30.870775" lon="34.762678"><ele>497.5</ele><name>TP00811</name><time>2016-12-28T19:19:38Z</time></trkpt>
   <trkpt lat="30.870842" lon="34.762671"><ele>497.5</ele><name>TP00812</name><time>2016-12-28T19:19:39Z</time></trkpt>
   <trkpt lat="30.870915" lon="34.762651"><ele>497.6</ele><name>TP00813</name><time>2016-12-28T19:19:40Z</time></trkpt>
   <trkpt lat="30.87099" lon="34.762639"><ele>497.6</ele><name>TP00814</name><time>2016-12-28T19:19:41Z</time></trkpt>
   <trkpt lat="30.871073" lon="34.762635"><ele>497.6</ele><name>TP00815</name><time>2016-12-28T19:19:42Z</time></trkpt>
   <trkpt lat="30.871157" lon="34.762648"><ele>497.4</ele><name>TP00816</name><time>2016-12-28T19:19:43Z</time></trkpt>
   <trkpt lat="30.871238" lon="34.762658"><ele>497.2</ele><name>TP00817</name><time>2016-12-28T19:19:44Z</time></trkpt>
   <trkpt lat="30.871327" lon="34.762667"><ele>497</ele><name>TP00818</name><time>2016-12-28T19:19:45Z</time></trkpt>
   <trkpt lat="30.871417" lon="34.762674"><ele>496.7</ele><name>TP00819</name><time>2016-12-28T19:19:46Z</time></trkpt>
   <trkpt lat="30.871507" lon="34.762677"><ele>496.6</ele><name>TP00820</name><time>2016-12-28T19:19:47Z</time></trkpt>
   <trkpt lat="30.871599" lon="34.762677"><ele>496.4</ele><name>TP00821</name><time>2016-12-28T19:19:48Z</time></trkpt>
   <trkpt lat="30.871691" lon="34.762666"><ele>496.3</ele><name>TP00822</name><time>2016-12-28T19:19:49Z</time></trkpt>
   <trkpt lat="30.871781" lon="34.76265"><ele>496.2</ele><name>TP00823</name><time>2016-12-28T19:19:50Z</time></trkpt>
   <trkpt lat="30.871872" lon="34.762639"><ele>496.1</ele><name>TP00824</name><time>2016-12-28T19:19:51Z</time></trkpt>
   <trkpt lat="30.871959" lon="34.762618"><ele>496</ele><name>TP00825</name><time>2016-12-28T19:19:52Z</time></trkpt>
   <trkpt lat="30.872037" lon="34.762624"><ele>495.8</ele><name>TP00826</name><time>2016-12-28T19:19:53Z</time></trkpt>
   <trkpt lat="30.872096" lon="34.762672"><ele>495.5</ele><name>TP00827</name><time>2016-12-28T19:19:54Z</time></trkpt>
   <trkpt lat="30.872157" lon="34.762719"><ele>495.3</ele><name>TP00828</name><time>2016-12-28T19:19:55Z</time></trkpt>
   <trkpt lat="30.872224" lon="34.762752"><ele>495.1</ele><name>TP00829</name><time>2016-12-28T19:19:56Z</time></trkpt>
   <trkpt lat="30.872279" lon="34.762806"><ele>494.9</ele><name>TP00830</name><time>2016-12-28T19:19:57Z</time></trkpt>
   <trkpt lat="30.87232" lon="34.762876"><ele>494.7</ele><name>TP00831</name><time>2016-12-28T19:19:58Z</time></trkpt>
   <trkpt lat="30.872348" lon="34.762956"><ele>494.5</ele><name>TP00832</name><time>2016-12-28T19:19:59Z</time></trkpt>
   <trkpt lat="30.872364" lon="34.763037"><ele>494</ele><name>TP00833</name><time>2016-12-28T19:20:00Z</time></trkpt>
   <trkpt lat="30.872365" lon="34.763114"><ele>493.6</ele><name>TP00834</name><time>2016-12-28T19:20:01Z</time></trkpt>
   <trkpt lat="30.872368" lon="34.763191"><ele>493.1</ele><name>TP00835</name><time>2016-12-28T19:20:02Z</time></trkpt>
   <trkpt lat="30.872385" lon="34.763254"><ele>492.7</ele><name>TP00836</name><time>2016-12-28T19:20:03Z</time></trkpt>
   <trkpt lat="30.872421" lon="34.763294"><ele>492.4</ele><name>TP00837</name><time>2016-12-28T19:20:04Z</time></trkpt>
   <trkpt lat="30.872467" lon="34.763317"><ele>492.2</ele><name>TP00838</name><time>2016-12-28T19:20:05Z</time></trkpt>
   <trkpt lat="30.872514" lon="34.763335"><ele>492</ele><name>TP00839</name><time>2016-12-28T19:20:06Z</time></trkpt>
   <trkpt lat="30.872549" lon="34.763357"><ele>491.7</ele><name>TP00840</name><time>2016-12-28T19:20:07Z</time></trkpt>
   <trkpt lat="30.872578" lon="34.76339"><ele>491.5</ele><name>TP00841</name><time>2016-12-28T19:20:08Z</time></trkpt>
   <trkpt lat="30.8726" lon="34.763418"><ele>491.2</ele><name>TP00842</name><time>2016-12-28T19:20:09Z</time></trkpt>
   <trkpt lat="30.872636" lon="34.76345"><ele>490.9</ele><name>TP00843</name><time>2016-12-28T19:20:10Z</time></trkpt>
   <trkpt lat="30.872678" lon="34.76347"><ele>490.7</ele><name>TP00844</name><time>2016-12-28T19:20:11Z</time></trkpt>
   <trkpt lat="30.872731" lon="34.763487"><ele>490.4</ele><name>TP00845</name><time>2016-12-28T19:20:12Z</time></trkpt>
   <trkpt lat="30.872792" lon="34.763497"><ele>490.2</ele><name>TP00846</name><time>2016-12-28T19:20:13Z</time></trkpt>
   <trkpt lat="30.872856" lon="34.763498"><ele>490</ele><name>TP00847</name><time>2016-12-28T19:20:14Z</time></trkpt>
   <trkpt lat="30.872925" lon="34.763496"><ele>489.8</ele><name>TP00848</name><time>2016-12-28T19:20:15Z</time></trkpt>
   <trkpt lat="30.872995" lon="34.763497"><ele>489.6</ele><name>TP00849</name><time>2016-12-28T19:20:16Z</time></trkpt>
   <trkpt lat="30.873067" lon="34.763516"><ele>489.3</ele><name>TP00850</name><time>2016-12-28T19:20:17Z</time></trkpt>
   <trkpt lat="30.87313" lon="34.763538"><ele>488.9</ele><name>TP00851</name><time>2016-12-28T19:20:18Z</time></trkpt>
   <trkpt lat="30.873201" lon="34.763567"><ele>488.6</ele><name>TP00852</name><time>2016-12-28T19:20:19Z</time></trkpt>
   <trkpt lat="30.87327" lon="34.763586"><ele>488.2</ele><name>TP00853</name><time>2016-12-28T19:20:20Z</time></trkpt>
   <trkpt lat="30.873341" lon="34.763587"><ele>488.1</ele><name>TP00854</name><time>2016-12-28T19:20:21Z</time></trkpt>
   <trkpt lat="30.873405" lon="34.763584"><ele>487.9</ele><name>TP00855</name><time>2016-12-28T19:20:22Z</time></trkpt>
   <trkpt lat="30.873459" lon="34.763596"><ele>487.7</ele><name>TP00856</name><time>2016-12-28T19:20:23Z</time></trkpt>
   <trkpt lat="30.873502" lon="34.763612"><ele>487.5</ele><name>TP00857</name><time>2016-12-28T19:20:24Z</time></trkpt>
   <trkpt lat="30.873547" lon="34.763636"><ele>487.2</ele><name>TP00858</name><time>2016-12-28T19:20:25Z</time></trkpt>
   <trkpt lat="30.873583" lon="34.763655"><ele>487</ele><name>TP00859</name><time>2016-12-28T19:20:26Z</time></trkpt>
   <trkpt lat="30.873611" lon="34.76365"><ele>487</ele><name>TP00860</name><time>2016-12-28T19:20:37Z</time></trkpt>
   <trkpt lat="30.873647" lon="34.763663"><ele>486.8</ele><name>TP00861</name><time>2016-12-28T19:20:41Z</time></trkpt>
   <trkpt lat="30.873684" lon="34.763676"><ele>486.6</ele><name>TP00862</name><time>2016-12-28T19:20:43Z</time></trkpt>
   <trkpt lat="30.873716" lon="34.763691"><ele>486.4</ele><name>TP00863</name><time>2016-12-28T19:20:45Z</time></trkpt>
   <trkpt lat="30.873727" lon="34.763723"><ele>486.2</ele><name>TP00864</name><time>2016-12-28T19:20:49Z</time></trkpt>
   <trkpt lat="30.873747" lon="34.763756"><ele>486</ele><name>TP00865</name><time>2016-12-28T19:20:51Z</time></trkpt>
   <trkpt lat="30.873798" lon="34.763771"><ele>485.8</ele><name>TP00866</name><time>2016-12-28T19:20:53Z</time></trkpt>
   <trkpt lat="30.874468" lon="34.763863"><ele>484</ele><name>TP00867</name><time>2016-12-28T19:20:56Z</time></trkpt>
   <trkpt lat="30.874554" lon="34.763842"><ele>483.8</ele><name>TP00868</name><time>2016-12-28T19:20:57Z</time></trkpt>
   <trkpt lat="30.874639" lon="34.763822"><ele>484.1</ele><name>TP00869</name><time>2016-12-28T19:20:58Z</time></trkpt>
   <trkpt lat="30.874717" lon="34.763813"><ele>484.6</ele><name>TP00870</name><time>2016-12-28T19:20:59Z</time></trkpt>
   <trkpt lat="30.874788" lon="34.763839"><ele>484.9</ele><name>TP00871</name><time>2016-12-28T19:21:00Z</time></trkpt>
   <trkpt lat="30.874844" lon="34.763892"><ele>485.1</ele><name>TP00872</name><time>2016-12-28T19:21:01Z</time></trkpt>
   <trkpt lat="30.874894" lon="34.763961"><ele>485.1</ele><name>TP00873</name><time>2016-12-28T19:21:02Z</time></trkpt>
   <trkpt lat="30.874946" lon="34.764033"><ele>485.1</ele><name>TP00874</name><time>2016-12-28T19:21:03Z</time></trkpt>
   <trkpt lat="30.874992" lon="34.764093"><ele>485</ele><name>TP00875</name><time>2016-12-28T19:21:04Z</time></trkpt>
   <trkpt lat="30.875037" lon="34.764154"><ele>485</ele><name>TP00876</name><time>2016-12-28T19:21:05Z</time></trkpt>
   <trkpt lat="30.875084" lon="34.764218"><ele>484.9</ele><name>TP00877</name><time>2016-12-28T19:21:06Z</time></trkpt>
   <trkpt lat="30.875125" lon="34.764285"><ele>484.7</ele><name>TP00878</name><time>2016-12-28T19:21:07Z</time></trkpt>
   <trkpt lat="30.875163" lon="34.764365"><ele>484.5</ele><name>TP00879</name><time>2016-12-28T19:21:08Z</time></trkpt>
   <trkpt lat="30.875192" lon="34.764455"><ele>484.1</ele><name>TP00880</name><time>2016-12-28T19:21:09Z</time></trkpt>
   <trkpt lat="30.875216" lon="34.764566"><ele>483.6</ele><name>TP00881</name><time>2016-12-28T19:21:10Z</time></trkpt>
   <trkpt lat="30.875244" lon="34.764675"><ele>483</ele><name>TP00882</name><time>2016-12-28T19:21:11Z</time></trkpt>
   <trkpt lat="30.875279" lon="34.764775"><ele>482.4</ele><name>TP00883</name><time>2016-12-28T19:21:12Z</time></trkpt>
   <trkpt lat="30.875338" lon="34.764869"><ele>481.9</ele><name>TP00884</name><time>2016-12-28T19:21:13Z</time></trkpt>
   <trkpt lat="30.875399" lon="34.764957"><ele>481.3</ele><name>TP00885</name><time>2016-12-28T19:21:14Z</time></trkpt>
   <trkpt lat="30.875451" lon="34.765027"><ele>480.8</ele><name>TP00886</name><time>2016-12-28T19:21:15Z</time></trkpt>
   <trkpt lat="30.875499" lon="34.765083"><ele>480.4</ele><name>TP00887</name><time>2016-12-28T19:21:16Z</time></trkpt>
   <trkpt lat="30.875537" lon="34.765139"><ele>480</ele><name>TP00888</name><time>2016-12-28T19:21:17Z</time></trkpt>
   <trkpt lat="30.875569" lon="34.765213"><ele>479.6</ele><name>TP00889</name><time>2016-12-28T19:21:18Z</time></trkpt>
   <trkpt lat="30.875583" lon="34.7653"><ele>479</ele><name>TP00890</name><time>2016-12-28T19:21:19Z</time></trkpt>
   <trkpt lat="30.875584" lon="34.76538"><ele>478.4</ele><name>TP00891</name><time>2016-12-28T19:21:20Z</time></trkpt>
   <trkpt lat="30.8756" lon="34.76545"><ele>478.1</ele><name>TP00892</name><time>2016-12-28T19:21:21Z</time></trkpt>
   <trkpt lat="30.87563" lon="34.765515"><ele>477.9</ele><name>TP00893</name><time>2016-12-28T19:21:22Z</time></trkpt>
   <trkpt lat="30.875667" lon="34.765567"><ele>477.7</ele><name>TP00894</name><time>2016-12-28T19:21:23Z</time></trkpt>
   <trkpt lat="30.875699" lon="34.765615"><ele>477.5</ele><name>TP00895</name><time>2016-12-28T19:21:24Z</time></trkpt>
   <trkpt lat="30.875731" lon="34.765664"><ele>477.4</ele><name>TP00896</name><time>2016-12-28T19:21:25Z</time></trkpt>
   <trkpt lat="30.875771" lon="34.765712"><ele>477.2</ele><name>TP00897</name><time>2016-12-28T19:21:26Z</time></trkpt>
   <trkpt lat="30.87582" lon="34.76575"><ele>477.1</ele><name>TP00898</name><time>2016-12-28T19:21:27Z</time></trkpt>
   <trkpt lat="30.875881" lon="34.765777"><ele>477</ele><name>TP00899</name><time>2016-12-28T19:21:28Z</time></trkpt>
   <trkpt lat="30.87595" lon="34.765792"><ele>477</ele><name>TP00900</name><time>2016-12-28T19:21:29Z</time></trkpt>
   <trkpt lat="30.876016" lon="34.765815"><ele>476.9</ele><name>TP00901</name><time>2016-12-28T19:21:30Z</time></trkpt>
   <trkpt lat="30.876091" lon="34.765845"><ele>476.9</ele><name>TP00902</name><time>2016-12-28T19:21:31Z</time></trkpt>
   <trkpt lat="30.87616" lon="34.765886"><ele>476.7</ele><name>TP00903</name><time>2016-12-28T19:21:32Z</time></trkpt>
   <trkpt lat="30.876221" lon="34.765937"><ele>476.5</ele><name>TP00904</name><time>2016-12-28T19:21:33Z</time></trkpt>
   <trkpt lat="30.876283" lon="34.765976"><ele>476.2</ele><name>TP00905</name><time>2016-12-28T19:21:34Z</time></trkpt>
   <trkpt lat="30.876343" lon="34.766011"><ele>475.9</ele><name>TP00906</name><time>2016-12-28T19:21:35Z</time></trkpt>
   <trkpt lat="30.876404" lon="34.766049"><ele>475.6</ele><name>TP00907</name><time>2016-12-28T19:21:36Z</time></trkpt>
   <trkpt lat="30.876464" lon="34.766094"><ele>475.3</ele><name>TP00908</name><time>2016-12-28T19:21:37Z</time></trkpt>
   <trkpt lat="30.876513" lon="34.766151"><ele>475</ele><name>TP00909</name><time>2016-12-28T19:21:38Z</time></trkpt>
   <trkpt lat="30.876562" lon="34.76621"><ele>474.8</ele><name>TP00910</name><time>2016-12-28T19:21:39Z</time></trkpt>
   <trkpt lat="30.87661" lon="34.76626"><ele>474.6</ele><name>TP00911</name><time>2016-12-28T19:21:40Z</time></trkpt>
   <trkpt lat="30.876662" lon="34.766306"><ele>474.6</ele><name>TP00912</name><time>2016-12-28T19:21:41Z</time></trkpt>
   <trkpt lat="30.876709" lon="34.766342"><ele>474.6</ele><name>TP00913</name><time>2016-12-28T19:21:42Z</time></trkpt>
   <trkpt lat="30.876762" lon="34.766381"><ele>474.5</ele><name>TP00914</name><time>2016-12-28T19:21:43Z</time></trkpt>
   <trkpt lat="30.876811" lon="34.766416"><ele>474.5</ele><name>TP00915</name><time>2016-12-28T19:21:44Z</time></trkpt>
   <trkpt lat="30.876859" lon="34.766458"><ele>474.5</ele><name>TP00916</name><time>2016-12-28T19:21:45Z</time></trkpt>
   <trkpt lat="30.876897" lon="34.766511"><ele>474.5</ele><name>TP00917</name><time>2016-12-28T19:21:46Z</time></trkpt>
   <trkpt lat="30.876932" lon="34.766566"><ele>474.6</ele><name>TP00918</name><time>2016-12-28T19:21:47Z</time></trkpt>
   <trkpt lat="30.87696" lon="34.766631"><ele>474.6</ele><name>TP00919</name><time>2016-12-28T19:21:48Z</time></trkpt>
   <trkpt lat="30.876975" lon="34.766705"><ele>474.7</ele><name>TP00920</name><time>2016-12-28T19:21:49Z</time></trkpt>
   <trkpt lat="30.87699" lon="34.766789"><ele>474.8</ele><name>TP00921</name><time>2016-12-28T19:21:50Z</time></trkpt>
   <trkpt lat="30.877032" lon="34.766866"><ele>474.8</ele><name>TP00922</name><time>2016-12-28T19:21:51Z</time></trkpt>
   <trkpt lat="30.877068" lon="34.766938"><ele>474.8</ele><name>TP00923</name><time>2016-12-28T19:21:52Z</time></trkpt>
   <trkpt lat="30.877093" lon="34.76701"><ele>475</ele><name>TP00924</name><time>2016-12-28T19:21:53Z</time></trkpt>
   <trkpt lat="30.877108" lon="34.767079"><ele>475.2</ele><name>TP00925</name><time>2016-12-28T19:21:54Z</time></trkpt>
   <trkpt lat="30.877113" lon="34.767135"><ele>475.6</ele><name>TP00926</name><time>2016-12-28T19:21:55Z</time></trkpt>
   <trkpt lat="30.877116" lon="34.767192"><ele>475.9</ele><name>TP00927</name><time>2016-12-28T19:21:56Z</time></trkpt>
   <trkpt lat="30.877111" lon="34.767245"><ele>476.2</ele><name>TP00928</name><time>2016-12-28T19:21:57Z</time></trkpt>
   <trkpt lat="30.877113" lon="34.767291"><ele>476.5</ele><name>TP00929</name><time>2016-12-28T19:21:58Z</time></trkpt>
   <trkpt lat="30.877112" lon="34.767337"><ele>476.7</ele><name>TP00930</name><time>2016-12-28T19:21:59Z</time></trkpt>
   <trkpt lat="30.877105" lon="34.767382"><ele>476.9</ele><name>TP00931</name><time>2016-12-28T19:22:00Z</time></trkpt>
   <trkpt lat="30.877106" lon="34.767429"><ele>477.2</ele><name>TP00932</name><time>2016-12-28T19:22:01Z</time></trkpt>
   <trkpt lat="30.877111" lon="34.767472"><ele>477.5</ele><name>TP00933</name><time>2016-12-28T19:22:02Z</time></trkpt>
   <trkpt lat="30.877121" lon="34.767515"><ele>477.8</ele><name>TP00934</name><time>2016-12-28T19:22:03Z</time></trkpt>
   <trkpt lat="30.877142" lon="34.767553"><ele>478.2</ele><name>TP00935</name><time>2016-12-28T19:22:05Z</time></trkpt>
   <trkpt lat="30.877172" lon="34.767581"><ele>478.5</ele><name>TP00936</name><time>2016-12-28T19:22:07Z</time></trkpt>
   <trkpt lat="30.8772" lon="34.7676"><ele>478.8</ele><name>TP00937</name><time>2016-12-28T19:22:08Z</time></trkpt>
   <trkpt lat="30.877238" lon="34.767623"><ele>479.2</ele><name>TP00938</name><time>2016-12-28T19:22:09Z</time></trkpt>
   <trkpt lat="30.877271" lon="34.767644"><ele>479.5</ele><name>TP00939</name><time>2016-12-28T19:22:10Z</time></trkpt>
   <trkpt lat="30.877305" lon="34.767666"><ele>479.8</ele><name>TP00940</name><time>2016-12-28T19:22:11Z</time></trkpt>
   <trkpt lat="30.87733" lon="34.767684"><ele>480</ele><name>TP00941</name><time>2016-12-28T19:22:12Z</time></trkpt>
   <trkpt lat="30.877367" lon="34.767723"><ele>480.4</ele><name>TP00942</name><time>2016-12-28T19:22:14Z</time></trkpt>
   <trkpt lat="30.877405" lon="34.767764"><ele>480.8</ele><name>TP00943</name><time>2016-12-28T19:22:15Z</time></trkpt>
   <trkpt lat="30.87753" lon="34.767887"><ele>482</ele><name>TP00944</name><time>2016-12-28T19:22:17Z</time></trkpt>
   <trkpt lat="30.877572" lon="34.767908"><ele>482.3</ele><name>TP00945</name><time>2016-12-28T19:22:18Z</time></trkpt>
   <trkpt lat="30.877609" lon="34.767926"><ele>482.5</ele><name>TP00946</name><time>2016-12-28T19:22:19Z</time></trkpt>
   <trkpt lat="30.877646" lon="34.767935"><ele>482.7</ele><name>TP00947</name><time>2016-12-28T19:22:20Z</time></trkpt>
   <trkpt lat="30.877693" lon="34.767932"><ele>482.9</ele><name>TP00948</name><time>2016-12-28T19:22:21Z</time></trkpt>
   <trkpt lat="30.877748" lon="34.767928"><ele>483.2</ele><name>TP00949</name><time>2016-12-28T19:22:22Z</time></trkpt>
   <trkpt lat="30.877803" lon="34.767918"><ele>483.5</ele><name>TP00950</name><time>2016-12-28T19:22:23Z</time></trkpt>
   <trkpt lat="30.877851" lon="34.767897"><ele>483.6</ele><name>TP00951</name><time>2016-12-28T19:22:24Z</time></trkpt>
   <trkpt lat="30.877892" lon="34.767872"><ele>483.8</ele><name>TP00952</name><time>2016-12-28T19:22:25Z</time></trkpt>
   <trkpt lat="30.877924" lon="34.767862"><ele>483.9</ele><name>TP00953</name><time>2016-12-28T19:22:26Z</time></trkpt>
   <trkpt lat="30.877954" lon="34.767857"><ele>484.1</ele><name>TP00954</name><time>2016-12-28T19:22:27Z</time></trkpt>
   <trkpt lat="30.877984" lon="34.767851"><ele>484.2</ele><name>TP00955</name><time>2016-12-28T19:22:28Z</time></trkpt>
   <trkpt lat="30.878012" lon="34.767852"><ele>484.4</ele><name>TP00956</name><time>2016-12-28T19:22:29Z</time></trkpt>
   <trkpt lat="30.878041" lon="34.767858"><ele>484.6</ele><name>TP00957</name><time>2016-12-28T19:22:30Z</time></trkpt>
   <trkpt lat="30.878069" lon="34.767867"><ele>484.8</ele><name>TP00958</name><time>2016-12-28T19:22:31Z</time></trkpt>
   <trkpt lat="30.878099" lon="34.767883"><ele>485</ele><name>TP00959</name><time>2016-12-28T19:22:33Z</time></trkpt>
   <trkpt lat="30.878133" lon="34.767893"><ele>485.2</ele><name>TP00960</name><time>2016-12-28T19:22:35Z</time></trkpt>
   <trkpt lat="30.878191" lon="34.767911"><ele>485.6</ele><name>TP00961</name><time>2016-12-28T19:22:38Z</time></trkpt>
   <trkpt lat="30.878232" lon="34.767942"><ele>485.9</ele><name>TP00962</name><time>2016-12-28T19:22:39Z</time></trkpt>
   <trkpt lat="30.878273" lon="34.767973"><ele>486</ele><name>TP00963</name><time>2016-12-28T19:22:40Z</time></trkpt>
   <trkpt lat="30.878316" lon="34.768004"><ele>486.2</ele><name>TP00964</name><time>2016-12-28T19:22:41Z</time></trkpt>
   <trkpt lat="30.878358" lon="34.768039"><ele>486.4</ele><name>TP00965</name><time>2016-12-28T19:22:42Z</time></trkpt>
   <trkpt lat="30.878411" lon="34.768103"><ele>486.6</ele><name>TP00966</name><time>2016-12-28T19:22:43Z</time></trkpt>
   <trkpt lat="30.878511" lon="34.768196"><ele>487</ele><name>TP00967</name><time>2016-12-28T19:22:45Z</time></trkpt>
   <trkpt lat="30.878538" lon="34.768223"><ele>487.1</ele><name>TP00968</name><time>2016-12-28T19:22:46Z</time></trkpt>
   <trkpt lat="30.878606" lon="34.768271"><ele>487.4</ele><name>TP00969</name><time>2016-12-28T19:22:48Z</time></trkpt>
   <trkpt lat="30.878642" lon="34.768302"><ele>487.5</ele><name>TP00970</name><time>2016-12-28T19:22:49Z</time></trkpt>
   <trkpt lat="30.878679" lon="34.768325"><ele>487.6</ele><name>TP00971</name><time>2016-12-28T19:22:50Z</time></trkpt>
   <trkpt lat="30.878718" lon="34.768341"><ele>487.8</ele><name>TP00972</name><time>2016-12-28T19:22:51Z</time></trkpt>
   <trkpt lat="30.878755" lon="34.768357"><ele>488</ele><name>TP00973</name><time>2016-12-28T19:22:52Z</time></trkpt>
   <trkpt lat="30.878807" lon="34.768379"><ele>488.1</ele><name>TP00974</name><time>2016-12-28T19:22:58Z</time></trkpt>
   <trkpt lat="30.878829" lon="34.768381"><ele>488.2</ele><name>TP00975</name><time>2016-12-28T19:22:59Z</time></trkpt>
   <trkpt lat="30.878877" lon="34.768371"><ele>488.4</ele><name>TP00976</name><time>2016-12-28T19:23:00Z</time></trkpt>
   <trkpt lat="30.878923" lon="34.768362"><ele>488.6</ele><name>TP00977</name><time>2016-12-28T19:23:01Z</time></trkpt>
   <trkpt lat="30.878968" lon="34.768361"><ele>488.8</ele><name>TP00978</name><time>2016-12-28T19:23:02Z</time></trkpt>
   <trkpt lat="30.879014" lon="34.768368"><ele>488.9</ele><name>TP00979</name><time>2016-12-28T19:23:03Z</time></trkpt>
   <trkpt lat="30.879059" lon="34.768378"><ele>489.1</ele><name>TP00980</name><time>2016-12-28T19:23:04Z</time></trkpt>
   <trkpt lat="30.879289" lon="34.768431"><ele>490</ele><name>TP00981</name><time>2016-12-28T19:23:06Z</time></trkpt>
   <trkpt lat="30.879323" lon="34.76844"><ele>490.2</ele><name>TP00982</name><time>2016-12-28T19:23:07Z</time></trkpt>
   <trkpt lat="30.879358" lon="34.768451"><ele>490.3</ele><name>TP00983</name><time>2016-12-28T19:23:08Z</time></trkpt>
   <trkpt lat="30.879394" lon="34.768463"><ele>490.5</ele><name>TP00984</name><time>2016-12-28T19:23:09Z</time></trkpt>
   <trkpt lat="30.879425" lon="34.76848"><ele>490.6</ele><name>TP00985</name><time>2016-12-28T19:23:10Z</time></trkpt>
   <trkpt lat="30.879459" lon="34.768508"><ele>490.8</ele><name>TP00986</name><time>2016-12-28T19:23:11Z</time></trkpt>
   <trkpt lat="30.879488" lon="34.768528"><ele>491</ele><name>TP00987</name><time>2016-12-28T19:23:12Z</time></trkpt>
   <trkpt lat="30.879517" lon="34.768547"><ele>491.2</ele><name>TP00988</name><time>2016-12-28T19:23:13Z</time></trkpt>
   <trkpt lat="30.879548" lon="34.768561"><ele>491.4</ele><name>TP00989</name><time>2016-12-28T19:23:14Z</time></trkpt>
   <trkpt lat="30.879571" lon="34.768585"><ele>491.5</ele><name>TP00990</name><time>2016-12-28T19:23:17Z</time></trkpt>
   <trkpt lat="30.879608" lon="34.768602"><ele>491.5</ele><name>TP00991</name><time>2016-12-28T19:23:19Z</time></trkpt>
   <trkpt lat="30.879646" lon="34.768621"><ele>491.3</ele><name>TP00992</name><time>2016-12-28T19:23:20Z</time></trkpt>
   <trkpt lat="30.87968" lon="34.768644"><ele>491.2</ele><name>TP00993</name><time>2016-12-28T19:23:21Z</time></trkpt>
   <trkpt lat="30.879713" lon="34.768671"><ele>491</ele><name>TP00994</name><time>2016-12-28T19:23:22Z</time></trkpt>
   <trkpt lat="30.879744" lon="34.768701"><ele>490.9</ele><name>TP00995</name><time>2016-12-28T19:23:23Z</time></trkpt>
   <trkpt lat="30.879772" lon="34.768733"><ele>490.8</ele><name>TP00996</name><time>2016-12-28T19:23:24Z</time></trkpt>
   <trkpt lat="30.879799" lon="34.768765"><ele>490.7</ele><name>TP00997</name><time>2016-12-28T19:23:25Z</time></trkpt>
   <trkpt lat="30.879822" lon="34.768798"><ele>490.6</ele><name>TP00998</name><time>2016-12-28T19:23:26Z</time></trkpt>
   <trkpt lat="30.879896" lon="34.768897"><ele>490.3</ele><name>TP00999</name><time>2016-12-28T19:23:28Z</time></trkpt>
   <trkpt lat="30.879916" lon="34.768926"><ele>490.3</ele><name>TP01000</name><time>2016-12-28T19:23:29Z</time></trkpt>
   <trkpt lat="30.87994" lon="34.768951"><ele>490.2</ele><name>TP01001</name><time>2016-12-28T19:23:30Z</time></trkpt>
   <trkpt lat="30.879963" lon="34.76897"><ele>490.2</ele><name>TP01002</name><time>2016-12-28T19:23:31Z</time></trkpt>
   <trkpt lat="30.879985" lon="34.768993"><ele>490.1</ele><name>TP01003</name><time>2016-12-28T19:23:32Z</time></trkpt>
   <trkpt lat="30.880003" lon="34.769019"><ele>490.1</ele><name>TP01004</name><time>2016-12-28T19:23:33Z</time></trkpt>
   <trkpt lat="30.880031" lon="34.769061"><ele>490.1</ele><name>TP01005</name><time>2016-12-28T19:23:35Z</time></trkpt>
   <trkpt lat="30.880052" lon="34.769096"><ele>490.2</ele><name>TP01006</name><time>2016-12-28T19:23:37Z</time></trkpt>
   <trkpt lat="30.880079" lon="34.769135"><ele>490.2</ele><name>TP01007</name><time>2016-12-28T19:23:40Z</time></trkpt>
   <trkpt lat="30.880106" lon="34.769158"><ele>490.2</ele><name>TP01008</name><time>2016-12-28T19:23:42Z</time></trkpt>
   <trkpt lat="30.880134" lon="34.769179"><ele>490.2</ele><name>TP01009</name><time>2016-12-28T19:23:43Z</time></trkpt>
   <trkpt lat="30.880158" lon="34.769197"><ele>490.2</ele><name>TP01010</name><time>2016-12-28T19:23:44Z</time></trkpt>
   <trkpt lat="30.880179" lon="34.769218"><ele>490.3</ele><name>TP01011</name><time>2016-12-28T19:23:45Z</time></trkpt>
   <trkpt lat="30.880216" lon="34.769261"><ele>490.4</ele><name>TP01012</name><time>2016-12-28T19:23:47Z</time></trkpt>
   <trkpt lat="30.880249" lon="34.769299"><ele>490.5</ele><name>TP01013</name><time>2016-12-28T19:23:49Z</time></trkpt>
   <trkpt lat="30.880284" lon="34.769323"><ele>490.6</ele><name>TP01014</name><time>2016-12-28T19:23:51Z</time></trkpt>
   <trkpt lat="30.880308" lon="34.769343"><ele>490.7</ele><name>TP01015</name><time>2016-12-28T19:23:53Z</time></trkpt>
   <trkpt lat="30.880345" lon="34.769386"><ele>490.9</ele><name>TP01016</name><time>2016-12-28T19:23:55Z</time></trkpt>
   <trkpt lat="30.88038" lon="34.769425"><ele>491.1</ele><name>TP01017</name><time>2016-12-28T19:23:57Z</time></trkpt>
   <trkpt lat="30.880411" lon="34.769456"><ele>491.2</ele><name>TP01018</name><time>2016-12-28T19:23:59Z</time></trkpt>
   <trkpt lat="30.880437" lon="34.769489"><ele>491.5</ele><name>TP01019</name><time>2016-12-28T19:24:01Z</time></trkpt>
   <trkpt lat="30.880455" lon="34.769533"><ele>491.8</ele><name>TP01020</name><time>2016-12-28T19:24:03Z</time></trkpt>
   <trkpt lat="30.88047" lon="34.769579"><ele>492.1</ele><name>TP01021</name><time>2016-12-28T19:24:05Z</time></trkpt>
   <trkpt lat="30.880485" lon="34.769611"><ele>492.3</ele><name>TP01022</name><time>2016-12-28T19:24:07Z</time></trkpt>
   <trkpt lat="30.880523" lon="34.769647"><ele>492.5</ele><name>TP01023</name><time>2016-12-28T19:24:09Z</time></trkpt>
   <trkpt lat="30.880558" lon="34.769684"><ele>492.8</ele><name>TP01024</name><time>2016-12-28T19:24:11Z</time></trkpt>
   <trkpt lat="30.880582" lon="34.769717"><ele>492.9</ele><name>TP01025</name><time>2016-12-28T19:24:13Z</time></trkpt>
   <trkpt lat="30.880624" lon="34.769752"><ele>493.2</ele><name>TP01026</name><time>2016-12-28T19:24:15Z</time></trkpt>
   <trkpt lat="30.880648" lon="34.769778"><ele>493.3</ele><name>TP01027</name><time>2016-12-28T19:24:16Z</time></trkpt>
   <trkpt lat="30.880672" lon="34.769807"><ele>493.4</ele><name>TP01028</name><time>2016-12-28T19:24:17Z</time></trkpt>
   <trkpt lat="30.880696" lon="34.769837"><ele>493.6</ele><name>TP01029</name><time>2016-12-28T19:24:18Z</time></trkpt>
   <trkpt lat="30.880718" lon="34.769868"><ele>493.7</ele><name>TP01030</name><time>2016-12-28T19:24:19Z</time></trkpt>
   <trkpt lat="30.88074" lon="34.769897"><ele>493.8</ele><name>TP01031</name><time>2016-12-28T19:24:20Z</time></trkpt>
   <trkpt lat="30.880761" lon="34.769925"><ele>494</ele><name>TP01032</name><time>2016-12-28T19:24:21Z</time></trkpt>
   <trkpt lat="30.880784" lon="34.769954"><ele>494.1</ele><name>TP01033</name><time>2016-12-28T19:24:22Z</time></trkpt>
   <trkpt lat="30.880807" lon="34.769982"><ele>494.2</ele><name>TP01034</name><time>2016-12-28T19:24:23Z</time></trkpt>
   <trkpt lat="30.880828" lon="34.770006"><ele>494.3</ele><name>TP01035</name><time>2016-12-28T19:24:24Z</time></trkpt>
   <trkpt lat="30.880851" lon="34.770025"><ele>494.3</ele><name>TP01036</name><time>2016-12-28T19:24:25Z</time></trkpt>
   <trkpt lat="30.880876" lon="34.770041"><ele>494.4</ele><name>TP01037</name><time>2016-12-28T19:24:26Z</time></trkpt>
   <trkpt lat="30.880905" lon="34.770061"><ele>494.5</ele><name>TP01038</name><time>2016-12-28T19:24:27Z</time></trkpt>
   <trkpt lat="30.880929" lon="34.770076"><ele>494.5</ele><name>TP01039</name><time>2016-12-28T19:24:28Z</time></trkpt>
   <trkpt lat="30.880968" lon="34.770103"><ele>494.6</ele><name>TP01040</name><time>2016-12-28T19:24:30Z</time></trkpt>
   <trkpt lat="30.881011" lon="34.770136"><ele>494.7</ele><name>TP01041</name><time>2016-12-28T19:24:32Z</time></trkpt>
   <trkpt lat="30.881035" lon="34.770155"><ele>494.7</ele><name>TP01042</name><time>2016-12-28T19:24:33Z</time></trkpt>
   <trkpt lat="30.881071" lon="34.770185"><ele>494.8</ele><name>TP01043</name><time>2016-12-28T19:24:35Z</time></trkpt>
   <trkpt lat="30.881111" lon="34.770205"><ele>494.8</ele><name>TP01044</name><time>2016-12-28T19:24:37Z</time></trkpt>
   <trkpt lat="30.881155" lon="34.770219"><ele>494.8</ele><name>TP01045</name><time>2016-12-28T19:24:39Z</time></trkpt>
   <trkpt lat="30.881183" lon="34.770224"><ele>494.8</ele><name>TP01046</name><time>2016-12-28T19:24:40Z</time></trkpt>
   <trkpt lat="30.881236" lon="34.770226"><ele>494.8</ele><name>TP01047</name><time>2016-12-28T19:24:42Z</time></trkpt>
   <trkpt lat="30.881283" lon="34.770214"><ele>494.5</ele><name>TP01048</name><time>2016-12-28T19:24:44Z</time></trkpt>
   <trkpt lat="30.881312" lon="34.770202"><ele>494.3</ele><name>TP01049</name><time>2016-12-28T19:24:46Z</time></trkpt>
   <trkpt lat="30.881341" lon="34.77019"><ele>494.1</ele><name>TP01050</name><time>2016-12-28T19:24:48Z</time></trkpt>
   <trkpt lat="30.88139" lon="34.770167"><ele>493.7</ele><name>TP01051</name><time>2016-12-28T19:24:50Z</time></trkpt>
   <trkpt lat="30.881417" lon="34.770156"><ele>493.5</ele><name>TP01052</name><time>2016-12-28T19:24:51Z</time></trkpt>
   <trkpt lat="30.881448" lon="34.770145"><ele>493.2</ele><name>TP01053</name><time>2016-12-28T19:24:52Z</time></trkpt>
   <trkpt lat="30.881482" lon="34.770137"><ele>493</ele><name>TP01054</name><time>2016-12-28T19:24:53Z</time></trkpt>
   <trkpt lat="30.881519" lon="34.77013"><ele>492.7</ele><name>TP01055</name><time>2016-12-28T19:24:54Z</time></trkpt>
   <trkpt lat="30.881562" lon="34.770121"><ele>492.4</ele><name>TP01056</name><time>2016-12-28T19:24:55Z</time></trkpt>
   <trkpt lat="30.881614" lon="34.770109"><ele>492.1</ele><name>TP01057</name><time>2016-12-28T19:24:56Z</time></trkpt>
   <trkpt lat="30.88176" lon="34.77008"><ele>491.1</ele><name>TP01058</name><time>2016-12-28T19:24:58Z</time></trkpt>
   <trkpt lat="30.881834" lon="34.770074"><ele>490.5</ele><name>TP01059</name><time>2016-12-28T19:24:59Z</time></trkpt>
   <trkpt lat="30.881913" lon="34.770075"><ele>490</ele><name>TP01060</name><time>2016-12-28T19:25:00Z</time></trkpt>
   <trkpt lat="30.881997" lon="34.770087"><ele>489.4</ele><name>TP01061</name><time>2016-12-28T19:25:01Z</time></trkpt>
   <trkpt lat="30.882081" lon="34.770112"><ele>488.7</ele><name>TP01062</name><time>2016-12-28T19:25:02Z</time></trkpt>
   <trkpt lat="30.882165" lon="34.770142"><ele>488.4</ele><name>TP01063</name><time>2016-12-28T19:25:03Z</time></trkpt>
   <trkpt lat="30.882246" lon="34.770177"><ele>488</ele><name>TP01064</name><time>2016-12-28T19:25:04Z</time></trkpt>
   <trkpt lat="30.882324" lon="34.770209"><ele>487.6</ele><name>TP01065</name><time>2016-12-28T19:25:05Z</time></trkpt>
   <trkpt lat="30.882403" lon="34.770245"><ele>487.3</ele><name>TP01066</name><time>2016-12-28T19:25:06Z</time></trkpt>
   <trkpt lat="30.882487" lon="34.770276"><ele>486.9</ele><name>TP01067</name><time>2016-12-28T19:25:07Z</time></trkpt>
   <trkpt lat="30.882571" lon="34.770302"><ele>486.5</ele><name>TP01068</name><time>2016-12-28T19:25:08Z</time></trkpt>
   <trkpt lat="30.882657" lon="34.770323"><ele>486.2</ele><name>TP01069</name><time>2016-12-28T19:25:09Z</time></trkpt>
   <trkpt lat="30.882747" lon="34.77035"><ele>485.8</ele><name>TP01070</name><time>2016-12-28T19:25:10Z</time></trkpt>
   <trkpt lat="30.882836" lon="34.770386"><ele>485.4</ele><name>TP01071</name><time>2016-12-28T19:25:11Z</time></trkpt>
   <trkpt lat="30.882915" lon="34.770438"><ele>485</ele><name>TP01072</name><time>2016-12-28T19:25:12Z</time></trkpt>
   <trkpt lat="30.882984" lon="34.770497"><ele>484.6</ele><name>TP01073</name><time>2016-12-28T19:25:13Z</time></trkpt>
   <trkpt lat="30.883047" lon="34.770559"><ele>484.3</ele><name>TP01074</name><time>2016-12-28T19:25:14Z</time></trkpt>
   <trkpt lat="30.883111" lon="34.770624"><ele>484</ele><name>TP01075</name><time>2016-12-28T19:25:15Z</time></trkpt>
   <trkpt lat="30.883177" lon="34.770692"><ele>483.7</ele><name>TP01076</name><time>2016-12-28T19:25:16Z</time></trkpt>
   <trkpt lat="30.883244" lon="34.770765"><ele>483.5</ele><name>TP01077</name><time>2016-12-28T19:25:17Z</time></trkpt>
   <trkpt lat="30.88331" lon="34.77084"><ele>483.3</ele><name>TP01078</name><time>2016-12-28T19:25:18Z</time></trkpt>
   <trkpt lat="30.883375" lon="34.770912"><ele>483.2</ele><name>TP01079</name><time>2016-12-28T19:25:19Z</time></trkpt>
   <trkpt lat="30.883437" lon="34.770984"><ele>483.1</ele><name>TP01080</name><time>2016-12-28T19:25:20Z</time></trkpt>
   <trkpt lat="30.883492" lon="34.771043"><ele>483</ele><name>TP01081</name><time>2016-12-28T19:25:21Z</time></trkpt>
   <trkpt lat="30.88355" lon="34.771088"><ele>483</ele><name>TP01082</name><time>2016-12-28T19:25:22Z</time></trkpt>
   <trkpt lat="30.883586" lon="34.771115"><ele>483</ele><name>TP01083</name><time>2016-12-28T19:25:23Z</time></trkpt>
   <trkpt lat="30.883618" lon="34.771127"><ele>482.9</ele><name>TP01084</name><time>2016-12-28T19:25:25Z</time></trkpt>
   <trkpt lat="30.883654" lon="34.77115"><ele>482.9</ele><name>TP01085</name><time>2016-12-28T19:25:39Z</time></trkpt>
   <trkpt lat="30.88368" lon="34.771173"><ele>482.9</ele><name>TP01086</name><time>2016-12-28T19:25:43Z</time></trkpt>
   <trkpt lat="30.883734" lon="34.771177"><ele>482.8</ele><name>TP01087</name><time>2016-12-28T19:25:47Z</time></trkpt>
   <trkpt lat="30.883766" lon="34.77118"><ele>482.8</ele><name>TP01088</name><time>2016-12-28T19:25:48Z</time></trkpt>
   <trkpt lat="30.883803" lon="34.771182"><ele>482.6</ele><name>TP01089</name><time>2016-12-28T19:25:49Z</time></trkpt>
   <trkpt lat="30.883832" lon="34.771181"><ele>482.5</ele><name>TP01090</name><time>2016-12-28T19:25:50Z</time></trkpt>
   <trkpt lat="30.883875" lon="34.771176"><ele>482.4</ele><name>TP01091</name><time>2016-12-28T19:25:52Z</time></trkpt>
   <trkpt lat="30.883925" lon="34.771171"><ele>482.2</ele><name>TP01092</name><time>2016-12-28T19:25:53Z</time></trkpt>
   <trkpt lat="30.884084" lon="34.771136"><ele>481.5</ele><name>TP01093</name><time>2016-12-28T19:25:55Z</time></trkpt>
   <trkpt lat="30.884136" lon="34.771121"><ele>481.2</ele><name>TP01094</name><time>2016-12-28T19:25:56Z</time></trkpt>
   <trkpt lat="30.884194" lon="34.771098"><ele>480.9</ele><name>TP01095</name><time>2016-12-28T19:25:57Z</time></trkpt>
   <trkpt lat="30.884254" lon="34.77107"><ele>480.6</ele><name>TP01096</name><time>2016-12-28T19:25:58Z</time></trkpt>
   <trkpt lat="30.884317" lon="34.771039"><ele>480.3</ele><name>TP01097</name><time>2016-12-28T19:25:59Z</time></trkpt>
   <trkpt lat="30.884379" lon="34.771002"><ele>479.9</ele><name>TP01098</name><time>2016-12-28T19:26:00Z</time></trkpt>
   <trkpt lat="30.884444" lon="34.770964"><ele>479.5</ele><name>TP01099</name><time>2016-12-28T19:26:01Z</time></trkpt>
   <trkpt lat="30.884514" lon="34.77093"><ele>479.1</ele><name>TP01100</name><time>2016-12-28T19:26:02Z</time></trkpt>
   <trkpt lat="30.884589" lon="34.770892"><ele>478.7</ele><name>TP01101</name><time>2016-12-28T19:26:03Z</time></trkpt>
   <trkpt lat="30.884668" lon="34.770867"><ele>478.3</ele><name>TP01102</name><time>2016-12-28T19:26:04Z</time></trkpt>
   <trkpt lat="30.884742" lon="34.770848"><ele>477.9</ele><name>TP01103</name><time>2016-12-28T19:26:05Z</time></trkpt>
   <trkpt lat="30.884817" lon="34.77082"><ele>477.5</ele><name>TP01104</name><time>2016-12-28T19:26:06Z</time></trkpt>
   <trkpt lat="30.884888" lon="34.770782"><ele>477.1</ele><name>TP01105</name><time>2016-12-28T19:26:07Z</time></trkpt>
   <trkpt lat="30.884959" lon="34.770743"><ele>476.6</ele><name>TP01106</name><time>2016-12-28T19:26:08Z</time></trkpt>
   <trkpt lat="30.885033" lon="34.770709"><ele>476.2</ele><name>TP01107</name><time>2016-12-28T19:26:09Z</time></trkpt>
   <trkpt lat="30.8851" lon="34.770671"><ele>475.9</ele><name>TP01108</name><time>2016-12-28T19:26:10Z</time></trkpt>
   <trkpt lat="30.885167" lon="34.770647"><ele>475.5</ele><name>TP01109</name><time>2016-12-28T19:26:11Z</time></trkpt>
   <trkpt lat="30.885215" lon="34.770639"><ele>475.3</ele><name>TP01110</name><time>2016-12-28T19:26:12Z</time></trkpt>
   <trkpt lat="30.885245" lon="34.77067"><ele>475.3</ele><name>TP01111</name><time>2016-12-28T19:26:13Z</time></trkpt>
   <trkpt lat="30.88528" lon="34.77071"><ele>475.3</ele><name>TP01112</name><time>2016-12-28T19:26:14Z</time></trkpt>
   <trkpt lat="30.885322" lon="34.770758"><ele>475.2</ele><name>TP01113</name><time>2016-12-28T19:26:15Z</time></trkpt>
   <trkpt lat="30.885365" lon="34.770804"><ele>475.1</ele><name>TP01114</name><time>2016-12-28T19:26:16Z</time></trkpt>
   <trkpt lat="30.885407" lon="34.770856"><ele>475.1</ele><name>TP01115</name><time>2016-12-28T19:26:17Z</time></trkpt>
   <trkpt lat="30.885447" lon="34.770911"><ele>475.2</ele><name>TP01116</name><time>2016-12-28T19:26:18Z</time></trkpt>
   <trkpt lat="30.885486" lon="34.770976"><ele>475.4</ele><name>TP01117</name><time>2016-12-28T19:26:19Z</time></trkpt>
   <trkpt lat="30.885517" lon="34.771047"><ele>475.6</ele><name>TP01118</name><time>2016-12-28T19:26:20Z</time></trkpt>
   <trkpt lat="30.885521" lon="34.771123"><ele>475.9</ele><name>TP01119</name><time>2016-12-28T19:26:21Z</time></trkpt>
   <trkpt lat="30.885508" lon="34.771184"><ele>476</ele><name>TP01120</name><time>2016-12-28T19:26:22Z</time></trkpt>
   <trkpt lat="30.885483" lon="34.771239"><ele>476.1</ele><name>TP01121</name><time>2016-12-28T19:26:23Z</time></trkpt>
   <trkpt lat="30.885434" lon="34.771282"><ele>476.2</ele><name>TP01122</name><time>2016-12-28T19:26:24Z</time></trkpt>
   <trkpt lat="30.885386" lon="34.771316"><ele>476.4</ele><name>TP01123</name><time>2016-12-28T19:26:25Z</time></trkpt>
   <trkpt lat="30.885328" lon="34.77133"><ele>476.6</ele><name>TP01124</name><time>2016-12-28T19:26:26Z</time></trkpt>
   <trkpt lat="30.885271" lon="34.771344"><ele>476.9</ele><name>TP01125</name><time>2016-12-28T19:26:27Z</time></trkpt>
   <trkpt lat="30.885211" lon="34.771353"><ele>477.1</ele><name>TP01126</name><time>2016-12-28T19:26:28Z</time></trkpt>
   <trkpt lat="30.885153" lon="34.771358"><ele>477.3</ele><name>TP01127</name><time>2016-12-28T19:26:29Z</time></trkpt>
   <trkpt lat="30.885095" lon="34.771353"><ele>477.5</ele><name>TP01128</name><time>2016-12-28T19:26:30Z</time></trkpt>
   <trkpt lat="30.885033" lon="34.771346"><ele>477.8</ele><name>TP01129</name><time>2016-12-28T19:26:31Z</time></trkpt>
   <trkpt lat="30.884969" lon="34.771344"><ele>478</ele><name>TP01130</name><time>2016-12-28T19:26:32Z</time></trkpt>
   <trkpt lat="30.884906" lon="34.771361"><ele>478.2</ele><name>TP01131</name><time>2016-12-28T19:26:33Z</time></trkpt>
   <trkpt lat="30.88486" lon="34.771397"><ele>478.3</ele><name>TP01132</name><time>2016-12-28T19:26:34Z</time></trkpt>
   <trkpt lat="30.884846" lon="34.771448"><ele>478.2</ele><name>TP01133</name><time>2016-12-28T19:26:35Z</time></trkpt>
   <trkpt lat="30.884842" lon="34.771506"><ele>478</ele><name>TP01134</name><time>2016-12-28T19:26:36Z</time></trkpt>
   <trkpt lat="30.884832" lon="34.771561"><ele>477.8</ele><name>TP01135</name><time>2016-12-28T19:26:37Z</time></trkpt>
   <trkpt lat="30.884807" lon="34.771615"><ele>477.7</ele><name>TP01136</name><time>2016-12-28T19:26:38Z</time></trkpt>
   <trkpt lat="30.884769" lon="34.771659"><ele>477.5</ele><name>TP01137</name><time>2016-12-28T19:26:39Z</time></trkpt>
   <trkpt lat="30.884726" lon="34.771675"><ele>477.5</ele><name>TP01138</name><time>2016-12-28T19:26:40Z</time></trkpt>
   <trkpt lat="30.88468" lon="34.771672"><ele>477.5</ele><name>TP01139</name><time>2016-12-28T19:26:41Z</time></trkpt>
   <trkpt lat="30.884636" lon="34.771664"><ele>477.5</ele><name>TP01140</name><time>2016-12-28T19:26:42Z</time></trkpt>
   <trkpt lat="30.884584" lon="34.771663"><ele>477.5</ele><name>TP01141</name><time>2016-12-28T19:26:43Z</time></trkpt>
   <trkpt lat="30.88453" lon="34.771674"><ele>477.6</ele><name>TP01142</name><time>2016-12-28T19:26:44Z</time></trkpt>
   <trkpt lat="30.884468" lon="34.771682"><ele>477.7</ele><name>TP01143</name><time>2016-12-28T19:26:45Z</time></trkpt>
   <trkpt lat="30.884407" lon="34.771707"><ele>477.7</ele><name>TP01144</name><time>2016-12-28T19:26:46Z</time></trkpt>
   <trkpt lat="30.884343" lon="34.771727"><ele>477.7</ele><name>TP01145</name><time>2016-12-28T19:26:47Z</time></trkpt>
   <trkpt lat="30.884285" lon="34.77175"><ele>477.6</ele><name>TP01146</name><time>2016-12-28T19:26:48Z</time></trkpt>
   <trkpt lat="30.884226" lon="34.771781"><ele>477.6</ele><name>TP01147</name><time>2016-12-28T19:26:49Z</time></trkpt>
   <trkpt lat="30.884165" lon="34.771821"><ele>477.4</ele><name>TP01148</name><time>2016-12-28T19:26:50Z</time></trkpt>
   <trkpt lat="30.8841" lon="34.771869"><ele>477.2</ele><name>TP01149</name><time>2016-12-28T19:26:51Z</time></trkpt>
   <trkpt lat="30.884045" lon="34.771931"><ele>476.8</ele><name>TP01150</name><time>2016-12-28T19:26:52Z</time></trkpt>
   <trkpt lat="30.883998" lon="34.771999"><ele>476.4</ele><name>TP01151</name><time>2016-12-28T19:26:53Z</time></trkpt>
   <trkpt lat="30.883943" lon="34.772069"><ele>475.9</ele><name>TP01152</name><time>2016-12-28T19:26:54Z</time></trkpt>
   <trkpt lat="30.883877" lon="34.772117"><ele>475.5</ele><name>TP01153</name><time>2016-12-28T19:26:55Z</time></trkpt>
   <trkpt lat="30.883805" lon="34.77216"><ele>475.2</ele><name>TP01154</name><time>2016-12-28T19:26:56Z</time></trkpt>
   <trkpt lat="30.883729" lon="34.772189"><ele>475</ele><name>TP01155</name><time>2016-12-28T19:26:57Z</time></trkpt>
   <trkpt lat="30.883647" lon="34.772209"><ele>474.9</ele><name>TP01156</name><time>2016-12-28T19:26:58Z</time></trkpt>
   <trkpt lat="30.883573" lon="34.772243"><ele>474.6</ele><name>TP01157</name><time>2016-12-28T19:26:59Z</time></trkpt>
   <trkpt lat="30.883523" lon="34.772299"><ele>474.2</ele><name>TP01158</name><time>2016-12-28T19:27:00Z</time></trkpt>
   <trkpt lat="30.883511" lon="34.772362"><ele>473.7</ele><name>TP01159</name><time>2016-12-28T19:27:01Z</time></trkpt>
   <trkpt lat="30.883539" lon="34.772412"><ele>473.2</ele><name>TP01160</name><time>2016-12-28T19:27:02Z</time></trkpt>
   <trkpt lat="30.883568" lon="34.772457"><ele>472.8</ele><name>TP01161</name><time>2016-12-28T19:27:03Z</time></trkpt>
   <trkpt lat="30.88361" lon="34.772504"><ele>472.3</ele><name>TP01162</name><time>2016-12-28T19:27:04Z</time></trkpt>
   <trkpt lat="30.883645" lon="34.77256"><ele>471.7</ele><name>TP01163</name><time>2016-12-28T19:27:05Z</time></trkpt>
   <trkpt lat="30.88368" lon="34.772628"><ele>471</ele><name>TP01164</name><time>2016-12-28T19:27:06Z</time></trkpt>
   <trkpt lat="30.883703" lon="34.772702"><ele>470.2</ele><name>TP01165</name><time>2016-12-28T19:27:07Z</time></trkpt>
   <trkpt lat="30.883717" lon="34.77278"><ele>469.4</ele><name>TP01166</name><time>2016-12-28T19:27:08Z</time></trkpt>
   <trkpt lat="30.883741" lon="34.772849"><ele>468.7</ele><name>TP01167</name><time>2016-12-28T19:27:09Z</time></trkpt>
   <trkpt lat="30.883817" lon="34.772982"><ele>467.8</ele><name>TP01168</name><time>2016-12-28T19:27:11Z</time></trkpt>
   <trkpt lat="30.883853" lon="34.773051"><ele>467.6</ele><name>TP01169</name><time>2016-12-28T19:27:12Z</time></trkpt>
   <trkpt lat="30.883886" lon="34.773117"><ele>467.4</ele><name>TP01170</name><time>2016-12-28T19:27:13Z</time></trkpt>
   <trkpt lat="30.883923" lon="34.773185"><ele>467.1</ele><name>TP01171</name><time>2016-12-28T19:27:14Z</time></trkpt>
   <trkpt lat="30.883971" lon="34.773242"><ele>466.8</ele><name>TP01172</name><time>2016-12-28T19:27:15Z</time></trkpt>
   <trkpt lat="30.884023" lon="34.773292"><ele>466.5</ele><name>TP01173</name><time>2016-12-28T19:27:16Z</time></trkpt>
   <trkpt lat="30.884074" lon="34.773342"><ele>466.2</ele><name>TP01174</name><time>2016-12-28T19:27:17Z</time></trkpt>
   <trkpt lat="30.884129" lon="34.773383"><ele>465.9</ele><name>TP01175</name><time>2016-12-28T19:27:18Z</time></trkpt>
   <trkpt lat="30.884188" lon="34.77341"><ele>465.6</ele><name>TP01176</name><time>2016-12-28T19:27:19Z</time></trkpt>
   <trkpt lat="30.884252" lon="34.77344"><ele>465.2</ele><name>TP01177</name><time>2016-12-28T19:27:20Z</time></trkpt>
   <trkpt lat="30.884319" lon="34.773461"><ele>464.9</ele><name>TP01178</name><time>2016-12-28T19:27:21Z</time></trkpt>
   <trkpt lat="30.884389" lon="34.77348"><ele>464.6</ele><name>TP01179</name><time>2016-12-28T19:27:22Z</time></trkpt>
   <trkpt lat="30.884458" lon="34.773486"><ele>464.3</ele><name>TP01180</name><time>2016-12-28T19:27:23Z</time></trkpt>
   <trkpt lat="30.884524" lon="34.773479"><ele>464.1</ele><name>TP01181</name><time>2016-12-28T19:27:24Z</time></trkpt>
   <trkpt lat="30.884591" lon="34.773462"><ele>464.2</ele><name>TP01182</name><time>2016-12-28T19:27:25Z</time></trkpt>
   <trkpt lat="30.884657" lon="34.77345"><ele>465.1</ele><name>TP01183</name><time>2016-12-28T19:27:26Z</time></trkpt>
   <trkpt lat="30.884726" lon="34.773459"><ele>465.9</ele><name>TP01184</name><time>2016-12-28T19:27:27Z</time></trkpt>
   <trkpt lat="30.884797" lon="34.77347"><ele>466.8</ele><name>TP01185</name><time>2016-12-28T19:27:28Z</time></trkpt>
   <trkpt lat="30.884869" lon="34.773491"><ele>467.5</ele><name>TP01186</name><time>2016-12-28T19:27:29Z</time></trkpt>
   <trkpt lat="30.884938" lon="34.77354"><ele>468</ele><name>TP01187</name><time>2016-12-28T19:27:30Z</time></trkpt>
   <trkpt lat="30.884999" lon="34.773596"><ele>468.3</ele><name>TP01188</name><time>2016-12-28T19:27:31Z</time></trkpt>
   <trkpt lat="30.885059" lon="34.773663"><ele>468.5</ele><name>TP01189</name><time>2016-12-28T19:27:32Z</time></trkpt>
   <trkpt lat="30.885118" lon="34.773731"><ele>468.6</ele><name>TP01190</name><time>2016-12-28T19:27:33Z</time></trkpt>
   <trkpt lat="30.885172" lon="34.773808"><ele>468.4</ele><name>TP01191</name><time>2016-12-28T19:27:34Z</time></trkpt>
   <trkpt lat="30.885225" lon="34.773887"><ele>468</ele><name>TP01192</name><time>2016-12-28T19:27:35Z</time></trkpt>
   <trkpt lat="30.885259" lon="34.773969"><ele>467.4</ele><name>TP01193</name><time>2016-12-28T19:27:36Z</time></trkpt>
   <trkpt lat="30.885281" lon="34.774059"><ele>466.4</ele><name>TP01194</name><time>2016-12-28T19:27:37Z</time></trkpt>
   <trkpt lat="30.885299" lon="34.774151"><ele>465.4</ele><name>TP01195</name><time>2016-12-28T19:27:38Z</time></trkpt>
   <trkpt lat="30.885319" lon="34.774245"><ele>464.3</ele><name>TP01196</name><time>2016-12-28T19:27:39Z</time></trkpt>
   <trkpt lat="30.885339" lon="34.774336"><ele>463.2</ele><name>TP01197</name><time>2016-12-28T19:27:40Z</time></trkpt>
   <trkpt lat="30.885354" lon="34.77442"><ele>462.1</ele><name>TP01198</name><time>2016-12-28T19:27:41Z</time></trkpt>
   <trkpt lat="30.885363" lon="34.774502"><ele>461</ele><name>TP01199</name><time>2016-12-28T19:27:42Z</time></trkpt>
   <trkpt lat="30.885369" lon="34.774584"><ele>459.9</ele><name>TP01200</name><time>2016-12-28T19:27:43Z</time></trkpt>
   <trkpt lat="30.885375" lon="34.774665"><ele>459.4</ele><name>TP01201</name><time>2016-12-28T19:27:44Z</time></trkpt>
   <trkpt lat="30.885376" lon="34.774748"><ele>458.9</ele><name>TP01202</name><time>2016-12-28T19:27:45Z</time></trkpt>
   <trkpt lat="30.885372" lon="34.774825"><ele>458.5</ele><name>TP01203</name><time>2016-12-28T19:27:46Z</time></trkpt>
   <trkpt lat="30.885363" lon="34.774895"><ele>458</ele><name>TP01204</name><time>2016-12-28T19:27:47Z</time></trkpt>
   <trkpt lat="30.885347" lon="34.774953"><ele>457.7</ele><name>TP01205</name><time>2016-12-28T19:27:48Z</time></trkpt>
   <trkpt lat="30.885337" lon="34.775017"><ele>457.3</ele><name>TP01206</name><time>2016-12-28T19:27:49Z</time></trkpt>
   <trkpt lat="30.885334" lon="34.775077"><ele>456.9</ele><name>TP01207</name><time>2016-12-28T19:27:50Z</time></trkpt>
   <trkpt lat="30.885341" lon="34.775132"><ele>456.6</ele><name>TP01208</name><time>2016-12-28T19:27:51Z</time></trkpt>
   <trkpt lat="30.885355" lon="34.775175"><ele>456.4</ele><name>TP01209</name><time>2016-12-28T19:27:52Z</time></trkpt>
   <trkpt lat="30.88538" lon="34.775198"><ele>456.3</ele><name>TP01210</name><time>2016-12-28T19:27:53Z</time></trkpt>
   <trkpt lat="30.885412" lon="34.775192"><ele>456.3</ele><name>TP01211</name><time>2016-12-28T19:27:54Z</time></trkpt>
   <trkpt lat="30.885441" lon="34.775175"><ele>456.5</ele><name>TP01212</name><time>2016-12-28T19:27:55Z</time></trkpt>
   <trkpt lat="30.885482" lon="34.775167"><ele>456.6</ele><name>TP01213</name><time>2016-12-28T19:27:56Z</time></trkpt>
   <trkpt lat="30.885527" lon="34.775166"><ele>456.7</ele><name>TP01214</name><time>2016-12-28T19:27:57Z</time></trkpt>
   <trkpt lat="30.885567" lon="34.77516"><ele>456.8</ele><name>TP01215</name><time>2016-12-28T19:27:58Z</time></trkpt>
   <trkpt lat="30.885608" lon="34.775157"><ele>456.9</ele><name>TP01216</name><time>2016-12-28T19:27:59Z</time></trkpt>
   <trkpt lat="30.885654" lon="34.775153"><ele>457.1</ele><name>TP01217</name><time>2016-12-28T19:28:00Z</time></trkpt>
   <trkpt lat="30.885702" lon="34.775153"><ele>457.2</ele><name>TP01218</name><time>2016-12-28T19:28:01Z</time></trkpt>
   <trkpt lat="30.885751" lon="34.775154"><ele>457.3</ele><name>TP01219</name><time>2016-12-28T19:28:02Z</time></trkpt>
   <trkpt lat="30.885801" lon="34.775156"><ele>457.3</ele><name>TP01220</name><time>2016-12-28T19:28:03Z</time></trkpt>
   <trkpt lat="30.885852" lon="34.775154"><ele>457.5</ele><name>TP01221</name><time>2016-12-28T19:28:04Z</time></trkpt>
   <trkpt lat="30.885903" lon="34.775149"><ele>457.6</ele><name>TP01222</name><time>2016-12-28T19:28:05Z</time></trkpt>
   <trkpt lat="30.885956" lon="34.775141"><ele>457.7</ele><name>TP01223</name><time>2016-12-28T19:28:06Z</time></trkpt>
   <trkpt lat="30.88601" lon="34.775135"><ele>457.9</ele><name>TP01224</name><time>2016-12-28T19:28:07Z</time></trkpt>
   <trkpt lat="30.886066" lon="34.77513"><ele>458</ele><name>TP01225</name><time>2016-12-28T19:28:08Z</time></trkpt>
   <trkpt lat="30.886122" lon="34.775124"><ele>458.2</ele><name>TP01226</name><time>2016-12-28T19:28:09Z</time></trkpt>
   <trkpt lat="30.886178" lon="34.775122"><ele>458.3</ele><name>TP01227</name><time>2016-12-28T19:28:10Z</time></trkpt>
   <trkpt lat="30.886235" lon="34.775119"><ele>458.4</ele><name>TP01228</name><time>2016-12-28T19:28:11Z</time></trkpt>
   <trkpt lat="30.886289" lon="34.775119"><ele>458.4</ele><name>TP01229</name><time>2016-12-28T19:28:12Z</time></trkpt>
   <trkpt lat="30.886347" lon="34.775117"><ele>458.5</ele><name>TP01230</name><time>2016-12-28T19:28:13Z</time></trkpt>
   <trkpt lat="30.886404" lon="34.775116"><ele>458.5</ele><name>TP01231</name><time>2016-12-28T19:28:14Z</time></trkpt>
   <trkpt lat="30.88646" lon="34.775117"><ele>458.5</ele><name>TP01232</name><time>2016-12-28T19:28:15Z</time></trkpt>
   <trkpt lat="30.886518" lon="34.775114"><ele>458.6</ele><name>TP01233</name><time>2016-12-28T19:28:16Z</time></trkpt>
   <trkpt lat="30.886577" lon="34.775115"><ele>458.6</ele><name>TP01234</name><time>2016-12-28T19:28:17Z</time></trkpt>
   <trkpt lat="30.886635" lon="34.775114"><ele>458.7</ele><name>TP01235</name><time>2016-12-28T19:28:18Z</time></trkpt>
   <trkpt lat="30.886691" lon="34.775109"><ele>458.7</ele><name>TP01236</name><time>2016-12-28T19:28:19Z</time></trkpt>
   <trkpt lat="30.886748" lon="34.775101"><ele>458.8</ele><name>TP01237</name><time>2016-12-28T19:28:20Z</time></trkpt>
   <trkpt lat="30.886804" lon="34.775092"><ele>458.9</ele><name>TP01238</name><time>2016-12-28T19:28:21Z</time></trkpt>
   <trkpt lat="30.88686" lon="34.775077"><ele>459.1</ele><name>TP01239</name><time>2016-12-28T19:28:22Z</time></trkpt>
   <trkpt lat="30.886918" lon="34.775062"><ele>459.3</ele><name>TP01240</name><time>2016-12-28T19:28:23Z</time></trkpt>
   <trkpt lat="30.886983" lon="34.775057"><ele>459.4</ele><name>TP01241</name><time>2016-12-28T19:28:24Z</time></trkpt>
   <trkpt lat="30.887049" lon="34.775057"><ele>459.4</ele><name>TP01242</name><time>2016-12-28T19:28:25Z</time></trkpt>
   <trkpt lat="30.887112" lon="34.775052"><ele>459.4</ele><name>TP01243</name><time>2016-12-28T19:28:26Z</time></trkpt>
   <trkpt lat="30.887169" lon="34.775051"><ele>459.3</ele><name>TP01244</name><time>2016-12-28T19:28:27Z</time></trkpt>
   <trkpt lat="30.887227" lon="34.775052"><ele>459.1</ele><name>TP01245</name><time>2016-12-28T19:28:28Z</time></trkpt>
   <trkpt lat="30.88729" lon="34.775052"><ele>458.9</ele><name>TP01246</name><time>2016-12-28T19:28:29Z</time></trkpt>
   <trkpt lat="30.887353" lon="34.77505"><ele>458.8</ele><name>TP01247</name><time>2016-12-28T19:28:30Z</time></trkpt>
   <trkpt lat="30.887419" lon="34.775049"><ele>458.6</ele><name>TP01248</name><time>2016-12-28T19:28:31Z</time></trkpt>
   <trkpt lat="30.887485" lon="34.775044"><ele>458.4</ele><name>TP01249</name><time>2016-12-28T19:28:32Z</time></trkpt>
   <trkpt lat="30.887549" lon="34.775037"><ele>458.3</ele><name>TP01250</name><time>2016-12-28T19:28:33Z</time></trkpt>
   <trkpt lat="30.88761" lon="34.775037"><ele>458.1</ele><name>TP01251</name><time>2016-12-28T19:28:34Z</time></trkpt>
   <trkpt lat="30.887675" lon="34.775031"><ele>458</ele><name>TP01252</name><time>2016-12-28T19:28:35Z</time></trkpt>
   <trkpt lat="30.887739" lon="34.775025"><ele>457.9</ele><name>TP01253</name><time>2016-12-28T19:28:36Z</time></trkpt>
   <trkpt lat="30.887807" lon="34.775022"><ele>457.7</ele><name>TP01254</name><time>2016-12-28T19:28:37Z</time></trkpt>
   <trkpt lat="30.887867" lon="34.775017"><ele>457.5</ele><name>TP01255</name><time>2016-12-28T19:28:38Z</time></trkpt>
   <trkpt lat="30.887927" lon="34.775013"><ele>457.4</ele><name>TP01256</name><time>2016-12-28T19:28:39Z</time></trkpt>
   <trkpt lat="30.887992" lon="34.775015"><ele>457.6</ele><name>TP01257</name><time>2016-12-28T19:28:40Z</time></trkpt>
   <trkpt lat="30.888058" lon="34.775012"><ele>457.8</ele><name>TP01258</name><time>2016-12-28T19:28:41Z</time></trkpt>
   <trkpt lat="30.888121" lon="34.775008"><ele>457.9</ele><name>TP01259</name><time>2016-12-28T19:28:42Z</time></trkpt>
   <trkpt lat="30.888183" lon="34.775002"><ele>458.1</ele><name>TP01260</name><time>2016-12-28T19:28:43Z</time></trkpt>
   <trkpt lat="30.888247" lon="34.775001"><ele>458.3</ele><name>TP01261</name><time>2016-12-28T19:28:44Z</time></trkpt>
   <trkpt lat="30.888308" lon="34.77499"><ele>458.5</ele><name>TP01262</name><time>2016-12-28T19:28:45Z</time></trkpt>
   <trkpt lat="30.888372" lon="34.774973"><ele>458.8</ele><name>TP01263</name><time>2016-12-28T19:28:46Z</time></trkpt>
   <trkpt lat="30.888433" lon="34.774964"><ele>459.1</ele><name>TP01264</name><time>2016-12-28T19:28:47Z</time></trkpt>
   <trkpt lat="30.888496" lon="34.774955"><ele>459.3</ele><name>TP01265</name><time>2016-12-28T19:28:48Z</time></trkpt>
   <trkpt lat="30.888559" lon="34.774947"><ele>459.6</ele><name>TP01266</name><time>2016-12-28T19:28:49Z</time></trkpt>
   <trkpt lat="30.888625" lon="34.774938"><ele>459.8</ele><name>TP01267</name><time>2016-12-28T19:28:50Z</time></trkpt>
   <trkpt lat="30.888688" lon="34.774936"><ele>460</ele><name>TP01268</name><time>2016-12-28T19:28:51Z</time></trkpt>
   <trkpt lat="30.888753" lon="34.774925"><ele>460.3</ele><name>TP01269</name><time>2016-12-28T19:28:52Z</time></trkpt>
   <trkpt lat="30.888813" lon="34.774913"><ele>460.4</ele><name>TP01270</name><time>2016-12-28T19:28:53Z</time></trkpt>
   <trkpt lat="30.888879" lon="34.774899"><ele>460.5</ele><name>TP01271</name><time>2016-12-28T19:28:54Z</time></trkpt>
   <trkpt lat="30.888943" lon="34.774877"><ele>460.7</ele><name>TP01272</name><time>2016-12-28T19:28:55Z</time></trkpt>
   <trkpt lat="30.88901" lon="34.774861"><ele>460.9</ele><name>TP01273</name><time>2016-12-28T19:28:56Z</time></trkpt>
   <trkpt lat="30.889075" lon="34.774857"><ele>460.9</ele><name>TP01274</name><time>2016-12-28T19:28:57Z</time></trkpt>
   <trkpt lat="30.889142" lon="34.774845"><ele>461</ele><name>TP01275</name><time>2016-12-28T19:28:58Z</time></trkpt>
   <trkpt lat="30.889207" lon="34.774837"><ele>461.1</ele><name>TP01276</name><time>2016-12-28T19:28:59Z</time></trkpt>
   <trkpt lat="30.889272" lon="34.774831"><ele>461.1</ele><name>TP01277</name><time>2016-12-28T19:29:00Z</time></trkpt>
   <trkpt lat="30.889339" lon="34.774822"><ele>461.2</ele><name>TP01278</name><time>2016-12-28T19:29:01Z</time></trkpt>
   <trkpt lat="30.889402" lon="34.774817"><ele>461.3</ele><name>TP01279</name><time>2016-12-28T19:29:02Z</time></trkpt>
   <trkpt lat="30.889469" lon="34.774814"><ele>461.3</ele><name>TP01280</name><time>2016-12-28T19:29:03Z</time></trkpt>
   <trkpt lat="30.889531" lon="34.774806"><ele>461.3</ele><name>TP01281</name><time>2016-12-28T19:29:04Z</time></trkpt>
   <trkpt lat="30.889595" lon="34.774795"><ele>461.4</ele><name>TP01282</name><time>2016-12-28T19:29:05Z</time></trkpt>
   <trkpt lat="30.889659" lon="34.774787"><ele>461.3</ele><name>TP01283</name><time>2016-12-28T19:29:06Z</time></trkpt>
   <trkpt lat="30.889722" lon="34.774783"><ele>461.2</ele><name>TP01284</name><time>2016-12-28T19:29:07Z</time></trkpt>
   <trkpt lat="30.889782" lon="34.774781"><ele>461</ele><name>TP01285</name><time>2016-12-28T19:29:08Z</time></trkpt>
   <trkpt lat="30.889845" lon="34.774776"><ele>460.9</ele><name>TP01286</name><time>2016-12-28T19:29:09Z</time></trkpt>
   <trkpt lat="30.889968" lon="34.774774"><ele>460.5</ele><name>TP01287</name><time>2016-12-28T19:29:11Z</time></trkpt>
   <trkpt lat="30.890032" lon="34.774771"><ele>460.4</ele><name>TP01288</name><time>2016-12-28T19:29:12Z</time></trkpt>
   <trkpt lat="30.890091" lon="34.774765"><ele>460.3</ele><name>TP01289</name><time>2016-12-28T19:29:13Z</time></trkpt>
   <trkpt lat="30.890155" lon="34.774761"><ele>460.1</ele><name>TP01290</name><time>2016-12-28T19:29:14Z</time></trkpt>
   <trkpt lat="30.890213" lon="34.774754"><ele>460</ele><name>TP01291</name><time>2016-12-28T19:29:15Z</time></trkpt>
   <trkpt lat="30.89027" lon="34.774749"><ele>459.9</ele><name>TP01292</name><time>2016-12-28T19:29:16Z</time></trkpt>
   <trkpt lat="30.890329" lon="34.774738"><ele>459.8</ele><name>TP01293</name><time>2016-12-28T19:29:17Z</time></trkpt>
   <trkpt lat="30.890386" lon="34.774721"><ele>459.8</ele><name>TP01294</name><time>2016-12-28T19:29:18Z</time></trkpt>
   <trkpt lat="30.890445" lon="34.774708"><ele>459.7</ele><name>TP01295</name><time>2016-12-28T19:29:19Z</time></trkpt>
   <trkpt lat="30.890502" lon="34.774688"><ele>459.6</ele><name>TP01296</name><time>2016-12-28T19:29:20Z</time></trkpt>
   <trkpt lat="30.890562" lon="34.774674"><ele>459.5</ele><name>TP01297</name><time>2016-12-28T19:29:21Z</time></trkpt>
   <trkpt lat="30.890622" lon="34.774658"><ele>459.4</ele><name>TP01298</name><time>2016-12-28T19:29:22Z</time></trkpt>
   <trkpt lat="30.890681" lon="34.774642"><ele>459.2</ele><name>TP01299</name><time>2016-12-28T19:29:23Z</time></trkpt>
   <trkpt lat="30.890735" lon="34.774627"><ele>459.1</ele><name>TP01300</name><time>2016-12-28T19:29:24Z</time></trkpt>
   <trkpt lat="30.890796" lon="34.774605"><ele>459</ele><name>TP01301</name><time>2016-12-28T19:29:25Z</time></trkpt>
   <trkpt lat="30.890855" lon="34.774587"><ele>458.9</ele><name>TP01302</name><time>2016-12-28T19:29:26Z</time></trkpt>
   <trkpt lat="30.890915" lon="34.774572"><ele>458.7</ele><name>TP01303</name><time>2016-12-28T19:29:27Z</time></trkpt>
   <trkpt lat="30.890976" lon="34.774554"><ele>458.7</ele><name>TP01304</name><time>2016-12-28T19:29:28Z</time></trkpt>
   <trkpt lat="30.891039" lon="34.774542"><ele>458.5</ele><name>TP01305</name><time>2016-12-28T19:29:29Z</time></trkpt>
   <trkpt lat="30.891103" lon="34.774528"><ele>458.4</ele><name>TP01306</name><time>2016-12-28T19:29:30Z</time></trkpt>
   <trkpt lat="30.891167" lon="34.774512"><ele>458.3</ele><name>TP01307</name><time>2016-12-28T19:29:31Z</time></trkpt>
   <trkpt lat="30.891228" lon="34.774497"><ele>458.2</ele><name>TP01308</name><time>2016-12-28T19:29:32Z</time></trkpt>
   <trkpt lat="30.891289" lon="34.774474"><ele>458.3</ele><name>TP01309</name><time>2016-12-28T19:29:33Z</time></trkpt>
   <trkpt lat="30.891352" lon="34.774456"><ele>458.2</ele><name>TP01310</name><time>2016-12-28T19:29:34Z</time></trkpt>
   <trkpt lat="30.891409" lon="34.774434"><ele>458.2</ele><name>TP01311</name><time>2016-12-28T19:29:35Z</time></trkpt>
   <trkpt lat="30.891466" lon="34.774411"><ele>458.3</ele><name>TP01312</name><time>2016-12-28T19:29:36Z</time></trkpt>
   <trkpt lat="30.891522" lon="34.774383"><ele>458.4</ele><name>TP01313</name><time>2016-12-28T19:29:37Z</time></trkpt>
   <trkpt lat="30.891578" lon="34.774363"><ele>458.4</ele><name>TP01314</name><time>2016-12-28T19:29:38Z</time></trkpt>
   <trkpt lat="30.891631" lon="34.774339"><ele>458.5</ele><name>TP01315</name><time>2016-12-28T19:29:39Z</time></trkpt>
   <trkpt lat="30.891685" lon="34.774312"><ele>458.7</ele><name>TP01316</name><time>2016-12-28T19:29:40Z</time></trkpt>
   <trkpt lat="30.891737" lon="34.774286"><ele>458.8</ele><name>TP01317</name><time>2016-12-28T19:29:41Z</time></trkpt>
   <trkpt lat="30.891789" lon="34.774261"><ele>458.9</ele><name>TP01318</name><time>2016-12-28T19:29:42Z</time></trkpt>
   <trkpt lat="30.891844" lon="34.774243"><ele>458.9</ele><name>TP01319</name><time>2016-12-28T19:29:43Z</time></trkpt>
   <trkpt lat="30.891898" lon="34.774225"><ele>459</ele><name>TP01320</name><time>2016-12-28T19:29:44Z</time></trkpt>
   <trkpt lat="30.891954" lon="34.77421"><ele>458.9</ele><name>TP01321</name><time>2016-12-28T19:29:45Z</time></trkpt>
   <trkpt lat="30.89201" lon="34.774188"><ele>459</ele><name>TP01322</name><time>2016-12-28T19:29:46Z</time></trkpt>
   <trkpt lat="30.892066" lon="34.774168"><ele>459.1</ele><name>TP01323</name><time>2016-12-28T19:29:47Z</time></trkpt>
   <trkpt lat="30.892122" lon="34.774152"><ele>459.1</ele><name>TP01324</name><time>2016-12-28T19:29:48Z</time></trkpt>
   <trkpt lat="30.89218" lon="34.774145"><ele>459</ele><name>TP01325</name><time>2016-12-28T19:29:49Z</time></trkpt>
   <trkpt lat="30.892239" lon="34.774133"><ele>459</ele><name>TP01326</name><time>2016-12-28T19:29:50Z</time></trkpt>
   <trkpt lat="30.892295" lon="34.774122"><ele>458.9</ele><name>TP01327</name><time>2016-12-28T19:29:51Z</time></trkpt>
   <trkpt lat="30.892347" lon="34.774105"><ele>458.9</ele><name>TP01328</name><time>2016-12-28T19:29:52Z</time></trkpt>
   <trkpt lat="30.892402" lon="34.774089"><ele>458.9</ele><name>TP01329</name><time>2016-12-28T19:29:53Z</time></trkpt>
   <trkpt lat="30.892464" lon="34.774072"><ele>458.9</ele><name>TP01330</name><time>2016-12-28T19:29:54Z</time></trkpt>
   <trkpt lat="30.892516" lon="34.774055"><ele>458.8</ele><name>TP01331</name><time>2016-12-28T19:29:55Z</time></trkpt>
   <trkpt lat="30.892579" lon="34.774032"><ele>458.8</ele><name>TP01332</name><time>2016-12-28T19:29:56Z</time></trkpt>
   <trkpt lat="30.892637" lon="34.774012"><ele>458.7</ele><name>TP01333</name><time>2016-12-28T19:29:57Z</time></trkpt>
   <trkpt lat="30.892695" lon="34.773989"><ele>458.6</ele><name>TP01334</name><time>2016-12-28T19:29:58Z</time></trkpt>
   <trkpt lat="30.892756" lon="34.773968"><ele>458.5</ele><name>TP01335</name><time>2016-12-28T19:29:59Z</time></trkpt>
   <trkpt lat="30.892818" lon="34.773939"><ele>458.4</ele><name>TP01336</name><time>2016-12-28T19:30:00Z</time></trkpt>
   <trkpt lat="30.892879" lon="34.773906"><ele>458.3</ele><name>TP01337</name><time>2016-12-28T19:30:01Z</time></trkpt>
   <trkpt lat="30.892935" lon="34.773879"><ele>458.2</ele><name>TP01338</name><time>2016-12-28T19:30:02Z</time></trkpt>
   <trkpt lat="30.892989" lon="34.77385"><ele>458.2</ele><name>TP01339</name><time>2016-12-28T19:30:03Z</time></trkpt>
   <trkpt lat="30.893047" lon="34.773826"><ele>458.1</ele><name>TP01340</name><time>2016-12-28T19:30:04Z</time></trkpt>
   <trkpt lat="30.893107" lon="34.773805"><ele>458</ele><name>TP01341</name><time>2016-12-28T19:30:05Z</time></trkpt>
   <trkpt lat="30.89317" lon="34.773788"><ele>457.9</ele><name>TP01342</name><time>2016-12-28T19:30:06Z</time></trkpt>
   <trkpt lat="30.893233" lon="34.773765"><ele>457.8</ele><name>TP01343</name><time>2016-12-28T19:30:07Z</time></trkpt>
   <trkpt lat="30.893295" lon="34.773746"><ele>457.7</ele><name>TP01344</name><time>2016-12-28T19:30:08Z</time></trkpt>
   <trkpt lat="30.89336" lon="34.773728"><ele>457.6</ele><name>TP01345</name><time>2016-12-28T19:30:09Z</time></trkpt>
   <trkpt lat="30.893422" lon="34.773712"><ele>457.5</ele><name>TP01346</name><time>2016-12-28T19:30:10Z</time></trkpt>
   <trkpt lat="30.893483" lon="34.773689"><ele>457.5</ele><name>TP01347</name><time>2016-12-28T19:30:11Z</time></trkpt>
   <trkpt lat="30.893545" lon="34.773671"><ele>457.5</ele><name>TP01348</name><time>2016-12-28T19:30:12Z</time></trkpt>
   <trkpt lat="30.893611" lon="34.773653"><ele>457.4</ele><name>TP01349</name><time>2016-12-28T19:30:13Z</time></trkpt>
   <trkpt lat="30.893669" lon="34.773636"><ele>457.4</ele><name>TP01350</name><time>2016-12-28T19:30:14Z</time></trkpt>
   <trkpt lat="30.893727" lon="34.773616"><ele>457.4</ele><name>TP01351</name><time>2016-12-28T19:30:15Z</time></trkpt>
   <trkpt lat="30.893789" lon="34.773598"><ele>457.3</ele><name>TP01352</name><time>2016-12-28T19:30:16Z</time></trkpt>
   <trkpt lat="30.893845" lon="34.773572"><ele>457.3</ele><name>TP01353</name><time>2016-12-28T19:30:17Z</time></trkpt>
   <trkpt lat="30.893903" lon="34.77355"><ele>457.2</ele><name>TP01354</name><time>2016-12-28T19:30:18Z</time></trkpt>
   <trkpt lat="30.893959" lon="34.773533"><ele>457.1</ele><name>TP01355</name><time>2016-12-28T19:30:19Z</time></trkpt>
   <trkpt lat="30.894013" lon="34.77351"><ele>457</ele><name>TP01356</name><time>2016-12-28T19:30:20Z</time></trkpt>
   <trkpt lat="30.894067" lon="34.773494"><ele>456.9</ele><name>TP01357</name><time>2016-12-28T19:30:21Z</time></trkpt>
   <trkpt lat="30.894124" lon="34.773472"><ele>456.9</ele><name>TP01358</name><time>2016-12-28T19:30:22Z</time></trkpt>
   <trkpt lat="30.894179" lon="34.773451"><ele>456.8</ele><name>TP01359</name><time>2016-12-28T19:30:23Z</time></trkpt>
   <trkpt lat="30.894236" lon="34.773428"><ele>456.8</ele><name>TP01360</name><time>2016-12-28T19:30:24Z</time></trkpt>
   <trkpt lat="30.894295" lon="34.773411"><ele>456.6</ele><name>TP01361</name><time>2016-12-28T19:30:25Z</time></trkpt>
   <trkpt lat="30.89435" lon="34.773391"><ele>456.6</ele><name>TP01362</name><time>2016-12-28T19:30:26Z</time></trkpt>
   <trkpt lat="30.894406" lon="34.773366"><ele>456.5</ele><name>TP01363</name><time>2016-12-28T19:30:27Z</time></trkpt>
   <trkpt lat="30.89446" lon="34.773341"><ele>456.5</ele><name>TP01364</name><time>2016-12-28T19:30:28Z</time></trkpt>
   <trkpt lat="30.894517" lon="34.773318"><ele>456.5</ele><name>TP01365</name><time>2016-12-28T19:30:29Z</time></trkpt>
   <trkpt lat="30.894578" lon="34.773298"><ele>456.4</ele><name>TP01366</name><time>2016-12-28T19:30:30Z</time></trkpt>
   <trkpt lat="30.894638" lon="34.773276"><ele>456.2</ele><name>TP01367</name><time>2016-12-28T19:30:31Z</time></trkpt>
   <trkpt lat="30.8947" lon="34.773257"><ele>456</ele><name>TP01368</name><time>2016-12-28T19:30:32Z</time></trkpt>
   <trkpt lat="30.894761" lon="34.773232"><ele>455.9</ele><name>TP01369</name><time>2016-12-28T19:30:33Z</time></trkpt>
   <trkpt lat="30.894824" lon="34.773211"><ele>455.6</ele><name>TP01370</name><time>2016-12-28T19:30:34Z</time></trkpt>
   <trkpt lat="30.894887" lon="34.773193"><ele>455.4</ele><name>TP01371</name><time>2016-12-28T19:30:35Z</time></trkpt>
   <trkpt lat="30.894948" lon="34.773171"><ele>455.2</ele><name>TP01372</name><time>2016-12-28T19:30:36Z</time></trkpt>
   <trkpt lat="30.89501" lon="34.77315"><ele>455</ele><name>TP01373</name><time>2016-12-28T19:30:37Z</time></trkpt>
   <trkpt lat="30.89507" lon="34.773136"><ele>454.7</ele><name>TP01374</name><time>2016-12-28T19:30:38Z</time></trkpt>
   <trkpt lat="30.89513" lon="34.773121"><ele>454.4</ele><name>TP01375</name><time>2016-12-28T19:30:39Z</time></trkpt>
   <trkpt lat="30.895187" lon="34.773099"><ele>454.2</ele><name>TP01376</name><time>2016-12-28T19:30:40Z</time></trkpt>
   <trkpt lat="30.895244" lon="34.773081"><ele>454</ele><name>TP01377</name><time>2016-12-28T19:30:41Z</time></trkpt>
   <trkpt lat="30.895303" lon="34.773059"><ele>453.7</ele><name>TP01378</name><time>2016-12-28T19:30:42Z</time></trkpt>
   <trkpt lat="30.895364" lon="34.773036"><ele>453.5</ele><name>TP01379</name><time>2016-12-28T19:30:43Z</time></trkpt>
   <trkpt lat="30.895425" lon="34.773017"><ele>453.2</ele><name>TP01380</name><time>2016-12-28T19:30:44Z</time></trkpt>
   <trkpt lat="30.895485" lon="34.772999"><ele>452.7</ele><name>TP01381</name><time>2016-12-28T19:30:45Z</time></trkpt>
   <trkpt lat="30.895545" lon="34.772978"><ele>452.3</ele><name>TP01382</name><time>2016-12-28T19:30:46Z</time></trkpt>
   <trkpt lat="30.895605" lon="34.772952"><ele>451.8</ele><name>TP01383</name><time>2016-12-28T19:30:47Z</time></trkpt>
   <trkpt lat="30.895665" lon="34.772927"><ele>451.3</ele><name>TP01384</name><time>2016-12-28T19:30:48Z</time></trkpt>
   <trkpt lat="30.895728" lon="34.772897"><ele>450.9</ele><name>TP01385</name><time>2016-12-28T19:30:49Z</time></trkpt>
   <trkpt lat="30.895794" lon="34.772869"><ele>450.5</ele><name>TP01386</name><time>2016-12-28T19:30:50Z</time></trkpt>
   <trkpt lat="30.895856" lon="34.772844"><ele>450.1</ele><name>TP01387</name><time>2016-12-28T19:30:51Z</time></trkpt>
   <trkpt lat="30.895917" lon="34.772821"><ele>449.7</ele><name>TP01388</name><time>2016-12-28T19:30:52Z</time></trkpt>
   <trkpt lat="30.895978" lon="34.772798"><ele>449.3</ele><name>TP01389</name><time>2016-12-28T19:30:53Z</time></trkpt>
   <trkpt lat="30.896038" lon="34.772772"><ele>449</ele><name>TP01390</name><time>2016-12-28T19:30:54Z</time></trkpt>
   <trkpt lat="30.896101" lon="34.772746"><ele>448.6</ele><name>TP01391</name><time>2016-12-28T19:30:55Z</time></trkpt>
   <trkpt lat="30.896161" lon="34.772712"><ele>448.4</ele><name>TP01392</name><time>2016-12-28T19:30:56Z</time></trkpt>
   <trkpt lat="30.896223" lon="34.772677"><ele>448.2</ele><name>TP01393</name><time>2016-12-28T19:30:57Z</time></trkpt>
   <trkpt lat="30.896278" lon="34.772645"><ele>448.2</ele><name>TP01394</name><time>2016-12-28T19:30:58Z</time></trkpt>
   <trkpt lat="30.896335" lon="34.772621"><ele>448.3</ele><name>TP01395</name><time>2016-12-28T19:30:59Z</time></trkpt>
   <trkpt lat="30.896391" lon="34.77259"><ele>448.5</ele><name>TP01396</name><time>2016-12-28T19:31:00Z</time></trkpt>
   <trkpt lat="30.896447" lon="34.772562"><ele>448.6</ele><name>TP01397</name><time>2016-12-28T19:31:01Z</time></trkpt>
   <trkpt lat="30.896501" lon="34.772538"><ele>448.6</ele><name>TP01398</name><time>2016-12-28T19:31:02Z</time></trkpt>
   <trkpt lat="30.896558" lon="34.772512"><ele>448.6</ele><name>TP01399</name><time>2016-12-28T19:31:03Z</time></trkpt>
   <trkpt lat="30.896616" lon="34.772488"><ele>448.6</ele><name>TP01400</name><time>2016-12-28T19:31:04Z</time></trkpt>
   <trkpt lat="30.896676" lon="34.772468"><ele>448.5</ele><name>TP01401</name><time>2016-12-28T19:31:05Z</time></trkpt>
   <trkpt lat="30.896733" lon="34.772449"><ele>448.3</ele><name>TP01402</name><time>2016-12-28T19:31:06Z</time></trkpt>
   <trkpt lat="30.896793" lon="34.772429"><ele>448.2</ele><name>TP01403</name><time>2016-12-28T19:31:07Z</time></trkpt>
   <trkpt lat="30.89686" lon="34.772426"><ele>447.9</ele><name>TP01404</name><time>2016-12-28T19:31:08Z</time></trkpt>
   <trkpt lat="30.896932" lon="34.772424"><ele>447.5</ele><name>TP01405</name><time>2016-12-28T19:31:09Z</time></trkpt>
   <trkpt lat="30.89706" lon="34.772422"><ele>446.9</ele><name>TP01406</name><time>2016-12-28T19:31:11Z</time></trkpt>
   <trkpt lat="30.897119" lon="34.772419"><ele>446.9</ele><name>TP01407</name><time>2016-12-28T19:31:12Z</time></trkpt>
   <trkpt lat="30.897176" lon="34.772407"><ele>447</ele><name>TP01408</name><time>2016-12-28T19:31:13Z</time></trkpt>
   <trkpt lat="30.89723" lon="34.772385"><ele>447.2</ele><name>TP01409</name><time>2016-12-28T19:31:14Z</time></trkpt>
   <trkpt lat="30.897283" lon="34.77236"><ele>447.3</ele><name>TP01410</name><time>2016-12-28T19:31:15Z</time></trkpt>
   <trkpt lat="30.897329" lon="34.772332"><ele>447.4</ele><name>TP01411</name><time>2016-12-28T19:31:16Z</time></trkpt>
   <trkpt lat="30.897365" lon="34.772305"><ele>447.5</ele><name>TP01412</name><time>2016-12-28T19:31:17Z</time></trkpt>
   <trkpt lat="30.897401" lon="34.772262"><ele>447.5</ele><name>TP01413</name><time>2016-12-28T19:31:18Z</time></trkpt>
   <trkpt lat="30.897433" lon="34.772211"><ele>447.6</ele><name>TP01414</name><time>2016-12-28T19:31:19Z</time></trkpt>
   <trkpt lat="30.897468" lon="34.772163"><ele>447.6</ele><name>TP01415</name><time>2016-12-28T19:31:20Z</time></trkpt>
   <trkpt lat="30.897509" lon="34.772121"><ele>447.5</ele><name>TP01416</name><time>2016-12-28T19:31:21Z</time></trkpt>
   <trkpt lat="30.897554" lon="34.77208"><ele>447.5</ele><name>TP01417</name><time>2016-12-28T19:31:22Z</time></trkpt>
   <trkpt lat="30.897601" lon="34.772049"><ele>447.5</ele><name>TP01418</name><time>2016-12-28T19:31:23Z</time></trkpt>
   <trkpt lat="30.897647" lon="34.772013"><ele>447.6</ele><name>TP01419</name><time>2016-12-28T19:31:24Z</time></trkpt>
   <trkpt lat="30.897694" lon="34.771979"><ele>447.6</ele><name>TP01420</name><time>2016-12-28T19:31:25Z</time></trkpt>
   <trkpt lat="30.897742" lon="34.771941"><ele>447.6</ele><name>TP01421</name><time>2016-12-28T19:31:26Z</time></trkpt>
   <trkpt lat="30.89779" lon="34.771904"><ele>447.5</ele><name>TP01422</name><time>2016-12-28T19:31:27Z</time></trkpt>
   <trkpt lat="30.897838" lon="34.771871"><ele>447.3</ele><name>TP01423</name><time>2016-12-28T19:31:28Z</time></trkpt>
   <trkpt lat="30.897887" lon="34.771825"><ele>447.1</ele><name>TP01424</name><time>2016-12-28T19:31:29Z</time></trkpt>
   <trkpt lat="30.897931" lon="34.77178"><ele>447</ele><name>TP01425</name><time>2016-12-28T19:31:30Z</time></trkpt>
   <trkpt lat="30.897975" lon="34.771734"><ele>446.9</ele><name>TP01426</name><time>2016-12-28T19:31:31Z</time></trkpt>
   <trkpt lat="30.898018" lon="34.771687"><ele>446.9</ele><name>TP01427</name><time>2016-12-28T19:31:32Z</time></trkpt>
   <trkpt lat="30.898064" lon="34.771639"><ele>446.8</ele><name>TP01428</name><time>2016-12-28T19:31:33Z</time></trkpt>
   <trkpt lat="30.898109" lon="34.771594"><ele>446.8</ele><name>TP01429</name><time>2016-12-28T19:31:34Z</time></trkpt>
   <trkpt lat="30.898157" lon="34.771556"><ele>446.7</ele><name>TP01430</name><time>2016-12-28T19:31:35Z</time></trkpt>
   <trkpt lat="30.898202" lon="34.771508"><ele>446.7</ele><name>TP01431</name><time>2016-12-28T19:31:36Z</time></trkpt>
   <trkpt lat="30.898249" lon="34.771462"><ele>446.6</ele><name>TP01432</name><time>2016-12-28T19:31:37Z</time></trkpt>
   <trkpt lat="30.898295" lon="34.771417"><ele>446.5</ele><name>TP01433</name><time>2016-12-28T19:31:38Z</time></trkpt>
   <trkpt lat="30.898343" lon="34.771375"><ele>446.5</ele><name>TP01434</name><time>2016-12-28T19:31:39Z</time></trkpt>
   <trkpt lat="30.89839" lon="34.771333"><ele>446.4</ele><name>TP01435</name><time>2016-12-28T19:31:40Z</time></trkpt>
   <trkpt lat="30.898438" lon="34.77129"><ele>446.4</ele><name>TP01436</name><time>2016-12-28T19:31:41Z</time></trkpt>
   <trkpt lat="30.898486" lon="34.771253"><ele>446.3</ele><name>TP01437</name><time>2016-12-28T19:31:42Z</time></trkpt>
   <trkpt lat="30.898538" lon="34.771215"><ele>446.3</ele><name>TP01438</name><time>2016-12-28T19:31:43Z</time></trkpt>
   <trkpt lat="30.898586" lon="34.771177"><ele>446.3</ele><name>TP01439</name><time>2016-12-28T19:31:44Z</time></trkpt>
   <trkpt lat="30.898637" lon="34.771135"><ele>446.2</ele><name>TP01440</name><time>2016-12-28T19:31:45Z</time></trkpt>
   <trkpt lat="30.898687" lon="34.771091"><ele>446.2</ele><name>TP01441</name><time>2016-12-28T19:31:46Z</time></trkpt>
   <trkpt lat="30.898739" lon="34.77105"><ele>446</ele><name>TP01442</name><time>2016-12-28T19:31:47Z</time></trkpt>
   <trkpt lat="30.898792" lon="34.771007"><ele>446</ele><name>TP01443</name><time>2016-12-28T19:31:48Z</time></trkpt>
   <trkpt lat="30.898841" lon="34.770964"><ele>446</ele><name>TP01444</name><time>2016-12-28T19:31:49Z</time></trkpt>
   <trkpt lat="30.898888" lon="34.77092"><ele>446</ele><name>TP01445</name><time>2016-12-28T19:31:50Z</time></trkpt>
   <trkpt lat="30.898938" lon="34.770881"><ele>446</ele><name>TP01446</name><time>2016-12-28T19:31:51Z</time></trkpt>
   <trkpt lat="30.898986" lon="34.77084"><ele>446</ele><name>TP01447</name><time>2016-12-28T19:31:52Z</time></trkpt>
   <trkpt lat="30.899035" lon="34.770793"><ele>446</ele><name>TP01448</name><time>2016-12-28T19:31:53Z</time></trkpt>
   <trkpt lat="30.899082" lon="34.770748"><ele>446.1</ele><name>TP01449</name><time>2016-12-28T19:31:54Z</time></trkpt>
   <trkpt lat="30.899128" lon="34.770699"><ele>446.1</ele><name>TP01450</name><time>2016-12-28T19:31:55Z</time></trkpt>
   <trkpt lat="30.899177" lon="34.770648"><ele>446.2</ele><name>TP01451</name><time>2016-12-28T19:31:56Z</time></trkpt>
   <trkpt lat="30.899225" lon="34.770601"><ele>446.3</ele><name>TP01452</name><time>2016-12-28T19:31:57Z</time></trkpt>
   <trkpt lat="30.899267" lon="34.770554"><ele>446.4</ele><name>TP01453</name><time>2016-12-28T19:31:58Z</time></trkpt>
   <trkpt lat="30.899312" lon="34.770503"><ele>446.5</ele><name>TP01454</name><time>2016-12-28T19:31:59Z</time></trkpt>
   <trkpt lat="30.899361" lon="34.770459"><ele>446.7</ele><name>TP01455</name><time>2016-12-28T19:32:00Z</time></trkpt>
   <trkpt lat="30.899407" lon="34.770405"><ele>446.8</ele><name>TP01456</name><time>2016-12-28T19:32:01Z</time></trkpt>
   <trkpt lat="30.899452" lon="34.770358"><ele>446.9</ele><name>TP01457</name><time>2016-12-28T19:32:02Z</time></trkpt>
   <trkpt lat="30.899496" lon="34.770307"><ele>447</ele><name>TP01458</name><time>2016-12-28T19:32:03Z</time></trkpt>
   <trkpt lat="30.899541" lon="34.770252"><ele>447</ele><name>TP01459</name><time>2016-12-28T19:32:04Z</time></trkpt>
   <trkpt lat="30.89958" lon="34.770192"><ele>447</ele><name>TP01460</name><time>2016-12-28T19:32:05Z</time></trkpt>
   <trkpt lat="30.899619" lon="34.770131"><ele>447</ele><name>TP01461</name><time>2016-12-28T19:32:06Z</time></trkpt>
   <trkpt lat="30.899655" lon="34.770074"><ele>447</ele><name>TP01462</name><time>2016-12-28T19:32:07Z</time></trkpt>
   <trkpt lat="30.899693" lon="34.770021"><ele>446.9</ele><name>TP01463</name><time>2016-12-28T19:32:08Z</time></trkpt>
   <trkpt lat="30.899734" lon="34.76997"><ele>446.9</ele><name>TP01464</name><time>2016-12-28T19:32:09Z</time></trkpt>
   <trkpt lat="30.899783" lon="34.769924"><ele>446.9</ele><name>TP01465</name><time>2016-12-28T19:32:10Z</time></trkpt>
   <trkpt lat="30.899832" lon="34.769873"><ele>446.8</ele><name>TP01466</name><time>2016-12-28T19:32:11Z</time></trkpt>
   <trkpt lat="30.899883" lon="34.769832"><ele>446.7</ele><name>TP01467</name><time>2016-12-28T19:32:12Z</time></trkpt>
   <trkpt lat="30.899934" lon="34.769789"><ele>446.7</ele><name>TP01468</name><time>2016-12-28T19:32:13Z</time></trkpt>
   <trkpt lat="30.899987" lon="34.769746"><ele>446.6</ele><name>TP01469</name><time>2016-12-28T19:32:14Z</time></trkpt>
   <trkpt lat="30.900034" lon="34.769699"><ele>446.5</ele><name>TP01470</name><time>2016-12-28T19:32:15Z</time></trkpt>
   <trkpt lat="30.900075" lon="34.769642"><ele>446.5</ele><name>TP01471</name><time>2016-12-28T19:32:16Z</time></trkpt>
   <trkpt lat="30.900106" lon="34.769582"><ele>446.4</ele><name>TP01472</name><time>2016-12-28T19:32:17Z</time></trkpt>
   <trkpt lat="30.900132" lon="34.769524"><ele>446.3</ele><name>TP01473</name><time>2016-12-28T19:32:18Z</time></trkpt>
   <trkpt lat="30.90015" lon="34.769469"><ele>446.2</ele><name>TP01474</name><time>2016-12-28T19:32:19Z</time></trkpt>
   <trkpt lat="30.900162" lon="34.76941"><ele>446.2</ele><name>TP01475</name><time>2016-12-28T19:32:20Z</time></trkpt>
   <trkpt lat="30.900185" lon="34.769354"><ele>446.1</ele><name>TP01476</name><time>2016-12-28T19:32:21Z</time></trkpt>
   <trkpt lat="30.900207" lon="34.7693"><ele>446</ele><name>TP01477</name><time>2016-12-28T19:32:22Z</time></trkpt>
   <trkpt lat="30.900234" lon="34.769246"><ele>445.9</ele><name>TP01478</name><time>2016-12-28T19:32:23Z</time></trkpt>
   <trkpt lat="30.900262" lon="34.769204"><ele>445.8</ele><name>TP01479</name><time>2016-12-28T19:32:24Z</time></trkpt>
   <trkpt lat="30.900295" lon="34.769165"><ele>445.7</ele><name>TP01480</name><time>2016-12-28T19:32:25Z</time></trkpt>
   <trkpt lat="30.90033" lon="34.769134"><ele>445.6</ele><name>TP01481</name><time>2016-12-28T19:32:26Z</time></trkpt>
   <trkpt lat="30.900371" lon="34.769114"><ele>445.5</ele><name>TP01482</name><time>2016-12-28T19:32:27Z</time></trkpt>
   <trkpt lat="30.900412" lon="34.769094"><ele>445.4</ele><name>TP01483</name><time>2016-12-28T19:32:28Z</time></trkpt>
   <trkpt lat="30.900459" lon="34.76907"><ele>445.3</ele><name>TP01484</name><time>2016-12-28T19:32:29Z</time></trkpt>
   <trkpt lat="30.9005" lon="34.769037"><ele>445.2</ele><name>TP01485</name><time>2016-12-28T19:32:30Z</time></trkpt>
   <trkpt lat="30.900537" lon="34.769006"><ele>445.2</ele><name>TP01486</name><time>2016-12-28T19:32:31Z</time></trkpt>
   <trkpt lat="30.900572" lon="34.768969"><ele>445.1</ele><name>TP01487</name><time>2016-12-28T19:32:32Z</time></trkpt>
   <trkpt lat="30.900609" lon="34.768934"><ele>445.1</ele><name>TP01488</name><time>2016-12-28T19:32:33Z</time></trkpt>
   <trkpt lat="30.900648" lon="34.768901"><ele>445</ele><name>TP01489</name><time>2016-12-28T19:32:34Z</time></trkpt>
   <trkpt lat="30.900691" lon="34.768866"><ele>445</ele><name>TP01490</name><time>2016-12-28T19:32:35Z</time></trkpt>
   <trkpt lat="30.900729" lon="34.768839"><ele>445</ele><name>TP01491</name><time>2016-12-28T19:32:36Z</time></trkpt>
   <trkpt lat="30.90077" lon="34.768805"><ele>445</ele><name>TP01492</name><time>2016-12-28T19:32:37Z</time></trkpt>
   <trkpt lat="30.900812" lon="34.768775"><ele>445</ele><name>TP01493</name><time>2016-12-28T19:32:38Z</time></trkpt>
   <trkpt lat="30.900854" lon="34.768752"><ele>445</ele><name>TP01494</name><time>2016-12-28T19:32:39Z</time></trkpt>
   <trkpt lat="30.900896" lon="34.768736"><ele>445</ele><name>TP01495</name><time>2016-12-28T19:32:40Z</time></trkpt>
   <trkpt lat="30.900938" lon="34.768727"><ele>445</ele><name>TP01496</name><time>2016-12-28T19:32:41Z</time></trkpt>
   <trkpt lat="30.900978" lon="34.768731"><ele>445</ele><name>TP01497</name><time>2016-12-28T19:32:42Z</time></trkpt>
   <trkpt lat="30.901018" lon="34.768739"><ele>445</ele><name>TP01498</name><time>2016-12-28T19:32:43Z</time></trkpt>
   <trkpt lat="30.901056" lon="34.768748"><ele>445</ele><name>TP01499</name><time>2016-12-28T19:32:44Z</time></trkpt>
   <trkpt lat="30.901098" lon="34.76876"><ele>445</ele><name>TP01500</name><time>2016-12-28T19:32:45Z</time></trkpt>
   <trkpt lat="30.901137" lon="34.768773"><ele>445</ele><name>TP01501</name><time>2016-12-28T19:32:46Z</time></trkpt>
   <trkpt lat="30.901176" lon="34.768789"><ele>444.9</ele><name>TP01502</name><time>2016-12-28T19:32:47Z</time></trkpt>
   <trkpt lat="30.901202" lon="34.768802"><ele>444.9</ele><name>TP01503</name><time>2016-12-28T19:32:48Z</time></trkpt>
   <trkpt lat="30.901297" lon="34.768813"><ele>444.6</ele><name>TP01504</name><time>2016-12-28T19:32:53Z</time></trkpt>
   <trkpt lat="30.901327" lon="34.768809"><ele>444.5</ele><name>TP01505</name><time>2016-12-28T19:32:54Z</time></trkpt>
   <trkpt lat="30.901386" lon="34.768797"><ele>444.3</ele><name>TP01506</name><time>2016-12-28T19:32:55Z</time></trkpt>
   <trkpt lat="30.901448" lon="34.768784"><ele>444</ele><name>TP01507</name><time>2016-12-28T19:32:56Z</time></trkpt>
   <trkpt lat="30.90151" lon="34.768768"><ele>443.7</ele><name>TP01508</name><time>2016-12-28T19:32:57Z</time></trkpt>
   <trkpt lat="30.901572" lon="34.768748"><ele>443.5</ele><name>TP01509</name><time>2016-12-28T19:32:58Z</time></trkpt>
   <trkpt lat="30.901679" lon="34.768734"><ele>443</ele><name>TP01510</name><time>2016-12-28T19:32:59Z</time></trkpt>
   <trkpt lat="30.901836" lon="34.768717"><ele>442.2</ele><name>TP01511</name><time>2016-12-28T19:33:01Z</time></trkpt>
   <trkpt lat="30.901883" lon="34.768689"><ele>442.1</ele><name>TP01512</name><time>2016-12-28T19:33:02Z</time></trkpt>
   <trkpt lat="30.901933" lon="34.768656"><ele>441.9</ele><name>TP01513</name><time>2016-12-28T19:33:03Z</time></trkpt>
   <trkpt lat="30.901979" lon="34.768622"><ele>441.8</ele><name>TP01514</name><time>2016-12-28T19:33:04Z</time></trkpt>
   <trkpt lat="30.902026" lon="34.768585"><ele>441.6</ele><name>TP01515</name><time>2016-12-28T19:33:05Z</time></trkpt>
   <trkpt lat="30.902073" lon="34.768551"><ele>441.5</ele><name>TP01516</name><time>2016-12-28T19:33:06Z</time></trkpt>
   <trkpt lat="30.902121" lon="34.768512"><ele>441.6</ele><name>TP01517</name><time>2016-12-28T19:33:07Z</time></trkpt>
   <trkpt lat="30.902168" lon="34.768471"><ele>441.7</ele><name>TP01518</name><time>2016-12-28T19:33:08Z</time></trkpt>
   <trkpt lat="30.902215" lon="34.768432"><ele>441.8</ele><name>TP01519</name><time>2016-12-28T19:33:09Z</time></trkpt>
   <trkpt lat="30.902262" lon="34.768405"><ele>441.9</ele><name>TP01520</name><time>2016-12-28T19:33:10Z</time></trkpt>
   <trkpt lat="30.902359" lon="34.768332"><ele>442</ele><name>TP01521</name><time>2016-12-28T19:33:12Z</time></trkpt>
   <trkpt lat="30.902407" lon="34.7683"><ele>442</ele><name>TP01522</name><time>2016-12-28T19:33:13Z</time></trkpt>
   <trkpt lat="30.902456" lon="34.768275"><ele>442.1</ele><name>TP01523</name><time>2016-12-28T19:33:14Z</time></trkpt>
   <trkpt lat="30.902503" lon="34.768243"><ele>442.1</ele><name>TP01524</name><time>2016-12-28T19:33:15Z</time></trkpt>
   <trkpt lat="30.902552" lon="34.768202"><ele>442.1</ele><name>TP01525</name><time>2016-12-28T19:33:16Z</time></trkpt>
   <trkpt lat="30.902594" lon="34.768164"><ele>442.2</ele><name>TP01526</name><time>2016-12-28T19:33:17Z</time></trkpt>
   <trkpt lat="30.902637" lon="34.768123"><ele>442.2</ele><name>TP01527</name><time>2016-12-28T19:33:18Z</time></trkpt>
   <trkpt lat="30.902677" lon="34.768083"><ele>442.2</ele><name>TP01528</name><time>2016-12-28T19:33:19Z</time></trkpt>
   <trkpt lat="30.902718" lon="34.768046"><ele>442.2</ele><name>TP01529</name><time>2016-12-28T19:33:20Z</time></trkpt>
   <trkpt lat="30.902758" lon="34.767999"><ele>442.2</ele><name>TP01530</name><time>2016-12-28T19:33:21Z</time></trkpt>
   <trkpt lat="30.902798" lon="34.767955"><ele>442.1</ele><name>TP01531</name><time>2016-12-28T19:33:22Z</time></trkpt>
   <trkpt lat="30.90284" lon="34.767913"><ele>442.1</ele><name>TP01532</name><time>2016-12-28T19:33:23Z</time></trkpt>
   <trkpt lat="30.902878" lon="34.767871"><ele>441.9</ele><name>TP01533</name><time>2016-12-28T19:33:24Z</time></trkpt>
   <trkpt lat="30.902916" lon="34.767825"><ele>441.8</ele><name>TP01534</name><time>2016-12-28T19:33:25Z</time></trkpt>
   <trkpt lat="30.902951" lon="34.76778"><ele>441.7</ele><name>TP01535</name><time>2016-12-28T19:33:26Z</time></trkpt>
   <trkpt lat="30.90299" lon="34.767745"><ele>441.6</ele><name>TP01536</name><time>2016-12-28T19:33:27Z</time></trkpt>
   <trkpt lat="30.903027" lon="34.76771"><ele>441.5</ele><name>TP01537</name><time>2016-12-28T19:33:28Z</time></trkpt>
   <trkpt lat="30.903067" lon="34.767678"><ele>441.4</ele><name>TP01538</name><time>2016-12-28T19:33:29Z</time></trkpt>
   <trkpt lat="30.903105" lon="34.767652"><ele>441.4</ele><name>TP01539</name><time>2016-12-28T19:33:30Z</time></trkpt>
   <trkpt lat="30.903139" lon="34.767631"><ele>441.3</ele><name>TP01540</name><time>2016-12-28T19:33:31Z</time></trkpt>
   <trkpt lat="30.90316" lon="34.767607"><ele>441.3</ele><name>TP01541</name><time>2016-12-28T19:33:32Z</time></trkpt>
   <trkpt lat="30.903167" lon="34.767544"><ele>441.1</ele><name>TP01542</name><time>2016-12-28T19:33:34Z</time></trkpt>
   <trkpt lat="30.903155" lon="34.767497"><ele>441</ele><name>TP01543</name><time>2016-12-28T19:33:35Z</time></trkpt>
   <trkpt lat="30.903146" lon="34.767447"><ele>440.9</ele><name>TP01544</name><time>2016-12-28T19:33:36Z</time></trkpt>
   <trkpt lat="30.903139" lon="34.7674"><ele>440.8</ele><name>TP01545</name><time>2016-12-28T19:33:37Z</time></trkpt>
   <trkpt lat="30.903131" lon="34.767356"><ele>440.7</ele><name>TP01546</name><time>2016-12-28T19:33:38Z</time></trkpt>
   <trkpt lat="30.903124" lon="34.767309"><ele>440.5</ele><name>TP01547</name><time>2016-12-28T19:33:39Z</time></trkpt>
   <trkpt lat="30.903114" lon="34.767272"><ele>440.5</ele><name>TP01548</name><time>2016-12-28T19:33:41Z</time></trkpt>
   <trkpt lat="30.90311" lon="34.767236"><ele>440.4</ele><name>TP01549</name><time>2016-12-28T19:33:42Z</time></trkpt>
   <trkpt lat="30.90311" lon="34.767173"><ele>440.2</ele><name>TP01550</name><time>2016-12-28T19:33:43Z</time></trkpt>
   <trkpt lat="30.903122" lon="34.767113"><ele>440.1</ele><name>TP01551</name><time>2016-12-28T19:33:44Z</time></trkpt>
   <trkpt lat="30.903158" lon="34.767057"><ele>440.1</ele><name>TP01552</name><time>2016-12-28T19:33:45Z</time></trkpt>
   <trkpt lat="30.903239" lon="34.766986"><ele>440.2</ele><name>TP01553</name><time>2016-12-28T19:33:47Z</time></trkpt>
   <trkpt lat="30.903284" lon="34.766998"><ele>440.2</ele><name>TP01554</name><time>2016-12-28T19:33:48Z</time></trkpt>
   <trkpt lat="30.903321" lon="34.767018"><ele>440.2</ele><name>TP01555</name><time>2016-12-28T19:33:49Z</time></trkpt>
   <trkpt lat="30.903357" lon="34.76704"><ele>440.1</ele><name>TP01556</name><time>2016-12-28T19:33:50Z</time></trkpt>
   <trkpt lat="30.903395" lon="34.76706"><ele>440.1</ele><name>TP01557</name><time>2016-12-28T19:33:51Z</time></trkpt>
   <trkpt lat="30.903434" lon="34.767073"><ele>440</ele><name>TP01558</name><time>2016-12-28T19:33:52Z</time></trkpt>
   <trkpt lat="30.903474" lon="34.767084"><ele>440</ele><name>TP01559</name><time>2016-12-28T19:33:53Z</time></trkpt>
   <trkpt lat="30.903513" lon="34.767087"><ele>440</ele><name>TP01560</name><time>2016-12-28T19:33:54Z</time></trkpt>
   <trkpt lat="30.903553" lon="34.767085"><ele>440</ele><name>TP01561</name><time>2016-12-28T19:33:55Z</time></trkpt>
   <trkpt lat="30.903594" lon="34.767078"><ele>440</ele><name>TP01562</name><time>2016-12-28T19:33:56Z</time></trkpt>
   <trkpt lat="30.903626" lon="34.767059"><ele>440.1</ele><name>TP01563</name><time>2016-12-28T19:33:59Z</time></trkpt>
   <trkpt lat="30.903668" lon="34.767032"><ele>440.1</ele><name>TP01564</name><time>2016-12-28T19:34:01Z</time></trkpt>
   <trkpt lat="30.903715" lon="34.766999"><ele>440.2</ele><name>TP01565</name><time>2016-12-28T19:34:02Z</time></trkpt>
   <trkpt lat="30.903758" lon="34.766973"><ele>440.3</ele><name>TP01566</name><time>2016-12-28T19:34:03Z</time></trkpt>
   <trkpt lat="30.903828" lon="34.766946"><ele>440.9</ele><name>TP01567</name><time>2016-12-28T19:34:05Z</time></trkpt>
   <trkpt lat="30.903891" lon="34.766926"><ele>441.4</ele><name>TP01568</name><time>2016-12-28T19:34:06Z</time></trkpt>
   <trkpt lat="30.903951" lon="34.766905"><ele>441.9</ele><name>TP01569</name><time>2016-12-28T19:34:07Z</time></trkpt>
   <trkpt lat="30.904058" lon="34.766863"><ele>442.6</ele><name>TP01570</name><time>2016-12-28T19:34:08Z</time></trkpt>
   <trkpt lat="30.904211" lon="34.766817"><ele>443.6</ele><name>TP01571</name><time>2016-12-28T19:34:10Z</time></trkpt>
   <trkpt lat="30.904258" lon="34.766796"><ele>443.9</ele><name>TP01572</name><time>2016-12-28T19:34:11Z</time></trkpt>
   <trkpt lat="30.904294" lon="34.766764"><ele>444.1</ele><name>TP01573</name><time>2016-12-28T19:34:12Z</time></trkpt>
   <trkpt lat="30.904311" lon="34.766719"><ele>444.1</ele><name>TP01574</name><time>2016-12-28T19:34:13Z</time></trkpt>
   <trkpt lat="30.904323" lon="34.766667"><ele>444.1</ele><name>TP01575</name><time>2016-12-28T19:34:14Z</time></trkpt>
   <trkpt lat="30.904353" lon="34.766625"><ele>444.2</ele><name>TP01576</name><time>2016-12-28T19:34:15Z</time></trkpt>
   <trkpt lat="30.904384" lon="34.766596"><ele>444.3</ele><name>TP01577</name><time>2016-12-28T19:34:16Z</time></trkpt>
   <trkpt lat="30.904419" lon="34.76657"><ele>444.4</ele><name>TP01578</name><time>2016-12-28T19:34:17Z</time></trkpt>
   <trkpt lat="30.904451" lon="34.766548"><ele>444.5</ele><name>TP01579</name><time>2016-12-28T19:34:18Z</time></trkpt>
   <trkpt lat="30.904481" lon="34.766518"><ele>444.5</ele><name>TP01580</name><time>2016-12-28T19:34:19Z</time></trkpt>
   <trkpt lat="30.904515" lon="34.766482"><ele>444.6</ele><name>TP01581</name><time>2016-12-28T19:34:20Z</time></trkpt>
   <trkpt lat="30.904551" lon="34.766454"><ele>444.6</ele><name>TP01582</name><time>2016-12-28T19:34:21Z</time></trkpt>
   <trkpt lat="30.904591" lon="34.76643"><ele>444.7</ele><name>TP01583</name><time>2016-12-28T19:34:22Z</time></trkpt>
   <trkpt lat="30.904635" lon="34.766401"><ele>444.7</ele><name>TP01584</name><time>2016-12-28T19:34:23Z</time></trkpt>
   <trkpt lat="30.904677" lon="34.766369"><ele>444.7</ele><name>TP01585</name><time>2016-12-28T19:34:24Z</time></trkpt>
   <trkpt lat="30.904715" lon="34.766342"><ele>444.8</ele><name>TP01586</name><time>2016-12-28T19:34:25Z</time></trkpt>
   <trkpt lat="30.90475" lon="34.766303"><ele>444.8</ele><name>TP01587</name><time>2016-12-28T19:34:26Z</time></trkpt>
   <trkpt lat="30.904788" lon="34.766264"><ele>444.8</ele><name>TP01588</name><time>2016-12-28T19:34:27Z</time></trkpt>
   <trkpt lat="30.904825" lon="34.766236"><ele>444.9</ele><name>TP01589</name><time>2016-12-28T19:34:28Z</time></trkpt>
   <trkpt lat="30.904862" lon="34.766204"><ele>445</ele><name>TP01590</name><time>2016-12-28T19:34:29Z</time></trkpt>
   <trkpt lat="30.904896" lon="34.766168"><ele>445.2</ele><name>TP01591</name><time>2016-12-28T19:34:30Z</time></trkpt>
   <trkpt lat="30.904928" lon="34.766128"><ele>445.3</ele><name>TP01592</name><time>2016-12-28T19:34:31Z</time></trkpt>
   <trkpt lat="30.904958" lon="34.76609"><ele>445.4</ele><name>TP01593</name><time>2016-12-28T19:34:32Z</time></trkpt>
   <trkpt lat="30.904983" lon="34.766047"><ele>445.6</ele><name>TP01594</name><time>2016-12-28T19:34:33Z</time></trkpt>
   <trkpt lat="30.90501" lon="34.766002"><ele>445.7</ele><name>TP01595</name><time>2016-12-28T19:34:34Z</time></trkpt>
   <trkpt lat="30.905035" lon="34.765954"><ele>445.8</ele><name>TP01596</name><time>2016-12-28T19:34:35Z</time></trkpt>
   <trkpt lat="30.905059" lon="34.765908"><ele>445.9</ele><name>TP01597</name><time>2016-12-28T19:34:36Z</time></trkpt>
   <trkpt lat="30.905086" lon="34.765862"><ele>446.1</ele><name>TP01598</name><time>2016-12-28T19:34:37Z</time></trkpt>
   <trkpt lat="30.905112" lon="34.765817"><ele>446.2</ele><name>TP01599</name><time>2016-12-28T19:34:38Z</time></trkpt>
   <trkpt lat="30.90514" lon="34.765775"><ele>446.4</ele><name>TP01600</name><time>2016-12-28T19:34:39Z</time></trkpt>
   <trkpt lat="30.905172" lon="34.765737"><ele>446.6</ele><name>TP01601</name><time>2016-12-28T19:34:40Z</time></trkpt>
   <trkpt lat="30.905205" lon="34.765704"><ele>446.7</ele><name>TP01602</name><time>2016-12-28T19:34:41Z</time></trkpt>
   <trkpt lat="30.905234" lon="34.765676"><ele>446.9</ele><name>TP01603</name><time>2016-12-28T19:34:42Z</time></trkpt>
   <trkpt lat="30.905269" lon="34.765643"><ele>447.1</ele><name>TP01604</name><time>2016-12-28T19:34:43Z</time></trkpt>
   <trkpt lat="30.905303" lon="34.765608"><ele>447.3</ele><name>TP01605</name><time>2016-12-28T19:34:44Z</time></trkpt>
   <trkpt lat="30.905335" lon="34.765571"><ele>447.4</ele><name>TP01606</name><time>2016-12-28T19:34:45Z</time></trkpt>
   <trkpt lat="30.905365" lon="34.765529"><ele>447.6</ele><name>TP01607</name><time>2016-12-28T19:34:46Z</time></trkpt>
   <trkpt lat="30.905399" lon="34.76549"><ele>447.8</ele><name>TP01608</name><time>2016-12-28T19:34:47Z</time></trkpt>
   <trkpt lat="30.905431" lon="34.765454"><ele>447.9</ele><name>TP01609</name><time>2016-12-28T19:34:48Z</time></trkpt>
   <trkpt lat="30.905463" lon="34.765421"><ele>447.9</ele><name>TP01610</name><time>2016-12-28T19:34:49Z</time></trkpt>
   <trkpt lat="30.905496" lon="34.765392"><ele>447.8</ele><name>TP01611</name><time>2016-12-28T19:34:50Z</time></trkpt>
   <trkpt lat="30.905526" lon="34.765356"><ele>447.8</ele><name>TP01612</name><time>2016-12-28T19:34:51Z</time></trkpt>
   <trkpt lat="30.905551" lon="34.765315"><ele>447.8</ele><name>TP01613</name><time>2016-12-28T19:34:52Z</time></trkpt>
   <trkpt lat="30.905578" lon="34.765276"><ele>447.8</ele><name>TP01614</name><time>2016-12-28T19:34:53Z</time></trkpt>
   <trkpt lat="30.905608" lon="34.765234"><ele>447.8</ele><name>TP01615</name><time>2016-12-28T19:34:54Z</time></trkpt>
   <trkpt lat="30.905638" lon="34.765191"><ele>447.8</ele><name>TP01616</name><time>2016-12-28T19:34:55Z</time></trkpt>
   <trkpt lat="30.905667" lon="34.765151"><ele>447.8</ele><name>TP01617</name><time>2016-12-28T19:34:56Z</time></trkpt>
   <trkpt lat="30.9057" lon="34.76511"><ele>447.8</ele><name>TP01618</name><time>2016-12-28T19:34:57Z</time></trkpt>
   <trkpt lat="30.905736" lon="34.765075"><ele>447.8</ele><name>TP01619</name><time>2016-12-28T19:34:58Z</time></trkpt>
   <trkpt lat="30.905774" lon="34.765039"><ele>447.8</ele><name>TP01620</name><time>2016-12-28T19:34:59Z</time></trkpt>
   <trkpt lat="30.90581" lon="34.765007"><ele>447.8</ele><name>TP01621</name><time>2016-12-28T19:35:00Z</time></trkpt>
   <trkpt lat="30.905845" lon="34.764969"><ele>447.8</ele><name>TP01622</name><time>2016-12-28T19:35:01Z</time></trkpt>
   <trkpt lat="30.905881" lon="34.764932"><ele>447.8</ele><name>TP01623</name><time>2016-12-28T19:35:02Z</time></trkpt>
   <trkpt lat="30.905919" lon="34.7649"><ele>447.8</ele><name>TP01624</name><time>2016-12-28T19:35:03Z</time></trkpt>
   <trkpt lat="30.905961" lon="34.764872"><ele>447.8</ele><name>TP01625</name><time>2016-12-28T19:35:04Z</time></trkpt>
   <trkpt lat="30.906001" lon="34.764841"><ele>447.8</ele><name>TP01626</name><time>2016-12-28T19:35:05Z</time></trkpt>
   <trkpt lat="30.906044" lon="34.764813"><ele>447.8</ele><name>TP01627</name><time>2016-12-28T19:35:06Z</time></trkpt>
   <trkpt lat="30.906091" lon="34.764784"><ele>447.8</ele><name>TP01628</name><time>2016-12-28T19:35:07Z</time></trkpt>
   <trkpt lat="30.906128" lon="34.764761"><ele>447.8</ele><name>TP01629</name><time>2016-12-28T19:35:08Z</time></trkpt>
   <trkpt lat="30.906157" lon="34.76474"><ele>447.8</ele><name>TP01630</name><time>2016-12-28T19:35:09Z</time></trkpt>
   <trkpt lat="30.906178" lon="34.764718"><ele>447.8</ele><name>TP01631</name><time>2016-12-28T19:35:10Z</time></trkpt>
   <trkpt lat="30.906218" lon="34.764655"><ele>447.9</ele><name>TP01632</name><time>2016-12-28T19:35:12Z</time></trkpt>
   <trkpt lat="30.906241" lon="34.76462"><ele>447.9</ele><name>TP01633</name><time>2016-12-28T19:35:13Z</time></trkpt>
   <trkpt lat="30.906265" lon="34.764587"><ele>448</ele><name>TP01634</name><time>2016-12-28T19:35:14Z</time></trkpt>
   <trkpt lat="30.906292" lon="34.764554"><ele>448.2</ele><name>TP01635</name><time>2016-12-28T19:35:15Z</time></trkpt>
   <trkpt lat="30.906318" lon="34.764518"><ele>448.4</ele><name>TP01636</name><time>2016-12-28T19:35:17Z</time></trkpt>
   <trkpt lat="30.906342" lon="34.764467"><ele>448.6</ele><name>TP01637</name><time>2016-12-28T19:35:20Z</time></trkpt>
   <trkpt lat="30.906386" lon="34.764436"><ele>448.8</ele><name>TP01638</name><time>2016-12-28T19:35:21Z</time></trkpt>
   <trkpt lat="30.90643" lon="34.764412"><ele>448.9</ele><name>TP01639</name><time>2016-12-28T19:35:22Z</time></trkpt>
   <trkpt lat="30.906475" lon="34.764391"><ele>449.1</ele><name>TP01640</name><time>2016-12-28T19:35:23Z</time></trkpt>
   <trkpt lat="30.906521" lon="34.764369"><ele>449.2</ele><name>TP01641</name><time>2016-12-28T19:35:24Z</time></trkpt>
   <trkpt lat="30.90656" lon="34.76435"><ele>449.4</ele><name>TP01642</name><time>2016-12-28T19:35:25Z</time></trkpt>
   <trkpt lat="30.906588" lon="34.764336"><ele>449.4</ele><name>TP01643</name><time>2016-12-28T19:35:26Z</time></trkpt>
   <trkpt lat="30.906625" lon="34.764316"><ele>449.6</ele><name>TP01644</name><time>2016-12-28T19:35:27Z</time></trkpt>
   <trkpt lat="30.906797" lon="34.764229"><ele>450</ele><name>TP01645</name><time>2016-12-28T19:35:29Z</time></trkpt>
   <trkpt lat="30.906835" lon="34.764216"><ele>450.1</ele><name>TP01646</name><time>2016-12-28T19:35:30Z</time></trkpt>
   <trkpt lat="30.906872" lon="34.764203"><ele>450.1</ele><name>TP01647</name><time>2016-12-28T19:35:31Z</time></trkpt>
   <trkpt lat="30.906907" lon="34.764181"><ele>450.2</ele><name>TP01648</name><time>2016-12-28T19:35:32Z</time></trkpt>
   <trkpt lat="30.906944" lon="34.764168"><ele>450.2</ele><name>TP01649</name><time>2016-12-28T19:35:33Z</time></trkpt>
   <trkpt lat="30.906977" lon="34.764151"><ele>450.3</ele><name>TP01650</name><time>2016-12-28T19:35:34Z</time></trkpt>
   <trkpt lat="30.907008" lon="34.764127"><ele>450.3</ele><name>TP01651</name><time>2016-12-28T19:35:35Z</time></trkpt>
   <trkpt lat="30.907041" lon="34.764086"><ele>450.3</ele><name>TP01652</name><time>2016-12-28T19:35:37Z</time></trkpt>
   <trkpt lat="30.907073" lon="34.764046"><ele>450.3</ele><name>TP01653</name><time>2016-12-28T19:35:39Z</time></trkpt>
   <trkpt lat="30.907104" lon="34.764018"><ele>450.4</ele><name>TP01654</name><time>2016-12-28T19:35:40Z</time></trkpt>
   <trkpt lat="30.907136" lon="34.763994"><ele>450.5</ele><name>TP01655</name><time>2016-12-28T19:35:41Z</time></trkpt>
   <trkpt lat="30.907169" lon="34.763973"><ele>450.7</ele><name>TP01656</name><time>2016-12-28T19:35:42Z</time></trkpt>
   <trkpt lat="30.907196" lon="34.763954"><ele>450.8</ele><name>TP01657</name><time>2016-12-28T19:35:43Z</time></trkpt>
   <trkpt lat="30.907231" lon="34.763922"><ele>450.9</ele><name>TP01658</name><time>2016-12-28T19:35:45Z</time></trkpt>
   <trkpt lat="30.907261" lon="34.763893"><ele>451</ele><name>TP01659</name><time>2016-12-28T19:35:46Z</time></trkpt>
   <trkpt lat="30.907289" lon="34.763865"><ele>451.1</ele><name>TP01660</name><time>2016-12-28T19:35:47Z</time></trkpt>
   <trkpt lat="30.907387" lon="34.763774"><ele>451.5</ele><name>TP01661</name><time>2016-12-28T19:35:49Z</time></trkpt>
   <trkpt lat="30.907418" lon="34.763756"><ele>451.6</ele><name>TP01662</name><time>2016-12-28T19:35:50Z</time></trkpt>
   <trkpt lat="30.907449" lon="34.763737"><ele>451.8</ele><name>TP01663</name><time>2016-12-28T19:35:51Z</time></trkpt>
   <trkpt lat="30.907477" lon="34.76372"><ele>452</ele><name>TP01664</name><time>2016-12-28T19:35:52Z</time></trkpt>
   <trkpt lat="30.907504" lon="34.763705"><ele>452.2</ele><name>TP01665</name><time>2016-12-28T19:35:53Z</time></trkpt>
   <trkpt lat="30.907534" lon="34.76369"><ele>452.4</ele><name>TP01666</name><time>2016-12-28T19:35:54Z</time></trkpt>
   <trkpt lat="30.907563" lon="34.763679"><ele>452.6</ele><name>TP01667</name><time>2016-12-28T19:35:55Z</time></trkpt>
   <trkpt lat="30.907601" lon="34.76366"><ele>452.8</ele><name>TP01668</name><time>2016-12-28T19:35:57Z</time></trkpt>
   <trkpt lat="30.907643" lon="34.763644"><ele>453.1</ele><name>TP01669</name><time>2016-12-28T19:35:59Z</time></trkpt>
   <trkpt lat="30.90769" lon="34.763627"><ele>453.3</ele><name>TP01670</name><time>2016-12-28T19:36:01Z</time></trkpt>
   <trkpt lat="30.907732" lon="34.76361"><ele>453.6</ele><name>TP01671</name><time>2016-12-28T19:36:03Z</time></trkpt>
   <trkpt lat="30.907764" lon="34.763596"><ele>453.7</ele><name>TP01672</name><time>2016-12-28T19:36:04Z</time></trkpt>
   <trkpt lat="30.907804" lon="34.763575"><ele>454</ele><name>TP01673</name><time>2016-12-28T19:36:05Z</time></trkpt>
   <trkpt lat="30.90784" lon="34.763554"><ele>454.2</ele><name>TP01674</name><time>2016-12-28T19:36:06Z</time></trkpt>
   <trkpt lat="30.907875" lon="34.763533"><ele>454.4</ele><name>TP01675</name><time>2016-12-28T19:36:07Z</time></trkpt>
   <trkpt lat="30.90798" lon="34.763477"><ele>455</ele><name>TP01676</name><time>2016-12-28T19:36:09Z</time></trkpt>
   <trkpt lat="30.90801" lon="34.763458"><ele>455.2</ele><name>TP01677</name><time>2016-12-28T19:36:10Z</time></trkpt>
   <trkpt lat="30.908039" lon="34.763443"><ele>455.4</ele><name>TP01678</name><time>2016-12-28T19:36:11Z</time></trkpt>
   <trkpt lat="30.908069" lon="34.763425"><ele>455.6</ele><name>TP01679</name><time>2016-12-28T19:36:12Z</time></trkpt>
   <trkpt lat="30.908102" lon="34.763406"><ele>455.8</ele><name>TP01680</name><time>2016-12-28T19:36:13Z</time></trkpt>
   <trkpt lat="30.908141" lon="34.763385"><ele>456.1</ele><name>TP01681</name><time>2016-12-28T19:36:14Z</time></trkpt>
   <trkpt lat="30.908185" lon="34.763362"><ele>456.4</ele><name>TP01682</name><time>2016-12-28T19:36:15Z</time></trkpt>
   <trkpt lat="30.908228" lon="34.763343"><ele>456.7</ele><name>TP01683</name><time>2016-12-28T19:36:16Z</time></trkpt>
   <trkpt lat="30.908265" lon="34.763328"><ele>456.9</ele><name>TP01684</name><time>2016-12-28T19:36:17Z</time></trkpt>
   <trkpt lat="30.908295" lon="34.763308"><ele>457.1</ele><name>TP01685</name><time>2016-12-28T19:36:18Z</time></trkpt>
   <trkpt lat="30.908326" lon="34.763292"><ele>457.3</ele><name>TP01686</name><time>2016-12-28T19:36:19Z</time></trkpt>
   <trkpt lat="30.908356" lon="34.763272"><ele>457.5</ele><name>TP01687</name><time>2016-12-28T19:36:20Z</time></trkpt>
   <trkpt lat="30.908387" lon="34.763252"><ele>457.7</ele><name>TP01688</name><time>2016-12-28T19:36:21Z</time></trkpt>
   <trkpt lat="30.908413" lon="34.763236"><ele>457.8</ele><name>TP01689</name><time>2016-12-28T19:36:22Z</time></trkpt>
   <trkpt lat="30.908447" lon="34.763223"><ele>458</ele><name>TP01690</name><time>2016-12-28T19:36:23Z</time></trkpt>
   <trkpt lat="30.908481" lon="34.763195"><ele>458.3</ele><name>TP01691</name><time>2016-12-28T19:36:24Z</time></trkpt>
   <trkpt lat="30.908513" lon="34.763164"><ele>458.5</ele><name>TP01692</name><time>2016-12-28T19:36:25Z</time></trkpt>
   <trkpt lat="30.908538" lon="34.763134"><ele>458.7</ele><name>TP01693</name><time>2016-12-28T19:36:26Z</time></trkpt>
   <trkpt lat="30.908563" lon="34.763112"><ele>458.8</ele><name>TP01694</name><time>2016-12-28T19:36:28Z</time></trkpt>
   <trkpt lat="30.908609" lon="34.763062"><ele>459.1</ele><name>TP01695</name><time>2016-12-28T19:36:30Z</time></trkpt>
   <trkpt lat="30.908635" lon="34.763033"><ele>459.3</ele><name>TP01696</name><time>2016-12-28T19:36:31Z</time></trkpt>
   <trkpt lat="30.908659" lon="34.763001"><ele>459.5</ele><name>TP01697</name><time>2016-12-28T19:36:32Z</time></trkpt>
   <trkpt lat="30.908718" lon="34.762901"><ele>459.9</ele><name>TP01698</name><time>2016-12-28T19:36:34Z</time></trkpt>
   <trkpt lat="30.908745" lon="34.762874"><ele>460</ele><name>TP01699</name><time>2016-12-28T19:36:35Z</time></trkpt>
   <trkpt lat="30.908773" lon="34.76285"><ele>460.2</ele><name>TP01700</name><time>2016-12-28T19:36:36Z</time></trkpt>
   <trkpt lat="30.9088" lon="34.762822"><ele>460.4</ele><name>TP01701</name><time>2016-12-28T19:36:37Z</time></trkpt>
   <trkpt lat="30.908827" lon="34.762787"><ele>460.6</ele><name>TP01702</name><time>2016-12-28T19:36:38Z</time></trkpt>
   <trkpt lat="30.908851" lon="34.762754"><ele>460.7</ele><name>TP01703</name><time>2016-12-28T19:36:39Z</time></trkpt>
   <trkpt lat="30.908877" lon="34.762713"><ele>460.9</ele><name>TP01704</name><time>2016-12-28T19:36:41Z</time></trkpt>
   <trkpt lat="30.908899" lon="34.762663"><ele>461</ele><name>TP01705</name><time>2016-12-28T19:36:43Z</time></trkpt>
   <trkpt lat="30.908864" lon="34.762661"><ele>460.9</ele><name>TP01706</name><time>2016-12-28T19:36:46Z</time></trkpt>
   <trkpt lat="30.90885" lon="34.762624"><ele>460.8</ele><name>TP01707</name><time>2016-12-28T19:36:47Z</time></trkpt>
   <trkpt lat="30.90882" lon="34.762565"><ele>460.7</ele><name>TP01708</name><time>2016-12-28T19:36:48Z</time></trkpt>
   <trkpt lat="30.90878" lon="34.762512"><ele>460.6</ele><name>TP01709</name><time>2016-12-28T19:36:49Z</time></trkpt>
   <trkpt lat="30.908736" lon="34.762473"><ele>460.5</ele><name>TP01710</name><time>2016-12-28T19:36:50Z</time></trkpt>
   <trkpt lat="30.908676" lon="34.762435"><ele>460.5</ele><name>TP01711</name><time>2016-12-28T19:36:51Z</time></trkpt>
   <trkpt lat="30.908637" lon="34.762306"><ele>460.7</ele><name>TP01712</name><time>2016-12-28T19:36:53Z</time></trkpt>
   <trkpt lat="30.908587" lon="34.762319"><ele>460.6</ele><name>TP01713</name><time>2016-12-28T19:36:54Z</time></trkpt>
   <trkpt lat="30.908537" lon="34.762344"><ele>460.5</ele><name>TP01714</name><time>2016-12-28T19:36:55Z</time></trkpt>
   <trkpt lat="30.908483" lon="34.762371"><ele>460.4</ele><name>TP01715</name><time>2016-12-28T19:36:56Z</time></trkpt>
   <trkpt lat="30.908432" lon="34.762388"><ele>460.3</ele><name>TP01716</name><time>2016-12-28T19:36:57Z</time></trkpt>
   <trkpt lat="30.908381" lon="34.762387"><ele>460.3</ele><name>TP01717</name><time>2016-12-28T19:36:58Z</time></trkpt>
   <trkpt lat="30.908337" lon="34.762375"><ele>460.3</ele><name>TP01718</name><time>2016-12-28T19:36:59Z</time></trkpt>
   <trkpt lat="30.908289" lon="34.762365"><ele>460.3</ele><name>TP01719</name><time>2016-12-28T19:37:00Z</time></trkpt>
   <trkpt lat="30.90824" lon="34.762354"><ele>460.3</ele><name>TP01720</name><time>2016-12-28T19:37:01Z</time></trkpt>
   <trkpt lat="30.908188" lon="34.762335"><ele>460.4</ele><name>TP01721</name><time>2016-12-28T19:37:02Z</time></trkpt>
   <trkpt lat="30.908138" lon="34.762319"><ele>460.4</ele><name>TP01722</name><time>2016-12-28T19:37:03Z</time></trkpt>
   <trkpt lat="30.908083" lon="34.762307"><ele>460.5</ele><name>TP01723</name><time>2016-12-28T19:37:04Z</time></trkpt>
   <trkpt lat="30.908029" lon="34.762292"><ele>460.5</ele><name>TP01724</name><time>2016-12-28T19:37:05Z</time></trkpt>
   <trkpt lat="30.907978" lon="34.762276"><ele>460.6</ele><name>TP01725</name><time>2016-12-28T19:37:06Z</time></trkpt>
   <trkpt lat="30.907933" lon="34.762265"><ele>460.7</ele><name>TP01726</name><time>2016-12-28T19:37:07Z</time></trkpt>
   <trkpt lat="30.907897" lon="34.762245"><ele>460.8</ele><name>TP01727</name><time>2016-12-28T19:37:08Z</time></trkpt>
   <trkpt lat="30.907856" lon="34.762226"><ele>460.7</ele><name>TP01728</name><time>2016-12-28T19:37:09Z</time></trkpt>
   <trkpt lat="30.907815" lon="34.762205"><ele>460.7</ele><name>TP01729</name><time>2016-12-28T19:37:10Z</time></trkpt>
   <trkpt lat="30.907733" lon="34.762168"><ele>460.6</ele><name>TP01730</name><time>2016-12-28T19:37:12Z</time></trkpt>
   <trkpt lat="30.907689" lon="34.762151"><ele>460.5</ele><name>TP01731</name><time>2016-12-28T19:37:13Z</time></trkpt>
   <trkpt lat="30.907645" lon="34.762139"><ele>460.4</ele><name>TP01732</name><time>2016-12-28T19:37:14Z</time></trkpt>
   <trkpt lat="30.907601" lon="34.762117"><ele>460.3</ele><name>TP01733</name><time>2016-12-28T19:37:15Z</time></trkpt>
   <trkpt lat="30.907555" lon="34.762105"><ele>460.1</ele><name>TP01734</name><time>2016-12-28T19:37:16Z</time></trkpt>
   <trkpt lat="30.907504" lon="34.762093"><ele>460</ele><name>TP01735</name><time>2016-12-28T19:37:17Z</time></trkpt>
   <trkpt lat="30.907452" lon="34.762076"><ele>459.8</ele><name>TP01736</name><time>2016-12-28T19:37:18Z</time></trkpt>
   <trkpt lat="30.907397" lon="34.762058"><ele>459.6</ele><name>TP01737</name><time>2016-12-28T19:37:19Z</time></trkpt>
   <trkpt lat="30.907346" lon="34.762038"><ele>459.4</ele><name>TP01738</name><time>2016-12-28T19:37:20Z</time></trkpt>
   <trkpt lat="30.907292" lon="34.762016"><ele>459.2</ele><name>TP01739</name><time>2016-12-28T19:37:21Z</time></trkpt>
   <trkpt lat="30.907236" lon="34.761996"><ele>458.9</ele><name>TP01740</name><time>2016-12-28T19:37:22Z</time></trkpt>
   <trkpt lat="30.907191" lon="34.761983"><ele>458.7</ele><name>TP01741</name><time>2016-12-28T19:37:23Z</time></trkpt>
   <trkpt lat="30.907145" lon="34.761967"><ele>458.5</ele><name>TP01742</name><time>2016-12-28T19:37:24Z</time></trkpt>
   <trkpt lat="30.9071" lon="34.761951"><ele>458.3</ele><name>TP01743</name><time>2016-12-28T19:37:25Z</time></trkpt>
   <trkpt lat="30.907051" lon="34.761938"><ele>458</ele><name>TP01744</name><time>2016-12-28T19:37:26Z</time></trkpt>
   <trkpt lat="30.907002" lon="34.761926"><ele>457.8</ele><name>TP01745</name><time>2016-12-28T19:37:27Z</time></trkpt>
   <trkpt lat="30.906949" lon="34.761918"><ele>457.5</ele><name>TP01746</name><time>2016-12-28T19:37:28Z</time></trkpt>
   <trkpt lat="30.9069" lon="34.761915"><ele>457.3</ele><name>TP01747</name><time>2016-12-28T19:37:29Z</time></trkpt>
   <trkpt lat="30.906852" lon="34.761905"><ele>457.1</ele><name>TP01748</name><time>2016-12-28T19:37:30Z</time></trkpt>
   <trkpt lat="30.906807" lon="34.761897"><ele>456.9</ele><name>TP01749</name><time>2016-12-28T19:37:31Z</time></trkpt>
   <trkpt lat="30.906765" lon="34.761891"><ele>456.7</ele><name>TP01750</name><time>2016-12-28T19:37:32Z</time></trkpt>
   <trkpt lat="30.906721" lon="34.761876"><ele>456.5</ele><name>TP01751</name><time>2016-12-28T19:37:33Z</time></trkpt>
   <trkpt lat="30.90668" lon="34.76187"><ele>456.3</ele><name>TP01752</name><time>2016-12-28T19:37:34Z</time></trkpt>
   <trkpt lat="30.906636" lon="34.761858"><ele>456.2</ele><name>TP01753</name><time>2016-12-28T19:37:35Z</time></trkpt>
   <trkpt lat="30.90659" lon="34.761849"><ele>456</ele><name>TP01754</name><time>2016-12-28T19:37:36Z</time></trkpt>
   <trkpt lat="30.90655" lon="34.761844"><ele>455.8</ele><name>TP01755</name><time>2016-12-28T19:37:37Z</time></trkpt>
   <trkpt lat="30.906509" lon="34.761839"><ele>455.7</ele><name>TP01756</name><time>2016-12-28T19:37:38Z</time></trkpt>
   <trkpt lat="30.906466" lon="34.761839"><ele>455.5</ele><name>TP01757</name><time>2016-12-28T19:37:39Z</time></trkpt>
   <trkpt lat="30.906436" lon="34.761842"><ele>455.3</ele><name>TP01758</name><time>2016-12-28T19:37:40Z</time></trkpt>
   <trkpt lat="30.906387" lon="34.76185"><ele>455</ele><name>TP01759</name><time>2016-12-28T19:37:42Z</time></trkpt>
   <trkpt lat="30.906323" lon="34.761861"><ele>454.7</ele><name>TP01760</name><time>2016-12-28T19:37:44Z</time></trkpt>
   <trkpt lat="30.906256" lon="34.761872"><ele>454.3</ele><name>TP01761</name><time>2016-12-28T19:37:45Z</time></trkpt>
   <trkpt lat="30.90619" lon="34.76188"><ele>454.1</ele><name>TP01762</name><time>2016-12-28T19:37:46Z</time></trkpt>
   <trkpt lat="30.906129" lon="34.761883"><ele>454</ele><name>TP01763</name><time>2016-12-28T19:37:47Z</time></trkpt>
   <trkpt lat="30.906072" lon="34.761876"><ele>453.9</ele><name>TP01764</name><time>2016-12-28T19:37:48Z</time></trkpt>
   <trkpt lat="30.906021" lon="34.761862"><ele>453.9</ele><name>TP01765</name><time>2016-12-28T19:37:49Z</time></trkpt>
   <trkpt lat="30.905973" lon="34.761844"><ele>453.9</ele><name>TP01766</name><time>2016-12-28T19:37:50Z</time></trkpt>
   <trkpt lat="30.905911" lon="34.761805"><ele>454</ele><name>TP01767</name><time>2016-12-28T19:37:51Z</time></trkpt>
   <trkpt lat="30.905814" lon="34.761748"><ele>454.1</ele><name>TP01768</name><time>2016-12-28T19:37:53Z</time></trkpt>
   <trkpt lat="30.905777" lon="34.761713"><ele>454.1</ele><name>TP01769</name><time>2016-12-28T19:37:54Z</time></trkpt>
   <trkpt lat="30.905737" lon="34.761679"><ele>454.2</ele><name>TP01770</name><time>2016-12-28T19:37:55Z</time></trkpt>
   <trkpt lat="30.905703" lon="34.761641"><ele>454.3</ele><name>TP01771</name><time>2016-12-28T19:37:56Z</time></trkpt>
   <trkpt lat="30.905677" lon="34.761596"><ele>454.4</ele><name>TP01772</name><time>2016-12-28T19:37:57Z</time></trkpt>
   <trkpt lat="30.905648" lon="34.761544"><ele>454.6</ele><name>TP01773</name><time>2016-12-28T19:37:58Z</time></trkpt>
   <trkpt lat="30.90562" lon="34.761487"><ele>454.7</ele><name>TP01774</name><time>2016-12-28T19:37:59Z</time></trkpt>
   <trkpt lat="30.905585" lon="34.761436"><ele>454.8</ele><name>TP01775</name><time>2016-12-28T19:38:00Z</time></trkpt>
   <trkpt lat="30.905549" lon="34.761385"><ele>454.9</ele><name>TP01776</name><time>2016-12-28T19:38:01Z</time></trkpt>
   <trkpt lat="30.905519" lon="34.761331"><ele>455.1</ele><name>TP01777</name><time>2016-12-28T19:38:02Z</time></trkpt>
   <trkpt lat="30.905484" lon="34.761284"><ele>455.1</ele><name>TP01778</name><time>2016-12-28T19:38:03Z</time></trkpt>
   <trkpt lat="30.905444" lon="34.761244"><ele>455.1</ele><name>TP01779</name><time>2016-12-28T19:38:04Z</time></trkpt>
   <trkpt lat="30.905403" lon="34.761211"><ele>455.2</ele><name>TP01780</name><time>2016-12-28T19:38:05Z</time></trkpt>
   <trkpt lat="30.905361" lon="34.761177"><ele>455.1</ele><name>TP01781</name><time>2016-12-28T19:38:06Z</time></trkpt>
   <trkpt lat="30.905316" lon="34.761144"><ele>455</ele><name>TP01782</name><time>2016-12-28T19:38:07Z</time></trkpt>
   <trkpt lat="30.905272" lon="34.761112"><ele>454.9</ele><name>TP01783</name><time>2016-12-28T19:38:08Z</time></trkpt>
   <trkpt lat="30.905223" lon="34.761077"><ele>454.7</ele><name>TP01784</name><time>2016-12-28T19:38:09Z</time></trkpt>
   <trkpt lat="30.905177" lon="34.761042"><ele>454.5</ele><name>TP01785</name><time>2016-12-28T19:38:10Z</time></trkpt>
   <trkpt lat="30.905132" lon="34.761004"><ele>454.4</ele><name>TP01786</name><time>2016-12-28T19:38:11Z</time></trkpt>
   <trkpt lat="30.905087" lon="34.760957"><ele>454.3</ele><name>TP01787</name><time>2016-12-28T19:38:12Z</time></trkpt>
   <trkpt lat="30.905049" lon="34.760907"><ele>454.2</ele><name>TP01788</name><time>2016-12-28T19:38:13Z</time></trkpt>
   <trkpt lat="30.905024" lon="34.760851"><ele>454.4</ele><name>TP01789</name><time>2016-12-28T19:38:14Z</time></trkpt>
   <trkpt lat="30.905005" lon="34.76079"><ele>454.6</ele><name>TP01790</name><time>2016-12-28T19:38:15Z</time></trkpt>
   <trkpt lat="30.904993" lon="34.760724"><ele>454.9</ele><name>TP01791</name><time>2016-12-28T19:38:16Z</time></trkpt>
   <trkpt lat="30.904982" lon="34.760655"><ele>455.2</ele><name>TP01792</name><time>2016-12-28T19:38:17Z</time></trkpt>
   <trkpt lat="30.904978" lon="34.760594"><ele>455.6</ele><name>TP01793</name><time>2016-12-28T19:38:18Z</time></trkpt>
   <trkpt lat="30.904973" lon="34.760537"><ele>455.9</ele><name>TP01794</name><time>2016-12-28T19:38:19Z</time></trkpt>
   <trkpt lat="30.904969" lon="34.760488"><ele>456.2</ele><name>TP01795</name><time>2016-12-28T19:38:20Z</time></trkpt>
   <trkpt lat="30.904969" lon="34.760426"><ele>456.6</ele><name>TP01796</name><time>2016-12-28T19:38:21Z</time></trkpt>
   <trkpt lat="30.90498" lon="34.760368"><ele>456.7</ele><name>TP01797</name><time>2016-12-28T19:38:22Z</time></trkpt>
   <trkpt lat="30.904992" lon="34.760313"><ele>456.8</ele><name>TP01798</name><time>2016-12-28T19:38:23Z</time></trkpt>
   <trkpt lat="30.904998" lon="34.760259"><ele>456.8</ele><name>TP01799</name><time>2016-12-28T19:38:24Z</time></trkpt>
   <trkpt lat="30.905009" lon="34.760205"><ele>456.9</ele><name>TP01800</name><time>2016-12-28T19:38:25Z</time></trkpt>
   <trkpt lat="30.905015" lon="34.760147"><ele>456.9</ele><name>TP01801</name><time>2016-12-28T19:38:26Z</time></trkpt>
   <trkpt lat="30.905015" lon="34.76009"><ele>456.8</ele><name>TP01802</name><time>2016-12-28T19:38:27Z</time></trkpt>
   <trkpt lat="30.905004" lon="34.760033"><ele>456.6</ele><name>TP01803</name><time>2016-12-28T19:38:28Z</time></trkpt>
   <trkpt lat="30.904983" lon="34.759977"><ele>456.3</ele><name>TP01804</name><time>2016-12-28T19:38:29Z</time></trkpt>
   <trkpt lat="30.904952" lon="34.759928"><ele>455.8</ele><name>TP01805</name><time>2016-12-28T19:38:30Z</time></trkpt>
   <trkpt lat="30.904928" lon="34.759875"><ele>455.5</ele><name>TP01806</name><time>2016-12-28T19:38:31Z</time></trkpt>
   <trkpt lat="30.9049" lon="34.759826"><ele>455.1</ele><name>TP01807</name><time>2016-12-28T19:38:32Z</time></trkpt>
   <trkpt lat="30.904874" lon="34.759773"><ele>454.7</ele><name>TP01808</name><time>2016-12-28T19:38:33Z</time></trkpt>
   <trkpt lat="30.904851" lon="34.759718"><ele>454.4</ele><name>TP01809</name><time>2016-12-28T19:38:34Z</time></trkpt>
   <trkpt lat="30.904828" lon="34.759669"><ele>454</ele><name>TP01810</name><time>2016-12-28T19:38:35Z</time></trkpt>
   <trkpt lat="30.9048" lon="34.759619"><ele>453.6</ele><name>TP01811</name><time>2016-12-28T19:38:36Z</time></trkpt>
   <trkpt lat="30.904771" lon="34.759573"><ele>453.3</ele><name>TP01812</name><time>2016-12-28T19:38:37Z</time></trkpt>
   <trkpt lat="30.904738" lon="34.75953"><ele>453.1</ele><name>TP01813</name><time>2016-12-28T19:38:38Z</time></trkpt>
   <trkpt lat="30.9047" lon="34.759488"><ele>452.8</ele><name>TP01814</name><time>2016-12-28T19:38:39Z</time></trkpt>
   <trkpt lat="30.904661" lon="34.759449"><ele>452.4</ele><name>TP01815</name><time>2016-12-28T19:38:40Z</time></trkpt>
   <trkpt lat="30.904622" lon="34.759408"><ele>452.1</ele><name>TP01816</name><time>2016-12-28T19:38:41Z</time></trkpt>
   <trkpt lat="30.904587" lon="34.759365"><ele>451.8</ele><name>TP01817</name><time>2016-12-28T19:38:42Z</time></trkpt>
   <trkpt lat="30.904553" lon="34.759319"><ele>451.8</ele><name>TP01818</name><time>2016-12-28T19:38:43Z</time></trkpt>
   <trkpt lat="30.904519" lon="34.759268"><ele>451.8</ele><name>TP01819</name><time>2016-12-28T19:38:44Z</time></trkpt>
   <trkpt lat="30.904489" lon="34.759222"><ele>451.8</ele><name>TP01820</name><time>2016-12-28T19:38:45Z</time></trkpt>
   <trkpt lat="30.904473" lon="34.759171"><ele>451.9</ele><name>TP01821</name><time>2016-12-28T19:38:46Z</time></trkpt>
   <trkpt lat="30.904473" lon="34.759123"><ele>452.1</ele><name>TP01822</name><time>2016-12-28T19:38:47Z</time></trkpt>
   <trkpt lat="30.904477" lon="34.75908"><ele>452.3</ele><name>TP01823</name><time>2016-12-28T19:38:48Z</time></trkpt>
   <trkpt lat="30.904481" lon="34.759044"><ele>452.4</ele><name>TP01824</name><time>2016-12-28T19:38:49Z</time></trkpt>
   <trkpt lat="30.9045" lon="34.75902"><ele>452.6</ele><name>TP01825</name><time>2016-12-28T19:38:50Z</time></trkpt>
   <trkpt lat="30.904521" lon="34.758999"><ele>452.8</ele><name>TP01826</name><time>2016-12-28T19:38:51Z</time></trkpt>
   <trkpt lat="30.904544" lon="34.758981"><ele>453</ele><name>TP01827</name><time>2016-12-28T19:38:52Z</time></trkpt>
   <trkpt lat="30.904582" lon="34.758935"><ele>453.3</ele><name>TP01828</name><time>2016-12-28T19:38:54Z</time></trkpt>
   <trkpt lat="30.904602" lon="34.758908"><ele>453.7</ele><name>TP01829</name><time>2016-12-28T19:38:55Z</time></trkpt>
   <trkpt lat="30.904617" lon="34.758878"><ele>454</ele><name>TP01830</name><time>2016-12-28T19:38:56Z</time></trkpt>
   <trkpt lat="30.904634" lon="34.758847"><ele>454.4</ele><name>TP01831</name><time>2016-12-28T19:38:57Z</time></trkpt>
   <trkpt lat="30.904646" lon="34.758818"><ele>454.6</ele><name>TP01832</name><time>2016-12-28T19:38:58Z</time></trkpt>
   <trkpt lat="30.904658" lon="34.758754"><ele>455.1</ele><name>TP01833</name><time>2016-12-28T19:39:00Z</time></trkpt>
   <trkpt lat="30.904666" lon="34.75872"><ele>455.4</ele><name>TP01834</name><time>2016-12-28T19:39:01Z</time></trkpt>
   <trkpt lat="30.904679" lon="34.758686"><ele>455.8</ele><name>TP01835</name><time>2016-12-28T19:39:02Z</time></trkpt>
   <trkpt lat="30.904687" lon="34.758653"><ele>456.2</ele><name>TP01836</name><time>2016-12-28T19:39:03Z</time></trkpt>
   <trkpt lat="30.904696" lon="34.758621"><ele>456.5</ele><name>TP01837</name><time>2016-12-28T19:39:04Z</time></trkpt>
   <trkpt lat="30.904704" lon="34.758588"><ele>456.8</ele><name>TP01838</name><time>2016-12-28T19:39:05Z</time></trkpt>
   <trkpt lat="30.904711" lon="34.758556"><ele>457.2</ele><name>TP01839</name><time>2016-12-28T19:39:06Z</time></trkpt>
   <trkpt lat="30.904716" lon="34.758523"><ele>457.5</ele><name>TP01840</name><time>2016-12-28T19:39:07Z</time></trkpt>
   <trkpt lat="30.904723" lon="34.758479"><ele>457.9</ele><name>TP01841</name><time>2016-12-28T19:39:09Z</time></trkpt>
   <trkpt lat="30.904736" lon="34.758419"><ele>458.4</ele><name>TP01842</name><time>2016-12-28T19:39:12Z</time></trkpt>
   <trkpt lat="30.904743" lon="34.758388"><ele>458.7</ele><name>TP01843</name><time>2016-12-28T19:39:13Z</time></trkpt>
   <trkpt lat="30.90476" lon="34.758336"><ele>459.3</ele><name>TP01844</name><time>2016-12-28T19:39:15Z</time></trkpt>
   <trkpt lat="30.904771" lon="34.758301"><ele>459.7</ele><name>TP01845</name><time>2016-12-28T19:39:17Z</time></trkpt>
   <trkpt lat="30.904782" lon="34.758267"><ele>460.1</ele><name>TP01846</name><time>2016-12-28T19:39:18Z</time></trkpt>
   <trkpt lat="30.904793" lon="34.758232"><ele>460.4</ele><name>TP01847</name><time>2016-12-28T19:39:19Z</time></trkpt>
   <trkpt lat="30.904804" lon="34.758198"><ele>460.8</ele><name>TP01848</name><time>2016-12-28T19:39:20Z</time></trkpt>
   <trkpt lat="30.904814" lon="34.758168"><ele>461.1</ele><name>TP01849</name><time>2016-12-28T19:39:21Z</time></trkpt>
   <trkpt lat="30.90483" lon="34.758119"><ele>461.6</ele><name>TP01850</name><time>2016-12-28T19:39:23Z</time></trkpt>
   <trkpt lat="30.904847" lon="34.758078"><ele>462.1</ele><name>TP01851</name><time>2016-12-28T19:39:25Z</time></trkpt>
   <trkpt lat="30.904867" lon="34.758027"><ele>462.7</ele><name>TP01852</name><time>2016-12-28T19:39:27Z</time></trkpt>
   <trkpt lat="30.904893" lon="34.75799"><ele>463.3</ele><name>TP01853</name><time>2016-12-28T19:39:30Z</time></trkpt>
   <trkpt lat="30.904904" lon="34.757956"><ele>463.6</ele><name>TP01854</name><time>2016-12-28T19:39:31Z</time></trkpt>
   <trkpt lat="30.904919" lon="34.757916"><ele>464</ele><name>TP01855</name><time>2016-12-28T19:39:32Z</time></trkpt>
   <trkpt lat="30.90493" lon="34.757878"><ele>464.2</ele><name>TP01856</name><time>2016-12-28T19:39:33Z</time></trkpt>
   <trkpt lat="30.904941" lon="34.757844"><ele>464.4</ele><name>TP01857</name><time>2016-12-28T19:39:34Z</time></trkpt>
   <trkpt lat="30.904954" lon="34.757812"><ele>464.6</ele><name>TP01858</name><time>2016-12-28T19:39:35Z</time></trkpt>
   <trkpt lat="30.904964" lon="34.757781"><ele>464.7</ele><name>TP01859</name><time>2016-12-28T19:39:36Z</time></trkpt>
   <trkpt lat="30.904973" lon="34.75772"><ele>464.9</ele><name>TP01860</name><time>2016-12-28T19:39:38Z</time></trkpt>
   <trkpt lat="30.904981" lon="34.757685"><ele>465</ele><name>TP01861</name><time>2016-12-28T19:39:39Z</time></trkpt>
   <trkpt lat="30.904993" lon="34.75765"><ele>465.1</ele><name>TP01862</name><time>2016-12-28T19:39:40Z</time></trkpt>
   <trkpt lat="30.905003" lon="34.757616"><ele>465.2</ele><name>TP01863</name><time>2016-12-28T19:39:41Z</time></trkpt>
   <trkpt lat="30.905012" lon="34.757584"><ele>465.3</ele><name>TP01864</name><time>2016-12-28T19:39:42Z</time></trkpt>
   <trkpt lat="30.905027" lon="34.757522"><ele>465.4</ele><name>TP01865</name><time>2016-12-28T19:39:44Z</time></trkpt>
   <trkpt lat="30.905035" lon="34.757488"><ele>465.4</ele><name>TP01866</name><time>2016-12-28T19:39:45Z</time></trkpt>
   <trkpt lat="30.905042" lon="34.757454"><ele>465.4</ele><name>TP01867</name><time>2016-12-28T19:39:46Z</time></trkpt>
   <trkpt lat="30.905051" lon="34.757418"><ele>465.4</ele><name>TP01868</name><time>2016-12-28T19:39:47Z</time></trkpt>
   <trkpt lat="30.905063" lon="34.757383"><ele>465.4</ele><name>TP01869</name><time>2016-12-28T19:39:48Z</time></trkpt>
   <trkpt lat="30.905092" lon="34.757357"><ele>465.5</ele><name>TP01870</name><time>2016-12-28T19:39:50Z</time></trkpt>
   <trkpt lat="30.905098" lon="34.757323"><ele>465.4</ele><name>TP01871</name><time>2016-12-28T19:39:51Z</time></trkpt>
   <trkpt lat="30.905098" lon="34.757288"><ele>465.4</ele><name>TP01872</name><time>2016-12-28T19:39:52Z</time></trkpt>
   <trkpt lat="30.905096" lon="34.757252"><ele>465.4</ele><name>TP01873</name><time>2016-12-28T19:39:53Z</time></trkpt>
   <trkpt lat="30.905093" lon="34.757215"><ele>465.3</ele><name>TP01874</name><time>2016-12-28T19:39:54Z</time></trkpt>
   <trkpt lat="30.905092" lon="34.757179"><ele>465.3</ele><name>TP01875</name><time>2016-12-28T19:39:55Z</time></trkpt>
   <trkpt lat="30.905089" lon="34.75714"><ele>465.2</ele><name>TP01876</name><time>2016-12-28T19:39:57Z</time></trkpt>
   <trkpt lat="30.905088" lon="34.757098"><ele>465.2</ele><name>TP01877</name><time>2016-12-28T19:40:04Z</time></trkpt>
   <trkpt lat="30.905062" lon="34.75709"><ele>465.3</ele><name>TP01878</name><time>2016-12-28T19:40:11Z</time></trkpt>
   <trkpt lat="30.905088" lon="34.757066"><ele>465.2</ele><name>TP01879</name><time>2016-12-28T19:40:32Z</time></trkpt>
   <trkpt lat="30.905095" lon="34.757033"><ele>465.2</ele><name>TP01880</name><time>2016-12-28T19:40:34Z</time></trkpt>
   <trkpt lat="30.905096" lon="34.756986"><ele>465.2</ele><name>TP01881</name><time>2016-12-28T19:40:36Z</time></trkpt>
   <trkpt lat="30.905109" lon="34.756927"><ele>465.1</ele><name>TP01882</name><time>2016-12-28T19:40:38Z</time></trkpt>
   <trkpt lat="30.905122" lon="34.756896"><ele>465</ele><name>TP01883</name><time>2016-12-28T19:40:39Z</time></trkpt>
   <trkpt lat="30.905155" lon="34.756854"><ele>464.8</ele><name>TP01884</name><time>2016-12-28T19:40:41Z</time></trkpt>
   <trkpt lat="30.90518" lon="34.756835"><ele>464.6</ele><name>TP01885</name><time>2016-12-28T19:40:42Z</time></trkpt>
   <trkpt lat="30.905209" lon="34.756814"><ele>464.3</ele><name>TP01886</name><time>2016-12-28T19:40:43Z</time></trkpt>
   <trkpt lat="30.905238" lon="34.75679"><ele>464.1</ele><name>TP01887</name><time>2016-12-28T19:40:44Z</time></trkpt>
   <trkpt lat="30.905266" lon="34.756766"><ele>463.8</ele><name>TP01888</name><time>2016-12-28T19:40:45Z</time></trkpt>
   <trkpt lat="30.905292" lon="34.756744"><ele>463.5</ele><name>TP01889</name><time>2016-12-28T19:40:46Z</time></trkpt>
   <trkpt lat="30.905377" lon="34.756692"><ele>462.5</ele><name>TP01890</name><time>2016-12-28T19:40:49Z</time></trkpt>
   <trkpt lat="30.905404" lon="34.756678"><ele>462.2</ele><name>TP01891</name><time>2016-12-28T19:40:50Z</time></trkpt>
   <trkpt lat="30.905433" lon="34.756657"><ele>462.2</ele><name>TP01892</name><time>2016-12-28T19:40:51Z</time></trkpt>
   <trkpt lat="30.905463" lon="34.756641"><ele>462.5</ele><name>TP01893</name><time>2016-12-28T19:40:52Z</time></trkpt>
   <trkpt lat="30.905492" lon="34.756627"><ele>462.8</ele><name>TP01894</name><time>2016-12-28T19:40:53Z</time></trkpt>
   <trkpt lat="30.905521" lon="34.756607"><ele>463</ele><name>TP01895</name><time>2016-12-28T19:40:54Z</time></trkpt>
   <trkpt lat="30.905544" lon="34.756577"><ele>463.1</ele><name>TP01896</name><time>2016-12-28T19:40:57Z</time></trkpt>
   <trkpt lat="30.905576" lon="34.756567"><ele>463.4</ele><name>TP01897</name><time>2016-12-28T19:41:00Z</time></trkpt>
   <trkpt lat="30.905613" lon="34.756532"><ele>463.6</ele><name>TP01898</name><time>2016-12-28T19:41:02Z</time></trkpt>
   <trkpt lat="30.905649" lon="34.756505"><ele>463.7</ele><name>TP01899</name><time>2016-12-28T19:41:04Z</time></trkpt>
   <trkpt lat="30.905674" lon="34.756483"><ele>463.8</ele><name>TP01900</name><time>2016-12-28T19:41:05Z</time></trkpt>
   <trkpt lat="30.905701" lon="34.756461"><ele>463.9</ele><name>TP01901</name><time>2016-12-28T19:41:06Z</time></trkpt>
   <trkpt lat="30.905726" lon="34.756442"><ele>464</ele><name>TP01902</name><time>2016-12-28T19:41:07Z</time></trkpt>
   <trkpt lat="30.905751" lon="34.756425"><ele>464.1</ele><name>TP01903</name><time>2016-12-28T19:41:08Z</time></trkpt>
   <trkpt lat="30.905775" lon="34.756407"><ele>464.1</ele><name>TP01904</name><time>2016-12-28T19:41:09Z</time></trkpt>
   <trkpt lat="30.905842" lon="34.756366"><ele>464.3</ele><name>TP01905</name><time>2016-12-28T19:41:12Z</time></trkpt>
   <trkpt lat="30.905888" lon="34.756361"><ele>464.7</ele><name>TP01906</name><time>2016-12-28T19:41:14Z</time></trkpt>
   <trkpt lat="30.905931" lon="34.756367"><ele>465.1</ele><name>TP01907</name><time>2016-12-28T19:41:16Z</time></trkpt>
   <trkpt lat="30.905971" lon="34.756372"><ele>465.6</ele><name>TP01908</name><time>2016-12-28T19:41:18Z</time></trkpt>
   <trkpt lat="30.906008" lon="34.756367"><ele>465.8</ele><name>TP01909</name><time>2016-12-28T19:41:20Z</time></trkpt>
   <trkpt lat="30.906045" lon="34.756364"><ele>466.1</ele><name>TP01910</name><time>2016-12-28T19:41:22Z</time></trkpt>
   <trkpt lat="30.906085" lon="34.756362"><ele>466.4</ele><name>TP01911</name><time>2016-12-28T19:41:24Z</time></trkpt>
   <trkpt lat="30.906126" lon="34.756362"><ele>466.8</ele><name>TP01912</name><time>2016-12-28T19:41:26Z</time></trkpt>
   <trkpt lat="30.906167" lon="34.756351"><ele>467</ele><name>TP01913</name><time>2016-12-28T19:41:28Z</time></trkpt>
   <trkpt lat="30.906194" lon="34.756338"><ele>467</ele><name>TP01914</name><time>2016-12-28T19:41:30Z</time></trkpt>
   <trkpt lat="30.906231" lon="34.756322"><ele>467.1</ele><name>TP01915</name><time>2016-12-28T19:41:32Z</time></trkpt>
   <trkpt lat="30.90628" lon="34.756308"><ele>467.8</ele><name>TP01916</name><time>2016-12-28T19:41:34Z</time></trkpt>
   <trkpt lat="30.906323" lon="34.756306"><ele>469.1</ele><name>TP01917</name><time>2016-12-28T19:41:36Z</time></trkpt>
   <trkpt lat="30.906369" lon="34.756301"><ele>470.3</ele><name>TP01918</name><time>2016-12-28T19:41:38Z</time></trkpt>
   <trkpt lat="30.906414" lon="34.756287"><ele>471.4</ele><name>TP01919</name><time>2016-12-28T19:41:40Z</time></trkpt>
   <trkpt lat="30.906446" lon="34.756271"><ele>472</ele><name>TP01920</name><time>2016-12-28T19:41:42Z</time></trkpt>
   <trkpt lat="30.906475" lon="34.756252"><ele>472.5</ele><name>TP01921</name><time>2016-12-28T19:41:44Z</time></trkpt>
   <trkpt lat="30.906507" lon="34.756237"><ele>473.3</ele><name>TP01922</name><time>2016-12-28T19:41:46Z</time></trkpt>
   <trkpt lat="30.906533" lon="34.756222"><ele>473.8</ele><name>TP01923</name><time>2016-12-28T19:41:48Z</time></trkpt>
   <trkpt lat="30.906562" lon="34.756205"><ele>474.4</ele><name>TP01924</name><time>2016-12-28T19:41:50Z</time></trkpt>
   <trkpt lat="30.906597" lon="34.756186"><ele>475.1</ele><name>TP01925</name><time>2016-12-28T19:41:52Z</time></trkpt>
   <trkpt lat="30.906624" lon="34.756169"><ele>475.7</ele><name>TP01926</name><time>2016-12-28T19:41:55Z</time></trkpt>
   <trkpt lat="30.906656" lon="34.756158"><ele>476.4</ele><name>TP01927</name><time>2016-12-28T19:41:58Z</time></trkpt>
   <trkpt lat="30.906691" lon="34.756152"><ele>477.2</ele><name>TP01928</name><time>2016-12-28T19:42:00Z</time></trkpt>
   <trkpt lat="30.906723" lon="34.756141"><ele>477.9</ele><name>TP01929</name><time>2016-12-28T19:42:02Z</time></trkpt>
   <trkpt lat="30.906758" lon="34.756141"><ele>478.9</ele><name>TP01930</name><time>2016-12-28T19:42:04Z</time></trkpt>
   <trkpt lat="30.906795" lon="34.756144"><ele>479.9</ele><name>TP01931</name><time>2016-12-28T19:42:06Z</time></trkpt>
   <trkpt lat="30.906833" lon="34.756146"><ele>481</ele><name>TP01932</name><time>2016-12-28T19:42:08Z</time></trkpt>
   <trkpt lat="30.906868" lon="34.756151"><ele>482</ele><name>TP01933</name><time>2016-12-28T19:42:11Z</time></trkpt>
   <trkpt lat="30.906897" lon="34.756153"><ele>482.9</ele><name>TP01934</name><time>2016-12-28T19:42:13Z</time></trkpt>
   <trkpt lat="30.906927" lon="34.756154"><ele>483.7</ele><name>TP01935</name><time>2016-12-28T19:42:15Z</time></trkpt>
   <trkpt lat="30.90696" lon="34.756157"><ele>484.6</ele><name>TP01936</name><time>2016-12-28T19:42:18Z</time></trkpt>
   <trkpt lat="30.906989" lon="34.756152"><ele>485.3</ele><name>TP01937</name><time>2016-12-28T19:42:20Z</time></trkpt>
   <trkpt lat="30.907019" lon="34.756146"><ele>486</ele><name>TP01938</name><time>2016-12-28T19:42:22Z</time></trkpt>
   <trkpt lat="30.90705" lon="34.756134"><ele>486.6</ele><name>TP01939</name><time>2016-12-28T19:42:24Z</time></trkpt>
   <trkpt lat="30.907081" lon="34.756117"><ele>487.1</ele><name>TP01940</name><time>2016-12-28T19:42:26Z</time></trkpt>
   <trkpt lat="30.907112" lon="34.756099"><ele>487.3</ele><name>TP01941</name><time>2016-12-28T19:42:28Z</time></trkpt>
   <trkpt lat="30.907148" lon="34.756073"><ele>487.4</ele><name>TP01942</name><time>2016-12-28T19:42:30Z</time></trkpt>
   <trkpt lat="30.907178" lon="34.75604"><ele>487.3</ele><name>TP01943</name><time>2016-12-28T19:42:32Z</time></trkpt>
   <trkpt lat="30.907196" lon="34.75601"><ele>487</ele><name>TP01944</name><time>2016-12-28T19:42:34Z</time></trkpt>
   <trkpt lat="30.907215" lon="34.755976"><ele>486.7</ele><name>TP01945</name><time>2016-12-28T19:42:36Z</time></trkpt>
   <trkpt lat="30.907238" lon="34.755948"><ele>486.5</ele><name>TP01946</name><time>2016-12-28T19:42:38Z</time></trkpt>
   <trkpt lat="30.907267" lon="34.755933"><ele>486.8</ele><name>TP01947</name><time>2016-12-28T19:42:40Z</time></trkpt>
   <trkpt lat="30.907297" lon="34.755922"><ele>487.1</ele><name>TP01948</name><time>2016-12-28T19:42:42Z</time></trkpt>
   <trkpt lat="30.907338" lon="34.755906"><ele>487.6</ele><name>TP01949</name><time>2016-12-28T19:42:45Z</time></trkpt>
   <trkpt lat="30.907369" lon="34.755879"><ele>487.6</ele><name>TP01950</name><time>2016-12-28T19:42:47Z</time></trkpt>
   <trkpt lat="30.907387" lon="34.755848"><ele>487.3</ele><name>TP01951</name><time>2016-12-28T19:42:49Z</time></trkpt>
   <trkpt lat="30.907412" lon="34.755818"><ele>487.2</ele><name>TP01952</name><time>2016-12-28T19:42:51Z</time></trkpt>
   <trkpt lat="30.907437" lon="34.755792"><ele>487.1</ele><name>TP01953</name><time>2016-12-28T19:42:53Z</time></trkpt>
   <trkpt lat="30.907457" lon="34.755762"><ele>486.9</ele><name>TP01954</name><time>2016-12-28T19:42:55Z</time></trkpt>
   <trkpt lat="30.907473" lon="34.755724"><ele>486.4</ele><name>TP01955</name><time>2016-12-28T19:42:57Z</time></trkpt>
   <trkpt lat="30.907487" lon="34.755691"><ele>486</ele><name>TP01956</name><time>2016-12-28T19:42:59Z</time></trkpt>
   <trkpt lat="30.907507" lon="34.755655"><ele>485.6</ele><name>TP01957</name><time>2016-12-28T19:43:01Z</time></trkpt>
   <trkpt lat="30.907525" lon="34.755619"><ele>485.3</ele><name>TP01958</name><time>2016-12-28T19:43:03Z</time></trkpt>
   <trkpt lat="30.907543" lon="34.755585"><ele>484.9</ele><name>TP01959</name><time>2016-12-28T19:43:05Z</time></trkpt>
   <trkpt lat="30.907581" lon="34.755587"><ele>485.7</ele><name>TP01960</name><time>2016-12-28T19:43:08Z</time></trkpt>
   <trkpt lat="30.907609" lon="34.755598"><ele>486.5</ele><name>TP01961</name><time>2016-12-28T19:43:10Z</time></trkpt>
   <trkpt lat="30.907638" lon="34.755613"><ele>487.4</ele><name>TP01962</name><time>2016-12-28T19:43:12Z</time></trkpt>
   <trkpt lat="30.907666" lon="34.75563"><ele>488.3</ele><name>TP01963</name><time>2016-12-28T19:43:14Z</time></trkpt>
   <trkpt lat="30.907691" lon="34.755644"><ele>489.1</ele><name>TP01964</name><time>2016-12-28T19:43:16Z</time></trkpt>
   <trkpt lat="30.907719" lon="34.75566"><ele>490</ele><name>TP01965</name><time>2016-12-28T19:43:18Z</time></trkpt>
   <trkpt lat="30.907746" lon="34.75567"><ele>490.7</ele><name>TP01966</name><time>2016-12-28T19:43:20Z</time></trkpt>
   <trkpt lat="30.907773" lon="34.755674"><ele>491.4</ele><name>TP01967</name><time>2016-12-28T19:43:22Z</time></trkpt>
   <trkpt lat="30.907801" lon="34.755678"><ele>492</ele><name>TP01968</name><time>2016-12-28T19:43:24Z</time></trkpt>
   <trkpt lat="30.907831" lon="34.755681"><ele>492.7</ele><name>TP01969</name><time>2016-12-28T19:43:26Z</time></trkpt>
   <trkpt lat="30.907865" lon="34.755691"><ele>493.6</ele><name>TP01970</name><time>2016-12-28T19:43:28Z</time></trkpt>
   <trkpt lat="30.907895" lon="34.755689"><ele>494.1</ele><name>TP01971</name><time>2016-12-28T19:43:30Z</time></trkpt>
   <trkpt lat="30.907925" lon="34.755685"><ele>494.6</ele><name>TP01972</name><time>2016-12-28T19:43:32Z</time></trkpt>
   <trkpt lat="30.907954" lon="34.755681"><ele>494.9</ele><name>TP01973</name><time>2016-12-28T19:43:34Z</time></trkpt>
   <trkpt lat="30.907982" lon="34.755685"><ele>495.4</ele><name>TP01974</name><time>2016-12-28T19:43:36Z</time></trkpt>
   <trkpt lat="30.908013" lon="34.75569"><ele>495.9</ele><name>TP01975</name><time>2016-12-28T19:43:38Z</time></trkpt>
   <trkpt lat="30.908053" lon="34.755702"><ele>496.7</ele><name>TP01976</name><time>2016-12-28T19:43:41Z</time></trkpt>
   <trkpt lat="30.908081" lon="34.7557"><ele>497</ele><name>TP01977</name><time>2016-12-28T19:43:43Z</time></trkpt>
   <trkpt lat="30.908111" lon="34.755702"><ele>497.5</ele><name>TP01978</name><time>2016-12-28T19:43:45Z</time></trkpt>
   <trkpt lat="30.908146" lon="34.7557"><ele>497.9</ele><name>TP01979</name><time>2016-12-28T19:43:47Z</time></trkpt>
   <trkpt lat="30.908178" lon="34.755703"><ele>498.4</ele><name>TP01980</name><time>2016-12-28T19:43:51Z</time></trkpt>
   <trkpt lat="30.908222" lon="34.755695"><ele>498.9</ele><name>TP01981</name><time>2016-12-28T19:43:54Z</time></trkpt>
   <trkpt lat="30.908262" lon="34.755687"><ele>499.4</ele><name>TP01982</name><time>2016-12-28T19:43:56Z</time></trkpt>
   <trkpt lat="30.908299" lon="34.755679"><ele>499.9</ele><name>TP01983</name><time>2016-12-28T19:43:58Z</time></trkpt>
   <trkpt lat="30.908336" lon="34.755673"><ele>500.4</ele><name>TP01984</name><time>2016-12-28T19:44:00Z</time></trkpt>
   <trkpt lat="30.908371" lon="34.755672"><ele>500.9</ele><name>TP01985</name><time>2016-12-28T19:44:02Z</time></trkpt>
   <trkpt lat="30.908407" lon="34.755673"><ele>501.5</ele><name>TP01986</name><time>2016-12-28T19:44:04Z</time></trkpt>
   <trkpt lat="30.908438" lon="34.755673"><ele>501.9</ele><name>TP01987</name><time>2016-12-28T19:44:06Z</time></trkpt>
   <trkpt lat="30.90847" lon="34.755668"><ele>502.4</ele><name>TP01988</name><time>2016-12-28T19:44:08Z</time></trkpt>
   <trkpt lat="30.908501" lon="34.755657"><ele>502.9</ele><name>TP01989</name><time>2016-12-28T19:44:10Z</time></trkpt>
   <trkpt lat="30.908534" lon="34.755639"><ele>503.4</ele><name>TP01990</name><time>2016-12-28T19:44:12Z</time></trkpt>
   <trkpt lat="30.908564" lon="34.755619"><ele>503.9</ele><name>TP01991</name><time>2016-12-28T19:44:14Z</time></trkpt>
   <trkpt lat="30.908597" lon="34.755599"><ele>504.6</ele><name>TP01992</name><time>2016-12-28T19:44:16Z</time></trkpt>
   <trkpt lat="30.908634" lon="34.755576"><ele>505.4</ele><name>TP01993</name><time>2016-12-28T19:44:18Z</time></trkpt>
   <trkpt lat="30.908669" lon="34.755554"><ele>506.1</ele><name>TP01994</name><time>2016-12-28T19:44:20Z</time></trkpt>
   <trkpt lat="30.908705" lon="34.75553"><ele>507</ele><name>TP01995</name><time>2016-12-28T19:44:22Z</time></trkpt>
   <trkpt lat="30.908737" lon="34.755504"><ele>507.9</ele><name>TP01996</name><time>2016-12-28T19:44:24Z</time></trkpt>
   <trkpt lat="30.908766" lon="34.755475"><ele>508.2</ele><name>TP01997</name><time>2016-12-28T19:44:26Z</time></trkpt>
   <trkpt lat="30.908795" lon="34.755444"><ele>508</ele><name>TP01998</name><time>2016-12-28T19:44:28Z</time></trkpt>
   <trkpt lat="30.908824" lon="34.755412"><ele>507.9</ele><name>TP01999</name><time>2016-12-28T19:44:30Z</time></trkpt>
   <trkpt lat="30.908857" lon="34.755379"><ele>507.8</ele><name>TP02000</name><time>2016-12-28T19:44:32Z</time></trkpt>
   <trkpt lat="30.908895" lon="34.755342"><ele>507.7</ele><name>TP02001</name><time>2016-12-28T19:44:34Z</time></trkpt>
   <trkpt lat="30.908934" lon="34.755303"><ele>507.6</ele><name>TP02002</name><time>2016-12-28T19:44:36Z</time></trkpt>
   <trkpt lat="30.90897" lon="34.755266"><ele>507.5</ele><name>TP02003</name><time>2016-12-28T19:44:38Z</time></trkpt>
   <trkpt lat="30.909004" lon="34.755232"><ele>507.4</ele><name>TP02004</name><time>2016-12-28T19:44:40Z</time></trkpt>
   <trkpt lat="30.909028" lon="34.755201"><ele>507.4</ele><name>TP02005</name><time>2016-12-28T19:44:42Z</time></trkpt>
   <trkpt lat="30.909048" lon="34.755166"><ele>507.6</ele><name>TP02006</name><time>2016-12-28T19:44:44Z</time></trkpt>
   <trkpt lat="30.909066" lon="34.755124"><ele>507.8</ele><name>TP02007</name><time>2016-12-28T19:44:46Z</time></trkpt>
   <trkpt lat="30.909087" lon="34.755083"><ele>508.1</ele><name>TP02008</name><time>2016-12-28T19:44:48Z</time></trkpt>
   <trkpt lat="30.909112" lon="34.755051"><ele>508.1</ele><name>TP02009</name><time>2016-12-28T19:44:50Z</time></trkpt>
   <trkpt lat="30.909139" lon="34.755024"><ele>508.1</ele><name>TP02010</name><time>2016-12-28T19:44:52Z</time></trkpt>
   <trkpt lat="30.909164" lon="34.755004"><ele>508</ele><name>TP02011</name><time>2016-12-28T19:44:54Z</time></trkpt>
   <trkpt lat="30.909191" lon="34.754981"><ele>507.9</ele><name>TP02012</name><time>2016-12-28T19:44:56Z</time></trkpt>
   <trkpt lat="30.909212" lon="34.75495"><ele>508</ele><name>TP02013</name><time>2016-12-28T19:44:58Z</time></trkpt>
   <trkpt lat="30.909229" lon="34.754915"><ele>508.2</ele><name>TP02014</name><time>2016-12-28T19:45:00Z</time></trkpt>
   <trkpt lat="30.909249" lon="34.754879"><ele>508.4</ele><name>TP02015</name><time>2016-12-28T19:45:02Z</time></trkpt>
   <trkpt lat="30.909267" lon="34.754849"><ele>508.6</ele><name>TP02016</name><time>2016-12-28T19:45:04Z</time></trkpt>
   <trkpt lat="30.909282" lon="34.75482"><ele>508.8</ele><name>TP02017</name><time>2016-12-28T19:45:06Z</time></trkpt>
   <trkpt lat="30.909299" lon="34.754788"><ele>509</ele><name>TP02018</name><time>2016-12-28T19:45:08Z</time></trkpt>
   <trkpt lat="30.909318" lon="34.75475"><ele>509.2</ele><name>TP02019</name><time>2016-12-28T19:45:10Z</time></trkpt>
   <trkpt lat="30.909336" lon="34.754714"><ele>509.5</ele><name>TP02020</name><time>2016-12-28T19:45:12Z</time></trkpt>
   <trkpt lat="30.909359" lon="34.754678"><ele>509.7</ele><name>TP02021</name><time>2016-12-28T19:45:14Z</time></trkpt>
   <trkpt lat="30.909379" lon="34.754645"><ele>509.8</ele><name>TP02022</name><time>2016-12-28T19:45:16Z</time></trkpt>
   <trkpt lat="30.909394" lon="34.754615"><ele>510.1</ele><name>TP02023</name><time>2016-12-28T19:45:18Z</time></trkpt>
   <trkpt lat="30.909409" lon="34.754581"><ele>510.3</ele><name>TP02024</name><time>2016-12-28T19:45:20Z</time></trkpt>
   <trkpt lat="30.909435" lon="34.754537"><ele>510.7</ele><name>TP02025</name><time>2016-12-28T19:45:22Z</time></trkpt>
   <trkpt lat="30.909463" lon="34.754495"><ele>511</ele><name>TP02026</name><time>2016-12-28T19:45:24Z</time></trkpt>
   <trkpt lat="30.909487" lon="34.754452"><ele>511.4</ele><name>TP02027</name><time>2016-12-28T19:45:26Z</time></trkpt>
   <trkpt lat="30.909514" lon="34.754406"><ele>512</ele><name>TP02028</name><time>2016-12-28T19:45:28Z</time></trkpt>
   <trkpt lat="30.909542" lon="34.754365"><ele>512.5</ele><name>TP02029</name><time>2016-12-28T19:45:30Z</time></trkpt>
   <trkpt lat="30.909554" lon="34.754329"><ele>513.1</ele><name>TP02030</name><time>2016-12-28T19:45:33Z</time></trkpt>
   <trkpt lat="30.90957" lon="34.754275"><ele>514</ele><name>TP02031</name><time>2016-12-28T19:45:35Z</time></trkpt>
   <trkpt lat="30.909598" lon="34.75423"><ele>514.8</ele><name>TP02032</name><time>2016-12-28T19:45:39Z</time></trkpt>
   <trkpt lat="30.909636" lon="34.7542"><ele>515.5</ele><name>TP02033</name><time>2016-12-28T19:45:41Z</time></trkpt>
   <trkpt lat="30.909649" lon="34.75417"><ele>516.1</ele><name>TP02034</name><time>2016-12-28T19:45:42Z</time></trkpt>
   <trkpt lat="30.90966" lon="34.754138"><ele>516.7</ele><name>TP02035</name><time>2016-12-28T19:45:43Z</time></trkpt>
   <trkpt lat="30.909667" lon="34.754106"><ele>517.3</ele><name>TP02036</name><time>2016-12-28T19:45:44Z</time></trkpt>
   <trkpt lat="30.909671" lon="34.754073"><ele>518</ele><name>TP02037</name><time>2016-12-28T19:45:45Z</time></trkpt>
   <trkpt lat="30.909682" lon="34.754004"><ele>519.3</ele><name>TP02038</name><time>2016-12-28T19:45:47Z</time></trkpt>
   <trkpt lat="30.909686" lon="34.753964"><ele>520.1</ele><name>TP02039</name><time>2016-12-28T19:45:48Z</time></trkpt>
   <trkpt lat="30.90969" lon="34.753924"><ele>520.9</ele><name>TP02040</name><time>2016-12-28T19:45:49Z</time></trkpt>
   <trkpt lat="30.909694" lon="34.753887"><ele>521.6</ele><name>TP02041</name><time>2016-12-28T19:45:50Z</time></trkpt>
   <trkpt lat="30.909699" lon="34.753847"><ele>522.4</ele><name>TP02042</name><time>2016-12-28T19:45:51Z</time></trkpt>
   <trkpt lat="30.90971" lon="34.753796"><ele>523.4</ele><name>TP02043</name><time>2016-12-28T19:45:52Z</time></trkpt>
   <trkpt lat="30.909723" lon="34.753752"><ele>524.3</ele><name>TP02044</name><time>2016-12-28T19:45:53Z</time></trkpt>
   <trkpt lat="30.909737" lon="34.753706"><ele>525</ele><name>TP02045</name><time>2016-12-28T19:45:54Z</time></trkpt>
   <trkpt lat="30.909749" lon="34.753664"><ele>525.5</ele><name>TP02046</name><time>2016-12-28T19:45:55Z</time></trkpt>
   <trkpt lat="30.909759" lon="34.753625"><ele>526.1</ele><name>TP02047</name><time>2016-12-28T19:45:56Z</time></trkpt>
   <trkpt lat="30.909771" lon="34.753587"><ele>526.6</ele><name>TP02048</name><time>2016-12-28T19:45:57Z</time></trkpt>
   <trkpt lat="30.909786" lon="34.753556"><ele>527</ele><name>TP02049</name><time>2016-12-28T19:45:58Z</time></trkpt>
   <trkpt lat="30.909806" lon="34.753528"><ele>527.4</ele><name>TP02050</name><time>2016-12-28T19:45:59Z</time></trkpt>
   <trkpt lat="30.909844" lon="34.75349"><ele>527.9</ele><name>TP02051</name><time>2016-12-28T19:46:01Z</time></trkpt>
   <trkpt lat="30.909873" lon="34.753471"><ele>528.1</ele><name>TP02052</name><time>2016-12-28T19:46:02Z</time></trkpt>
   <trkpt lat="30.909907" lon="34.753452"><ele>528.4</ele><name>TP02053</name><time>2016-12-28T19:46:03Z</time></trkpt>
   <trkpt lat="30.90994" lon="34.753435"><ele>528.6</ele><name>TP02054</name><time>2016-12-28T19:46:04Z</time></trkpt>
   <trkpt lat="30.90997" lon="34.753422"><ele>528.7</ele><name>TP02055</name><time>2016-12-28T19:46:05Z</time></trkpt>
   <trkpt lat="30.909999" lon="34.753408"><ele>528.9</ele><name>TP02056</name><time>2016-12-28T19:46:06Z</time></trkpt>
   <trkpt lat="30.910043" lon="34.753388"><ele>529.1</ele><name>TP02057</name><time>2016-12-28T19:46:08Z</time></trkpt>
   <trkpt lat="30.910071" lon="34.753376"><ele>529.2</ele><name>TP02058</name><time>2016-12-28T19:46:09Z</time></trkpt>
   <trkpt lat="30.910099" lon="34.753363"><ele>529.4</ele><name>TP02059</name><time>2016-12-28T19:46:10Z</time></trkpt>
   <trkpt lat="30.910126" lon="34.753352"><ele>529.5</ele><name>TP02060</name><time>2016-12-28T19:46:11Z</time></trkpt>
   <trkpt lat="30.910169" lon="34.753335"><ele>529.6</ele><name>TP02061</name><time>2016-12-28T19:46:13Z</time></trkpt>
   <trkpt lat="30.910197" lon="34.753321"><ele>529.8</ele><name>TP02062</name><time>2016-12-28T19:46:14Z</time></trkpt>
   <trkpt lat="30.910229" lon="34.753305"><ele>529.9</ele><name>TP02063</name><time>2016-12-28T19:46:16Z</time></trkpt>
   <trkpt lat="30.910288" lon="34.753301"><ele>529.9</ele><name>TP02064</name><time>2016-12-28T19:46:18Z</time></trkpt>
   <trkpt lat="30.910324" lon="34.753301"><ele>529.8</ele><name>TP02065</name><time>2016-12-28T19:46:19Z</time></trkpt>
   <trkpt lat="30.910355" lon="34.753298"><ele>529.8</ele><name>TP02066</name><time>2016-12-28T19:46:20Z</time></trkpt>
   <trkpt lat="30.910406" lon="34.75329"><ele>529.9</ele><name>TP02067</name><time>2016-12-28T19:46:22Z</time></trkpt>
   <trkpt lat="30.910457" lon="34.753289"><ele>530.1</ele><name>TP02068</name><time>2016-12-28T19:46:24Z</time></trkpt>
   <trkpt lat="30.910503" lon="34.753288"><ele>530.3</ele><name>TP02069</name><time>2016-12-28T19:46:26Z</time></trkpt>
   <trkpt lat="30.910538" lon="34.75329"><ele>530.4</ele><name>TP02070</name><time>2016-12-28T19:46:28Z</time></trkpt>
   <trkpt lat="30.910581" lon="34.753292"><ele>530.6</ele><name>TP02071</name><time>2016-12-28T19:46:30Z</time></trkpt>
   <trkpt lat="30.91061" lon="34.753291"><ele>530.7</ele><name>TP02072</name><time>2016-12-28T19:46:31Z</time></trkpt>
   <trkpt lat="30.910647" lon="34.753281"><ele>531</ele><name>TP02073</name><time>2016-12-28T19:46:33Z</time></trkpt>
   <trkpt lat="30.910674" lon="34.753273"><ele>531.2</ele><name>TP02074</name><time>2016-12-28T19:46:34Z</time></trkpt>
   <trkpt lat="30.910713" lon="34.753263"><ele>531.4</ele><name>TP02075</name><time>2016-12-28T19:46:36Z</time></trkpt>
   <trkpt lat="30.910741" lon="34.753259"><ele>531.5</ele><name>TP02076</name><time>2016-12-28T19:46:37Z</time></trkpt>
   <trkpt lat="30.91077" lon="34.753255"><ele>531.7</ele><name>TP02077</name><time>2016-12-28T19:46:38Z</time></trkpt>
   <trkpt lat="30.910799" lon="34.753249"><ele>531.9</ele><name>TP02078</name><time>2016-12-28T19:46:39Z</time></trkpt>
   <trkpt lat="30.910837" lon="34.753238"><ele>532.1</ele><name>TP02079</name><time>2016-12-28T19:46:41Z</time></trkpt>
   <trkpt lat="30.910897" lon="34.753233"><ele>532.4</ele><name>TP02080</name><time>2016-12-28T19:46:43Z</time></trkpt>
   <trkpt lat="30.910931" lon="34.753233"><ele>532.5</ele><name>TP02081</name><time>2016-12-28T19:46:44Z</time></trkpt>
   <trkpt lat="30.910961" lon="34.753234"><ele>532.6</ele><name>TP02082</name><time>2016-12-28T19:46:45Z</time></trkpt>
   <trkpt lat="30.910988" lon="34.753239"><ele>532.7</ele><name>TP02083</name><time>2016-12-28T19:46:46Z</time></trkpt>
   <trkpt lat="30.911035" lon="34.753262"><ele>532.8</ele><name>TP02084</name><time>2016-12-28T19:46:48Z</time></trkpt>
   <trkpt lat="30.911073" lon="34.753299"><ele>532.8</ele><name>TP02085</name><time>2016-12-28T19:46:50Z</time></trkpt>
   <trkpt lat="30.911107" lon="34.753342"><ele>532.8</ele><name>TP02086</name><time>2016-12-28T19:46:52Z</time></trkpt>
   <trkpt lat="30.911141" lon="34.753377"><ele>532.8</ele><name>TP02087</name><time>2016-12-28T19:46:54Z</time></trkpt>
   <trkpt lat="30.911176" lon="34.753399"><ele>532.9</ele><name>TP02088</name><time>2016-12-28T19:46:56Z</time></trkpt>
   <trkpt lat="30.911217" lon="34.753407"><ele>533.1</ele><name>TP02089</name><time>2016-12-28T19:46:58Z</time></trkpt>
   <trkpt lat="30.911266" lon="34.753396"><ele>533.4</ele><name>TP02090</name><time>2016-12-28T19:47:00Z</time></trkpt>
   <trkpt lat="30.911308" lon="34.753371"><ele>533.8</ele><name>TP02091</name><time>2016-12-28T19:47:02Z</time></trkpt>
   <trkpt lat="30.91135" lon="34.753353"><ele>534.1</ele><name>TP02092</name><time>2016-12-28T19:47:04Z</time></trkpt>
   <trkpt lat="30.911397" lon="34.753336"><ele>534.5</ele><name>TP02093</name><time>2016-12-28T19:47:06Z</time></trkpt>
   <trkpt lat="30.911434" lon="34.753314"><ele>534.8</ele><name>TP02094</name><time>2016-12-28T19:47:08Z</time></trkpt>
   <trkpt lat="30.911472" lon="34.753294"><ele>535.1</ele><name>TP02095</name><time>2016-12-28T19:47:10Z</time></trkpt>
   <trkpt lat="30.911516" lon="34.753266"><ele>535.5</ele><name>TP02096</name><time>2016-12-28T19:47:12Z</time></trkpt>
   <trkpt lat="30.911553" lon="34.753235"><ele>535.8</ele><name>TP02097</name><time>2016-12-28T19:47:14Z</time></trkpt>
   <trkpt lat="30.911589" lon="34.753209"><ele>536.1</ele><name>TP02098</name><time>2016-12-28T19:47:16Z</time></trkpt>
   <trkpt lat="30.911619" lon="34.753193"><ele>536.4</ele><name>TP02099</name><time>2016-12-28T19:47:18Z</time></trkpt>
   <trkpt lat="30.911652" lon="34.753178"><ele>536.6</ele><name>TP02100</name><time>2016-12-28T19:47:20Z</time></trkpt>
   <trkpt lat="30.911691" lon="34.753161"><ele>536.9</ele><name>TP02101</name><time>2016-12-28T19:47:22Z</time></trkpt>
   <trkpt lat="30.911736" lon="34.753154"><ele>537.2</ele><name>TP02102</name><time>2016-12-28T19:47:24Z</time></trkpt>
   <trkpt lat="30.911785" lon="34.75316"><ele>537.5</ele><name>TP02103</name><time>2016-12-28T19:47:26Z</time></trkpt>
   <trkpt lat="30.911838" lon="34.753172"><ele>537.8</ele><name>TP02104</name><time>2016-12-28T19:47:28Z</time></trkpt>
   <trkpt lat="30.911864" lon="34.753182"><ele>538</ele><name>TP02105</name><time>2016-12-28T19:47:29Z</time></trkpt>
   <trkpt lat="30.911891" lon="34.753196"><ele>538.1</ele><name>TP02106</name><time>2016-12-28T19:47:30Z</time></trkpt>
   <trkpt lat="30.911931" lon="34.753225"><ele>538.3</ele><name>TP02107</name><time>2016-12-28T19:47:32Z</time></trkpt>
   <trkpt lat="30.911973" lon="34.753249"><ele>538.5</ele><name>TP02108</name><time>2016-12-28T19:47:34Z</time></trkpt>
   <trkpt lat="30.911991" lon="34.753223"><ele>538.7</ele><name>TP02109</name><time>2016-12-28T19:47:36Z</time></trkpt>
   <trkpt lat="30.91204" lon="34.753239"><ele>538.9</ele><name>TP02110</name><time>2016-12-28T19:47:38Z</time></trkpt>
   <trkpt lat="30.912067" lon="34.753253"><ele>539.1</ele><name>TP02111</name><time>2016-12-28T19:47:39Z</time></trkpt>
   <trkpt lat="30.912095" lon="34.753269"><ele>539</ele><name>TP02112</name><time>2016-12-28T19:47:40Z</time></trkpt>
   <trkpt lat="30.912141" lon="34.753299"><ele>538.6</ele><name>TP02113</name><time>2016-12-28T19:47:42Z</time></trkpt>
   <trkpt lat="30.912166" lon="34.75333"><ele>538.4</ele><name>TP02114</name><time>2016-12-28T19:47:44Z</time></trkpt>
   <trkpt lat="30.912201" lon="34.753361"><ele>538.1</ele><name>TP02115</name><time>2016-12-28T19:47:46Z</time></trkpt>
   <trkpt lat="30.912247" lon="34.753365"><ele>537.8</ele><name>TP02116</name><time>2016-12-28T19:47:48Z</time></trkpt>
   <trkpt lat="30.912286" lon="34.753359"><ele>537.5</ele><name>TP02117</name><time>2016-12-28T19:47:50Z</time></trkpt>
   <trkpt lat="30.912324" lon="34.753356"><ele>537.2</ele><name>TP02118</name><time>2016-12-28T19:47:52Z</time></trkpt>
   <trkpt lat="30.912358" lon="34.753373"><ele>537</ele><name>TP02119</name><time>2016-12-28T19:47:54Z</time></trkpt>
   <trkpt lat="30.912392" lon="34.753397"><ele>536.9</ele><name>TP02120</name><time>2016-12-28T19:47:56Z</time></trkpt>
   <trkpt lat="30.912419" lon="34.753414"><ele>536.8</ele><name>TP02121</name><time>2016-12-28T19:47:58Z</time></trkpt>
   <trkpt lat="30.91245" lon="34.753436"><ele>536.7</ele><name>TP02122</name><time>2016-12-28T19:47:59Z</time></trkpt>
   <trkpt lat="30.912482" lon="34.753459"><ele>536.7</ele><name>TP02123</name><time>2016-12-28T19:48:00Z</time></trkpt>
   <trkpt lat="30.912516" lon="34.753482"><ele>536.7</ele><name>TP02124</name><time>2016-12-28T19:48:01Z</time></trkpt>
   <trkpt lat="30.912553" lon="34.753502"><ele>536.6</ele><name>TP02125</name><time>2016-12-28T19:48:02Z</time></trkpt>
   <trkpt lat="30.912664" lon="34.753547"><ele>536.6</ele><name>TP02126</name><time>2016-12-28T19:48:04Z</time></trkpt>
   <trkpt lat="30.912702" lon="34.753564"><ele>536.7</ele><name>TP02127</name><time>2016-12-28T19:48:05Z</time></trkpt>
   <trkpt lat="30.912746" lon="34.753584"><ele>536.8</ele><name>TP02128</name><time>2016-12-28T19:48:06Z</time></trkpt>
   <trkpt lat="30.912788" lon="34.753606"><ele>537</ele><name>TP02129</name><time>2016-12-28T19:48:07Z</time></trkpt>
   <trkpt lat="30.912829" lon="34.753624"><ele>537.2</ele><name>TP02130</name><time>2016-12-28T19:48:08Z</time></trkpt>
   <trkpt lat="30.912867" lon="34.753649"><ele>537.5</ele><name>TP02131</name><time>2016-12-28T19:48:09Z</time></trkpt>
   <trkpt lat="30.912908" lon="34.753672"><ele>537.8</ele><name>TP02132</name><time>2016-12-28T19:48:10Z</time></trkpt>
   <trkpt lat="30.912957" lon="34.753689"><ele>538.4</ele><name>TP02133</name><time>2016-12-28T19:48:11Z</time></trkpt>
   <trkpt lat="30.912999" lon="34.753691"><ele>538.8</ele><name>TP02134</name><time>2016-12-28T19:48:12Z</time></trkpt>
   <trkpt lat="30.913038" lon="34.753689"><ele>539.1</ele><name>TP02135</name><time>2016-12-28T19:48:13Z</time></trkpt>
   <trkpt lat="30.913081" lon="34.753689"><ele>539.4</ele><name>TP02136</name><time>2016-12-28T19:48:14Z</time></trkpt>
   <trkpt lat="30.913124" lon="34.753681"><ele>539.7</ele><name>TP02137</name><time>2016-12-28T19:48:15Z</time></trkpt>
   <trkpt lat="30.913155" lon="34.753666"><ele>539.7</ele><name>TP02138</name><time>2016-12-28T19:48:16Z</time></trkpt>
   <trkpt lat="30.91319" lon="34.753659"><ele>539.9</ele><name>TP02139</name><time>2016-12-28T19:48:17Z</time></trkpt>
   <trkpt lat="30.913222" lon="34.75365"><ele>540</ele><name>TP02140</name><time>2016-12-28T19:48:18Z</time></trkpt>
   <trkpt lat="30.913256" lon="34.753631"><ele>540</ele><name>TP02141</name><time>2016-12-28T19:48:20Z</time></trkpt>
   <trkpt lat="30.913291" lon="34.753603"><ele>539.9</ele><name>TP02142</name><time>2016-12-28T19:48:22Z</time></trkpt>
   <trkpt lat="30.913331" lon="34.753563"><ele>539.6</ele><name>TP02143</name><time>2016-12-28T19:48:24Z</time></trkpt>
   <trkpt lat="30.913351" lon="34.753538"><ele>539.3</ele><name>TP02144</name><time>2016-12-28T19:48:25Z</time></trkpt>
   <trkpt lat="30.913374" lon="34.75351"><ele>539.1</ele><name>TP02145</name><time>2016-12-28T19:48:26Z</time></trkpt>
   <trkpt lat="30.9134" lon="34.75348"><ele>538.8</ele><name>TP02146</name><time>2016-12-28T19:48:27Z</time></trkpt>
   <trkpt lat="30.91343" lon="34.753446"><ele>538.6</ele><name>TP02147</name><time>2016-12-28T19:48:28Z</time></trkpt>
   <trkpt lat="30.913472" lon="34.753406"><ele>538.3</ele><name>TP02148</name><time>2016-12-28T19:48:29Z</time></trkpt>
   <trkpt lat="30.913518" lon="34.75337"><ele>538.1</ele><name>TP02149</name><time>2016-12-28T19:48:30Z</time></trkpt>
   <trkpt lat="30.913565" lon="34.753339"><ele>538</ele><name>TP02150</name><time>2016-12-28T19:48:31Z</time></trkpt>
   <trkpt lat="30.913618" lon="34.753315"><ele>538.1</ele><name>TP02151</name><time>2016-12-28T19:48:32Z</time></trkpt>
   <trkpt lat="30.913677" lon="34.753299"><ele>538.4</ele><name>TP02152</name><time>2016-12-28T19:48:33Z</time></trkpt>
   <trkpt lat="30.913741" lon="34.753291"><ele>538.8</ele><name>TP02153</name><time>2016-12-28T19:48:34Z</time></trkpt>
   <trkpt lat="30.913804" lon="34.753294"><ele>539.1</ele><name>TP02154</name><time>2016-12-28T19:48:35Z</time></trkpt>
   <trkpt lat="30.913884" lon="34.753324"><ele>539.8</ele><name>TP02155</name><time>2016-12-28T19:48:36Z</time></trkpt>
   <trkpt lat="30.913993" lon="34.753296"><ele>539.8</ele><name>TP02156</name><time>2016-12-28T19:48:38Z</time></trkpt>
   <trkpt lat="30.914039" lon="34.753273"><ele>539.7</ele><name>TP02157</name><time>2016-12-28T19:48:39Z</time></trkpt>
   <trkpt lat="30.914072" lon="34.753242"><ele>539.4</ele><name>TP02158</name><time>2016-12-28T19:48:40Z</time></trkpt>
   <trkpt lat="30.914111" lon="34.753205"><ele>539.2</ele><name>TP02159</name><time>2016-12-28T19:48:41Z</time></trkpt>
   <trkpt lat="30.914148" lon="34.753165"><ele>538.9</ele><name>TP02160</name><time>2016-12-28T19:48:42Z</time></trkpt>
   <trkpt lat="30.914173" lon="34.753117"><ele>538.6</ele><name>TP02161</name><time>2016-12-28T19:48:43Z</time></trkpt>
   <trkpt lat="30.914193" lon="34.753063"><ele>538.2</ele><name>TP02162</name><time>2016-12-28T19:48:44Z</time></trkpt>
   <trkpt lat="30.914216" lon="34.753012"><ele>537.8</ele><name>TP02163</name><time>2016-12-28T19:48:45Z</time></trkpt>
   <trkpt lat="30.914239" lon="34.75296"><ele>537.5</ele><name>TP02164</name><time>2016-12-28T19:48:46Z</time></trkpt>
   <trkpt lat="30.914265" lon="34.752911"><ele>537.3</ele><name>TP02165</name><time>2016-12-28T19:48:47Z</time></trkpt>
   <trkpt lat="30.914298" lon="34.752871"><ele>537.2</ele><name>TP02166</name><time>2016-12-28T19:48:48Z</time></trkpt>
   <trkpt lat="30.914339" lon="34.752843"><ele>537.3</ele><name>TP02167</name><time>2016-12-28T19:48:49Z</time></trkpt>
   <trkpt lat="30.914387" lon="34.752827"><ele>537.6</ele><name>TP02168</name><time>2016-12-28T19:48:50Z</time></trkpt>
   <trkpt lat="30.914442" lon="34.752822"><ele>538</ele><name>TP02169</name><time>2016-12-28T19:48:51Z</time></trkpt>
   <trkpt lat="30.914499" lon="34.752826"><ele>538.6</ele><name>TP02170</name><time>2016-12-28T19:48:52Z</time></trkpt>
   <trkpt lat="30.91456" lon="34.752841"><ele>539.2</ele><name>TP02171</name><time>2016-12-28T19:48:53Z</time></trkpt>
   <trkpt lat="30.914614" lon="34.752858"><ele>539.7</ele><name>TP02172</name><time>2016-12-28T19:48:54Z</time></trkpt>
   <trkpt lat="30.914671" lon="34.75288"><ele>540</ele><name>TP02173</name><time>2016-12-28T19:48:55Z</time></trkpt>
   <trkpt lat="30.914731" lon="34.752885"><ele>540.3</ele><name>TP02174</name><time>2016-12-28T19:48:56Z</time></trkpt>
   <trkpt lat="30.914786" lon="34.75287"><ele>540.4</ele><name>TP02175</name><time>2016-12-28T19:48:57Z</time></trkpt>
   <trkpt lat="30.914844" lon="34.752853"><ele>540.4</ele><name>TP02176</name><time>2016-12-28T19:48:58Z</time></trkpt>
   <trkpt lat="30.9149" lon="34.752839"><ele>540.5</ele><name>TP02177</name><time>2016-12-28T19:48:59Z</time></trkpt>
   <trkpt lat="30.914953" lon="34.752823"><ele>540.5</ele><name>TP02178</name><time>2016-12-28T19:49:00Z</time></trkpt>
   <trkpt lat="30.915002" lon="34.752817"><ele>540.6</ele><name>TP02179</name><time>2016-12-28T19:49:01Z</time></trkpt>
   <trkpt lat="30.915043" lon="34.752787"><ele>540.5</ele><name>TP02180</name><time>2016-12-28T19:49:02Z</time></trkpt>
   <trkpt lat="30.915083" lon="34.752754"><ele>540.3</ele><name>TP02181</name><time>2016-12-28T19:49:03Z</time></trkpt>
   <trkpt lat="30.915117" lon="34.752709"><ele>539.9</ele><name>TP02182</name><time>2016-12-28T19:49:04Z</time></trkpt>
   <trkpt lat="30.91514" lon="34.752658"><ele>539.5</ele><name>TP02183</name><time>2016-12-28T19:49:05Z</time></trkpt>
   <trkpt lat="30.915157" lon="34.7526"><ele>539</ele><name>TP02184</name><time>2016-12-28T19:49:06Z</time></trkpt>
   <trkpt lat="30.915171" lon="34.752543"><ele>538.5</ele><name>TP02185</name><time>2016-12-28T19:49:07Z</time></trkpt>
   <trkpt lat="30.915179" lon="34.752479"><ele>537.9</ele><name>TP02186</name><time>2016-12-28T19:49:08Z</time></trkpt>
   <trkpt lat="30.915182" lon="34.752423"><ele>537.3</ele><name>TP02187</name><time>2016-12-28T19:49:09Z</time></trkpt>
   <trkpt lat="30.915189" lon="34.752367"><ele>536.8</ele><name>TP02188</name><time>2016-12-28T19:49:10Z</time></trkpt>
   <trkpt lat="30.915196" lon="34.752314"><ele>536.3</ele><name>TP02189</name><time>2016-12-28T19:49:11Z</time></trkpt>
   <trkpt lat="30.915212" lon="34.752219"><ele>535.3</ele><name>TP02190</name><time>2016-12-28T19:49:13Z</time></trkpt>
   <trkpt lat="30.915223" lon="34.752171"><ele>534.9</ele><name>TP02191</name><time>2016-12-28T19:49:14Z</time></trkpt>
   <trkpt lat="30.915246" lon="34.752126"><ele>534.4</ele><name>TP02192</name><time>2016-12-28T19:49:15Z</time></trkpt>
   <trkpt lat="30.915271" lon="34.752087"><ele>534</ele><name>TP02193</name><time>2016-12-28T19:49:16Z</time></trkpt>
   <trkpt lat="30.915286" lon="34.752049"><ele>533.7</ele><name>TP02194</name><time>2016-12-28T19:49:17Z</time></trkpt>
   <trkpt lat="30.915288" lon="34.752013"><ele>533.4</ele><name>TP02195</name><time>2016-12-28T19:49:18Z</time></trkpt>
   <trkpt lat="30.915285" lon="34.751981"><ele>533.1</ele><name>TP02196</name><time>2016-12-28T19:49:19Z</time></trkpt>
   <trkpt lat="30.915276" lon="34.75192"><ele>532.7</ele><name>TP02197</name><time>2016-12-28T19:49:21Z</time></trkpt>
   <trkpt lat="30.915272" lon="34.75188"><ele>532.4</ele><name>TP02198</name><time>2016-12-28T19:49:23Z</time></trkpt>
   <trkpt lat="30.915272" lon="34.751838"><ele>532</ele><name>TP02199</name><time>2016-12-28T19:49:25Z</time></trkpt>
   <trkpt lat="30.915297" lon="34.751813"><ele>531.7</ele><name>TP02200</name><time>2016-12-28T19:49:27Z</time></trkpt>
   <trkpt lat="30.915327" lon="34.751776"><ele>531.2</ele><name>TP02201</name><time>2016-12-28T19:49:29Z</time></trkpt>
   <trkpt lat="30.915346" lon="34.751743"><ele>530.8</ele><name>TP02202</name><time>2016-12-28T19:49:30Z</time></trkpt>
   <trkpt lat="30.915365" lon="34.751705"><ele>530.3</ele><name>TP02203</name><time>2016-12-28T19:49:31Z</time></trkpt>
   <trkpt lat="30.915382" lon="34.751659"><ele>529.7</ele><name>TP02204</name><time>2016-12-28T19:49:32Z</time></trkpt>
   <trkpt lat="30.915397" lon="34.751605"><ele>529</ele><name>TP02205</name><time>2016-12-28T19:49:33Z</time></trkpt>
   <trkpt lat="30.915392" lon="34.751512"><ele>528.1</ele><name>TP02206</name><time>2016-12-28T19:49:34Z</time></trkpt>
   <trkpt lat="30.915374" lon="34.751362"><ele>526.8</ele><name>TP02207</name><time>2016-12-28T19:49:36Z</time></trkpt>
   <trkpt lat="30.915379" lon="34.751291"><ele>526</ele><name>TP02208</name><time>2016-12-28T19:49:37Z</time></trkpt>
   <trkpt lat="30.915385" lon="34.751216"><ele>525.2</ele><name>TP02209</name><time>2016-12-28T19:49:38Z</time></trkpt>
   <trkpt lat="30.915383" lon="34.751144"><ele>524.5</ele><name>TP02210</name><time>2016-12-28T19:49:39Z</time></trkpt>
   <trkpt lat="30.915374" lon="34.751068"><ele>524</ele><name>TP02211</name><time>2016-12-28T19:49:40Z</time></trkpt>
   <trkpt lat="30.915352" lon="34.750996"><ele>523.7</ele><name>TP02212</name><time>2016-12-28T19:49:41Z</time></trkpt>
   <trkpt lat="30.915323" lon="34.750932"><ele>523.7</ele><name>TP02213</name><time>2016-12-28T19:49:42Z</time></trkpt>
   <trkpt lat="30.915284" lon="34.750873"><ele>523.9</ele><name>TP02214</name><time>2016-12-28T19:49:43Z</time></trkpt>
   <trkpt lat="30.915237" lon="34.750822"><ele>524.4</ele><name>TP02215</name><time>2016-12-28T19:49:44Z</time></trkpt>
   <trkpt lat="30.915186" lon="34.750764"><ele>524.9</ele><name>TP02216</name><time>2016-12-28T19:49:45Z</time></trkpt>
   <trkpt lat="30.915154" lon="34.75069"><ele>525</ele><name>TP02217</name><time>2016-12-28T19:49:46Z</time></trkpt>
   <trkpt lat="30.915138" lon="34.750609"><ele>524.7</ele><name>TP02218</name><time>2016-12-28T19:49:47Z</time></trkpt>
   <trkpt lat="30.915117" lon="34.750528"><ele>524.6</ele><name>TP02219</name><time>2016-12-28T19:49:48Z</time></trkpt>
   <trkpt lat="30.915102" lon="34.750443"><ele>524.4</ele><name>TP02220</name><time>2016-12-28T19:49:49Z</time></trkpt>
   <trkpt lat="30.915104" lon="34.750359"><ele>524</ele><name>TP02221</name><time>2016-12-28T19:49:50Z</time></trkpt>
   <trkpt lat="30.915129" lon="34.750281"><ele>523.2</ele><name>TP02222</name><time>2016-12-28T19:49:51Z</time></trkpt>
   <trkpt lat="30.915156" lon="34.750204"><ele>522.4</ele><name>TP02223</name><time>2016-12-28T19:49:52Z</time></trkpt>
   <trkpt lat="30.915173" lon="34.750144"><ele>521.8</ele><name>TP02224</name><time>2016-12-28T19:49:53Z</time></trkpt>
   <trkpt lat="30.915176" lon="34.7501"><ele>521.6</ele><name>TP02225</name><time>2016-12-28T19:49:54Z</time></trkpt>
   <trkpt lat="30.915162" lon="34.750067"><ele>521.8</ele><name>TP02226</name><time>2016-12-28T19:49:55Z</time></trkpt>
   <trkpt lat="30.915128" lon="34.750023"><ele>522.5</ele><name>TP02227</name><time>2016-12-28T19:49:57Z</time></trkpt>
   <trkpt lat="30.915113" lon="34.749993"><ele>522.7</ele><name>TP02228</name><time>2016-12-28T19:49:58Z</time></trkpt>
   <trkpt lat="30.915096" lon="34.749953"><ele>523</ele><name>TP02229</name><time>2016-12-28T19:49:59Z</time></trkpt>
   <trkpt lat="30.915079" lon="34.749911"><ele>523.2</ele><name>TP02230</name><time>2016-12-28T19:50:00Z</time></trkpt>
   <trkpt lat="30.915072" lon="34.749866"><ele>523.3</ele><name>TP02231</name><time>2016-12-28T19:50:01Z</time></trkpt>
   <trkpt lat="30.915068" lon="34.749822"><ele>523.2</ele><name>TP02232</name><time>2016-12-28T19:50:03Z</time></trkpt>
   <trkpt lat="30.91506" lon="34.749785"><ele>523.3</ele><name>TP02233</name><time>2016-12-28T19:50:05Z</time></trkpt>
   <trkpt lat="30.915061" lon="34.749745"><ele>523.2</ele><name>TP02234</name><time>2016-12-28T19:50:06Z</time></trkpt>
   <trkpt lat="30.91507" lon="34.749698"><ele>522.8</ele><name>TP02235</name><time>2016-12-28T19:50:07Z</time></trkpt>
   <trkpt lat="30.915082" lon="34.749644"><ele>522.4</ele><name>TP02236</name><time>2016-12-28T19:50:08Z</time></trkpt>
   <trkpt lat="30.915095" lon="34.749586"><ele>522</ele><name>TP02237</name><time>2016-12-28T19:50:09Z</time></trkpt>
   <trkpt lat="30.915108" lon="34.749532"><ele>521.4</ele><name>TP02238</name><time>2016-12-28T19:50:10Z</time></trkpt>
   <trkpt lat="30.915121" lon="34.74945"><ele>520.8</ele><name>TP02239</name><time>2016-12-28T19:50:11Z</time></trkpt>
   <trkpt lat="30.915166" lon="34.749298"><ele>519.6</ele><name>TP02240</name><time>2016-12-28T19:50:13Z</time></trkpt>
   <trkpt lat="30.915191" lon="34.749238"><ele>519.1</ele><name>TP02241</name><time>2016-12-28T19:50:14Z</time></trkpt>
   <trkpt lat="30.915217" lon="34.74918"><ele>518.7</ele><name>TP02242</name><time>2016-12-28T19:50:15Z</time></trkpt>
   <trkpt lat="30.915241" lon="34.749123"><ele>518.4</ele><name>TP02243</name><time>2016-12-28T19:50:16Z</time></trkpt>
   <trkpt lat="30.915266" lon="34.749066"><ele>518.1</ele><name>TP02244</name><time>2016-12-28T19:50:17Z</time></trkpt>
   <trkpt lat="30.915298" lon="34.74901"><ele>517.9</ele><name>TP02245</name><time>2016-12-28T19:50:18Z</time></trkpt>
   <trkpt lat="30.915327" lon="34.748951"><ele>517.7</ele><name>TP02246</name><time>2016-12-28T19:50:19Z</time></trkpt>
   <trkpt lat="30.915349" lon="34.748892"><ele>517.7</ele><name>TP02247</name><time>2016-12-28T19:50:20Z</time></trkpt>
   <trkpt lat="30.915378" lon="34.748826"><ele>517.8</ele><name>TP02248</name><time>2016-12-28T19:50:21Z</time></trkpt>
   <trkpt lat="30.9154" lon="34.74876"><ele>518</ele><name>TP02249</name><time>2016-12-28T19:50:22Z</time></trkpt>
   <trkpt lat="30.915417" lon="34.748693"><ele>518.1</ele><name>TP02250</name><time>2016-12-28T19:50:23Z</time></trkpt>
   <trkpt lat="30.915435" lon="34.748638"><ele>517.9</ele><name>TP02251</name><time>2016-12-28T19:50:24Z</time></trkpt>
   <trkpt lat="30.91545" lon="34.748583"><ele>517.8</ele><name>TP02252</name><time>2016-12-28T19:50:25Z</time></trkpt>
   <trkpt lat="30.915463" lon="34.748523"><ele>517.7</ele><name>TP02253</name><time>2016-12-28T19:50:26Z</time></trkpt>
   <trkpt lat="30.915469" lon="34.748468"><ele>517.7</ele><name>TP02254</name><time>2016-12-28T19:50:27Z</time></trkpt>
   <trkpt lat="30.915483" lon="34.748408"><ele>517.5</ele><name>TP02255</name><time>2016-12-28T19:50:28Z</time></trkpt>
   <trkpt lat="30.915504" lon="34.748345"><ele>517.3</ele><name>TP02256</name><time>2016-12-28T19:50:29Z</time></trkpt>
   <trkpt lat="30.915529" lon="34.748285"><ele>517</ele><name>TP02257</name><time>2016-12-28T19:50:30Z</time></trkpt>
   <trkpt lat="30.915556" lon="34.748221"><ele>516.6</ele><name>TP02258</name><time>2016-12-28T19:50:31Z</time></trkpt>
   <trkpt lat="30.915587" lon="34.748154"><ele>516.1</ele><name>TP02259</name><time>2016-12-28T19:50:32Z</time></trkpt>
   <trkpt lat="30.915617" lon="34.748084"><ele>515.5</ele><name>TP02260</name><time>2016-12-28T19:50:33Z</time></trkpt>
   <trkpt lat="30.915647" lon="34.748007"><ele>515</ele><name>TP02261</name><time>2016-12-28T19:50:34Z</time></trkpt>
   <trkpt lat="30.915663" lon="34.747927"><ele>514.6</ele><name>TP02262</name><time>2016-12-28T19:50:35Z</time></trkpt>
   <trkpt lat="30.915682" lon="34.74785"><ele>514.8</ele><name>TP02263</name><time>2016-12-28T19:50:36Z</time></trkpt>
   <trkpt lat="30.915702" lon="34.74777"><ele>515.1</ele><name>TP02264</name><time>2016-12-28T19:50:37Z</time></trkpt>
   <trkpt lat="30.91572" lon="34.747689"><ele>515.5</ele><name>TP02265</name><time>2016-12-28T19:50:38Z</time></trkpt>
   <trkpt lat="30.915727" lon="34.747605"><ele>516.2</ele><name>TP02266</name><time>2016-12-28T19:50:39Z</time></trkpt>
   <trkpt lat="30.915739" lon="34.747523"><ele>516.7</ele><name>TP02267</name><time>2016-12-28T19:50:40Z</time></trkpt>
   <trkpt lat="30.915749" lon="34.747439"><ele>517.4</ele><name>TP02268</name><time>2016-12-28T19:50:41Z</time></trkpt>
   <trkpt lat="30.915757" lon="34.747363"><ele>518</ele><name>TP02269</name><time>2016-12-28T19:50:42Z</time></trkpt>
   <trkpt lat="30.915748" lon="34.747296"><ele>518.7</ele><name>TP02270</name><time>2016-12-28T19:50:43Z</time></trkpt>
   <trkpt lat="30.915732" lon="34.747232"><ele>519.4</ele><name>TP02271</name><time>2016-12-28T19:50:44Z</time></trkpt>
   <trkpt lat="30.915725" lon="34.747162"><ele>520.1</ele><name>TP02272</name><time>2016-12-28T19:50:45Z</time></trkpt>
   <trkpt lat="30.915722" lon="34.747095"><ele>520.7</ele><name>TP02273</name><time>2016-12-28T19:50:46Z</time></trkpt>
   <trkpt lat="30.915706" lon="34.74703"><ele>520.6</ele><name>TP02274</name><time>2016-12-28T19:50:47Z</time></trkpt>
   <trkpt lat="30.915692" lon="34.74696"><ele>520.3</ele><name>TP02275</name><time>2016-12-28T19:50:48Z</time></trkpt>
   <trkpt lat="30.915674" lon="34.746901"><ele>520</ele><name>TP02276</name><time>2016-12-28T19:50:49Z</time></trkpt>
   <trkpt lat="30.915661" lon="34.746834"><ele>519.7</ele><name>TP02277</name><time>2016-12-28T19:50:50Z</time></trkpt>
   <trkpt lat="30.915645" lon="34.746769"><ele>519.2</ele><name>TP02278</name><time>2016-12-28T19:50:51Z</time></trkpt>
   <trkpt lat="30.915627" lon="34.746709"><ele>518.8</ele><name>TP02279</name><time>2016-12-28T19:50:52Z</time></trkpt>
   <trkpt lat="30.915618" lon="34.746646"><ele>518.3</ele><name>TP02280</name><time>2016-12-28T19:50:53Z</time></trkpt>
   <trkpt lat="30.915621" lon="34.746584"><ele>517.9</ele><name>TP02281</name><time>2016-12-28T19:50:54Z</time></trkpt>
   <trkpt lat="30.915641" lon="34.74654"><ele>517.7</ele><name>TP02282</name><time>2016-12-28T19:50:55Z</time></trkpt>
   <trkpt lat="30.915673" lon="34.746488"><ele>517.5</ele><name>TP02283</name><time>2016-12-28T19:50:56Z</time></trkpt>
   <trkpt lat="30.915712" lon="34.746438"><ele>517.5</ele><name>TP02284</name><time>2016-12-28T19:50:57Z</time></trkpt>
   <trkpt lat="30.915754" lon="34.746399"><ele>517.7</ele><name>TP02285</name><time>2016-12-28T19:50:58Z</time></trkpt>
   <trkpt lat="30.915793" lon="34.746356"><ele>517.9</ele><name>TP02286</name><time>2016-12-28T19:50:59Z</time></trkpt>
   <trkpt lat="30.915834" lon="34.746307"><ele>518.1</ele><name>TP02287</name><time>2016-12-28T19:51:00Z</time></trkpt>
   <trkpt lat="30.915883" lon="34.746266"><ele>518.6</ele><name>TP02288</name><time>2016-12-28T19:51:01Z</time></trkpt>
   <trkpt lat="30.915934" lon="34.746234"><ele>519</ele><name>TP02289</name><time>2016-12-28T19:51:02Z</time></trkpt>
   <trkpt lat="30.915981" lon="34.746202"><ele>519.2</ele><name>TP02290</name><time>2016-12-28T19:51:03Z</time></trkpt>
   <trkpt lat="30.91602" lon="34.746174"><ele>519.3</ele><name>TP02291</name><time>2016-12-28T19:51:04Z</time></trkpt>
   <trkpt lat="30.916057" lon="34.746132"><ele>519.1</ele><name>TP02292</name><time>2016-12-28T19:51:05Z</time></trkpt>
   <trkpt lat="30.916093" lon="34.746076"><ele>518.7</ele><name>TP02293</name><time>2016-12-28T19:51:06Z</time></trkpt>
   <trkpt lat="30.916135" lon="34.746022"><ele>518.2</ele><name>TP02294</name><time>2016-12-28T19:51:07Z</time></trkpt>
   <trkpt lat="30.916178" lon="34.745977"><ele>517.9</ele><name>TP02295</name><time>2016-12-28T19:51:08Z</time></trkpt>
   <trkpt lat="30.916211" lon="34.745931"><ele>517.4</ele><name>TP02296</name><time>2016-12-28T19:51:09Z</time></trkpt>
   <trkpt lat="30.916228" lon="34.745873"><ele>516.5</ele><name>TP02297</name><time>2016-12-28T19:51:10Z</time></trkpt>
   <trkpt lat="30.916241" lon="34.745817"><ele>515.7</ele><name>TP02298</name><time>2016-12-28T19:51:11Z</time></trkpt>
   <trkpt lat="30.916257" lon="34.745706"><ele>513.9</ele><name>TP02299</name><time>2016-12-28T19:51:13Z</time></trkpt>
   <trkpt lat="30.916256" lon="34.745655"><ele>513</ele><name>TP02300</name><time>2016-12-28T19:51:14Z</time></trkpt>
   <trkpt lat="30.916249" lon="34.745604"><ele>512.1</ele><name>TP02301</name><time>2016-12-28T19:51:15Z</time></trkpt>
   <trkpt lat="30.916244" lon="34.74555"><ele>511.2</ele><name>TP02302</name><time>2016-12-28T19:51:16Z</time></trkpt>
   <trkpt lat="30.916249" lon="34.745503"><ele>510.5</ele><name>TP02303</name><time>2016-12-28T19:51:17Z</time></trkpt>
   <trkpt lat="30.916253" lon="34.745462"><ele>509.8</ele><name>TP02304</name><time>2016-12-28T19:51:18Z</time></trkpt>
   <trkpt lat="30.91628" lon="34.745433"><ele>509.4</ele><name>TP02305</name><time>2016-12-28T19:51:20Z</time></trkpt>
   <trkpt lat="30.916346" lon="34.745442"><ele>509.9</ele><name>TP02306</name><time>2016-12-28T19:51:22Z</time></trkpt>
   <trkpt lat="30.916406" lon="34.745443"><ele>510.3</ele><name>TP02307</name><time>2016-12-28T19:51:23Z</time></trkpt>
   <trkpt lat="30.916466" lon="34.745448"><ele>510.6</ele><name>TP02308</name><time>2016-12-28T19:51:24Z</time></trkpt>
   <trkpt lat="30.916522" lon="34.745462"><ele>511.1</ele><name>TP02309</name><time>2016-12-28T19:51:25Z</time></trkpt>
   <trkpt lat="30.916569" lon="34.745497"><ele>511.6</ele><name>TP02310</name><time>2016-12-28T19:51:26Z</time></trkpt>
   <trkpt lat="30.916602" lon="34.745528"><ele>512</ele><name>TP02311</name><time>2016-12-28T19:51:27Z</time></trkpt>
   <trkpt lat="30.91664" lon="34.745548"><ele>512.2</ele><name>TP02312</name><time>2016-12-28T19:51:28Z</time></trkpt>
   <trkpt lat="30.916685" lon="34.745557"><ele>512.4</ele><name>TP02313</name><time>2016-12-28T19:51:29Z</time></trkpt>
   <trkpt lat="30.916731" lon="34.745554"><ele>512.5</ele><name>TP02314</name><time>2016-12-28T19:51:30Z</time></trkpt>
   <trkpt lat="30.916773" lon="34.745541"><ele>512.5</ele><name>TP02315</name><time>2016-12-28T19:51:31Z</time></trkpt>
   <trkpt lat="30.916813" lon="34.745515"><ele>512.6</ele><name>TP02316</name><time>2016-12-28T19:51:32Z</time></trkpt>
   <trkpt lat="30.916848" lon="34.745469"><ele>512.7</ele><name>TP02317</name><time>2016-12-28T19:51:33Z</time></trkpt>
   <trkpt lat="30.91688" lon="34.745414"><ele>512.8</ele><name>TP02318</name><time>2016-12-28T19:51:34Z</time></trkpt>
   <trkpt lat="30.916917" lon="34.745361"><ele>512.5</ele><name>TP02319</name><time>2016-12-28T19:51:35Z</time></trkpt>
   <trkpt lat="30.916955" lon="34.745315"><ele>512.4</ele><name>TP02320</name><time>2016-12-28T19:51:36Z</time></trkpt>
   <trkpt lat="30.91699" lon="34.745264"><ele>512.4</ele><name>TP02321</name><time>2016-12-28T19:51:37Z</time></trkpt>
   <trkpt lat="30.91701" lon="34.745209"><ele>512.2</ele><name>TP02322</name><time>2016-12-28T19:51:38Z</time></trkpt>
   <trkpt lat="30.91701" lon="34.745138"><ele>511.8</ele><name>TP02323</name><time>2016-12-28T19:51:39Z</time></trkpt>
   <trkpt lat="30.91702" lon="34.745061"><ele>511.4</ele><name>TP02324</name><time>2016-12-28T19:51:40Z</time></trkpt>
   <trkpt lat="30.917046" lon="34.744983"><ele>511.3</ele><name>TP02325</name><time>2016-12-28T19:51:41Z</time></trkpt>
   <trkpt lat="30.917075" lon="34.744911"><ele>511.4</ele><name>TP02326</name><time>2016-12-28T19:51:42Z</time></trkpt>
   <trkpt lat="30.917095" lon="34.744837"><ele>511</ele><name>TP02327</name><time>2016-12-28T19:51:43Z</time></trkpt>
   <trkpt lat="30.917116" lon="34.744774"><ele>510.4</ele><name>TP02328</name><time>2016-12-28T19:51:44Z</time></trkpt>
   <trkpt lat="30.917149" lon="34.744719"><ele>509.6</ele><name>TP02329</name><time>2016-12-28T19:51:45Z</time></trkpt>
   <trkpt lat="30.917182" lon="34.74467"><ele>509</ele><name>TP02330</name><time>2016-12-28T19:51:46Z</time></trkpt>
   <trkpt lat="30.917208" lon="34.744602"><ele>508.4</ele><name>TP02331</name><time>2016-12-28T19:51:47Z</time></trkpt>
   <trkpt lat="30.917235" lon="34.744538"><ele>507.4</ele><name>TP02332</name><time>2016-12-28T19:51:48Z</time></trkpt>
   <trkpt lat="30.917253" lon="34.744455"><ele>506</ele><name>TP02333</name><time>2016-12-28T19:51:49Z</time></trkpt>
   <trkpt lat="30.917254" lon="34.744376"><ele>504.9</ele><name>TP02334</name><time>2016-12-28T19:51:50Z</time></trkpt>
   <trkpt lat="30.917258" lon="34.744301"><ele>503.9</ele><name>TP02335</name><time>2016-12-28T19:51:51Z</time></trkpt>
   <trkpt lat="30.917254" lon="34.744232"><ele>503</ele><name>TP02336</name><time>2016-12-28T19:51:52Z</time></trkpt>
   <trkpt lat="30.917273" lon="34.744171"><ele>502.1</ele><name>TP02337</name><time>2016-12-28T19:51:53Z</time></trkpt>
   <trkpt lat="30.917306" lon="34.744124"><ele>501.4</ele><name>TP02338</name><time>2016-12-28T19:51:54Z</time></trkpt>
   <trkpt lat="30.917352" lon="34.744086"><ele>501</ele><name>TP02339</name><time>2016-12-28T19:51:55Z</time></trkpt>
   <trkpt lat="30.917399" lon="34.744047"><ele>500.6</ele><name>TP02340</name><time>2016-12-28T19:51:56Z</time></trkpt>
   <trkpt lat="30.917434" lon="34.743988"><ele>500.1</ele><name>TP02341</name><time>2016-12-28T19:51:57Z</time></trkpt>
   <trkpt lat="30.917459" lon="34.743912"><ele>499.5</ele><name>TP02342</name><time>2016-12-28T19:51:58Z</time></trkpt>
   <trkpt lat="30.917477" lon="34.743841"><ele>499</ele><name>TP02343</name><time>2016-12-28T19:51:59Z</time></trkpt>
   <trkpt lat="30.917485" lon="34.743769"><ele>498.5</ele><name>TP02344</name><time>2016-12-28T19:52:00Z</time></trkpt>
   <trkpt lat="30.917499" lon="34.743698"><ele>497.3</ele><name>TP02345</name><time>2016-12-28T19:52:01Z</time></trkpt>
   <trkpt lat="30.917515" lon="34.743629"><ele>495.9</ele><name>TP02346</name><time>2016-12-28T19:52:02Z</time></trkpt>
   <trkpt lat="30.917523" lon="34.743555"><ele>494.3</ele><name>TP02347</name><time>2016-12-28T19:52:03Z</time></trkpt>
   <trkpt lat="30.91754" lon="34.743481"><ele>492.8</ele><name>TP02348</name><time>2016-12-28T19:52:04Z</time></trkpt>
   <trkpt lat="30.91756" lon="34.743408"><ele>491.3</ele><name>TP02349</name><time>2016-12-28T19:52:05Z</time></trkpt>
   <trkpt lat="30.917579" lon="34.743349"><ele>490.2</ele><name>TP02350</name><time>2016-12-28T19:52:06Z</time></trkpt>
   <trkpt lat="30.917606" lon="34.743294"><ele>489.3</ele><name>TP02351</name><time>2016-12-28T19:52:07Z</time></trkpt>
   <trkpt lat="30.917628" lon="34.743232"><ele>488.1</ele><name>TP02352</name><time>2016-12-28T19:52:08Z</time></trkpt>
   <trkpt lat="30.917653" lon="34.743167"><ele>487</ele><name>TP02353</name><time>2016-12-28T19:52:09Z</time></trkpt>
   <trkpt lat="30.917676" lon="34.7431"><ele>485.8</ele><name>TP02354</name><time>2016-12-28T19:52:10Z</time></trkpt>
   <trkpt lat="30.917702" lon="34.743057"><ele>485.2</ele><name>TP02355</name><time>2016-12-28T19:52:11Z</time></trkpt>
   <trkpt lat="30.917725" lon="34.74304"><ele>485.1</ele><name>TP02356</name><time>2016-12-28T19:52:12Z</time></trkpt>
   <trkpt lat="30.917776" lon="34.743064"><ele>486.3</ele><name>TP02357</name><time>2016-12-28T19:52:14Z</time></trkpt>
   <trkpt lat="30.917811" lon="34.743084"><ele>487.1</ele><name>TP02358</name><time>2016-12-28T19:52:15Z</time></trkpt>
   <trkpt lat="30.917857" lon="34.743109"><ele>488.2</ele><name>TP02359</name><time>2016-12-28T19:52:16Z</time></trkpt>
   <trkpt lat="30.917908" lon="34.743126"><ele>489.2</ele><name>TP02360</name><time>2016-12-28T19:52:17Z</time></trkpt>
   <trkpt lat="30.917958" lon="34.743135"><ele>489.6</ele><name>TP02361</name><time>2016-12-28T19:52:18Z</time></trkpt>
   <trkpt lat="30.918012" lon="34.743132"><ele>489.8</ele><name>TP02362</name><time>2016-12-28T19:52:19Z</time></trkpt>
   <trkpt lat="30.918063" lon="34.743113"><ele>489.8</ele><name>TP02363</name><time>2016-12-28T19:52:20Z</time></trkpt>
   <trkpt lat="30.918106" lon="34.743091"><ele>489.7</ele><name>TP02364</name><time>2016-12-28T19:52:21Z</time></trkpt>
   <trkpt lat="30.918149" lon="34.743048"><ele>489.5</ele><name>TP02365</name><time>2016-12-28T19:52:22Z</time></trkpt>
   <trkpt lat="30.918189" lon="34.743024"><ele>489.6</ele><name>TP02366</name><time>2016-12-28T19:52:23Z</time></trkpt>
   <trkpt lat="30.918231" lon="34.743005"><ele>489.8</ele><name>TP02367</name><time>2016-12-28T19:52:24Z</time></trkpt>
   <trkpt lat="30.918272" lon="34.742992"><ele>490.1</ele><name>TP02368</name><time>2016-12-28T19:52:25Z</time></trkpt>
   <trkpt lat="30.918321" lon="34.742977"><ele>490.6</ele><name>TP02369</name><time>2016-12-28T19:52:26Z</time></trkpt>
   <trkpt lat="30.918368" lon="34.742956"><ele>491</ele><name>TP02370</name><time>2016-12-28T19:52:27Z</time></trkpt>
   <trkpt lat="30.918419" lon="34.742932"><ele>491.6</ele><name>TP02371</name><time>2016-12-28T19:52:28Z</time></trkpt>
   <trkpt lat="30.918467" lon="34.74289"><ele>492</ele><name>TP02372</name><time>2016-12-28T19:52:29Z</time></trkpt>
   <trkpt lat="30.918512" lon="34.742844"><ele>492.1</ele><name>TP02373</name><time>2016-12-28T19:52:30Z</time></trkpt>
   <trkpt lat="30.918553" lon="34.742796"><ele>492.3</ele><name>TP02374</name><time>2016-12-28T19:52:31Z</time></trkpt>
   <trkpt lat="30.918595" lon="34.74275"><ele>492.6</ele><name>TP02375</name><time>2016-12-28T19:52:32Z</time></trkpt>
   <trkpt lat="30.918626" lon="34.742697"><ele>492.7</ele><name>TP02376</name><time>2016-12-28T19:52:33Z</time></trkpt>
   <trkpt lat="30.918648" lon="34.742633"><ele>492.7</ele><name>TP02377</name><time>2016-12-28T19:52:34Z</time></trkpt>
   <trkpt lat="30.918672" lon="34.742574"><ele>492.7</ele><name>TP02378</name><time>2016-12-28T19:52:35Z</time></trkpt>
   <trkpt lat="30.918674" lon="34.742508"><ele>492.4</ele><name>TP02379</name><time>2016-12-28T19:52:36Z</time></trkpt>
   <trkpt lat="30.918687" lon="34.74245"><ele>492.3</ele><name>TP02380</name><time>2016-12-28T19:52:37Z</time></trkpt>
   <trkpt lat="30.918712" lon="34.7424"><ele>492.6</ele><name>TP02381</name><time>2016-12-28T19:52:38Z</time></trkpt>
   <trkpt lat="30.91874" lon="34.742348"><ele>493</ele><name>TP02382</name><time>2016-12-28T19:52:39Z</time></trkpt>
   <trkpt lat="30.918771" lon="34.742297"><ele>492.8</ele><name>TP02383</name><time>2016-12-28T19:52:40Z</time></trkpt>
   <trkpt lat="30.918791" lon="34.742238"><ele>492.4</ele><name>TP02384</name><time>2016-12-28T19:52:41Z</time></trkpt>
   <trkpt lat="30.9188" lon="34.742164"><ele>492.1</ele><name>TP02385</name><time>2016-12-28T19:52:42Z</time></trkpt>
   <trkpt lat="30.918814" lon="34.742089"><ele>491.7</ele><name>TP02386</name><time>2016-12-28T19:52:43Z</time></trkpt>
   <trkpt lat="30.918818" lon="34.742015"><ele>490.7</ele><name>TP02387</name><time>2016-12-28T19:52:44Z</time></trkpt>
   <trkpt lat="30.918825" lon="34.741938"><ele>489.6</ele><name>TP02388</name><time>2016-12-28T19:52:45Z</time></trkpt>
   <trkpt lat="30.918836" lon="34.741864"><ele>488.5</ele><name>TP02389</name><time>2016-12-28T19:52:46Z</time></trkpt>
   <trkpt lat="30.918861" lon="34.741804"><ele>487.6</ele><name>TP02390</name><time>2016-12-28T19:52:47Z</time></trkpt>
   <trkpt lat="30.918902" lon="34.741749"><ele>486.9</ele><name>TP02391</name><time>2016-12-28T19:52:48Z</time></trkpt>
   <trkpt lat="30.918935" lon="34.741691"><ele>486.2</ele><name>TP02392</name><time>2016-12-28T19:52:49Z</time></trkpt>
   <trkpt lat="30.918951" lon="34.741621"><ele>485.4</ele><name>TP02393</name><time>2016-12-28T19:52:50Z</time></trkpt>
   <trkpt lat="30.918973" lon="34.741567"><ele>484.9</ele><name>TP02394</name><time>2016-12-28T19:52:51Z</time></trkpt>
   <trkpt lat="30.919004" lon="34.741531"><ele>484.6</ele><name>TP02395</name><time>2016-12-28T19:52:52Z</time></trkpt>
   <trkpt lat="30.919025" lon="34.741479"><ele>484.1</ele><name>TP02396</name><time>2016-12-28T19:52:53Z</time></trkpt>
   <trkpt lat="30.919042" lon="34.741415"><ele>483.5</ele><name>TP02397</name><time>2016-12-28T19:52:54Z</time></trkpt>
   <trkpt lat="30.919065" lon="34.741347"><ele>483</ele><name>TP02398</name><time>2016-12-28T19:52:55Z</time></trkpt>
   <trkpt lat="30.919093" lon="34.741284"><ele>482.6</ele><name>TP02399</name><time>2016-12-28T19:52:56Z</time></trkpt>
   <trkpt lat="30.919116" lon="34.741214"><ele>482.2</ele><name>TP02400</name><time>2016-12-28T19:52:57Z</time></trkpt>
   <trkpt lat="30.919133" lon="34.741135"><ele>481.6</ele><name>TP02401</name><time>2016-12-28T19:52:58Z</time></trkpt>
   <trkpt lat="30.919133" lon="34.741054"><ele>480.8</ele><name>TP02402</name><time>2016-12-28T19:52:59Z</time></trkpt>
   <trkpt lat="30.919144" lon="34.740984"><ele>480.3</ele><name>TP02403</name><time>2016-12-28T19:53:00Z</time></trkpt>
   <trkpt lat="30.919138" lon="34.74092"><ele>479.6</ele><name>TP02404</name><time>2016-12-28T19:53:01Z</time></trkpt>
   <trkpt lat="30.919114" lon="34.740843"><ele>478.7</ele><name>TP02405</name><time>2016-12-28T19:53:02Z</time></trkpt>
   <trkpt lat="30.919088" lon="34.740756"><ele>477.7</ele><name>TP02406</name><time>2016-12-28T19:53:03Z</time></trkpt>
   <trkpt lat="30.919069" lon="34.740662"><ele>476.7</ele><name>TP02407</name><time>2016-12-28T19:53:04Z</time></trkpt>
   <trkpt lat="30.919068" lon="34.740571"><ele>475.9</ele><name>TP02408</name><time>2016-12-28T19:53:05Z</time></trkpt>
   <trkpt lat="30.919086" lon="34.740481"><ele>475.2</ele><name>TP02409</name><time>2016-12-28T19:53:06Z</time></trkpt>
   <trkpt lat="30.919098" lon="34.740392"><ele>474.5</ele><name>TP02410</name><time>2016-12-28T19:53:07Z</time></trkpt>
   <trkpt lat="30.919116" lon="34.740301"><ele>474.1</ele><name>TP02411</name><time>2016-12-28T19:53:08Z</time></trkpt>
   <trkpt lat="30.91914" lon="34.740218"><ele>473.8</ele><name>TP02412</name><time>2016-12-28T19:53:09Z</time></trkpt>
   <trkpt lat="30.91916" lon="34.740139"><ele>473.5</ele><name>TP02413</name><time>2016-12-28T19:53:10Z</time></trkpt>
   <trkpt lat="30.919169" lon="34.74007"><ele>473.1</ele><name>TP02414</name><time>2016-12-28T19:53:11Z</time></trkpt>
   <trkpt lat="30.919187" lon="34.739933"><ele>472.5</ele><name>TP02415</name><time>2016-12-28T19:53:13Z</time></trkpt>
   <trkpt lat="30.919219" lon="34.739868"><ele>472.3</ele><name>TP02416</name><time>2016-12-28T19:53:14Z</time></trkpt>
   <trkpt lat="30.919255" lon="34.739815"><ele>472.3</ele><name>TP02417</name><time>2016-12-28T19:53:15Z</time></trkpt>
   <trkpt lat="30.919294" lon="34.739754"><ele>472.2</ele><name>TP02418</name><time>2016-12-28T19:53:16Z</time></trkpt>
   <trkpt lat="30.919331" lon="34.739705"><ele>472.1</ele><name>TP02419</name><time>2016-12-28T19:53:17Z</time></trkpt>
   <trkpt lat="30.919375" lon="34.73966"><ele>472.1</ele><name>TP02420</name><time>2016-12-28T19:53:18Z</time></trkpt>
   <trkpt lat="30.919413" lon="34.739612"><ele>472.1</ele><name>TP02421</name><time>2016-12-28T19:53:19Z</time></trkpt>
   <trkpt lat="30.919447" lon="34.739569"><ele>472.2</ele><name>TP02422</name><time>2016-12-28T19:53:20Z</time></trkpt>
   <trkpt lat="30.91948" lon="34.739523"><ele>472.7</ele><name>TP02423</name><time>2016-12-28T19:53:21Z</time></trkpt>
   <trkpt lat="30.919513" lon="34.739473"><ele>473.2</ele><name>TP02424</name><time>2016-12-28T19:53:22Z</time></trkpt>
   <trkpt lat="30.91955" lon="34.73942"><ele>473.7</ele><name>TP02425</name><time>2016-12-28T19:53:23Z</time></trkpt>
   <trkpt lat="30.919576" lon="34.739367"><ele>474.2</ele><name>TP02426</name><time>2016-12-28T19:53:24Z</time></trkpt>
   <trkpt lat="30.919592" lon="34.739312"><ele>474.5</ele><name>TP02427</name><time>2016-12-28T19:53:25Z</time></trkpt>
   <trkpt lat="30.919607" lon="34.739253"><ele>474.7</ele><name>TP02428</name><time>2016-12-28T19:53:26Z</time></trkpt>
   <trkpt lat="30.919618" lon="34.739188"><ele>475</ele><name>TP02429</name><time>2016-12-28T19:53:27Z</time></trkpt>
   <trkpt lat="30.919619" lon="34.739118"><ele>475.4</ele><name>TP02430</name><time>2016-12-28T19:53:28Z</time></trkpt>
   <trkpt lat="30.919616" lon="34.739046"><ele>475.9</ele><name>TP02431</name><time>2016-12-28T19:53:29Z</time></trkpt>
   <trkpt lat="30.919625" lon="34.738975"><ele>476.2</ele><name>TP02432</name><time>2016-12-28T19:53:30Z</time></trkpt>
   <trkpt lat="30.919646" lon="34.738912"><ele>476.4</ele><name>TP02433</name><time>2016-12-28T19:53:31Z</time></trkpt>
   <trkpt lat="30.919675" lon="34.738862"><ele>476.5</ele><name>TP02434</name><time>2016-12-28T19:53:32Z</time></trkpt>
   <trkpt lat="30.919708" lon="34.738819"><ele>476.5</ele><name>TP02435</name><time>2016-12-28T19:53:33Z</time></trkpt>
   <trkpt lat="30.919746" lon="34.738788"><ele>476.4</ele><name>TP02436</name><time>2016-12-28T19:53:34Z</time></trkpt>
   <trkpt lat="30.919782" lon="34.73876"><ele>476.3</ele><name>TP02437</name><time>2016-12-28T19:53:35Z</time></trkpt>
   <trkpt lat="30.919827" lon="34.738738"><ele>475.7</ele><name>TP02438</name><time>2016-12-28T19:53:36Z</time></trkpt>
   <trkpt lat="30.919872" lon="34.738717"><ele>474.9</ele><name>TP02439</name><time>2016-12-28T19:53:37Z</time></trkpt>
   <trkpt lat="30.919916" lon="34.738703"><ele>474.3</ele><name>TP02440</name><time>2016-12-28T19:53:38Z</time></trkpt>
   <trkpt lat="30.919958" lon="34.738693"><ele>473.8</ele><name>TP02441</name><time>2016-12-28T19:53:39Z</time></trkpt>
   <trkpt lat="30.919998" lon="34.738684"><ele>473.3</ele><name>TP02442</name><time>2016-12-28T19:53:40Z</time></trkpt>
   <trkpt lat="30.92004" lon="34.738675"><ele>472.9</ele><name>TP02443</name><time>2016-12-28T19:53:41Z</time></trkpt>
   <trkpt lat="30.920081" lon="34.738661"><ele>472.4</ele><name>TP02444</name><time>2016-12-28T19:53:42Z</time></trkpt>
   <trkpt lat="30.920125" lon="34.738651"><ele>471.9</ele><name>TP02445</name><time>2016-12-28T19:53:43Z</time></trkpt>
   <trkpt lat="30.92017" lon="34.738633"><ele>471.4</ele><name>TP02446</name><time>2016-12-28T19:53:44Z</time></trkpt>
   <trkpt lat="30.920215" lon="34.738613"><ele>470.8</ele><name>TP02447</name><time>2016-12-28T19:53:45Z</time></trkpt>
   <trkpt lat="30.920266" lon="34.738595"><ele>470.3</ele><name>TP02448</name><time>2016-12-28T19:53:46Z</time></trkpt>
   <trkpt lat="30.920315" lon="34.738573"><ele>469.8</ele><name>TP02449</name><time>2016-12-28T19:53:47Z</time></trkpt>
   <trkpt lat="30.920358" lon="34.738558"><ele>469.4</ele><name>TP02450</name><time>2016-12-28T19:53:48Z</time></trkpt>
   <trkpt lat="30.920406" lon="34.738538"><ele>469</ele><name>TP02451</name><time>2016-12-28T19:53:49Z</time></trkpt>
   <trkpt lat="30.920455" lon="34.738517"><ele>468.6</ele><name>TP02452</name><time>2016-12-28T19:53:50Z</time></trkpt>
   <trkpt lat="30.920507" lon="34.738494"><ele>468.1</ele><name>TP02453</name><time>2016-12-28T19:53:51Z</time></trkpt>
   <trkpt lat="30.920552" lon="34.738458"><ele>467.6</ele><name>TP02454</name><time>2016-12-28T19:53:52Z</time></trkpt>
   <trkpt lat="30.920596" lon="34.738423"><ele>467.3</ele><name>TP02455</name><time>2016-12-28T19:53:53Z</time></trkpt>
   <trkpt lat="30.920632" lon="34.738375"><ele>466.9</ele><name>TP02456</name><time>2016-12-28T19:53:54Z</time></trkpt>
   <trkpt lat="30.920656" lon="34.738323"><ele>466.7</ele><name>TP02457</name><time>2016-12-28T19:53:55Z</time></trkpt>
   <trkpt lat="30.920683" lon="34.738258"><ele>466.4</ele><name>TP02458</name><time>2016-12-28T19:53:56Z</time></trkpt>
   <trkpt lat="30.920716" lon="34.738194"><ele>466.3</ele><name>TP02459</name><time>2016-12-28T19:53:57Z</time></trkpt>
   <trkpt lat="30.920751" lon="34.738134"><ele>466.2</ele><name>TP02460</name><time>2016-12-28T19:53:58Z</time></trkpt>
   <trkpt lat="30.920776" lon="34.738073"><ele>466.2</ele><name>TP02461</name><time>2016-12-28T19:53:59Z</time></trkpt>
   <trkpt lat="30.920797" lon="34.73801"><ele>466.3</ele><name>TP02462</name><time>2016-12-28T19:54:00Z</time></trkpt>
   <trkpt lat="30.920831" lon="34.73796"><ele>466.5</ele><name>TP02463</name><time>2016-12-28T19:54:01Z</time></trkpt>
   <trkpt lat="30.920875" lon="34.737916"><ele>466.8</ele><name>TP02464</name><time>2016-12-28T19:54:02Z</time></trkpt>
   <trkpt lat="30.920923" lon="34.737874"><ele>466.7</ele><name>TP02465</name><time>2016-12-28T19:54:03Z</time></trkpt>
   <trkpt lat="30.920976" lon="34.737829"><ele>466.7</ele><name>TP02466</name><time>2016-12-28T19:54:04Z</time></trkpt>
   <trkpt lat="30.921035" lon="34.737782"><ele>466.8</ele><name>TP02467</name><time>2016-12-28T19:54:05Z</time></trkpt>
   <trkpt lat="30.921085" lon="34.737722"><ele>466.8</ele><name>TP02468</name><time>2016-12-28T19:54:06Z</time></trkpt>
   <trkpt lat="30.921123" lon="34.737656"><ele>466.7</ele><name>TP02469</name><time>2016-12-28T19:54:07Z</time></trkpt>
   <trkpt lat="30.921156" lon="34.737591"><ele>466.6</ele><name>TP02470</name><time>2016-12-28T19:54:08Z</time></trkpt>
   <trkpt lat="30.921183" lon="34.737533"><ele>466.6</ele><name>TP02471</name><time>2016-12-28T19:54:09Z</time></trkpt>
   <trkpt lat="30.921206" lon="34.737477"><ele>466.6</ele><name>TP02472</name><time>2016-12-28T19:54:10Z</time></trkpt>
   <trkpt lat="30.921223" lon="34.737427"><ele>466.6</ele><name>TP02473</name><time>2016-12-28T19:54:11Z</time></trkpt>
   <trkpt lat="30.921254" lon="34.73739"><ele>466.8</ele><name>TP02474</name><time>2016-12-28T19:54:12Z</time></trkpt>
   <trkpt lat="30.921299" lon="34.737358"><ele>465.9</ele><name>TP02475</name><time>2016-12-28T19:54:13Z</time></trkpt>
   <trkpt lat="30.921345" lon="34.737324"><ele>465</ele><name>TP02476</name><time>2016-12-28T19:54:14Z</time></trkpt>
   <trkpt lat="30.921393" lon="34.737278"><ele>464.2</ele><name>TP02477</name><time>2016-12-28T19:54:15Z</time></trkpt>
   <trkpt lat="30.921447" lon="34.737227"><ele>463.4</ele><name>TP02478</name><time>2016-12-28T19:54:16Z</time></trkpt>
   <trkpt lat="30.921512" lon="34.73718"><ele>462.7</ele><name>TP02479</name><time>2016-12-28T19:54:17Z</time></trkpt>
   <trkpt lat="30.921569" lon="34.737132"><ele>462.2</ele><name>TP02480</name><time>2016-12-28T19:54:18Z</time></trkpt>
   <trkpt lat="30.921611" lon="34.737062"><ele>461.9</ele><name>TP02481</name><time>2016-12-28T19:54:19Z</time></trkpt>
   <trkpt lat="30.92162" lon="34.737005"><ele>461.8</ele><name>TP02482</name><time>2016-12-28T19:54:20Z</time></trkpt>
   <trkpt lat="30.921609" lon="34.736943"><ele>461.8</ele><name>TP02483</name><time>2016-12-28T19:54:21Z</time></trkpt>
   <trkpt lat="30.921608" lon="34.736872"><ele>461.7</ele><name>TP02484</name><time>2016-12-28T19:54:22Z</time></trkpt>
   <trkpt lat="30.921606" lon="34.736807"><ele>461.7</ele><name>TP02485</name><time>2016-12-28T19:54:23Z</time></trkpt>
   <trkpt lat="30.921622" lon="34.736743"><ele>461.5</ele><name>TP02486</name><time>2016-12-28T19:54:24Z</time></trkpt>
   <trkpt lat="30.921637" lon="34.736672"><ele>461.4</ele><name>TP02487</name><time>2016-12-28T19:54:25Z</time></trkpt>
   <trkpt lat="30.921648" lon="34.736592"><ele>461.3</ele><name>TP02488</name><time>2016-12-28T19:54:26Z</time></trkpt>
   <trkpt lat="30.921655" lon="34.736508"><ele>461.2</ele><name>TP02489</name><time>2016-12-28T19:54:27Z</time></trkpt>
   <trkpt lat="30.921665" lon="34.736423"><ele>461.1</ele><name>TP02490</name><time>2016-12-28T19:54:28Z</time></trkpt>
   <trkpt lat="30.921689" lon="34.736347"><ele>461</ele><name>TP02491</name><time>2016-12-28T19:54:29Z</time></trkpt>
   <trkpt lat="30.921726" lon="34.736283"><ele>461</ele><name>TP02492</name><time>2016-12-28T19:54:30Z</time></trkpt>
   <trkpt lat="30.921755" lon="34.736206"><ele>461.6</ele><name>TP02493</name><time>2016-12-28T19:54:31Z</time></trkpt>
   <trkpt lat="30.921768" lon="34.736133"><ele>462.6</ele><name>TP02494</name><time>2016-12-28T19:54:32Z</time></trkpt>
   <trkpt lat="30.921779" lon="34.736075"><ele>463.3</ele><name>TP02495</name><time>2016-12-28T19:54:33Z</time></trkpt>
   <trkpt lat="30.921791" lon="34.736026"><ele>464</ele><name>TP02496</name><time>2016-12-28T19:54:34Z</time></trkpt>
   <trkpt lat="30.92181" lon="34.735988"><ele>464.6</ele><name>TP02497</name><time>2016-12-28T19:54:35Z</time></trkpt>
   <trkpt lat="30.921829" lon="34.735958"><ele>465</ele><name>TP02498</name><time>2016-12-28T19:54:36Z</time></trkpt>
   <trkpt lat="30.921848" lon="34.735929"><ele>465.5</ele><name>TP02499</name><time>2016-12-28T19:54:37Z</time></trkpt>
   <trkpt lat="30.921867" lon="34.7359"><ele>465.9</ele><name>TP02500</name><time>2016-12-28T19:54:38Z</time></trkpt>
   <trkpt lat="30.921898" lon="34.73584"><ele>466.8</ele><name>TP02501</name><time>2016-12-28T19:54:40Z</time></trkpt>
   <trkpt lat="30.921919" lon="34.735801"><ele>467.5</ele><name>TP02502</name><time>2016-12-28T19:54:42Z</time></trkpt>
   <trkpt lat="30.921938" lon="34.735769"><ele>468</ele><name>TP02503</name><time>2016-12-28T19:54:44Z</time></trkpt>
   <trkpt lat="30.921955" lon="34.73573"><ele>468.6</ele><name>TP02504</name><time>2016-12-28T19:54:48Z</time></trkpt>
   <trkpt lat="30.921968" lon="34.735688"><ele>469.3</ele><name>TP02505</name><time>2016-12-28T19:54:49Z</time></trkpt>
   <trkpt lat="30.921981" lon="34.735647"><ele>470</ele><name>TP02506</name><time>2016-12-28T19:54:50Z</time></trkpt>
   <trkpt lat="30.921998" lon="34.735607"><ele>470.6</ele><name>TP02507</name><time>2016-12-28T19:54:51Z</time></trkpt>
   <trkpt lat="30.922019" lon="34.735569"><ele>471.3</ele><name>TP02508</name><time>2016-12-28T19:54:52Z</time></trkpt>
   <trkpt lat="30.922044" lon="34.735532"><ele>472</ele><name>TP02509</name><time>2016-12-28T19:54:53Z</time></trkpt>
   <trkpt lat="30.922073" lon="34.735494"><ele>472.7</ele><name>TP02510</name><time>2016-12-28T19:54:54Z</time></trkpt>
   <trkpt lat="30.922102" lon="34.735458"><ele>473.2</ele><name>TP02511</name><time>2016-12-28T19:54:55Z</time></trkpt>
   <trkpt lat="30.922177" lon="34.735364"><ele>473</ele><name>TP02512</name><time>2016-12-28T19:54:57Z</time></trkpt>
   <trkpt lat="30.922209" lon="34.735339"><ele>472.7</ele><name>TP02513</name><time>2016-12-28T19:54:58Z</time></trkpt>
   <trkpt lat="30.922242" lon="34.735326"><ele>472.5</ele><name>TP02514</name><time>2016-12-28T19:54:59Z</time></trkpt>
   <trkpt lat="30.922274" lon="34.735315"><ele>472.2</ele><name>TP02515</name><time>2016-12-28T19:55:00Z</time></trkpt>
   <trkpt lat="30.922312" lon="34.7353"><ele>472</ele><name>TP02516</name><time>2016-12-28T19:55:01Z</time></trkpt>
   <trkpt lat="30.922353" lon="34.735295"><ele>471.7</ele><name>TP02517</name><time>2016-12-28T19:55:02Z</time></trkpt>
   <trkpt lat="30.922398" lon="34.735299"><ele>471.5</ele><name>TP02518</name><time>2016-12-28T19:55:03Z</time></trkpt>
   <trkpt lat="30.922427" lon="34.735303"><ele>471.4</ele><name>TP02519</name><time>2016-12-28T19:55:04Z</time></trkpt>
   <trkpt lat="30.922466" lon="34.735314"><ele>471.2</ele><name>TP02520</name><time>2016-12-28T19:55:06Z</time></trkpt>
   <trkpt lat="30.922511" lon="34.735324"><ele>470.9</ele><name>TP02521</name><time>2016-12-28T19:55:07Z</time></trkpt>
   <trkpt lat="30.922551" lon="34.735329"><ele>470.7</ele><name>TP02522</name><time>2016-12-28T19:55:08Z</time></trkpt>
   <trkpt lat="30.922589" lon="34.735329"><ele>470.5</ele><name>TP02523</name><time>2016-12-28T19:55:09Z</time></trkpt>
   <trkpt lat="30.922693" lon="34.735313"><ele>470</ele><name>TP02524</name><time>2016-12-28T19:55:11Z</time></trkpt>
   <trkpt lat="30.922728" lon="34.735302"><ele>469.8</ele><name>TP02525</name><time>2016-12-28T19:55:12Z</time></trkpt>
   <trkpt lat="30.922789" lon="34.735272"><ele>469.6</ele><name>TP02526</name><time>2016-12-28T19:55:14Z</time></trkpt>
   <trkpt lat="30.922815" lon="34.735252"><ele>469.6</ele><name>TP02527</name><time>2016-12-28T19:55:15Z</time></trkpt>
   <trkpt lat="30.922846" lon="34.735234"><ele>469.6</ele><name>TP02528</name><time>2016-12-28T19:55:16Z</time></trkpt>
   <trkpt lat="30.922877" lon="34.735221"><ele>469.6</ele><name>TP02529</name><time>2016-12-28T19:55:17Z</time></trkpt>
   <trkpt lat="30.922912" lon="34.735207"><ele>469.5</ele><name>TP02530</name><time>2016-12-28T19:55:19Z</time></trkpt>
   <trkpt lat="30.922942" lon="34.735178"><ele>469.4</ele><name>TP02531</name><time>2016-12-28T19:55:21Z</time></trkpt>
   <trkpt lat="30.922982" lon="34.735142"><ele>469.2</ele><name>TP02532</name><time>2016-12-28T19:55:23Z</time></trkpt>
   <trkpt lat="30.923005" lon="34.735121"><ele>469.1</ele><name>TP02533</name><time>2016-12-28T19:55:24Z</time></trkpt>
   <trkpt lat="30.923031" lon="34.735106"><ele>468.9</ele><name>TP02534</name><time>2016-12-28T19:55:25Z</time></trkpt>
   <trkpt lat="30.923063" lon="34.735081"><ele>468.7</ele><name>TP02535</name><time>2016-12-28T19:55:27Z</time></trkpt>
   <trkpt lat="30.923095" lon="34.735056"><ele>468.6</ele><name>TP02536</name><time>2016-12-28T19:55:28Z</time></trkpt>
   <trkpt lat="30.92313" lon="34.735034"><ele>468.5</ele><name>TP02537</name><time>2016-12-28T19:55:29Z</time></trkpt>
   <trkpt lat="30.923162" lon="34.735012"><ele>468.4</ele><name>TP02538</name><time>2016-12-28T19:55:30Z</time></trkpt>
   <trkpt lat="30.923196" lon="34.734986"><ele>468.3</ele><name>TP02539</name><time>2016-12-28T19:55:31Z</time></trkpt>
   <trkpt lat="30.923235" lon="34.734964"><ele>468.2</ele><name>TP02540</name><time>2016-12-28T19:55:32Z</time></trkpt>
   <trkpt lat="30.923277" lon="34.734946"><ele>468</ele><name>TP02541</name><time>2016-12-28T19:55:33Z</time></trkpt>
   <trkpt lat="30.923305" lon="34.734945"><ele>467.8</ele><name>TP02542</name><time>2016-12-28T19:55:34Z</time></trkpt>
   <trkpt lat="30.923349" lon="34.7349"><ele>468</ele><name>TP02543</name><time>2016-12-28T19:55:36Z</time></trkpt>
   <trkpt lat="30.923358" lon="34.734863"><ele>468.4</ele><name>TP02544</name><time>2016-12-28T19:55:37Z</time></trkpt>
   <trkpt lat="30.923355" lon="34.734829"><ele>468.9</ele><name>TP02545</name><time>2016-12-28T19:55:38Z</time></trkpt>
   <trkpt lat="30.923349" lon="34.734796"><ele>469.5</ele><name>TP02546</name><time>2016-12-28T19:55:39Z</time></trkpt>
   <trkpt lat="30.923339" lon="34.734763"><ele>470</ele><name>TP02547</name><time>2016-12-28T19:55:40Z</time></trkpt>
   <trkpt lat="30.923326" lon="34.73473"><ele>470.5</ele><name>TP02548</name><time>2016-12-28T19:55:41Z</time></trkpt>
   <trkpt lat="30.923308" lon="34.734697"><ele>471.1</ele><name>TP02549</name><time>2016-12-28T19:55:42Z</time></trkpt>
   <trkpt lat="30.923291" lon="34.734669"><ele>471.5</ele><name>TP02550</name><time>2016-12-28T19:55:43Z</time></trkpt>
   <trkpt lat="30.923274" lon="34.734641"><ele>472</ele><name>TP02551</name><time>2016-12-28T19:55:44Z</time></trkpt>
   <trkpt lat="30.923239" lon="34.734612"><ele>472.5</ele><name>TP02552</name><time>2016-12-28T19:55:46Z</time></trkpt>
   <trkpt lat="30.923197" lon="34.734585"><ele>473</ele><name>TP02553</name><time>2016-12-28T19:55:47Z</time></trkpt>
   <trkpt lat="30.923152" lon="34.734562"><ele>473</ele><name>TP02554</name><time>2016-12-28T19:55:49Z</time></trkpt>
   <trkpt lat="30.923113" lon="34.734549"><ele>473.1</ele><name>TP02555</name><time>2016-12-28T19:55:50Z</time></trkpt>
   <trkpt lat="30.923074" lon="34.734539"><ele>473.2</ele><name>TP02556</name><time>2016-12-28T19:55:51Z</time></trkpt>
   <trkpt lat="30.923036" lon="34.734531"><ele>473.2</ele><name>TP02557</name><time>2016-12-28T19:55:52Z</time></trkpt>
   <trkpt lat="30.922998" lon="34.734525"><ele>473.3</ele><name>TP02558</name><time>2016-12-28T19:55:53Z</time></trkpt>
   <trkpt lat="30.922961" lon="34.734521"><ele>473.4</ele><name>TP02559</name><time>2016-12-28T19:55:54Z</time></trkpt>
   <trkpt lat="30.922924" lon="34.734522"><ele>473.5</ele><name>TP02560</name><time>2016-12-28T19:55:55Z</time></trkpt>
   <trkpt lat="30.922854" lon="34.734576"><ele>473.5</ele><name>TP02561</name><time>2016-12-28T19:55:57Z</time></trkpt>
   <trkpt lat="30.922829" lon="34.734595"><ele>473.3</ele><name>TP02562</name><time>2016-12-28T19:55:58Z</time></trkpt>
   <trkpt lat="30.922796" lon="34.734613"><ele>473</ele><name>TP02563</name><time>2016-12-28T19:55:59Z</time></trkpt>
   <trkpt lat="30.922763" lon="34.734641"><ele>472.6</ele><name>TP02564</name><time>2016-12-28T19:56:00Z</time></trkpt>
   <trkpt lat="30.922728" lon="34.734664"><ele>472.3</ele><name>TP02565</name><time>2016-12-28T19:56:01Z</time></trkpt>
   <trkpt lat="30.922691" lon="34.734685"><ele>472</ele><name>TP02566</name><time>2016-12-28T19:56:02Z</time></trkpt>
   <trkpt lat="30.922649" lon="34.734709"><ele>471.7</ele><name>TP02567</name><time>2016-12-28T19:56:03Z</time></trkpt>
   <trkpt lat="30.922609" lon="34.734736"><ele>471.5</ele><name>TP02568</name><time>2016-12-28T19:56:04Z</time></trkpt>
   <trkpt lat="30.922569" lon="34.734765"><ele>471.3</ele><name>TP02569</name><time>2016-12-28T19:56:05Z</time></trkpt>
   <trkpt lat="30.922525" lon="34.734793"><ele>471.1</ele><name>TP02570</name><time>2016-12-28T19:56:06Z</time></trkpt>
   <trkpt lat="30.922474" lon="34.734809"><ele>470.9</ele><name>TP02571</name><time>2016-12-28T19:56:07Z</time></trkpt>
   <trkpt lat="30.922421" lon="34.734816"><ele>470.7</ele><name>TP02572</name><time>2016-12-28T19:56:08Z</time></trkpt>
   <trkpt lat="30.92237" lon="34.734819"><ele>470.6</ele><name>TP02573</name><time>2016-12-28T19:56:09Z</time></trkpt>
   <trkpt lat="30.922314" lon="34.734813"><ele>470.4</ele><name>TP02574</name><time>2016-12-28T19:56:10Z</time></trkpt>
   <trkpt lat="30.922266" lon="34.734794"><ele>470.2</ele><name>TP02575</name><time>2016-12-28T19:56:11Z</time></trkpt>
   <trkpt lat="30.922216" lon="34.734773"><ele>469.9</ele><name>TP02576</name><time>2016-12-28T19:56:12Z</time></trkpt>
   <trkpt lat="30.922171" lon="34.734732"><ele>469.5</ele><name>TP02577</name><time>2016-12-28T19:56:13Z</time></trkpt>
   <trkpt lat="30.922136" lon="34.734685"><ele>469</ele><name>TP02578</name><time>2016-12-28T19:56:14Z</time></trkpt>
   <trkpt lat="30.922112" lon="34.734635"><ele>468.6</ele><name>TP02579</name><time>2016-12-28T19:56:15Z</time></trkpt>
   <trkpt lat="30.9221" lon="34.734581"><ele>468.1</ele><name>TP02580</name><time>2016-12-28T19:56:16Z</time></trkpt>
   <trkpt lat="30.922094" lon="34.734521"><ele>467.8</ele><name>TP02581</name><time>2016-12-28T19:56:17Z</time></trkpt>
   <trkpt lat="30.922099" lon="34.734466"><ele>467.7</ele><name>TP02582</name><time>2016-12-28T19:56:18Z</time></trkpt>
   <trkpt lat="30.922105" lon="34.734416"><ele>467.5</ele><name>TP02583</name><time>2016-12-28T19:56:19Z</time></trkpt>
   <trkpt lat="30.922106" lon="34.734363"><ele>467.3</ele><name>TP02584</name><time>2016-12-28T19:56:20Z</time></trkpt>
   <trkpt lat="30.922101" lon="34.734311"><ele>467.1</ele><name>TP02585</name><time>2016-12-28T19:56:21Z</time></trkpt>
   <trkpt lat="30.922078" lon="34.73427"><ele>466.9</ele><name>TP02586</name><time>2016-12-28T19:56:22Z</time></trkpt>
   <trkpt lat="30.922044" lon="34.734237"><ele>466.6</ele><name>TP02587</name><time>2016-12-28T19:56:23Z</time></trkpt>
   <trkpt lat="30.922006" lon="34.734207"><ele>466.4</ele><name>TP02588</name><time>2016-12-28T19:56:24Z</time></trkpt>
   <trkpt lat="30.921972" lon="34.734168"><ele>466.1</ele><name>TP02589</name><time>2016-12-28T19:56:25Z</time></trkpt>
   <trkpt lat="30.921955" lon="34.734112"><ele>465.8</ele><name>TP02590</name><time>2016-12-28T19:56:26Z</time></trkpt>
   <trkpt lat="30.921948" lon="34.734051"><ele>465.5</ele><name>TP02591</name><time>2016-12-28T19:56:27Z</time></trkpt>
   <trkpt lat="30.921936" lon="34.733991"><ele>465.2</ele><name>TP02592</name><time>2016-12-28T19:56:28Z</time></trkpt>
   <trkpt lat="30.921946" lon="34.733933"><ele>465</ele><name>TP02593</name><time>2016-12-28T19:56:29Z</time></trkpt>
   <trkpt lat="30.921979" lon="34.73389"><ele>465</ele><name>TP02594</name><time>2016-12-28T19:56:30Z</time></trkpt>
   <trkpt lat="30.922016" lon="34.733837"><ele>464.9</ele><name>TP02595</name><time>2016-12-28T19:56:31Z</time></trkpt>
   <trkpt lat="30.922059" lon="34.733772"><ele>464.9</ele><name>TP02596</name><time>2016-12-28T19:56:32Z</time></trkpt>
   <trkpt lat="30.922101" lon="34.7337"><ele>464.8</ele><name>TP02597</name><time>2016-12-28T19:56:33Z</time></trkpt>
   <trkpt lat="30.922151" lon="34.733636"><ele>464.5</ele><name>TP02598</name><time>2016-12-28T19:56:34Z</time></trkpt>
   <trkpt lat="30.922205" lon="34.733573"><ele>464.2</ele><name>TP02599</name><time>2016-12-28T19:56:35Z</time></trkpt>
   <trkpt lat="30.922253" lon="34.733506"><ele>463.7</ele><name>TP02600</name><time>2016-12-28T19:56:36Z</time></trkpt>
   <trkpt lat="30.922291" lon="34.733433"><ele>463.2</ele><name>TP02601</name><time>2016-12-28T19:56:37Z</time></trkpt>
   <trkpt lat="30.922317" lon="34.733353"><ele>462.5</ele><name>TP02602</name><time>2016-12-28T19:56:38Z</time></trkpt>
   <trkpt lat="30.922337" lon="34.733282"><ele>461.9</ele><name>TP02603</name><time>2016-12-28T19:56:39Z</time></trkpt>
   <trkpt lat="30.922355" lon="34.73322"><ele>461.3</ele><name>TP02604</name><time>2016-12-28T19:56:40Z</time></trkpt>
   <trkpt lat="30.922364" lon="34.733174"><ele>460.9</ele><name>TP02605</name><time>2016-12-28T19:56:41Z</time></trkpt>
   <trkpt lat="30.922346" lon="34.733138"><ele>460.7</ele><name>TP02606</name><time>2016-12-28T19:56:42Z</time></trkpt>
   <trkpt lat="30.922314" lon="34.733098"><ele>460.4</ele><name>TP02607</name><time>2016-12-28T19:56:43Z</time></trkpt>
   <trkpt lat="30.922279" lon="34.733052"><ele>460.1</ele><name>TP02608</name><time>2016-12-28T19:56:44Z</time></trkpt>
   <trkpt lat="30.922243" lon="34.732997"><ele>459.8</ele><name>TP02609</name><time>2016-12-28T19:56:45Z</time></trkpt>
   <trkpt lat="30.922206" lon="34.732937"><ele>459.6</ele><name>TP02610</name><time>2016-12-28T19:56:46Z</time></trkpt>
   <trkpt lat="30.922174" lon="34.732861"><ele>458.4</ele><name>TP02611</name><time>2016-12-28T19:56:47Z</time></trkpt>
   <trkpt lat="30.922165" lon="34.732768"><ele>456.6</ele><name>TP02612</name><time>2016-12-28T19:56:48Z</time></trkpt>
   <trkpt lat="30.922186" lon="34.732683"><ele>454.8</ele><name>TP02613</name><time>2016-12-28T19:56:49Z</time></trkpt>
   <trkpt lat="30.922227" lon="34.732611"><ele>453.4</ele><name>TP02614</name><time>2016-12-28T19:56:50Z</time></trkpt>
   <trkpt lat="30.922288" lon="34.732565"><ele>452.6</ele><name>TP02615</name><time>2016-12-28T19:56:51Z</time></trkpt>
   <trkpt lat="30.92235" lon="34.732532"><ele>452</ele><name>TP02616</name><time>2016-12-28T19:56:52Z</time></trkpt>
   <trkpt lat="30.922409" lon="34.732514"><ele>451.8</ele><name>TP02617</name><time>2016-12-28T19:56:53Z</time></trkpt>
   <trkpt lat="30.922472" lon="34.7325"><ele>451.7</ele><name>TP02618</name><time>2016-12-28T19:56:54Z</time></trkpt>
   <trkpt lat="30.922534" lon="34.732484"><ele>451.6</ele><name>TP02619</name><time>2016-12-28T19:56:55Z</time></trkpt>
   <trkpt lat="30.922598" lon="34.732469"><ele>451.5</ele><name>TP02620</name><time>2016-12-28T19:56:56Z</time></trkpt>
   <trkpt lat="30.922656" lon="34.732459"><ele>451.5</ele><name>TP02621</name><time>2016-12-28T19:56:57Z</time></trkpt>
   <trkpt lat="30.922706" lon="34.732423"><ele>451.2</ele><name>TP02622</name><time>2016-12-28T19:56:58Z</time></trkpt>
   <trkpt lat="30.922746" lon="34.732378"><ele>450.8</ele><name>TP02623</name><time>2016-12-28T19:56:59Z</time></trkpt>
   <trkpt lat="30.922784" lon="34.73234"><ele>450.6</ele><name>TP02624</name><time>2016-12-28T19:57:00Z</time></trkpt>
   <trkpt lat="30.922812" lon="34.732277"><ele>450.1</ele><name>TP02625</name><time>2016-12-28T19:57:01Z</time></trkpt>
   <trkpt lat="30.922837" lon="34.73222"><ele>449.7</ele><name>TP02626</name><time>2016-12-28T19:57:02Z</time></trkpt>
   <trkpt lat="30.92287" lon="34.732176"><ele>449.5</ele><name>TP02627</name><time>2016-12-28T19:57:03Z</time></trkpt>
   <trkpt lat="30.922915" lon="34.732142"><ele>449.5</ele><name>TP02628</name><time>2016-12-28T19:57:04Z</time></trkpt>
   <trkpt lat="30.922971" lon="34.732102"><ele>449.2</ele><name>TP02629</name><time>2016-12-28T19:57:05Z</time></trkpt>
   <trkpt lat="30.923027" lon="34.732057"><ele>448.6</ele><name>TP02630</name><time>2016-12-28T19:57:06Z</time></trkpt>
   <trkpt lat="30.923095" lon="34.732006"><ele>447.8</ele><name>TP02631</name><time>2016-12-28T19:57:07Z</time></trkpt>
   <trkpt lat="30.923169" lon="34.731953"><ele>447.1</ele><name>TP02632</name><time>2016-12-28T19:57:08Z</time></trkpt>
   <trkpt lat="30.923248" lon="34.731918"><ele>446.8</ele><name>TP02633</name><time>2016-12-28T19:57:09Z</time></trkpt>
   <trkpt lat="30.923327" lon="34.731887"><ele>446.6</ele><name>TP02634</name><time>2016-12-28T19:57:10Z</time></trkpt>
   <trkpt lat="30.923402" lon="34.731856"><ele>446.5</ele><name>TP02635</name><time>2016-12-28T19:57:11Z</time></trkpt>
   <trkpt lat="30.923466" lon="34.731825"><ele>446.4</ele><name>TP02636</name><time>2016-12-28T19:57:12Z</time></trkpt>
   <trkpt lat="30.923553" lon="34.73175"><ele>446</ele><name>TP02637</name><time>2016-12-28T19:57:14Z</time></trkpt>
   <trkpt lat="30.92358" lon="34.731706"><ele>445.7</ele><name>TP02638</name><time>2016-12-28T19:57:15Z</time></trkpt>
   <trkpt lat="30.923603" lon="34.731654"><ele>445.3</ele><name>TP02639</name><time>2016-12-28T19:57:16Z</time></trkpt>
   <trkpt lat="30.923629" lon="34.731599"><ele>444.9</ele><name>TP02640</name><time>2016-12-28T19:57:17Z</time></trkpt>
   <trkpt lat="30.92366" lon="34.731534"><ele>444.6</ele><name>TP02641</name><time>2016-12-28T19:57:18Z</time></trkpt>
   <trkpt lat="30.923695" lon="34.731471"><ele>444.3</ele><name>TP02642</name><time>2016-12-28T19:57:19Z</time></trkpt>
   <trkpt lat="30.923744" lon="34.731416"><ele>444.3</ele><name>TP02643</name><time>2016-12-28T19:57:20Z</time></trkpt>
   <trkpt lat="30.923807" lon="34.731366"><ele>443.9</ele><name>TP02644</name><time>2016-12-28T19:57:21Z</time></trkpt>
   <trkpt lat="30.92388" lon="34.73132"><ele>443.3</ele><name>TP02645</name><time>2016-12-28T19:57:22Z</time></trkpt>
   <trkpt lat="30.92395" lon="34.731278"><ele>442.8</ele><name>TP02646</name><time>2016-12-28T19:57:23Z</time></trkpt>
   <trkpt lat="30.924013" lon="34.731227"><ele>442.1</ele><name>TP02647</name><time>2016-12-28T19:57:24Z</time></trkpt>
   <trkpt lat="30.92407" lon="34.731166"><ele>441.2</ele><name>TP02648</name><time>2016-12-28T19:57:25Z</time></trkpt>
   <trkpt lat="30.924121" lon="34.731101"><ele>440.3</ele><name>TP02649</name><time>2016-12-28T19:57:26Z</time></trkpt>
   <trkpt lat="30.924163" lon="34.731038"><ele>439.5</ele><name>TP02650</name><time>2016-12-28T19:57:27Z</time></trkpt>
   <trkpt lat="30.924201" lon="34.730979"><ele>438.7</ele><name>TP02651</name><time>2016-12-28T19:57:28Z</time></trkpt>
   <trkpt lat="30.924243" lon="34.73093"><ele>438.2</ele><name>TP02652</name><time>2016-12-28T19:57:29Z</time></trkpt>
   <trkpt lat="30.924286" lon="34.730881"><ele>437.7</ele><name>TP02653</name><time>2016-12-28T19:57:30Z</time></trkpt>
   <trkpt lat="30.924304" lon="34.730813"><ele>436.9</ele><name>TP02654</name><time>2016-12-28T19:57:31Z</time></trkpt>
   <trkpt lat="30.924305" lon="34.730746"><ele>436.2</ele><name>TP02655</name><time>2016-12-28T19:57:32Z</time></trkpt>
   <trkpt lat="30.924304" lon="34.730686"><ele>435.6</ele><name>TP02656</name><time>2016-12-28T19:57:33Z</time></trkpt>
   <trkpt lat="30.924311" lon="34.730633"><ele>435</ele><name>TP02657</name><time>2016-12-28T19:57:34Z</time></trkpt>
   <trkpt lat="30.924321" lon="34.730584"><ele>434.5</ele><name>TP02658</name><time>2016-12-28T19:57:35Z</time></trkpt>
   <trkpt lat="30.924316" lon="34.730553"><ele>434.2</ele><name>TP02659</name><time>2016-12-28T19:57:44Z</time></trkpt>
   <trkpt lat="30.924317" lon="34.730504"><ele>433.7</ele><name>TP02660</name><time>2016-12-28T19:57:49Z</time></trkpt>
   <trkpt lat="30.924311" lon="34.730469"><ele>433.3</ele><name>TP02661</name><time>2016-12-28T19:57:50Z</time></trkpt>
   <trkpt lat="30.924306" lon="34.730434"><ele>432.9</ele><name>TP02662</name><time>2016-12-28T19:57:51Z</time></trkpt>
   <trkpt lat="30.924309" lon="34.730396"><ele>432.5</ele><name>TP02663</name><time>2016-12-28T19:57:52Z</time></trkpt>
   <trkpt lat="30.924322" lon="34.730367"><ele>432.3</ele><name>TP02664</name><time>2016-12-28T19:57:53Z</time></trkpt>
   <trkpt lat="30.924347" lon="34.730337"><ele>432.2</ele><name>TP02665</name><time>2016-12-28T19:57:54Z</time></trkpt>
   <trkpt lat="30.924369" lon="34.730319"><ele>432.1</ele><name>TP02666</name><time>2016-12-28T19:57:55Z</time></trkpt>
   <trkpt lat="30.924401" lon="34.73029"><ele>432</ele><name>TP02667</name><time>2016-12-28T19:57:57Z</time></trkpt>
   <trkpt lat="30.924417" lon="34.730264"><ele>431.9</ele><name>TP02668</name><time>2016-12-28T19:57:58Z</time></trkpt>
   <trkpt lat="30.924433" lon="34.730237"><ele>431.8</ele><name>TP02669</name><time>2016-12-28T19:57:59Z</time></trkpt>
   <trkpt lat="30.924465" lon="34.730183"><ele>431.6</ele><name>TP02670</name><time>2016-12-28T19:58:00Z</time></trkpt>
   <trkpt lat="30.924513" lon="34.730105"><ele>431.3</ele><name>TP02671</name><time>2016-12-28T19:58:01Z</time></trkpt>
   <trkpt lat="30.924556" lon="34.730029"><ele>431</ele><name>TP02672</name><time>2016-12-28T19:58:02Z</time></trkpt>
   <trkpt lat="30.924586" lon="34.729958"><ele>430.7</ele><name>TP02673</name><time>2016-12-28T19:58:03Z</time></trkpt>
   <trkpt lat="30.924654" lon="34.729723"><ele>427.9</ele><name>TP02674</name><time>2016-12-28T19:58:05Z</time></trkpt>
   <trkpt lat="30.924664" lon="34.729669"><ele>427.3</ele><name>TP02675</name><time>2016-12-28T19:58:06Z</time></trkpt>
   <trkpt lat="30.924696" lon="34.729622"><ele>426.3</ele><name>TP02676</name><time>2016-12-28T19:58:07Z</time></trkpt>
   <trkpt lat="30.924737" lon="34.72959"><ele>425.3</ele><name>TP02677</name><time>2016-12-28T19:58:08Z</time></trkpt>
   <trkpt lat="30.92478" lon="34.729549"><ele>424.5</ele><name>TP02678</name><time>2016-12-28T19:58:09Z</time></trkpt>
   <trkpt lat="30.924832" lon="34.729509"><ele>423.6</ele><name>TP02679</name><time>2016-12-28T19:58:10Z</time></trkpt>
   <trkpt lat="30.924881" lon="34.72946"><ele>422.8</ele><name>TP02680</name><time>2016-12-28T19:58:11Z</time></trkpt>
   <trkpt lat="30.924911" lon="34.729398"><ele>422.3</ele><name>TP02681</name><time>2016-12-28T19:58:12Z</time></trkpt>
   <trkpt lat="30.924918" lon="34.729328"><ele>422.3</ele><name>TP02682</name><time>2016-12-28T19:58:13Z</time></trkpt>
   <trkpt lat="30.924915" lon="34.72926"><ele>422.4</ele><name>TP02683</name><time>2016-12-28T19:58:14Z</time></trkpt>
   <trkpt lat="30.924912" lon="34.729191"><ele>422.6</ele><name>TP02684</name><time>2016-12-28T19:58:15Z</time></trkpt>
   <trkpt lat="30.924923" lon="34.729121"><ele>422.4</ele><name>TP02685</name><time>2016-12-28T19:58:16Z</time></trkpt>
   <trkpt lat="30.924938" lon="34.729049"><ele>422.3</ele><name>TP02686</name><time>2016-12-28T19:58:17Z</time></trkpt>
   <trkpt lat="30.924961" lon="34.728973"><ele>421.9</ele><name>TP02687</name><time>2016-12-28T19:58:18Z</time></trkpt>
   <trkpt lat="30.924996" lon="34.728917"><ele>421.4</ele><name>TP02688</name><time>2016-12-28T19:58:19Z</time></trkpt>
   <trkpt lat="30.925034" lon="34.728864"><ele>420.8</ele><name>TP02689</name><time>2016-12-28T19:58:20Z</time></trkpt>
   <trkpt lat="30.925065" lon="34.728812"><ele>420.3</ele><name>TP02690</name><time>2016-12-28T19:58:21Z</time></trkpt>
   <trkpt lat="30.925096" lon="34.728754"><ele>419.8</ele><name>TP02691</name><time>2016-12-28T19:58:22Z</time></trkpt>
   <trkpt lat="30.925131" lon="34.728697"><ele>419.8</ele><name>TP02692</name><time>2016-12-28T19:58:23Z</time></trkpt>
   <trkpt lat="30.92517" lon="34.728642"><ele>419.8</ele><name>TP02693</name><time>2016-12-28T19:58:24Z</time></trkpt>
   <trkpt lat="30.92521" lon="34.728593"><ele>419.7</ele><name>TP02694</name><time>2016-12-28T19:58:25Z</time></trkpt>
   <trkpt lat="30.925248" lon="34.728547"><ele>419.8</ele><name>TP02695</name><time>2016-12-28T19:58:26Z</time></trkpt>
   <trkpt lat="30.925293" lon="34.728499"><ele>419.7</ele><name>TP02696</name><time>2016-12-28T19:58:27Z</time></trkpt>
   <trkpt lat="30.925346" lon="34.728462"><ele>419.5</ele><name>TP02697</name><time>2016-12-28T19:58:28Z</time></trkpt>
   <trkpt lat="30.925407" lon="34.728437"><ele>419</ele><name>TP02698</name><time>2016-12-28T19:58:29Z</time></trkpt>
   <trkpt lat="30.925468" lon="34.728416"><ele>418.1</ele><name>TP02699</name><time>2016-12-28T19:58:30Z</time></trkpt>
   <trkpt lat="30.925528" lon="34.728395"><ele>417.1</ele><name>TP02700</name><time>2016-12-28T19:58:31Z</time></trkpt>
   <trkpt lat="30.925579" lon="34.728387"><ele>416.1</ele><name>TP02701</name><time>2016-12-28T19:58:32Z</time></trkpt>
   <trkpt lat="30.92561" lon="34.728357"><ele>415.7</ele><name>TP02702</name><time>2016-12-28T19:58:33Z</time></trkpt>
   <trkpt lat="30.925625" lon="34.728321"><ele>415.7</ele><name>TP02703</name><time>2016-12-28T19:58:34Z</time></trkpt>
   <trkpt lat="30.925632" lon="34.728284"><ele>415.9</ele><name>TP02704</name><time>2016-12-28T19:58:35Z</time></trkpt>
   <trkpt lat="30.925647" lon="34.728223"><ele>416.1</ele><name>TP02705</name><time>2016-12-28T19:58:37Z</time></trkpt>
   <trkpt lat="30.925656" lon="34.728186"><ele>416.1</ele><name>TP02706</name><time>2016-12-28T19:58:38Z</time></trkpt>
   <trkpt lat="30.925661" lon="34.728146"><ele>416.3</ele><name>TP02707</name><time>2016-12-28T19:58:39Z</time></trkpt>
   <trkpt lat="30.925667" lon="34.728098"><ele>416.5</ele><name>TP02708</name><time>2016-12-28T19:58:40Z</time></trkpt>
   <trkpt lat="30.925673" lon="34.728048"><ele>416.7</ele><name>TP02709</name><time>2016-12-28T19:58:41Z</time></trkpt>
   <trkpt lat="30.925682" lon="34.727994"><ele>416.9</ele><name>TP02710</name><time>2016-12-28T19:58:42Z</time></trkpt>
   <trkpt lat="30.925694" lon="34.727951"><ele>416.8</ele><name>TP02711</name><time>2016-12-28T19:58:43Z</time></trkpt>
   <trkpt lat="30.925693" lon="34.72791"><ele>417.1</ele><name>TP02712</name><time>2016-12-28T19:58:44Z</time></trkpt>
   <trkpt lat="30.925686" lon="34.72786"><ele>418.1</ele><name>TP02713</name><time>2016-12-28T19:58:45Z</time></trkpt>
   <trkpt lat="30.925684" lon="34.727814"><ele>418.8</ele><name>TP02714</name><time>2016-12-28T19:58:46Z</time></trkpt>
   <trkpt lat="30.925701" lon="34.727763"><ele>419</ele><name>TP02715</name><time>2016-12-28T19:58:47Z</time></trkpt>
   <trkpt lat="30.925722" lon="34.727715"><ele>419</ele><name>TP02716</name><time>2016-12-28T19:58:48Z</time></trkpt>
   <trkpt lat="30.92575" lon="34.727671"><ele>418.7</ele><name>TP02717</name><time>2016-12-28T19:58:49Z</time></trkpt>
   <trkpt lat="30.925771" lon="34.727648"><ele>418.3</ele><name>TP02718</name><time>2016-12-28T19:58:50Z</time></trkpt>
   <trkpt lat="30.925795" lon="34.727579"><ele>418.5</ele><name>TP02719</name><time>2016-12-28T19:58:54Z</time></trkpt>
   <trkpt lat="30.925809" lon="34.727554"><ele>418.5</ele><name>TP02720</name><time>2016-12-28T19:58:55Z</time></trkpt>
   <trkpt lat="30.925856" lon="34.727485"><ele>418</ele><name>TP02721</name><time>2016-12-28T19:58:56Z</time></trkpt>
   <trkpt lat="30.925908" lon="34.727408"><ele>417.6</ele><name>TP02722</name><time>2016-12-28T19:58:57Z</time></trkpt>
   <trkpt lat="30.925961" lon="34.727326"><ele>417.3</ele><name>TP02723</name><time>2016-12-28T19:58:58Z</time></trkpt>
   <trkpt lat="30.926012" lon="34.727245"><ele>417.1</ele><name>TP02724</name><time>2016-12-28T19:58:59Z</time></trkpt>
   <trkpt lat="30.926098" lon="34.727124"><ele>416.7</ele><name>TP02725</name><time>2016-12-28T19:59:00Z</time></trkpt>
   <trkpt lat="30.92625" lon="34.726913"><ele>415</ele><name>TP02726</name><time>2016-12-28T19:59:02Z</time></trkpt>
   <trkpt lat="30.926298" lon="34.72684"><ele>415</ele><name>TP02727</name><time>2016-12-28T19:59:03Z</time></trkpt>
   <trkpt lat="30.926358" lon="34.726774"><ele>414.6</ele><name>TP02728</name><time>2016-12-28T19:59:04Z</time></trkpt>
   <trkpt lat="30.926423" lon="34.726712"><ele>414.1</ele><name>TP02729</name><time>2016-12-28T19:59:05Z</time></trkpt>
   <trkpt lat="30.926499" lon="34.726655"><ele>413.4</ele><name>TP02730</name><time>2016-12-28T19:59:06Z</time></trkpt>
   <trkpt lat="30.926581" lon="34.72661"><ele>412.4</ele><name>TP02731</name><time>2016-12-28T19:59:07Z</time></trkpt>
   <trkpt lat="30.926671" lon="34.726577"><ele>411.2</ele><name>TP02732</name><time>2016-12-28T19:59:08Z</time></trkpt>
   <trkpt lat="30.926754" lon="34.726545"><ele>410.1</ele><name>TP02733</name><time>2016-12-28T19:59:09Z</time></trkpt>
   <trkpt lat="30.926825" lon="34.726516"><ele>409.3</ele><name>TP02734</name><time>2016-12-28T19:59:10Z</time></trkpt>
   <trkpt lat="30.926899" lon="34.726501"><ele>408.1</ele><name>TP02735</name><time>2016-12-28T19:59:11Z</time></trkpt>
   <trkpt lat="30.926967" lon="34.726499"><ele>406.9</ele><name>TP02736</name><time>2016-12-28T19:59:12Z</time></trkpt>
   <trkpt lat="30.927085" lon="34.726494"><ele>404.9</ele><name>TP02737</name><time>2016-12-28T19:59:14Z</time></trkpt>
   <trkpt lat="30.92713" lon="34.726461"><ele>404.2</ele><name>TP02738</name><time>2016-12-28T19:59:15Z</time></trkpt>
   <trkpt lat="30.927178" lon="34.726417"><ele>403.7</ele><name>TP02739</name><time>2016-12-28T19:59:16Z</time></trkpt>
   <trkpt lat="30.927208" lon="34.726357"><ele>403.7</ele><name>TP02740</name><time>2016-12-28T19:59:17Z</time></trkpt>
   <trkpt lat="30.927249" lon="34.726306"><ele>403.3</ele><name>TP02741</name><time>2016-12-28T19:59:18Z</time></trkpt>
   <trkpt lat="30.9273" lon="34.726251"><ele>402.5</ele><name>TP02742</name><time>2016-12-28T19:59:19Z</time></trkpt>
   <trkpt lat="30.92736" lon="34.726191"><ele>400.4</ele><name>TP02743</name><time>2016-12-28T19:59:20Z</time></trkpt>
   <trkpt lat="30.927426" lon="34.726133"><ele>398.3</ele><name>TP02744</name><time>2016-12-28T19:59:21Z</time></trkpt>
   <trkpt lat="30.927495" lon="34.726073"><ele>396.3</ele><name>TP02745</name><time>2016-12-28T19:59:22Z</time></trkpt>
   <trkpt lat="30.92756" lon="34.726018"><ele>394.5</ele><name>TP02746</name><time>2016-12-28T19:59:23Z</time></trkpt>
   <trkpt lat="30.927631" lon="34.72597"><ele>392.8</ele><name>TP02747</name><time>2016-12-28T19:59:24Z</time></trkpt>
   <trkpt lat="30.927715" lon="34.725933"><ele>390.8</ele><name>TP02748</name><time>2016-12-28T19:59:25Z</time></trkpt>
   <trkpt lat="30.927783" lon="34.725893"><ele>389.3</ele><name>TP02749</name><time>2016-12-28T19:59:26Z</time></trkpt>
   <trkpt lat="30.927808" lon="34.725844"><ele>388.9</ele><name>TP02750</name><time>2016-12-28T19:59:27Z</time></trkpt>
   <trkpt lat="30.927819" lon="34.725805"><ele>388.8</ele><name>TP02751</name><time>2016-12-28T19:59:28Z</time></trkpt>
   <trkpt lat="30.927824" lon="34.725754"><ele>388.9</ele><name>TP02752</name><time>2016-12-28T19:59:29Z</time></trkpt>
   <trkpt lat="30.927839" lon="34.725691"><ele>388.9</ele><name>TP02753</name><time>2016-12-28T19:59:30Z</time></trkpt>
   <trkpt lat="30.927864" lon="34.725619"><ele>388.7</ele><name>TP02754</name><time>2016-12-28T19:59:31Z</time></trkpt>
   <trkpt lat="30.927893" lon="34.725548"><ele>388.6</ele><name>TP02755</name><time>2016-12-28T19:59:32Z</time></trkpt>
   <trkpt lat="30.927923" lon="34.725473"><ele>388.5</ele><name>TP02756</name><time>2016-12-28T19:59:33Z</time></trkpt>
   <trkpt lat="30.927945" lon="34.725389"><ele>388.5</ele><name>TP02757</name><time>2016-12-28T19:59:34Z</time></trkpt>
   <trkpt lat="30.927961" lon="34.725303"><ele>388.5</ele><name>TP02758</name><time>2016-12-28T19:59:35Z</time></trkpt>
   <trkpt lat="30.927983" lon="34.725214"><ele>388.4</ele><name>TP02759</name><time>2016-12-28T19:59:36Z</time></trkpt>
   <trkpt lat="30.928006" lon="34.725129"><ele>388.2</ele><name>TP02760</name><time>2016-12-28T19:59:37Z</time></trkpt>
   <trkpt lat="30.928036" lon="34.725044"><ele>388</ele><name>TP02761</name><time>2016-12-28T19:59:38Z</time></trkpt>
   <trkpt lat="30.928059" lon="34.724954"><ele>387.9</ele><name>TP02762</name><time>2016-12-28T19:59:39Z</time></trkpt>
   <trkpt lat="30.928079" lon="34.72487"><ele>387.8</ele><name>TP02763</name><time>2016-12-28T19:59:40Z</time></trkpt>
   <trkpt lat="30.928106" lon="34.724788"><ele>387.7</ele><name>TP02764</name><time>2016-12-28T19:59:41Z</time></trkpt>
   <trkpt lat="30.928137" lon="34.724708"><ele>387.5</ele><name>TP02765</name><time>2016-12-28T19:59:42Z</time></trkpt>
   <trkpt lat="30.92816" lon="34.724626"><ele>387.4</ele><name>TP02766</name><time>2016-12-28T19:59:43Z</time></trkpt>
   <trkpt lat="30.928197" lon="34.724544"><ele>386.7</ele><name>TP02767</name><time>2016-12-28T19:59:44Z</time></trkpt>
   <trkpt lat="30.92824" lon="34.724457"><ele>385.4</ele><name>TP02768</name><time>2016-12-28T19:59:45Z</time></trkpt>
   <trkpt lat="30.92828" lon="34.724383"><ele>384.4</ele><name>TP02769</name><time>2016-12-28T19:59:46Z</time></trkpt>
   <trkpt lat="30.928339" lon="34.724315"><ele>383.3</ele><name>TP02770</name><time>2016-12-28T19:59:47Z</time></trkpt>
   <trkpt lat="30.928395" lon="34.724244"><ele>382.4</ele><name>TP02771</name><time>2016-12-28T19:59:48Z</time></trkpt>
   <trkpt lat="30.928442" lon="34.724175"><ele>381.7</ele><name>TP02772</name><time>2016-12-28T19:59:49Z</time></trkpt>
   <trkpt lat="30.928483" lon="34.724121"><ele>381.2</ele><name>TP02773</name><time>2016-12-28T19:59:50Z</time></trkpt>
   <trkpt lat="30.928505" lon="34.724076"><ele>380.9</ele><name>TP02774</name><time>2016-12-28T19:59:51Z</time></trkpt>
   <trkpt lat="30.928519" lon="34.724039"><ele>380.8</ele><name>TP02775</name><time>2016-12-28T19:59:52Z</time></trkpt>
   <trkpt lat="30.928544" lon="34.723998"><ele>380.6</ele><name>TP02776</name><time>2016-12-28T19:59:53Z</time></trkpt>
   <trkpt lat="30.928572" lon="34.723962"><ele>380.4</ele><name>TP02777</name><time>2016-12-28T19:59:54Z</time></trkpt>
   <trkpt lat="30.928609" lon="34.723933"><ele>380.2</ele><name>TP02778</name><time>2016-12-28T19:59:55Z</time></trkpt>
   <trkpt lat="30.928646" lon="34.723891"><ele>380</ele><name>TP02779</name><time>2016-12-28T19:59:56Z</time></trkpt>
   <trkpt lat="30.928688" lon="34.723844"><ele>379.9</ele><name>TP02780</name><time>2016-12-28T19:59:57Z</time></trkpt>
   <trkpt lat="30.928731" lon="34.723794"><ele>379.9</ele><name>TP02781</name><time>2016-12-28T19:59:58Z</time></trkpt>
   <trkpt lat="30.928781" lon="34.72374"><ele>379.6</ele><name>TP02782</name><time>2016-12-28T19:59:59Z</time></trkpt>
   <trkpt lat="30.928828" lon="34.72368"><ele>378.5</ele><name>TP02783</name><time>2016-12-28T20:00:00Z</time></trkpt>
   <trkpt lat="30.928872" lon="34.723627"><ele>377.6</ele><name>TP02784</name><time>2016-12-28T20:00:01Z</time></trkpt>
   <trkpt lat="30.928908" lon="34.723588"><ele>376.9</ele><name>TP02785</name><time>2016-12-28T20:00:02Z</time></trkpt>
   <trkpt lat="30.928963" lon="34.723577"><ele>376.3</ele><name>TP02786</name><time>2016-12-28T20:00:03Z</time></trkpt>
   <trkpt lat="30.929023" lon="34.72356"><ele>375.5</ele><name>TP02787</name><time>2016-12-28T20:00:04Z</time></trkpt>
   <trkpt lat="30.929088" lon="34.723547"><ele>374.8</ele><name>TP02788</name><time>2016-12-28T20:00:05Z</time></trkpt>
   <trkpt lat="30.929156" lon="34.723532"><ele>374</ele><name>TP02789</name><time>2016-12-28T20:00:06Z</time></trkpt>
   <trkpt lat="30.929222" lon="34.723499"><ele>373.2</ele><name>TP02790</name><time>2016-12-28T20:00:07Z</time></trkpt>
   <trkpt lat="30.929285" lon="34.723455"><ele>372.3</ele><name>TP02791</name><time>2016-12-28T20:00:08Z</time></trkpt>
   <trkpt lat="30.929347" lon="34.723405"><ele>371.4</ele><name>TP02792</name><time>2016-12-28T20:00:09Z</time></trkpt>
   <trkpt lat="30.929401" lon="34.723357"><ele>370.7</ele><name>TP02793</name><time>2016-12-28T20:00:10Z</time></trkpt>
   <trkpt lat="30.929456" lon="34.723322"><ele>370</ele><name>TP02794</name><time>2016-12-28T20:00:11Z</time></trkpt>
   <trkpt lat="30.929506" lon="34.7233"><ele>369.5</ele><name>TP02795</name><time>2016-12-28T20:00:12Z</time></trkpt>
   <trkpt lat="30.929555" lon="34.723294"><ele>369</ele><name>TP02796</name><time>2016-12-28T20:00:13Z</time></trkpt>
   <trkpt lat="30.929596" lon="34.723297"><ele>368.7</ele><name>TP02797</name><time>2016-12-28T20:00:14Z</time></trkpt>
   <trkpt lat="30.929633" lon="34.723317"><ele>368.6</ele><name>TP02798</name><time>2016-12-28T20:00:15Z</time></trkpt>
   <trkpt lat="30.929666" lon="34.723348"><ele>368.5</ele><name>TP02799</name><time>2016-12-28T20:00:16Z</time></trkpt>
   <trkpt lat="30.929678" lon="34.723383"><ele>368.6</ele><name>TP02800</name><time>2016-12-28T20:00:17Z</time></trkpt>
   <trkpt lat="30.929672" lon="34.723436"><ele>368.9</ele><name>TP02801</name><time>2016-12-28T20:00:19Z</time></trkpt>
   <trkpt lat="30.92966" lon="34.723475"><ele>369.1</ele><name>TP02802</name><time>2016-12-28T20:00:20Z</time></trkpt>
   <trkpt lat="30.929642" lon="34.723512"><ele>369.4</ele><name>TP02803</name><time>2016-12-28T20:00:21Z</time></trkpt>
   <trkpt lat="30.929615" lon="34.723542"><ele>369.8</ele><name>TP02804</name><time>2016-12-28T20:00:22Z</time></trkpt>
   <trkpt lat="30.929582" lon="34.723561"><ele>370.1</ele><name>TP02805</name><time>2016-12-28T20:00:23Z</time></trkpt>
   <trkpt lat="30.929551" lon="34.723584"><ele>370.5</ele><name>TP02806</name><time>2016-12-28T20:00:24Z</time></trkpt>
   <trkpt lat="30.929515" lon="34.7236"><ele>371</ele><name>TP02807</name><time>2016-12-28T20:00:26Z</time></trkpt>
   <trkpt lat="30.929475" lon="34.723612"><ele>371.4</ele><name>TP02808</name><time>2016-12-28T20:00:28Z</time></trkpt>
   <trkpt lat="30.929425" lon="34.723633"><ele>372</ele><name>TP02809</name><time>2016-12-28T20:00:30Z</time></trkpt>
   <trkpt lat="30.929395" lon="34.723646"><ele>372.4</ele><name>TP02810</name><time>2016-12-28T20:00:31Z</time></trkpt>
   <trkpt lat="30.929361" lon="34.723664"><ele>372.9</ele><name>TP02811</name><time>2016-12-28T20:00:32Z</time></trkpt>
   <trkpt lat="30.929322" lon="34.723684"><ele>373.4</ele><name>TP02812</name><time>2016-12-28T20:00:33Z</time></trkpt>
   <trkpt lat="30.929287" lon="34.723705"><ele>373.9</ele><name>TP02813</name><time>2016-12-28T20:00:34Z</time></trkpt>
   <trkpt lat="30.929251" lon="34.723726"><ele>374.4</ele><name>TP02814</name><time>2016-12-28T20:00:35Z</time></trkpt>
   <trkpt lat="30.929208" lon="34.723751"><ele>375</ele><name>TP02815</name><time>2016-12-28T20:00:36Z</time></trkpt>
   <trkpt lat="30.929163" lon="34.72378"><ele>375.4</ele><name>TP02816</name><time>2016-12-28T20:00:37Z</time></trkpt>
   <trkpt lat="30.929119" lon="34.723816"><ele>375.8</ele><name>TP02817</name><time>2016-12-28T20:00:38Z</time></trkpt>
   <trkpt lat="30.929077" lon="34.723863"><ele>376.1</ele><name>TP02818</name><time>2016-12-28T20:00:39Z</time></trkpt>
   <trkpt lat="30.92904" lon="34.723915"><ele>376.3</ele><name>TP02819</name><time>2016-12-28T20:00:40Z</time></trkpt>
   <trkpt lat="30.929006" lon="34.723968"><ele>376.5</ele><name>TP02820</name><time>2016-12-28T20:00:41Z</time></trkpt>
   <trkpt lat="30.928972" lon="34.724028"><ele>376.6</ele><name>TP02821</name><time>2016-12-28T20:00:42Z</time></trkpt>
   <trkpt lat="30.928942" lon="34.724094"><ele>376.7</ele><name>TP02822</name><time>2016-12-28T20:00:43Z</time></trkpt>
   <trkpt lat="30.928908" lon="34.72417"><ele>376.8</ele><name>TP02823</name><time>2016-12-28T20:00:44Z</time></trkpt>
   <trkpt lat="30.928876" lon="34.724252"><ele>376.8</ele><name>TP02824</name><time>2016-12-28T20:00:45Z</time></trkpt>
   <trkpt lat="30.928795" lon="34.724427"><ele>377.1</ele><name>TP02825</name><time>2016-12-28T20:00:46Z</time></trkpt>
   <trkpt lat="30.928736" lon="34.724591"><ele>377.2</ele><name>TP02826</name><time>2016-12-28T20:00:48Z</time></trkpt>
   <trkpt lat="30.928701" lon="34.724642"><ele>377.5</ele><name>TP02827</name><time>2016-12-28T20:00:49Z</time></trkpt>
   <trkpt lat="30.92868" lon="34.72468"><ele>377.6</ele><name>TP02828</name><time>2016-12-28T20:00:50Z</time></trkpt>
   <trkpt lat="30.928685" lon="34.724734"><ele>377.1</ele><name>TP02829</name><time>2016-12-28T20:00:51Z</time></trkpt>
   <trkpt lat="30.928687" lon="34.724793"><ele>376.7</ele><name>TP02830</name><time>2016-12-28T20:00:52Z</time></trkpt>
   <trkpt lat="30.928687" lon="34.724857"><ele>376.2</ele><name>TP02831</name><time>2016-12-28T20:00:53Z</time></trkpt>
   <trkpt lat="30.928687" lon="34.724924"><ele>375.8</ele><name>TP02832</name><time>2016-12-28T20:00:54Z</time></trkpt>
   <trkpt lat="30.92869" lon="34.724985"><ele>375.3</ele><name>TP02833</name><time>2016-12-28T20:00:55Z</time></trkpt>
   <trkpt lat="30.928685" lon="34.72505"><ele>374.9</ele><name>TP02834</name><time>2016-12-28T20:00:56Z</time></trkpt>
   <trkpt lat="30.928688" lon="34.725117"><ele>374.4</ele><name>TP02835</name><time>2016-12-28T20:00:57Z</time></trkpt>
   <trkpt lat="30.928687" lon="34.725184"><ele>374</ele><name>TP02836</name><time>2016-12-28T20:00:58Z</time></trkpt>
   <trkpt lat="30.928698" lon="34.725246"><ele>373.3</ele><name>TP02837</name><time>2016-12-28T20:00:59Z</time></trkpt>
   <trkpt lat="30.928697" lon="34.725303"><ele>372.9</ele><name>TP02838</name><time>2016-12-28T20:01:00Z</time></trkpt>
   <trkpt lat="30.928691" lon="34.725364"><ele>372.6</ele><name>TP02839</name><time>2016-12-28T20:01:01Z</time></trkpt>
   <trkpt lat="30.928676" lon="34.725422"><ele>372.6</ele><name>TP02840</name><time>2016-12-28T20:01:02Z</time></trkpt>
   <trkpt lat="30.928655" lon="34.725476"><ele>373</ele><name>TP02841</name><time>2016-12-28T20:01:03Z</time></trkpt>
   <trkpt lat="30.928646" lon="34.725543"><ele>373.2</ele><name>TP02842</name><time>2016-12-28T20:01:04Z</time></trkpt>
   <trkpt lat="30.928649" lon="34.725612"><ele>373</ele><name>TP02843</name><time>2016-12-28T20:01:05Z</time></trkpt>
   <trkpt lat="30.928652" lon="34.725691"><ele>372.9</ele><name>TP02844</name><time>2016-12-28T20:01:06Z</time></trkpt>
   <trkpt lat="30.928679" lon="34.725759"><ele>372.4</ele><name>TP02845</name><time>2016-12-28T20:01:07Z</time></trkpt>
   <trkpt lat="30.928727" lon="34.725815"><ele>371.4</ele><name>TP02846</name><time>2016-12-28T20:01:08Z</time></trkpt>
   <trkpt lat="30.928781" lon="34.725843"><ele>370.9</ele><name>TP02847</name><time>2016-12-28T20:01:09Z</time></trkpt>
   <trkpt lat="30.928831" lon="34.725841"><ele>370.7</ele><name>TP02848</name><time>2016-12-28T20:01:10Z</time></trkpt>
   <trkpt lat="30.928865" lon="34.725798"><ele>370.5</ele><name>TP02849</name><time>2016-12-28T20:01:11Z</time></trkpt>
   <trkpt lat="30.928888" lon="34.725736"><ele>370.4</ele><name>TP02850</name><time>2016-12-28T20:01:12Z</time></trkpt>
   <trkpt lat="30.928951" lon="34.725614"><ele>370</ele><name>TP02851</name><time>2016-12-28T20:01:14Z</time></trkpt>
   <trkpt lat="30.928988" lon="34.725547"><ele>369.7</ele><name>TP02852</name><time>2016-12-28T20:01:15Z</time></trkpt>
   <trkpt lat="30.929035" lon="34.725493"><ele>369.4</ele><name>TP02853</name><time>2016-12-28T20:01:16Z</time></trkpt>
   <trkpt lat="30.929084" lon="34.725445"><ele>369</ele><name>TP02854</name><time>2016-12-28T20:01:17Z</time></trkpt>
   <trkpt lat="30.929137" lon="34.725401"><ele>368.8</ele><name>TP02855</name><time>2016-12-28T20:01:18Z</time></trkpt>
   <trkpt lat="30.929195" lon="34.725381"><ele>368.5</ele><name>TP02856</name><time>2016-12-28T20:01:19Z</time></trkpt>
   <trkpt lat="30.929248" lon="34.725376"><ele>368.2</ele><name>TP02857</name><time>2016-12-28T20:01:20Z</time></trkpt>
   <trkpt lat="30.929289" lon="34.725382"><ele>367.9</ele><name>TP02858</name><time>2016-12-28T20:01:21Z</time></trkpt>
   <trkpt lat="30.929326" lon="34.725366"><ele>367.7</ele><name>TP02859</name><time>2016-12-28T20:01:22Z</time></trkpt>
   <trkpt lat="30.929355" lon="34.725319"><ele>367.7</ele><name>TP02860</name><time>2016-12-28T20:01:23Z</time></trkpt>
   <trkpt lat="30.929393" lon="34.725288"><ele>367.6</ele><name>TP02861</name><time>2016-12-28T20:01:24Z</time></trkpt>
   <trkpt lat="30.929437" lon="34.725283"><ele>367.3</ele><name>TP02862</name><time>2016-12-28T20:01:25Z</time></trkpt>
   <trkpt lat="30.929467" lon="34.725274"><ele>367.1</ele><name>TP02863</name><time>2016-12-28T20:01:26Z</time></trkpt>
   <trkpt lat="30.929495" lon="34.725209"><ele>367.1</ele><name>TP02864</name><time>2016-12-28T20:01:28Z</time></trkpt>
   <trkpt lat="30.929505" lon="34.725166"><ele>367.2</ele><name>TP02865</name><time>2016-12-28T20:01:29Z</time></trkpt>
   <trkpt lat="30.929517" lon="34.725119"><ele>367.2</ele><name>TP02866</name><time>2016-12-28T20:01:30Z</time></trkpt>
   <trkpt lat="30.929532" lon="34.725076"><ele>367.2</ele><name>TP02867</name><time>2016-12-28T20:01:31Z</time></trkpt>
   <trkpt lat="30.929549" lon="34.725027"><ele>367.2</ele><name>TP02868</name><time>2016-12-28T20:01:32Z</time></trkpt>
   <trkpt lat="30.92958" lon="34.724979"><ele>367.1</ele><name>TP02869</name><time>2016-12-28T20:01:33Z</time></trkpt>
   <trkpt lat="30.929608" lon="34.724929"><ele>367.2</ele><name>TP02870</name><time>2016-12-28T20:01:34Z</time></trkpt>
   <trkpt lat="30.929636" lon="34.724874"><ele>367.3</ele><name>TP02871</name><time>2016-12-28T20:01:35Z</time></trkpt>
   <trkpt lat="30.929667" lon="34.724819"><ele>367.3</ele><name>TP02872</name><time>2016-12-28T20:01:36Z</time></trkpt>
   <trkpt lat="30.929693" lon="34.724762"><ele>367.4</ele><name>TP02873</name><time>2016-12-28T20:01:37Z</time></trkpt>
   <trkpt lat="30.929717" lon="34.724701"><ele>367.5</ele><name>TP02874</name><time>2016-12-28T20:01:38Z</time></trkpt>
   <trkpt lat="30.929738" lon="34.724641"><ele>367.5</ele><name>TP02875</name><time>2016-12-28T20:01:39Z</time></trkpt>
   <trkpt lat="30.929761" lon="34.724584"><ele>367.6</ele><name>TP02876</name><time>2016-12-28T20:01:40Z</time></trkpt>
   <trkpt lat="30.929785" lon="34.724525"><ele>367.6</ele><name>TP02877</name><time>2016-12-28T20:01:41Z</time></trkpt>
   <trkpt lat="30.929815" lon="34.724473"><ele>367.7</ele><name>TP02878</name><time>2016-12-28T20:01:42Z</time></trkpt>
   <trkpt lat="30.929845" lon="34.724411"><ele>367.7</ele><name>TP02879</name><time>2016-12-28T20:01:43Z</time></trkpt>
   <trkpt lat="30.92987" lon="34.72435"><ele>367.7</ele><name>TP02880</name><time>2016-12-28T20:01:44Z</time></trkpt>
   <trkpt lat="30.92991" lon="34.724293"><ele>367.6</ele><name>TP02881</name><time>2016-12-28T20:01:45Z</time></trkpt>
   <trkpt lat="30.929956" lon="34.724249"><ele>367.4</ele><name>TP02882</name><time>2016-12-28T20:01:46Z</time></trkpt>
   <trkpt lat="30.930012" lon="34.724215"><ele>367.2</ele><name>TP02883</name><time>2016-12-28T20:01:47Z</time></trkpt>
   <trkpt lat="30.930061" lon="34.724181"><ele>366.9</ele><name>TP02884</name><time>2016-12-28T20:01:48Z</time></trkpt>
   <trkpt lat="30.9301" lon="34.724149"><ele>366.7</ele><name>TP02885</name><time>2016-12-28T20:01:49Z</time></trkpt>
   <trkpt lat="30.930128" lon="34.724105"><ele>366.5</ele><name>TP02886</name><time>2016-12-28T20:01:50Z</time></trkpt>
   <trkpt lat="30.93015" lon="34.724057"><ele>366.4</ele><name>TP02887</name><time>2016-12-28T20:01:51Z</time></trkpt>
   <trkpt lat="30.930171" lon="34.724007"><ele>366.2</ele><name>TP02888</name><time>2016-12-28T20:01:52Z</time></trkpt>
   <trkpt lat="30.930196" lon="34.723968"><ele>366</ele><name>TP02889</name><time>2016-12-28T20:01:53Z</time></trkpt>
   <trkpt lat="30.930227" lon="34.72393"><ele>365.8</ele><name>TP02890</name><time>2016-12-28T20:01:54Z</time></trkpt>
   <trkpt lat="30.930258" lon="34.723898"><ele>365.5</ele><name>TP02891</name><time>2016-12-28T20:01:55Z</time></trkpt>
   <trkpt lat="30.930288" lon="34.723864"><ele>365.2</ele><name>TP02892</name><time>2016-12-28T20:01:56Z</time></trkpt>
   <trkpt lat="30.930315" lon="34.72383"><ele>365</ele><name>TP02893</name><time>2016-12-28T20:01:57Z</time></trkpt>
   <trkpt lat="30.930342" lon="34.723798"><ele>364.7</ele><name>TP02894</name><time>2016-12-28T20:01:58Z</time></trkpt>
   <trkpt lat="30.930366" lon="34.723761"><ele>364.4</ele><name>TP02895</name><time>2016-12-28T20:01:59Z</time></trkpt>
   <trkpt lat="30.930381" lon="34.723733"><ele>364.3</ele><name>TP02896</name><time>2016-12-28T20:02:00Z</time></trkpt>
   <trkpt lat="30.930392" lon="34.723703"><ele>364.1</ele><name>TP02897</name><time>2016-12-28T20:02:02Z</time></trkpt>
   <trkpt lat="30.930404" lon="34.723663"><ele>364</ele><name>TP02898</name><time>2016-12-28T20:02:03Z</time></trkpt>
   <trkpt lat="30.930419" lon="34.723611"><ele>363.8</ele><name>TP02899</name><time>2016-12-28T20:02:04Z</time></trkpt>
   <trkpt lat="30.930427" lon="34.723574"><ele>363.8</ele><name>TP02900</name><time>2016-12-28T20:02:05Z</time></trkpt>
   <trkpt lat="30.930445" lon="34.723512"><ele>363.8</ele><name>TP02901</name><time>2016-12-28T20:02:07Z</time></trkpt>
   <trkpt lat="30.930462" lon="34.72346"><ele>363.8</ele><name>TP02902</name><time>2016-12-28T20:02:08Z</time></trkpt>
   <trkpt lat="30.93048" lon="34.723408"><ele>363.8</ele><name>TP02903</name><time>2016-12-28T20:02:09Z</time></trkpt>
   <trkpt lat="30.930499" lon="34.723353"><ele>363.8</ele><name>TP02904</name><time>2016-12-28T20:02:10Z</time></trkpt>
   <trkpt lat="30.930526" lon="34.723274"><ele>363.8</ele><name>TP02905</name><time>2016-12-28T20:02:11Z</time></trkpt>
   <trkpt lat="30.930555" lon="34.723136"><ele>363.8</ele><name>TP02906</name><time>2016-12-28T20:02:13Z</time></trkpt>
   <trkpt lat="30.930558" lon="34.72309"><ele>363.8</ele><name>TP02907</name><time>2016-12-28T20:02:14Z</time></trkpt>
   <trkpt lat="30.930569" lon="34.723041"><ele>363.8</ele><name>TP02908</name><time>2016-12-28T20:02:15Z</time></trkpt>
   <trkpt lat="30.930583" lon="34.722994"><ele>363.9</ele><name>TP02909</name><time>2016-12-28T20:02:16Z</time></trkpt>
   <trkpt lat="30.9306" lon="34.722953"><ele>363.9</ele><name>TP02910</name><time>2016-12-28T20:02:17Z</time></trkpt>
   <trkpt lat="30.930615" lon="34.722906"><ele>363.9</ele><name>TP02911</name><time>2016-12-28T20:02:18Z</time></trkpt>
   <trkpt lat="30.930627" lon="34.722861"><ele>364</ele><name>TP02912</name><time>2016-12-28T20:02:19Z</time></trkpt>
   <trkpt lat="30.93064" lon="34.722812"><ele>364</ele><name>TP02913</name><time>2016-12-28T20:02:21Z</time></trkpt>
   <trkpt lat="30.930654" lon="34.722779"><ele>364</ele><name>TP02914</name><time>2016-12-28T20:02:23Z</time></trkpt>
   <trkpt lat="30.93067" lon="34.72275"><ele>364.1</ele><name>TP02915</name><time>2016-12-28T20:02:25Z</time></trkpt>
   <trkpt lat="30.930692" lon="34.722704"><ele>364.2</ele><name>TP02916</name><time>2016-12-28T20:02:26Z</time></trkpt>
   <trkpt lat="30.930719" lon="34.722642"><ele>364.4</ele><name>TP02917</name><time>2016-12-28T20:02:27Z</time></trkpt>
   <trkpt lat="30.930743" lon="34.722579"><ele>364.5</ele><name>TP02918</name><time>2016-12-28T20:02:28Z</time></trkpt>
   <trkpt lat="30.930762" lon="34.722518"><ele>364.7</ele><name>TP02919</name><time>2016-12-28T20:02:29Z</time></trkpt>
   <trkpt lat="30.930772" lon="34.722465"><ele>364.8</ele><name>TP02920</name><time>2016-12-28T20:02:30Z</time></trkpt>
   <trkpt lat="30.930758" lon="34.722393"><ele>364.7</ele><name>TP02921</name><time>2016-12-28T20:02:31Z</time></trkpt>
   <trkpt lat="30.930764" lon="34.722264"><ele>364.7</ele><name>TP02922</name><time>2016-12-28T20:02:33Z</time></trkpt>
   <trkpt lat="30.930748" lon="34.722211"><ele>364.6</ele><name>TP02923</name><time>2016-12-28T20:02:35Z</time></trkpt>
   <trkpt lat="30.930781" lon="34.72222"><ele>364.9</ele><name>TP02924</name><time>2016-12-28T20:03:43Z</time></trkpt>
   <trkpt lat="30.930784" lon="34.72226"><ele>364.9</ele><name>TP02925</name><time>2016-12-28T20:03:48Z</time></trkpt>
   <trkpt lat="30.930796" lon="34.72229"><ele>365</ele><name>TP02926</name><time>2016-12-28T20:03:51Z</time></trkpt>
   <trkpt lat="30.93084" lon="34.722283"><ele>365.4</ele><name>TP02927</name><time>2016-12-28T20:06:27Z</time></trkpt>
   <trkpt lat="30.930865" lon="34.722298"><ele>365.7</ele><name>TP02928</name><time>2016-12-28T20:06:32Z</time></trkpt>
   <trkpt lat="30.93085" lon="34.72227"><ele>365.5</ele><name>TP02929</name><time>2016-12-28T20:06:44Z</time></trkpt>
   <trkpt lat="30.930872" lon="34.722301"><ele>365.7</ele><name>TP02930</name><time>2016-12-28T20:07:46Z</time></trkpt>
   <trkpt lat="30.930908" lon="34.722314"><ele>366</ele><name>TP02931</name><time>2016-12-28T20:07:49Z</time></trkpt>
   <trkpt lat="30.930874" lon="34.722314"><ele>365.7</ele><name>TP02932</name><time>2016-12-28T20:07:52Z</time></trkpt>
   <trkpt lat="30.930904" lon="34.722311"><ele>366</ele><name>TP02933</name><time>2016-12-28T20:08:05Z</time></trkpt>
   <trkpt lat="30.930874" lon="34.722315"><ele>365.7</ele><name>TP02934</name><time>2016-12-28T20:08:35Z</time></trkpt>
   <trkpt lat="30.930846" lon="34.722303"><ele>365.5</ele><name>TP02935</name><time>2016-12-28T20:08:39Z</time></trkpt>
   <trkpt lat="30.93082" lon="34.722324"><ele>365.2</ele><name>TP02936</name><time>2016-12-28T20:08:44Z</time></trkpt>
   <trkpt lat="30.930823" lon="34.722291"><ele>365.3</ele><name>TP02937</name><time>2016-12-28T20:09:10Z</time></trkpt>
   <trkpt lat="30.930805" lon="34.722263"><ele>365.1</ele><name>TP02938</name><time>2016-12-28T20:09:29Z</time></trkpt>
   <trkpt lat="30.930785" lon="34.722235"><ele>364.9</ele><name>TP02939</name><time>2016-12-28T20:09:32Z</time></trkpt>
   <trkpt lat="30.930774" lon="34.722202"><ele>364.8</ele><name>TP02940</name><time>2016-12-28T20:09:34Z</time></trkpt>
   <trkpt lat="30.93077" lon="34.722167"><ele>364.8</ele><name>TP02941</name><time>2016-12-28T20:09:36Z</time></trkpt>
   <trkpt lat="30.930801" lon="34.72217"><ele>365.1</ele><name>TP02942</name><time>2016-12-28T20:09:39Z</time></trkpt>
   <trkpt lat="30.930804" lon="34.722206"><ele>365.1</ele><name>TP02943</name><time>2016-12-28T20:09:41Z</time></trkpt>
   <trkpt lat="30.930777" lon="34.722217"><ele>364.9</ele><name>TP02944</name><time>2016-12-28T20:09:45Z</time></trkpt>
   <trkpt lat="30.93077" lon="34.722182"><ele>364.8</ele><name>TP02945</name><time>2016-12-28T20:09:51Z</time></trkpt>
   <trkpt lat="30.930797" lon="34.722156"><ele>365.1</ele><name>TP02946</name><time>2016-12-28T20:09:55Z</time></trkpt>
   <trkpt lat="30.930805" lon="34.722122"><ele>365.2</ele><name>TP02947</name><time>2016-12-28T20:09:58Z</time></trkpt>
   <trkpt lat="30.930782" lon="34.722102"><ele>364.9</ele><name>TP02948</name><time>2016-12-28T20:10:00Z</time></trkpt>
   <trkpt lat="30.930768" lon="34.722064"><ele>364.7</ele><name>TP02949</name><time>2016-12-28T20:10:02Z</time></trkpt>
   <trkpt lat="30.930763" lon="34.722031"><ele>364.5</ele><name>TP02950</name><time>2016-12-28T20:10:04Z</time></trkpt>
   <trkpt lat="30.930749" lon="34.72197"><ele>364.1</ele><name>TP02951</name><time>2016-12-28T20:10:06Z</time></trkpt>
   <trkpt lat="30.930742" lon="34.721939"><ele>363.9</ele><name>TP02952</name><time>2016-12-28T20:10:07Z</time></trkpt>
   <trkpt lat="30.930735" lon="34.721907"><ele>363.7</ele><name>TP02953</name><time>2016-12-28T20:10:08Z</time></trkpt>
   <trkpt lat="30.930727" lon="34.721875"><ele>363.5</ele><name>TP02954</name><time>2016-12-28T20:10:09Z</time></trkpt>
   <trkpt lat="30.930719" lon="34.721842"><ele>363.3</ele><name>TP02955</name><time>2016-12-28T20:10:10Z</time></trkpt>
   <trkpt lat="30.930711" lon="34.721808"><ele>363.1</ele><name>TP02956</name><time>2016-12-28T20:10:11Z</time></trkpt>
   <trkpt lat="30.930703" lon="34.721774"><ele>362.9</ele><name>TP02957</name><time>2016-12-28T20:10:12Z</time></trkpt>
   <trkpt lat="30.930694" lon="34.721741"><ele>362.6</ele><name>TP02958</name><time>2016-12-28T20:10:13Z</time></trkpt>
   <trkpt lat="30.930667" lon="34.721667"><ele>362.1</ele><name>TP02959</name><time>2016-12-28T20:10:15Z</time></trkpt>
   <trkpt lat="30.930657" lon="34.721635"><ele>361.8</ele><name>TP02960</name><time>2016-12-28T20:10:16Z</time></trkpt>
   <trkpt lat="30.930645" lon="34.721604"><ele>361.6</ele><name>TP02961</name><time>2016-12-28T20:10:17Z</time></trkpt>
   <trkpt lat="30.930636" lon="34.721572"><ele>361.4</ele><name>TP02962</name><time>2016-12-28T20:10:18Z</time></trkpt>
   <trkpt lat="30.930629" lon="34.72154"><ele>361.2</ele><name>TP02963</name><time>2016-12-28T20:10:19Z</time></trkpt>
   <trkpt lat="30.930623" lon="34.721504"><ele>361</ele><name>TP02964</name><time>2016-12-28T20:10:20Z</time></trkpt>
   <trkpt lat="30.93062" lon="34.721468"><ele>360.8</ele><name>TP02965</name><time>2016-12-28T20:10:21Z</time></trkpt>
   <trkpt lat="30.930622" lon="34.721435"><ele>360.7</ele><name>TP02966</name><time>2016-12-28T20:10:23Z</time></trkpt>
   <trkpt lat="30.930625" lon="34.721394"><ele>360.6</ele><name>TP02967</name><time>2016-12-28T20:10:25Z</time></trkpt>
   <trkpt lat="30.930626" lon="34.721348"><ele>360.4</ele><name>TP02968</name><time>2016-12-28T20:10:26Z</time></trkpt>
   <trkpt lat="30.930626" lon="34.721303"><ele>360.2</ele><name>TP02969</name><time>2016-12-28T20:10:27Z</time></trkpt>
   <trkpt lat="30.930625" lon="34.721259"><ele>360</ele><name>TP02970</name><time>2016-12-28T20:10:28Z</time></trkpt>
   <trkpt lat="30.930624" lon="34.721218"><ele>360</ele><name>TP02971</name><time>2016-12-28T20:10:29Z</time></trkpt>
   <trkpt lat="30.930623" lon="34.721177"><ele>359.9</ele><name>TP02972</name><time>2016-12-28T20:10:30Z</time></trkpt>
   <trkpt lat="30.930622" lon="34.721136"><ele>359.9</ele><name>TP02973</name><time>2016-12-28T20:10:31Z</time></trkpt>
   <trkpt lat="30.930621" lon="34.721097"><ele>359.9</ele><name>TP02974</name><time>2016-12-28T20:10:32Z</time></trkpt>
   <trkpt lat="30.930619" lon="34.721056"><ele>359.8</ele><name>TP02975</name><time>2016-12-28T20:10:33Z</time></trkpt>
   <trkpt lat="30.930627" lon="34.720943"><ele>359.8</ele><name>TP02976</name><time>2016-12-28T20:10:35Z</time></trkpt>
   <trkpt lat="30.930635" lon="34.720902"><ele>359.9</ele><name>TP02977</name><time>2016-12-28T20:10:36Z</time></trkpt>
   <trkpt lat="30.930644" lon="34.720863"><ele>359.9</ele><name>TP02978</name><time>2016-12-28T20:10:37Z</time></trkpt>
   <trkpt lat="30.930649" lon="34.720829"><ele>359.9</ele><name>TP02979</name><time>2016-12-28T20:10:38Z</time></trkpt>
   <trkpt lat="30.930656" lon="34.720795"><ele>359.9</ele><name>TP02980</name><time>2016-12-28T20:10:39Z</time></trkpt>
   <trkpt lat="30.930662" lon="34.720762"><ele>359.9</ele><name>TP02981</name><time>2016-12-28T20:10:40Z</time></trkpt>
   <trkpt lat="30.930665" lon="34.720723"><ele>359.9</ele><name>TP02982</name><time>2016-12-28T20:10:41Z</time></trkpt>
   <trkpt lat="30.930672" lon="34.720673"><ele>359.9</ele><name>TP02983</name><time>2016-12-28T20:10:43Z</time></trkpt>
   <trkpt lat="30.930673" lon="34.720638"><ele>359.8</ele><name>TP02984</name><time>2016-12-28T20:10:45Z</time></trkpt>
   <trkpt lat="30.930672" lon="34.720598"><ele>359.8</ele><name>TP02985</name><time>2016-12-28T20:10:46Z</time></trkpt>
   <trkpt lat="30.930667" lon="34.72053"><ele>359.7</ele><name>TP02986</name><time>2016-12-28T20:10:47Z</time></trkpt>
   <trkpt lat="30.930661" lon="34.720465"><ele>359.6</ele><name>TP02987</name><time>2016-12-28T20:10:48Z</time></trkpt>
   <trkpt lat="30.930653" lon="34.720399"><ele>359.5</ele><name>TP02988</name><time>2016-12-28T20:10:49Z</time></trkpt>
   <trkpt lat="30.930643" lon="34.720329"><ele>359.4</ele><name>TP02989</name><time>2016-12-28T20:10:50Z</time></trkpt>
   <trkpt lat="30.93063" lon="34.720258"><ele>359.3</ele><name>TP02990</name><time>2016-12-28T20:10:51Z</time></trkpt>
   <trkpt lat="30.930612" lon="34.720188"><ele>359.1</ele><name>TP02991</name><time>2016-12-28T20:10:52Z</time></trkpt>
   <trkpt lat="30.93057" lon="34.720101"><ele>358.9</ele><name>TP02992</name><time>2016-12-28T20:10:53Z</time></trkpt>
   <trkpt lat="30.9305" lon="34.719974"><ele>358.6</ele><name>TP02993</name><time>2016-12-28T20:10:55Z</time></trkpt>
   <trkpt lat="30.930461" lon="34.719931"><ele>358.5</ele><name>TP02994</name><time>2016-12-28T20:10:56Z</time></trkpt>
   <trkpt lat="30.930424" lon="34.719885"><ele>358.4</ele><name>TP02995</name><time>2016-12-28T20:10:57Z</time></trkpt>
   <trkpt lat="30.930396" lon="34.719841"><ele>358.2</ele><name>TP02996</name><time>2016-12-28T20:10:58Z</time></trkpt>
   <trkpt lat="30.930374" lon="34.719798"><ele>358.1</ele><name>TP02997</name><time>2016-12-28T20:10:59Z</time></trkpt>
   <trkpt lat="30.930352" lon="34.719748"><ele>357.9</ele><name>TP02998</name><time>2016-12-28T20:11:00Z</time></trkpt>
   <trkpt lat="30.930331" lon="34.719699"><ele>357.7</ele><name>TP02999</name><time>2016-12-28T20:11:01Z</time></trkpt>
   <trkpt lat="30.930305" lon="34.719647"><ele>357.6</ele><name>TP03000</name><time>2016-12-28T20:11:02Z</time></trkpt>
   <trkpt lat="30.930273" lon="34.719592"><ele>357.3</ele><name>TP03001</name><time>2016-12-28T20:11:03Z</time></trkpt>
   <trkpt lat="30.930238" lon="34.719535"><ele>357</ele><name>TP03002</name><time>2016-12-28T20:11:04Z</time></trkpt>
   <trkpt lat="30.9302" lon="34.719481"><ele>356.7</ele><name>TP03003</name><time>2016-12-28T20:11:05Z</time></trkpt>
   <trkpt lat="30.930149" lon="34.719435"><ele>356.3</ele><name>TP03004</name><time>2016-12-28T20:11:06Z</time></trkpt>
   <trkpt lat="30.9301" lon="34.719392"><ele>356</ele><name>TP03005</name><time>2016-12-28T20:11:07Z</time></trkpt>
   <trkpt lat="30.930051" lon="34.719361"><ele>355.7</ele><name>TP03006</name><time>2016-12-28T20:11:08Z</time></trkpt>
   <trkpt lat="30.93001" lon="34.719345"><ele>355.5</ele><name>TP03007</name><time>2016-12-28T20:11:09Z</time></trkpt>
   <trkpt lat="30.929977" lon="34.719357"><ele>355.4</ele><name>TP03008</name><time>2016-12-28T20:11:10Z</time></trkpt>
   <trkpt lat="30.929942" lon="34.719382"><ele>355.3</ele><name>TP03009</name><time>2016-12-28T20:11:11Z</time></trkpt>
   <trkpt lat="30.929906" lon="34.719418"><ele>355.2</ele><name>TP03010</name><time>2016-12-28T20:11:12Z</time></trkpt>
   <trkpt lat="30.929825" lon="34.719488"><ele>355</ele><name>TP03011</name><time>2016-12-28T20:11:14Z</time></trkpt>
   <trkpt lat="30.929775" lon="34.719514"><ele>354.8</ele><name>TP03012</name><time>2016-12-28T20:11:15Z</time></trkpt>
   <trkpt lat="30.929724" lon="34.719529"><ele>354.6</ele><name>TP03013</name><time>2016-12-28T20:11:16Z</time></trkpt>
   <trkpt lat="30.92967" lon="34.719533"><ele>354.3</ele><name>TP03014</name><time>2016-12-28T20:11:17Z</time></trkpt>
   <trkpt lat="30.929622" lon="34.719527"><ele>354.1</ele><name>TP03015</name><time>2016-12-28T20:11:18Z</time></trkpt>
   <trkpt lat="30.929585" lon="34.719526"><ele>353.9</ele><name>TP03016</name><time>2016-12-28T20:11:19Z</time></trkpt>
   <trkpt lat="30.929555" lon="34.719543"><ele>354</ele><name>TP03017</name><time>2016-12-28T20:11:20Z</time></trkpt>
   <trkpt lat="30.929526" lon="34.719562"><ele>354</ele><name>TP03018</name><time>2016-12-28T20:11:21Z</time></trkpt>
   <trkpt lat="30.929498" lon="34.719577"><ele>354.1</ele><name>TP03019</name><time>2016-12-28T20:11:22Z</time></trkpt>
   <trkpt lat="30.929473" lon="34.719598"><ele>354.2</ele><name>TP03020</name><time>2016-12-28T20:11:23Z</time></trkpt>
   <trkpt lat="30.929433" lon="34.719646"><ele>354.3</ele><name>TP03021</name><time>2016-12-28T20:11:25Z</time></trkpt>
   <trkpt lat="30.929408" lon="34.719682"><ele>354.4</ele><name>TP03022</name><time>2016-12-28T20:11:27Z</time></trkpt>
   <trkpt lat="30.929377" lon="34.719711"><ele>354.5</ele><name>TP03023</name><time>2016-12-28T20:11:29Z</time></trkpt>
   <trkpt lat="30.92934" lon="34.719712"><ele>354.6</ele><name>TP03024</name><time>2016-12-28T20:11:31Z</time></trkpt>
   <trkpt lat="30.929289" lon="34.719712"><ele>354.6</ele><name>TP03025</name><time>2016-12-28T20:11:33Z</time></trkpt>
   <trkpt lat="30.929262" lon="34.71972"><ele>354.7</ele><name>TP03026</name><time>2016-12-28T20:11:34Z</time></trkpt>
   <trkpt lat="30.929235" lon="34.719735"><ele>354.7</ele><name>TP03027</name><time>2016-12-28T20:11:35Z</time></trkpt>
   <trkpt lat="30.929209" lon="34.719749"><ele>354.8</ele><name>TP03028</name><time>2016-12-28T20:11:36Z</time></trkpt>
   <trkpt lat="30.929168" lon="34.719756"><ele>354.8</ele><name>TP03029</name><time>2016-12-28T20:11:38Z</time></trkpt>
   <trkpt lat="30.929135" lon="34.719743"><ele>354.8</ele><name>TP03030</name><time>2016-12-28T20:11:40Z</time></trkpt>
   <trkpt lat="30.929095" lon="34.719703"><ele>354.8</ele><name>TP03031</name><time>2016-12-28T20:11:42Z</time></trkpt>
   <trkpt lat="30.929069" lon="34.719648"><ele>354.7</ele><name>TP03032</name><time>2016-12-28T20:11:44Z</time></trkpt>
   <trkpt lat="30.929058" lon="34.719617"><ele>354.7</ele><name>TP03033</name><time>2016-12-28T20:11:45Z</time></trkpt>
   <trkpt lat="30.929046" lon="34.719585"><ele>354.6</ele><name>TP03034</name><time>2016-12-28T20:11:46Z</time></trkpt>
   <trkpt lat="30.929033" lon="34.719553"><ele>354.6</ele><name>TP03035</name><time>2016-12-28T20:11:47Z</time></trkpt>
   <trkpt lat="30.929016" lon="34.719521"><ele>354.7</ele><name>TP03036</name><time>2016-12-28T20:11:48Z</time></trkpt>
   <trkpt lat="30.928997" lon="34.71949"><ele>354.7</ele><name>TP03037</name><time>2016-12-28T20:11:49Z</time></trkpt>
   <trkpt lat="30.928975" lon="34.71946"><ele>354.7</ele><name>TP03038</name><time>2016-12-28T20:11:50Z</time></trkpt>
   <trkpt lat="30.928913" lon="34.719418"><ele>354.8</ele><name>TP03039</name><time>2016-12-28T20:11:52Z</time></trkpt>
   <trkpt lat="30.928888" lon="34.719395"><ele>354.8</ele><name>TP03040</name><time>2016-12-28T20:11:53Z</time></trkpt>
   <trkpt lat="30.928866" lon="34.719377"><ele>354.8</ele><name>TP03041</name><time>2016-12-28T20:11:54Z</time></trkpt>
   <trkpt lat="30.928845" lon="34.719356"><ele>354.9</ele><name>TP03042</name><time>2016-12-28T20:11:55Z</time></trkpt>
   <trkpt lat="30.928817" lon="34.719335"><ele>354.9</ele><name>TP03043</name><time>2016-12-28T20:11:56Z</time></trkpt>
   <trkpt lat="30.928792" lon="34.719311"><ele>354.9</ele><name>TP03044</name><time>2016-12-28T20:11:57Z</time></trkpt>
   <trkpt lat="30.92877" lon="34.719288"><ele>355</ele><name>TP03045</name><time>2016-12-28T20:11:58Z</time></trkpt>
   <trkpt lat="30.928746" lon="34.719265"><ele>355</ele><name>TP03046</name><time>2016-12-28T20:11:59Z</time></trkpt>
   <trkpt lat="30.92872" lon="34.719246"><ele>355.1</ele><name>TP03047</name><time>2016-12-28T20:12:00Z</time></trkpt>
   <trkpt lat="30.928681" lon="34.719224"><ele>355.2</ele><name>TP03048</name><time>2016-12-28T20:12:02Z</time></trkpt>
   <trkpt lat="30.928651" lon="34.719217"><ele>355.3</ele><name>TP03049</name><time>2016-12-28T20:12:04Z</time></trkpt>
   <trkpt lat="30.928608" lon="34.719203"><ele>355.5</ele><name>TP03050</name><time>2016-12-28T20:12:07Z</time></trkpt>
   <trkpt lat="30.92858" lon="34.719186"><ele>355.6</ele><name>TP03051</name><time>2016-12-28T20:12:08Z</time></trkpt>
   <trkpt lat="30.928555" lon="34.71917"><ele>355.7</ele><name>TP03052</name><time>2016-12-28T20:12:09Z</time></trkpt>
   <trkpt lat="30.92851" lon="34.719146"><ele>355.9</ele><name>TP03053</name><time>2016-12-28T20:12:11Z</time></trkpt>
   <trkpt lat="30.928467" lon="34.719126"><ele>356.1</ele><name>TP03054</name><time>2016-12-28T20:12:13Z</time></trkpt>
   <trkpt lat="30.928418" lon="34.719108"><ele>356.3</ele><name>TP03055</name><time>2016-12-28T20:12:15Z</time></trkpt>
   <trkpt lat="30.928366" lon="34.719099"><ele>356.5</ele><name>TP03056</name><time>2016-12-28T20:12:17Z</time></trkpt>
   <trkpt lat="30.928336" lon="34.719087"><ele>356.6</ele><name>TP03057</name><time>2016-12-28T20:12:18Z</time></trkpt>
   <trkpt lat="30.928309" lon="34.719075"><ele>356.7</ele><name>TP03058</name><time>2016-12-28T20:12:19Z</time></trkpt>
   <trkpt lat="30.928262" lon="34.719055"><ele>356.9</ele><name>TP03059</name><time>2016-12-28T20:12:21Z</time></trkpt>
   <trkpt lat="30.928226" lon="34.719039"><ele>357.1</ele><name>TP03060</name><time>2016-12-28T20:12:22Z</time></trkpt>
   <trkpt lat="30.928191" lon="34.719024"><ele>357.2</ele><name>TP03061</name><time>2016-12-28T20:12:23Z</time></trkpt>
   <trkpt lat="30.928139" lon="34.719001"><ele>357.5</ele><name>TP03062</name><time>2016-12-28T20:12:25Z</time></trkpt>
   <trkpt lat="30.928093" lon="34.71898"><ele>357.7</ele><name>TP03063</name><time>2016-12-28T20:12:26Z</time></trkpt>
   <trkpt lat="30.928051" lon="34.718959"><ele>357.9</ele><name>TP03064</name><time>2016-12-28T20:12:27Z</time></trkpt>
   <trkpt lat="30.928018" lon="34.718942"><ele>358.1</ele><name>TP03065</name><time>2016-12-28T20:12:28Z</time></trkpt>
   <trkpt lat="30.927986" lon="34.718925"><ele>358.3</ele><name>TP03066</name><time>2016-12-28T20:12:29Z</time></trkpt>
   <trkpt lat="30.927952" lon="34.718904"><ele>358.5</ele><name>TP03067</name><time>2016-12-28T20:12:30Z</time></trkpt>
   <trkpt lat="30.927917" lon="34.718885"><ele>358.7</ele><name>TP03068</name><time>2016-12-28T20:12:31Z</time></trkpt>
   <trkpt lat="30.927901" lon="34.718851"><ele>358.8</ele><name>TP03069</name><time>2016-12-28T20:12:32Z</time></trkpt>
   <trkpt lat="30.927885" lon="34.718815"><ele>359</ele><name>TP03070</name><time>2016-12-28T20:12:34Z</time></trkpt>
   <trkpt lat="30.927844" lon="34.7188"><ele>359.1</ele><name>TP03071</name><time>2016-12-28T20:12:35Z</time></trkpt>
   <trkpt lat="30.927801" lon="34.718787"><ele>359.3</ele><name>TP03072</name><time>2016-12-28T20:12:36Z</time></trkpt>
   <trkpt lat="30.927761" lon="34.718776"><ele>359.5</ele><name>TP03073</name><time>2016-12-28T20:12:37Z</time></trkpt>
   <trkpt lat="30.927723" lon="34.718766"><ele>359.7</ele><name>TP03074</name><time>2016-12-28T20:12:38Z</time></trkpt>
   <trkpt lat="30.927685" lon="34.718759"><ele>359.8</ele><name>TP03075</name><time>2016-12-28T20:12:39Z</time></trkpt>
   <trkpt lat="30.927644" lon="34.718751"><ele>360</ele><name>TP03076</name><time>2016-12-28T20:12:40Z</time></trkpt>
   <trkpt lat="30.927606" lon="34.71874"><ele>360.1</ele><name>TP03077</name><time>2016-12-28T20:12:41Z</time></trkpt>
   <trkpt lat="30.927571" lon="34.718728"><ele>360.2</ele><name>TP03078</name><time>2016-12-28T20:12:42Z</time></trkpt>
   <trkpt lat="30.927564" lon="34.718687"><ele>360.3</ele><name>TP03079</name><time>2016-12-28T20:12:44Z</time></trkpt>
   <trkpt lat="30.927524" lon="34.718663"><ele>360.4</ele><name>TP03080</name><time>2016-12-28T20:12:45Z</time></trkpt>
   <trkpt lat="30.927477" lon="34.71865"><ele>360.6</ele><name>TP03081</name><time>2016-12-28T20:12:46Z</time></trkpt>
   <trkpt lat="30.927433" lon="34.71864"><ele>360.7</ele><name>TP03082</name><time>2016-12-28T20:12:47Z</time></trkpt>
   <trkpt lat="30.927413" lon="34.718615"><ele>360.8</ele><name>TP03083</name><time>2016-12-28T20:12:48Z</time></trkpt>
   <trkpt lat="30.927379" lon="34.718589"><ele>360.9</ele><name>TP03084</name><time>2016-12-28T20:12:49Z</time></trkpt>
   <trkpt lat="30.927332" lon="34.718575"><ele>361.1</ele><name>TP03085</name><time>2016-12-28T20:12:50Z</time></trkpt>
   <trkpt lat="30.92729" lon="34.718559"><ele>361.3</ele><name>TP03086</name><time>2016-12-28T20:12:51Z</time></trkpt>
   <trkpt lat="30.927269" lon="34.718529"><ele>361.3</ele><name>TP03087</name><time>2016-12-28T20:12:52Z</time></trkpt>
   <trkpt lat="30.927236" lon="34.718506"><ele>361.5</ele><name>TP03088</name><time>2016-12-28T20:12:53Z</time></trkpt>
   <trkpt lat="30.927194" lon="34.718499"><ele>361.6</ele><name>TP03089</name><time>2016-12-28T20:12:54Z</time></trkpt>
   <trkpt lat="30.927171" lon="34.718522"><ele>361.7</ele><name>TP03090</name><time>2016-12-28T20:12:55Z</time></trkpt>
   <trkpt lat="30.927139" lon="34.718535"><ele>361.8</ele><name>TP03091</name><time>2016-12-28T20:12:56Z</time></trkpt>
   <trkpt lat="30.927093" lon="34.718525"><ele>362</ele><name>TP03092</name><time>2016-12-28T20:12:57Z</time></trkpt>
   <trkpt lat="30.927054" lon="34.718483"><ele>362.1</ele><name>TP03093</name><time>2016-12-28T20:12:59Z</time></trkpt>
   <trkpt lat="30.927007" lon="34.718474"><ele>362.2</ele><name>TP03094</name><time>2016-12-28T20:13:00Z</time></trkpt>
   <trkpt lat="30.926958" lon="34.718464"><ele>362.3</ele><name>TP03095</name><time>2016-12-28T20:13:01Z</time></trkpt>
   <trkpt lat="30.926908" lon="34.718455"><ele>362.4</ele><name>TP03096</name><time>2016-12-28T20:13:02Z</time></trkpt>
   <trkpt lat="30.926858" lon="34.718442"><ele>362.5</ele><name>TP03097</name><time>2016-12-28T20:13:03Z</time></trkpt>
   <trkpt lat="30.926822" lon="34.718396"><ele>362.7</ele><name>TP03098</name><time>2016-12-28T20:13:05Z</time></trkpt>
   <trkpt lat="30.926776" lon="34.71837"><ele>362.8</ele><name>TP03099</name><time>2016-12-28T20:13:06Z</time></trkpt>
   <trkpt lat="30.926726" lon="34.718352"><ele>363</ele><name>TP03100</name><time>2016-12-28T20:13:07Z</time></trkpt>
   <trkpt lat="30.926679" lon="34.718335"><ele>363.2</ele><name>TP03101</name><time>2016-12-28T20:13:08Z</time></trkpt>
   <trkpt lat="30.926634" lon="34.718319"><ele>363.4</ele><name>TP03102</name><time>2016-12-28T20:13:09Z</time></trkpt>
   <trkpt lat="30.926595" lon="34.718305"><ele>363.6</ele><name>TP03103</name><time>2016-12-28T20:13:10Z</time></trkpt>
   <trkpt lat="30.926554" lon="34.718286"><ele>363.8</ele><name>TP03104</name><time>2016-12-28T20:13:11Z</time></trkpt>
   <trkpt lat="30.926508" lon="34.718266"><ele>364</ele><name>TP03105</name><time>2016-12-28T20:13:12Z</time></trkpt>
   <trkpt lat="30.926417" lon="34.718236"><ele>364.5</ele><name>TP03106</name><time>2016-12-28T20:13:14Z</time></trkpt>
   <trkpt lat="30.926357" lon="34.718203"><ele>364.9</ele><name>TP03107</name><time>2016-12-28T20:13:17Z</time></trkpt>
   <trkpt lat="30.92633" lon="34.718201"><ele>365</ele><name>TP03108</name><time>2016-12-28T20:13:18Z</time></trkpt>
   <trkpt lat="30.926274" lon="34.718198"><ele>365.2</ele><name>TP03109</name><time>2016-12-28T20:13:19Z</time></trkpt>
   <trkpt lat="30.926221" lon="34.718197"><ele>365.2</ele><name>TP03110</name><time>2016-12-28T20:13:20Z</time></trkpt>
   <trkpt lat="30.926168" lon="34.718196"><ele>365</ele><name>TP03111</name><time>2016-12-28T20:13:21Z</time></trkpt>
   <trkpt lat="30.926118" lon="34.718197"><ele>364.8</ele><name>TP03112</name><time>2016-12-28T20:13:22Z</time></trkpt>
   <trkpt lat="30.926072" lon="34.718197"><ele>364.6</ele><name>TP03113</name><time>2016-12-28T20:13:23Z</time></trkpt>
   <trkpt lat="30.926029" lon="34.718193"><ele>364.5</ele><name>TP03114</name><time>2016-12-28T20:13:24Z</time></trkpt>
   <trkpt lat="30.92598" lon="34.718184"><ele>364.3</ele><name>TP03115</name><time>2016-12-28T20:13:25Z</time></trkpt>
   <trkpt lat="30.925937" lon="34.718177"><ele>364.2</ele><name>TP03116</name><time>2016-12-28T20:13:26Z</time></trkpt>
   <trkpt lat="30.925895" lon="34.718168"><ele>364</ele><name>TP03117</name><time>2016-12-28T20:13:27Z</time></trkpt>
   <trkpt lat="30.925855" lon="34.718152"><ele>364</ele><name>TP03118</name><time>2016-12-28T20:13:28Z</time></trkpt>
   <trkpt lat="30.925826" lon="34.718136"><ele>363.9</ele><name>TP03119</name><time>2016-12-28T20:13:29Z</time></trkpt>
   <trkpt lat="30.925797" lon="34.718113"><ele>363.9</ele><name>TP03120</name><time>2016-12-28T20:13:30Z</time></trkpt>
   <trkpt lat="30.92577" lon="34.718087"><ele>363.9</ele><name>TP03121</name><time>2016-12-28T20:13:31Z</time></trkpt>
   <trkpt lat="30.925745" lon="34.718059"><ele>363.9</ele><name>TP03122</name><time>2016-12-28T20:13:32Z</time></trkpt>
   <trkpt lat="30.925711" lon="34.718025"><ele>363.9</ele><name>TP03123</name><time>2016-12-28T20:13:33Z</time></trkpt>
   <trkpt lat="30.925679" lon="34.717989"><ele>363.9</ele><name>TP03124</name><time>2016-12-28T20:13:34Z</time></trkpt>
   <trkpt lat="30.925646" lon="34.717949"><ele>364</ele><name>TP03125</name><time>2016-12-28T20:13:35Z</time></trkpt>
   <trkpt lat="30.925614" lon="34.717913"><ele>364</ele><name>TP03126</name><time>2016-12-28T20:13:36Z</time></trkpt>
   <trkpt lat="30.925576" lon="34.717872"><ele>364.1</ele><name>TP03127</name><time>2016-12-28T20:13:37Z</time></trkpt>
   <trkpt lat="30.925529" lon="34.717841"><ele>364</ele><name>TP03128</name><time>2016-12-28T20:13:39Z</time></trkpt>
   <trkpt lat="30.925488" lon="34.7178"><ele>364.1</ele><name>TP03129</name><time>2016-12-28T20:13:40Z</time></trkpt>
   <trkpt lat="30.925451" lon="34.71775"><ele>364.2</ele><name>TP03130</name><time>2016-12-28T20:13:41Z</time></trkpt>
   <trkpt lat="30.925417" lon="34.717699"><ele>364.3</ele><name>TP03131</name><time>2016-12-28T20:13:42Z</time></trkpt>
   <trkpt lat="30.925388" lon="34.717645"><ele>364.5</ele><name>TP03132</name><time>2016-12-28T20:13:43Z</time></trkpt>
   <trkpt lat="30.925378" lon="34.71761"><ele>364.7</ele><name>TP03133</name><time>2016-12-28T20:13:44Z</time></trkpt>
   <trkpt lat="30.925362" lon="34.717561"><ele>364.9</ele><name>TP03134</name><time>2016-12-28T20:13:45Z</time></trkpt>
   <trkpt lat="30.925348" lon="34.717502"><ele>365.2</ele><name>TP03135</name><time>2016-12-28T20:13:46Z</time></trkpt>
   <trkpt lat="30.925337" lon="34.717447"><ele>365.4</ele><name>TP03136</name><time>2016-12-28T20:13:47Z</time></trkpt>
   <trkpt lat="30.925328" lon="34.717395"><ele>365.6</ele><name>TP03137</name><time>2016-12-28T20:13:48Z</time></trkpt>
   <trkpt lat="30.925318" lon="34.717344"><ele>365.8</ele><name>TP03138</name><time>2016-12-28T20:13:49Z</time></trkpt>
   <trkpt lat="30.925309" lon="34.717293"><ele>366</ele><name>TP03139</name><time>2016-12-28T20:13:50Z</time></trkpt>
   <trkpt lat="30.925298" lon="34.717242"><ele>366.2</ele><name>TP03140</name><time>2016-12-28T20:13:51Z</time></trkpt>
   <trkpt lat="30.925286" lon="34.717192"><ele>366.4</ele><name>TP03141</name><time>2016-12-28T20:13:52Z</time></trkpt>
   <trkpt lat="30.925272" lon="34.717144"><ele>366.5</ele><name>TP03142</name><time>2016-12-28T20:13:53Z</time></trkpt>
   <trkpt lat="30.92521" lon="34.717039"><ele>366.2</ele><name>TP03143</name><time>2016-12-28T20:13:55Z</time></trkpt>
   <trkpt lat="30.925192" lon="34.717002"><ele>366</ele><name>TP03144</name><time>2016-12-28T20:13:56Z</time></trkpt>
   <trkpt lat="30.925173" lon="34.716966"><ele>365.9</ele><name>TP03145</name><time>2016-12-28T20:13:57Z</time></trkpt>
   <trkpt lat="30.925144" lon="34.716939"><ele>365.6</ele><name>TP03146</name><time>2016-12-28T20:13:58Z</time></trkpt>
   <trkpt lat="30.925111" lon="34.716916"><ele>365.4</ele><name>TP03147</name><time>2016-12-28T20:13:59Z</time></trkpt>
   <trkpt lat="30.925079" lon="34.71689"><ele>365.2</ele><name>TP03148</name><time>2016-12-28T20:14:00Z</time></trkpt>
   <trkpt lat="30.925046" lon="34.716864"><ele>364.9</ele><name>TP03149</name><time>2016-12-28T20:14:01Z</time></trkpt>
   <trkpt lat="30.925013" lon="34.71684"><ele>364.7</ele><name>TP03150</name><time>2016-12-28T20:14:02Z</time></trkpt>
   <trkpt lat="30.924984" lon="34.716819"><ele>364.6</ele><name>TP03151</name><time>2016-12-28T20:14:04Z</time></trkpt>
   <trkpt lat="30.924948" lon="34.7168"><ele>364.3</ele><name>TP03152</name><time>2016-12-28T20:14:06Z</time></trkpt>
   <trkpt lat="30.924902" lon="34.716772"><ele>364.1</ele><name>TP03153</name><time>2016-12-28T20:14:08Z</time></trkpt>
   <trkpt lat="30.924864" lon="34.716744"><ele>363.9</ele><name>TP03154</name><time>2016-12-28T20:14:09Z</time></trkpt>
   <trkpt lat="30.924839" lon="34.716721"><ele>363.8</ele><name>TP03155</name><time>2016-12-28T20:14:10Z</time></trkpt>
   <trkpt lat="30.924812" lon="34.716693"><ele>363.7</ele><name>TP03156</name><time>2016-12-28T20:14:11Z</time></trkpt>
   <trkpt lat="30.924782" lon="34.716646"><ele>363.6</ele><name>TP03157</name><time>2016-12-28T20:14:12Z</time></trkpt>
   <trkpt lat="30.924755" lon="34.716597"><ele>363.6</ele><name>TP03158</name><time>2016-12-28T20:14:13Z</time></trkpt>
   <trkpt lat="30.924729" lon="34.716547"><ele>363.6</ele><name>TP03159</name><time>2016-12-28T20:14:14Z</time></trkpt>
   <trkpt lat="30.924647" lon="34.716381"><ele>363.7</ele><name>TP03160</name><time>2016-12-28T20:14:16Z</time></trkpt>
   <trkpt lat="30.92463" lon="34.716334"><ele>363.8</ele><name>TP03161</name><time>2016-12-28T20:14:17Z</time></trkpt>
   <trkpt lat="30.924617" lon="34.71629"><ele>363.9</ele><name>TP03162</name><time>2016-12-28T20:14:18Z</time></trkpt>
   <trkpt lat="30.92461" lon="34.716251"><ele>364.1</ele><name>TP03163</name><time>2016-12-28T20:14:19Z</time></trkpt>
   <trkpt lat="30.924608" lon="34.716213"><ele>364.1</ele><name>TP03164</name><time>2016-12-28T20:14:20Z</time></trkpt>
   <trkpt lat="30.924602" lon="34.716175"><ele>364.1</ele><name>TP03165</name><time>2016-12-28T20:14:21Z</time></trkpt>
   <trkpt lat="30.924598" lon="34.716136"><ele>364.2</ele><name>TP03166</name><time>2016-12-28T20:14:22Z</time></trkpt>
   <trkpt lat="30.9246" lon="34.716084"><ele>364.2</ele><name>TP03167</name><time>2016-12-28T20:14:24Z</time></trkpt>
   <trkpt lat="30.924609" lon="34.716027"><ele>364.3</ele><name>TP03168</name><time>2016-12-28T20:14:26Z</time></trkpt>
   <trkpt lat="30.924616" lon="34.715978"><ele>364.4</ele><name>TP03169</name><time>2016-12-28T20:14:28Z</time></trkpt>
   <trkpt lat="30.924623" lon="34.71594"><ele>364.4</ele><name>TP03170</name><time>2016-12-28T20:14:29Z</time></trkpt>
   <trkpt lat="30.924632" lon="34.715883"><ele>364.5</ele><name>TP03171</name><time>2016-12-28T20:14:30Z</time></trkpt>
   <trkpt lat="30.924641" lon="34.715826"><ele>364.6</ele><name>TP03172</name><time>2016-12-28T20:14:31Z</time></trkpt>
   <trkpt lat="30.924652" lon="34.715773"><ele>364.6</ele><name>TP03173</name><time>2016-12-28T20:14:32Z</time></trkpt>
   <trkpt lat="30.924663" lon="34.71573"><ele>364.7</ele><name>TP03174</name><time>2016-12-28T20:14:33Z</time></trkpt>
   <trkpt lat="30.924681" lon="34.71568"><ele>364.8</ele><name>TP03175</name><time>2016-12-28T20:14:34Z</time></trkpt>
   <trkpt lat="30.924731" lon="34.715531"><ele>364.9</ele><name>TP03176</name><time>2016-12-28T20:14:36Z</time></trkpt>
   <trkpt lat="30.924747" lon="34.71549"><ele>364.9</ele><name>TP03177</name><time>2016-12-28T20:14:37Z</time></trkpt>
   <trkpt lat="30.924759" lon="34.715448"><ele>365</ele><name>TP03178</name><time>2016-12-28T20:14:38Z</time></trkpt>
   <trkpt lat="30.924772" lon="34.715412"><ele>365</ele><name>TP03179</name><time>2016-12-28T20:14:39Z</time></trkpt>
   <trkpt lat="30.924785" lon="34.715375"><ele>364.9</ele><name>TP03180</name><time>2016-12-28T20:14:40Z</time></trkpt>
   <trkpt lat="30.924797" lon="34.715338"><ele>364.7</ele><name>TP03181</name><time>2016-12-28T20:14:41Z</time></trkpt>
   <trkpt lat="30.924805" lon="34.715304"><ele>364.6</ele><name>TP03182</name><time>2016-12-28T20:14:42Z</time></trkpt>
   <trkpt lat="30.924811" lon="34.715264"><ele>364.5</ele><name>TP03183</name><time>2016-12-28T20:14:43Z</time></trkpt>
   <trkpt lat="30.924811" lon="34.715228"><ele>364.4</ele><name>TP03184</name><time>2016-12-28T20:14:45Z</time></trkpt>
   <trkpt lat="30.924801" lon="34.715191"><ele>364.3</ele><name>TP03185</name><time>2016-12-28T20:14:47Z</time></trkpt>
   <trkpt lat="30.924786" lon="34.715155"><ele>364.1</ele><name>TP03186</name><time>2016-12-28T20:14:48Z</time></trkpt>
   <trkpt lat="30.924762" lon="34.715106"><ele>364</ele><name>TP03187</name><time>2016-12-28T20:14:49Z</time></trkpt>
   <trkpt lat="30.924743" lon="34.715071"><ele>363.8</ele><name>TP03188</name><time>2016-12-28T20:14:50Z</time></trkpt>
   <trkpt lat="30.924726" lon="34.715041"><ele>363.7</ele><name>TP03189</name><time>2016-12-28T20:14:51Z</time></trkpt>
   <trkpt lat="30.924687" lon="34.714976"><ele>363.5</ele><name>TP03190</name><time>2016-12-28T20:14:53Z</time></trkpt>
   <trkpt lat="30.924654" lon="34.714917"><ele>363.3</ele><name>TP03191</name><time>2016-12-28T20:14:54Z</time></trkpt>
   <trkpt lat="30.924625" lon="34.714862"><ele>363</ele><name>TP03192</name><time>2016-12-28T20:14:55Z</time></trkpt>
   <trkpt lat="30.924601" lon="34.71481"><ele>362.8</ele><name>TP03193</name><time>2016-12-28T20:14:56Z</time></trkpt>
   <trkpt lat="30.924581" lon="34.714759"><ele>362.6</ele><name>TP03194</name><time>2016-12-28T20:14:57Z</time></trkpt>
   <trkpt lat="30.924564" lon="34.714707"><ele>362.5</ele><name>TP03195</name><time>2016-12-28T20:14:58Z</time></trkpt>
   <trkpt lat="30.92455" lon="34.714657"><ele>362.3</ele><name>TP03196</name><time>2016-12-28T20:14:59Z</time></trkpt>
   <trkpt lat="30.924537" lon="34.714607"><ele>362.2</ele><name>TP03197</name><time>2016-12-28T20:15:00Z</time></trkpt>
   <trkpt lat="30.924526" lon="34.71453"><ele>362</ele><name>TP03198</name><time>2016-12-28T20:15:01Z</time></trkpt>
   <trkpt lat="30.924501" lon="34.714409"><ele>361.9</ele><name>TP03199</name><time>2016-12-28T20:15:03Z</time></trkpt>
   <trkpt lat="30.924495" lon="34.714366"><ele>361.8</ele><name>TP03200</name><time>2016-12-28T20:15:04Z</time></trkpt>
   <trkpt lat="30.92449" lon="34.714326"><ele>361.7</ele><name>TP03201</name><time>2016-12-28T20:15:05Z</time></trkpt>
   <trkpt lat="30.924482" lon="34.714287"><ele>361.7</ele><name>TP03202</name><time>2016-12-28T20:15:06Z</time></trkpt>
   <trkpt lat="30.924478" lon="34.714245"><ele>361.6</ele><name>TP03203</name><time>2016-12-28T20:15:07Z</time></trkpt>
   <trkpt lat="30.924472" lon="34.714205"><ele>361.6</ele><name>TP03204</name><time>2016-12-28T20:15:08Z</time></trkpt>
   <trkpt lat="30.924466" lon="34.714163"><ele>361.6</ele><name>TP03205</name><time>2016-12-28T20:15:09Z</time></trkpt>
   <trkpt lat="30.92446" lon="34.714113"><ele>361.5</ele><name>TP03206</name><time>2016-12-28T20:15:11Z</time></trkpt>
   <trkpt lat="30.924458" lon="34.714059"><ele>361.4</ele><name>TP03207</name><time>2016-12-28T20:15:13Z</time></trkpt>
   <trkpt lat="30.924452" lon="34.714004"><ele>361.4</ele><name>TP03208</name><time>2016-12-28T20:15:15Z</time></trkpt>
   <trkpt lat="30.924434" lon="34.713936"><ele>361.4</ele><name>TP03209</name><time>2016-12-28T20:15:17Z</time></trkpt>
   <trkpt lat="30.924422" lon="34.7139"><ele>361.4</ele><name>TP03210</name><time>2016-12-28T20:15:18Z</time></trkpt>
   <trkpt lat="30.924408" lon="34.713863"><ele>361.4</ele><name>TP03211</name><time>2016-12-28T20:15:19Z</time></trkpt>
   <trkpt lat="30.924393" lon="34.713825"><ele>361.5</ele><name>TP03212</name><time>2016-12-28T20:15:20Z</time></trkpt>
   <trkpt lat="30.924378" lon="34.713785"><ele>361.5</ele><name>TP03213</name><time>2016-12-28T20:15:21Z</time></trkpt>
   <trkpt lat="30.924361" lon="34.713741"><ele>361.6</ele><name>TP03214</name><time>2016-12-28T20:15:22Z</time></trkpt>
   <trkpt lat="30.924343" lon="34.713694"><ele>361.8</ele><name>TP03215</name><time>2016-12-28T20:15:23Z</time></trkpt>
   <trkpt lat="30.924323" lon="34.713642"><ele>362.1</ele><name>TP03216</name><time>2016-12-28T20:15:24Z</time></trkpt>
   <trkpt lat="30.924303" lon="34.713587"><ele>362.3</ele><name>TP03217</name><time>2016-12-28T20:15:25Z</time></trkpt>
   <trkpt lat="30.924281" lon="34.713528"><ele>362.5</ele><name>TP03218</name><time>2016-12-28T20:15:26Z</time></trkpt>
   <trkpt lat="30.924259" lon="34.713469"><ele>362.7</ele><name>TP03219</name><time>2016-12-28T20:15:27Z</time></trkpt>
   <trkpt lat="30.924236" lon="34.713407"><ele>363</ele><name>TP03220</name><time>2016-12-28T20:15:28Z</time></trkpt>
   <trkpt lat="30.924213" lon="34.713347"><ele>363.2</ele><name>TP03221</name><time>2016-12-28T20:15:29Z</time></trkpt>
   <trkpt lat="30.924189" lon="34.713275"><ele>363.4</ele><name>TP03222</name><time>2016-12-28T20:15:30Z</time></trkpt>
   <trkpt lat="30.924164" lon="34.713209"><ele>363.7</ele><name>TP03223</name><time>2016-12-28T20:15:31Z</time></trkpt>
   <trkpt lat="30.924146" lon="34.713158"><ele>363.8</ele><name>TP03224</name><time>2016-12-28T20:15:32Z</time></trkpt>
   <trkpt lat="30.924128" lon="34.713113"><ele>364</ele><name>TP03225</name><time>2016-12-28T20:15:33Z</time></trkpt>
   <trkpt lat="30.924151" lon="34.713076"><ele>363.9</ele><name>TP03226</name><time>2016-12-28T20:15:35Z</time></trkpt>
   <trkpt lat="30.924123" lon="34.713023"><ele>364.1</ele><name>TP03227</name><time>2016-12-28T20:15:36Z</time></trkpt>
   <trkpt lat="30.924098" lon="34.712974"><ele>364.3</ele><name>TP03228</name><time>2016-12-28T20:15:37Z</time></trkpt>
   <trkpt lat="30.924072" lon="34.712923"><ele>364.4</ele><name>TP03229</name><time>2016-12-28T20:15:38Z</time></trkpt>
   <trkpt lat="30.924061" lon="34.712872"><ele>364.7</ele><name>TP03230</name><time>2016-12-28T20:15:39Z</time></trkpt>
   <trkpt lat="30.924053" lon="34.71282"><ele>364.9</ele><name>TP03231</name><time>2016-12-28T20:15:40Z</time></trkpt>
   <trkpt lat="30.924047" lon="34.712772"><ele>365.1</ele><name>TP03232</name><time>2016-12-28T20:15:41Z</time></trkpt>
   <trkpt lat="30.924037" lon="34.712726"><ele>365.4</ele><name>TP03233</name><time>2016-12-28T20:15:42Z</time></trkpt>
   <trkpt lat="30.924026" lon="34.712683"><ele>365.6</ele><name>TP03234</name><time>2016-12-28T20:15:43Z</time></trkpt>
   <trkpt lat="30.924018" lon="34.712639"><ele>365.8</ele><name>TP03235</name><time>2016-12-28T20:15:44Z</time></trkpt>
   <trkpt lat="30.92402" lon="34.712599"><ele>366</ele><name>TP03236</name><time>2016-12-28T20:15:45Z</time></trkpt>
   <trkpt lat="30.924029" lon="34.712559"><ele>366.1</ele><name>TP03237</name><time>2016-12-28T20:15:46Z</time></trkpt>
   <trkpt lat="30.924043" lon="34.712517"><ele>366.2</ele><name>TP03238</name><time>2016-12-28T20:15:47Z</time></trkpt>
   <trkpt lat="30.924061" lon="34.712483"><ele>366.2</ele><name>TP03239</name><time>2016-12-28T20:15:48Z</time></trkpt>
   <trkpt lat="30.924083" lon="34.712453"><ele>366.2</ele><name>TP03240</name><time>2016-12-28T20:15:49Z</time></trkpt>
   <trkpt lat="30.9241" lon="34.712426"><ele>366.2</ele><name>TP03241</name><time>2016-12-28T20:15:50Z</time></trkpt>
   <trkpt lat="30.924112" lon="34.712394"><ele>366.2</ele><name>TP03242</name><time>2016-12-28T20:15:52Z</time></trkpt>
   <trkpt lat="30.924092" lon="34.712341"><ele>366.6</ele><name>TP03243</name><time>2016-12-28T20:15:55Z</time></trkpt>
   <trkpt lat="30.924059" lon="34.712326"><ele>366.8</ele><name>TP03244</name><time>2016-12-28T20:15:56Z</time></trkpt>
   <trkpt lat="30.924026" lon="34.712323"><ele>367.1</ele><name>TP03245</name><time>2016-12-28T20:15:57Z</time></trkpt>
   <trkpt lat="30.923993" lon="34.712329"><ele>367.2</ele><name>TP03246</name><time>2016-12-28T20:15:58Z</time></trkpt>
   <trkpt lat="30.923963" lon="34.712341"><ele>367.4</ele><name>TP03247</name><time>2016-12-28T20:15:59Z</time></trkpt>
   <trkpt lat="30.923934" lon="34.712358"><ele>367.5</ele><name>TP03248</name><time>2016-12-28T20:16:00Z</time></trkpt>
   <trkpt lat="30.923906" lon="34.712379"><ele>367.6</ele><name>TP03249</name><time>2016-12-28T20:16:01Z</time></trkpt>
   <trkpt lat="30.92388" lon="34.712405"><ele>367.6</ele><name>TP03250</name><time>2016-12-28T20:16:02Z</time></trkpt>
   <trkpt lat="30.923859" lon="34.712433"><ele>367.6</ele><name>TP03251</name><time>2016-12-28T20:16:03Z</time></trkpt>
   <trkpt lat="30.92384" lon="34.712462"><ele>367.6</ele><name>TP03252</name><time>2016-12-28T20:16:04Z</time></trkpt>
   <trkpt lat="30.923824" lon="34.712496"><ele>367.6</ele><name>TP03253</name><time>2016-12-28T20:16:05Z</time></trkpt>
   <trkpt lat="30.923814" lon="34.712531"><ele>367.5</ele><name>TP03254</name><time>2016-12-28T20:16:06Z</time></trkpt>
   <trkpt lat="30.923812" lon="34.712573"><ele>367.3</ele><name>TP03255</name><time>2016-12-28T20:16:07Z</time></trkpt>
   <trkpt lat="30.92381" lon="34.712614"><ele>367.1</ele><name>TP03256</name><time>2016-12-28T20:16:08Z</time></trkpt>
   <trkpt lat="30.923806" lon="34.712653"><ele>367</ele><name>TP03257</name><time>2016-12-28T20:16:09Z</time></trkpt>
   <trkpt lat="30.923801" lon="34.712689"><ele>366.8</ele><name>TP03258</name><time>2016-12-28T20:16:10Z</time></trkpt>
   <trkpt lat="30.923793" lon="34.712729"><ele>366.7</ele><name>TP03259</name><time>2016-12-28T20:16:11Z</time></trkpt>
   <trkpt lat="30.923784" lon="34.712765"><ele>366.5</ele><name>TP03260</name><time>2016-12-28T20:16:12Z</time></trkpt>
   <trkpt lat="30.923773" lon="34.712798"><ele>366.5</ele><name>TP03261</name><time>2016-12-28T20:16:13Z</time></trkpt>
   <trkpt lat="30.923757" lon="34.712831"><ele>366.4</ele><name>TP03262</name><time>2016-12-28T20:16:14Z</time></trkpt>
   <trkpt lat="30.923731" lon="34.71286"><ele>366.4</ele><name>TP03263</name><time>2016-12-28T20:16:15Z</time></trkpt>
   <trkpt lat="30.923704" lon="34.712875"><ele>366.5</ele><name>TP03264</name><time>2016-12-28T20:16:16Z</time></trkpt>
   <trkpt lat="30.923661" lon="34.712876"><ele>366.7</ele><name>TP03265</name><time>2016-12-28T20:16:18Z</time></trkpt>
   <trkpt lat="30.923619" lon="34.712854"><ele>367.1</ele><name>TP03266</name><time>2016-12-28T20:16:20Z</time></trkpt>
   <trkpt lat="30.923586" lon="34.712822"><ele>367.5</ele><name>TP03267</name><time>2016-12-28T20:16:22Z</time></trkpt>
   <trkpt lat="30.923544" lon="34.712802"><ele>367.9</ele><name>TP03268</name><time>2016-12-28T20:16:24Z</time></trkpt>
   <trkpt lat="30.923506" lon="34.712791"><ele>368.2</ele><name>TP03269</name><time>2016-12-28T20:16:26Z</time></trkpt>
   <trkpt lat="30.923474" lon="34.712784"><ele>368.4</ele><name>TP03270</name><time>2016-12-28T20:16:27Z</time></trkpt>
   <trkpt lat="30.923431" lon="34.712784"><ele>368.7</ele><name>TP03271</name><time>2016-12-28T20:16:29Z</time></trkpt>
   <trkpt lat="30.923391" lon="34.712779"><ele>369</ele><name>TP03272</name><time>2016-12-28T20:16:31Z</time></trkpt>
   <trkpt lat="30.923357" lon="34.712772"><ele>369.2</ele><name>TP03273</name><time>2016-12-28T20:16:33Z</time></trkpt>
   <trkpt lat="30.92331" lon="34.712764"><ele>369.6</ele><name>TP03274</name><time>2016-12-28T20:16:35Z</time></trkpt>
   <trkpt lat="30.923259" lon="34.712754"><ele>370</ele><name>TP03275</name><time>2016-12-28T20:16:37Z</time></trkpt>
   <trkpt lat="30.923208" lon="34.712744"><ele>370.4</ele><name>TP03276</name><time>2016-12-28T20:16:39Z</time></trkpt>
   <trkpt lat="30.923179" lon="34.712736"><ele>370.6</ele><name>TP03277</name><time>2016-12-28T20:16:40Z</time></trkpt>
   <trkpt lat="30.923152" lon="34.712728"><ele>370.8</ele><name>TP03278</name><time>2016-12-28T20:16:41Z</time></trkpt>
   <trkpt lat="30.923123" lon="34.712729"><ele>371</ele><name>TP03279</name><time>2016-12-28T20:16:42Z</time></trkpt>
   <trkpt lat="30.9231" lon="34.712767"><ele>370.9</ele><name>TP03280</name><time>2016-12-28T20:16:44Z</time></trkpt>
   <trkpt lat="30.923126" lon="34.712798"><ele>370.5</ele><name>TP03281</name><time>2016-12-28T20:16:45Z</time></trkpt>
   <trkpt lat="30.923155" lon="34.712824"><ele>370.2</ele><name>TP03282</name><time>2016-12-28T20:16:46Z</time></trkpt>
   <trkpt lat="30.923179" lon="34.712845"><ele>369.9</ele><name>TP03283</name><time>2016-12-28T20:16:47Z</time></trkpt>
   <trkpt lat="30.923217" lon="34.712886"><ele>369.4</ele><name>TP03284</name><time>2016-12-28T20:16:49Z</time></trkpt>
   <trkpt lat="30.923248" lon="34.712926"><ele>369</ele><name>TP03285</name><time>2016-12-28T20:16:51Z</time></trkpt>
   <trkpt lat="30.923277" lon="34.712969"><ele>368.9</ele><name>TP03286</name><time>2016-12-28T20:16:53Z</time></trkpt>
   <trkpt lat="30.923301" lon="34.713028"><ele>368.8</ele><name>TP03287</name><time>2016-12-28T20:16:55Z</time></trkpt>
   <trkpt lat="30.923326" lon="34.713062"><ele>368.6</ele><name>TP03288</name><time>2016-12-28T20:16:57Z</time></trkpt>
   <trkpt lat="30.923368" lon="34.713063"><ele>368.4</ele><name>TP03289</name><time>2016-12-28T20:16:59Z</time></trkpt>
   <trkpt lat="30.923417" lon="34.713066"><ele>368.1</ele><name>TP03290</name><time>2016-12-28T20:17:01Z</time></trkpt>
   <trkpt lat="30.923467" lon="34.713077"><ele>367.8</ele><name>TP03291</name><time>2016-12-28T20:17:03Z</time></trkpt>
   <trkpt lat="30.923483" lon="34.713102"><ele>367.7</ele><name>TP03292</name><time>2016-12-28T20:17:04Z</time></trkpt>
   <trkpt lat="30.923472" lon="34.713134"><ele>367.8</ele><name>TP03293</name><time>2016-12-28T20:17:06Z</time></trkpt>
   <trkpt lat="30.923452" lon="34.71316"><ele>367.9</ele><name>TP03294</name><time>2016-12-28T20:17:07Z</time></trkpt>
   <trkpt lat="30.923411" lon="34.713192"><ele>368.2</ele><name>TP03295</name><time>2016-12-28T20:17:09Z</time></trkpt>
   <trkpt lat="30.923378" lon="34.713204"><ele>368.4</ele><name>TP03296</name><time>2016-12-28T20:17:10Z</time></trkpt>
   <trkpt lat="30.923349" lon="34.713202"><ele>368.6</ele><name>TP03297</name><time>2016-12-28T20:17:11Z</time></trkpt>
   <trkpt lat="30.92332" lon="34.713198"><ele>368.8</ele><name>TP03298</name><time>2016-12-28T20:17:12Z</time></trkpt>
   <trkpt lat="30.923267" lon="34.713198"><ele>369.1</ele><name>TP03299</name><time>2016-12-28T20:17:14Z</time></trkpt>
   <trkpt lat="30.923194" lon="34.713221"><ele>369.6</ele><name>TP03300</name><time>2016-12-28T20:17:17Z</time></trkpt>
   <trkpt lat="30.923155" lon="34.713234"><ele>369.8</ele><name>TP03301</name><time>2016-12-28T20:17:19Z</time></trkpt>
   <trkpt lat="30.923116" lon="34.713245"><ele>370.1</ele><name>TP03302</name><time>2016-12-28T20:17:21Z</time></trkpt>
   <trkpt lat="30.923069" lon="34.713258"><ele>370.4</ele><name>TP03303</name><time>2016-12-28T20:17:23Z</time></trkpt>
   <trkpt lat="30.923042" lon="34.713267"><ele>370.6</ele><name>TP03304</name><time>2016-12-28T20:17:24Z</time></trkpt>
   <trkpt lat="30.923015" lon="34.71327"><ele>370.8</ele><name>TP03305</name><time>2016-12-28T20:17:25Z</time></trkpt>
   <trkpt lat="30.922978" lon="34.713239"><ele>371</ele><name>TP03306</name><time>2016-12-28T20:17:27Z</time></trkpt>
   <trkpt lat="30.922985" lon="34.713178"><ele>370.9</ele><name>TP03307</name><time>2016-12-28T20:17:29Z</time></trkpt>
   <trkpt lat="30.922994" lon="34.713148"><ele>370.8</ele><name>TP03308</name><time>2016-12-28T20:17:30Z</time></trkpt>
   <trkpt lat="30.922988" lon="34.713093"><ele>370.8</ele><name>TP03309</name><time>2016-12-28T20:17:32Z</time></trkpt>
   <trkpt lat="30.922953" lon="34.713062"><ele>370.9</ele><name>TP03310</name><time>2016-12-28T20:17:34Z</time></trkpt>
   <trkpt lat="30.922901" lon="34.713042"><ele>371.3</ele><name>TP03311</name><time>2016-12-28T20:17:36Z</time></trkpt>
   <trkpt lat="30.922851" lon="34.713054"><ele>371.7</ele><name>TP03312</name><time>2016-12-28T20:17:38Z</time></trkpt>
   <trkpt lat="30.922806" lon="34.713075"><ele>372.1</ele><name>TP03313</name><time>2016-12-28T20:17:40Z</time></trkpt>
   <trkpt lat="30.922804" lon="34.713107"><ele>372.2</ele><name>TP03314</name><time>2016-12-28T20:17:41Z</time></trkpt>
   <trkpt lat="30.92282" lon="34.713138"><ele>372.1</ele><name>TP03315</name><time>2016-12-28T20:17:42Z</time></trkpt>
   <trkpt lat="30.92284" lon="34.713169"><ele>372</ele><name>TP03316</name><time>2016-12-28T20:17:43Z</time></trkpt>
   <trkpt lat="30.922837" lon="34.713223"><ele>372.1</ele><name>TP03317</name><time>2016-12-28T20:17:45Z</time></trkpt>
   <trkpt lat="30.922792" lon="34.713248"><ele>372.5</ele><name>TP03318</name><time>2016-12-28T20:17:47Z</time></trkpt>
   <trkpt lat="30.922745" lon="34.713216"><ele>372.9</ele><name>TP03319</name><time>2016-12-28T20:17:49Z</time></trkpt>
   <trkpt lat="30.922711" lon="34.713192"><ele>373.1</ele><name>TP03320</name><time>2016-12-28T20:17:51Z</time></trkpt>
   <trkpt lat="30.922682" lon="34.713179"><ele>373.4</ele><name>TP03321</name><time>2016-12-28T20:17:53Z</time></trkpt>
   <trkpt lat="30.922647" lon="34.713169"><ele>373.6</ele><name>TP03322</name><time>2016-12-28T20:17:55Z</time></trkpt>
   <trkpt lat="30.92261" lon="34.713156"><ele>373.9</ele><name>TP03323</name><time>2016-12-28T20:17:57Z</time></trkpt>
   <trkpt lat="30.922566" lon="34.713144"><ele>374.3</ele><name>TP03324</name><time>2016-12-28T20:17:59Z</time></trkpt>
   <trkpt lat="30.922517" lon="34.713137"><ele>374.6</ele><name>TP03325</name><time>2016-12-28T20:18:01Z</time></trkpt>
   <trkpt lat="30.922475" lon="34.713146"><ele>375</ele><name>TP03326</name><time>2016-12-28T20:18:03Z</time></trkpt>
   <trkpt lat="30.922435" lon="34.713173"><ele>375.5</ele><name>TP03327</name><time>2016-12-28T20:18:05Z</time></trkpt>
   <trkpt lat="30.922403" lon="34.7132"><ele>375.9</ele><name>TP03328</name><time>2016-12-28T20:18:07Z</time></trkpt>
   <trkpt lat="30.922357" lon="34.713225"><ele>376.4</ele><name>TP03329</name><time>2016-12-28T20:18:09Z</time></trkpt>
   <trkpt lat="30.922331" lon="34.713236"><ele>376.7</ele><name>TP03330</name><time>2016-12-28T20:18:10Z</time></trkpt>
   <trkpt lat="30.922301" lon="34.713241"><ele>377</ele><name>TP03331</name><time>2016-12-28T20:18:11Z</time></trkpt>
   <trkpt lat="30.922269" lon="34.713242"><ele>377.3</ele><name>TP03332</name><time>2016-12-28T20:18:13Z</time></trkpt>
   <trkpt lat="30.922226" lon="34.713254"><ele>377.7</ele><name>TP03333</name><time>2016-12-28T20:18:15Z</time></trkpt>
   <trkpt lat="30.922188" lon="34.713272"><ele>378.2</ele><name>TP03334</name><time>2016-12-28T20:18:17Z</time></trkpt>
   <trkpt lat="30.922149" lon="34.713308"><ele>378.7</ele><name>TP03335</name><time>2016-12-28T20:18:19Z</time></trkpt>
   <trkpt lat="30.922129" lon="34.713334"><ele>379.1</ele><name>TP03336</name><time>2016-12-28T20:18:20Z</time></trkpt>
   <trkpt lat="30.922107" lon="34.713363"><ele>379.4</ele><name>TP03337</name><time>2016-12-28T20:18:22Z</time></trkpt>
   <trkpt lat="30.922087" lon="34.713389"><ele>379.8</ele><name>TP03338</name><time>2016-12-28T20:18:23Z</time></trkpt>
   <trkpt lat="30.922066" lon="34.713419"><ele>380.3</ele><name>TP03339</name><time>2016-12-28T20:18:24Z</time></trkpt>
   <trkpt lat="30.922043" lon="34.713454"><ele>381</ele><name>TP03340</name><time>2016-12-28T20:18:25Z</time></trkpt>
   <trkpt lat="30.922021" lon="34.71349"><ele>381.6</ele><name>TP03341</name><time>2016-12-28T20:18:26Z</time></trkpt>
   <trkpt lat="30.922" lon="34.713524"><ele>382.3</ele><name>TP03342</name><time>2016-12-28T20:18:27Z</time></trkpt>
   <trkpt lat="30.921979" lon="34.713554"><ele>382.9</ele><name>TP03343</name><time>2016-12-28T20:18:28Z</time></trkpt>
   <trkpt lat="30.921937" lon="34.713612"><ele>384.2</ele><name>TP03344</name><time>2016-12-28T20:18:30Z</time></trkpt>
   <trkpt lat="30.921924" lon="34.713643"><ele>384.7</ele><name>TP03345</name><time>2016-12-28T20:18:31Z</time></trkpt>
   <trkpt lat="30.921914" lon="34.713674"><ele>385.2</ele><name>TP03346</name><time>2016-12-28T20:18:32Z</time></trkpt>
   <trkpt lat="30.9219" lon="34.713706"><ele>385.8</ele><name>TP03347</name><time>2016-12-28T20:18:33Z</time></trkpt>
   <trkpt lat="30.921886" lon="34.713736"><ele>386.4</ele><name>TP03348</name><time>2016-12-28T20:18:34Z</time></trkpt>
   <trkpt lat="30.921871" lon="34.713763"><ele>386.7</ele><name>TP03349</name><time>2016-12-28T20:18:35Z</time></trkpt>
   <trkpt lat="30.921853" lon="34.713794"><ele>386.7</ele><name>TP03350</name><time>2016-12-28T20:18:36Z</time></trkpt>
   <trkpt lat="30.92183" lon="34.713821"><ele>386.9</ele><name>TP03351</name><time>2016-12-28T20:18:37Z</time></trkpt>
   <trkpt lat="30.921804" lon="34.713846"><ele>387.2</ele><name>TP03352</name><time>2016-12-28T20:18:39Z</time></trkpt>
   <trkpt lat="30.921783" lon="34.713882"><ele>387.3</ele><name>TP03353</name><time>2016-12-28T20:18:41Z</time></trkpt>
   <trkpt lat="30.92176" lon="34.71392"><ele>387.3</ele><name>TP03354</name><time>2016-12-28T20:18:42Z</time></trkpt>
   <trkpt lat="30.921737" lon="34.713954"><ele>387.4</ele><name>TP03355</name><time>2016-12-28T20:18:43Z</time></trkpt>
   <trkpt lat="30.921715" lon="34.713986"><ele>387.5</ele><name>TP03356</name><time>2016-12-28T20:18:44Z</time></trkpt>
   <trkpt lat="30.921691" lon="34.714015"><ele>387.6</ele><name>TP03357</name><time>2016-12-28T20:18:45Z</time></trkpt>
   <trkpt lat="30.921667" lon="34.714042"><ele>387.8</ele><name>TP03358</name><time>2016-12-28T20:18:46Z</time></trkpt>
   <trkpt lat="30.921632" lon="34.714072"><ele>388.2</ele><name>TP03359</name><time>2016-12-28T20:18:48Z</time></trkpt>
   <trkpt lat="30.921603" lon="34.714106"><ele>388.4</ele><name>TP03360</name><time>2016-12-28T20:18:50Z</time></trkpt>
   <trkpt lat="30.92158" lon="34.714152"><ele>388.3</ele><name>TP03361</name><time>2016-12-28T20:18:52Z</time></trkpt>
   <trkpt lat="30.921548" lon="34.714197"><ele>388.3</ele><name>TP03362</name><time>2016-12-28T20:18:54Z</time></trkpt>
   <trkpt lat="30.921511" lon="34.714247"><ele>388.5</ele><name>TP03363</name><time>2016-12-28T20:18:56Z</time></trkpt>
   <trkpt lat="30.921491" lon="34.714273"><ele>388.5</ele><name>TP03364</name><time>2016-12-28T20:18:57Z</time></trkpt>
   <trkpt lat="30.921472" lon="34.714299"><ele>388.6</ele><name>TP03365</name><time>2016-12-28T20:18:58Z</time></trkpt>
   <trkpt lat="30.921453" lon="34.714329"><ele>388.5</ele><name>TP03366</name><time>2016-12-28T20:18:59Z</time></trkpt>
   <trkpt lat="30.921435" lon="34.714359"><ele>388.5</ele><name>TP03367</name><time>2016-12-28T20:19:00Z</time></trkpt>
   <trkpt lat="30.921414" lon="34.714395"><ele>388.4</ele><name>TP03368</name><time>2016-12-28T20:19:01Z</time></trkpt>
   <trkpt lat="30.92139" lon="34.714429"><ele>388.4</ele><name>TP03369</name><time>2016-12-28T20:19:02Z</time></trkpt>
   <trkpt lat="30.921345" lon="34.714455"><ele>389</ele><name>TP03370</name><time>2016-12-28T20:19:04Z</time></trkpt>
   <trkpt lat="30.921315" lon="34.714487"><ele>389.1</ele><name>TP03371</name><time>2016-12-28T20:19:05Z</time></trkpt>
   <trkpt lat="30.921287" lon="34.714513"><ele>389.3</ele><name>TP03372</name><time>2016-12-28T20:19:06Z</time></trkpt>
   <trkpt lat="30.921262" lon="34.714544"><ele>389.3</ele><name>TP03373</name><time>2016-12-28T20:19:07Z</time></trkpt>
   <trkpt lat="30.921244" lon="34.71458"><ele>389.2</ele><name>TP03374</name><time>2016-12-28T20:19:08Z</time></trkpt>
   <trkpt lat="30.921225" lon="34.714613"><ele>389.4</ele><name>TP03375</name><time>2016-12-28T20:19:09Z</time></trkpt>
   <trkpt lat="30.921207" lon="34.714647"><ele>389.5</ele><name>TP03376</name><time>2016-12-28T20:19:10Z</time></trkpt>
   <trkpt lat="30.921187" lon="34.71468"><ele>389.7</ele><name>TP03377</name><time>2016-12-28T20:19:11Z</time></trkpt>
   <trkpt lat="30.921168" lon="34.714706"><ele>390</ele><name>TP03378</name><time>2016-12-28T20:19:12Z</time></trkpt>
   <trkpt lat="30.921149" lon="34.714732"><ele>390.2</ele><name>TP03379</name><time>2016-12-28T20:19:13Z</time></trkpt>
   <trkpt lat="30.921135" lon="34.71476"><ele>390.2</ele><name>TP03380</name><time>2016-12-28T20:19:14Z</time></trkpt>
   <trkpt lat="30.921076" lon="34.714838"><ele>391</ele><name>TP03381</name><time>2016-12-28T20:19:17Z</time></trkpt>
   <trkpt lat="30.921035" lon="34.7149"><ele>391.3</ele><name>TP03382</name><time>2016-12-28T20:19:19Z</time></trkpt>
   <trkpt lat="30.921015" lon="34.714932"><ele>391.4</ele><name>TP03383</name><time>2016-12-28T20:19:20Z</time></trkpt>
   <trkpt lat="30.920997" lon="34.714964"><ele>391.5</ele><name>TP03384</name><time>2016-12-28T20:19:21Z</time></trkpt>
   <trkpt lat="30.920978" lon="34.714994"><ele>391.6</ele><name>TP03385</name><time>2016-12-28T20:19:22Z</time></trkpt>
   <trkpt lat="30.920957" lon="34.715024"><ele>391.7</ele><name>TP03386</name><time>2016-12-28T20:19:23Z</time></trkpt>
   <trkpt lat="30.920934" lon="34.715053"><ele>392</ele><name>TP03387</name><time>2016-12-28T20:19:24Z</time></trkpt>
   <trkpt lat="30.920911" lon="34.715089"><ele>392.1</ele><name>TP03388</name><time>2016-12-28T20:19:25Z</time></trkpt>
   <trkpt lat="30.920891" lon="34.715116"><ele>392.2</ele><name>TP03389</name><time>2016-12-28T20:19:26Z</time></trkpt>
   <trkpt lat="30.920868" lon="34.715139"><ele>392.5</ele><name>TP03390</name><time>2016-12-28T20:19:27Z</time></trkpt>
   <trkpt lat="30.920843" lon="34.715163"><ele>392.8</ele><name>TP03391</name><time>2016-12-28T20:19:28Z</time></trkpt>
   <trkpt lat="30.92082" lon="34.715186"><ele>393.1</ele><name>TP03392</name><time>2016-12-28T20:19:29Z</time></trkpt>
   <trkpt lat="30.920797" lon="34.715208"><ele>393.4</ele><name>TP03393</name><time>2016-12-28T20:19:30Z</time></trkpt>
   <trkpt lat="30.92076" lon="34.71521"><ele>394.4</ele><name>TP03394</name><time>2016-12-28T20:19:33Z</time></trkpt>
   <trkpt lat="30.920727" lon="34.715241"><ele>394.8</ele><name>TP03395</name><time>2016-12-28T20:19:34Z</time></trkpt>
   <trkpt lat="30.920699" lon="34.715243"><ele>395.5</ele><name>TP03396</name><time>2016-12-28T20:19:35Z</time></trkpt>
   <trkpt lat="30.920669" lon="34.715263"><ele>396</ele><name>TP03397</name><time>2016-12-28T20:19:36Z</time></trkpt>
   <trkpt lat="30.920638" lon="34.715289"><ele>396.4</ele><name>TP03398</name><time>2016-12-28T20:19:37Z</time></trkpt>
   <trkpt lat="30.920611" lon="34.715309"><ele>396.8</ele><name>TP03399</name><time>2016-12-28T20:19:38Z</time></trkpt>
   <trkpt lat="30.920583" lon="34.715325"><ele>397.3</ele><name>TP03400</name><time>2016-12-28T20:19:39Z</time></trkpt>
   <trkpt lat="30.920536" lon="34.715353"><ele>398</ele><name>TP03401</name><time>2016-12-28T20:19:41Z</time></trkpt>
   <trkpt lat="30.920488" lon="34.715372"><ele>399</ele><name>TP03402</name><time>2016-12-28T20:19:43Z</time></trkpt>
   <trkpt lat="30.920439" lon="34.715385"><ele>400</ele><name>TP03403</name><time>2016-12-28T20:19:45Z</time></trkpt>
   <trkpt lat="30.920389" lon="34.715398"><ele>401</ele><name>TP03404</name><time>2016-12-28T20:19:47Z</time></trkpt>
   <trkpt lat="30.920347" lon="34.715418"><ele>401.6</ele><name>TP03405</name><time>2016-12-28T20:19:49Z</time></trkpt>
   <trkpt lat="30.920296" lon="34.715431"><ele>402.5</ele><name>TP03406</name><time>2016-12-28T20:19:51Z</time></trkpt>
   <trkpt lat="30.920243" lon="34.715439"><ele>403.5</ele><name>TP03407</name><time>2016-12-28T20:19:53Z</time></trkpt>
   <trkpt lat="30.920213" lon="34.715448"><ele>404</ele><name>TP03408</name><time>2016-12-28T20:19:54Z</time></trkpt>
   <trkpt lat="30.920168" lon="34.715465"><ele>404.6</ele><name>TP03409</name><time>2016-12-28T20:19:56Z</time></trkpt>
   <trkpt lat="30.920132" lon="34.715485"><ele>405</ele><name>TP03410</name><time>2016-12-28T20:19:57Z</time></trkpt>
   <trkpt lat="30.920095" lon="34.71551"><ele>405.3</ele><name>TP03411</name><time>2016-12-28T20:19:58Z</time></trkpt>
   <trkpt lat="30.920042" lon="34.715545"><ele>405.7</ele><name>TP03412</name><time>2016-12-28T20:19:59Z</time></trkpt>
   <trkpt lat="30.919999" lon="34.715625"><ele>404.9</ele><name>TP03413</name><time>2016-12-28T20:20:01Z</time></trkpt>
   <trkpt lat="30.919973" lon="34.715658"><ele>404.7</ele><name>TP03414</name><time>2016-12-28T20:20:02Z</time></trkpt>
   <trkpt lat="30.919946" lon="34.715689"><ele>404.6</ele><name>TP03415</name><time>2016-12-28T20:20:03Z</time></trkpt>
   <trkpt lat="30.91992" lon="34.715722"><ele>404.4</ele><name>TP03416</name><time>2016-12-28T20:20:04Z</time></trkpt>
   <trkpt lat="30.919889" lon="34.715745"><ele>404.6</ele><name>TP03417</name><time>2016-12-28T20:20:05Z</time></trkpt>
   <trkpt lat="30.919858" lon="34.715773"><ele>404.6</ele><name>TP03418</name><time>2016-12-28T20:20:06Z</time></trkpt>
   <trkpt lat="30.919825" lon="34.715794"><ele>404.8</ele><name>TP03419</name><time>2016-12-28T20:20:07Z</time></trkpt>
   <trkpt lat="30.919796" lon="34.71581"><ele>405.1</ele><name>TP03420</name><time>2016-12-28T20:20:08Z</time></trkpt>
   <trkpt lat="30.919768" lon="34.715829"><ele>405.2</ele><name>TP03421</name><time>2016-12-28T20:20:09Z</time></trkpt>
   <trkpt lat="30.919741" lon="34.715844"><ele>405.4</ele><name>TP03422</name><time>2016-12-28T20:20:10Z</time></trkpt>
   <trkpt lat="30.91971" lon="34.715863"><ele>405.6</ele><name>TP03423</name><time>2016-12-28T20:20:11Z</time></trkpt>
   <trkpt lat="30.919679" lon="34.715888"><ele>405.7</ele><name>TP03424</name><time>2016-12-28T20:20:12Z</time></trkpt>
   <trkpt lat="30.91965" lon="34.715911"><ele>405.8</ele><name>TP03425</name><time>2016-12-28T20:20:13Z</time></trkpt>
   <trkpt lat="30.919624" lon="34.715941"><ele>405.6</ele><name>TP03426</name><time>2016-12-28T20:20:14Z</time></trkpt>
   <trkpt lat="30.919598" lon="34.715971"><ele>405.4</ele><name>TP03427</name><time>2016-12-28T20:20:15Z</time></trkpt>
   <trkpt lat="30.919574" lon="34.716001"><ele>405.2</ele><name>TP03428</name><time>2016-12-28T20:20:16Z</time></trkpt>
   <trkpt lat="30.91955" lon="34.716028"><ele>405</ele><name>TP03429</name><time>2016-12-28T20:20:17Z</time></trkpt>
   <trkpt lat="30.919529" lon="34.716052"><ele>404.9</ele><name>TP03430</name><time>2016-12-28T20:20:18Z</time></trkpt>
   <trkpt lat="30.919511" lon="34.716077"><ele>404.7</ele><name>TP03431</name><time>2016-12-28T20:20:19Z</time></trkpt>
   <trkpt lat="30.919487" lon="34.716114"><ele>404.4</ele><name>TP03432</name><time>2016-12-28T20:20:21Z</time></trkpt>
   <trkpt lat="30.919457" lon="34.716148"><ele>404.4</ele><name>TP03433</name><time>2016-12-28T20:20:23Z</time></trkpt>
   <trkpt lat="30.919423" lon="34.716179"><ele>404.6</ele><name>TP03434</name><time>2016-12-28T20:20:25Z</time></trkpt>
   <trkpt lat="30.919385" lon="34.716209"><ele>405</ele><name>TP03435</name><time>2016-12-28T20:20:26Z</time></trkpt>
   <trkpt lat="30.919347" lon="34.716231"><ele>405.6</ele><name>TP03436</name><time>2016-12-28T20:20:27Z</time></trkpt>
   <trkpt lat="30.919314" lon="34.716252"><ele>406.1</ele><name>TP03437</name><time>2016-12-28T20:20:28Z</time></trkpt>
   <trkpt lat="30.919284" lon="34.716279"><ele>406.3</ele><name>TP03438</name><time>2016-12-28T20:20:29Z</time></trkpt>
   <trkpt lat="30.919251" lon="34.716306"><ele>406.6</ele><name>TP03439</name><time>2016-12-28T20:20:30Z</time></trkpt>
   <trkpt lat="30.919216" lon="34.716325"><ele>407.1</ele><name>TP03440</name><time>2016-12-28T20:20:31Z</time></trkpt>
   <trkpt lat="30.919121" lon="34.716353"><ele>408.9</ele><name>TP03441</name><time>2016-12-28T20:20:33Z</time></trkpt>
   <trkpt lat="30.919099" lon="34.716382"><ele>408.8</ele><name>TP03442</name><time>2016-12-28T20:20:34Z</time></trkpt>
   <trkpt lat="30.919082" lon="34.716413"><ele>408.5</ele><name>TP03443</name><time>2016-12-28T20:20:35Z</time></trkpt>
   <trkpt lat="30.919068" lon="34.716441"><ele>408.2</ele><name>TP03444</name><time>2016-12-28T20:20:36Z</time></trkpt>
   <trkpt lat="30.919051" lon="34.716472"><ele>407.9</ele><name>TP03445</name><time>2016-12-28T20:20:37Z</time></trkpt>
   <trkpt lat="30.919031" lon="34.716497"><ele>407.9</ele><name>TP03446</name><time>2016-12-28T20:20:38Z</time></trkpt>
   <trkpt lat="30.919011" lon="34.716521"><ele>407.8</ele><name>TP03447</name><time>2016-12-28T20:20:39Z</time></trkpt>
   <trkpt lat="30.918984" lon="34.716551"><ele>407.7</ele><name>TP03448</name><time>2016-12-28T20:20:41Z</time></trkpt>
   <trkpt lat="30.918959" lon="34.716584"><ele>407.6</ele><name>TP03449</name><time>2016-12-28T20:20:43Z</time></trkpt>
   <trkpt lat="30.918927" lon="34.716621"><ele>407.5</ele><name>TP03450</name><time>2016-12-28T20:20:46Z</time></trkpt>
   <trkpt lat="30.91891" lon="34.71665"><ele>407.2</ele><name>TP03451</name><time>2016-12-28T20:20:47Z</time></trkpt>
   <trkpt lat="30.918887" lon="34.716688"><ele>406.8</ele><name>TP03452</name><time>2016-12-28T20:20:48Z</time></trkpt>
   <trkpt lat="30.918861" lon="34.716728"><ele>406.4</ele><name>TP03453</name><time>2016-12-28T20:20:49Z</time></trkpt>
   <trkpt lat="30.918831" lon="34.716769"><ele>406.1</ele><name>TP03454</name><time>2016-12-28T20:20:50Z</time></trkpt>
   <trkpt lat="30.918809" lon="34.716799"><ele>405.8</ele><name>TP03455</name><time>2016-12-28T20:20:51Z</time></trkpt>
   <trkpt lat="30.918746" lon="34.717041"><ele>401.2</ele><name>TP03456</name><time>2016-12-28T20:20:54Z</time></trkpt>
   <trkpt lat="30.918746" lon="34.717086"><ele>400.1</ele><name>TP03457</name><time>2016-12-28T20:20:55Z</time></trkpt>
   <trkpt lat="30.918749" lon="34.71713"><ele>399.5</ele><name>TP03458</name><time>2016-12-28T20:20:56Z</time></trkpt>
   <trkpt lat="30.918759" lon="34.717174"><ele>398.7</ele><name>TP03459</name><time>2016-12-28T20:20:57Z</time></trkpt>
   <trkpt lat="30.918767" lon="34.717231"><ele>397.9</ele><name>TP03460</name><time>2016-12-28T20:20:58Z</time></trkpt>
   <trkpt lat="30.918758" lon="34.717284"><ele>397.4</ele><name>TP03461</name><time>2016-12-28T20:20:59Z</time></trkpt>
   <trkpt lat="30.918737" lon="34.717323"><ele>397.6</ele><name>TP03462</name><time>2016-12-28T20:21:00Z</time></trkpt>
   <trkpt lat="30.918711" lon="34.71735"><ele>398.3</ele><name>TP03463</name><time>2016-12-28T20:21:01Z</time></trkpt>
   <trkpt lat="30.918691" lon="34.717376"><ele>398.7</ele><name>TP03464</name><time>2016-12-28T20:21:02Z</time></trkpt>
   <trkpt lat="30.918649" lon="34.717414"><ele>399.7</ele><name>TP03465</name><time>2016-12-28T20:21:04Z</time></trkpt>
   <trkpt lat="30.918615" lon="34.717452"><ele>400.5</ele><name>TP03466</name><time>2016-12-28T20:21:06Z</time></trkpt>
   <trkpt lat="30.918577" lon="34.71749"><ele>401.4</ele><name>TP03467</name><time>2016-12-28T20:21:08Z</time></trkpt>
   <trkpt lat="30.91854" lon="34.71753"><ele>402.1</ele><name>TP03468</name><time>2016-12-28T20:21:10Z</time></trkpt>
   <trkpt lat="30.918505" lon="34.717573"><ele>402.8</ele><name>TP03469</name><time>2016-12-28T20:21:12Z</time></trkpt>
   <trkpt lat="30.918474" lon="34.71762"><ele>403.2</ele><name>TP03470</name><time>2016-12-28T20:21:14Z</time></trkpt>
   <trkpt lat="30.918443" lon="34.71767"><ele>403.6</ele><name>TP03471</name><time>2016-12-28T20:21:16Z</time></trkpt>
   <trkpt lat="30.918396" lon="34.717729"><ele>404.3</ele><name>TP03472</name><time>2016-12-28T20:21:19Z</time></trkpt>
   <trkpt lat="30.918373" lon="34.717758"><ele>404.6</ele><name>TP03473</name><time>2016-12-28T20:21:21Z</time></trkpt>
   <trkpt lat="30.918352" lon="34.717782"><ele>405</ele><name>TP03474</name><time>2016-12-28T20:21:23Z</time></trkpt>
   <trkpt lat="30.918328" lon="34.717829"><ele>405</ele><name>TP03475</name><time>2016-12-28T20:21:26Z</time></trkpt>
   <trkpt lat="30.918316" lon="34.717875"><ele>404.7</ele><name>TP03476</name><time>2016-12-28T20:21:29Z</time></trkpt>
   <trkpt lat="30.918303" lon="34.717928"><ele>404.4</ele><name>TP03477</name><time>2016-12-28T20:21:31Z</time></trkpt>
   <trkpt lat="30.918287" lon="34.717975"><ele>404.7</ele><name>TP03478</name><time>2016-12-28T20:21:33Z</time></trkpt>
   <trkpt lat="30.91827" lon="34.718018"><ele>405</ele><name>TP03479</name><time>2016-12-28T20:21:35Z</time></trkpt>
   <trkpt lat="30.918256" lon="34.71806"><ele>405.2</ele><name>TP03480</name><time>2016-12-28T20:21:37Z</time></trkpt>
   <trkpt lat="30.918242" lon="34.718102"><ele>405.3</ele><name>TP03481</name><time>2016-12-28T20:21:39Z</time></trkpt>
   <trkpt lat="30.918221" lon="34.718139"><ele>405.8</ele><name>TP03482</name><time>2016-12-28T20:21:41Z</time></trkpt>
   <trkpt lat="30.918189" lon="34.718158"><ele>406.6</ele><name>TP03483</name><time>2016-12-28T20:21:43Z</time></trkpt>
   <trkpt lat="30.918153" lon="34.718178"><ele>407.6</ele><name>TP03484</name><time>2016-12-28T20:21:45Z</time></trkpt>
   <trkpt lat="30.918123" lon="34.718219"><ele>408.2</ele><name>TP03485</name><time>2016-12-28T20:21:47Z</time></trkpt>
   <trkpt lat="30.918096" lon="34.71827"><ele>408.7</ele><name>TP03486</name><time>2016-12-28T20:21:49Z</time></trkpt>
   <trkpt lat="30.918086" lon="34.718299"><ele>408.8</ele><name>TP03487</name><time>2016-12-28T20:21:50Z</time></trkpt>
   <trkpt lat="30.918072" lon="34.718362"><ele>408.7</ele><name>TP03488</name><time>2016-12-28T20:21:52Z</time></trkpt>
   <trkpt lat="30.918062" lon="34.718394"><ele>408.8</ele><name>TP03489</name><time>2016-12-28T20:21:53Z</time></trkpt>
   <trkpt lat="30.918051" lon="34.718431"><ele>408.8</ele><name>TP03490</name><time>2016-12-28T20:21:54Z</time></trkpt>
   <trkpt lat="30.918041" lon="34.71847"><ele>408.8</ele><name>TP03491</name><time>2016-12-28T20:21:55Z</time></trkpt>
   <trkpt lat="30.918032" lon="34.718511"><ele>408.8</ele><name>TP03492</name><time>2016-12-28T20:21:56Z</time></trkpt>
   <trkpt lat="30.918024" lon="34.718549"><ele>408.7</ele><name>TP03493</name><time>2016-12-28T20:21:57Z</time></trkpt>
   <trkpt lat="30.918015" lon="34.71859"><ele>408.6</ele><name>TP03494</name><time>2016-12-28T20:21:58Z</time></trkpt>
   <trkpt lat="30.918002" lon="34.718652"><ele>408.5</ele><name>TP03495</name><time>2016-12-28T20:22:00Z</time></trkpt>
   <trkpt lat="30.917981" lon="34.718709"><ele>408.6</ele><name>TP03496</name><time>2016-12-28T20:22:01Z</time></trkpt>
   <trkpt lat="30.91795" lon="34.718774"><ele>409.3</ele><name>TP03497</name><time>2016-12-28T20:22:02Z</time></trkpt>
   <trkpt lat="30.917912" lon="34.718834"><ele>410.7</ele><name>TP03498</name><time>2016-12-28T20:22:03Z</time></trkpt>
   <trkpt lat="30.917869" lon="34.718881"><ele>411.6</ele><name>TP03499</name><time>2016-12-28T20:22:04Z</time></trkpt>
   <trkpt lat="30.917836" lon="34.718902"><ele>412.1</ele><name>TP03500</name><time>2016-12-28T20:22:05Z</time></trkpt>
   <trkpt lat="30.917787" lon="34.71888"><ele>412.3</ele><name>TP03501</name><time>2016-12-28T20:22:07Z</time></trkpt>
   <trkpt lat="30.917774" lon="34.718838"><ele>412</ele><name>TP03502</name><time>2016-12-28T20:22:08Z</time></trkpt>
   <trkpt lat="30.917782" lon="34.718713"><ele>411.2</ele><name>TP03503</name><time>2016-12-28T20:22:10Z</time></trkpt>
   <trkpt lat="30.917794" lon="34.71866"><ele>411.5</ele><name>TP03504</name><time>2016-12-28T20:22:11Z</time></trkpt>
   <trkpt lat="30.917799" lon="34.718604"><ele>411.9</ele><name>TP03505</name><time>2016-12-28T20:22:12Z</time></trkpt>
   <trkpt lat="30.917791" lon="34.718545"><ele>412.4</ele><name>TP03506</name><time>2016-12-28T20:22:13Z</time></trkpt>
   <trkpt lat="30.917779" lon="34.71849"><ele>412.8</ele><name>TP03507</name><time>2016-12-28T20:22:14Z</time></trkpt>
   <trkpt lat="30.91777" lon="34.718432"><ele>413.3</ele><name>TP03508</name><time>2016-12-28T20:22:15Z</time></trkpt>
   <trkpt lat="30.917753" lon="34.718386"><ele>413.6</ele><name>TP03509</name><time>2016-12-28T20:22:16Z</time></trkpt>
   <trkpt lat="30.917729" lon="34.718345"><ele>414</ele><name>TP03510</name><time>2016-12-28T20:22:17Z</time></trkpt>
   <trkpt lat="30.917706" lon="34.718312"><ele>414.3</ele><name>TP03511</name><time>2016-12-28T20:22:18Z</time></trkpt>
   <trkpt lat="30.917678" lon="34.718283"><ele>414.5</ele><name>TP03512</name><time>2016-12-28T20:22:19Z</time></trkpt>
   <trkpt lat="30.917633" lon="34.718265"><ele>414.7</ele><name>TP03513</name><time>2016-12-28T20:22:21Z</time></trkpt>
   <trkpt lat="30.917604" lon="34.718247"><ele>414.9</ele><name>TP03514</name><time>2016-12-28T20:22:22Z</time></trkpt>
   <trkpt lat="30.917573" lon="34.718231"><ele>415</ele><name>TP03515</name><time>2016-12-28T20:22:23Z</time></trkpt>
   <trkpt lat="30.917536" lon="34.718209"><ele>415.2</ele><name>TP03516</name><time>2016-12-28T20:22:25Z</time></trkpt>
   <trkpt lat="30.917499" lon="34.718172"><ele>415.4</ele><name>TP03517</name><time>2016-12-28T20:22:27Z</time></trkpt>
   <trkpt lat="30.917474" lon="34.718151"><ele>415.5</ele><name>TP03518</name><time>2016-12-28T20:22:28Z</time></trkpt>
   <trkpt lat="30.917445" lon="34.718131"><ele>415.7</ele><name>TP03519</name><time>2016-12-28T20:22:29Z</time></trkpt>
   <trkpt lat="30.917408" lon="34.718113"><ele>415.7</ele><name>TP03520</name><time>2016-12-28T20:22:30Z</time></trkpt>
   <trkpt lat="30.91737" lon="34.718094"><ele>415.8</ele><name>TP03521</name><time>2016-12-28T20:22:31Z</time></trkpt>
   <trkpt lat="30.91733" lon="34.718073"><ele>415.9</ele><name>TP03522</name><time>2016-12-28T20:22:32Z</time></trkpt>
   <trkpt lat="30.917281" lon="34.718053"><ele>416</ele><name>TP03523</name><time>2016-12-28T20:22:33Z</time></trkpt>
   <trkpt lat="30.91723" lon="34.718042"><ele>416</ele><name>TP03524</name><time>2016-12-28T20:22:34Z</time></trkpt>
   <trkpt lat="30.91718" lon="34.718043"><ele>416</ele><name>TP03525</name><time>2016-12-28T20:22:35Z</time></trkpt>
   <trkpt lat="30.917128" lon="34.718048"><ele>416</ele><name>TP03526</name><time>2016-12-28T20:22:36Z</time></trkpt>
   <trkpt lat="30.917075" lon="34.718045"><ele>415.9</ele><name>TP03527</name><time>2016-12-28T20:22:37Z</time></trkpt>
   <trkpt lat="30.917021" lon="34.718027"><ele>415.3</ele><name>TP03528</name><time>2016-12-28T20:22:38Z</time></trkpt>
   <trkpt lat="30.91697" lon="34.717996"><ele>414.7</ele><name>TP03529</name><time>2016-12-28T20:22:39Z</time></trkpt>
   <trkpt lat="30.916922" lon="34.717962"><ele>414</ele><name>TP03530</name><time>2016-12-28T20:22:40Z</time></trkpt>
   <trkpt lat="30.916875" lon="34.717929"><ele>413.3</ele><name>TP03531</name><time>2016-12-28T20:22:41Z</time></trkpt>
   <trkpt lat="30.91683" lon="34.717898"><ele>412.8</ele><name>TP03532</name><time>2016-12-28T20:22:42Z</time></trkpt>
   <trkpt lat="30.916784" lon="34.717871"><ele>412.3</ele><name>TP03533</name><time>2016-12-28T20:22:43Z</time></trkpt>
   <trkpt lat="30.916742" lon="34.717843"><ele>411.9</ele><name>TP03534</name><time>2016-12-28T20:22:44Z</time></trkpt>
   <trkpt lat="30.91671" lon="34.717818"><ele>411.5</ele><name>TP03535</name><time>2016-12-28T20:22:45Z</time></trkpt>
   <trkpt lat="30.916674" lon="34.717785"><ele>411.1</ele><name>TP03536</name><time>2016-12-28T20:22:46Z</time></trkpt>
   <trkpt lat="30.916626" lon="34.717742"><ele>410.4</ele><name>TP03537</name><time>2016-12-28T20:22:47Z</time></trkpt>
   <trkpt lat="30.916575" lon="34.717699"><ele>409.7</ele><name>TP03538</name><time>2016-12-28T20:22:48Z</time></trkpt>
   <trkpt lat="30.916522" lon="34.717657"><ele>408.8</ele><name>TP03539</name><time>2016-12-28T20:22:49Z</time></trkpt>
   <trkpt lat="30.916469" lon="34.717617"><ele>407.8</ele><name>TP03540</name><time>2016-12-28T20:22:50Z</time></trkpt>
   <trkpt lat="30.916416" lon="34.717579"><ele>406.7</ele><name>TP03541</name><time>2016-12-28T20:22:51Z</time></trkpt>
   <trkpt lat="30.916362" lon="34.717546"><ele>405.5</ele><name>TP03542</name><time>2016-12-28T20:22:52Z</time></trkpt>
   <trkpt lat="30.916292" lon="34.717525"><ele>404</ele><name>TP03543</name><time>2016-12-28T20:22:53Z</time></trkpt>
   <trkpt lat="30.916172" lon="34.717487"><ele>402.6</ele><name>TP03544</name><time>2016-12-28T20:22:55Z</time></trkpt>
   <trkpt lat="30.916114" lon="34.717486"><ele>402.3</ele><name>TP03545</name><time>2016-12-28T20:22:56Z</time></trkpt>
   <trkpt lat="30.916055" lon="34.717497"><ele>402.1</ele><name>TP03546</name><time>2016-12-28T20:22:57Z</time></trkpt>
   <trkpt lat="30.915998" lon="34.717512"><ele>401.8</ele><name>TP03547</name><time>2016-12-28T20:22:58Z</time></trkpt>
   <trkpt lat="30.915941" lon="34.717534"><ele>401.6</ele><name>TP03548</name><time>2016-12-28T20:22:59Z</time></trkpt>
   <trkpt lat="30.915885" lon="34.717559"><ele>401.5</ele><name>TP03549</name><time>2016-12-28T20:23:00Z</time></trkpt>
   <trkpt lat="30.915832" lon="34.717598"><ele>401.3</ele><name>TP03550</name><time>2016-12-28T20:23:01Z</time></trkpt>
   <trkpt lat="30.915789" lon="34.71765"><ele>401.3</ele><name>TP03551</name><time>2016-12-28T20:23:02Z</time></trkpt>
   <trkpt lat="30.915755" lon="34.717715"><ele>401.3</ele><name>TP03552</name><time>2016-12-28T20:23:03Z</time></trkpt>
   <trkpt lat="30.915724" lon="34.717774"><ele>401.4</ele><name>TP03553</name><time>2016-12-28T20:23:04Z</time></trkpt>
   <trkpt lat="30.915691" lon="34.717832"><ele>401.4</ele><name>TP03554</name><time>2016-12-28T20:23:05Z</time></trkpt>
   <trkpt lat="30.91566" lon="34.717891"><ele>401.4</ele><name>TP03555</name><time>2016-12-28T20:23:06Z</time></trkpt>
   <trkpt lat="30.915642" lon="34.717947"><ele>401.8</ele><name>TP03556</name><time>2016-12-28T20:23:07Z</time></trkpt>
   <trkpt lat="30.915625" lon="34.718"><ele>402.4</ele><name>TP03557</name><time>2016-12-28T20:23:08Z</time></trkpt>
   <trkpt lat="30.915612" lon="34.718051"><ele>403</ele><name>TP03558</name><time>2016-12-28T20:23:09Z</time></trkpt>
   <trkpt lat="30.915598" lon="34.718103"><ele>403.6</ele><name>TP03559</name><time>2016-12-28T20:23:10Z</time></trkpt>
   <trkpt lat="30.915583" lon="34.718151"><ele>404.1</ele><name>TP03560</name><time>2016-12-28T20:23:11Z</time></trkpt>
   <trkpt lat="30.915567" lon="34.718198"><ele>404.6</ele><name>TP03561</name><time>2016-12-28T20:23:12Z</time></trkpt>
   <trkpt lat="30.915546" lon="34.718247"><ele>405.1</ele><name>TP03562</name><time>2016-12-28T20:23:13Z</time></trkpt>
   <trkpt lat="30.915536" lon="34.718294"><ele>405.6</ele><name>TP03563</name><time>2016-12-28T20:23:14Z</time></trkpt>
   <trkpt lat="30.915517" lon="34.718344"><ele>406.1</ele><name>TP03564</name><time>2016-12-28T20:23:15Z</time></trkpt>
   <trkpt lat="30.915507" lon="34.718395"><ele>406.7</ele><name>TP03565</name><time>2016-12-28T20:23:16Z</time></trkpt>
   <trkpt lat="30.915493" lon="34.718449"><ele>407.2</ele><name>TP03566</name><time>2016-12-28T20:23:17Z</time></trkpt>
   <trkpt lat="30.915467" lon="34.718544"><ele>408.1</ele><name>TP03567</name><time>2016-12-28T20:23:19Z</time></trkpt>
   <trkpt lat="30.915448" lon="34.718647"><ele>409.1</ele><name>TP03568</name><time>2016-12-28T20:23:21Z</time></trkpt>
   <trkpt lat="30.915438" lon="34.718693"><ele>409.6</ele><name>TP03569</name><time>2016-12-28T20:23:22Z</time></trkpt>
   <trkpt lat="30.915428" lon="34.718744"><ele>410.1</ele><name>TP03570</name><time>2016-12-28T20:23:23Z</time></trkpt>
   <trkpt lat="30.915419" lon="34.718799"><ele>410.4</ele><name>TP03571</name><time>2016-12-28T20:23:24Z</time></trkpt>
   <trkpt lat="30.915414" lon="34.718851"><ele>410.7</ele><name>TP03572</name><time>2016-12-28T20:23:25Z</time></trkpt>
   <trkpt lat="30.915404" lon="34.718898"><ele>411.1</ele><name>TP03573</name><time>2016-12-28T20:23:26Z</time></trkpt>
   <trkpt lat="30.915396" lon="34.718948"><ele>411.4</ele><name>TP03574</name><time>2016-12-28T20:23:27Z</time></trkpt>
   <trkpt lat="30.915389" lon="34.718992"><ele>411.7</ele><name>TP03575</name><time>2016-12-28T20:23:28Z</time></trkpt>
   <trkpt lat="30.915389" lon="34.719037"><ele>412</ele><name>TP03576</name><time>2016-12-28T20:23:29Z</time></trkpt>
   <trkpt lat="30.915388" lon="34.719077"><ele>412.3</ele><name>TP03577</name><time>2016-12-28T20:23:30Z</time></trkpt>
   <trkpt lat="30.915386" lon="34.719118"><ele>412.6</ele><name>TP03578</name><time>2016-12-28T20:23:31Z</time></trkpt>
   <trkpt lat="30.915388" lon="34.71916"><ele>412.9</ele><name>TP03579</name><time>2016-12-28T20:23:32Z</time></trkpt>
   <trkpt lat="30.915387" lon="34.719201"><ele>413.2</ele><name>TP03580</name><time>2016-12-28T20:23:34Z</time></trkpt>
   <trkpt lat="30.915384" lon="34.719253"><ele>413.5</ele><name>TP03581</name><time>2016-12-28T20:23:36Z</time></trkpt>
   <trkpt lat="30.915374" lon="34.719298"><ele>413.8</ele><name>TP03582</name><time>2016-12-28T20:23:38Z</time></trkpt>
   <trkpt lat="30.915372" lon="34.719334"><ele>414</ele><name>TP03583</name><time>2016-12-28T20:23:39Z</time></trkpt>
   <trkpt lat="30.915372" lon="34.719385"><ele>414.4</ele><name>TP03584</name><time>2016-12-28T20:23:40Z</time></trkpt>
   <trkpt lat="30.915372" lon="34.719435"><ele>414.7</ele><name>TP03585</name><time>2016-12-28T20:23:41Z</time></trkpt>
   <trkpt lat="30.915373" lon="34.719483"><ele>415</ele><name>TP03586</name><time>2016-12-28T20:23:42Z</time></trkpt>
   <trkpt lat="30.915376" lon="34.719531"><ele>415.4</ele><name>TP03587</name><time>2016-12-28T20:23:43Z</time></trkpt>
   <trkpt lat="30.915386" lon="34.719605"><ele>415.9</ele><name>TP03588</name><time>2016-12-28T20:23:44Z</time></trkpt>
   <trkpt lat="30.915395" lon="34.71972"><ele>416.5</ele><name>TP03589</name><time>2016-12-28T20:23:46Z</time></trkpt>
   <trkpt lat="30.915398" lon="34.719755"><ele>416.7</ele><name>TP03590</name><time>2016-12-28T20:23:47Z</time></trkpt>
   <trkpt lat="30.915402" lon="34.719791"><ele>416.9</ele><name>TP03591</name><time>2016-12-28T20:23:48Z</time></trkpt>
   <trkpt lat="30.915403" lon="34.71983"><ele>417.1</ele><name>TP03592</name><time>2016-12-28T20:23:49Z</time></trkpt>
   <trkpt lat="30.915404" lon="34.719868"><ele>417.3</ele><name>TP03593</name><time>2016-12-28T20:23:50Z</time></trkpt>
   <trkpt lat="30.915406" lon="34.719906"><ele>417.5</ele><name>TP03594</name><time>2016-12-28T20:23:51Z</time></trkpt>
   <trkpt lat="30.915405" lon="34.719946"><ele>417.7</ele><name>TP03595</name><time>2016-12-28T20:23:52Z</time></trkpt>
   <trkpt lat="30.915396" lon="34.720002"><ele>417.8</ele><name>TP03596</name><time>2016-12-28T20:23:55Z</time></trkpt>
   <trkpt lat="30.915384" lon="34.720062"><ele>418</ele><name>TP03597</name><time>2016-12-28T20:23:57Z</time></trkpt>
   <trkpt lat="30.915376" lon="34.720095"><ele>418.1</ele><name>TP03598</name><time>2016-12-28T20:23:58Z</time></trkpt>
   <trkpt lat="30.915368" lon="34.720125"><ele>418.2</ele><name>TP03599</name><time>2016-12-28T20:23:59Z</time></trkpt>
   <trkpt lat="30.915337" lon="34.720182"><ele>418.2</ele><name>TP03600</name><time>2016-12-28T20:24:01Z</time></trkpt>
   <trkpt lat="30.915319" lon="34.720213"><ele>418.2</ele><name>TP03601</name><time>2016-12-28T20:24:02Z</time></trkpt>
   <trkpt lat="30.915302" lon="34.720252"><ele>418.3</ele><name>TP03602</name><time>2016-12-28T20:24:03Z</time></trkpt>
   <trkpt lat="30.91529" lon="34.720295"><ele>418.4</ele><name>TP03603</name><time>2016-12-28T20:24:04Z</time></trkpt>
   <trkpt lat="30.915276" lon="34.720341"><ele>418.5</ele><name>TP03604</name><time>2016-12-28T20:24:05Z</time></trkpt>
   <trkpt lat="30.91526" lon="34.720389"><ele>418.6</ele><name>TP03605</name><time>2016-12-28T20:24:06Z</time></trkpt>
   <trkpt lat="30.91525" lon="34.720438"><ele>418.6</ele><name>TP03606</name><time>2016-12-28T20:24:07Z</time></trkpt>
   <trkpt lat="30.915239" lon="34.720485"><ele>418.6</ele><name>TP03607</name><time>2016-12-28T20:24:08Z</time></trkpt>
   <trkpt lat="30.915221" lon="34.720526"><ele>418.5</ele><name>TP03608</name><time>2016-12-28T20:24:09Z</time></trkpt>
   <trkpt lat="30.915202" lon="34.720565"><ele>418.4</ele><name>TP03609</name><time>2016-12-28T20:24:10Z</time></trkpt>
   <trkpt lat="30.915184" lon="34.720607"><ele>418.3</ele><name>TP03610</name><time>2016-12-28T20:24:11Z</time></trkpt>
   <trkpt lat="30.915165" lon="34.720643"><ele>418.2</ele><name>TP03611</name><time>2016-12-28T20:24:12Z</time></trkpt>
   <trkpt lat="30.915144" lon="34.72068"><ele>418.1</ele><name>TP03612</name><time>2016-12-28T20:24:13Z</time></trkpt>
   <trkpt lat="30.91513" lon="34.720717"><ele>418.1</ele><name>TP03613</name><time>2016-12-28T20:24:14Z</time></trkpt>
   <trkpt lat="30.915119" lon="34.720755"><ele>418.1</ele><name>TP03614</name><time>2016-12-28T20:24:15Z</time></trkpt>
   <trkpt lat="30.915111" lon="34.720791"><ele>418</ele><name>TP03615</name><time>2016-12-28T20:24:16Z</time></trkpt>
   <trkpt lat="30.915107" lon="34.720827"><ele>418.1</ele><name>TP03616</name><time>2016-12-28T20:24:17Z</time></trkpt>
   <trkpt lat="30.915116" lon="34.720886"><ele>418.2</ele><name>TP03617</name><time>2016-12-28T20:24:19Z</time></trkpt>
   <trkpt lat="30.915112" lon="34.720947"><ele>418.3</ele><name>TP03618</name><time>2016-12-28T20:24:21Z</time></trkpt>
   <trkpt lat="30.915117" lon="34.720989"><ele>418.4</ele><name>TP03619</name><time>2016-12-28T20:24:23Z</time></trkpt>
   <trkpt lat="30.915127" lon="34.721039"><ele>418.6</ele><name>TP03620</name><time>2016-12-28T20:24:25Z</time></trkpt>
   <trkpt lat="30.91514" lon="34.721099"><ele>418.8</ele><name>TP03621</name><time>2016-12-28T20:24:27Z</time></trkpt>
   <trkpt lat="30.915158" lon="34.721146"><ele>419</ele><name>TP03622</name><time>2016-12-28T20:24:29Z</time></trkpt>
   <trkpt lat="30.915176" lon="34.721182"><ele>419.2</ele><name>TP03623</name><time>2016-12-28T20:24:30Z</time></trkpt>
   <trkpt lat="30.915197" lon="34.721211"><ele>419.4</ele><name>TP03624</name><time>2016-12-28T20:24:31Z</time></trkpt>
   <trkpt lat="30.915218" lon="34.721234"><ele>419.5</ele><name>TP03625</name><time>2016-12-28T20:24:32Z</time></trkpt>
   <trkpt lat="30.915259" lon="34.721278"><ele>419.8</ele><name>TP03626</name><time>2016-12-28T20:24:34Z</time></trkpt>
   <trkpt lat="30.915279" lon="34.721307"><ele>419.9</ele><name>TP03627</name><time>2016-12-28T20:24:35Z</time></trkpt>
   <trkpt lat="30.915296" lon="34.721333"><ele>420</ele><name>TP03628</name><time>2016-12-28T20:24:36Z</time></trkpt>
   <trkpt lat="30.915341" lon="34.72136"><ele>420.2</ele><name>TP03629</name><time>2016-12-28T20:24:38Z</time></trkpt>
   <trkpt lat="30.915391" lon="34.721363"><ele>420.6</ele><name>TP03630</name><time>2016-12-28T20:24:40Z</time></trkpt>
   <trkpt lat="30.915444" lon="34.721368"><ele>421.3</ele><name>TP03631</name><time>2016-12-28T20:24:42Z</time></trkpt>
   <trkpt lat="30.915488" lon="34.721376"><ele>422.2</ele><name>TP03632</name><time>2016-12-28T20:24:44Z</time></trkpt>
   <trkpt lat="30.915526" lon="34.72138"><ele>423</ele><name>TP03633</name><time>2016-12-28T20:24:46Z</time></trkpt>
   <trkpt lat="30.915562" lon="34.721405"><ele>423.7</ele><name>TP03634</name><time>2016-12-28T20:24:48Z</time></trkpt>
   <trkpt lat="30.915587" lon="34.721431"><ele>424.2</ele><name>TP03635</name><time>2016-12-28T20:24:50Z</time></trkpt>
   <trkpt lat="30.91561" lon="34.72145"><ele>424.6</ele><name>TP03636</name><time>2016-12-28T20:24:52Z</time></trkpt>
   <trkpt lat="30.91557" lon="34.721437"><ele>423.8</ele><name>TP03637</name><time>2016-12-28T20:24:54Z</time></trkpt>
   <trkpt lat="30.915609" lon="34.721457"><ele>424.5</ele><name>TP03638</name><time>2016-12-28T20:24:58Z</time></trkpt>
   <trkpt lat="30.915643" lon="34.721463"><ele>425.2</ele><name>TP03639</name><time>2016-12-28T20:25:00Z</time></trkpt>
   <trkpt lat="30.915674" lon="34.721439"><ele>426</ele><name>TP03640</name><time>2016-12-28T20:25:02Z</time></trkpt>
   <trkpt lat="30.915692" lon="34.721399"><ele>426.5</ele><name>TP03641</name><time>2016-12-28T20:25:04Z</time></trkpt>
   <trkpt lat="30.915721" lon="34.72137"><ele>427.2</ele><name>TP03642</name><time>2016-12-28T20:25:06Z</time></trkpt>
   <trkpt lat="30.915752" lon="34.721352"><ele>427.9</ele><name>TP03643</name><time>2016-12-28T20:25:08Z</time></trkpt>
   <trkpt lat="30.915786" lon="34.721352"><ele>428.6</ele><name>TP03644</name><time>2016-12-28T20:25:10Z</time></trkpt>
   <trkpt lat="30.915819" lon="34.721363"><ele>429.3</ele><name>TP03645</name><time>2016-12-28T20:25:12Z</time></trkpt>
   <trkpt lat="30.915847" lon="34.721387"><ele>429.8</ele><name>TP03646</name><time>2016-12-28T20:25:14Z</time></trkpt>
   <trkpt lat="30.915874" lon="34.721415"><ele>430.3</ele><name>TP03647</name><time>2016-12-28T20:25:16Z</time></trkpt>
   <trkpt lat="30.915901" lon="34.721443"><ele>430.7</ele><name>TP03648</name><time>2016-12-28T20:25:18Z</time></trkpt>
   <trkpt lat="30.915927" lon="34.721471"><ele>431.2</ele><name>TP03649</name><time>2016-12-28T20:25:20Z</time></trkpt>
   <trkpt lat="30.915941" lon="34.721515"><ele>431.3</ele><name>TP03650</name><time>2016-12-28T20:25:22Z</time></trkpt>
   <trkpt lat="30.915917" lon="34.721552"><ele>430.6</ele><name>TP03651</name><time>2016-12-28T20:25:24Z</time></trkpt>
   <trkpt lat="30.915871" lon="34.72157"><ele>429.6</ele><name>TP03652</name><time>2016-12-28T20:25:26Z</time></trkpt>
   <trkpt lat="30.915833" lon="34.721601"><ele>428.7</ele><name>TP03653</name><time>2016-12-28T20:25:28Z</time></trkpt>
   <trkpt lat="30.915815" lon="34.721642"><ele>428.2</ele><name>TP03654</name><time>2016-12-28T20:25:30Z</time></trkpt>
   <trkpt lat="30.915812" lon="34.72169"><ele>428</ele><name>TP03655</name><time>2016-12-28T20:25:32Z</time></trkpt>
   <trkpt lat="30.915815" lon="34.721735"><ele>427.9</ele><name>TP03656</name><time>2016-12-28T20:25:34Z</time></trkpt>
   <trkpt lat="30.915833" lon="34.721767"><ele>428.1</ele><name>TP03657</name><time>2016-12-28T20:25:36Z</time></trkpt>
   <trkpt lat="30.915866" lon="34.721783"><ele>428.7</ele><name>TP03658</name><time>2016-12-28T20:25:38Z</time></trkpt>
   <trkpt lat="30.91589" lon="34.721809"><ele>429.1</ele><name>TP03659</name><time>2016-12-28T20:25:40Z</time></trkpt>
   <trkpt lat="30.915889" lon="34.721846"><ele>429</ele><name>TP03660</name><time>2016-12-28T20:25:44Z</time></trkpt>
   <trkpt lat="30.915859" lon="34.721862"><ele>428.3</ele><name>TP03661</name><time>2016-12-28T20:25:46Z</time></trkpt>
   <trkpt lat="30.915842" lon="34.721898"><ele>427.8</ele><name>TP03662</name><time>2016-12-28T20:25:49Z</time></trkpt>
   <trkpt lat="30.915844" lon="34.721935"><ele>427.7</ele><name>TP03663</name><time>2016-12-28T20:25:52Z</time></trkpt>
   <trkpt lat="30.915832" lon="34.721907"><ele>427.6</ele><name>TP03664</name><time>2016-12-28T20:25:54Z</time></trkpt>
   <trkpt lat="30.915832" lon="34.721944"><ele>427.5</ele><name>TP03665</name><time>2016-12-28T20:26:03Z</time></trkpt>
   <trkpt lat="30.91582" lon="34.721985"><ele>427.1</ele><name>TP03666</name><time>2016-12-28T20:26:06Z</time></trkpt>
   <trkpt lat="30.91583" lon="34.72202"><ele>427.2</ele><name>TP03667</name><time>2016-12-28T20:26:09Z</time></trkpt>
   <trkpt lat="30.915858" lon="34.722044"><ele>427.6</ele><name>TP03668</name><time>2016-12-28T20:26:12Z</time></trkpt>
   <trkpt lat="30.915847" lon="34.722081"><ele>427.3</ele><name>TP03669</name><time>2016-12-28T20:26:16Z</time></trkpt>
   <trkpt lat="30.915822" lon="34.722095"><ele>426.8</ele><name>TP03670</name><time>2016-12-28T20:26:18Z</time></trkpt>
   <trkpt lat="30.915819" lon="34.722127"><ele>427</ele><name>TP03671</name><time>2016-12-28T20:26:22Z</time></trkpt>
   <trkpt lat="30.915832" lon="34.72216"><ele>427.4</ele><name>TP03672</name><time>2016-12-28T20:26:25Z</time></trkpt>
   <trkpt lat="30.915839" lon="34.722199"><ele>427.7</ele><name>TP03673</name><time>2016-12-28T20:26:28Z</time></trkpt>
   <trkpt lat="30.91583" lon="34.722235"><ele>427.8</ele><name>TP03674</name><time>2016-12-28T20:26:33Z</time></trkpt>
   <trkpt lat="30.915849" lon="34.722261"><ele>428.2</ele><name>TP03675</name><time>2016-12-28T20:26:36Z</time></trkpt>
   <trkpt lat="30.915874" lon="34.722279"><ele>428.7</ele><name>TP03676</name><time>2016-12-28T20:26:38Z</time></trkpt>
   <trkpt lat="30.915897" lon="34.722312"><ele>429.1</ele><name>TP03677</name><time>2016-12-28T20:26:41Z</time></trkpt>
   <trkpt lat="30.9159" lon="34.722354"><ele>429.4</ele><name>TP03678</name><time>2016-12-28T20:26:44Z</time></trkpt>
   <trkpt lat="30.915883" lon="34.722388"><ele>429.3</ele><name>TP03679</name><time>2016-12-28T20:26:47Z</time></trkpt>
   <trkpt lat="30.915897" lon="34.722422"><ele>429.6</ele><name>TP03680</name><time>2016-12-28T20:26:58Z</time></trkpt>
   <trkpt lat="30.915913" lon="34.722448"><ele>429.9</ele><name>TP03681</name><time>2016-12-28T20:27:00Z</time></trkpt>
   <trkpt lat="30.91593" lon="34.722477"><ele>430.2</ele><name>TP03682</name><time>2016-12-28T20:27:02Z</time></trkpt>
   <trkpt lat="30.915949" lon="34.722514"><ele>430.5</ele><name>TP03683</name><time>2016-12-28T20:27:04Z</time></trkpt>
   <trkpt lat="30.91597" lon="34.72255"><ele>430.8</ele><name>TP03684</name><time>2016-12-28T20:27:06Z</time></trkpt>
   <trkpt lat="30.915991" lon="34.722586"><ele>431</ele><name>TP03685</name><time>2016-12-28T20:27:08Z</time></trkpt>
   <trkpt lat="30.916022" lon="34.722622"><ele>431.3</ele><name>TP03686</name><time>2016-12-28T20:27:10Z</time></trkpt>
   <trkpt lat="30.916056" lon="34.722667"><ele>431.6</ele><name>TP03687</name><time>2016-12-28T20:27:12Z</time></trkpt>
   <trkpt lat="30.916097" lon="34.722702"><ele>431.9</ele><name>TP03688</name><time>2016-12-28T20:27:14Z</time></trkpt>
   <trkpt lat="30.916143" lon="34.722726"><ele>432.1</ele><name>TP03689</name><time>2016-12-28T20:27:16Z</time></trkpt>
   <trkpt lat="30.916196" lon="34.722747"><ele>432.3</ele><name>TP03690</name><time>2016-12-28T20:27:18Z</time></trkpt>
   <trkpt lat="30.916226" lon="34.72276"><ele>432.5</ele><name>TP03691</name><time>2016-12-28T20:27:19Z</time></trkpt>
   <trkpt lat="30.916253" lon="34.722776"><ele>432.6</ele><name>TP03692</name><time>2016-12-28T20:27:20Z</time></trkpt>
   <trkpt lat="30.916275" lon="34.722795"><ele>433</ele><name>TP03693</name><time>2016-12-28T20:27:21Z</time></trkpt>
   <trkpt lat="30.916303" lon="34.722844"><ele>433.4</ele><name>TP03694</name><time>2016-12-28T20:27:23Z</time></trkpt>
   <trkpt lat="30.916309" lon="34.722874"><ele>433.4</ele><name>TP03695</name><time>2016-12-28T20:27:24Z</time></trkpt>
   <trkpt lat="30.916312" lon="34.722907"><ele>433.4</ele><name>TP03696</name><time>2016-12-28T20:27:25Z</time></trkpt>
   <trkpt lat="30.916311" lon="34.722941"><ele>433.3</ele><name>TP03697</name><time>2016-12-28T20:27:26Z</time></trkpt>
   <trkpt lat="30.916307" lon="34.722973"><ele>433.3</ele><name>TP03698</name><time>2016-12-28T20:27:27Z</time></trkpt>
   <trkpt lat="30.916294" lon="34.723027"><ele>433</ele><name>TP03699</name><time>2016-12-28T20:27:29Z</time></trkpt>
   <trkpt lat="30.916289" lon="34.72307"><ele>433</ele><name>TP03700</name><time>2016-12-28T20:27:31Z</time></trkpt>
   <trkpt lat="30.916289" lon="34.723116"><ele>433</ele><name>TP03701</name><time>2016-12-28T20:27:33Z</time></trkpt>
   <trkpt lat="30.91629" lon="34.723161"><ele>433.1</ele><name>TP03702</name><time>2016-12-28T20:27:35Z</time></trkpt>
   <trkpt lat="30.916293" lon="34.723216"><ele>433.2</ele><name>TP03703</name><time>2016-12-28T20:27:37Z</time></trkpt>
   <trkpt lat="30.916289" lon="34.723249"><ele>433.1</ele><name>TP03704</name><time>2016-12-28T20:27:39Z</time></trkpt>
   <trkpt lat="30.9163" lon="34.723298"><ele>433.3</ele><name>TP03705</name><time>2016-12-28T20:27:42Z</time></trkpt>
   <trkpt lat="30.916308" lon="34.723336"><ele>433.5</ele><name>TP03706</name><time>2016-12-28T20:27:43Z</time></trkpt>
   <trkpt lat="30.91632" lon="34.723392"><ele>433.7</ele><name>TP03707</name><time>2016-12-28T20:27:45Z</time></trkpt>
   <trkpt lat="30.916332" lon="34.723435"><ele>434</ele><name>TP03708</name><time>2016-12-28T20:27:46Z</time></trkpt>
   <trkpt lat="30.916342" lon="34.723471"><ele>434.1</ele><name>TP03709</name><time>2016-12-28T20:27:47Z</time></trkpt>
   <trkpt lat="30.916351" lon="34.723513"><ele>434.3</ele><name>TP03710</name><time>2016-12-28T20:27:48Z</time></trkpt>
   <trkpt lat="30.916362" lon="34.723551"><ele>434.5</ele><name>TP03711</name><time>2016-12-28T20:27:49Z</time></trkpt>
   <trkpt lat="30.916374" lon="34.723585"><ele>434.6</ele><name>TP03712</name><time>2016-12-28T20:27:50Z</time></trkpt>
   <trkpt lat="30.916393" lon="34.723628"><ele>434.9</ele><name>TP03713</name><time>2016-12-28T20:27:52Z</time></trkpt>
   <trkpt lat="30.91639" lon="34.72366"><ele>434.9</ele><name>TP03714</name><time>2016-12-28T20:28:00Z</time></trkpt>
   <trkpt lat="30.916418" lon="34.723703"><ele>435.2</ele><name>TP03715</name><time>2016-12-28T20:28:22Z</time></trkpt>
   <trkpt lat="30.916436" lon="34.723742"><ele>435.5</ele><name>TP03716</name><time>2016-12-28T20:28:24Z</time></trkpt>
   <trkpt lat="30.916452" lon="34.723799"><ele>435.8</ele><name>TP03717</name><time>2016-12-28T20:28:26Z</time></trkpt>
   <trkpt lat="30.916471" lon="34.723854"><ele>436.2</ele><name>TP03718</name><time>2016-12-28T20:28:28Z</time></trkpt>
   <trkpt lat="30.916488" lon="34.723911"><ele>436.6</ele><name>TP03719</name><time>2016-12-28T20:28:30Z</time></trkpt>
   <trkpt lat="30.916506" lon="34.723959"><ele>436.9</ele><name>TP03720</name><time>2016-12-28T20:28:32Z</time></trkpt>
   <trkpt lat="30.916533" lon="34.724003"><ele>437.2</ele><name>TP03721</name><time>2016-12-28T20:28:34Z</time></trkpt>
   <trkpt lat="30.916575" lon="34.724043"><ele>437.7</ele><name>TP03722</name><time>2016-12-28T20:28:36Z</time></trkpt>
   <trkpt lat="30.916599" lon="34.724059"><ele>437.9</ele><name>TP03723</name><time>2016-12-28T20:28:37Z</time></trkpt>
   <trkpt lat="30.916623" lon="34.724076"><ele>438.1</ele><name>TP03724</name><time>2016-12-28T20:28:38Z</time></trkpt>
   <trkpt lat="30.916653" lon="34.724115"><ele>438.4</ele><name>TP03725</name><time>2016-12-28T20:28:40Z</time></trkpt>
   <trkpt lat="30.916672" lon="34.724152"><ele>438.5</ele><name>TP03726</name><time>2016-12-28T20:28:41Z</time></trkpt>
   <trkpt lat="30.916687" lon="34.724188"><ele>438.6</ele><name>TP03727</name><time>2016-12-28T20:28:42Z</time></trkpt>
   <trkpt lat="30.916699" lon="34.724223"><ele>438.7</ele><name>TP03728</name><time>2016-12-28T20:28:43Z</time></trkpt>
   <trkpt lat="30.916709" lon="34.724259"><ele>438.7</ele><name>TP03729</name><time>2016-12-28T20:28:44Z</time></trkpt>
   <trkpt lat="30.916718" lon="34.724296"><ele>438.8</ele><name>TP03730</name><time>2016-12-28T20:28:45Z</time></trkpt>
   <trkpt lat="30.916727" lon="34.724333"><ele>438.8</ele><name>TP03731</name><time>2016-12-28T20:28:46Z</time></trkpt>
   <trkpt lat="30.916735" lon="34.724369"><ele>438.8</ele><name>TP03732</name><time>2016-12-28T20:28:47Z</time></trkpt>
   <trkpt lat="30.916741" lon="34.724404"><ele>438.8</ele><name>TP03733</name><time>2016-12-28T20:28:48Z</time></trkpt>
   <trkpt lat="30.916746" lon="34.72444"><ele>438.8</ele><name>TP03734</name><time>2016-12-28T20:28:49Z</time></trkpt>
   <trkpt lat="30.91675" lon="34.724526"><ele>438.7</ele><name>TP03735</name><time>2016-12-28T20:28:51Z</time></trkpt>
   <trkpt lat="30.916738" lon="34.724568"><ele>438.6</ele><name>TP03736</name><time>2016-12-28T20:28:52Z</time></trkpt>
   <trkpt lat="30.916722" lon="34.724606"><ele>438.6</ele><name>TP03737</name><time>2016-12-28T20:28:53Z</time></trkpt>
   <trkpt lat="30.916706" lon="34.724645"><ele>438.7</ele><name>TP03738</name><time>2016-12-28T20:28:54Z</time></trkpt>
   <trkpt lat="30.916707" lon="34.724705"><ele>438.8</ele><name>TP03739</name><time>2016-12-28T20:28:55Z</time></trkpt>
   <trkpt lat="30.916717" lon="34.724776"><ele>438.9</ele><name>TP03740</name><time>2016-12-28T20:28:56Z</time></trkpt>
   <trkpt lat="30.916741" lon="34.724849"><ele>439.1</ele><name>TP03741</name><time>2016-12-28T20:28:57Z</time></trkpt>
   <trkpt lat="30.916778" lon="34.724908"><ele>439.1</ele><name>TP03742</name><time>2016-12-28T20:28:58Z</time></trkpt>
   <trkpt lat="30.916812" lon="34.724952"><ele>439.1</ele><name>TP03743</name><time>2016-12-28T20:28:59Z</time></trkpt>
   <trkpt lat="30.916835" lon="34.724987"><ele>439.1</ele><name>TP03744</name><time>2016-12-28T20:29:00Z</time></trkpt>
   <trkpt lat="30.916836" lon="34.725026"><ele>439.1</ele><name>TP03745</name><time>2016-12-28T20:29:01Z</time></trkpt>
   <trkpt lat="30.916831" lon="34.725059"><ele>439.2</ele><name>TP03746</name><time>2016-12-28T20:29:02Z</time></trkpt>
   <trkpt lat="30.916807" lon="34.725106"><ele>439.3</ele><name>TP03747</name><time>2016-12-28T20:29:04Z</time></trkpt>
   <trkpt lat="30.916773" lon="34.725134"><ele>439.4</ele><name>TP03748</name><time>2016-12-28T20:29:06Z</time></trkpt>
   <trkpt lat="30.916748" lon="34.725159"><ele>439.6</ele><name>TP03749</name><time>2016-12-28T20:29:08Z</time></trkpt>
   <trkpt lat="30.916718" lon="34.725191"><ele>439.8</ele><name>TP03750</name><time>2016-12-28T20:29:11Z</time></trkpt>
   <trkpt lat="30.916685" lon="34.72524"><ele>440</ele><name>TP03751</name><time>2016-12-28T20:29:13Z</time></trkpt>
   <trkpt lat="30.916651" lon="34.725289"><ele>440.3</ele><name>TP03752</name><time>2016-12-28T20:29:15Z</time></trkpt>
   <trkpt lat="30.91662" lon="34.72534"><ele>440.6</ele><name>TP03753</name><time>2016-12-28T20:29:17Z</time></trkpt>
   <trkpt lat="30.916605" lon="34.725369"><ele>440.7</ele><name>TP03754</name><time>2016-12-28T20:29:18Z</time></trkpt>
   <trkpt lat="30.916587" lon="34.725397"><ele>440.9</ele><name>TP03755</name><time>2016-12-28T20:29:19Z</time></trkpt>
   <trkpt lat="30.916556" lon="34.725437"><ele>441.3</ele><name>TP03756</name><time>2016-12-28T20:29:21Z</time></trkpt>
   <trkpt lat="30.916525" lon="34.725477"><ele>441.7</ele><name>TP03757</name><time>2016-12-28T20:29:23Z</time></trkpt>
   <trkpt lat="30.916507" lon="34.725502"><ele>441.9</ele><name>TP03758</name><time>2016-12-28T20:29:24Z</time></trkpt>
   <trkpt lat="30.916471" lon="34.725545"><ele>442.3</ele><name>TP03759</name><time>2016-12-28T20:29:26Z</time></trkpt>
   <trkpt lat="30.916443" lon="34.725586"><ele>442.6</ele><name>TP03760</name><time>2016-12-28T20:29:28Z</time></trkpt>
   <trkpt lat="30.916414" lon="34.725634"><ele>443</ele><name>TP03761</name><time>2016-12-28T20:29:30Z</time></trkpt>
   <trkpt lat="30.916382" lon="34.725676"><ele>443.3</ele><name>TP03762</name><time>2016-12-28T20:29:32Z</time></trkpt>
   <trkpt lat="30.916359" lon="34.725704"><ele>443.6</ele><name>TP03763</name><time>2016-12-28T20:29:33Z</time></trkpt>
   <trkpt lat="30.916335" lon="34.725733"><ele>443.8</ele><name>TP03764</name><time>2016-12-28T20:29:34Z</time></trkpt>
   <trkpt lat="30.916312" lon="34.725764"><ele>444</ele><name>TP03765</name><time>2016-12-28T20:29:35Z</time></trkpt>
   <trkpt lat="30.916289" lon="34.725793"><ele>444.2</ele><name>TP03766</name><time>2016-12-28T20:29:36Z</time></trkpt>
   <trkpt lat="30.916266" lon="34.72582"><ele>444.4</ele><name>TP03767</name><time>2016-12-28T20:29:37Z</time></trkpt>
   <trkpt lat="30.916241" lon="34.725846"><ele>444.7</ele><name>TP03768</name><time>2016-12-28T20:29:38Z</time></trkpt>
   <trkpt lat="30.916215" lon="34.725865"><ele>445.2</ele><name>TP03769</name><time>2016-12-28T20:29:39Z</time></trkpt>
   <trkpt lat="30.916189" lon="34.725879"><ele>445.7</ele><name>TP03770</name><time>2016-12-28T20:29:40Z</time></trkpt>
   <trkpt lat="30.916163" lon="34.725893"><ele>446.2</ele><name>TP03771</name><time>2016-12-28T20:29:41Z</time></trkpt>
   <trkpt lat="30.916142" lon="34.725916"><ele>446.6</ele><name>TP03772</name><time>2016-12-28T20:29:42Z</time></trkpt>
   <trkpt lat="30.916121" lon="34.725944"><ele>447.1</ele><name>TP03773</name><time>2016-12-28T20:29:43Z</time></trkpt>
   <trkpt lat="30.916098" lon="34.725967"><ele>447.5</ele><name>TP03774</name><time>2016-12-28T20:29:44Z</time></trkpt>
   <trkpt lat="30.916074" lon="34.725983"><ele>448</ele><name>TP03775</name><time>2016-12-28T20:29:45Z</time></trkpt>
   <trkpt lat="30.916041" lon="34.726025"><ele>448.7</ele><name>TP03776</name><time>2016-12-28T20:29:47Z</time></trkpt>
   <trkpt lat="30.91603" lon="34.726055"><ele>448.9</ele><name>TP03777</name><time>2016-12-28T20:29:48Z</time></trkpt>
   <trkpt lat="30.916023" lon="34.726088"><ele>449.1</ele><name>TP03778</name><time>2016-12-28T20:29:49Z</time></trkpt>
   <trkpt lat="30.916015" lon="34.72612"><ele>449.3</ele><name>TP03779</name><time>2016-12-28T20:29:50Z</time></trkpt>
   <trkpt lat="30.916005" lon="34.726153"><ele>449.6</ele><name>TP03780</name><time>2016-12-28T20:29:51Z</time></trkpt>
   <trkpt lat="30.915985" lon="34.726184"><ele>450</ele><name>TP03781</name><time>2016-12-28T20:29:53Z</time></trkpt>
   <trkpt lat="30.915951" lon="34.726226"><ele>450.6</ele><name>TP03782</name><time>2016-12-28T20:29:55Z</time></trkpt>
   <trkpt lat="30.915929" lon="34.726249"><ele>451</ele><name>TP03783</name><time>2016-12-28T20:29:56Z</time></trkpt>
   <trkpt lat="30.915904" lon="34.726268"><ele>451.4</ele><name>TP03784</name><time>2016-12-28T20:29:57Z</time></trkpt>
   <trkpt lat="30.915859" lon="34.726284"><ele>452.1</ele><name>TP03785</name><time>2016-12-28T20:29:59Z</time></trkpt>
   <trkpt lat="30.915826" lon="34.726288"><ele>452.6</ele><name>TP03786</name><time>2016-12-28T20:30:00Z</time></trkpt>
   <trkpt lat="30.915795" lon="34.726296"><ele>453.1</ele><name>TP03787</name><time>2016-12-28T20:30:01Z</time></trkpt>
   <trkpt lat="30.915777" lon="34.726321"><ele>453.3</ele><name>TP03788</name><time>2016-12-28T20:30:02Z</time></trkpt>
   <trkpt lat="30.915771" lon="34.726354"><ele>453.4</ele><name>TP03789</name><time>2016-12-28T20:30:03Z</time></trkpt>
   <trkpt lat="30.91577" lon="34.726385"><ele>453.4</ele><name>TP03790</name><time>2016-12-28T20:30:04Z</time></trkpt>
   <trkpt lat="30.915744" lon="34.726435"><ele>453.7</ele><name>TP03791</name><time>2016-12-28T20:30:06Z</time></trkpt>
   <trkpt lat="30.915719" lon="34.72645"><ele>454</ele><name>TP03792</name><time>2016-12-28T20:30:07Z</time></trkpt>
   <trkpt lat="30.915711" lon="34.726501"><ele>454</ele><name>TP03793</name><time>2016-12-28T20:30:09Z</time></trkpt>
   <trkpt lat="30.915735" lon="34.726516"><ele>453.7</ele><name>TP03794</name><time>2016-12-28T20:30:10Z</time></trkpt>
   <trkpt lat="30.915764" lon="34.726526"><ele>453.4</ele><name>TP03795</name><time>2016-12-28T20:30:11Z</time></trkpt>
   <trkpt lat="30.91579" lon="34.726539"><ele>453.1</ele><name>TP03796</name><time>2016-12-28T20:30:12Z</time></trkpt>
   <trkpt lat="30.915817" lon="34.726569"><ele>452.8</ele><name>TP03797</name><time>2016-12-28T20:30:13Z</time></trkpt>
   <trkpt lat="30.915834" lon="34.726598"><ele>452.7</ele><name>TP03798</name><time>2016-12-28T20:30:14Z</time></trkpt>
   <trkpt lat="30.915848" lon="34.726646"><ele>452.6</ele><name>TP03799</name><time>2016-12-28T20:30:16Z</time></trkpt>
   <trkpt lat="30.915852" lon="34.726706"><ele>452.6</ele><name>TP03800</name><time>2016-12-28T20:30:18Z</time></trkpt>
   <trkpt lat="30.91585" lon="34.726741"><ele>452.7</ele><name>TP03801</name><time>2016-12-28T20:30:19Z</time></trkpt>
   <trkpt lat="30.915842" lon="34.726774"><ele>452.8</ele><name>TP03802</name><time>2016-12-28T20:30:20Z</time></trkpt>
   <trkpt lat="30.915833" lon="34.726806"><ele>452.8</ele><name>TP03803</name><time>2016-12-28T20:30:21Z</time></trkpt>
   <trkpt lat="30.915823" lon="34.726843"><ele>452.9</ele><name>TP03804</name><time>2016-12-28T20:30:23Z</time></trkpt>
   <trkpt lat="30.915804" lon="34.726907"><ele>453</ele><name>TP03805</name><time>2016-12-28T20:30:25Z</time></trkpt>
   <trkpt lat="30.915791" lon="34.726943"><ele>453</ele><name>TP03806</name><time>2016-12-28T20:30:26Z</time></trkpt>
   <trkpt lat="30.915775" lon="34.726976"><ele>453.1</ele><name>TP03807</name><time>2016-12-28T20:30:27Z</time></trkpt>
   <trkpt lat="30.915756" lon="34.727007"><ele>453.1</ele><name>TP03808</name><time>2016-12-28T20:30:28Z</time></trkpt>
   <trkpt lat="30.915734" lon="34.727033"><ele>453.1</ele><name>TP03809</name><time>2016-12-28T20:30:29Z</time></trkpt>
   <trkpt lat="30.915692" lon="34.72707"><ele>453</ele><name>TP03810</name><time>2016-12-28T20:30:31Z</time></trkpt>
   <trkpt lat="30.91565" lon="34.727104"><ele>453.1</ele><name>TP03811</name><time>2016-12-28T20:30:33Z</time></trkpt>
   <trkpt lat="30.915613" lon="34.727146"><ele>453.3</ele><name>TP03812</name><time>2016-12-28T20:30:35Z</time></trkpt>
   <trkpt lat="30.915595" lon="34.727172"><ele>453.4</ele><name>TP03813</name><time>2016-12-28T20:30:36Z</time></trkpt>
   <trkpt lat="30.915584" lon="34.727205"><ele>453.6</ele><name>TP03814</name><time>2016-12-28T20:30:37Z</time></trkpt>
   <trkpt lat="30.915592" lon="34.727236"><ele>453.7</ele><name>TP03815</name><time>2016-12-28T20:30:38Z</time></trkpt>
   <trkpt lat="30.915609" lon="34.727267"><ele>453.9</ele><name>TP03816</name><time>2016-12-28T20:30:39Z</time></trkpt>
   <trkpt lat="30.915628" lon="34.727296"><ele>454</ele><name>TP03817</name><time>2016-12-28T20:30:40Z</time></trkpt>
   <trkpt lat="30.91565" lon="34.727314"><ele>454.1</ele><name>TP03818</name><time>2016-12-28T20:30:41Z</time></trkpt>
   <trkpt lat="30.9157" lon="34.727337"><ele>454.3</ele><name>TP03819</name><time>2016-12-28T20:30:43Z</time></trkpt>
   <trkpt lat="30.915722" lon="34.727355"><ele>454.5</ele><name>TP03820</name><time>2016-12-28T20:30:44Z</time></trkpt>
   <trkpt lat="30.915753" lon="34.727394"><ele>454.7</ele><name>TP03821</name><time>2016-12-28T20:30:46Z</time></trkpt>
   <trkpt lat="30.915768" lon="34.72742"><ele>454.9</ele><name>TP03822</name><time>2016-12-28T20:30:48Z</time></trkpt>
   <trkpt lat="30.915789" lon="34.727463"><ele>455.2</ele><name>TP03823</name><time>2016-12-28T20:30:50Z</time></trkpt>
   <trkpt lat="30.915798" lon="34.727503"><ele>455.4</ele><name>TP03824</name><time>2016-12-28T20:30:52Z</time></trkpt>
   <trkpt lat="30.915802" lon="34.72756"><ele>455.8</ele><name>TP03825</name><time>2016-12-28T20:30:54Z</time></trkpt>
   <trkpt lat="30.915795" lon="34.72762"><ele>456.1</ele><name>TP03826</name><time>2016-12-28T20:30:56Z</time></trkpt>
   <trkpt lat="30.915781" lon="34.727678"><ele>456.4</ele><name>TP03827</name><time>2016-12-28T20:30:58Z</time></trkpt>
   <trkpt lat="30.915772" lon="34.727708"><ele>456.5</ele><name>TP03828</name><time>2016-12-28T20:30:59Z</time></trkpt>
   <trkpt lat="30.915747" lon="34.727763"><ele>456.7</ele><name>TP03829</name><time>2016-12-28T20:31:01Z</time></trkpt>
   <trkpt lat="30.915709" lon="34.727809"><ele>456.8</ele><name>TP03830</name><time>2016-12-28T20:31:03Z</time></trkpt>
   <trkpt lat="30.915687" lon="34.727831"><ele>456.9</ele><name>TP03831</name><time>2016-12-28T20:31:04Z</time></trkpt>
   <trkpt lat="30.91566" lon="34.727853"><ele>456.8</ele><name>TP03832</name><time>2016-12-28T20:31:05Z</time></trkpt>
   <trkpt lat="30.915634" lon="34.727875"><ele>456.8</ele><name>TP03833</name><time>2016-12-28T20:31:06Z</time></trkpt>
   <trkpt lat="30.915609" lon="34.727897"><ele>456.8</ele><name>TP03834</name><time>2016-12-28T20:31:07Z</time></trkpt>
   <trkpt lat="30.915578" lon="34.727917"><ele>456.8</ele><name>TP03835</name><time>2016-12-28T20:31:08Z</time></trkpt>
   <trkpt lat="30.915543" lon="34.727937"><ele>456.6</ele><name>TP03836</name><time>2016-12-28T20:31:09Z</time></trkpt>
   <trkpt lat="30.915505" lon="34.727961"><ele>456.5</ele><name>TP03837</name><time>2016-12-28T20:31:10Z</time></trkpt>
   <trkpt lat="30.915469" lon="34.727985"><ele>456.3</ele><name>TP03838</name><time>2016-12-28T20:31:11Z</time></trkpt>
   <trkpt lat="30.915433" lon="34.728002"><ele>456.2</ele><name>TP03839</name><time>2016-12-28T20:31:12Z</time></trkpt>
   <trkpt lat="30.915396" lon="34.728014"><ele>456.6</ele><name>TP03840</name><time>2016-12-28T20:31:13Z</time></trkpt>
   <trkpt lat="30.915357" lon="34.728022"><ele>457.4</ele><name>TP03841</name><time>2016-12-28T20:31:14Z</time></trkpt>
   <trkpt lat="30.915318" lon="34.728023"><ele>458.2</ele><name>TP03842</name><time>2016-12-28T20:31:15Z</time></trkpt>
   <trkpt lat="30.91528" lon="34.728026"><ele>459</ele><name>TP03843</name><time>2016-12-28T20:31:16Z</time></trkpt>
   <trkpt lat="30.91525" lon="34.728053"><ele>459.6</ele><name>TP03844</name><time>2016-12-28T20:31:17Z</time></trkpt>
   <trkpt lat="30.915243" lon="34.72809"><ele>459.7</ele><name>TP03845</name><time>2016-12-28T20:31:18Z</time></trkpt>
   <trkpt lat="30.915254" lon="34.728126"><ele>459.5</ele><name>TP03846</name><time>2016-12-28T20:31:19Z</time></trkpt>
   <trkpt lat="30.91527" lon="34.728154"><ele>459.1</ele><name>TP03847</name><time>2016-12-28T20:31:20Z</time></trkpt>
   <trkpt lat="30.915289" lon="34.728179"><ele>458.7</ele><name>TP03848</name><time>2016-12-28T20:31:21Z</time></trkpt>
   <trkpt lat="30.915307" lon="34.728204"><ele>458.4</ele><name>TP03849</name><time>2016-12-28T20:31:22Z</time></trkpt>
   <trkpt lat="30.915327" lon="34.728227"><ele>458</ele><name>TP03850</name><time>2016-12-28T20:31:23Z</time></trkpt>
   <trkpt lat="30.915358" lon="34.72827"><ele>457.5</ele><name>TP03851</name><time>2016-12-28T20:31:25Z</time></trkpt>
   <trkpt lat="30.915377" lon="34.728301"><ele>457.1</ele><name>TP03852</name><time>2016-12-28T20:31:26Z</time></trkpt>
   <trkpt lat="30.915395" lon="34.72834"><ele>456.9</ele><name>TP03853</name><time>2016-12-28T20:31:27Z</time></trkpt>
   <trkpt lat="30.915408" lon="34.728375"><ele>456.7</ele><name>TP03854</name><time>2016-12-28T20:31:28Z</time></trkpt>
   <trkpt lat="30.915424" lon="34.728418"><ele>456.6</ele><name>TP03855</name><time>2016-12-28T20:31:29Z</time></trkpt>
   <trkpt lat="30.915435" lon="34.728448"><ele>456.7</ele><name>TP03856</name><time>2016-12-28T20:31:30Z</time></trkpt>
   <trkpt lat="30.915426" lon="34.728522"><ele>456.8</ele><name>TP03857</name><time>2016-12-28T20:31:32Z</time></trkpt>
   <trkpt lat="30.915434" lon="34.728567"><ele>456.9</ele><name>TP03858</name><time>2016-12-28T20:31:33Z</time></trkpt>
   <trkpt lat="30.915428" lon="34.728604"><ele>456.9</ele><name>TP03859</name><time>2016-12-28T20:31:34Z</time></trkpt>
   <trkpt lat="30.915408" lon="34.728657"><ele>457</ele><name>TP03860</name><time>2016-12-28T20:31:36Z</time></trkpt>
   <trkpt lat="30.915388" lon="34.728686"><ele>457.3</ele><name>TP03861</name><time>2016-12-28T20:31:37Z</time></trkpt>
   <trkpt lat="30.915366" lon="34.728709"><ele>457.5</ele><name>TP03862</name><time>2016-12-28T20:31:38Z</time></trkpt>
   <trkpt lat="30.915337" lon="34.728734"><ele>457.9</ele><name>TP03863</name><time>2016-12-28T20:31:39Z</time></trkpt>
   <trkpt lat="30.915306" lon="34.728762"><ele>458.3</ele><name>TP03864</name><time>2016-12-28T20:31:40Z</time></trkpt>
   <trkpt lat="30.915273" lon="34.728792"><ele>458.8</ele><name>TP03865</name><time>2016-12-28T20:31:41Z</time></trkpt>
   <trkpt lat="30.915239" lon="34.728824"><ele>459.3</ele><name>TP03866</name><time>2016-12-28T20:31:42Z</time></trkpt>
   <trkpt lat="30.915209" lon="34.728853"><ele>459.7</ele><name>TP03867</name><time>2016-12-28T20:31:43Z</time></trkpt>
   <trkpt lat="30.915179" lon="34.728882"><ele>460.1</ele><name>TP03868</name><time>2016-12-28T20:31:44Z</time></trkpt>
   <trkpt lat="30.915149" lon="34.728908"><ele>460.4</ele><name>TP03869</name><time>2016-12-28T20:31:45Z</time></trkpt>
   <trkpt lat="30.915105" lon="34.728948"><ele>460.9</ele><name>TP03870</name><time>2016-12-28T20:31:47Z</time></trkpt>
   <trkpt lat="30.915069" lon="34.728974"><ele>461.2</ele><name>TP03871</name><time>2016-12-28T20:31:48Z</time></trkpt>
   <trkpt lat="30.915035" lon="34.728995"><ele>461.5</ele><name>TP03872</name><time>2016-12-28T20:31:49Z</time></trkpt>
   <trkpt lat="30.915" lon="34.729012"><ele>461.8</ele><name>TP03873</name><time>2016-12-28T20:31:50Z</time></trkpt>
   <trkpt lat="30.914973" lon="34.729025"><ele>462</ele><name>TP03874</name><time>2016-12-28T20:31:51Z</time></trkpt>
   <trkpt lat="30.914942" lon="34.72904"><ele>462.2</ele><name>TP03875</name><time>2016-12-28T20:31:52Z</time></trkpt>
   <trkpt lat="30.914914" lon="34.729054"><ele>462.4</ele><name>TP03876</name><time>2016-12-28T20:31:53Z</time></trkpt>
   <trkpt lat="30.914862" lon="34.729081"><ele>462.7</ele><name>TP03877</name><time>2016-12-28T20:31:55Z</time></trkpt>
   <trkpt lat="30.914835" lon="34.729098"><ele>462.9</ele><name>TP03878</name><time>2016-12-28T20:31:56Z</time></trkpt>
   <trkpt lat="30.91481" lon="34.729117"><ele>463</ele><name>TP03879</name><time>2016-12-28T20:31:57Z</time></trkpt>
   <trkpt lat="30.914786" lon="34.729139"><ele>463.1</ele><name>TP03880</name><time>2016-12-28T20:31:58Z</time></trkpt>
   <trkpt lat="30.914762" lon="34.729159"><ele>463.2</ele><name>TP03881</name><time>2016-12-28T20:31:59Z</time></trkpt>
   <trkpt lat="30.914737" lon="34.729181"><ele>463.2</ele><name>TP03882</name><time>2016-12-28T20:32:00Z</time></trkpt>
   <trkpt lat="30.914711" lon="34.729206"><ele>463.3</ele><name>TP03883</name><time>2016-12-28T20:32:01Z</time></trkpt>
   <trkpt lat="30.914685" lon="34.729232"><ele>463.3</ele><name>TP03884</name><time>2016-12-28T20:32:02Z</time></trkpt>
   <trkpt lat="30.914658" lon="34.729253"><ele>463.3</ele><name>TP03885</name><time>2016-12-28T20:32:03Z</time></trkpt>
   <trkpt lat="30.914629" lon="34.729268"><ele>463.4</ele><name>TP03886</name><time>2016-12-28T20:32:04Z</time></trkpt>
   <trkpt lat="30.9146" lon="34.729279"><ele>463.4</ele><name>TP03887</name><time>2016-12-28T20:32:05Z</time></trkpt>
   <trkpt lat="30.914548" lon="34.729293"><ele>463.8</ele><name>TP03888</name><time>2016-12-28T20:32:07Z</time></trkpt>
   <trkpt lat="30.91452" lon="34.7293"><ele>464.1</ele><name>TP03889</name><time>2016-12-28T20:32:08Z</time></trkpt>
   <trkpt lat="30.914492" lon="34.729305"><ele>464.5</ele><name>TP03890</name><time>2016-12-28T20:32:09Z</time></trkpt>
   <trkpt lat="30.914465" lon="34.729312"><ele>464.8</ele><name>TP03891</name><time>2016-12-28T20:32:10Z</time></trkpt>
   <trkpt lat="30.914414" lon="34.729318"><ele>465.4</ele><name>TP03892</name><time>2016-12-28T20:32:12Z</time></trkpt>
   <trkpt lat="30.914368" lon="34.72932"><ele>465.9</ele><name>TP03893</name><time>2016-12-28T20:32:14Z</time></trkpt>
   <trkpt lat="30.914338" lon="34.729315"><ele>466.3</ele><name>TP03894</name><time>2016-12-28T20:32:16Z</time></trkpt>
   <trkpt lat="30.914302" lon="34.72931"><ele>466.8</ele><name>TP03895</name><time>2016-12-28T20:32:18Z</time></trkpt>
   <trkpt lat="30.914273" lon="34.7293"><ele>467.2</ele><name>TP03896</name><time>2016-12-28T20:32:20Z</time></trkpt>
   <trkpt lat="30.914238" lon="34.729284"><ele>467.7</ele><name>TP03897</name><time>2016-12-28T20:32:22Z</time></trkpt>
   <trkpt lat="30.9142" lon="34.729265"><ele>468.3</ele><name>TP03898</name><time>2016-12-28T20:32:24Z</time></trkpt>
   <trkpt lat="30.914158" lon="34.729261"><ele>468.8</ele><name>TP03899</name><time>2016-12-28T20:32:26Z</time></trkpt>
   <trkpt lat="30.914114" lon="34.729276"><ele>469.3</ele><name>TP03900</name><time>2016-12-28T20:32:28Z</time></trkpt>
   <trkpt lat="30.914068" lon="34.729294"><ele>469.8</ele><name>TP03901</name><time>2016-12-28T20:32:30Z</time></trkpt>
   <trkpt lat="30.914041" lon="34.729302"><ele>470.1</ele><name>TP03902</name><time>2016-12-28T20:32:31Z</time></trkpt>
   <trkpt lat="30.914014" lon="34.72931"><ele>470.4</ele><name>TP03903</name><time>2016-12-28T20:32:32Z</time></trkpt>
   <trkpt lat="30.913985" lon="34.729322"><ele>470.7</ele><name>TP03904</name><time>2016-12-28T20:32:33Z</time></trkpt>
   <trkpt lat="30.913957" lon="34.729336"><ele>470.9</ele><name>TP03905</name><time>2016-12-28T20:32:34Z</time></trkpt>
   <trkpt lat="30.913931" lon="34.729348"><ele>471.2</ele><name>TP03906</name><time>2016-12-28T20:32:35Z</time></trkpt>
   <trkpt lat="30.913885" lon="34.729349"><ele>471.7</ele><name>TP03907</name><time>2016-12-28T20:32:37Z</time></trkpt>
   <trkpt lat="30.913858" lon="34.729374"><ele>471.9</ele><name>TP03908</name><time>2016-12-28T20:32:38Z</time></trkpt>
   <trkpt lat="30.913815" lon="34.729387"><ele>472.4</ele><name>TP03909</name><time>2016-12-28T20:32:40Z</time></trkpt>
   <trkpt lat="30.913784" lon="34.729411"><ele>472.6</ele><name>TP03910</name><time>2016-12-28T20:32:41Z</time></trkpt>
   <trkpt lat="30.913754" lon="34.729436"><ele>472.8</ele><name>TP03911</name><time>2016-12-28T20:32:42Z</time></trkpt>
   <trkpt lat="30.913727" lon="34.729458"><ele>473</ele><name>TP03912</name><time>2016-12-28T20:32:43Z</time></trkpt>
   <trkpt lat="30.913685" lon="34.72946"><ele>473.4</ele><name>TP03913</name><time>2016-12-28T20:32:45Z</time></trkpt>
   <trkpt lat="30.913661" lon="34.729487"><ele>473.5</ele><name>TP03914</name><time>2016-12-28T20:32:46Z</time></trkpt>
   <trkpt lat="30.913636" lon="34.729522"><ele>473.5</ele><name>TP03915</name><time>2016-12-28T20:32:47Z</time></trkpt>
   <trkpt lat="30.913612" lon="34.729558"><ele>473.6</ele><name>TP03916</name><time>2016-12-28T20:32:48Z</time></trkpt>
   <trkpt lat="30.913588" lon="34.729592"><ele>473.8</ele><name>TP03917</name><time>2016-12-28T20:32:49Z</time></trkpt>
   <trkpt lat="30.913568" lon="34.729626"><ele>474</ele><name>TP03918</name><time>2016-12-28T20:32:50Z</time></trkpt>
   <trkpt lat="30.913549" lon="34.729659"><ele>474.2</ele><name>TP03919</name><time>2016-12-28T20:32:51Z</time></trkpt>
   <trkpt lat="30.91353" lon="34.729684"><ele>474.4</ele><name>TP03920</name><time>2016-12-28T20:32:52Z</time></trkpt>
   <trkpt lat="30.913507" lon="34.729708"><ele>474.6</ele><name>TP03921</name><time>2016-12-28T20:32:53Z</time></trkpt>
   <trkpt lat="30.913483" lon="34.729728"><ele>474.8</ele><name>TP03922</name><time>2016-12-28T20:32:54Z</time></trkpt>
   <trkpt lat="30.913459" lon="34.729745"><ele>475.1</ele><name>TP03923</name><time>2016-12-28T20:32:55Z</time></trkpt>
   <trkpt lat="30.913435" lon="34.729763"><ele>475.3</ele><name>TP03924</name><time>2016-12-28T20:32:56Z</time></trkpt>
   <trkpt lat="30.913412" lon="34.72978"><ele>475.5</ele><name>TP03925</name><time>2016-12-28T20:32:57Z</time></trkpt>
   <trkpt lat="30.913368" lon="34.729806"><ele>475.8</ele><name>TP03926</name><time>2016-12-28T20:32:59Z</time></trkpt>
   <trkpt lat="30.913339" lon="34.729831"><ele>476</ele><name>TP03927</name><time>2016-12-28T20:33:01Z</time></trkpt>
   <trkpt lat="30.913372" lon="34.729868"><ele>475.7</ele><name>TP03928</name><time>2016-12-28T20:33:03Z</time></trkpt>
   <trkpt lat="30.913405" lon="34.729896"><ele>475.4</ele><name>TP03929</name><time>2016-12-28T20:33:05Z</time></trkpt>
   <trkpt lat="30.913443" lon="34.729932"><ele>475.1</ele><name>TP03930</name><time>2016-12-28T20:33:07Z</time></trkpt>
   <trkpt lat="30.913477" lon="34.729969"><ele>474.8</ele><name>TP03931</name><time>2016-12-28T20:33:09Z</time></trkpt>
   <trkpt lat="30.913513" lon="34.730007"><ele>474.6</ele><name>TP03932</name><time>2016-12-28T20:33:11Z</time></trkpt>
   <trkpt lat="30.913549" lon="34.730045"><ele>474.3</ele><name>TP03933</name><time>2016-12-28T20:33:13Z</time></trkpt>
   <trkpt lat="30.913584" lon="34.730083"><ele>474.2</ele><name>TP03934</name><time>2016-12-28T20:33:15Z</time></trkpt>
   <trkpt lat="30.913617" lon="34.730119"><ele>474</ele><name>TP03935</name><time>2016-12-28T20:33:17Z</time></trkpt>
   <trkpt lat="30.913649" lon="34.730159"><ele>473.9</ele><name>TP03936</name><time>2016-12-28T20:33:19Z</time></trkpt>
   <trkpt lat="30.913671" lon="34.730192"><ele>473.8</ele><name>TP03937</name><time>2016-12-28T20:33:21Z</time></trkpt>
   <trkpt lat="30.913689" lon="34.73023"><ele>473.8</ele><name>TP03938</name><time>2016-12-28T20:33:23Z</time></trkpt>
   <trkpt lat="30.913708" lon="34.730284"><ele>473.8</ele><name>TP03939</name><time>2016-12-28T20:33:25Z</time></trkpt>
   <trkpt lat="30.913729" lon="34.730336"><ele>473.9</ele><name>TP03940</name><time>2016-12-28T20:33:27Z</time></trkpt>
   <trkpt lat="30.913763" lon="34.730385"><ele>473.9</ele><name>TP03941</name><time>2016-12-28T20:33:29Z</time></trkpt>
   <trkpt lat="30.913783" lon="34.73041"><ele>473.8</ele><name>TP03942</name><time>2016-12-28T20:33:30Z</time></trkpt>
   <trkpt lat="30.913802" lon="34.730434"><ele>473.9</ele><name>TP03943</name><time>2016-12-28T20:33:31Z</time></trkpt>
   <trkpt lat="30.913827" lon="34.730472"><ele>474.1</ele><name>TP03944</name><time>2016-12-28T20:33:33Z</time></trkpt>
   <trkpt lat="30.913854" lon="34.730509"><ele>474.3</ele><name>TP03945</name><time>2016-12-28T20:33:35Z</time></trkpt>
   <trkpt lat="30.913871" lon="34.730535"><ele>474.4</ele><name>TP03946</name><time>2016-12-28T20:33:36Z</time></trkpt>
   <trkpt lat="30.913896" lon="34.730589"><ele>474.7</ele><name>TP03947</name><time>2016-12-28T20:33:38Z</time></trkpt>
   <trkpt lat="30.913921" lon="34.73064"><ele>475.1</ele><name>TP03948</name><time>2016-12-28T20:33:40Z</time></trkpt>
   <trkpt lat="30.913948" lon="34.730663"><ele>475.1</ele><name>TP03949</name><time>2016-12-28T20:33:42Z</time></trkpt>
   <trkpt lat="30.913983" lon="34.730694"><ele>475.2</ele><name>TP03950</name><time>2016-12-28T20:33:44Z</time></trkpt>
   <trkpt lat="30.91401" lon="34.730743"><ele>475.5</ele><name>TP03951</name><time>2016-12-28T20:33:46Z</time></trkpt>
   <trkpt lat="30.914028" lon="34.730795"><ele>475.8</ele><name>TP03952</name><time>2016-12-28T20:33:48Z</time></trkpt>
   <trkpt lat="30.914053" lon="34.73084"><ele>476.1</ele><name>TP03953</name><time>2016-12-28T20:33:50Z</time></trkpt>
   <trkpt lat="30.914087" lon="34.730878"><ele>476.3</ele><name>TP03954</name><time>2016-12-28T20:33:52Z</time></trkpt>
   <trkpt lat="30.914103" lon="34.730906"><ele>476.4</ele><name>TP03955</name><time>2016-12-28T20:33:53Z</time></trkpt>
   <trkpt lat="30.914127" lon="34.730954"><ele>476.7</ele><name>TP03956</name><time>2016-12-28T20:33:55Z</time></trkpt>
   <trkpt lat="30.91415" lon="34.730994"><ele>476.9</ele><name>TP03957</name><time>2016-12-28T20:33:57Z</time></trkpt>
   <trkpt lat="30.914169" lon="34.731031"><ele>477.1</ele><name>TP03958</name><time>2016-12-28T20:33:59Z</time></trkpt>
   <trkpt lat="30.914166" lon="34.731068"><ele>477.5</ele><name>TP03959</name><time>2016-12-28T20:34:01Z</time></trkpt>
   <trkpt lat="30.914155" lon="34.7311"><ele>477.8</ele><name>TP03960</name><time>2016-12-28T20:34:03Z</time></trkpt>
   <trkpt lat="30.914179" lon="34.731121"><ele>477.9</ele><name>TP03961</name><time>2016-12-28T20:34:05Z</time></trkpt>
   <trkpt lat="30.914218" lon="34.731087"><ele>477.4</ele><name>TP03962</name><time>2016-12-28T20:34:07Z</time></trkpt>
   <trkpt lat="30.914245" lon="34.731043"><ele>476.9</ele><name>TP03963</name><time>2016-12-28T20:34:09Z</time></trkpt>
   <trkpt lat="30.914249" lon="34.730989"><ele>476.4</ele><name>TP03964</name><time>2016-12-28T20:34:11Z</time></trkpt>
   <trkpt lat="30.914245" lon="34.730937"><ele>476</ele><name>TP03965</name><time>2016-12-28T20:34:13Z</time></trkpt>
   <trkpt lat="30.914253" lon="34.730901"><ele>475.7</ele><name>TP03966</name><time>2016-12-28T20:34:14Z</time></trkpt>
   <trkpt lat="30.914286" lon="34.73086"><ele>475.2</ele><name>TP03967</name><time>2016-12-28T20:34:16Z</time></trkpt>
   <trkpt lat="30.91432" lon="34.730854"><ele>474.9</ele><name>TP03968</name><time>2016-12-28T20:34:18Z</time></trkpt>
   <trkpt lat="30.914336" lon="34.730888"><ele>475.1</ele><name>TP03969</name><time>2016-12-28T20:34:20Z</time></trkpt>
   <trkpt lat="30.914348" lon="34.730924"><ele>475.4</ele><name>TP03970</name><time>2016-12-28T20:34:21Z</time></trkpt>
   <trkpt lat="30.914355" lon="34.730958"><ele>475.6</ele><name>TP03971</name><time>2016-12-28T20:34:22Z</time></trkpt>
   <trkpt lat="30.914361" lon="34.730989"><ele>475.9</ele><name>TP03972</name><time>2016-12-28T20:34:23Z</time></trkpt>
   <trkpt lat="30.914366" lon="34.731021"><ele>476.1</ele><name>TP03973</name><time>2016-12-28T20:34:24Z</time></trkpt>
   <trkpt lat="30.914374" lon="34.731052"><ele>476.3</ele><name>TP03974</name><time>2016-12-28T20:34:25Z</time></trkpt>
   <trkpt lat="30.914384" lon="34.731084"><ele>476.6</ele><name>TP03975</name><time>2016-12-28T20:34:26Z</time></trkpt>
   <trkpt lat="30.914408" lon="34.731136"><ele>476.9</ele><name>TP03976</name><time>2016-12-28T20:34:28Z</time></trkpt>
   <trkpt lat="30.914437" lon="34.731183"><ele>477.1</ele><name>TP03977</name><time>2016-12-28T20:34:30Z</time></trkpt>
   <trkpt lat="30.914469" lon="34.731226"><ele>477.3</ele><name>TP03978</name><time>2016-12-28T20:34:32Z</time></trkpt>
   <trkpt lat="30.914502" lon="34.73127"><ele>477.3</ele><name>TP03979</name><time>2016-12-28T20:34:34Z</time></trkpt>
   <trkpt lat="30.914544" lon="34.731313"><ele>477</ele><name>TP03980</name><time>2016-12-28T20:34:36Z</time></trkpt>
   <trkpt lat="30.914573" lon="34.731321"><ele>476.8</ele><name>TP03981</name><time>2016-12-28T20:34:37Z</time></trkpt>
   <trkpt lat="30.9146" lon="34.731312"><ele>476.6</ele><name>TP03982</name><time>2016-12-28T20:34:38Z</time></trkpt>
   <trkpt lat="30.914623" lon="34.731291"><ele>476.5</ele><name>TP03983</name><time>2016-12-28T20:34:39Z</time></trkpt>
   <trkpt lat="30.914643" lon="34.731258"><ele>476.5</ele><name>TP03984</name><time>2016-12-28T20:34:40Z</time></trkpt>
   <trkpt lat="30.914665" lon="34.731218"><ele>476.2</ele><name>TP03985</name><time>2016-12-28T20:34:41Z</time></trkpt>
   <trkpt lat="30.914688" lon="34.731175"><ele>475.7</ele><name>TP03986</name><time>2016-12-28T20:34:42Z</time></trkpt>
   <trkpt lat="30.914711" lon="34.731134"><ele>475.2</ele><name>TP03987</name><time>2016-12-28T20:34:43Z</time></trkpt>
   <trkpt lat="30.914735" lon="34.731095"><ele>474.8</ele><name>TP03988</name><time>2016-12-28T20:34:44Z</time></trkpt>
   <trkpt lat="30.914759" lon="34.731058"><ele>474.4</ele><name>TP03989</name><time>2016-12-28T20:34:45Z</time></trkpt>
   <trkpt lat="30.914823" lon="34.730988"><ele>473.6</ele><name>TP03990</name><time>2016-12-28T20:34:47Z</time></trkpt>
   <trkpt lat="30.914857" lon="34.730972"><ele>473.4</ele><name>TP03991</name><time>2016-12-28T20:34:48Z</time></trkpt>
   <trkpt lat="30.914889" lon="34.730962"><ele>473.1</ele><name>TP03992</name><time>2016-12-28T20:34:49Z</time></trkpt>
   <trkpt lat="30.914923" lon="34.730959"><ele>473</ele><name>TP03993</name><time>2016-12-28T20:34:50Z</time></trkpt>
   <trkpt lat="30.914958" lon="34.730958"><ele>472.8</ele><name>TP03994</name><time>2016-12-28T20:34:51Z</time></trkpt>
   <trkpt lat="30.914998" lon="34.730963"><ele>472.6</ele><name>TP03995</name><time>2016-12-28T20:34:52Z</time></trkpt>
   <trkpt lat="30.915029" lon="34.730976"><ele>472.5</ele><name>TP03996</name><time>2016-12-28T20:34:54Z</time></trkpt>
   <trkpt lat="30.915082" lon="34.730997"><ele>472.4</ele><name>TP03997</name><time>2016-12-28T20:34:56Z</time></trkpt>
   <trkpt lat="30.91514" lon="34.731018"><ele>472.2</ele><name>TP03998</name><time>2016-12-28T20:34:57Z</time></trkpt>
   <trkpt lat="30.915193" lon="34.731029"><ele>471.9</ele><name>TP03999</name><time>2016-12-28T20:34:58Z</time></trkpt>
   <trkpt lat="30.915242" lon="34.731033"><ele>471.7</ele><name>TP04000</name><time>2016-12-28T20:34:59Z</time></trkpt>
   <trkpt lat="30.91529" lon="34.731029"><ele>471.4</ele><name>TP04001</name><time>2016-12-28T20:35:00Z</time></trkpt>
   <trkpt lat="30.915328" lon="34.731022"><ele>471.2</ele><name>TP04002</name><time>2016-12-28T20:35:01Z</time></trkpt>
   <trkpt lat="30.915361" lon="34.731044"><ele>471.1</ele><name>TP04003</name><time>2016-12-28T20:35:03Z</time></trkpt>
   <trkpt lat="30.915348" lon="34.731073"><ele>471.2</ele><name>TP04004</name><time>2016-12-28T20:35:04Z</time></trkpt>
   <trkpt lat="30.915325" lon="34.731092"><ele>471.3</ele><name>TP04005</name><time>2016-12-28T20:35:05Z</time></trkpt>
   <trkpt lat="30.915303" lon="34.731124"><ele>471.5</ele><name>TP04006</name><time>2016-12-28T20:35:07Z</time></trkpt>
   <trkpt lat="30.9153" lon="34.731186"><ele>471.7</ele><name>TP04007</name><time>2016-12-28T20:35:09Z</time></trkpt>
   <trkpt lat="30.91528" lon="34.731219"><ele>471.9</ele><name>TP04008</name><time>2016-12-28T20:35:11Z</time></trkpt>
   <trkpt lat="30.915254" lon="34.731202"><ele>472</ele><name>TP04009</name><time>2016-12-28T20:35:13Z</time></trkpt>
   <trkpt lat="30.91522" lon="34.731162"><ele>472.2</ele><name>TP04010</name><time>2016-12-28T20:35:15Z</time></trkpt>
   <trkpt lat="30.915193" lon="34.731149"><ele>472.3</ele><name>TP04011</name><time>2016-12-28T20:35:17Z</time></trkpt>
   <trkpt lat="30.915146" lon="34.731144"><ele>472.6</ele><name>TP04012</name><time>2016-12-28T20:35:19Z</time></trkpt>
   <trkpt lat="30.915102" lon="34.731142"><ele>472.8</ele><name>TP04013</name><time>2016-12-28T20:35:21Z</time></trkpt>
   <trkpt lat="30.915064" lon="34.731124"><ele>473</ele><name>TP04014</name><time>2016-12-28T20:35:23Z</time></trkpt>
   <trkpt lat="30.915025" lon="34.731116"><ele>473.2</ele><name>TP04015</name><time>2016-12-28T20:35:25Z</time></trkpt>
   <trkpt lat="30.914986" lon="34.731112"><ele>473.4</ele><name>TP04016</name><time>2016-12-28T20:35:27Z</time></trkpt>
   <trkpt lat="30.914944" lon="34.731108"><ele>473.7</ele><name>TP04017</name><time>2016-12-28T20:35:29Z</time></trkpt>
   <trkpt lat="30.914909" lon="34.731122"><ele>473.9</ele><name>TP04018</name><time>2016-12-28T20:35:31Z</time></trkpt>
   <trkpt lat="30.914882" lon="34.73115"><ele>474.3</ele><name>TP04019</name><time>2016-12-28T20:35:33Z</time></trkpt>
   <trkpt lat="30.91487" lon="34.731195"><ele>474.6</ele><name>TP04020</name><time>2016-12-28T20:35:35Z</time></trkpt>
   <trkpt lat="30.914865" lon="34.731243"><ele>474.9</ele><name>TP04021</name><time>2016-12-28T20:35:37Z</time></trkpt>
   <trkpt lat="30.914847" lon="34.731281"><ele>474.8</ele><name>TP04022</name><time>2016-12-28T20:35:40Z</time></trkpt>
   <trkpt lat="30.914831" lon="34.731319"><ele>474.6</ele><name>TP04023</name><time>2016-12-28T20:35:42Z</time></trkpt>
   <trkpt lat="30.914815" lon="34.731359"><ele>474.4</ele><name>TP04024</name><time>2016-12-28T20:35:44Z</time></trkpt>
   <trkpt lat="30.914796" lon="34.7314"><ele>474.2</ele><name>TP04025</name><time>2016-12-28T20:35:46Z</time></trkpt>
   <trkpt lat="30.914772" lon="34.731437"><ele>474.2</ele><name>TP04026</name><time>2016-12-28T20:35:49Z</time></trkpt>
   <trkpt lat="30.914735" lon="34.731471"><ele>474.3</ele><name>TP04027</name><time>2016-12-28T20:35:51Z</time></trkpt>
   <trkpt lat="30.9147" lon="34.731499"><ele>474.6</ele><name>TP04028</name><time>2016-12-28T20:35:53Z</time></trkpt>
   <trkpt lat="30.914666" lon="34.731527"><ele>474.9</ele><name>TP04029</name><time>2016-12-28T20:35:55Z</time></trkpt>
   <trkpt lat="30.914631" lon="34.731549"><ele>475.3</ele><name>TP04030</name><time>2016-12-28T20:35:57Z</time></trkpt>
   <trkpt lat="30.914597" lon="34.731572"><ele>475.6</ele><name>TP04031</name><time>2016-12-28T20:35:59Z</time></trkpt>
   <trkpt lat="30.914555" lon="34.731576"><ele>476</ele><name>TP04032</name><time>2016-12-28T20:36:01Z</time></trkpt>
   <trkpt lat="30.914516" lon="34.731584"><ele>476.2</ele><name>TP04033</name><time>2016-12-28T20:36:03Z</time></trkpt>
   <trkpt lat="30.914483" lon="34.73159"><ele>476.4</ele><name>TP04034</name><time>2016-12-28T20:36:05Z</time></trkpt>
   <trkpt lat="30.91444" lon="34.731591"><ele>476.7</ele><name>TP04035</name><time>2016-12-28T20:36:07Z</time></trkpt>
   <trkpt lat="30.914399" lon="34.731588"><ele>476.9</ele><name>TP04036</name><time>2016-12-28T20:36:09Z</time></trkpt>
   <trkpt lat="30.914366" lon="34.731565"><ele>477.2</ele><name>TP04037</name><time>2016-12-28T20:36:12Z</time></trkpt>
   <trkpt lat="30.914315" lon="34.731562"><ele>477.5</ele><name>TP04038</name><time>2016-12-28T20:36:14Z</time></trkpt>
   <trkpt lat="30.914268" lon="34.731564"><ele>477.8</ele><name>TP04039</name><time>2016-12-28T20:36:16Z</time></trkpt>
   <trkpt lat="30.914241" lon="34.73157"><ele>478</ele><name>TP04040</name><time>2016-12-28T20:36:17Z</time></trkpt>
   <trkpt lat="30.91421" lon="34.731577"><ele>478.1</ele><name>TP04041</name><time>2016-12-28T20:36:18Z</time></trkpt>
   <trkpt lat="30.914179" lon="34.731582"><ele>478.3</ele><name>TP04042</name><time>2016-12-28T20:36:19Z</time></trkpt>
   <trkpt lat="30.914147" lon="34.731585"><ele>478.5</ele><name>TP04043</name><time>2016-12-28T20:36:20Z</time></trkpt>
   <trkpt lat="30.914102" lon="34.731594"><ele>478.8</ele><name>TP04044</name><time>2016-12-28T20:36:22Z</time></trkpt>
   <trkpt lat="30.914104" lon="34.731635"><ele>478.7</ele><name>TP04045</name><time>2016-12-28T20:36:25Z</time></trkpt>
   <trkpt lat="30.914053" lon="34.731667"><ele>479</ele><name>TP04046</name><time>2016-12-28T20:36:27Z</time></trkpt>
   <trkpt lat="30.914016" lon="34.731681"><ele>479.2</ele><name>TP04047</name><time>2016-12-28T20:36:28Z</time></trkpt>
   <trkpt lat="30.913984" lon="34.731692"><ele>479.4</ele><name>TP04048</name><time>2016-12-28T20:36:29Z</time></trkpt>
   <trkpt lat="30.913942" lon="34.731705"><ele>479.7</ele><name>TP04049</name><time>2016-12-28T20:36:30Z</time></trkpt>
   <trkpt lat="30.913898" lon="34.731717"><ele>480</ele><name>TP04050</name><time>2016-12-28T20:36:32Z</time></trkpt>
   <trkpt lat="30.913864" lon="34.731725"><ele>480.2</ele><name>TP04051</name><time>2016-12-28T20:36:33Z</time></trkpt>
   <trkpt lat="30.913831" lon="34.731733"><ele>480.4</ele><name>TP04052</name><time>2016-12-28T20:36:34Z</time></trkpt>
   <trkpt lat="30.913799" lon="34.731743"><ele>480.7</ele><name>TP04053</name><time>2016-12-28T20:36:35Z</time></trkpt>
   <trkpt lat="30.913768" lon="34.731755"><ele>480.9</ele><name>TP04054</name><time>2016-12-28T20:36:36Z</time></trkpt>
   <trkpt lat="30.913738" lon="34.73177"><ele>481.2</ele><name>TP04055</name><time>2016-12-28T20:36:37Z</time></trkpt>
   <trkpt lat="30.913712" lon="34.731784"><ele>481.5</ele><name>TP04056</name><time>2016-12-28T20:36:38Z</time></trkpt>
   <trkpt lat="30.913684" lon="34.731797"><ele>481.9</ele><name>TP04057</name><time>2016-12-28T20:36:39Z</time></trkpt>
   <trkpt lat="30.913645" lon="34.731812"><ele>482.4</ele><name>TP04058</name><time>2016-12-28T20:36:41Z</time></trkpt>
   <trkpt lat="30.913615" lon="34.731822"><ele>482.8</ele><name>TP04059</name><time>2016-12-28T20:36:42Z</time></trkpt>
   <trkpt lat="30.913588" lon="34.731832"><ele>483.2</ele><name>TP04060</name><time>2016-12-28T20:36:43Z</time></trkpt>
   <trkpt lat="30.913545" lon="34.731851"><ele>483.8</ele><name>TP04061</name><time>2016-12-28T20:36:45Z</time></trkpt>
   <trkpt lat="30.913506" lon="34.731873"><ele>484.4</ele><name>TP04062</name><time>2016-12-28T20:36:46Z</time></trkpt>
   <trkpt lat="30.913469" lon="34.731896"><ele>485</ele><name>TP04063</name><time>2016-12-28T20:36:47Z</time></trkpt>
   <trkpt lat="30.913432" lon="34.731916"><ele>485.7</ele><name>TP04064</name><time>2016-12-28T20:36:48Z</time></trkpt>
   <trkpt lat="30.913324" lon="34.731962"><ele>487.5</ele><name>TP04065</name><time>2016-12-28T20:36:50Z</time></trkpt>
   <trkpt lat="30.9133" lon="34.731983"><ele>488</ele><name>TP04066</name><time>2016-12-28T20:36:51Z</time></trkpt>
   <trkpt lat="30.91326" lon="34.731999"><ele>488.7</ele><name>TP04067</name><time>2016-12-28T20:36:52Z</time></trkpt>
   <trkpt lat="30.91324" lon="34.732021"><ele>489.2</ele><name>TP04068</name><time>2016-12-28T20:36:53Z</time></trkpt>
   <trkpt lat="30.913214" lon="34.732035"><ele>489.7</ele><name>TP04069</name><time>2016-12-28T20:36:54Z</time></trkpt>
   <trkpt lat="30.913188" lon="34.732057"><ele>490.2</ele><name>TP04070</name><time>2016-12-28T20:36:55Z</time></trkpt>
   <trkpt lat="30.913162" lon="34.732081"><ele>490.9</ele><name>TP04071</name><time>2016-12-28T20:36:56Z</time></trkpt>
   <trkpt lat="30.913125" lon="34.732108"><ele>491</ele><name>TP04072</name><time>2016-12-28T20:36:58Z</time></trkpt>
   <trkpt lat="30.913097" lon="34.732122"><ele>491.2</ele><name>TP04073</name><time>2016-12-28T20:37:00Z</time></trkpt>
   <trkpt lat="30.91306" lon="34.732149"><ele>491.3</ele><name>TP04074</name><time>2016-12-28T20:37:02Z</time></trkpt>
   <trkpt lat="30.913027" lon="34.732174"><ele>491.4</ele><name>TP04075</name><time>2016-12-28T20:37:03Z</time></trkpt>
   <trkpt lat="30.912996" lon="34.732199"><ele>491.4</ele><name>TP04076</name><time>2016-12-28T20:37:04Z</time></trkpt>
   <trkpt lat="30.912966" lon="34.732224"><ele>491.4</ele><name>TP04077</name><time>2016-12-28T20:37:05Z</time></trkpt>
   <trkpt lat="30.912937" lon="34.732243"><ele>491.6</ele><name>TP04078</name><time>2016-12-28T20:37:06Z</time></trkpt>
   <trkpt lat="30.912894" lon="34.732271"><ele>491.4</ele><name>TP04079</name><time>2016-12-28T20:37:08Z</time></trkpt>
   <trkpt lat="30.912858" lon="34.7323"><ele>491</ele><name>TP04080</name><time>2016-12-28T20:37:10Z</time></trkpt>
   <trkpt lat="30.91282" lon="34.73234"><ele>490.5</ele><name>TP04081</name><time>2016-12-28T20:37:12Z</time></trkpt>
   <trkpt lat="30.912797" lon="34.732361"><ele>490.2</ele><name>TP04082</name><time>2016-12-28T20:37:13Z</time></trkpt>
   <trkpt lat="30.912774" lon="34.732385"><ele>490</ele><name>TP04083</name><time>2016-12-28T20:37:14Z</time></trkpt>
   <trkpt lat="30.91275" lon="34.732406"><ele>489.8</ele><name>TP04084</name><time>2016-12-28T20:37:15Z</time></trkpt>
   <trkpt lat="30.912727" lon="34.732424"><ele>489.7</ele><name>TP04085</name><time>2016-12-28T20:37:16Z</time></trkpt>
   <trkpt lat="30.912703" lon="34.732447"><ele>489.6</ele><name>TP04086</name><time>2016-12-28T20:37:17Z</time></trkpt>
   <trkpt lat="30.912684" lon="34.732471"><ele>489.4</ele><name>TP04087</name><time>2016-12-28T20:37:18Z</time></trkpt>
   <trkpt lat="30.912649" lon="34.732512"><ele>489.3</ele><name>TP04088</name><time>2016-12-28T20:37:20Z</time></trkpt>
   <trkpt lat="30.912617" lon="34.732553"><ele>489.2</ele><name>TP04089</name><time>2016-12-28T20:37:22Z</time></trkpt>
   <trkpt lat="30.912587" lon="34.732598"><ele>489.1</ele><name>TP04090</name><time>2016-12-28T20:37:24Z</time></trkpt>
   <trkpt lat="30.912557" lon="34.732614"><ele>489.3</ele><name>TP04091</name><time>2016-12-28T20:37:26Z</time></trkpt>
   <trkpt lat="30.912532" lon="34.732642"><ele>489.4</ele><name>TP04092</name><time>2016-12-28T20:37:27Z</time></trkpt>
   <trkpt lat="30.912511" lon="34.732666"><ele>489.5</ele><name>TP04093</name><time>2016-12-28T20:37:28Z</time></trkpt>
   <trkpt lat="30.912487" lon="34.732695"><ele>489.7</ele><name>TP04094</name><time>2016-12-28T20:37:29Z</time></trkpt>
   <trkpt lat="30.912465" lon="34.732719"><ele>489.9</ele><name>TP04095</name><time>2016-12-28T20:37:30Z</time></trkpt>
   <trkpt lat="30.912443" lon="34.732742"><ele>490.1</ele><name>TP04096</name><time>2016-12-28T20:37:31Z</time></trkpt>
   <trkpt lat="30.912414" lon="34.732776"><ele>490.4</ele><name>TP04097</name><time>2016-12-28T20:37:33Z</time></trkpt>
   <trkpt lat="30.912394" lon="34.732805"><ele>490.7</ele><name>TP04098</name><time>2016-12-28T20:37:34Z</time></trkpt>
   <trkpt lat="30.912376" lon="34.732834"><ele>490.9</ele><name>TP04099</name><time>2016-12-28T20:37:35Z</time></trkpt>
   <trkpt lat="30.912359" lon="34.732865"><ele>491.2</ele><name>TP04100</name><time>2016-12-28T20:37:36Z</time></trkpt>
   <trkpt lat="30.912341" lon="34.732899"><ele>491.5</ele><name>TP04101</name><time>2016-12-28T20:37:37Z</time></trkpt>
   <trkpt lat="30.912323" lon="34.732929"><ele>491.8</ele><name>TP04102</name><time>2016-12-28T20:37:38Z</time></trkpt>
   <trkpt lat="30.912304" lon="34.732955"><ele>492.1</ele><name>TP04103</name><time>2016-12-28T20:37:39Z</time></trkpt>
   <trkpt lat="30.912285" lon="34.732977"><ele>492.4</ele><name>TP04104</name><time>2016-12-28T20:37:40Z</time></trkpt>
   <trkpt lat="30.912246" lon="34.733017"><ele>493</ele><name>TP04105</name><time>2016-12-28T20:37:42Z</time></trkpt>
   <trkpt lat="30.912212" lon="34.733054"><ele>493.5</ele><name>TP04106</name><time>2016-12-28T20:37:44Z</time></trkpt>
   <trkpt lat="30.912185" lon="34.733089"><ele>493.8</ele><name>TP04107</name><time>2016-12-28T20:37:46Z</time></trkpt>
   <trkpt lat="30.912207" lon="34.73311"><ele>493.3</ele><name>TP04108</name><time>2016-12-28T20:38:07Z</time></trkpt>
   <trkpt lat="30.912215" lon="34.733146"><ele>493</ele><name>TP04109</name><time>2016-12-28T20:38:12Z</time></trkpt>
   <trkpt lat="30.9122" lon="34.733173"><ele>493.1</ele><name>TP04110</name><time>2016-12-28T20:38:14Z</time></trkpt>
   <trkpt lat="30.912176" lon="34.733198"><ele>493.4</ele><name>TP04111</name><time>2016-12-28T20:38:16Z</time></trkpt>
   <trkpt lat="30.91216" lon="34.733233"><ele>493.5</ele><name>TP04112</name><time>2016-12-28T20:38:19Z</time></trkpt>
   <trkpt lat="30.912163" lon="34.733202"><ele>493.6</ele><name>TP04113</name><time>2016-12-28T20:38:29Z</time></trkpt>
   <trkpt lat="30.91219" lon="34.733191"><ele>493.2</ele><name>TP04114</name><time>2016-12-28T20:38:38Z</time></trkpt>
   <trkpt lat="30.912167" lon="34.73321"><ele>493.5</ele><name>TP04115</name><time>2016-12-28T20:38:45Z</time></trkpt>
   <trkpt lat="30.912194" lon="34.733205"><ele>493</ele><name>TP04116</name><time>2016-12-28T20:39:04Z</time></trkpt>
   <trkpt lat="30.912219" lon="34.73319"><ele>492.7</ele><name>TP04117</name><time>2016-12-28T20:39:09Z</time></trkpt>
   <trkpt lat="30.9122" lon="34.733213"><ele>492.9</ele><name>TP04118</name><time>2016-12-28T20:39:23Z</time></trkpt>
   <trkpt lat="30.91216" lon="34.733235"><ele>493.4</ele><name>TP04119</name><time>2016-12-28T20:39:25Z</time></trkpt>
   <trkpt lat="30.912124" lon="34.733248"><ele>493.9</ele><name>TP04120</name><time>2016-12-28T20:39:27Z</time></trkpt>
   <trkpt lat="30.912142" lon="34.733223"><ele>493.8</ele><name>TP04121</name><time>2016-12-28T20:39:36Z</time></trkpt>
   <trkpt lat="30.912172" lon="34.733208"><ele>493.4</ele><name>TP04122</name><time>2016-12-28T20:39:51Z</time></trkpt>
   <trkpt lat="30.912149" lon="34.733235"><ele>493.6</ele><name>TP04123</name><time>2016-12-28T20:40:10Z</time></trkpt>
   <trkpt lat="30.912126" lon="34.733256"><ele>493.9</ele><name>TP04124</name><time>2016-12-28T20:40:15Z</time></trkpt>
   <trkpt lat="30.912095" lon="34.733302"><ele>494</ele><name>TP04125</name><time>2016-12-28T20:40:17Z</time></trkpt>
   <trkpt lat="30.912074" lon="34.733338"><ele>493.8</ele><name>TP04126</name><time>2016-12-28T20:40:18Z</time></trkpt>
   <trkpt lat="30.912056" lon="34.73338"><ele>493.2</ele><name>TP04127</name><time>2016-12-28T20:40:19Z</time></trkpt>
   <trkpt lat="30.912044" lon="34.733428"><ele>492.7</ele><name>TP04128</name><time>2016-12-28T20:40:20Z</time></trkpt>
   <trkpt lat="30.912031" lon="34.733482"><ele>492.1</ele><name>TP04129</name><time>2016-12-28T20:40:21Z</time></trkpt>
   <trkpt lat="30.912018" lon="34.733544"><ele>491.4</ele><name>TP04130</name><time>2016-12-28T20:40:22Z</time></trkpt>
   <trkpt lat="30.911961" lon="34.733627"><ele>490</ele><name>TP04131</name><time>2016-12-28T20:40:24Z</time></trkpt>
   <trkpt lat="30.911932" lon="34.733667"><ele>489.3</ele><name>TP04132</name><time>2016-12-28T20:40:25Z</time></trkpt>
   <trkpt lat="30.911902" lon="34.733707"><ele>488.6</ele><name>TP04133</name><time>2016-12-28T20:40:26Z</time></trkpt>
   <trkpt lat="30.911866" lon="34.733743"><ele>487.9</ele><name>TP04134</name><time>2016-12-28T20:40:27Z</time></trkpt>
   <trkpt lat="30.911834" lon="34.733776"><ele>487.3</ele><name>TP04135</name><time>2016-12-28T20:40:28Z</time></trkpt>
   <trkpt lat="30.911803" lon="34.733807"><ele>486.9</ele><name>TP04136</name><time>2016-12-28T20:40:29Z</time></trkpt>
   <trkpt lat="30.911774" lon="34.733836"><ele>486.4</ele><name>TP04137</name><time>2016-12-28T20:40:30Z</time></trkpt>
   <trkpt lat="30.911743" lon="34.73387"><ele>486.1</ele><name>TP04138</name><time>2016-12-28T20:40:31Z</time></trkpt>
   <trkpt lat="30.911717" lon="34.733896"><ele>485.8</ele><name>TP04139</name><time>2016-12-28T20:40:32Z</time></trkpt>
   <trkpt lat="30.911696" lon="34.733921"><ele>485.6</ele><name>TP04140</name><time>2016-12-28T20:40:33Z</time></trkpt>
   <trkpt lat="30.911675" lon="34.733948"><ele>485.4</ele><name>TP04141</name><time>2016-12-28T20:40:34Z</time></trkpt>
   <trkpt lat="30.911648" lon="34.73398"><ele>485.3</ele><name>TP04142</name><time>2016-12-28T20:40:36Z</time></trkpt>
   <trkpt lat="30.911622" lon="34.734008"><ele>485.1</ele><name>TP04143</name><time>2016-12-28T20:40:38Z</time></trkpt>
   <trkpt lat="30.911593" lon="34.734047"><ele>485.1</ele><name>TP04144</name><time>2016-12-28T20:40:40Z</time></trkpt>
   <trkpt lat="30.911564" lon="34.734084"><ele>485.1</ele><name>TP04145</name><time>2016-12-28T20:40:41Z</time></trkpt>
   <trkpt lat="30.911532" lon="34.734116"><ele>485.1</ele><name>TP04146</name><time>2016-12-28T20:40:42Z</time></trkpt>
   <trkpt lat="30.911502" lon="34.734139"><ele>485.1</ele><name>TP04147</name><time>2016-12-28T20:40:43Z</time></trkpt>
   <trkpt lat="30.911477" lon="34.734155"><ele>485.1</ele><name>TP04148</name><time>2016-12-28T20:40:44Z</time></trkpt>
   <trkpt lat="30.91145" lon="34.734172"><ele>485.1</ele><name>TP04149</name><time>2016-12-28T20:40:45Z</time></trkpt>
   <trkpt lat="30.911418" lon="34.734188"><ele>485.2</ele><name>TP04150</name><time>2016-12-28T20:40:46Z</time></trkpt>
   <trkpt lat="30.911383" lon="34.734199"><ele>485.2</ele><name>TP04151</name><time>2016-12-28T20:40:47Z</time></trkpt>
   <trkpt lat="30.911345" lon="34.734215"><ele>485.3</ele><name>TP04152</name><time>2016-12-28T20:40:48Z</time></trkpt>
   <trkpt lat="30.911311" lon="34.734238"><ele>485.5</ele><name>TP04153</name><time>2016-12-28T20:40:49Z</time></trkpt>
   <trkpt lat="30.911276" lon="34.734268"><ele>485.8</ele><name>TP04154</name><time>2016-12-28T20:40:50Z</time></trkpt>
   <trkpt lat="30.911241" lon="34.734303"><ele>486.2</ele><name>TP04155</name><time>2016-12-28T20:40:51Z</time></trkpt>
   <trkpt lat="30.911211" lon="34.73433"><ele>486.2</ele><name>TP04156</name><time>2016-12-28T20:40:52Z</time></trkpt>
   <trkpt lat="30.911171" lon="34.734358"><ele>486.1</ele><name>TP04157</name><time>2016-12-28T20:40:53Z</time></trkpt>
   <trkpt lat="30.911124" lon="34.734391"><ele>486</ele><name>TP04158</name><time>2016-12-28T20:40:54Z</time></trkpt>
   <trkpt lat="30.911082" lon="34.73442"><ele>486.1</ele><name>TP04159</name><time>2016-12-28T20:40:55Z</time></trkpt>
   <trkpt lat="30.911036" lon="34.734449"><ele>486.2</ele><name>TP04160</name><time>2016-12-28T20:40:56Z</time></trkpt>
   <trkpt lat="30.910993" lon="34.73447"><ele>486.2</ele><name>TP04161</name><time>2016-12-28T20:40:57Z</time></trkpt>
   <trkpt lat="30.910956" lon="34.734486"><ele>486.2</ele><name>TP04162</name><time>2016-12-28T20:40:58Z</time></trkpt>
   <trkpt lat="30.910923" lon="34.734498"><ele>486.1</ele><name>TP04163</name><time>2016-12-28T20:40:59Z</time></trkpt>
   <trkpt lat="30.910886" lon="34.734521"><ele>486.4</ele><name>TP04164</name><time>2016-12-28T20:41:00Z</time></trkpt>
   <trkpt lat="30.910856" lon="34.734548"><ele>486.8</ele><name>TP04165</name><time>2016-12-28T20:41:01Z</time></trkpt>
   <trkpt lat="30.910831" lon="34.734574"><ele>487.3</ele><name>TP04166</name><time>2016-12-28T20:41:02Z</time></trkpt>
   <trkpt lat="30.910809" lon="34.734592"><ele>487.3</ele><name>TP04167</name><time>2016-12-28T20:41:03Z</time></trkpt>
   <trkpt lat="30.910768" lon="34.734599"><ele>487.1</ele><name>TP04168</name><time>2016-12-28T20:41:05Z</time></trkpt>
   <trkpt lat="30.910729" lon="34.734605"><ele>486.8</ele><name>TP04169</name><time>2016-12-28T20:41:07Z</time></trkpt>
   <trkpt lat="30.910696" lon="34.734619"><ele>486.6</ele><name>TP04170</name><time>2016-12-28T20:41:09Z</time></trkpt>
   <trkpt lat="30.910665" lon="34.734645"><ele>486.4</ele><name>TP04171</name><time>2016-12-28T20:41:12Z</time></trkpt>
   <trkpt lat="30.910646" lon="34.734669"><ele>486.3</ele><name>TP04172</name><time>2016-12-28T20:41:14Z</time></trkpt>
   <trkpt lat="30.910626" lon="34.734692"><ele>486.3</ele><name>TP04173</name><time>2016-12-28T20:41:16Z</time></trkpt>
   <trkpt lat="30.910607" lon="34.734722"><ele>486.2</ele><name>TP04174</name><time>2016-12-28T20:41:18Z</time></trkpt>
   <trkpt lat="30.910588" lon="34.734773"><ele>486.2</ele><name>TP04175</name><time>2016-12-28T20:41:20Z</time></trkpt>
   <trkpt lat="30.910572" lon="34.734808"><ele>486.2</ele><name>TP04176</name><time>2016-12-28T20:41:22Z</time></trkpt>
   <trkpt lat="30.910558" lon="34.734841"><ele>486.2</ele><name>TP04177</name><time>2016-12-28T20:41:31Z</time></trkpt>
   <trkpt lat="30.910542" lon="34.734887"><ele>486.3</ele><name>TP04178</name><time>2016-12-28T20:41:35Z</time></trkpt>
   <trkpt lat="30.910515" lon="34.734913"><ele>486.4</ele><name>TP04179</name><time>2016-12-28T20:41:38Z</time></trkpt>
   <trkpt lat="30.910487" lon="34.734916"><ele>486.5</ele><name>TP04180</name><time>2016-12-28T20:41:42Z</time></trkpt>
   <trkpt lat="30.910446" lon="34.734926"><ele>486.6</ele><name>TP04181</name><time>2016-12-28T20:41:44Z</time></trkpt>
   <trkpt lat="30.910418" lon="34.734914"><ele>486.6</ele><name>TP04182</name><time>2016-12-28T20:41:47Z</time></trkpt>
   <trkpt lat="30.910424" lon="34.734865"><ele>486.3</ele><name>TP04183</name><time>2016-12-28T20:41:51Z</time></trkpt>
   <trkpt lat="30.910444" lon="34.734841"><ele>486.2</ele><name>TP04184</name><time>2016-12-28T20:41:52Z</time></trkpt>
   <trkpt lat="30.910467" lon="34.734823"><ele>486.2</ele><name>TP04185</name><time>2016-12-28T20:41:53Z</time></trkpt>
   <trkpt lat="30.910513" lon="34.734808"><ele>486.2</ele><name>TP04186</name><time>2016-12-28T20:41:55Z</time></trkpt>
   <trkpt lat="30.910549" lon="34.734793"><ele>486.2</ele><name>TP04187</name><time>2016-12-28T20:41:57Z</time></trkpt>
   <trkpt lat="30.910584" lon="34.734795"><ele>486.2</ele><name>TP04188</name><time>2016-12-28T20:42:01Z</time></trkpt>
   <trkpt lat="30.910587" lon="34.734759"><ele>486.2</ele><name>TP04189</name><time>2016-12-28T20:42:08Z</time></trkpt>
   <trkpt lat="30.910592" lon="34.734718"><ele>486.2</ele><name>TP04190</name><time>2016-12-28T20:42:11Z</time></trkpt>
   <trkpt lat="30.910561" lon="34.734699"><ele>486</ele><name>TP04191</name><time>2016-12-28T20:42:15Z</time></trkpt>
   <trkpt lat="30.910521" lon="34.734724"><ele>486</ele><name>TP04192</name><time>2016-12-28T20:42:17Z</time></trkpt>
   <trkpt lat="30.910504" lon="34.734781"><ele>486.1</ele><name>TP04193</name><time>2016-12-28T20:42:19Z</time></trkpt>
   <trkpt lat="30.9105" lon="34.734832"><ele>486.2</ele><name>TP04194</name><time>2016-12-28T20:42:21Z</time></trkpt>
   <trkpt lat="30.910489" lon="34.734864"><ele>486.3</ele><name>TP04195</name><time>2016-12-28T20:42:23Z</time></trkpt>
   <trkpt lat="30.910464" lon="34.734834"><ele>486.2</ele><name>TP04196</name><time>2016-12-28T20:42:36Z</time></trkpt>
   <trkpt lat="30.910433" lon="34.734819"><ele>486.1</ele><name>TP04197</name><time>2016-12-28T20:42:39Z</time></trkpt>
   <trkpt lat="30.910423" lon="34.73486"><ele>486.3</ele><name>TP04198</name><time>2016-12-28T20:42:52Z</time></trkpt>
   <trkpt lat="30.9104" lon="34.734879"><ele>486.4</ele><name>TP04199</name><time>2016-12-28T20:42:55Z</time></trkpt>
   <trkpt lat="30.910375" lon="34.734865"><ele>486.3</ele><name>TP04200</name><time>2016-12-28T20:42:59Z</time></trkpt>
   <trkpt lat="30.910402" lon="34.734861"><ele>486.3</ele><name>TP04201</name><time>2016-12-28T20:43:04Z</time></trkpt>
   <trkpt lat="30.910387" lon="34.734899"><ele>486.5</ele><name>TP04202</name><time>2016-12-28T20:43:13Z</time></trkpt>
   <trkpt lat="30.910361" lon="34.734888"><ele>486.4</ele><name>TP04203</name><time>2016-12-28T20:43:22Z</time></trkpt>
   <trkpt lat="30.910321" lon="34.734881"><ele>486.3</ele><name>TP04204</name><time>2016-12-28T20:43:29Z</time></trkpt>
   <trkpt lat="30.91029" lon="34.734877"><ele>486.2</ele><name>TP04205</name><time>2016-12-28T20:43:31Z</time></trkpt>
   <trkpt lat="30.910259" lon="34.734875"><ele>486.1</ele><name>TP04206</name><time>2016-12-28T20:43:33Z</time></trkpt>
   <trkpt lat="30.910235" lon="34.7349"><ele>486.3</ele><name>TP04207</name><time>2016-12-28T20:43:37Z</time></trkpt>
   <trkpt lat="30.91021" lon="34.734925"><ele>486.5</ele><name>TP04208</name><time>2016-12-28T20:43:40Z</time></trkpt>
   <trkpt lat="30.910175" lon="34.734928"><ele>486.6</ele><name>TP04209</name><time>2016-12-28T20:43:44Z</time></trkpt>
   <trkpt lat="30.910136" lon="34.73493"><ele>486.6</ele><name>TP04210</name><time>2016-12-28T20:43:47Z</time></trkpt>
   <trkpt lat="30.9101" lon="34.734944"><ele>486.8</ele><name>TP04211</name><time>2016-12-28T20:43:50Z</time></trkpt>
   <trkpt lat="30.910068" lon="34.734936"><ele>486.6</ele><name>TP04212</name><time>2016-12-28T20:43:53Z</time></trkpt>
   <trkpt lat="30.91004" lon="34.734933"><ele>486.6</ele><name>TP04213</name><time>2016-12-28T20:43:55Z</time></trkpt>
   <trkpt lat="30.910006" lon="34.734934"><ele>486.6</ele><name>TP04214</name><time>2016-12-28T20:43:58Z</time></trkpt>
   <trkpt lat="30.909978" lon="34.734955"><ele>487</ele><name>TP04215</name><time>2016-12-28T20:44:02Z</time></trkpt>
   <trkpt lat="30.910005" lon="34.73495"><ele>486.9</ele><name>TP04216</name><time>2016-12-28T20:44:07Z</time></trkpt>
   <trkpt lat="30.910037" lon="34.734936"><ele>486.6</ele><name>TP04217</name><time>2016-12-28T20:44:13Z</time></trkpt>
   <trkpt lat="30.910064" lon="34.734913"><ele>486.3</ele><name>TP04218</name><time>2016-12-28T20:44:17Z</time></trkpt>
   <trkpt lat="30.910067" lon="34.734947"><ele>486.8</ele><name>TP04219</name><time>2016-12-28T20:44:32Z</time></trkpt>
   <trkpt lat="30.910039" lon="34.734942"><ele>486.7</ele><name>TP04220</name><time>2016-12-28T20:44:39Z</time></trkpt>
   <trkpt lat="30.910077" lon="34.734959"><ele>487</ele><name>TP04221</name><time>2016-12-28T20:44:47Z</time></trkpt>
   <trkpt lat="30.910058" lon="34.734924"><ele>486.5</ele><name>TP04222</name><time>2016-12-28T20:44:53Z</time></trkpt>
   <trkpt lat="30.910015" lon="34.734958"><ele>487</ele><name>TP04223</name><time>2016-12-28T20:45:47Z</time></trkpt>
   <trkpt lat="30.909987" lon="34.734976"><ele>487.3</ele><name>TP04224</name><time>2016-12-28T20:45:50Z</time></trkpt>
   <trkpt lat="30.90996" lon="34.734985"><ele>487.5</ele><name>TP04225</name><time>2016-12-28T20:45:52Z</time></trkpt>
   <trkpt lat="30.909933" lon="34.734982"><ele>487.5</ele><name>TP04226</name><time>2016-12-28T20:45:54Z</time></trkpt>
   <trkpt lat="30.909904" lon="34.734975"><ele>487.4</ele><name>TP04227</name><time>2016-12-28T20:45:56Z</time></trkpt>
   <trkpt lat="30.909874" lon="34.734967"><ele>487.3</ele><name>TP04228</name><time>2016-12-28T20:45:58Z</time></trkpt>
   <trkpt lat="30.909842" lon="34.734972"><ele>487.4</ele><name>TP04229</name><time>2016-12-28T20:46:01Z</time></trkpt>
   <trkpt lat="30.909812" lon="34.734975"><ele>487.5</ele><name>TP04230</name><time>2016-12-28T20:46:03Z</time></trkpt>
   <trkpt lat="30.909782" lon="34.734968"><ele>487.4</ele><name>TP04231</name><time>2016-12-28T20:46:06Z</time></trkpt>
   <trkpt lat="30.909752" lon="34.734955"><ele>487.1</ele><name>TP04232</name><time>2016-12-28T20:46:10Z</time></trkpt>
   <trkpt lat="30.909724" lon="34.734947"><ele>486.9</ele><name>TP04233</name><time>2016-12-28T20:46:14Z</time></trkpt>
   <trkpt lat="30.909693" lon="34.734951"><ele>487</ele><name>TP04234</name><time>2016-12-28T20:46:18Z</time></trkpt>
   <trkpt lat="30.909655" lon="34.734947"><ele>486.9</ele><name>TP04235</name><time>2016-12-28T20:46:26Z</time></trkpt>
   <trkpt lat="30.909624" lon="34.734957"><ele>487.2</ele><name>TP04236</name><time>2016-12-28T20:46:29Z</time></trkpt>
   <trkpt lat="30.909597" lon="34.734947"><ele>486.9</ele><name>TP04237</name><time>2016-12-28T20:46:32Z</time></trkpt>
   <trkpt lat="30.909565" lon="34.734938"><ele>487</ele><name>TP04238</name><time>2016-12-28T20:46:37Z</time></trkpt>
   <trkpt lat="30.909528" lon="34.734931"><ele>487.4</ele><name>TP04239</name><time>2016-12-28T20:46:40Z</time></trkpt>
   <trkpt lat="30.909499" lon="34.734929"><ele>487.8</ele><name>TP04240</name><time>2016-12-28T20:46:43Z</time></trkpt>
   <trkpt lat="30.909473" lon="34.734945"><ele>488.7</ele><name>TP04241</name><time>2016-12-28T20:46:46Z</time></trkpt>
   <trkpt lat="30.909439" lon="34.734943"><ele>489.2</ele><name>TP04242</name><time>2016-12-28T20:46:49Z</time></trkpt>
   <trkpt lat="30.909411" lon="34.734937"><ele>489.5</ele><name>TP04243</name><time>2016-12-28T20:46:51Z</time></trkpt>
   <trkpt lat="30.909374" lon="34.734931"><ele>490</ele><name>TP04244</name><time>2016-12-28T20:47:03Z</time></trkpt>
   <trkpt lat="30.909341" lon="34.734943"><ele>490.9</ele><name>TP04245</name><time>2016-12-28T20:47:05Z</time></trkpt>
   <trkpt lat="30.909301" lon="34.734958"><ele>492</ele><name>TP04246</name><time>2016-12-28T20:47:07Z</time></trkpt>
   <trkpt lat="30.909269" lon="34.734966"><ele>492.8</ele><name>TP04247</name><time>2016-12-28T20:47:08Z</time></trkpt>
   <trkpt lat="30.909226" lon="34.734977"><ele>493.8</ele><name>TP04248</name><time>2016-12-28T20:47:09Z</time></trkpt>
   <trkpt lat="30.909183" lon="34.734991"><ele>495</ele><name>TP04249</name><time>2016-12-28T20:47:10Z</time></trkpt>
   <trkpt lat="30.909154" lon="34.735005"><ele>495.9</ele><name>TP04250</name><time>2016-12-28T20:47:11Z</time></trkpt>
   <trkpt lat="30.909106" lon="34.735039"><ele>497.6</ele><name>TP04251</name><time>2016-12-28T20:47:13Z</time></trkpt>
   <trkpt lat="30.909068" lon="34.735071"><ele>499.2</ele><name>TP04252</name><time>2016-12-28T20:47:14Z</time></trkpt>
   <trkpt lat="30.909037" lon="34.735108"><ele>500.7</ele><name>TP04253</name><time>2016-12-28T20:47:15Z</time></trkpt>
   <trkpt lat="30.909007" lon="34.735149"><ele>502.4</ele><name>TP04254</name><time>2016-12-28T20:47:16Z</time></trkpt>
   <trkpt lat="30.908974" lon="34.735195"><ele>504.2</ele><name>TP04255</name><time>2016-12-28T20:47:17Z</time></trkpt>
   <trkpt lat="30.90889" lon="34.735348"><ele>509.9</ele><name>TP04256</name><time>2016-12-28T20:47:19Z</time></trkpt>
   <trkpt lat="30.908874" lon="34.735391"><ele>511.3</ele><name>TP04257</name><time>2016-12-28T20:47:20Z</time></trkpt>
   <trkpt lat="30.90886" lon="34.735433"><ele>512.1</ele><name>TP04258</name><time>2016-12-28T20:47:21Z</time></trkpt>
   <trkpt lat="30.908847" lon="34.735474"><ele>511.9</ele><name>TP04259</name><time>2016-12-28T20:47:22Z</time></trkpt>
   <trkpt lat="30.908832" lon="34.735517"><ele>511.6</ele><name>TP04260</name><time>2016-12-28T20:47:23Z</time></trkpt>
   <trkpt lat="30.908813" lon="34.735551"><ele>511.6</ele><name>TP04261</name><time>2016-12-28T20:47:24Z</time></trkpt>
   <trkpt lat="30.908795" lon="34.735586"><ele>511.5</ele><name>TP04262</name><time>2016-12-28T20:47:25Z</time></trkpt>
   <trkpt lat="30.908779" lon="34.735624"><ele>511.3</ele><name>TP04263</name><time>2016-12-28T20:47:26Z</time></trkpt>
   <trkpt lat="30.908763" lon="34.735669"><ele>511.1</ele><name>TP04264</name><time>2016-12-28T20:47:27Z</time></trkpt>
   <trkpt lat="30.908738" lon="34.735709"><ele>510.8</ele><name>TP04265</name><time>2016-12-28T20:47:28Z</time></trkpt>
   <trkpt lat="30.908714" lon="34.735744"><ele>510.4</ele><name>TP04266</name><time>2016-12-28T20:47:29Z</time></trkpt>
   <trkpt lat="30.908695" lon="34.735772"><ele>510</ele><name>TP04267</name><time>2016-12-28T20:47:30Z</time></trkpt>
   <trkpt lat="30.908676" lon="34.735811"><ele>509.6</ele><name>TP04268</name><time>2016-12-28T20:47:31Z</time></trkpt>
   <trkpt lat="30.908655" lon="34.735842"><ele>509.3</ele><name>TP04269</name><time>2016-12-28T20:47:32Z</time></trkpt>
   <trkpt lat="30.908632" lon="34.735866"><ele>509.1</ele><name>TP04270</name><time>2016-12-28T20:47:33Z</time></trkpt>
   <trkpt lat="30.908607" lon="34.73589"><ele>508.9</ele><name>TP04271</name><time>2016-12-28T20:47:34Z</time></trkpt>
   <trkpt lat="30.908582" lon="34.735916"><ele>508.7</ele><name>TP04272</name><time>2016-12-28T20:47:35Z</time></trkpt>
   <trkpt lat="30.90856" lon="34.735944"><ele>508.5</ele><name>TP04273</name><time>2016-12-28T20:47:36Z</time></trkpt>
   <trkpt lat="30.908543" lon="34.735972"><ele>508.3</ele><name>TP04274</name><time>2016-12-28T20:47:37Z</time></trkpt>
   <trkpt lat="30.908526" lon="34.73603"><ele>508</ele><name>TP04275</name><time>2016-12-28T20:47:39Z</time></trkpt>
   <trkpt lat="30.908522" lon="34.736072"><ele>507.7</ele><name>TP04276</name><time>2016-12-28T20:47:41Z</time></trkpt>
   <trkpt lat="30.908517" lon="34.73612"><ele>507.5</ele><name>TP04277</name><time>2016-12-28T20:47:43Z</time></trkpt>
   <trkpt lat="30.908501" lon="34.73616"><ele>507.3</ele><name>TP04278</name><time>2016-12-28T20:47:44Z</time></trkpt>
   <trkpt lat="30.908485" lon="34.736199"><ele>507.2</ele><name>TP04279</name><time>2016-12-28T20:47:45Z</time></trkpt>
   <trkpt lat="30.908471" lon="34.736239"><ele>507.1</ele><name>TP04280</name><time>2016-12-28T20:47:46Z</time></trkpt>
   <trkpt lat="30.908458" lon="34.736281"><ele>507.3</ele><name>TP04281</name><time>2016-12-28T20:47:47Z</time></trkpt>
   <trkpt lat="30.908447" lon="34.73632"><ele>507.5</ele><name>TP04282</name><time>2016-12-28T20:47:48Z</time></trkpt>
   <trkpt lat="30.908437" lon="34.736358"><ele>507.8</ele><name>TP04283</name><time>2016-12-28T20:47:49Z</time></trkpt>
   <trkpt lat="30.908428" lon="34.736397"><ele>508.1</ele><name>TP04284</name><time>2016-12-28T20:47:50Z</time></trkpt>
   <trkpt lat="30.90842" lon="34.736437"><ele>508.4</ele><name>TP04285</name><time>2016-12-28T20:47:51Z</time></trkpt>
   <trkpt lat="30.908401" lon="34.736544"><ele>509.1</ele><name>TP04286</name><time>2016-12-28T20:47:53Z</time></trkpt>
   <trkpt lat="30.908392" lon="34.736578"><ele>509.3</ele><name>TP04287</name><time>2016-12-28T20:47:54Z</time></trkpt>
   <trkpt lat="30.908377" lon="34.736637"><ele>509.8</ele><name>TP04288</name><time>2016-12-28T20:47:56Z</time></trkpt>
   <trkpt lat="30.908374" lon="34.736672"><ele>510</ele><name>TP04289</name><time>2016-12-28T20:47:57Z</time></trkpt>
   <trkpt lat="30.908369" lon="34.736709"><ele>510.2</ele><name>TP04290</name><time>2016-12-28T20:47:58Z</time></trkpt>
   <trkpt lat="30.908364" lon="34.736744"><ele>510.4</ele><name>TP04291</name><time>2016-12-28T20:47:59Z</time></trkpt>
   <trkpt lat="30.908362" lon="34.736793"><ele>510.7</ele><name>TP04292</name><time>2016-12-28T20:48:01Z</time></trkpt>
   <trkpt lat="30.908352" lon="34.736844"><ele>511.1</ele><name>TP04293</name><time>2016-12-28T20:48:03Z</time></trkpt>
   <trkpt lat="30.908343" lon="34.736874"><ele>511.3</ele><name>TP04294</name><time>2016-12-28T20:48:04Z</time></trkpt>
   <trkpt lat="30.908328" lon="34.736919"><ele>511.7</ele><name>TP04295</name><time>2016-12-28T20:48:06Z</time></trkpt>
   <trkpt lat="30.908318" lon="34.736953"><ele>511.9</ele><name>TP04296</name><time>2016-12-28T20:48:07Z</time></trkpt>
   <trkpt lat="30.908306" lon="34.737"><ele>512.3</ele><name>TP04297</name><time>2016-12-28T20:48:08Z</time></trkpt>
   <trkpt lat="30.908294" lon="34.737045"><ele>512.6</ele><name>TP04298</name><time>2016-12-28T20:48:09Z</time></trkpt>
   <trkpt lat="30.908281" lon="34.737085"><ele>513</ele><name>TP04299</name><time>2016-12-28T20:48:10Z</time></trkpt>
   <trkpt lat="30.908268" lon="34.737124"><ele>513.5</ele><name>TP04300</name><time>2016-12-28T20:48:11Z</time></trkpt>
   <trkpt lat="30.908231" lon="34.737267"><ele>515.4</ele><name>TP04301</name><time>2016-12-28T20:48:13Z</time></trkpt>
   <trkpt lat="30.908224" lon="34.7373"><ele>515.7</ele><name>TP04302</name><time>2016-12-28T20:48:14Z</time></trkpt>
   <trkpt lat="30.90822" lon="34.737335"><ele>516.1</ele><name>TP04303</name><time>2016-12-28T20:48:15Z</time></trkpt>
   <trkpt lat="30.908211" lon="34.737368"><ele>516.5</ele><name>TP04304</name><time>2016-12-28T20:48:16Z</time></trkpt>
   <trkpt lat="30.908202" lon="34.737433"><ele>517.2</ele><name>TP04305</name><time>2016-12-28T20:48:18Z</time></trkpt>
   <trkpt lat="30.908191" lon="34.737485"><ele>517.7</ele><name>TP04306</name><time>2016-12-28T20:48:20Z</time></trkpt>
   <trkpt lat="30.908188" lon="34.737523"><ele>518.1</ele><name>TP04307</name><time>2016-12-28T20:48:22Z</time></trkpt>
   <trkpt lat="30.908186" lon="34.737567"><ele>518.5</ele><name>TP04308</name><time>2016-12-28T20:48:24Z</time></trkpt>
   <trkpt lat="30.90818" lon="34.737619"><ele>519</ele><name>TP04309</name><time>2016-12-28T20:48:26Z</time></trkpt>
   <trkpt lat="30.908178" lon="34.737678"><ele>519.5</ele><name>TP04310</name><time>2016-12-28T20:48:28Z</time></trkpt>
   <trkpt lat="30.908174" lon="34.737742"><ele>520.1</ele><name>TP04311</name><time>2016-12-28T20:48:30Z</time></trkpt>
   <trkpt lat="30.908177" lon="34.737779"><ele>520.5</ele><name>TP04312</name><time>2016-12-28T20:48:31Z</time></trkpt>
   <trkpt lat="30.908182" lon="34.737811"><ele>520.8</ele><name>TP04313</name><time>2016-12-28T20:48:32Z</time></trkpt>
   <trkpt lat="30.908191" lon="34.737845"><ele>521.3</ele><name>TP04314</name><time>2016-12-28T20:48:33Z</time></trkpt>
   <trkpt lat="30.9082" lon="34.737877"><ele>521.7</ele><name>TP04315</name><time>2016-12-28T20:48:34Z</time></trkpt>
   <trkpt lat="30.908219" lon="34.737937"><ele>522.3</ele><name>TP04316</name><time>2016-12-28T20:48:36Z</time></trkpt>
   <trkpt lat="30.908248" lon="34.737983"><ele>522.8</ele><name>TP04317</name><time>2016-12-28T20:48:38Z</time></trkpt>
   <trkpt lat="30.908279" lon="34.738026"><ele>523.2</ele><name>TP04318</name><time>2016-12-28T20:48:41Z</time></trkpt>
   <trkpt lat="30.908305" lon="34.738079"><ele>523.6</ele><name>TP04319</name><time>2016-12-28T20:48:43Z</time></trkpt>
   <trkpt lat="30.908331" lon="34.738121"><ele>523.9</ele><name>TP04320</name><time>2016-12-28T20:48:45Z</time></trkpt>
   <trkpt lat="30.908359" lon="34.738145"><ele>524.1</ele><name>TP04321</name><time>2016-12-28T20:48:47Z</time></trkpt>
   <trkpt lat="30.908399" lon="34.738169"><ele>524.4</ele><name>TP04322</name><time>2016-12-28T20:48:49Z</time></trkpt>
   <trkpt lat="30.90843" lon="34.738201"><ele>524.6</ele><name>TP04323</name><time>2016-12-28T20:48:52Z</time></trkpt>
   <trkpt lat="30.908456" lon="34.738226"><ele>524.8</ele><name>TP04324</name><time>2016-12-28T20:48:54Z</time></trkpt>
   <trkpt lat="30.908487" lon="34.738245"><ele>525</ele><name>TP04325</name><time>2016-12-28T20:48:56Z</time></trkpt>
   <trkpt lat="30.90852" lon="34.738254"><ele>525.1</ele><name>TP04326</name><time>2016-12-28T20:48:58Z</time></trkpt>
   <trkpt lat="30.90856" lon="34.738252"><ele>525.3</ele><name>TP04327</name><time>2016-12-28T20:49:00Z</time></trkpt>
   <trkpt lat="30.908601" lon="34.738245"><ele>525.6</ele><name>TP04328</name><time>2016-12-28T20:49:02Z</time></trkpt>
   <trkpt lat="30.908638" lon="34.738232"><ele>525.8</ele><name>TP04329</name><time>2016-12-28T20:49:04Z</time></trkpt>
   <trkpt lat="30.90867" lon="34.738208"><ele>526.1</ele><name>TP04330</name><time>2016-12-28T20:49:06Z</time></trkpt>
   <trkpt lat="30.9087" lon="34.738199"><ele>526.3</ele><name>TP04331</name><time>2016-12-28T20:49:08Z</time></trkpt>
   <trkpt lat="30.908745" lon="34.738194"><ele>526.6</ele><name>TP04332</name><time>2016-12-28T20:49:10Z</time></trkpt>
   <trkpt lat="30.908793" lon="34.738198"><ele>526.7</ele><name>TP04333</name><time>2016-12-28T20:49:12Z</time></trkpt>
   <trkpt lat="30.90884" lon="34.738211"><ele>526.7</ele><name>TP04334</name><time>2016-12-28T20:49:14Z</time></trkpt>
   <trkpt lat="30.908873" lon="34.73824"><ele>526.5</ele><name>TP04335</name><time>2016-12-28T20:49:16Z</time></trkpt>
   <trkpt lat="30.908864" lon="34.73828"><ele>526.3</ele><name>TP04336</name><time>2016-12-28T20:49:18Z</time></trkpt>
   <trkpt lat="30.908822" lon="34.738299"><ele>526.2</ele><name>TP04337</name><time>2016-12-28T20:49:20Z</time></trkpt>
   <trkpt lat="30.908776" lon="34.738323"><ele>526</ele><name>TP04338</name><time>2016-12-28T20:49:22Z</time></trkpt>
   <trkpt lat="30.90873" lon="34.738342"><ele>525.9</ele><name>TP04339</name><time>2016-12-28T20:49:24Z</time></trkpt>
   <trkpt lat="30.908691" lon="34.738359"><ele>525.7</ele><name>TP04340</name><time>2016-12-28T20:49:26Z</time></trkpt>
   <trkpt lat="30.908651" lon="34.738374"><ele>525.5</ele><name>TP04341</name><time>2016-12-28T20:49:28Z</time></trkpt>
   <trkpt lat="30.908623" lon="34.738384"><ele>525.3</ele><name>TP04342</name><time>2016-12-28T20:49:30Z</time></trkpt>
   <trkpt lat="30.908581" lon="34.738415"><ele>525.1</ele><name>TP04343</name><time>2016-12-28T20:49:32Z</time></trkpt>
   <trkpt lat="30.908546" lon="34.73845"><ele>525</ele><name>TP04344</name><time>2016-12-28T20:49:34Z</time></trkpt>
   <trkpt lat="30.908503" lon="34.738488"><ele>524.8</ele><name>TP04345</name><time>2016-12-28T20:49:36Z</time></trkpt>
   <trkpt lat="30.908477" lon="34.738505"><ele>524.8</ele><name>TP04346</name><time>2016-12-28T20:49:37Z</time></trkpt>
   <trkpt lat="30.908451" lon="34.738526"><ele>524.7</ele><name>TP04347</name><time>2016-12-28T20:49:38Z</time></trkpt>
   <trkpt lat="30.908421" lon="34.73855"><ele>524.7</ele><name>TP04348</name><time>2016-12-28T20:49:39Z</time></trkpt>
   <trkpt lat="30.908391" lon="34.738568"><ele>524.7</ele><name>TP04349</name><time>2016-12-28T20:49:40Z</time></trkpt>
   <trkpt lat="30.908359" lon="34.738581"><ele>524.7</ele><name>TP04350</name><time>2016-12-28T20:49:41Z</time></trkpt>
   <trkpt lat="30.90833" lon="34.738598"><ele>524.7</ele><name>TP04351</name><time>2016-12-28T20:49:42Z</time></trkpt>
   <trkpt lat="30.908301" lon="34.738623"><ele>524.8</ele><name>TP04352</name><time>2016-12-28T20:49:43Z</time></trkpt>
   <trkpt lat="30.908272" lon="34.738651"><ele>524.9</ele><name>TP04353</name><time>2016-12-28T20:49:44Z</time></trkpt>
   <trkpt lat="30.908241" lon="34.738683"><ele>525</ele><name>TP04354</name><time>2016-12-28T20:49:45Z</time></trkpt>
   <trkpt lat="30.908276" lon="34.73871"><ele>525</ele><name>TP04355</name><time>2016-12-28T20:49:48Z</time></trkpt>
   <trkpt lat="30.908284" lon="34.73875"><ele>525.1</ele><name>TP04356</name><time>2016-12-28T20:49:49Z</time></trkpt>
   <trkpt lat="30.908282" lon="34.738809"><ele>523.7</ele><name>TP04357</name><time>2016-12-28T20:49:50Z</time></trkpt>
   <trkpt lat="30.907985" lon="34.739212"><ele>517</ele><name>TP04358</name><time>2016-12-28T20:49:52Z</time></trkpt>
   <trkpt lat="30.907983" lon="34.739264"><ele>516</ele><name>TP04359</name><time>2016-12-28T20:49:53Z</time></trkpt>
   <trkpt lat="30.907984" lon="34.739316"><ele>515</ele><name>TP04360</name><time>2016-12-28T20:49:54Z</time></trkpt>
   <trkpt lat="30.907969" lon="34.739369"><ele>514.2</ele><name>TP04361</name><time>2016-12-28T20:49:55Z</time></trkpt>
   <trkpt lat="30.90795" lon="34.739415"><ele>513.6</ele><name>TP04362</name><time>2016-12-28T20:49:56Z</time></trkpt>
   <trkpt lat="30.90793" lon="34.739466"><ele>512.9</ele><name>TP04363</name><time>2016-12-28T20:49:57Z</time></trkpt>
   <trkpt lat="30.907899" lon="34.739512"><ele>512</ele><name>TP04364</name><time>2016-12-28T20:49:58Z</time></trkpt>
   <trkpt lat="30.907883" lon="34.739565"><ele>510.8</ele><name>TP04365</name><time>2016-12-28T20:49:59Z</time></trkpt>
   <trkpt lat="30.907867" lon="34.739622"><ele>509.9</ele><name>TP04366</name><time>2016-12-28T20:50:00Z</time></trkpt>
   <trkpt lat="30.90785" lon="34.739686"><ele>509.1</ele><name>TP04367</name><time>2016-12-28T20:50:01Z</time></trkpt>
   <trkpt lat="30.907827" lon="34.739744"><ele>508.2</ele><name>TP04368</name><time>2016-12-28T20:50:02Z</time></trkpt>
   <trkpt lat="30.907803" lon="34.7398"><ele>507.5</ele><name>TP04369</name><time>2016-12-28T20:50:03Z</time></trkpt>
   <trkpt lat="30.907793" lon="34.739858"><ele>506.9</ele><name>TP04370</name><time>2016-12-28T20:50:04Z</time></trkpt>
   <trkpt lat="30.907769" lon="34.739906"><ele>506.3</ele><name>TP04371</name><time>2016-12-28T20:50:05Z</time></trkpt>
   <trkpt lat="30.907755" lon="34.739949"><ele>505.8</ele><name>TP04372</name><time>2016-12-28T20:50:06Z</time></trkpt>
   <trkpt lat="30.907748" lon="34.739995"><ele>505.4</ele><name>TP04373</name><time>2016-12-28T20:50:07Z</time></trkpt>
   <trkpt lat="30.907734" lon="34.740038"><ele>505</ele><name>TP04374</name><time>2016-12-28T20:50:08Z</time></trkpt>
   <trkpt lat="30.907724" lon="34.740077"><ele>504.7</ele><name>TP04375</name><time>2016-12-28T20:50:09Z</time></trkpt>
   <trkpt lat="30.907714" lon="34.740117"><ele>504.3</ele><name>TP04376</name><time>2016-12-28T20:50:10Z</time></trkpt>
   <trkpt lat="30.907695" lon="34.740153"><ele>504</ele><name>TP04377</name><time>2016-12-28T20:50:11Z</time></trkpt>
   <trkpt lat="30.907679" lon="34.740182"><ele>503.8</ele><name>TP04378</name><time>2016-12-28T20:50:12Z</time></trkpt>
   <trkpt lat="30.907663" lon="34.740214"><ele>503.5</ele><name>TP04379</name><time>2016-12-28T20:50:13Z</time></trkpt>
   <trkpt lat="30.90765" lon="34.740257"><ele>503.2</ele><name>TP04380</name><time>2016-12-28T20:50:15Z</time></trkpt>
   <trkpt lat="30.907633" lon="34.740294"><ele>503</ele><name>TP04381</name><time>2016-12-28T20:50:17Z</time></trkpt>
   <trkpt lat="30.90762" lon="34.740328"><ele>502.8</ele><name>TP04382</name><time>2016-12-28T20:50:19Z</time></trkpt>
   <trkpt lat="30.907614" lon="34.740374"><ele>502.6</ele><name>TP04383</name><time>2016-12-28T20:50:20Z</time></trkpt>
   <trkpt lat="30.907608" lon="34.740421"><ele>502.4</ele><name>TP04384</name><time>2016-12-28T20:50:21Z</time></trkpt>
   <trkpt lat="30.907602" lon="34.740468"><ele>502.9</ele><name>TP04385</name><time>2016-12-28T20:50:22Z</time></trkpt>
   <trkpt lat="30.907594" lon="34.740511"><ele>503.4</ele><name>TP04386</name><time>2016-12-28T20:50:23Z</time></trkpt>
   <trkpt lat="30.907586" lon="34.740552"><ele>503.9</ele><name>TP04387</name><time>2016-12-28T20:50:24Z</time></trkpt>
   <trkpt lat="30.907575" lon="34.740589"><ele>504.3</ele><name>TP04388</name><time>2016-12-28T20:50:25Z</time></trkpt>
   <trkpt lat="30.907565" lon="34.740624"><ele>504.6</ele><name>TP04389</name><time>2016-12-28T20:50:26Z</time></trkpt>
   <trkpt lat="30.907547" lon="34.740733"><ele>505.8</ele><name>TP04390</name><time>2016-12-28T20:50:28Z</time></trkpt>
   <trkpt lat="30.907545" lon="34.740785"><ele>506.3</ele><name>TP04391</name><time>2016-12-28T20:50:30Z</time></trkpt>
   <trkpt lat="30.90753" lon="34.74083"><ele>506.8</ele><name>TP04392</name><time>2016-12-28T20:50:32Z</time></trkpt>
   <trkpt lat="30.90753" lon="34.740873"><ele>507.2</ele><name>TP04393</name><time>2016-12-28T20:50:34Z</time></trkpt>
   <trkpt lat="30.907546" lon="34.740904"><ele>507.6</ele><name>TP04394</name><time>2016-12-28T20:50:36Z</time></trkpt>
   <trkpt lat="30.907554" lon="34.740937"><ele>507.9</ele><name>TP04395</name><time>2016-12-28T20:50:38Z</time></trkpt>
   <trkpt lat="30.907567" lon="34.740967"><ele>508.3</ele><name>TP04396</name><time>2016-12-28T20:50:40Z</time></trkpt>
   <trkpt lat="30.907577" lon="34.74101"><ele>508.8</ele><name>TP04397</name><time>2016-12-28T20:50:43Z</time></trkpt>
   <trkpt lat="30.907557" lon="34.741042"><ele>509.1</ele><name>TP04398</name><time>2016-12-28T20:50:46Z</time></trkpt>
   <trkpt lat="30.907543" lon="34.741076"><ele>509.4</ele><name>TP04399</name><time>2016-12-28T20:50:50Z</time></trkpt>
   <trkpt lat="30.907556" lon="34.741108"><ele>509.8</ele><name>TP04400</name><time>2016-12-28T20:50:54Z</time></trkpt>
   <trkpt lat="30.907589" lon="34.741112"><ele>509.9</ele><name>TP04401</name><time>2016-12-28T20:50:58Z</time></trkpt>
   <trkpt lat="30.907601" lon="34.741148"><ele>510.4</ele><name>TP04402</name><time>2016-12-28T20:51:04Z</time></trkpt>
   <trkpt lat="30.907598" lon="34.741187"><ele>510.8</ele><name>TP04403</name><time>2016-12-28T20:51:08Z</time></trkpt>
   <trkpt lat="30.907595" lon="34.74122"><ele>511.1</ele><name>TP04404</name><time>2016-12-28T20:51:12Z</time></trkpt>
   <trkpt lat="30.907602" lon="34.741253"><ele>511.5</ele><name>TP04405</name><time>2016-12-28T20:51:16Z</time></trkpt>
   <trkpt lat="30.907617" lon="34.741282"><ele>512</ele><name>TP04406</name><time>2016-12-28T20:51:19Z</time></trkpt>
   <trkpt lat="30.907639" lon="34.7413"><ele>512.3</ele><name>TP04407</name><time>2016-12-28T20:51:24Z</time></trkpt>
   <trkpt lat="30.907652" lon="34.741342"><ele>512.9</ele><name>TP04408</name><time>2016-12-28T20:51:29Z</time></trkpt>
   <trkpt lat="30.907654" lon="34.741385"><ele>513.5</ele><name>TP04409</name><time>2016-12-28T20:51:32Z</time></trkpt>
   <trkpt lat="30.907663" lon="34.741416"><ele>514</ele><name>TP04410</name><time>2016-12-28T20:51:34Z</time></trkpt>
   <trkpt lat="30.907675" lon="34.74145"><ele>514.5</ele><name>TP04411</name><time>2016-12-28T20:51:36Z</time></trkpt>
   <trkpt lat="30.907686" lon="34.741487"><ele>515</ele><name>TP04412</name><time>2016-12-28T20:51:38Z</time></trkpt>
   <trkpt lat="30.907699" lon="34.741528"><ele>515.6</ele><name>TP04413</name><time>2016-12-28T20:51:40Z</time></trkpt>
   <trkpt lat="30.907718" lon="34.741573"><ele>516.3</ele><name>TP04414</name><time>2016-12-28T20:51:42Z</time></trkpt>
   <trkpt lat="30.907736" lon="34.741623"><ele>517.1</ele><name>TP04415</name><time>2016-12-28T20:51:44Z</time></trkpt>
   <trkpt lat="30.907749" lon="34.741673"><ele>517.8</ele><name>TP04416</name><time>2016-12-28T20:51:46Z</time></trkpt>
   <trkpt lat="30.90776" lon="34.741729"><ele>518.6</ele><name>TP04417</name><time>2016-12-28T20:51:48Z</time></trkpt>
   <trkpt lat="30.907769" lon="34.741784"><ele>519.3</ele><name>TP04418</name><time>2016-12-28T20:51:50Z</time></trkpt>
   <trkpt lat="30.907775" lon="34.741837"><ele>520.1</ele><name>TP04419</name><time>2016-12-28T20:51:52Z</time></trkpt>
   <trkpt lat="30.907779" lon="34.741869"><ele>520.5</ele><name>TP04420</name><time>2016-12-28T20:51:53Z</time></trkpt>
   <trkpt lat="30.907781" lon="34.741922"><ele>521.2</ele><name>TP04421</name><time>2016-12-28T20:51:55Z</time></trkpt>
   <trkpt lat="30.907784" lon="34.741975"><ele>521.9</ele><name>TP04422</name><time>2016-12-28T20:51:57Z</time></trkpt>
   <trkpt lat="30.907778" lon="34.742032"><ele>522.7</ele><name>TP04423</name><time>2016-12-28T20:51:59Z</time></trkpt>
   <trkpt lat="30.907771" lon="34.742063"><ele>523</ele><name>TP04424</name><time>2016-12-28T20:52:00Z</time></trkpt>
   <trkpt lat="30.90776" lon="34.742097"><ele>523.4</ele><name>TP04425</name><time>2016-12-28T20:52:01Z</time></trkpt>
   <trkpt lat="30.907746" lon="34.742129"><ele>523.6</ele><name>TP04426</name><time>2016-12-28T20:52:02Z</time></trkpt>
   <trkpt lat="30.90773" lon="34.742162"><ele>523.8</ele><name>TP04427</name><time>2016-12-28T20:52:03Z</time></trkpt>
   <trkpt lat="30.907713" lon="34.742195"><ele>524</ele><name>TP04428</name><time>2016-12-28T20:52:04Z</time></trkpt>
   <trkpt lat="30.907689" lon="34.742221"><ele>524.1</ele><name>TP04429</name><time>2016-12-28T20:52:06Z</time></trkpt>
   <trkpt lat="30.907659" lon="34.74226"><ele>524.3</ele><name>TP04430</name><time>2016-12-28T20:52:08Z</time></trkpt>
   <trkpt lat="30.907639" lon="34.742293"><ele>524.4</ele><name>TP04431</name><time>2016-12-28T20:52:09Z</time></trkpt>
   <trkpt lat="30.907617" lon="34.742329"><ele>524.6</ele><name>TP04432</name><time>2016-12-28T20:52:10Z</time></trkpt>
   <trkpt lat="30.907592" lon="34.742367"><ele>524.8</ele><name>TP04433</name><time>2016-12-28T20:52:11Z</time></trkpt>
   <trkpt lat="30.907564" lon="34.742406"><ele>524.9</ele><name>TP04434</name><time>2016-12-28T20:52:12Z</time></trkpt>
   <trkpt lat="30.907538" lon="34.742444"><ele>525.1</ele><name>TP04435</name><time>2016-12-28T20:52:13Z</time></trkpt>
   <trkpt lat="30.907508" lon="34.742477"><ele>525.1</ele><name>TP04436</name><time>2016-12-28T20:52:14Z</time></trkpt>
   <trkpt lat="30.907476" lon="34.74251"><ele>525.2</ele><name>TP04437</name><time>2016-12-28T20:52:15Z</time></trkpt>
   <trkpt lat="30.907445" lon="34.742542"><ele>525.2</ele><name>TP04438</name><time>2016-12-28T20:52:16Z</time></trkpt>
   <trkpt lat="30.907403" lon="34.74257"><ele>525.1</ele><name>TP04439</name><time>2016-12-28T20:52:18Z</time></trkpt>
   <trkpt lat="30.907378" lon="34.742593"><ele>525.1</ele><name>TP04440</name><time>2016-12-28T20:52:19Z</time></trkpt>
   <trkpt lat="30.907357" lon="34.742619"><ele>525.2</ele><name>TP04441</name><time>2016-12-28T20:52:20Z</time></trkpt>
   <trkpt lat="30.907326" lon="34.742666"><ele>525.3</ele><name>TP04442</name><time>2016-12-28T20:52:21Z</time></trkpt>
   <trkpt lat="30.907302" lon="34.742711"><ele>525.4</ele><name>TP04443</name><time>2016-12-28T20:52:22Z</time></trkpt>
   <trkpt lat="30.907275" lon="34.742754"><ele>525.5</ele><name>TP04444</name><time>2016-12-28T20:52:23Z</time></trkpt>
   <trkpt lat="30.907248" lon="34.742786"><ele>525.5</ele><name>TP04445</name><time>2016-12-28T20:52:24Z</time></trkpt>
   <trkpt lat="30.907227" lon="34.742819"><ele>525.6</ele><name>TP04446</name><time>2016-12-28T20:52:25Z</time></trkpt>
   <trkpt lat="30.907208" lon="34.742854"><ele>525.6</ele><name>TP04447</name><time>2016-12-28T20:52:26Z</time></trkpt>
   <trkpt lat="30.907192" lon="34.742882"><ele>525.7</ele><name>TP04448</name><time>2016-12-28T20:52:27Z</time></trkpt>
   <trkpt lat="30.907178" lon="34.742911"><ele>525.8</ele><name>TP04449</name><time>2016-12-28T20:52:28Z</time></trkpt>
   <trkpt lat="30.907168" lon="34.742942"><ele>526.1</ele><name>TP04450</name><time>2016-12-28T20:52:29Z</time></trkpt>
   <trkpt lat="30.907149" lon="34.74299"><ele>526.6</ele><name>TP04451</name><time>2016-12-28T20:52:31Z</time></trkpt>
   <trkpt lat="30.907128" lon="34.743032"><ele>527</ele><name>TP04452</name><time>2016-12-28T20:52:33Z</time></trkpt>
   <trkpt lat="30.907119" lon="34.743078"><ele>527.6</ele><name>TP04453</name><time>2016-12-28T20:52:35Z</time></trkpt>
   <trkpt lat="30.907123" lon="34.74312"><ele>528.2</ele><name>TP04454</name><time>2016-12-28T20:52:37Z</time></trkpt>
   <trkpt lat="30.907126" lon="34.743166"><ele>528.9</ele><name>TP04455</name><time>2016-12-28T20:52:39Z</time></trkpt>
   <trkpt lat="30.907134" lon="34.743211"><ele>529.6</ele><name>TP04456</name><time>2016-12-28T20:52:41Z</time></trkpt>
   <trkpt lat="30.907141" lon="34.743253"><ele>530.3</ele><name>TP04457</name><time>2016-12-28T20:52:43Z</time></trkpt>
   <trkpt lat="30.907152" lon="34.743296"><ele>531</ele><name>TP04458</name><time>2016-12-28T20:52:45Z</time></trkpt>
   <trkpt lat="30.907161" lon="34.743338"><ele>531.7</ele><name>TP04459</name><time>2016-12-28T20:52:47Z</time></trkpt>
   <trkpt lat="30.90716" lon="34.743385"><ele>532.3</ele><name>TP04460</name><time>2016-12-28T20:52:49Z</time></trkpt>
   <trkpt lat="30.907165" lon="34.743422"><ele>532.9</ele><name>TP04461</name><time>2016-12-28T20:52:51Z</time></trkpt>
   <trkpt lat="30.907181" lon="34.743456"><ele>533.5</ele><name>TP04462</name><time>2016-12-28T20:52:53Z</time></trkpt>
   <trkpt lat="30.907188" lon="34.74349"><ele>534</ele><name>TP04463</name><time>2016-12-28T20:52:55Z</time></trkpt>
   <trkpt lat="30.907198" lon="34.743537"><ele>534.8</ele><name>TP04464</name><time>2016-12-28T20:52:57Z</time></trkpt>
   <trkpt lat="30.907216" lon="34.743587"><ele>535.6</ele><name>TP04465</name><time>2016-12-28T20:52:59Z</time></trkpt>
   <trkpt lat="30.907232" lon="34.743629"><ele>536.4</ele><name>TP04466</name><time>2016-12-28T20:53:01Z</time></trkpt>
   <trkpt lat="30.907245" lon="34.743669"><ele>537</ele><name>TP04467</name><time>2016-12-28T20:53:03Z</time></trkpt>
   <trkpt lat="30.907244" lon="34.743719"><ele>537.7</ele><name>TP04468</name><time>2016-12-28T20:53:05Z</time></trkpt>
   <trkpt lat="30.907244" lon="34.743762"><ele>538.3</ele><name>TP04469</name><time>2016-12-28T20:53:07Z</time></trkpt>
   <trkpt lat="30.907239" lon="34.743801"><ele>538.5</ele><name>TP04470</name><time>2016-12-28T20:53:09Z</time></trkpt>
   <trkpt lat="30.907243" lon="34.743842"><ele>538.9</ele><name>TP04471</name><time>2016-12-28T20:53:11Z</time></trkpt>
   <trkpt lat="30.907254" lon="34.743877"><ele>539.2</ele><name>TP04472</name><time>2016-12-28T20:53:13Z</time></trkpt>
   <trkpt lat="30.907264" lon="34.743913"><ele>539.6</ele><name>TP04473</name><time>2016-12-28T20:53:15Z</time></trkpt>
   <trkpt lat="30.907279" lon="34.743964"><ele>540.1</ele><name>TP04474</name><time>2016-12-28T20:53:17Z</time></trkpt>
   <trkpt lat="30.907289" lon="34.744002"><ele>540.5</ele><name>TP04475</name><time>2016-12-28T20:53:20Z</time></trkpt>
   <trkpt lat="30.907298" lon="34.744033"><ele>540.8</ele><name>TP04476</name><time>2016-12-28T20:53:21Z</time></trkpt>
   <trkpt lat="30.907312" lon="34.744087"><ele>541.4</ele><name>TP04477</name><time>2016-12-28T20:53:23Z</time></trkpt>
   <trkpt lat="30.907321" lon="34.744131"><ele>541.8</ele><name>TP04478</name><time>2016-12-28T20:53:25Z</time></trkpt>
   <trkpt lat="30.907332" lon="34.744181"><ele>542.4</ele><name>TP04479</name><time>2016-12-28T20:53:27Z</time></trkpt>
   <trkpt lat="30.907337" lon="34.744229"><ele>542.8</ele><name>TP04480</name><time>2016-12-28T20:53:29Z</time></trkpt>
   <trkpt lat="30.907344" lon="34.744275"><ele>543.2</ele><name>TP04481</name><time>2016-12-28T20:53:31Z</time></trkpt>
   <trkpt lat="30.907355" lon="34.744317"><ele>543.7</ele><name>TP04482</name><time>2016-12-28T20:53:33Z</time></trkpt>
   <trkpt lat="30.907378" lon="34.744364"><ele>544.3</ele><name>TP04483</name><time>2016-12-28T20:53:35Z</time></trkpt>
   <trkpt lat="30.907405" lon="34.744412"><ele>545</ele><name>TP04484</name><time>2016-12-28T20:53:37Z</time></trkpt>
   <trkpt lat="30.907434" lon="34.744462"><ele>545.7</ele><name>TP04485</name><time>2016-12-28T20:53:39Z</time></trkpt>
   <trkpt lat="30.907458" lon="34.744512"><ele>546.4</ele><name>TP04486</name><time>2016-12-28T20:53:41Z</time></trkpt>
   <trkpt lat="30.907478" lon="34.744553"><ele>547</ele><name>TP04487</name><time>2016-12-28T20:53:43Z</time></trkpt>
   <trkpt lat="30.9075" lon="34.744588"><ele>547.5</ele><name>TP04488</name><time>2016-12-28T20:53:45Z</time></trkpt>
   <trkpt lat="30.907523" lon="34.744626"><ele>547.4</ele><name>TP04489</name><time>2016-12-28T20:53:47Z</time></trkpt>
   <trkpt lat="30.907553" lon="34.744666"><ele>547.4</ele><name>TP04490</name><time>2016-12-28T20:53:49Z</time></trkpt>
   <trkpt lat="30.90758" lon="34.744702"><ele>547.4</ele><name>TP04491</name><time>2016-12-28T20:53:51Z</time></trkpt>
   <trkpt lat="30.907621" lon="34.744722"><ele>547.7</ele><name>TP04492</name><time>2016-12-28T20:53:53Z</time></trkpt>
   <trkpt lat="30.907671" lon="34.744737"><ele>548.1</ele><name>TP04493</name><time>2016-12-28T20:53:55Z</time></trkpt>
   <trkpt lat="30.907716" lon="34.744764"><ele>548.4</ele><name>TP04494</name><time>2016-12-28T20:53:57Z</time></trkpt>
   <trkpt lat="30.907761" lon="34.744776"><ele>548.7</ele><name>TP04495</name><time>2016-12-28T20:53:59Z</time></trkpt>
   <trkpt lat="30.907802" lon="34.7448"><ele>549</ele><name>TP04496</name><time>2016-12-28T20:54:01Z</time></trkpt>
   <trkpt lat="30.907828" lon="34.744838"><ele>548.9</ele><name>TP04497</name><time>2016-12-28T20:54:03Z</time></trkpt>
   <trkpt lat="30.907847" lon="34.744873"><ele>548.8</ele><name>TP04498</name><time>2016-12-28T20:54:05Z</time></trkpt>
   <trkpt lat="30.907868" lon="34.74491"><ele>548.8</ele><name>TP04499</name><time>2016-12-28T20:54:07Z</time></trkpt>
   <trkpt lat="30.907892" lon="34.744949"><ele>548.7</ele><name>TP04500</name><time>2016-12-28T20:54:09Z</time></trkpt>
   <trkpt lat="30.907907" lon="34.744978"><ele>548.6</ele><name>TP04501</name><time>2016-12-28T20:54:11Z</time></trkpt>
   <trkpt lat="30.907916" lon="34.745029"><ele>548.2</ele><name>TP04502</name><time>2016-12-28T20:54:13Z</time></trkpt>
   <trkpt lat="30.907923" lon="34.745076"><ele>547.7</ele><name>TP04503</name><time>2016-12-28T20:54:15Z</time></trkpt>
   <trkpt lat="30.907944" lon="34.745128"><ele>546.9</ele><name>TP04504</name><time>2016-12-28T20:54:17Z</time></trkpt>
   <trkpt lat="30.907951" lon="34.745161"><ele>546.5</ele><name>TP04505</name><time>2016-12-28T20:54:18Z</time></trkpt>
   <trkpt lat="30.907954" lon="34.745196"><ele>546.1</ele><name>TP04506</name><time>2016-12-28T20:54:19Z</time></trkpt>
   <trkpt lat="30.907948" lon="34.745229"><ele>545.9</ele><name>TP04507</name><time>2016-12-28T20:54:20Z</time></trkpt>
   <trkpt lat="30.907946" lon="34.745267"><ele>545.6</ele><name>TP04508</name><time>2016-12-28T20:54:21Z</time></trkpt>
   <trkpt lat="30.90795" lon="34.745305"><ele>545.2</ele><name>TP04509</name><time>2016-12-28T20:54:22Z</time></trkpt>
   <trkpt lat="30.907959" lon="34.745351"><ele>544.6</ele><name>TP04510</name><time>2016-12-28T20:54:23Z</time></trkpt>
   <trkpt lat="30.90797" lon="34.745396"><ele>543.9</ele><name>TP04511</name><time>2016-12-28T20:54:24Z</time></trkpt>
   <trkpt lat="30.907983" lon="34.745432"><ele>543.3</ele><name>TP04512</name><time>2016-12-28T20:54:25Z</time></trkpt>
   <trkpt lat="30.908005" lon="34.745478"><ele>542.4</ele><name>TP04513</name><time>2016-12-28T20:54:26Z</time></trkpt>
   <trkpt lat="30.908045" lon="34.745551"><ele>541</ele><name>TP04514</name><time>2016-12-28T20:54:27Z</time></trkpt>
   <trkpt lat="30.908087" lon="34.745615"><ele>539.8</ele><name>TP04515</name><time>2016-12-28T20:54:28Z</time></trkpt>
   <trkpt lat="30.908124" lon="34.745674"><ele>538.8</ele><name>TP04516</name><time>2016-12-28T20:54:29Z</time></trkpt>
   <trkpt lat="30.908156" lon="34.745731"><ele>538</ele><name>TP04517</name><time>2016-12-28T20:54:30Z</time></trkpt>
   <trkpt lat="30.908185" lon="34.745786"><ele>537.3</ele><name>TP04518</name><time>2016-12-28T20:54:31Z</time></trkpt>
   <trkpt lat="30.908207" lon="34.745838"><ele>536.8</ele><name>TP04519</name><time>2016-12-28T20:54:32Z</time></trkpt>
   <trkpt lat="30.908214" lon="34.745934"><ele>536.4</ele><name>TP04520</name><time>2016-12-28T20:54:33Z</time></trkpt>
   <trkpt lat="30.908247" lon="34.746046"><ele>535.8</ele><name>TP04521</name><time>2016-12-28T20:54:35Z</time></trkpt>
   <trkpt lat="30.908255" lon="34.746095"><ele>535.7</ele><name>TP04522</name><time>2016-12-28T20:54:36Z</time></trkpt>
   <trkpt lat="30.908269" lon="34.746136"><ele>535.5</ele><name>TP04523</name><time>2016-12-28T20:54:37Z</time></trkpt>
   <trkpt lat="30.908307" lon="34.746161"><ele>535.2</ele><name>TP04524</name><time>2016-12-28T20:54:38Z</time></trkpt>
   <trkpt lat="30.908333" lon="34.746196"><ele>535</ele><name>TP04525</name><time>2016-12-28T20:54:39Z</time></trkpt>
   <trkpt lat="30.908365" lon="34.746223"><ele>534.8</ele><name>TP04526</name><time>2016-12-28T20:54:40Z</time></trkpt>
   <trkpt lat="30.908389" lon="34.74626"><ele>534.8</ele><name>TP04527</name><time>2016-12-28T20:54:41Z</time></trkpt>
   <trkpt lat="30.908416" lon="34.74629"><ele>534.8</ele><name>TP04528</name><time>2016-12-28T20:54:43Z</time></trkpt>
   <trkpt lat="30.90844" lon="34.746308"><ele>534.9</ele><name>TP04529</name><time>2016-12-28T20:54:45Z</time></trkpt>
   <trkpt lat="30.908485" lon="34.746335"><ele>534.9</ele><name>TP04530</name><time>2016-12-28T20:54:47Z</time></trkpt>
   <trkpt lat="30.90852" lon="34.74636"><ele>534.9</ele><name>TP04531</name><time>2016-12-28T20:54:48Z</time></trkpt>
   <trkpt lat="30.908556" lon="34.746379"><ele>535</ele><name>TP04532</name><time>2016-12-28T20:54:49Z</time></trkpt>
   <trkpt lat="30.908591" lon="34.746395"><ele>535</ele><name>TP04533</name><time>2016-12-28T20:54:50Z</time></trkpt>
   <trkpt lat="30.908618" lon="34.746405"><ele>535</ele><name>TP04534</name><time>2016-12-28T20:54:51Z</time></trkpt>
   <trkpt lat="30.908656" lon="34.746407"><ele>534.9</ele><name>TP04535</name><time>2016-12-28T20:54:53Z</time></trkpt>
   <trkpt lat="30.908689" lon="34.746401"><ele>534.8</ele><name>TP04536</name><time>2016-12-28T20:54:54Z</time></trkpt>
   <trkpt lat="30.908717" lon="34.746393"><ele>534.6</ele><name>TP04537</name><time>2016-12-28T20:54:55Z</time></trkpt>
   <trkpt lat="30.908751" lon="34.746376"><ele>534.4</ele><name>TP04538</name><time>2016-12-28T20:54:57Z</time></trkpt>
   <trkpt lat="30.908778" lon="34.746358"><ele>534.1</ele><name>TP04539</name><time>2016-12-28T20:54:58Z</time></trkpt>
   <trkpt lat="30.908801" lon="34.746338"><ele>533.9</ele><name>TP04540</name><time>2016-12-28T20:54:59Z</time></trkpt>
   <trkpt lat="30.908842" lon="34.746299"><ele>533.6</ele><name>TP04541</name><time>2016-12-28T20:55:01Z</time></trkpt>
   <trkpt lat="30.908865" lon="34.746282"><ele>533.4</ele><name>TP04542</name><time>2016-12-28T20:55:02Z</time></trkpt>
   <trkpt lat="30.908895" lon="34.746265"><ele>533.3</ele><name>TP04543</name><time>2016-12-28T20:55:03Z</time></trkpt>
   <trkpt lat="30.908925" lon="34.746255"><ele>533.2</ele><name>TP04544</name><time>2016-12-28T20:55:04Z</time></trkpt>
   <trkpt lat="30.908954" lon="34.746253"><ele>533.3</ele><name>TP04545</name><time>2016-12-28T20:55:05Z</time></trkpt>
   <trkpt lat="30.908987" lon="34.746255"><ele>533.3</ele><name>TP04546</name><time>2016-12-28T20:55:06Z</time></trkpt>
   <trkpt lat="30.909018" lon="34.746261"><ele>533.4</ele><name>TP04547</name><time>2016-12-28T20:55:07Z</time></trkpt>
   <trkpt lat="30.909049" lon="34.746269"><ele>533.5</ele><name>TP04548</name><time>2016-12-28T20:55:08Z</time></trkpt>
   <trkpt lat="30.90908" lon="34.746276"><ele>533.5</ele><name>TP04549</name><time>2016-12-28T20:55:09Z</time></trkpt>
   <trkpt lat="30.909113" lon="34.746282"><ele>533.6</ele><name>TP04550</name><time>2016-12-28T20:55:10Z</time></trkpt>
   <trkpt lat="30.909152" lon="34.746287"><ele>533.6</ele><name>TP04551</name><time>2016-12-28T20:55:11Z</time></trkpt>
   <trkpt lat="30.909183" lon="34.746287"><ele>533.6</ele><name>TP04552</name><time>2016-12-28T20:55:12Z</time></trkpt>
   <trkpt lat="30.909215" lon="34.746283"><ele>533.6</ele><name>TP04553</name><time>2016-12-28T20:55:13Z</time></trkpt>
   <trkpt lat="30.909243" lon="34.746275"><ele>533.6</ele><name>TP04554</name><time>2016-12-28T20:55:14Z</time></trkpt>
   <trkpt lat="30.909272" lon="34.746264"><ele>533.6</ele><name>TP04555</name><time>2016-12-28T20:55:15Z</time></trkpt>
   <trkpt lat="30.909322" lon="34.746239"><ele>533.5</ele><name>TP04556</name><time>2016-12-28T20:55:17Z</time></trkpt>
   <trkpt lat="30.909367" lon="34.746206"><ele>532.8</ele><name>TP04557</name><time>2016-12-28T20:55:19Z</time></trkpt>
   <trkpt lat="30.909391" lon="34.746187"><ele>532.5</ele><name>TP04558</name><time>2016-12-28T20:55:20Z</time></trkpt>
   <trkpt lat="30.909419" lon="34.746168"><ele>532.1</ele><name>TP04559</name><time>2016-12-28T20:55:21Z</time></trkpt>
   <trkpt lat="30.909461" lon="34.746149"><ele>531.6</ele><name>TP04560</name><time>2016-12-28T20:55:24Z</time></trkpt>
   <trkpt lat="30.909489" lon="34.746126"><ele>531.1</ele><name>TP04561</name><time>2016-12-28T20:55:25Z</time></trkpt>
   <trkpt lat="30.90954" lon="34.746097"><ele>530.4</ele><name>TP04562</name><time>2016-12-28T20:55:27Z</time></trkpt>
   <trkpt lat="30.909593" lon="34.74608"><ele>529.8</ele><name>TP04563</name><time>2016-12-28T20:55:29Z</time></trkpt>
   <trkpt lat="30.909623" lon="34.746071"><ele>529.3</ele><name>TP04564</name><time>2016-12-28T20:55:30Z</time></trkpt>
   <trkpt lat="30.909654" lon="34.746064"><ele>528.9</ele><name>TP04565</name><time>2016-12-28T20:55:31Z</time></trkpt>
   <trkpt lat="30.909686" lon="34.746062"><ele>528.6</ele><name>TP04566</name><time>2016-12-28T20:55:32Z</time></trkpt>
   <trkpt lat="30.909713" lon="34.746096"><ele>529</ele><name>TP04567</name><time>2016-12-28T20:55:34Z</time></trkpt>
   <trkpt lat="30.909706" lon="34.746128"><ele>529.7</ele><name>TP04568</name><time>2016-12-28T20:55:38Z</time></trkpt>
   <trkpt lat="30.909697" lon="34.746158"><ele>530.5</ele><name>TP04569</name><time>2016-12-28T20:55:41Z</time></trkpt>
   <trkpt lat="30.909674" lon="34.746187"><ele>531.3</ele><name>TP04570</name><time>2016-12-28T20:55:45Z</time></trkpt>
   <trkpt lat="30.909648" lon="34.746208"><ele>532.1</ele><name>TP04571</name><time>2016-12-28T20:55:47Z</time></trkpt>
   <trkpt lat="30.909617" lon="34.746227"><ele>533</ele><name>TP04572</name><time>2016-12-28T20:55:49Z</time></trkpt>
   <trkpt lat="30.909571" lon="34.746249"><ele>534</ele><name>TP04573</name><time>2016-12-28T20:55:51Z</time></trkpt>
   <trkpt lat="30.909533" lon="34.746254"><ele>533.9</ele><name>TP04574</name><time>2016-12-28T20:55:53Z</time></trkpt>
   <trkpt lat="30.909482" lon="34.746254"><ele>533.9</ele><name>TP04575</name><time>2016-12-28T20:55:55Z</time></trkpt>
   <trkpt lat="30.909456" lon="34.746257"><ele>533.8</ele><name>TP04576</name><time>2016-12-28T20:55:56Z</time></trkpt>
   <trkpt lat="30.90943" lon="34.746269"><ele>533.8</ele><name>TP04577</name><time>2016-12-28T20:55:57Z</time></trkpt>
   <trkpt lat="30.909406" lon="34.746287"><ele>533.7</ele><name>TP04578</name><time>2016-12-28T20:55:58Z</time></trkpt>
   <trkpt lat="30.909364" lon="34.746289"><ele>533.7</ele><name>TP04579</name><time>2016-12-28T20:56:00Z</time></trkpt>
   <trkpt lat="30.909336" lon="34.746278"><ele>533.7</ele><name>TP04580</name><time>2016-12-28T20:56:02Z</time></trkpt>
   <trkpt lat="30.909305" lon="34.746288"><ele>533.7</ele><name>TP04581</name><time>2016-12-28T20:56:03Z</time></trkpt>
   <trkpt lat="30.909276" lon="34.746303"><ele>533.7</ele><name>TP04582</name><time>2016-12-28T20:56:04Z</time></trkpt>
   <trkpt lat="30.909247" lon="34.74632"><ele>533.7</ele><name>TP04583</name><time>2016-12-28T20:56:05Z</time></trkpt>
   <trkpt lat="30.909219" lon="34.746343"><ele>533.8</ele><name>TP04584</name><time>2016-12-28T20:56:06Z</time></trkpt>
   <trkpt lat="30.909196" lon="34.746371"><ele>533.8</ele><name>TP04585</name><time>2016-12-28T20:56:07Z</time></trkpt>
   <trkpt lat="30.909171" lon="34.746398"><ele>533.9</ele><name>TP04586</name><time>2016-12-28T20:56:08Z</time></trkpt>
   <trkpt lat="30.909147" lon="34.746423"><ele>534.1</ele><name>TP04587</name><time>2016-12-28T20:56:09Z</time></trkpt>
   <trkpt lat="30.90912" lon="34.746454"><ele>534.2</ele><name>TP04588</name><time>2016-12-28T20:56:10Z</time></trkpt>
   <trkpt lat="30.909097" lon="34.746489"><ele>534.4</ele><name>TP04589</name><time>2016-12-28T20:56:11Z</time></trkpt>
   <trkpt lat="30.909078" lon="34.746528"><ele>534.7</ele><name>TP04590</name><time>2016-12-28T20:56:12Z</time></trkpt>
   <trkpt lat="30.909053" lon="34.746563"><ele>535</ele><name>TP04591</name><time>2016-12-28T20:56:13Z</time></trkpt>
   <trkpt lat="30.909023" lon="34.746587"><ele>535.2</ele><name>TP04592</name><time>2016-12-28T20:56:14Z</time></trkpt>
   <trkpt lat="30.908993" lon="34.746616"><ele>535.6</ele><name>TP04593</name><time>2016-12-28T20:56:15Z</time></trkpt>
   <trkpt lat="30.908965" lon="34.746649"><ele>536</ele><name>TP04594</name><time>2016-12-28T20:56:16Z</time></trkpt>
   <trkpt lat="30.908937" lon="34.746679"><ele>536.4</ele><name>TP04595</name><time>2016-12-28T20:56:17Z</time></trkpt>
   <trkpt lat="30.908898" lon="34.746708"><ele>536.9</ele><name>TP04596</name><time>2016-12-28T20:56:18Z</time></trkpt>
   <trkpt lat="30.908852" lon="34.746731"><ele>537.4</ele><name>TP04597</name><time>2016-12-28T20:56:19Z</time></trkpt>
   <trkpt lat="30.908805" lon="34.746753"><ele>538</ele><name>TP04598</name><time>2016-12-28T20:56:20Z</time></trkpt>
   <trkpt lat="30.908756" lon="34.746779"><ele>538.7</ele><name>TP04599</name><time>2016-12-28T20:56:21Z</time></trkpt>
   <trkpt lat="30.908725" lon="34.746797"><ele>538.8</ele><name>TP04600</name><time>2016-12-28T20:56:22Z</time></trkpt>
   <trkpt lat="30.908442" lon="34.747025"><ele>539.4</ele><name>TP04601</name><time>2016-12-28T20:56:24Z</time></trkpt>
   <trkpt lat="30.908387" lon="34.747086"><ele>539.3</ele><name>TP04602</name><time>2016-12-28T20:56:25Z</time></trkpt>
   <trkpt lat="30.908348" lon="34.747149"><ele>537.8</ele><name>TP04603</name><time>2016-12-28T20:56:26Z</time></trkpt>
   <trkpt lat="30.908322" lon="34.747216"><ele>536.3</ele><name>TP04604</name><time>2016-12-28T20:56:27Z</time></trkpt>
   <trkpt lat="30.9083" lon="34.747287"><ele>534.8</ele><name>TP04605</name><time>2016-12-28T20:56:28Z</time></trkpt>
   <trkpt lat="30.908302" lon="34.747358"><ele>533.5</ele><name>TP04606</name><time>2016-12-28T20:56:29Z</time></trkpt>
   <trkpt lat="30.908305" lon="34.747424"><ele>532.2</ele><name>TP04607</name><time>2016-12-28T20:56:30Z</time></trkpt>
   <trkpt lat="30.908301" lon="34.747488"><ele>531</ele><name>TP04608</name><time>2016-12-28T20:56:31Z</time></trkpt>
   <trkpt lat="30.908302" lon="34.747549"><ele>529.8</ele><name>TP04609</name><time>2016-12-28T20:56:32Z</time></trkpt>
   <trkpt lat="30.908316" lon="34.74761"><ele>528.6</ele><name>TP04610</name><time>2016-12-28T20:56:33Z</time></trkpt>
   <trkpt lat="30.908338" lon="34.747674"><ele>527.3</ele><name>TP04611</name><time>2016-12-28T20:56:34Z</time></trkpt>
   <trkpt lat="30.90835" lon="34.747737"><ele>526</ele><name>TP04612</name><time>2016-12-28T20:56:35Z</time></trkpt>
   <trkpt lat="30.908348" lon="34.747797"><ele>524.8</ele><name>TP04613</name><time>2016-12-28T20:56:36Z</time></trkpt>
   <trkpt lat="30.908346" lon="34.74785"><ele>523.8</ele><name>TP04614</name><time>2016-12-28T20:56:37Z</time></trkpt>
   <trkpt lat="30.908345" lon="34.747907"><ele>522.6</ele><name>TP04615</name><time>2016-12-28T20:56:38Z</time></trkpt>
   <trkpt lat="30.908358" lon="34.747964"><ele>522.2</ele><name>TP04616</name><time>2016-12-28T20:56:39Z</time></trkpt>
   <trkpt lat="30.90838" lon="34.74802"><ele>522</ele><name>TP04617</name><time>2016-12-28T20:56:40Z</time></trkpt>
   <trkpt lat="30.908402" lon="34.748078"><ele>521.7</ele><name>TP04618</name><time>2016-12-28T20:56:41Z</time></trkpt>
   <trkpt lat="30.908428" lon="34.748144"><ele>521.4</ele><name>TP04619</name><time>2016-12-28T20:56:42Z</time></trkpt>
   <trkpt lat="30.90845" lon="34.748206"><ele>521.2</ele><name>TP04620</name><time>2016-12-28T20:56:43Z</time></trkpt>
   <trkpt lat="30.90847" lon="34.748265"><ele>521</ele><name>TP04621</name><time>2016-12-28T20:56:44Z</time></trkpt>
   <trkpt lat="30.908505" lon="34.748305"><ele>520.7</ele><name>TP04622</name><time>2016-12-28T20:56:45Z</time></trkpt>
   <trkpt lat="30.908532" lon="34.748341"><ele>520.5</ele><name>TP04623</name><time>2016-12-28T20:56:46Z</time></trkpt>
   <trkpt lat="30.908549" lon="34.748378"><ele>520.4</ele><name>TP04624</name><time>2016-12-28T20:56:47Z</time></trkpt>
   <trkpt lat="30.90856" lon="34.748413"><ele>520.3</ele><name>TP04625</name><time>2016-12-28T20:56:48Z</time></trkpt>
   <trkpt lat="30.908569" lon="34.748457"><ele>520.2</ele><name>TP04626</name><time>2016-12-28T20:56:49Z</time></trkpt>
   <trkpt lat="30.90857" lon="34.748504"><ele>520.1</ele><name>TP04627</name><time>2016-12-28T20:56:50Z</time></trkpt>
   <trkpt lat="30.908571" lon="34.748552"><ele>520</ele><name>TP04628</name><time>2016-12-28T20:56:51Z</time></trkpt>
   <trkpt lat="30.90857" lon="34.748603"><ele>519.9</ele><name>TP04629</name><time>2016-12-28T20:56:52Z</time></trkpt>
   <trkpt lat="30.908577" lon="34.748644"><ele>519.8</ele><name>TP04630</name><time>2016-12-28T20:56:54Z</time></trkpt>
   <trkpt lat="30.908593" lon="34.748708"><ele>519.6</ele><name>TP04631</name><time>2016-12-28T20:56:56Z</time></trkpt>
   <trkpt lat="30.908606" lon="34.748785"><ele>519.8</ele><name>TP04632</name><time>2016-12-28T20:56:58Z</time></trkpt>
   <trkpt lat="30.908615" lon="34.748854"><ele>520.2</ele><name>TP04633</name><time>2016-12-28T20:56:59Z</time></trkpt>
   <trkpt lat="30.908616" lon="34.748919"><ele>520.6</ele><name>TP04634</name><time>2016-12-28T20:57:00Z</time></trkpt>
   <trkpt lat="30.908617" lon="34.748986"><ele>521.1</ele><name>TP04635</name><time>2016-12-28T20:57:01Z</time></trkpt>
   <trkpt lat="30.908622" lon="34.749057"><ele>521.6</ele><name>TP04636</name><time>2016-12-28T20:57:02Z</time></trkpt>
   <trkpt lat="30.908632" lon="34.749128"><ele>522</ele><name>TP04637</name><time>2016-12-28T20:57:03Z</time></trkpt>
   <trkpt lat="30.908678" lon="34.749219"><ele>522.5</ele><name>TP04638</name><time>2016-12-28T20:57:04Z</time></trkpt>
   <trkpt lat="30.908721" lon="34.74934"><ele>523.3</ele><name>TP04639</name><time>2016-12-28T20:57:06Z</time></trkpt>
   <trkpt lat="30.908744" lon="34.74938"><ele>523.5</ele><name>TP04640</name><time>2016-12-28T20:57:07Z</time></trkpt>
   <trkpt lat="30.908764" lon="34.749421"><ele>523.9</ele><name>TP04641</name><time>2016-12-28T20:57:08Z</time></trkpt>
   <trkpt lat="30.908775" lon="34.749458"><ele>524.2</ele><name>TP04642</name><time>2016-12-28T20:57:09Z</time></trkpt>
   <trkpt lat="30.90878" lon="34.749502"><ele>524.6</ele><name>TP04643</name><time>2016-12-28T20:57:10Z</time></trkpt>
   <trkpt lat="30.908784" lon="34.749547"><ele>525</ele><name>TP04644</name><time>2016-12-28T20:57:11Z</time></trkpt>
   <trkpt lat="30.908795" lon="34.749586"><ele>525.3</ele><name>TP04645</name><time>2016-12-28T20:57:12Z</time></trkpt>
   <trkpt lat="30.908786" lon="34.749621"><ele>525.5</ele><name>TP04646</name><time>2016-12-28T20:57:15Z</time></trkpt>
   <trkpt lat="30.908799" lon="34.749665"><ele>525.9</ele><name>TP04647</name><time>2016-12-28T20:57:17Z</time></trkpt>
   <trkpt lat="30.908807" lon="34.749719"><ele>526.3</ele><name>TP04648</name><time>2016-12-28T20:57:19Z</time></trkpt>
   <trkpt lat="30.908825" lon="34.749769"><ele>526.8</ele><name>TP04649</name><time>2016-12-28T20:57:21Z</time></trkpt>
   <trkpt lat="30.908844" lon="34.749815"><ele>527.2</ele><name>TP04650</name><time>2016-12-28T20:57:22Z</time></trkpt>
   <trkpt lat="30.908864" lon="34.749859"><ele>527.6</ele><name>TP04651</name><time>2016-12-28T20:57:23Z</time></trkpt>
   <trkpt lat="30.908885" lon="34.749903"><ele>528</ele><name>TP04652</name><time>2016-12-28T20:57:24Z</time></trkpt>
   <trkpt lat="30.908943" lon="34.750052"><ele>529.2</ele><name>TP04653</name><time>2016-12-28T20:57:26Z</time></trkpt>
   <trkpt lat="30.908959" lon="34.750077"><ele>529.5</ele><name>TP04654</name><time>2016-12-28T20:57:27Z</time></trkpt>
   <trkpt lat="30.90898" lon="34.7501"><ele>529.7</ele><name>TP04655</name><time>2016-12-28T20:57:28Z</time></trkpt>
   <trkpt lat="30.909018" lon="34.750131"><ele>530</ele><name>TP04656</name><time>2016-12-28T20:57:30Z</time></trkpt>
   <trkpt lat="30.909062" lon="34.750149"><ele>530.3</ele><name>TP04657</name><time>2016-12-28T20:57:32Z</time></trkpt>
   <trkpt lat="30.909037" lon="34.750132"><ele>530.1</ele><name>TP04658</name><time>2016-12-28T20:57:39Z</time></trkpt>
   <trkpt lat="30.909091" lon="34.750151"><ele>530.4</ele><name>TP04659</name><time>2016-12-28T21:00:54Z</time></trkpt>
   <trkpt lat="30.909098" lon="34.750183"><ele>530.6</ele><name>TP04660</name><time>2016-12-28T21:00:56Z</time></trkpt>
   <trkpt lat="30.909127" lon="34.750185"><ele>530.7</ele><name>TP04661</name><time>2016-12-28T21:01:02Z</time></trkpt>
   <trkpt lat="30.909118" lon="34.750216"><ele>530.9</ele><name>TP04662</name><time>2016-12-28T21:01:13Z</time></trkpt>
   <trkpt lat="30.909093" lon="34.750237"><ele>530.9</ele><name>TP04663</name><time>2016-12-28T21:01:17Z</time></trkpt>
   <trkpt lat="30.909083" lon="34.750267"><ele>531</ele><name>TP04664</name><time>2016-12-28T21:01:21Z</time></trkpt>
   <trkpt lat="30.909066" lon="34.750294"><ele>531.1</ele><name>TP04665</name><time>2016-12-28T21:01:26Z</time></trkpt>
   <trkpt lat="30.909045" lon="34.750318"><ele>531.2</ele><name>TP04666</name><time>2016-12-28T21:01:30Z</time></trkpt>
   <trkpt lat="30.90902" lon="34.750337"><ele>531.2</ele><name>TP04667</name><time>2016-12-28T21:01:34Z</time></trkpt>
   <trkpt lat="30.909003" lon="34.750364"><ele>531.3</ele><name>TP04668</name><time>2016-12-28T21:01:39Z</time></trkpt>
   <trkpt lat="30.909027" lon="34.750389"><ele>531.5</ele><name>TP04669</name><time>2016-12-28T21:01:43Z</time></trkpt>
   <trkpt lat="30.909047" lon="34.750416"><ele>531.7</ele><name>TP04670</name><time>2016-12-28T21:01:47Z</time></trkpt>
   <trkpt lat="30.909064" lon="34.750442"><ele>531.6</ele><name>TP04671</name><time>2016-12-28T21:02:03Z</time></trkpt>
   <trkpt lat="30.909091" lon="34.750422"><ele>531.8</ele><name>TP04672</name><time>2016-12-28T21:04:22Z</time></trkpt>
   <trkpt lat="30.909066" lon="34.750406"><ele>531.7</ele><name>TP04673</name><time>2016-12-28T21:05:27Z</time></trkpt>
   <trkpt lat="30.909058" lon="34.750369"><ele>531.5</ele><name>TP04674</name><time>2016-12-28T21:05:31Z</time></trkpt>
   <trkpt lat="30.909048" lon="34.750336"><ele>531.3</ele><name>TP04675</name><time>2016-12-28T21:05:34Z</time></trkpt>
   <trkpt lat="30.909027" lon="34.750304"><ele>531</ele><name>TP04676</name><time>2016-12-28T21:05:38Z</time></trkpt>
   <trkpt lat="30.909011" lon="34.750268"><ele>530.8</ele><name>TP04677</name><time>2016-12-28T21:05:42Z</time></trkpt>
   <trkpt lat="30.909013" lon="34.7503"><ele>531</ele><name>TP04678</name><time>2016-12-28T21:05:51Z</time></trkpt>
   <trkpt lat="30.909031" lon="34.750324"><ele>531.2</ele><name>TP04679</name><time>2016-12-28T21:05:54Z</time></trkpt>
   <trkpt lat="30.909048" lon="34.750353"><ele>531.4</ele><name>TP04680</name><time>2016-12-28T21:06:12Z</time></trkpt>
   <trkpt lat="30.909057" lon="34.750393"><ele>531.6</ele><name>TP04681</name><time>2016-12-28T21:06:15Z</time></trkpt>
   <trkpt lat="30.909058" lon="34.750359"><ele>531.4</ele><name>TP04682</name><time>2016-12-28T21:06:59Z</time></trkpt>
   <trkpt lat="30.909043" lon="34.75033"><ele>531.2</ele><name>TP04683</name><time>2016-12-28T21:07:04Z</time></trkpt>
   <trkpt lat="30.909039" lon="34.750293"><ele>531</ele><name>TP04684</name><time>2016-12-28T21:09:10Z</time></trkpt>
   <trkpt lat="30.909071" lon="34.750278"><ele>531</ele><name>TP04685</name><time>2016-12-28T21:09:17Z</time></trkpt>
   <trkpt lat="30.909092" lon="34.750247"><ele>530.9</ele><name>TP04686</name><time>2016-12-28T21:09:22Z</time></trkpt>
   <trkpt lat="30.909097" lon="34.750215"><ele>530.8</ele><name>TP04687</name><time>2016-12-28T21:09:25Z</time></trkpt>
   <trkpt lat="30.909109" lon="34.750178"><ele>530.6</ele><name>TP04688</name><time>2016-12-28T21:09:29Z</time></trkpt>
   <trkpt lat="30.909122" lon="34.750148"><ele>530.5</ele><name>TP04689</name><time>2016-12-28T21:09:32Z</time></trkpt>
   <trkpt lat="30.90915" lon="34.75016"><ele>530.7</ele><name>TP04690</name><time>2016-12-28T21:09:45Z</time></trkpt>
   <trkpt lat="30.909175" lon="34.750183"><ele>530.9</ele><name>TP04691</name><time>2016-12-28T21:09:52Z</time></trkpt>
   <trkpt lat="30.909204" lon="34.750201"><ele>531.1</ele><name>TP04692</name><time>2016-12-28T21:09:55Z</time></trkpt>
   <trkpt lat="30.909227" lon="34.750239"><ele>531.4</ele><name>TP04693</name><time>2016-12-28T21:09:58Z</time></trkpt>
   <trkpt lat="30.909241" lon="34.750279"><ele>531.6</ele><name>TP04694</name><time>2016-12-28T21:10:00Z</time></trkpt>
   <trkpt lat="30.909262" lon="34.75033"><ele>531.9</ele><name>TP04695</name><time>2016-12-28T21:10:02Z</time></trkpt>
   <trkpt lat="30.909285" lon="34.75038"><ele>532.1</ele><name>TP04696</name><time>2016-12-28T21:10:04Z</time></trkpt>
   <trkpt lat="30.909308" lon="34.750417"><ele>532.3</ele><name>TP04697</name><time>2016-12-28T21:10:06Z</time></trkpt>
   <trkpt lat="30.909339" lon="34.750446"><ele>532.3</ele><name>TP04698</name><time>2016-12-28T21:10:08Z</time></trkpt>
   <trkpt lat="30.909382" lon="34.750478"><ele>532.2</ele><name>TP04699</name><time>2016-12-28T21:10:10Z</time></trkpt>
   <trkpt lat="30.909406" lon="34.750495"><ele>532.2</ele><name>TP04700</name><time>2016-12-28T21:10:11Z</time></trkpt>
   <trkpt lat="30.909428" lon="34.750513"><ele>532.2</ele><name>TP04701</name><time>2016-12-28T21:10:12Z</time></trkpt>
   <trkpt lat="30.909447" lon="34.750535"><ele>532.2</ele><name>TP04702</name><time>2016-12-28T21:10:13Z</time></trkpt>
   <trkpt lat="30.909465" lon="34.750562"><ele>532.1</ele><name>TP04703</name><time>2016-12-28T21:10:14Z</time></trkpt>
   <trkpt lat="30.909481" lon="34.75059"><ele>532.1</ele><name>TP04704</name><time>2016-12-28T21:10:15Z</time></trkpt>
   <trkpt lat="30.909497" lon="34.750616"><ele>532</ele><name>TP04705</name><time>2016-12-28T21:10:16Z</time></trkpt>
   <trkpt lat="30.909523" lon="34.750666"><ele>531.9</ele><name>TP04706</name><time>2016-12-28T21:10:18Z</time></trkpt>
   <trkpt lat="30.909545" lon="34.750708"><ele>531.8</ele><name>TP04707</name><time>2016-12-28T21:10:20Z</time></trkpt>
   <trkpt lat="30.909569" lon="34.750739"><ele>531.8</ele><name>TP04708</name><time>2016-12-28T21:10:22Z</time></trkpt>
   <trkpt lat="30.909596" lon="34.75077"><ele>531.6</ele><name>TP04709</name><time>2016-12-28T21:10:24Z</time></trkpt>
   <trkpt lat="30.909623" lon="34.750785"><ele>531.1</ele><name>TP04710</name><time>2016-12-28T21:10:26Z</time></trkpt>
   <trkpt lat="30.909654" lon="34.750768"><ele>530.8</ele><name>TP04711</name><time>2016-12-28T21:10:28Z</time></trkpt>
   <trkpt lat="30.909674" lon="34.750715"><ele>530.6</ele><name>TP04712</name><time>2016-12-28T21:10:30Z</time></trkpt>
   <trkpt lat="30.909678" lon="34.75066"><ele>530.7</ele><name>TP04713</name><time>2016-12-28T21:10:32Z</time></trkpt>
   <trkpt lat="30.90968" lon="34.750608"><ele>530.8</ele><name>TP04714</name><time>2016-12-28T21:10:34Z</time></trkpt>
   <trkpt lat="30.909688" lon="34.750564"><ele>530.8</ele><name>TP04715</name><time>2016-12-28T21:10:36Z</time></trkpt>
   <trkpt lat="30.909712" lon="34.75053"><ele>530.6</ele><name>TP04716</name><time>2016-12-28T21:10:38Z</time></trkpt>
   <trkpt lat="30.909744" lon="34.750544"><ele>530</ele><name>TP04717</name><time>2016-12-28T21:10:40Z</time></trkpt>
   <trkpt lat="30.909754" lon="34.750577"><ele>529.8</ele><name>TP04718</name><time>2016-12-28T21:10:41Z</time></trkpt>
   <trkpt lat="30.909757" lon="34.75062"><ele>529.7</ele><name>TP04719</name><time>2016-12-28T21:10:42Z</time></trkpt>
   <trkpt lat="30.90976" lon="34.750667"><ele>529.5</ele><name>TP04720</name><time>2016-12-28T21:10:43Z</time></trkpt>
   <trkpt lat="30.909764" lon="34.750718"><ele>529.4</ele><name>TP04721</name><time>2016-12-28T21:10:44Z</time></trkpt>
   <trkpt lat="30.909767" lon="34.750798"><ele>529.1</ele><name>TP04722</name><time>2016-12-28T21:10:45Z</time></trkpt>
   <trkpt lat="30.909778" lon="34.750857"><ele>528.9</ele><name>TP04723</name><time>2016-12-28T21:10:46Z</time></trkpt>
   <trkpt lat="30.909792" lon="34.750923"><ele>528.6</ele><name>TP04724</name><time>2016-12-28T21:10:47Z</time></trkpt>
   <trkpt lat="30.909818" lon="34.750981"><ele>528.2</ele><name>TP04725</name><time>2016-12-28T21:10:48Z</time></trkpt>
   <trkpt lat="30.909848" lon="34.751037"><ele>527.7</ele><name>TP04726</name><time>2016-12-28T21:10:49Z</time></trkpt>
   <trkpt lat="30.909872" lon="34.751094"><ele>527.4</ele><name>TP04727</name><time>2016-12-28T21:10:50Z</time></trkpt>
   <trkpt lat="30.90991" lon="34.751108"><ele>527</ele><name>TP04728</name><time>2016-12-28T21:10:51Z</time></trkpt>
   <trkpt lat="30.909947" lon="34.751101"><ele>526.6</ele><name>TP04729</name><time>2016-12-28T21:10:52Z</time></trkpt>
   <trkpt lat="30.909984" lon="34.751084"><ele>526.2</ele><name>TP04730</name><time>2016-12-28T21:10:53Z</time></trkpt>
   <trkpt lat="30.910015" lon="34.751073"><ele>525.8</ele><name>TP04731</name><time>2016-12-28T21:10:54Z</time></trkpt>
   <trkpt lat="30.910049" lon="34.751059"><ele>525.4</ele><name>TP04732</name><time>2016-12-28T21:10:55Z</time></trkpt>
   <trkpt lat="30.910083" lon="34.751041"><ele>525.1</ele><name>TP04733</name><time>2016-12-28T21:10:56Z</time></trkpt>
   <trkpt lat="30.910115" lon="34.751023"><ele>524.7</ele><name>TP04734</name><time>2016-12-28T21:10:57Z</time></trkpt>
   <trkpt lat="30.91015" lon="34.75101"><ele>524.2</ele><name>TP04735</name><time>2016-12-28T21:10:58Z</time></trkpt>
   <trkpt lat="30.910178" lon="34.751005"><ele>523.9</ele><name>TP04736</name><time>2016-12-28T21:10:59Z</time></trkpt>
   <trkpt lat="30.910234" lon="34.751004"><ele>523.3</ele><name>TP04737</name><time>2016-12-28T21:11:01Z</time></trkpt>
   <trkpt lat="30.910262" lon="34.751001"><ele>522.9</ele><name>TP04738</name><time>2016-12-28T21:11:02Z</time></trkpt>
   <trkpt lat="30.910292" lon="34.750996"><ele>522.6</ele><name>TP04739</name><time>2016-12-28T21:11:03Z</time></trkpt>
   <trkpt lat="30.910323" lon="34.75099"><ele>522.2</ele><name>TP04740</name><time>2016-12-28T21:11:04Z</time></trkpt>
   <trkpt lat="30.910353" lon="34.750982"><ele>521.8</ele><name>TP04741</name><time>2016-12-28T21:11:05Z</time></trkpt>
   <trkpt lat="30.910383" lon="34.750975"><ele>521.4</ele><name>TP04742</name><time>2016-12-28T21:11:06Z</time></trkpt>
   <trkpt lat="30.910414" lon="34.750972"><ele>521</ele><name>TP04743</name><time>2016-12-28T21:11:07Z</time></trkpt>
   <trkpt lat="30.910443" lon="34.750973"><ele>520.6</ele><name>TP04744</name><time>2016-12-28T21:11:08Z</time></trkpt>
   <trkpt lat="30.91047" lon="34.750983"><ele>520.3</ele><name>TP04745</name><time>2016-12-28T21:11:09Z</time></trkpt>
   <trkpt lat="30.910498" lon="34.751035"><ele>520.1</ele><name>TP04746</name><time>2016-12-28T21:11:11Z</time></trkpt>
   <trkpt lat="30.910495" lon="34.751077"><ele>520.3</ele><name>TP04747</name><time>2016-12-28T21:11:12Z</time></trkpt>
   <trkpt lat="30.910483" lon="34.751122"><ele>520.7</ele><name>TP04748</name><time>2016-12-28T21:11:13Z</time></trkpt>
   <trkpt lat="30.910465" lon="34.75117"><ele>521.1</ele><name>TP04749</name><time>2016-12-28T21:11:14Z</time></trkpt>
   <trkpt lat="30.910447" lon="34.751217"><ele>521.5</ele><name>TP04750</name><time>2016-12-28T21:11:15Z</time></trkpt>
   <trkpt lat="30.910432" lon="34.751264"><ele>521.8</ele><name>TP04751</name><time>2016-12-28T21:11:16Z</time></trkpt>
   <trkpt lat="30.91042" lon="34.751312"><ele>522.2</ele><name>TP04752</name><time>2016-12-28T21:11:17Z</time></trkpt>
   <trkpt lat="30.910413" lon="34.751366"><ele>522.5</ele><name>TP04753</name><time>2016-12-28T21:11:18Z</time></trkpt>
   <trkpt lat="30.910405" lon="34.751421"><ele>522.7</ele><name>TP04754</name><time>2016-12-28T21:11:19Z</time></trkpt>
   <trkpt lat="30.910397" lon="34.751473"><ele>523</ele><name>TP04755</name><time>2016-12-28T21:11:20Z</time></trkpt>
   <trkpt lat="30.910385" lon="34.751544"><ele>523.4</ele><name>TP04756</name><time>2016-12-28T21:11:21Z</time></trkpt>
   <trkpt lat="30.910378" lon="34.751594"><ele>523.7</ele><name>TP04757</name><time>2016-12-28T21:11:22Z</time></trkpt>
   <trkpt lat="30.910379" lon="34.751677"><ele>524</ele><name>TP04758</name><time>2016-12-28T21:11:24Z</time></trkpt>
   <trkpt lat="30.910383" lon="34.751716"><ele>524.1</ele><name>TP04759</name><time>2016-12-28T21:11:25Z</time></trkpt>
   <trkpt lat="30.910403" lon="34.751783"><ele>524.1</ele><name>TP04760</name><time>2016-12-28T21:11:27Z</time></trkpt>
   <trkpt lat="30.910439" lon="34.751836"><ele>523.9</ele><name>TP04761</name><time>2016-12-28T21:11:29Z</time></trkpt>
   <trkpt lat="30.910471" lon="34.751879"><ele>523.8</ele><name>TP04762</name><time>2016-12-28T21:11:31Z</time></trkpt>
   <trkpt lat="30.910495" lon="34.751911"><ele>523.8</ele><name>TP04763</name><time>2016-12-28T21:11:33Z</time></trkpt>
   <trkpt lat="30.9105" lon="34.751963"><ele>524</ele><name>TP04764</name><time>2016-12-28T21:11:35Z</time></trkpt>
   <trkpt lat="30.910522" lon="34.75201"><ele>524</ele><name>TP04765</name><time>2016-12-28T21:11:37Z</time></trkpt>
   <trkpt lat="30.910529" lon="34.752046"><ele>524.2</ele><name>TP04766</name><time>2016-12-28T21:11:38Z</time></trkpt>
   <trkpt lat="30.910532" lon="34.752082"><ele>524.3</ele><name>TP04767</name><time>2016-12-28T21:11:39Z</time></trkpt>
   <trkpt lat="30.910535" lon="34.752117"><ele>524.7</ele><name>TP04768</name><time>2016-12-28T21:11:40Z</time></trkpt>
   <trkpt lat="30.910539" lon="34.752157"><ele>525.1</ele><name>TP04769</name><time>2016-12-28T21:11:41Z</time></trkpt>
   <trkpt lat="30.910548" lon="34.752204"><ele>525.5</ele><name>TP04770</name><time>2016-12-28T21:11:42Z</time></trkpt>
   <trkpt lat="30.910562" lon="34.752247"><ele>525.9</ele><name>TP04771</name><time>2016-12-28T21:11:43Z</time></trkpt>
   <trkpt lat="30.91058" lon="34.752287"><ele>526.3</ele><name>TP04772</name><time>2016-12-28T21:11:44Z</time></trkpt>
   <trkpt lat="30.910602" lon="34.75233"><ele>526.7</ele><name>TP04773</name><time>2016-12-28T21:11:45Z</time></trkpt>
   <trkpt lat="30.910626" lon="34.75237"><ele>527.1</ele><name>TP04774</name><time>2016-12-28T21:11:46Z</time></trkpt>
   <trkpt lat="30.91065" lon="34.752411"><ele>527.5</ele><name>TP04775</name><time>2016-12-28T21:11:47Z</time></trkpt>
   <trkpt lat="30.910673" lon="34.752449"><ele>527.9</ele><name>TP04776</name><time>2016-12-28T21:11:48Z</time></trkpt>
   <trkpt lat="30.910696" lon="34.752487"><ele>528.3</ele><name>TP04777</name><time>2016-12-28T21:11:49Z</time></trkpt>
   <trkpt lat="30.910722" lon="34.752525"><ele>528.8</ele><name>TP04778</name><time>2016-12-28T21:11:50Z</time></trkpt>
   <trkpt lat="30.910751" lon="34.752563"><ele>529.2</ele><name>TP04779</name><time>2016-12-28T21:11:51Z</time></trkpt>
   <trkpt lat="30.910777" lon="34.7526"><ele>529.7</ele><name>TP04780</name><time>2016-12-28T21:11:52Z</time></trkpt>
   <trkpt lat="30.910799" lon="34.752634"><ele>530.1</ele><name>TP04781</name><time>2016-12-28T21:11:53Z</time></trkpt>
   <trkpt lat="30.910822" lon="34.752666"><ele>530.5</ele><name>TP04782</name><time>2016-12-28T21:11:54Z</time></trkpt>
   <trkpt lat="30.910847" lon="34.752699"><ele>531</ele><name>TP04783</name><time>2016-12-28T21:11:55Z</time></trkpt>
   <trkpt lat="30.910869" lon="34.752724"><ele>531.4</ele><name>TP04784</name><time>2016-12-28T21:11:56Z</time></trkpt>
   <trkpt lat="30.910896" lon="34.752744"><ele>531.7</ele><name>TP04785</name><time>2016-12-28T21:11:57Z</time></trkpt>
   <trkpt lat="30.910929" lon="34.752763"><ele>532</ele><name>TP04786</name><time>2016-12-28T21:11:58Z</time></trkpt>
   <trkpt lat="30.910955" lon="34.752781"><ele>532.3</ele><name>TP04787</name><time>2016-12-28T21:11:59Z</time></trkpt>
   <trkpt lat="30.910979" lon="34.752802"><ele>532.6</ele><name>TP04788</name><time>2016-12-28T21:12:00Z</time></trkpt>
   <trkpt lat="30.910998" lon="34.752831"><ele>533.1</ele><name>TP04789</name><time>2016-12-28T21:12:01Z</time></trkpt>
   <trkpt lat="30.91101" lon="34.752863"><ele>533.6</ele><name>TP04790</name><time>2016-12-28T21:12:02Z</time></trkpt>
   <trkpt lat="30.911005" lon="34.752907"><ele>534.3</ele><name>TP04791</name><time>2016-12-28T21:12:03Z</time></trkpt>
   <trkpt lat="30.911061" lon="34.752971"><ele>534.3</ele><name>TP04792</name><time>2016-12-28T21:12:05Z</time></trkpt>
   <trkpt lat="30.911093" lon="34.752983"><ele>534.3</ele><name>TP04793</name><time>2016-12-28T21:12:06Z</time></trkpt>
   <trkpt lat="30.911123" lon="34.753001"><ele>534.3</ele><name>TP04794</name><time>2016-12-28T21:12:07Z</time></trkpt>
   <trkpt lat="30.91115" lon="34.753021"><ele>534.3</ele><name>TP04795</name><time>2016-12-28T21:12:08Z</time></trkpt>
   <trkpt lat="30.911176" lon="34.753046"><ele>534.3</ele><name>TP04796</name><time>2016-12-28T21:12:09Z</time></trkpt>
   <trkpt lat="30.911205" lon="34.753071"><ele>534.3</ele><name>TP04797</name><time>2016-12-28T21:12:10Z</time></trkpt>
   <trkpt lat="30.911234" lon="34.753091"><ele>534.3</ele><name>TP04798</name><time>2016-12-28T21:12:11Z</time></trkpt>
   <trkpt lat="30.911263" lon="34.753109"><ele>534.4</ele><name>TP04799</name><time>2016-12-28T21:12:12Z</time></trkpt>
   <trkpt lat="30.91129" lon="34.75312"><ele>534.5</ele><name>TP04800</name><time>2016-12-28T21:12:13Z</time></trkpt>
   <trkpt lat="30.91133" lon="34.753126"><ele>534.8</ele><name>TP04801</name><time>2016-12-28T21:12:15Z</time></trkpt>
   <trkpt lat="30.91136" lon="34.753121"><ele>535</ele><name>TP04802</name><time>2016-12-28T21:12:17Z</time></trkpt>
   <trkpt lat="30.911399" lon="34.753121"><ele>535.2</ele><name>TP04803</name><time>2016-12-28T21:12:18Z</time></trkpt>
   <trkpt lat="30.91145" lon="34.753116"><ele>535.5</ele><name>TP04804</name><time>2016-12-28T21:12:19Z</time></trkpt>
   <trkpt lat="30.911494" lon="34.753105"><ele>535.9</ele><name>TP04805</name><time>2016-12-28T21:12:20Z</time></trkpt>
   <trkpt lat="30.911535" lon="34.753091"><ele>536.2</ele><name>TP04806</name><time>2016-12-28T21:12:21Z</time></trkpt>
   <trkpt lat="30.911575" lon="34.753082"><ele>536.4</ele><name>TP04807</name><time>2016-12-28T21:12:22Z</time></trkpt>
   <trkpt lat="30.911617" lon="34.753076"><ele>536.7</ele><name>TP04808</name><time>2016-12-28T21:12:23Z</time></trkpt>
   <trkpt lat="30.911662" lon="34.753075"><ele>537</ele><name>TP04809</name><time>2016-12-28T21:12:24Z</time></trkpt>
   <trkpt lat="30.91171" lon="34.753078"><ele>537.3</ele><name>TP04810</name><time>2016-12-28T21:12:25Z</time></trkpt>
   <trkpt lat="30.911835" lon="34.753114"><ele>538</ele><name>TP04811</name><time>2016-12-28T21:12:27Z</time></trkpt>
   <trkpt lat="30.911871" lon="34.753121"><ele>538.2</ele><name>TP04812</name><time>2016-12-28T21:12:28Z</time></trkpt>
   <trkpt lat="30.911907" lon="34.753136"><ele>538.4</ele><name>TP04813</name><time>2016-12-28T21:12:29Z</time></trkpt>
   <trkpt lat="30.911945" lon="34.753147"><ele>538.6</ele><name>TP04814</name><time>2016-12-28T21:12:30Z</time></trkpt>
   <trkpt lat="30.911978" lon="34.753165"><ele>538.7</ele><name>TP04815</name><time>2016-12-28T21:12:31Z</time></trkpt>
   <trkpt lat="30.912013" lon="34.753176"><ele>538.9</ele><name>TP04816</name><time>2016-12-28T21:12:32Z</time></trkpt>
   <trkpt lat="30.912045" lon="34.753187"><ele>539.1</ele><name>TP04817</name><time>2016-12-28T21:12:33Z</time></trkpt>
   <trkpt lat="30.912082" lon="34.753204"><ele>539.3</ele><name>TP04818</name><time>2016-12-28T21:12:35Z</time></trkpt>
   <trkpt lat="30.912117" lon="34.753228"><ele>538.9</ele><name>TP04819</name><time>2016-12-28T21:12:37Z</time></trkpt>
   <trkpt lat="30.912162" lon="34.753262"><ele>538.4</ele><name>TP04820</name><time>2016-12-28T21:12:39Z</time></trkpt>
   <trkpt lat="30.912183" lon="34.753284"><ele>538.2</ele><name>TP04821</name><time>2016-12-28T21:12:40Z</time></trkpt>
   <trkpt lat="30.912211" lon="34.753316"><ele>538</ele><name>TP04822</name><time>2016-12-28T21:12:42Z</time></trkpt>
   <trkpt lat="30.912239" lon="34.753333"><ele>537.8</ele><name>TP04823</name><time>2016-12-28T21:12:48Z</time></trkpt>
   <trkpt lat="30.912273" lon="34.753334"><ele>537.5</ele><name>TP04824</name><time>2016-12-28T21:12:51Z</time></trkpt>
   <trkpt lat="30.912305" lon="34.753344"><ele>537.3</ele><name>TP04825</name><time>2016-12-28T21:12:55Z</time></trkpt>
   <trkpt lat="30.912332" lon="34.75336"><ele>537.1</ele><name>TP04826</name><time>2016-12-28T21:12:57Z</time></trkpt>
   <trkpt lat="30.912356" lon="34.753377"><ele>537</ele><name>TP04827</name><time>2016-12-28T21:12:59Z</time></trkpt>
   <trkpt lat="30.912403" lon="34.753407"><ele>536.8</ele><name>TP04828</name><time>2016-12-28T21:13:01Z</time></trkpt>
   <trkpt lat="30.912441" lon="34.753433"><ele>536.7</ele><name>TP04829</name><time>2016-12-28T21:13:03Z</time></trkpt>
   <trkpt lat="30.912472" lon="34.753456"><ele>536.7</ele><name>TP04830</name><time>2016-12-28T21:13:04Z</time></trkpt>
   <trkpt lat="30.912501" lon="34.753479"><ele>536.7</ele><name>TP04831</name><time>2016-12-28T21:13:05Z</time></trkpt>
   <trkpt lat="30.912533" lon="34.7535"><ele>536.7</ele><name>TP04832</name><time>2016-12-28T21:13:06Z</time></trkpt>
   <trkpt lat="30.912569" lon="34.753517"><ele>536.7</ele><name>TP04833</name><time>2016-12-28T21:13:07Z</time></trkpt>
   <trkpt lat="30.912672" lon="34.753549"><ele>536.6</ele><name>TP04834</name><time>2016-12-28T21:13:09Z</time></trkpt>
   <trkpt lat="30.91271" lon="34.753562"><ele>536.7</ele><name>TP04835</name><time>2016-12-28T21:13:10Z</time></trkpt>
   <trkpt lat="30.912746" lon="34.753578"><ele>536.7</ele><name>TP04836</name><time>2016-12-28T21:13:11Z</time></trkpt>
   <trkpt lat="30.912783" lon="34.753595"><ele>536.9</ele><name>TP04837</name><time>2016-12-28T21:13:12Z</time></trkpt>
   <trkpt lat="30.912819" lon="34.753617"><ele>537.1</ele><name>TP04838</name><time>2016-12-28T21:13:13Z</time></trkpt>
   <trkpt lat="30.912852" lon="34.753643"><ele>537.4</ele><name>TP04839</name><time>2016-12-28T21:13:14Z</time></trkpt>
   <trkpt lat="30.912886" lon="34.75366"><ele>537.6</ele><name>TP04840</name><time>2016-12-28T21:13:15Z</time></trkpt>
   <trkpt lat="30.912923" lon="34.753676"><ele>537.9</ele><name>TP04841</name><time>2016-12-28T21:13:16Z</time></trkpt>
   <trkpt lat="30.91295" lon="34.753683"><ele>538.2</ele><name>TP04842</name><time>2016-12-28T21:13:17Z</time></trkpt>
   <trkpt lat="30.912989" lon="34.753679"><ele>538.5</ele><name>TP04843</name><time>2016-12-28T21:13:19Z</time></trkpt>
   <trkpt lat="30.913046" lon="34.753664"><ele>538.7</ele><name>TP04844</name><time>2016-12-28T21:13:22Z</time></trkpt>
   <trkpt lat="30.913092" lon="34.753651"><ele>538.9</ele><name>TP04845</name><time>2016-12-28T21:13:23Z</time></trkpt>
   <trkpt lat="30.91313" lon="34.753637"><ele>539</ele><name>TP04846</name><time>2016-12-28T21:13:24Z</time></trkpt>
   <trkpt lat="30.913167" lon="34.753618"><ele>539</ele><name>TP04847</name><time>2016-12-28T21:13:25Z</time></trkpt>
   <trkpt lat="30.913207" lon="34.753594"><ele>539</ele><name>TP04848</name><time>2016-12-28T21:13:26Z</time></trkpt>
   <trkpt lat="30.913247" lon="34.753569"><ele>539</ele><name>TP04849</name><time>2016-12-28T21:13:27Z</time></trkpt>
   <trkpt lat="30.913284" lon="34.753541"><ele>538.8</ele><name>TP04850</name><time>2016-12-28T21:13:28Z</time></trkpt>
   <trkpt lat="30.913382" lon="34.75347"><ele>538.5</ele><name>TP04851</name><time>2016-12-28T21:13:30Z</time></trkpt>
   <trkpt lat="30.913406" lon="34.753432"><ele>538.1</ele><name>TP04852</name><time>2016-12-28T21:13:31Z</time></trkpt>
   <trkpt lat="30.913433" lon="34.753399"><ele>537.9</ele><name>TP04853</name><time>2016-12-28T21:13:32Z</time></trkpt>
   <trkpt lat="30.913461" lon="34.75337"><ele>537.6</ele><name>TP04854</name><time>2016-12-28T21:13:33Z</time></trkpt>
   <trkpt lat="30.913487" lon="34.753337"><ele>537.3</ele><name>TP04855</name><time>2016-12-28T21:13:34Z</time></trkpt>
   <trkpt lat="30.913518" lon="34.753311"><ele>537.2</ele><name>TP04856</name><time>2016-12-28T21:13:35Z</time></trkpt>
   <trkpt lat="30.913553" lon="34.753292"><ele>537.2</ele><name>TP04857</name><time>2016-12-28T21:13:36Z</time></trkpt>
   <trkpt lat="30.913597" lon="34.753273"><ele>537.3</ele><name>TP04858</name><time>2016-12-28T21:13:38Z</time></trkpt>
   <trkpt lat="30.91362" lon="34.75324"><ele>537</ele><name>TP04859</name><time>2016-12-28T21:13:41Z</time></trkpt>
   <trkpt lat="30.913649" lon="34.753236"><ele>537.1</ele><name>TP04860</name><time>2016-12-28T21:13:42Z</time></trkpt>
   <trkpt lat="30.913711" lon="34.753245"><ele>537.8</ele><name>TP04861</name><time>2016-12-28T21:13:44Z</time></trkpt>
   <trkpt lat="30.913765" lon="34.753243"><ele>538.2</ele><name>TP04862</name><time>2016-12-28T21:13:45Z</time></trkpt>
   <trkpt lat="30.91382" lon="34.753229"><ele>538.2</ele><name>TP04863</name><time>2016-12-28T21:13:46Z</time></trkpt>
   <trkpt lat="30.913876" lon="34.753207"><ele>538.1</ele><name>TP04864</name><time>2016-12-28T21:13:47Z</time></trkpt>
   <trkpt lat="30.913971" lon="34.75314"><ele>537.7</ele><name>TP04865</name><time>2016-12-28T21:13:48Z</time></trkpt>
   <trkpt lat="30.91418" lon="34.753076"><ele>538.2</ele><name>TP04866</name><time>2016-12-28T21:13:50Z</time></trkpt>
   <trkpt lat="30.914206" lon="34.753015"><ele>537.8</ele><name>TP04867</name><time>2016-12-28T21:13:51Z</time></trkpt>
   <trkpt lat="30.914231" lon="34.752955"><ele>537.4</ele><name>TP04868</name><time>2016-12-28T21:13:52Z</time></trkpt>
   <trkpt lat="30.914259" lon="34.752905"><ele>537.2</ele><name>TP04869</name><time>2016-12-28T21:13:53Z</time></trkpt>
   <trkpt lat="30.914292" lon="34.752862"><ele>537</ele><name>TP04870</name><time>2016-12-28T21:13:54Z</time></trkpt>
   <trkpt lat="30.914332" lon="34.75283"><ele>537.1</ele><name>TP04871</name><time>2016-12-28T21:13:55Z</time></trkpt>
   <trkpt lat="30.914377" lon="34.752814"><ele>537.3</ele><name>TP04872</name><time>2016-12-28T21:13:56Z</time></trkpt>
   <trkpt lat="30.914434" lon="34.752808"><ele>537.8</ele><name>TP04873</name><time>2016-12-28T21:13:57Z</time></trkpt>
   <trkpt lat="30.914497" lon="34.752816"><ele>538.5</ele><name>TP04874</name><time>2016-12-28T21:13:58Z</time></trkpt>
   <trkpt lat="30.91456" lon="34.752831"><ele>539.2</ele><name>TP04875</name><time>2016-12-28T21:13:59Z</time></trkpt>
   <trkpt lat="30.914625" lon="34.752853"><ele>539.7</ele><name>TP04876</name><time>2016-12-28T21:14:00Z</time></trkpt>
   <trkpt lat="30.914696" lon="34.752867"><ele>540</ele><name>TP04877</name><time>2016-12-28T21:14:01Z</time></trkpt>
   <trkpt lat="30.914768" lon="34.752861"><ele>540.2</ele><name>TP04878</name><time>2016-12-28T21:14:02Z</time></trkpt>
   <trkpt lat="30.914833" lon="34.752838"><ele>540.2</ele><name>TP04879</name><time>2016-12-28T21:14:03Z</time></trkpt>
   <trkpt lat="30.914902" lon="34.752818"><ele>540.3</ele><name>TP04880</name><time>2016-12-28T21:14:04Z</time></trkpt>
   <trkpt lat="30.914964" lon="34.752797"><ele>540.3</ele><name>TP04881</name><time>2016-12-28T21:14:05Z</time></trkpt>
   <trkpt lat="30.915019" lon="34.752766"><ele>540.2</ele><name>TP04882</name><time>2016-12-28T21:14:06Z</time></trkpt>
   <trkpt lat="30.915071" lon="34.752723"><ele>540</ele><name>TP04883</name><time>2016-12-28T21:14:07Z</time></trkpt>
   <trkpt lat="30.915114" lon="34.752672"><ele>539.6</ele><name>TP04884</name><time>2016-12-28T21:14:08Z</time></trkpt>
   <trkpt lat="30.915142" lon="34.752611"><ele>539.1</ele><name>TP04885</name><time>2016-12-28T21:14:09Z</time></trkpt>
   <trkpt lat="30.915164" lon="34.752545"><ele>538.5</ele><name>TP04886</name><time>2016-12-28T21:14:10Z</time></trkpt>
   <trkpt lat="30.915174" lon="34.752484"><ele>537.9</ele><name>TP04887</name><time>2016-12-28T21:14:11Z</time></trkpt>
   <trkpt lat="30.915177" lon="34.752419"><ele>537.3</ele><name>TP04888</name><time>2016-12-28T21:14:12Z</time></trkpt>
   <trkpt lat="30.915187" lon="34.752355"><ele>536.7</ele><name>TP04889</name><time>2016-12-28T21:14:13Z</time></trkpt>
   <trkpt lat="30.915205" lon="34.752292"><ele>536.1</ele><name>TP04890</name><time>2016-12-28T21:14:14Z</time></trkpt>
   <trkpt lat="30.915218" lon="34.752234"><ele>535.5</ele><name>TP04891</name><time>2016-12-28T21:14:15Z</time></trkpt>
   <trkpt lat="30.915229" lon="34.752169"><ele>534.9</ele><name>TP04892</name><time>2016-12-28T21:14:16Z</time></trkpt>
   <trkpt lat="30.915261" lon="34.752107"><ele>534.2</ele><name>TP04893</name><time>2016-12-28T21:14:17Z</time></trkpt>
   <trkpt lat="30.915292" lon="34.752071"><ele>533.9</ele><name>TP04894</name><time>2016-12-28T21:14:18Z</time></trkpt>
   <trkpt lat="30.91532" lon="34.752054"><ele>533.7</ele><name>TP04895</name><time>2016-12-28T21:14:19Z</time></trkpt>
   <trkpt lat="30.915364" lon="34.752079"><ele>534</ele><name>TP04896</name><time>2016-12-28T21:14:21Z</time></trkpt>
   <trkpt lat="30.915388" lon="34.752097"><ele>534.1</ele><name>TP04897</name><time>2016-12-28T21:14:22Z</time></trkpt>
   <trkpt lat="30.915414" lon="34.752114"><ele>534.3</ele><name>TP04898</name><time>2016-12-28T21:14:23Z</time></trkpt>
   <trkpt lat="30.915442" lon="34.752132"><ele>534.7</ele><name>TP04899</name><time>2016-12-28T21:14:24Z</time></trkpt>
   <trkpt lat="30.915469" lon="34.752159"><ele>535.2</ele><name>TP04900</name><time>2016-12-28T21:14:25Z</time></trkpt>
   <trkpt lat="30.915496" lon="34.752192"><ele>535.8</ele><name>TP04901</name><time>2016-12-28T21:14:27Z</time></trkpt>
   <trkpt lat="30.915485" lon="34.752223"><ele>536</ele><name>TP04902</name><time>2016-12-28T21:14:29Z</time></trkpt>
   <trkpt lat="30.915505" lon="34.752248"><ele>536.4</ele><name>TP04903</name><time>2016-12-28T21:14:30Z</time></trkpt>
   <trkpt lat="30.915533" lon="34.75227"><ele>536.8</ele><name>TP04904</name><time>2016-12-28T21:14:31Z</time></trkpt>
   <trkpt lat="30.91556" lon="34.752283"><ele>537.2</ele><name>TP04905</name><time>2016-12-28T21:14:32Z</time></trkpt>
   <trkpt lat="30.915588" lon="34.752294"><ele>537.5</ele><name>TP04906</name><time>2016-12-28T21:14:33Z</time></trkpt>
   <trkpt lat="30.915625" lon="34.752299"><ele>537.8</ele><name>TP04907</name><time>2016-12-28T21:14:34Z</time></trkpt>
   <trkpt lat="30.915677" lon="34.752307"><ele>538.2</ele><name>TP04908</name><time>2016-12-28T21:14:35Z</time></trkpt>
   <trkpt lat="30.915715" lon="34.752319"><ele>538.5</ele><name>TP04909</name><time>2016-12-28T21:14:36Z</time></trkpt>
   <trkpt lat="30.915741" lon="34.752333"><ele>538.8</ele><name>TP04910</name><time>2016-12-28T21:14:37Z</time></trkpt>
   <trkpt lat="30.915774" lon="34.752368"><ele>539.3</ele><name>TP04911</name><time>2016-12-28T21:14:39Z</time></trkpt>
   <trkpt lat="30.915797" lon="34.752397"><ele>539.7</ele><name>TP04912</name><time>2016-12-28T21:14:40Z</time></trkpt>
   <trkpt lat="30.91584" lon="34.752434"><ele>540.3</ele><name>TP04913</name><time>2016-12-28T21:14:42Z</time></trkpt>
   <trkpt lat="30.915882" lon="34.752449"><ele>540.6</ele><name>TP04914</name><time>2016-12-28T21:14:43Z</time></trkpt>
   <trkpt lat="30.915922" lon="34.752461"><ele>540.9</ele><name>TP04915</name><time>2016-12-28T21:14:44Z</time></trkpt>
   <trkpt lat="30.915956" lon="34.752471"><ele>541.2</ele><name>TP04916</name><time>2016-12-28T21:14:45Z</time></trkpt>
   <trkpt lat="30.916009" lon="34.752486"><ele>541.6</ele><name>TP04917</name><time>2016-12-28T21:14:47Z</time></trkpt>
   <trkpt lat="30.916046" lon="34.752497"><ele>541.9</ele><name>TP04918</name><time>2016-12-28T21:14:48Z</time></trkpt>
   <trkpt lat="30.91609" lon="34.752514"><ele>542.2</ele><name>TP04919</name><time>2016-12-28T21:14:49Z</time></trkpt>
   <trkpt lat="30.916148" lon="34.752539"><ele>542.7</ele><name>TP04920</name><time>2016-12-28T21:14:50Z</time></trkpt>
   <trkpt lat="30.916204" lon="34.752565"><ele>543.1</ele><name>TP04921</name><time>2016-12-28T21:14:51Z</time></trkpt>
   <trkpt lat="30.916257" lon="34.752591"><ele>543.4</ele><name>TP04922</name><time>2016-12-28T21:14:52Z</time></trkpt>
   <trkpt lat="30.916339" lon="34.75264"><ele>542.9</ele><name>TP04923</name><time>2016-12-28T21:14:53Z</time></trkpt>
   <trkpt lat="30.916442" lon="34.752663"><ele>542.1</ele><name>TP04924</name><time>2016-12-28T21:14:55Z</time></trkpt>
   <trkpt lat="30.916478" lon="34.752672"><ele>541.8</ele><name>TP04925</name><time>2016-12-28T21:14:56Z</time></trkpt>
   <trkpt lat="30.91652" lon="34.752681"><ele>541.5</ele><name>TP04926</name><time>2016-12-28T21:14:57Z</time></trkpt>
   <trkpt lat="30.916566" lon="34.752694"><ele>541.2</ele><name>TP04927</name><time>2016-12-28T21:14:58Z</time></trkpt>
   <trkpt lat="30.916608" lon="34.752716"><ele>541.1</ele><name>TP04928</name><time>2016-12-28T21:14:59Z</time></trkpt>
   <trkpt lat="30.916648" lon="34.752743"><ele>541</ele><name>TP04929</name><time>2016-12-28T21:15:00Z</time></trkpt>
   <trkpt lat="30.916687" lon="34.752772"><ele>541</ele><name>TP04930</name><time>2016-12-28T21:15:01Z</time></trkpt>
   <trkpt lat="30.916723" lon="34.752811"><ele>541.1</ele><name>TP04931</name><time>2016-12-28T21:15:02Z</time></trkpt>
   <trkpt lat="30.916763" lon="34.752852"><ele>541.2</ele><name>TP04932</name><time>2016-12-28T21:15:03Z</time></trkpt>
   <trkpt lat="30.916798" lon="34.752896"><ele>541.5</ele><name>TP04933</name><time>2016-12-28T21:15:04Z</time></trkpt>
   <trkpt lat="30.916827" lon="34.752941"><ele>541.4</ele><name>TP04934</name><time>2016-12-28T21:15:05Z</time></trkpt>
   <trkpt lat="30.916847" lon="34.752992"><ele>541.1</ele><name>TP04935</name><time>2016-12-28T21:15:06Z</time></trkpt>
   <trkpt lat="30.916857" lon="34.753054"><ele>540.8</ele><name>TP04936</name><time>2016-12-28T21:15:07Z</time></trkpt>
   <trkpt lat="30.916877" lon="34.753109"><ele>540.4</ele><name>TP04937</name><time>2016-12-28T21:15:08Z</time></trkpt>
   <trkpt lat="30.916899" lon="34.753156"><ele>540.1</ele><name>TP04938</name><time>2016-12-28T21:15:09Z</time></trkpt>
   <trkpt lat="30.916924" lon="34.753199"><ele>539.8</ele><name>TP04939</name><time>2016-12-28T21:15:10Z</time></trkpt>
   <trkpt lat="30.91695" lon="34.753239"><ele>539.5</ele><name>TP04940</name><time>2016-12-28T21:15:11Z</time></trkpt>
   <trkpt lat="30.916974" lon="34.753277"><ele>539.2</ele><name>TP04941</name><time>2016-12-28T21:15:12Z</time></trkpt>
   <trkpt lat="30.916991" lon="34.753321"><ele>539</ele><name>TP04942</name><time>2016-12-28T21:15:13Z</time></trkpt>
   <trkpt lat="30.916999" lon="34.753374"><ele>538.7</ele><name>TP04943</name><time>2016-12-28T21:15:14Z</time></trkpt>
   <trkpt lat="30.917007" lon="34.753424"><ele>538.5</ele><name>TP04944</name><time>2016-12-28T21:15:15Z</time></trkpt>
   <trkpt lat="30.917014" lon="34.753467"><ele>538.3</ele><name>TP04945</name><time>2016-12-28T21:15:16Z</time></trkpt>
   <trkpt lat="30.917016" lon="34.753515"><ele>538.1</ele><name>TP04946</name><time>2016-12-28T21:15:17Z</time></trkpt>
   <trkpt lat="30.917013" lon="34.753571"><ele>537.9</ele><name>TP04947</name><time>2016-12-28T21:15:19Z</time></trkpt>
   <trkpt lat="30.917014" lon="34.75362"><ele>537.7</ele><name>TP04948</name><time>2016-12-28T21:15:21Z</time></trkpt>
   <trkpt lat="30.917015" lon="34.753681"><ele>537.5</ele><name>TP04949</name><time>2016-12-28T21:15:23Z</time></trkpt>
   <trkpt lat="30.917019" lon="34.75373"><ele>537.3</ele><name>TP04950</name><time>2016-12-28T21:15:24Z</time></trkpt>
   <trkpt lat="30.917022" lon="34.753766"><ele>537.3</ele><name>TP04951</name><time>2016-12-28T21:15:25Z</time></trkpt>
   <trkpt lat="30.917024" lon="34.753809"><ele>537.4</ele><name>TP04952</name><time>2016-12-28T21:15:26Z</time></trkpt>
   <trkpt lat="30.917033" lon="34.753888"><ele>537.6</ele><name>TP04953</name><time>2016-12-28T21:15:28Z</time></trkpt>
   <trkpt lat="30.91705" lon="34.753954"><ele>537.8</ele><name>TP04954</name><time>2016-12-28T21:15:29Z</time></trkpt>
   <trkpt lat="30.917071" lon="34.754021"><ele>538</ele><name>TP04955</name><time>2016-12-28T21:15:30Z</time></trkpt>
   <trkpt lat="30.917096" lon="34.754086"><ele>538.1</ele><name>TP04956</name><time>2016-12-28T21:15:31Z</time></trkpt>
   <trkpt lat="30.917121" lon="34.754147"><ele>538.2</ele><name>TP04957</name><time>2016-12-28T21:15:32Z</time></trkpt>
   <trkpt lat="30.917145" lon="34.754203"><ele>538.2</ele><name>TP04958</name><time>2016-12-28T21:15:33Z</time></trkpt>
   <trkpt lat="30.91717" lon="34.754255"><ele>538.3</ele><name>TP04959</name><time>2016-12-28T21:15:34Z</time></trkpt>
   <trkpt lat="30.917194" lon="34.754303"><ele>538.3</ele><name>TP04960</name><time>2016-12-28T21:15:35Z</time></trkpt>
   <trkpt lat="30.917226" lon="34.754466"><ele>538.9</ele><name>TP04961</name><time>2016-12-28T21:15:37Z</time></trkpt>
   <trkpt lat="30.917244" lon="34.754504"><ele>539</ele><name>TP04962</name><time>2016-12-28T21:15:38Z</time></trkpt>
   <trkpt lat="30.917268" lon="34.75454"><ele>539.1</ele><name>TP04963</name><time>2016-12-28T21:15:39Z</time></trkpt>
   <trkpt lat="30.917332" lon="34.754608"><ele>539.4</ele><name>TP04964</name><time>2016-12-28T21:15:41Z</time></trkpt>
   <trkpt lat="30.917361" lon="34.75464"><ele>539.6</ele><name>TP04965</name><time>2016-12-28T21:15:42Z</time></trkpt>
   <trkpt lat="30.917398" lon="34.754665"><ele>539.7</ele><name>TP04966</name><time>2016-12-28T21:15:43Z</time></trkpt>
   <trkpt lat="30.917435" lon="34.754697"><ele>539.9</ele><name>TP04967</name><time>2016-12-28T21:15:45Z</time></trkpt>
   <trkpt lat="30.917471" lon="34.754721"><ele>540</ele><name>TP04968</name><time>2016-12-28T21:15:47Z</time></trkpt>
   <trkpt lat="30.917524" lon="34.754737"><ele>540</ele><name>TP04969</name><time>2016-12-28T21:15:49Z</time></trkpt>
   <trkpt lat="30.917572" lon="34.754749"><ele>539.9</ele><name>TP04970</name><time>2016-12-28T21:15:50Z</time></trkpt>
   <trkpt lat="30.917609" lon="34.754756"><ele>539.8</ele><name>TP04971</name><time>2016-12-28T21:15:51Z</time></trkpt>
   <trkpt lat="30.91766" lon="34.754754"><ele>539.6</ele><name>TP04972</name><time>2016-12-28T21:15:53Z</time></trkpt>
   <trkpt lat="30.917714" lon="34.754741"><ele>539.3</ele><name>TP04973</name><time>2016-12-28T21:15:54Z</time></trkpt>
   <trkpt lat="30.917767" lon="34.754721"><ele>538.9</ele><name>TP04974</name><time>2016-12-28T21:15:55Z</time></trkpt>
   <trkpt lat="30.917814" lon="34.754697"><ele>538.5</ele><name>TP04975</name><time>2016-12-28T21:15:56Z</time></trkpt>
   <trkpt lat="30.917856" lon="34.754668"><ele>538</ele><name>TP04976</name><time>2016-12-28T21:15:57Z</time></trkpt>
   <trkpt lat="30.917893" lon="34.754637"><ele>537.6</ele><name>TP04977</name><time>2016-12-28T21:15:58Z</time></trkpt>
   <trkpt lat="30.917927" lon="34.754605"><ele>537.3</ele><name>TP04978</name><time>2016-12-28T21:15:59Z</time></trkpt>
   <trkpt lat="30.917956" lon="34.754571"><ele>537.1</ele><name>TP04979</name><time>2016-12-28T21:16:00Z</time></trkpt>
   <trkpt lat="30.917989" lon="34.754516"><ele>536.6</ele><name>TP04980</name><time>2016-12-28T21:16:01Z</time></trkpt>
   <trkpt lat="30.918072" lon="34.754462"><ele>536.3</ele><name>TP04981</name><time>2016-12-28T21:16:03Z</time></trkpt>
   <trkpt lat="30.918107" lon="34.754431"><ele>536.1</ele><name>TP04982</name><time>2016-12-28T21:16:04Z</time></trkpt>
   <trkpt lat="30.918149" lon="34.754418"><ele>536.1</ele><name>TP04983</name><time>2016-12-28T21:16:05Z</time></trkpt>
   <trkpt lat="30.918186" lon="34.754436"><ele>536.4</ele><name>TP04984</name><time>2016-12-28T21:16:06Z</time></trkpt>
   <trkpt lat="30.918224" lon="34.754465"><ele>536.9</ele><name>TP04985</name><time>2016-12-28T21:16:07Z</time></trkpt>
   <trkpt lat="30.91826" lon="34.754489"><ele>537.4</ele><name>TP04986</name><time>2016-12-28T21:16:08Z</time></trkpt>
   <trkpt lat="30.9183" lon="34.754518"><ele>538</ele><name>TP04987</name><time>2016-12-28T21:16:09Z</time></trkpt>
   <trkpt lat="30.918339" lon="34.754549"><ele>538.6</ele><name>TP04988</name><time>2016-12-28T21:16:10Z</time></trkpt>
   <trkpt lat="30.91837" lon="34.754578"><ele>539.1</ele><name>TP04989</name><time>2016-12-28T21:16:11Z</time></trkpt>
   <trkpt lat="30.918405" lon="34.754603"><ele>539.4</ele><name>TP04990</name><time>2016-12-28T21:16:12Z</time></trkpt>
   <trkpt lat="30.918453" lon="34.75461"><ele>539.7</ele><name>TP04991</name><time>2016-12-28T21:16:13Z</time></trkpt>
   <trkpt lat="30.918504" lon="34.754612"><ele>539.9</ele><name>TP04992</name><time>2016-12-28T21:16:14Z</time></trkpt>
   <trkpt lat="30.918558" lon="34.754612"><ele>540.1</ele><name>TP04993</name><time>2016-12-28T21:16:15Z</time></trkpt>
   <trkpt lat="30.918614" lon="34.754599"><ele>540.4</ele><name>TP04994</name><time>2016-12-28T21:16:16Z</time></trkpt>
   <trkpt lat="30.918672" lon="34.754578"><ele>540.5</ele><name>TP04995</name><time>2016-12-28T21:16:17Z</time></trkpt>
   <trkpt lat="30.918733" lon="34.754549"><ele>540.3</ele><name>TP04996</name><time>2016-12-28T21:16:18Z</time></trkpt>
   <trkpt lat="30.918798" lon="34.754515"><ele>540</ele><name>TP04997</name><time>2016-12-28T21:16:19Z</time></trkpt>
   <trkpt lat="30.918856" lon="34.754479"><ele>539.6</ele><name>TP04998</name><time>2016-12-28T21:16:20Z</time></trkpt>
   <trkpt lat="30.918907" lon="34.754433"><ele>539.1</ele><name>TP04999</name><time>2016-12-28T21:16:21Z</time></trkpt>
   <trkpt lat="30.918958" lon="34.754382"><ele>538.5</ele><name>TP05000</name><time>2016-12-28T21:16:22Z</time></trkpt>
   <trkpt lat="30.91901" lon="34.754337"><ele>538.1</ele><name>TP05001</name><time>2016-12-28T21:16:23Z</time></trkpt>
   <trkpt lat="30.91906" lon="34.754299"><ele>537.9</ele><name>TP05002</name><time>2016-12-28T21:16:24Z</time></trkpt>
   <trkpt lat="30.919107" lon="34.754268"><ele>537.7</ele><name>TP05003</name><time>2016-12-28T21:16:25Z</time></trkpt>
   <trkpt lat="30.919155" lon="34.754237"><ele>537.6</ele><name>TP05004</name><time>2016-12-28T21:16:26Z</time></trkpt>
   <trkpt lat="30.919201" lon="34.754211"><ele>537.5</ele><name>TP05005</name><time>2016-12-28T21:16:27Z</time></trkpt>
   <trkpt lat="30.91925" lon="34.754186"><ele>537.5</ele><name>TP05006</name><time>2016-12-28T21:16:28Z</time></trkpt>
   <trkpt lat="30.919293" lon="34.754144"><ele>537.3</ele><name>TP05007</name><time>2016-12-28T21:16:29Z</time></trkpt>
   <trkpt lat="30.919332" lon="34.754098"><ele>537.1</ele><name>TP05008</name><time>2016-12-28T21:16:30Z</time></trkpt>
   <trkpt lat="30.91937" lon="34.75405"><ele>536.9</ele><name>TP05009</name><time>2016-12-28T21:16:31Z</time></trkpt>
   <trkpt lat="30.919411" lon="34.754002"><ele>536.7</ele><name>TP05010</name><time>2016-12-28T21:16:32Z</time></trkpt>
   <trkpt lat="30.919452" lon="34.753958"><ele>536.6</ele><name>TP05011</name><time>2016-12-28T21:16:33Z</time></trkpt>
   <trkpt lat="30.919496" lon="34.753919"><ele>536.6</ele><name>TP05012</name><time>2016-12-28T21:16:34Z</time></trkpt>
   <trkpt lat="30.919548" lon="34.753882"><ele>536.8</ele><name>TP05013</name><time>2016-12-28T21:16:35Z</time></trkpt>
   <trkpt lat="30.919611" lon="34.753857"><ele>536.4</ele><name>TP05014</name><time>2016-12-28T21:16:36Z</time></trkpt>
   <trkpt lat="30.919669" lon="34.753833"><ele>535.1</ele><name>TP05015</name><time>2016-12-28T21:16:37Z</time></trkpt>
   <trkpt lat="30.919722" lon="34.753799"><ele>533.8</ele><name>TP05016</name><time>2016-12-28T21:16:38Z</time></trkpt>
   <trkpt lat="30.91976" lon="34.753755"><ele>532.7</ele><name>TP05017</name><time>2016-12-28T21:16:39Z</time></trkpt>
   <trkpt lat="30.91979" lon="34.753692"><ele>532.2</ele><name>TP05018</name><time>2016-12-28T21:16:40Z</time></trkpt>
   <trkpt lat="30.919822" lon="34.75363"><ele>531.9</ele><name>TP05019</name><time>2016-12-28T21:16:41Z</time></trkpt>
   <trkpt lat="30.919856" lon="34.75357"><ele>531.5</ele><name>TP05020</name><time>2016-12-28T21:16:42Z</time></trkpt>
   <trkpt lat="30.919886" lon="34.753506"><ele>531.2</ele><name>TP05021</name><time>2016-12-28T21:16:43Z</time></trkpt>
   <trkpt lat="30.919908" lon="34.753436"><ele>531.2</ele><name>TP05022</name><time>2016-12-28T21:16:44Z</time></trkpt>
   <trkpt lat="30.919916" lon="34.753371"><ele>531.3</ele><name>TP05023</name><time>2016-12-28T21:16:45Z</time></trkpt>
   <trkpt lat="30.919927" lon="34.753305"><ele>531.5</ele><name>TP05024</name><time>2016-12-28T21:16:46Z</time></trkpt>
   <trkpt lat="30.919931" lon="34.753234"><ele>531.8</ele><name>TP05025</name><time>2016-12-28T21:16:47Z</time></trkpt>
   <trkpt lat="30.919934" lon="34.753172"><ele>532</ele><name>TP05026</name><time>2016-12-28T21:16:48Z</time></trkpt>
   <trkpt lat="30.919933" lon="34.753121"><ele>532.3</ele><name>TP05027</name><time>2016-12-28T21:16:49Z</time></trkpt>
   <trkpt lat="30.919924" lon="34.753082"><ele>532.6</ele><name>TP05028</name><time>2016-12-28T21:16:50Z</time></trkpt>
   <trkpt lat="30.91991" lon="34.753042"><ele>532.9</ele><name>TP05029</name><time>2016-12-28T21:16:51Z</time></trkpt>
   <trkpt lat="30.919894" lon="34.753004"><ele>533.3</ele><name>TP05030</name><time>2016-12-28T21:16:52Z</time></trkpt>
   <trkpt lat="30.919882" lon="34.752964"><ele>533.6</ele><name>TP05031</name><time>2016-12-28T21:16:53Z</time></trkpt>
   <trkpt lat="30.919869" lon="34.75292"><ele>533.9</ele><name>TP05032</name><time>2016-12-28T21:16:54Z</time></trkpt>
   <trkpt lat="30.919855" lon="34.752874"><ele>533.8</ele><name>TP05033</name><time>2016-12-28T21:16:55Z</time></trkpt>
   <trkpt lat="30.919846" lon="34.752845"><ele>533.6</ele><name>TP05034</name><time>2016-12-28T21:16:56Z</time></trkpt>
   <trkpt lat="30.919837" lon="34.752794"><ele>533.3</ele><name>TP05035</name><time>2016-12-28T21:16:58Z</time></trkpt>
   <trkpt lat="30.919831" lon="34.752732"><ele>532.9</ele><name>TP05036</name><time>2016-12-28T21:17:00Z</time></trkpt>
   <trkpt lat="30.919824" lon="34.752697"><ele>532.7</ele><name>TP05037</name><time>2016-12-28T21:17:01Z</time></trkpt>
   <trkpt lat="30.919816" lon="34.752661"><ele>532.4</ele><name>TP05038</name><time>2016-12-28T21:17:02Z</time></trkpt>
   <trkpt lat="30.919821" lon="34.75259"><ele>531.9</ele><name>TP05039</name><time>2016-12-28T21:17:04Z</time></trkpt>
   <trkpt lat="30.919839" lon="34.752528"><ele>531.3</ele><name>TP05040</name><time>2016-12-28T21:17:05Z</time></trkpt>
   <trkpt lat="30.919861" lon="34.75247"><ele>530.8</ele><name>TP05041</name><time>2016-12-28T21:17:06Z</time></trkpt>
   <trkpt lat="30.919904" lon="34.752376"><ele>530</ele><name>TP05042</name><time>2016-12-28T21:17:07Z</time></trkpt>
   <trkpt lat="30.919971" lon="34.752243"><ele>529.2</ele><name>TP05043</name><time>2016-12-28T21:17:09Z</time></trkpt>
   <trkpt lat="30.92002" lon="34.75219"><ele>529</ele><name>TP05044</name><time>2016-12-28T21:17:10Z</time></trkpt>
   <trkpt lat="30.920059" lon="34.752132"><ele>528.9</ele><name>TP05045</name><time>2016-12-28T21:17:11Z</time></trkpt>
   <trkpt lat="30.920098" lon="34.752071"><ele>528.8</ele><name>TP05046</name><time>2016-12-28T21:17:12Z</time></trkpt>
   <trkpt lat="30.920137" lon="34.752016"><ele>528.9</ele><name>TP05047</name><time>2016-12-28T21:17:13Z</time></trkpt>
   <trkpt lat="30.920181" lon="34.751971"><ele>529</ele><name>TP05048</name><time>2016-12-28T21:17:14Z</time></trkpt>
   <trkpt lat="30.920225" lon="34.751924"><ele>529.1</ele><name>TP05049</name><time>2016-12-28T21:17:15Z</time></trkpt>
   <trkpt lat="30.920275" lon="34.751883"><ele>529.2</ele><name>TP05050</name><time>2016-12-28T21:17:16Z</time></trkpt>
   <trkpt lat="30.920321" lon="34.751844"><ele>529.3</ele><name>TP05051</name><time>2016-12-28T21:17:17Z</time></trkpt>
   <trkpt lat="30.920368" lon="34.751812"><ele>529.5</ele><name>TP05052</name><time>2016-12-28T21:17:18Z</time></trkpt>
   <trkpt lat="30.920408" lon="34.751774"><ele>529.6</ele><name>TP05053</name><time>2016-12-28T21:17:19Z</time></trkpt>
   <trkpt lat="30.920443" lon="34.751724"><ele>529.1</ele><name>TP05054</name><time>2016-12-28T21:17:20Z</time></trkpt>
   <trkpt lat="30.920473" lon="34.751667"><ele>528.5</ele><name>TP05055</name><time>2016-12-28T21:17:21Z</time></trkpt>
   <trkpt lat="30.920491" lon="34.751612"><ele>528.2</ele><name>TP05056</name><time>2016-12-28T21:17:22Z</time></trkpt>
   <trkpt lat="30.920507" lon="34.751559"><ele>527.9</ele><name>TP05057</name><time>2016-12-28T21:17:23Z</time></trkpt>
   <trkpt lat="30.920529" lon="34.751511"><ele>527.6</ele><name>TP05058</name><time>2016-12-28T21:17:24Z</time></trkpt>
   <trkpt lat="30.920544" lon="34.751467"><ele>527.4</ele><name>TP05059</name><time>2016-12-28T21:17:25Z</time></trkpt>
   <trkpt lat="30.920558" lon="34.751425"><ele>527.2</ele><name>TP05060</name><time>2016-12-28T21:17:26Z</time></trkpt>
   <trkpt lat="30.92057" lon="34.751392"><ele>527</ele><name>TP05061</name><time>2016-12-28T21:17:28Z</time></trkpt>
   <trkpt lat="30.92056" lon="34.751353"><ele>527.2</ele><name>TP05062</name><time>2016-12-28T21:17:30Z</time></trkpt>
   <trkpt lat="30.920558" lon="34.75132"><ele>527.3</ele><name>TP05063</name><time>2016-12-28T21:17:31Z</time></trkpt>
   <trkpt lat="30.920556" lon="34.751279"><ele>527.3</ele><name>TP05064</name><time>2016-12-28T21:17:33Z</time></trkpt>
   <trkpt lat="30.920548" lon="34.751228"><ele>527.6</ele><name>TP05065</name><time>2016-12-28T21:17:35Z</time></trkpt>
   <trkpt lat="30.920536" lon="34.75118"><ele>528.2</ele><name>TP05066</name><time>2016-12-28T21:17:37Z</time></trkpt>
   <trkpt lat="30.92052" lon="34.751142"><ele>528.7</ele><name>TP05067</name><time>2016-12-28T21:17:39Z</time></trkpt>
   <trkpt lat="30.920508" lon="34.751112"><ele>529.1</ele><name>TP05068</name><time>2016-12-28T21:17:40Z</time></trkpt>
   <trkpt lat="30.920489" lon="34.751068"><ele>529.7</ele><name>TP05069</name><time>2016-12-28T21:17:41Z</time></trkpt>
   <trkpt lat="30.92047" lon="34.751024"><ele>530.3</ele><name>TP05070</name><time>2016-12-28T21:17:42Z</time></trkpt>
   <trkpt lat="30.920454" lon="34.750981"><ele>530.9</ele><name>TP05071</name><time>2016-12-28T21:17:43Z</time></trkpt>
   <trkpt lat="30.920413" lon="34.750837"><ele>532.4</ele><name>TP05072</name><time>2016-12-28T21:17:45Z</time></trkpt>
   <trkpt lat="30.920417" lon="34.750804"><ele>532.7</ele><name>TP05073</name><time>2016-12-28T21:17:46Z</time></trkpt>
   <trkpt lat="30.920431" lon="34.750773"><ele>532.9</ele><name>TP05074</name><time>2016-12-28T21:17:47Z</time></trkpt>
   <trkpt lat="30.920445" lon="34.750744"><ele>533</ele><name>TP05075</name><time>2016-12-28T21:17:48Z</time></trkpt>
   <trkpt lat="30.920453" lon="34.750704"><ele>533.3</ele><name>TP05076</name><time>2016-12-28T21:17:49Z</time></trkpt>
   <trkpt lat="30.920458" lon="34.750658"><ele>533.6</ele><name>TP05077</name><time>2016-12-28T21:17:50Z</time></trkpt>
   <trkpt lat="30.920467" lon="34.750609"><ele>534</ele><name>TP05078</name><time>2016-12-28T21:17:51Z</time></trkpt>
   <trkpt lat="30.920471" lon="34.750576"><ele>534.2</ele><name>TP05079</name><time>2016-12-28T21:17:52Z</time></trkpt>
   <trkpt lat="30.920479" lon="34.750533"><ele>534.5</ele><name>TP05080</name><time>2016-12-28T21:17:54Z</time></trkpt>
   <trkpt lat="30.920482" lon="34.750499"><ele>534.8</ele><name>TP05081</name><time>2016-12-28T21:17:55Z</time></trkpt>
   <trkpt lat="30.920489" lon="34.75046"><ele>535.1</ele><name>TP05082</name><time>2016-12-28T21:17:56Z</time></trkpt>
   <trkpt lat="30.920526" lon="34.750385"><ele>535.2</ele><name>TP05083</name><time>2016-12-28T21:17:58Z</time></trkpt>
   <trkpt lat="30.920567" lon="34.750334"><ele>534.8</ele><name>TP05084</name><time>2016-12-28T21:17:59Z</time></trkpt>
   <trkpt lat="30.920604" lon="34.750287"><ele>534.6</ele><name>TP05085</name><time>2016-12-28T21:18:00Z</time></trkpt>
   <trkpt lat="30.920643" lon="34.750238"><ele>534.3</ele><name>TP05086</name><time>2016-12-28T21:18:01Z</time></trkpt>
   <trkpt lat="30.920681" lon="34.750188"><ele>534.2</ele><name>TP05087</name><time>2016-12-28T21:18:02Z</time></trkpt>
   <trkpt lat="30.920727" lon="34.750103"><ele>534</ele><name>TP05088</name><time>2016-12-28T21:18:03Z</time></trkpt>
   <trkpt lat="30.920805" lon="34.749963"><ele>533.9</ele><name>TP05089</name><time>2016-12-28T21:18:05Z</time></trkpt>
   <trkpt lat="30.920832" lon="34.749911"><ele>533.9</ele><name>TP05090</name><time>2016-12-28T21:18:06Z</time></trkpt>
   <trkpt lat="30.920851" lon="34.749851"><ele>534</ele><name>TP05091</name><time>2016-12-28T21:18:07Z</time></trkpt>
   <trkpt lat="30.92086" lon="34.749785"><ele>534.1</ele><name>TP05092</name><time>2016-12-28T21:18:08Z</time></trkpt>
   <trkpt lat="30.920845" lon="34.749712"><ele>534.3</ele><name>TP05093</name><time>2016-12-28T21:18:09Z</time></trkpt>
   <trkpt lat="30.920834" lon="34.749645"><ele>534.4</ele><name>TP05094</name><time>2016-12-28T21:18:10Z</time></trkpt>
   <trkpt lat="30.920829" lon="34.749581"><ele>534.5</ele><name>TP05095</name><time>2016-12-28T21:18:11Z</time></trkpt>
   <trkpt lat="30.920823" lon="34.749522"><ele>533.7</ele><name>TP05096</name><time>2016-12-28T21:18:12Z</time></trkpt>
   <trkpt lat="30.92081" lon="34.749466"><ele>532.9</ele><name>TP05097</name><time>2016-12-28T21:18:13Z</time></trkpt>
   <trkpt lat="30.920784" lon="34.749411"><ele>532.1</ele><name>TP05098</name><time>2016-12-28T21:18:14Z</time></trkpt>
   <trkpt lat="30.920752" lon="34.74936"><ele>531.4</ele><name>TP05099</name><time>2016-12-28T21:18:15Z</time></trkpt>
   <trkpt lat="30.920724" lon="34.749295"><ele>530.5</ele><name>TP05100</name><time>2016-12-28T21:18:16Z</time></trkpt>
   <trkpt lat="30.920691" lon="34.749229"><ele>529.5</ele><name>TP05101</name><time>2016-12-28T21:18:17Z</time></trkpt>
   <trkpt lat="30.920643" lon="34.749169"><ele>528.6</ele><name>TP05102</name><time>2016-12-28T21:18:18Z</time></trkpt>
   <trkpt lat="30.920587" lon="34.749117"><ele>527.7</ele><name>TP05103</name><time>2016-12-28T21:18:19Z</time></trkpt>
   <trkpt lat="30.920527" lon="34.749077"><ele>527</ele><name>TP05104</name><time>2016-12-28T21:18:20Z</time></trkpt>
   <trkpt lat="30.920466" lon="34.749046"><ele>526.4</ele><name>TP05105</name><time>2016-12-28T21:18:21Z</time></trkpt>
   <trkpt lat="30.920405" lon="34.749014"><ele>525.7</ele><name>TP05106</name><time>2016-12-28T21:18:22Z</time></trkpt>
   <trkpt lat="30.920344" lon="34.748988"><ele>524.9</ele><name>TP05107</name><time>2016-12-28T21:18:23Z</time></trkpt>
   <trkpt lat="30.920282" lon="34.748971"><ele>524.2</ele><name>TP05108</name><time>2016-12-28T21:18:24Z</time></trkpt>
   <trkpt lat="30.92022" lon="34.748962"><ele>523.6</ele><name>TP05109</name><time>2016-12-28T21:18:25Z</time></trkpt>
   <trkpt lat="30.920158" lon="34.74896"><ele>523.2</ele><name>TP05110</name><time>2016-12-28T21:18:26Z</time></trkpt>
   <trkpt lat="30.920105" lon="34.748944"><ele>522.6</ele><name>TP05111</name><time>2016-12-28T21:18:27Z</time></trkpt>
   <trkpt lat="30.920071" lon="34.748929"><ele>522.2</ele><name>TP05112</name><time>2016-12-28T21:18:28Z</time></trkpt>
   <trkpt lat="30.920048" lon="34.748913"><ele>521.9</ele><name>TP05113</name><time>2016-12-28T21:18:29Z</time></trkpt>
   <trkpt lat="30.92006" lon="34.748868"><ele>521.5</ele><name>TP05114</name><time>2016-12-28T21:18:31Z</time></trkpt>
   <trkpt lat="30.920107" lon="34.748866"><ele>521.8</ele><name>TP05115</name><time>2016-12-28T21:18:34Z</time></trkpt>
   <trkpt lat="30.920166" lon="34.748855"><ele>522</ele><name>TP05116</name><time>2016-12-28T21:18:36Z</time></trkpt>
   <trkpt lat="30.920206" lon="34.748849"><ele>522.2</ele><name>TP05117</name><time>2016-12-28T21:18:37Z</time></trkpt>
   <trkpt lat="30.920247" lon="34.748851"><ele>522.4</ele><name>TP05118</name><time>2016-12-28T21:18:39Z</time></trkpt>
   <trkpt lat="30.920309" lon="34.748867"><ele>523</ele><name>TP05119</name><time>2016-12-28T21:18:41Z</time></trkpt>
   <trkpt lat="30.920341" lon="34.748874"><ele>523.3</ele><name>TP05120</name><time>2016-12-28T21:18:42Z</time></trkpt>
   <trkpt lat="30.920373" lon="34.748866"><ele>523.4</ele><name>TP05121</name><time>2016-12-28T21:18:43Z</time></trkpt>
   <trkpt lat="30.920485" lon="34.74884"><ele>523.5</ele><name>TP05122</name><time>2016-12-28T21:18:45Z</time></trkpt>
   <trkpt lat="30.920523" lon="34.748854"><ele>523.8</ele><name>TP05123</name><time>2016-12-28T21:18:46Z</time></trkpt>
   <trkpt lat="30.920554" lon="34.748883"><ele>524.4</ele><name>TP05124</name><time>2016-12-28T21:18:47Z</time></trkpt>
   <trkpt lat="30.920575" lon="34.748919"><ele>524.9</ele><name>TP05125</name><time>2016-12-28T21:18:48Z</time></trkpt>
   <trkpt lat="30.920597" lon="34.748956"><ele>525.5</ele><name>TP05126</name><time>2016-12-28T21:18:49Z</time></trkpt>
   <trkpt lat="30.920604" lon="34.748997"><ele>526.1</ele><name>TP05127</name><time>2016-12-28T21:18:50Z</time></trkpt>
   <trkpt lat="30.920609" lon="34.74904"><ele>526.7</ele><name>TP05128</name><time>2016-12-28T21:18:51Z</time></trkpt>
   <trkpt lat="30.920628" lon="34.749079"><ele>527.3</ele><name>TP05129</name><time>2016-12-28T21:18:52Z</time></trkpt>
   <trkpt lat="30.920659" lon="34.749099"><ele>527.7</ele><name>TP05130</name><time>2016-12-28T21:18:54Z</time></trkpt>
   <trkpt lat="30.920696" lon="34.749114"><ele>528</ele><name>TP05131</name><time>2016-12-28T21:18:56Z</time></trkpt>
   <trkpt lat="30.920682" lon="34.749147"><ele>528.4</ele><name>TP05132</name><time>2016-12-28T21:18:58Z</time></trkpt>
   <trkpt lat="30.920728" lon="34.749184"><ele>529</ele><name>TP05133</name><time>2016-12-28T21:19:00Z</time></trkpt>
   <trkpt lat="30.920761" lon="34.749197"><ele>529.2</ele><name>TP05134</name><time>2016-12-28T21:19:01Z</time></trkpt>
   <trkpt lat="30.920795" lon="34.74921"><ele>529.5</ele><name>TP05135</name><time>2016-12-28T21:19:02Z</time></trkpt>
   <trkpt lat="30.920832" lon="34.74922"><ele>529.7</ele><name>TP05136</name><time>2016-12-28T21:19:03Z</time></trkpt>
   <trkpt lat="30.920873" lon="34.749223"><ele>529.8</ele><name>TP05137</name><time>2016-12-28T21:19:04Z</time></trkpt>
   <trkpt lat="30.920919" lon="34.749217"><ele>529.9</ele><name>TP05138</name><time>2016-12-28T21:19:05Z</time></trkpt>
   <trkpt lat="30.920969" lon="34.749201"><ele>529.8</ele><name>TP05139</name><time>2016-12-28T21:19:06Z</time></trkpt>
   <trkpt lat="30.921023" lon="34.749178"><ele>529.6</ele><name>TP05140</name><time>2016-12-28T21:19:07Z</time></trkpt>
   <trkpt lat="30.921494" lon="34.748966"><ele>529.2</ele><name>TP05141</name><time>2016-12-28T21:19:10Z</time></trkpt>
   <trkpt lat="30.921529" lon="34.748906"><ele>528.9</ele><name>TP05142</name><time>2016-12-28T21:19:11Z</time></trkpt>
   <trkpt lat="30.921561" lon="34.748858"><ele>528.8</ele><name>TP05143</name><time>2016-12-28T21:19:12Z</time></trkpt>
   <trkpt lat="30.921604" lon="34.74882"><ele>528.9</ele><name>TP05144</name><time>2016-12-28T21:19:13Z</time></trkpt>
   <trkpt lat="30.921656" lon="34.748779"><ele>529.1</ele><name>TP05145</name><time>2016-12-28T21:19:14Z</time></trkpt>
   <trkpt lat="30.921711" lon="34.74873"><ele>529.1</ele><name>TP05146</name><time>2016-12-28T21:19:15Z</time></trkpt>
   <trkpt lat="30.921765" lon="34.748682"><ele>528.8</ele><name>TP05147</name><time>2016-12-28T21:19:16Z</time></trkpt>
   <trkpt lat="30.921801" lon="34.748609"><ele>527.9</ele><name>TP05148</name><time>2016-12-28T21:19:17Z</time></trkpt>
   <trkpt lat="30.921834" lon="34.748532"><ele>526.9</ele><name>TP05149</name><time>2016-12-28T21:19:18Z</time></trkpt>
   <trkpt lat="30.921862" lon="34.748456"><ele>525.7</ele><name>TP05150</name><time>2016-12-28T21:19:19Z</time></trkpt>
   <trkpt lat="30.921888" lon="34.748382"><ele>524.5</ele><name>TP05151</name><time>2016-12-28T21:19:20Z</time></trkpt>
   <trkpt lat="30.921915" lon="34.748312"><ele>523.4</ele><name>TP05152</name><time>2016-12-28T21:19:21Z</time></trkpt>
   <trkpt lat="30.921942" lon="34.748243"><ele>522.2</ele><name>TP05153</name><time>2016-12-28T21:19:22Z</time></trkpt>
   <trkpt lat="30.921956" lon="34.748181"><ele>521.1</ele><name>TP05154</name><time>2016-12-28T21:19:23Z</time></trkpt>
   <trkpt lat="30.921965" lon="34.74811"><ele>519.8</ele><name>TP05155</name><time>2016-12-28T21:19:24Z</time></trkpt>
   <trkpt lat="30.921984" lon="34.748054"><ele>518.7</ele><name>TP05156</name><time>2016-12-28T21:19:25Z</time></trkpt>
   <trkpt lat="30.921987" lon="34.747992"><ele>517.6</ele><name>TP05157</name><time>2016-12-28T21:19:26Z</time></trkpt>
   <trkpt lat="30.921984" lon="34.747918"><ele>516.1</ele><name>TP05158</name><time>2016-12-28T21:19:27Z</time></trkpt>
   <trkpt lat="30.921977" lon="34.74784"><ele>515.3</ele><name>TP05159</name><time>2016-12-28T21:19:28Z</time></trkpt>
   <trkpt lat="30.921967" lon="34.74776"><ele>514.4</ele><name>TP05160</name><time>2016-12-28T21:19:29Z</time></trkpt>
   <trkpt lat="30.921954" lon="34.747685"><ele>513.6</ele><name>TP05161</name><time>2016-12-28T21:19:30Z</time></trkpt>
   <trkpt lat="30.921943" lon="34.747614"><ele>512.9</ele><name>TP05162</name><time>2016-12-28T21:19:31Z</time></trkpt>
   <trkpt lat="30.921942" lon="34.747564"><ele>512.4</ele><name>TP05163</name><time>2016-12-28T21:19:32Z</time></trkpt>
   <trkpt lat="30.921949" lon="34.747531"><ele>512</ele><name>TP05164</name><time>2016-12-28T21:19:33Z</time></trkpt>
   <trkpt lat="30.921946" lon="34.747471"><ele>511.3</ele><name>TP05165</name><time>2016-12-28T21:19:35Z</time></trkpt>
   <trkpt lat="30.921921" lon="34.747435"><ele>511.2</ele><name>TP05166</name><time>2016-12-28T21:19:36Z</time></trkpt>
   <trkpt lat="30.921898" lon="34.747387"><ele>510.9</ele><name>TP05167</name><time>2016-12-28T21:19:37Z</time></trkpt>
   <trkpt lat="30.921873" lon="34.747338"><ele>510.7</ele><name>TP05168</name><time>2016-12-28T21:19:38Z</time></trkpt>
   <trkpt lat="30.921848" lon="34.747294"><ele>510.6</ele><name>TP05169</name><time>2016-12-28T21:19:39Z</time></trkpt>
   <trkpt lat="30.921821" lon="34.747247"><ele>510.5</ele><name>TP05170</name><time>2016-12-28T21:19:40Z</time></trkpt>
   <trkpt lat="30.921791" lon="34.747196"><ele>510.5</ele><name>TP05171</name><time>2016-12-28T21:19:41Z</time></trkpt>
   <trkpt lat="30.921768" lon="34.747142"><ele>510.4</ele><name>TP05172</name><time>2016-12-28T21:19:42Z</time></trkpt>
   <trkpt lat="30.921734" lon="34.747093"><ele>510.5</ele><name>TP05173</name><time>2016-12-28T21:19:43Z</time></trkpt>
   <trkpt lat="30.921704" lon="34.747044"><ele>510.5</ele><name>TP05174</name><time>2016-12-28T21:19:44Z</time></trkpt>
   <trkpt lat="30.921674" lon="34.746994"><ele>510.4</ele><name>TP05175</name><time>2016-12-28T21:19:45Z</time></trkpt>
   <trkpt lat="30.921637" lon="34.746961"><ele>510.7</ele><name>TP05176</name><time>2016-12-28T21:19:46Z</time></trkpt>
   <trkpt lat="30.921589" lon="34.746928"><ele>511.1</ele><name>TP05177</name><time>2016-12-28T21:19:47Z</time></trkpt>
   <trkpt lat="30.921551" lon="34.746879"><ele>511.2</ele><name>TP05178</name><time>2016-12-28T21:19:48Z</time></trkpt>
   <trkpt lat="30.921511" lon="34.74683"><ele>511.3</ele><name>TP05179</name><time>2016-12-28T21:19:49Z</time></trkpt>
   <trkpt lat="30.921477" lon="34.746776"><ele>511.3</ele><name>TP05180</name><time>2016-12-28T21:19:50Z</time></trkpt>
   <trkpt lat="30.921449" lon="34.746726"><ele>511.3</ele><name>TP05181</name><time>2016-12-28T21:19:51Z</time></trkpt>
   <trkpt lat="30.921405" lon="34.746681"><ele>511.5</ele><name>TP05182</name><time>2016-12-28T21:19:52Z</time></trkpt>
   <trkpt lat="30.921364" lon="34.746635"><ele>511.8</ele><name>TP05183</name><time>2016-12-28T21:19:53Z</time></trkpt>
   <trkpt lat="30.921333" lon="34.746584"><ele>511.8</ele><name>TP05184</name><time>2016-12-28T21:19:54Z</time></trkpt>
   <trkpt lat="30.921312" lon="34.746533"><ele>511.7</ele><name>TP05185</name><time>2016-12-28T21:19:55Z</time></trkpt>
   <trkpt lat="30.921279" lon="34.746486"><ele>511.8</ele><name>TP05186</name><time>2016-12-28T21:19:56Z</time></trkpt>
   <trkpt lat="30.921258" lon="34.746445"><ele>511.7</ele><name>TP05187</name><time>2016-12-28T21:19:57Z</time></trkpt>
   <trkpt lat="30.921242" lon="34.746406"><ele>511.5</ele><name>TP05188</name><time>2016-12-28T21:19:58Z</time></trkpt>
   <trkpt lat="30.921244" lon="34.746362"><ele>511.1</ele><name>TP05189</name><time>2016-12-28T21:19:59Z</time></trkpt>
   <trkpt lat="30.921278" lon="34.746347"><ele>510.4</ele><name>TP05190</name><time>2016-12-28T21:20:01Z</time></trkpt>
   <trkpt lat="30.921314" lon="34.746375"><ele>510.1</ele><name>TP05191</name><time>2016-12-28T21:20:03Z</time></trkpt>
   <trkpt lat="30.921353" lon="34.746378"><ele>509.4</ele><name>TP05192</name><time>2016-12-28T21:20:05Z</time></trkpt>
   <trkpt lat="30.921386" lon="34.746382"><ele>508.9</ele><name>TP05193</name><time>2016-12-28T21:20:07Z</time></trkpt>
   <trkpt lat="30.921431" lon="34.746383"><ele>508.1</ele><name>TP05194</name><time>2016-12-28T21:20:09Z</time></trkpt>
   <trkpt lat="30.921458" lon="34.746401"><ele>507.8</ele><name>TP05195</name><time>2016-12-28T21:20:10Z</time></trkpt>
   <trkpt lat="30.921487" lon="34.746435"><ele>507.6</ele><name>TP05196</name><time>2016-12-28T21:20:11Z</time></trkpt>
   <trkpt lat="30.921511" lon="34.746472"><ele>507.6</ele><name>TP05197</name><time>2016-12-28T21:20:12Z</time></trkpt>
   <trkpt lat="30.921538" lon="34.746515"><ele>507.6</ele><name>TP05198</name><time>2016-12-28T21:20:13Z</time></trkpt>
   <trkpt lat="30.921567" lon="34.746559"><ele>507.5</ele><name>TP05199</name><time>2016-12-28T21:20:14Z</time></trkpt>
   <trkpt lat="30.921594" lon="34.7466"><ele>507.5</ele><name>TP05200</name><time>2016-12-28T21:20:15Z</time></trkpt>
   <trkpt lat="30.921718" lon="34.746692"><ele>506.4</ele><name>TP05201</name><time>2016-12-28T21:20:17Z</time></trkpt>
   <trkpt lat="30.921755" lon="34.746726"><ele>506.2</ele><name>TP05202</name><time>2016-12-28T21:20:18Z</time></trkpt>
   <trkpt lat="30.921797" lon="34.746763"><ele>505.9</ele><name>TP05203</name><time>2016-12-28T21:20:19Z</time></trkpt>
   <trkpt lat="30.921832" lon="34.746811"><ele>505.8</ele><name>TP05204</name><time>2016-12-28T21:20:20Z</time></trkpt>
   <trkpt lat="30.92185" lon="34.746859"><ele>506.1</ele><name>TP05205</name><time>2016-12-28T21:20:21Z</time></trkpt>
   <trkpt lat="30.921862" lon="34.74691"><ele>506.5</ele><name>TP05206</name><time>2016-12-28T21:20:22Z</time></trkpt>
   <trkpt lat="30.921869" lon="34.746963"><ele>507</ele><name>TP05207</name><time>2016-12-28T21:20:23Z</time></trkpt>
   <trkpt lat="30.921877" lon="34.747021"><ele>507.5</ele><name>TP05208</name><time>2016-12-28T21:20:24Z</time></trkpt>
   <trkpt lat="30.921889" lon="34.747082"><ele>508</ele><name>TP05209</name><time>2016-12-28T21:20:25Z</time></trkpt>
   <trkpt lat="30.921902" lon="34.747146"><ele>508.5</ele><name>TP05210</name><time>2016-12-28T21:20:26Z</time></trkpt>
   <trkpt lat="30.92192" lon="34.747205"><ele>508.8</ele><name>TP05211</name><time>2016-12-28T21:20:27Z</time></trkpt>
   <trkpt lat="30.921939" lon="34.747263"><ele>509.2</ele><name>TP05212</name><time>2016-12-28T21:20:28Z</time></trkpt>
   <trkpt lat="30.921953" lon="34.747322"><ele>509.6</ele><name>TP05213</name><time>2016-12-28T21:20:29Z</time></trkpt>
   <trkpt lat="30.921954" lon="34.747378"><ele>510.2</ele><name>TP05214</name><time>2016-12-28T21:20:30Z</time></trkpt>
   <trkpt lat="30.92196" lon="34.747429"><ele>510.8</ele><name>TP05215</name><time>2016-12-28T21:20:31Z</time></trkpt>
   <trkpt lat="30.921964" lon="34.74748"><ele>511.3</ele><name>TP05216</name><time>2016-12-28T21:20:32Z</time></trkpt>
   <trkpt lat="30.921968" lon="34.747527"><ele>511.8</ele><name>TP05217</name><time>2016-12-28T21:20:33Z</time></trkpt>
   <trkpt lat="30.921978" lon="34.747574"><ele>512.2</ele><name>TP05218</name><time>2016-12-28T21:20:34Z</time></trkpt>
   <trkpt lat="30.921989" lon="34.747612"><ele>512.6</ele><name>TP05219</name><time>2016-12-28T21:20:35Z</time></trkpt>
   <trkpt lat="30.922014" lon="34.747644"><ele>512.8</ele><name>TP05220</name><time>2016-12-28T21:20:36Z</time></trkpt>
   <trkpt lat="30.922041" lon="34.747686"><ele>513.2</ele><name>TP05221</name><time>2016-12-28T21:20:37Z</time></trkpt>
   <trkpt lat="30.922073" lon="34.74773"><ele>513.6</ele><name>TP05222</name><time>2016-12-28T21:20:38Z</time></trkpt>
   <trkpt lat="30.922107" lon="34.747774"><ele>514.1</ele><name>TP05223</name><time>2016-12-28T21:20:39Z</time></trkpt>
   <trkpt lat="30.922139" lon="34.747814"><ele>514.7</ele><name>TP05224</name><time>2016-12-28T21:20:40Z</time></trkpt>
   <trkpt lat="30.922169" lon="34.747856"><ele>515.2</ele><name>TP05225</name><time>2016-12-28T21:20:41Z</time></trkpt>
   <trkpt lat="30.922189" lon="34.747895"><ele>515.7</ele><name>TP05226</name><time>2016-12-28T21:20:42Z</time></trkpt>
   <trkpt lat="30.922203" lon="34.747943"><ele>516.5</ele><name>TP05227</name><time>2016-12-28T21:20:43Z</time></trkpt>
   <trkpt lat="30.922222" lon="34.747994"><ele>517.4</ele><name>TP05228</name><time>2016-12-28T21:20:44Z</time></trkpt>
   <trkpt lat="30.922234" lon="34.74804"><ele>518.2</ele><name>TP05229</name><time>2016-12-28T21:20:45Z</time></trkpt>
   <trkpt lat="30.922258" lon="34.748089"><ele>519</ele><name>TP05230</name><time>2016-12-28T21:20:46Z</time></trkpt>
   <trkpt lat="30.922288" lon="34.748132"><ele>519.6</ele><name>TP05231</name><time>2016-12-28T21:20:47Z</time></trkpt>
   <trkpt lat="30.922321" lon="34.748165"><ele>520</ele><name>TP05232</name><time>2016-12-28T21:20:48Z</time></trkpt>
   <trkpt lat="30.922359" lon="34.748198"><ele>520.3</ele><name>TP05233</name><time>2016-12-28T21:20:49Z</time></trkpt>
   <trkpt lat="30.9224" lon="34.748234"><ele>520.6</ele><name>TP05234</name><time>2016-12-28T21:20:50Z</time></trkpt>
   <trkpt lat="30.922445" lon="34.748257"><ele>520.6</ele><name>TP05235</name><time>2016-12-28T21:20:51Z</time></trkpt>
   <trkpt lat="30.922488" lon="34.74827"><ele>520.5</ele><name>TP05236</name><time>2016-12-28T21:20:52Z</time></trkpt>
   <trkpt lat="30.922532" lon="34.748273"><ele>520.3</ele><name>TP05237</name><time>2016-12-28T21:20:53Z</time></trkpt>
   <trkpt lat="30.922573" lon="34.74824"><ele>519.6</ele><name>TP05238</name><time>2016-12-28T21:20:54Z</time></trkpt>
   <trkpt lat="30.922613" lon="34.748195"><ele>518.9</ele><name>TP05239</name><time>2016-12-28T21:20:55Z</time></trkpt>
   <trkpt lat="30.922665" lon="34.748152"><ele>518.2</ele><name>TP05240</name><time>2016-12-28T21:20:56Z</time></trkpt>
   <trkpt lat="30.922707" lon="34.748102"><ele>517.6</ele><name>TP05241</name><time>2016-12-28T21:20:57Z</time></trkpt>
   <trkpt lat="30.922745" lon="34.748053"><ele>517.1</ele><name>TP05242</name><time>2016-12-28T21:20:58Z</time></trkpt>
   <trkpt lat="30.922782" lon="34.748003"><ele>516.6</ele><name>TP05243</name><time>2016-12-28T21:20:59Z</time></trkpt>
   <trkpt lat="30.922818" lon="34.747956"><ele>516.3</ele><name>TP05244</name><time>2016-12-28T21:21:00Z</time></trkpt>
   <trkpt lat="30.922859" lon="34.747907"><ele>515.9</ele><name>TP05245</name><time>2016-12-28T21:21:01Z</time></trkpt>
   <trkpt lat="30.92289" lon="34.747859"><ele>515.5</ele><name>TP05246</name><time>2016-12-28T21:21:02Z</time></trkpt>
   <trkpt lat="30.922916" lon="34.747815"><ele>515.1</ele><name>TP05247</name><time>2016-12-28T21:21:03Z</time></trkpt>
   <trkpt lat="30.922932" lon="34.747763"><ele>514.5</ele><name>TP05248</name><time>2016-12-28T21:21:04Z</time></trkpt>
   <trkpt lat="30.922953" lon="34.747707"><ele>513.7</ele><name>TP05249</name><time>2016-12-28T21:21:05Z</time></trkpt>
   <trkpt lat="30.922977" lon="34.747661"><ele>513</ele><name>TP05250</name><time>2016-12-28T21:21:06Z</time></trkpt>
   <trkpt lat="30.923001" lon="34.747622"><ele>512.4</ele><name>TP05251</name><time>2016-12-28T21:21:07Z</time></trkpt>
   <trkpt lat="30.923014" lon="34.747568"><ele>511.7</ele><name>TP05252</name><time>2016-12-28T21:21:08Z</time></trkpt>
   <trkpt lat="30.923028" lon="34.747512"><ele>511.1</ele><name>TP05253</name><time>2016-12-28T21:21:09Z</time></trkpt>
   <trkpt lat="30.923038" lon="34.747451"><ele>510.4</ele><name>TP05254</name><time>2016-12-28T21:21:10Z</time></trkpt>
   <trkpt lat="30.923058" lon="34.747383"><ele>509.5</ele><name>TP05255</name><time>2016-12-28T21:21:11Z</time></trkpt>
   <trkpt lat="30.923089" lon="34.74732"><ele>508.6</ele><name>TP05256</name><time>2016-12-28T21:21:12Z</time></trkpt>
   <trkpt lat="30.923118" lon="34.747276"><ele>507.8</ele><name>TP05257</name><time>2016-12-28T21:21:13Z</time></trkpt>
   <trkpt lat="30.923138" lon="34.747245"><ele>507.2</ele><name>TP05258</name><time>2016-12-28T21:21:14Z</time></trkpt>
   <trkpt lat="30.923167" lon="34.747251"><ele>506.9</ele><name>TP05259</name><time>2016-12-28T21:21:16Z</time></trkpt>
   <trkpt lat="30.923182" lon="34.747312"><ele>507.2</ele><name>TP05260</name><time>2016-12-28T21:21:18Z</time></trkpt>
   <trkpt lat="30.923207" lon="34.747345"><ele>507.1</ele><name>TP05261</name><time>2016-12-28T21:21:19Z</time></trkpt>
   <trkpt lat="30.923231" lon="34.747386"><ele>507.2</ele><name>TP05262</name><time>2016-12-28T21:21:20Z</time></trkpt>
   <trkpt lat="30.923247" lon="34.747425"><ele>507.3</ele><name>TP05263</name><time>2016-12-28T21:21:21Z</time></trkpt>
   <trkpt lat="30.92326" lon="34.747467"><ele>507.5</ele><name>TP05264</name><time>2016-12-28T21:21:22Z</time></trkpt>
   <trkpt lat="30.923272" lon="34.747503"><ele>507.6</ele><name>TP05265</name><time>2016-12-28T21:21:23Z</time></trkpt>
   <trkpt lat="30.923281" lon="34.747551"><ele>507.9</ele><name>TP05266</name><time>2016-12-28T21:21:26Z</time></trkpt>
   <trkpt lat="30.923282" lon="34.747584"><ele>508.2</ele><name>TP05267</name><time>2016-12-28T21:21:27Z</time></trkpt>
   <trkpt lat="30.923277" lon="34.747616"><ele>508.6</ele><name>TP05268</name><time>2016-12-28T21:21:28Z</time></trkpt>
   <trkpt lat="30.923263" lon="34.747673"><ele>509.3</ele><name>TP05269</name><time>2016-12-28T21:21:30Z</time></trkpt>
   <trkpt lat="30.923246" lon="34.747709"><ele>509.8</ele><name>TP05270</name><time>2016-12-28T21:21:32Z</time></trkpt>
   <trkpt lat="30.923235" lon="34.747749"><ele>510.3</ele><name>TP05271</name><time>2016-12-28T21:21:33Z</time></trkpt>
   <trkpt lat="30.923221" lon="34.7478"><ele>511</ele><name>TP05272</name><time>2016-12-28T21:21:34Z</time></trkpt>
   <trkpt lat="30.923189" lon="34.74797"><ele>512.5</ele><name>TP05273</name><time>2016-12-28T21:21:36Z</time></trkpt>
   <trkpt lat="30.92319" lon="34.748021"><ele>512.5</ele><name>TP05274</name><time>2016-12-28T21:21:37Z</time></trkpt>
   <trkpt lat="30.92319" lon="34.748069"><ele>512.6</ele><name>TP05275</name><time>2016-12-28T21:21:38Z</time></trkpt>
   <trkpt lat="30.923194" lon="34.748116"><ele>512.6</ele><name>TP05276</name><time>2016-12-28T21:21:39Z</time></trkpt>
   <trkpt lat="30.923203" lon="34.748171"><ele>512.5</ele><name>TP05277</name><time>2016-12-28T21:21:40Z</time></trkpt>
   <trkpt lat="30.923203" lon="34.748229"><ele>512.6</ele><name>TP05278</name><time>2016-12-28T21:21:41Z</time></trkpt>
   <trkpt lat="30.923215" lon="34.748285"><ele>512.4</ele><name>TP05279</name><time>2016-12-28T21:21:42Z</time></trkpt>
   <trkpt lat="30.923226" lon="34.748348"><ele>512.3</ele><name>TP05280</name><time>2016-12-28T21:21:43Z</time></trkpt>
   <trkpt lat="30.923232" lon="34.748409"><ele>512.2</ele><name>TP05281</name><time>2016-12-28T21:21:44Z</time></trkpt>
   <trkpt lat="30.923233" lon="34.748472"><ele>512.2</ele><name>TP05282</name><time>2016-12-28T21:21:45Z</time></trkpt>
   <trkpt lat="30.923234" lon="34.748533"><ele>512.2</ele><name>TP05283</name><time>2016-12-28T21:21:46Z</time></trkpt>
   <trkpt lat="30.923234" lon="34.748599"><ele>512.3</ele><name>TP05284</name><time>2016-12-28T21:21:47Z</time></trkpt>
   <trkpt lat="30.92323" lon="34.748665"><ele>512.4</ele><name>TP05285</name><time>2016-12-28T21:21:48Z</time></trkpt>
   <trkpt lat="30.923237" lon="34.748722"><ele>512.3</ele><name>TP05286</name><time>2016-12-28T21:21:49Z</time></trkpt>
   <trkpt lat="30.923274" lon="34.748766"><ele>511.5</ele><name>TP05287</name><time>2016-12-28T21:21:50Z</time></trkpt>
   <trkpt lat="30.923312" lon="34.748809"><ele>510.7</ele><name>TP05288</name><time>2016-12-28T21:21:51Z</time></trkpt>
   <trkpt lat="30.923361" lon="34.748846"><ele>509.7</ele><name>TP05289</name><time>2016-12-28T21:21:52Z</time></trkpt>
   <trkpt lat="30.923411" lon="34.748877"><ele>508.6</ele><name>TP05290</name><time>2016-12-28T21:21:53Z</time></trkpt>
   <trkpt lat="30.923457" lon="34.748881"><ele>507.5</ele><name>TP05291</name><time>2016-12-28T21:21:54Z</time></trkpt>
   <trkpt lat="30.923491" lon="34.748872"><ele>506.6</ele><name>TP05292</name><time>2016-12-28T21:21:55Z</time></trkpt>
   <trkpt lat="30.923518" lon="34.748847"><ele>505.9</ele><name>TP05293</name><time>2016-12-28T21:21:56Z</time></trkpt>
   <trkpt lat="30.923539" lon="34.74881"><ele>505.2</ele><name>TP05294</name><time>2016-12-28T21:21:57Z</time></trkpt>
   <trkpt lat="30.923568" lon="34.748782"><ele>504.5</ele><name>TP05295</name><time>2016-12-28T21:21:58Z</time></trkpt>
   <trkpt lat="30.923604" lon="34.748768"><ele>503.6</ele><name>TP05296</name><time>2016-12-28T21:21:59Z</time></trkpt>
   <trkpt lat="30.92364" lon="34.74874"><ele>502.7</ele><name>TP05297</name><time>2016-12-28T21:22:00Z</time></trkpt>
   <trkpt lat="30.923674" lon="34.748695"><ele>502.1</ele><name>TP05298</name><time>2016-12-28T21:22:01Z</time></trkpt>
   <trkpt lat="30.923712" lon="34.748668"><ele>501.4</ele><name>TP05299</name><time>2016-12-28T21:22:02Z</time></trkpt>
   <trkpt lat="30.923765" lon="34.748656"><ele>500.4</ele><name>TP05300</name><time>2016-12-28T21:22:03Z</time></trkpt>
   <trkpt lat="30.923826" lon="34.748641"><ele>500</ele><name>TP05301</name><time>2016-12-28T21:22:04Z</time></trkpt>
   <trkpt lat="30.923877" lon="34.748623"><ele>499.6</ele><name>TP05302</name><time>2016-12-28T21:22:05Z</time></trkpt>
   <trkpt lat="30.923911" lon="34.74862"><ele>499.3</ele><name>TP05303</name><time>2016-12-28T21:22:06Z</time></trkpt>
   <trkpt lat="30.923944" lon="34.748637"><ele>498.9</ele><name>TP05304</name><time>2016-12-28T21:22:07Z</time></trkpt>
   <trkpt lat="30.923968" lon="34.748667"><ele>498.6</ele><name>TP05305</name><time>2016-12-28T21:22:08Z</time></trkpt>
   <trkpt lat="30.923998" lon="34.748691"><ele>498.3</ele><name>TP05306</name><time>2016-12-28T21:22:09Z</time></trkpt>
   <trkpt lat="30.924025" lon="34.748699"><ele>498.1</ele><name>TP05307</name><time>2016-12-28T21:22:10Z</time></trkpt>
   <trkpt lat="30.924064" lon="34.748697"><ele>497.8</ele><name>TP05308</name><time>2016-12-28T21:22:11Z</time></trkpt>
   <trkpt lat="30.924114" lon="34.748688"><ele>497.4</ele><name>TP05309</name><time>2016-12-28T21:22:12Z</time></trkpt>
   <trkpt lat="30.924157" lon="34.748667"><ele>497</ele><name>TP05310</name><time>2016-12-28T21:22:13Z</time></trkpt>
   <trkpt lat="30.924216" lon="34.748654"><ele>496.5</ele><name>TP05311</name><time>2016-12-28T21:22:14Z</time></trkpt>
   <trkpt lat="30.92428" lon="34.748658"><ele>496</ele><name>TP05312</name><time>2016-12-28T21:22:15Z</time></trkpt>
   <trkpt lat="30.924339" lon="34.748652"><ele>495.4</ele><name>TP05313</name><time>2016-12-28T21:22:16Z</time></trkpt>
   <trkpt lat="30.924401" lon="34.748652"><ele>494.9</ele><name>TP05314</name><time>2016-12-28T21:22:17Z</time></trkpt>
   <trkpt lat="30.924469" lon="34.748645"><ele>494.3</ele><name>TP05315</name><time>2016-12-28T21:22:18Z</time></trkpt>
   <trkpt lat="30.924534" lon="34.748623"><ele>493.5</ele><name>TP05316</name><time>2016-12-28T21:22:19Z</time></trkpt>
   <trkpt lat="30.924595" lon="34.748597"><ele>492.8</ele><name>TP05317</name><time>2016-12-28T21:22:20Z</time></trkpt>
   <trkpt lat="30.924665" lon="34.748582"><ele>492.4</ele><name>TP05318</name><time>2016-12-28T21:22:21Z</time></trkpt>
   <trkpt lat="30.924728" lon="34.748564"><ele>492</ele><name>TP05319</name><time>2016-12-28T21:22:22Z</time></trkpt>
   <trkpt lat="30.924795" lon="34.74854"><ele>491.5</ele><name>TP05320</name><time>2016-12-28T21:22:23Z</time></trkpt>
   <trkpt lat="30.924863" lon="34.74852"><ele>491.1</ele><name>TP05321</name><time>2016-12-28T21:22:24Z</time></trkpt>
   <trkpt lat="30.924931" lon="34.748492"><ele>490.5</ele><name>TP05322</name><time>2016-12-28T21:22:25Z</time></trkpt>
   <trkpt lat="30.924991" lon="34.748468"><ele>490</ele><name>TP05323</name><time>2016-12-28T21:22:26Z</time></trkpt>
   <trkpt lat="30.925052" lon="34.748435"><ele>489.4</ele><name>TP05324</name><time>2016-12-28T21:22:27Z</time></trkpt>
   <trkpt lat="30.925113" lon="34.748399"><ele>488.8</ele><name>TP05325</name><time>2016-12-28T21:22:28Z</time></trkpt>
   <trkpt lat="30.925175" lon="34.748357"><ele>488</ele><name>TP05326</name><time>2016-12-28T21:22:29Z</time></trkpt>
   <trkpt lat="30.925234" lon="34.748314"><ele>487.3</ele><name>TP05327</name><time>2016-12-28T21:22:30Z</time></trkpt>
   <trkpt lat="30.925296" lon="34.748281"><ele>486.6</ele><name>TP05328</name><time>2016-12-28T21:22:31Z</time></trkpt>
   <trkpt lat="30.925358" lon="34.748247"><ele>485.9</ele><name>TP05329</name><time>2016-12-28T21:22:32Z</time></trkpt>
   <trkpt lat="30.925425" lon="34.748221"><ele>485.3</ele><name>TP05330</name><time>2016-12-28T21:22:33Z</time></trkpt>
   <trkpt lat="30.925491" lon="34.748215"><ele>485.5</ele><name>TP05331</name><time>2016-12-28T21:22:34Z</time></trkpt>
   <trkpt lat="30.925549" lon="34.748219"><ele>485.7</ele><name>TP05332</name><time>2016-12-28T21:22:35Z</time></trkpt>
   <trkpt lat="30.925607" lon="34.748242"><ele>486.1</ele><name>TP05333</name><time>2016-12-28T21:22:36Z</time></trkpt>
   <trkpt lat="30.925664" lon="34.74827"><ele>486.3</ele><name>TP05334</name><time>2016-12-28T21:22:37Z</time></trkpt>
   <trkpt lat="30.925721" lon="34.748294"><ele>486.5</ele><name>TP05335</name><time>2016-12-28T21:22:38Z</time></trkpt>
   <trkpt lat="30.925778" lon="34.748315"><ele>486.5</ele><name>TP05336</name><time>2016-12-28T21:22:39Z</time></trkpt>
   <trkpt lat="30.925837" lon="34.74833"><ele>486.5</ele><name>TP05337</name><time>2016-12-28T21:22:40Z</time></trkpt>
   <trkpt lat="30.925891" lon="34.748344"><ele>486.5</ele><name>TP05338</name><time>2016-12-28T21:22:41Z</time></trkpt>
   <trkpt lat="30.925947" lon="34.748342"><ele>486.4</ele><name>TP05339</name><time>2016-12-28T21:22:42Z</time></trkpt>
   <trkpt lat="30.926002" lon="34.748322"><ele>486.6</ele><name>TP05340</name><time>2016-12-28T21:22:43Z</time></trkpt>
   <trkpt lat="30.926053" lon="34.748291"><ele>486.9</ele><name>TP05341</name><time>2016-12-28T21:22:44Z</time></trkpt>
   <trkpt lat="30.926105" lon="34.748265"><ele>487.3</ele><name>TP05342</name><time>2016-12-28T21:22:45Z</time></trkpt>
   <trkpt lat="30.926129" lon="34.748199"><ele>488.1</ele><name>TP05343</name><time>2016-12-28T21:22:46Z</time></trkpt>
   <trkpt lat="30.926169" lon="34.748148"><ele>488.9</ele><name>TP05344</name><time>2016-12-28T21:22:47Z</time></trkpt>
   <trkpt lat="30.926208" lon="34.748108"><ele>489.7</ele><name>TP05345</name><time>2016-12-28T21:22:48Z</time></trkpt>
   <trkpt lat="30.926235" lon="34.748077"><ele>490.4</ele><name>TP05346</name><time>2016-12-28T21:22:49Z</time></trkpt>
   <trkpt lat="30.926263" lon="34.748047"><ele>490.8</ele><name>TP05347</name><time>2016-12-28T21:22:50Z</time></trkpt>
   <trkpt lat="30.926289" lon="34.748019"><ele>490.9</ele><name>TP05348</name><time>2016-12-28T21:22:51Z</time></trkpt>
   <trkpt lat="30.926309" lon="34.747989"><ele>491</ele><name>TP05349</name><time>2016-12-28T21:22:52Z</time></trkpt>
   <trkpt lat="30.926331" lon="34.747961"><ele>491.2</ele><name>TP05350</name><time>2016-12-28T21:22:53Z</time></trkpt>
   <trkpt lat="30.926351" lon="34.747933"><ele>491.3</ele><name>TP05351</name><time>2016-12-28T21:22:54Z</time></trkpt>
   <trkpt lat="30.926369" lon="34.747893"><ele>491.2</ele><name>TP05352</name><time>2016-12-28T21:22:56Z</time></trkpt>
   <trkpt lat="30.926375" lon="34.747847"><ele>491</ele><name>TP05353</name><time>2016-12-28T21:22:58Z</time></trkpt>
   <trkpt lat="30.926377" lon="34.747808"><ele>490.9</ele><name>TP05354</name><time>2016-12-28T21:23:00Z</time></trkpt>
   <trkpt lat="30.926381" lon="34.747777"><ele>490.8</ele><name>TP05355</name><time>2016-12-28T21:23:01Z</time></trkpt>
   <trkpt lat="30.926388" lon="34.74774"><ele>490.7</ele><name>TP05356</name><time>2016-12-28T21:23:03Z</time></trkpt>
   <trkpt lat="30.926408" lon="34.747695"><ele>490.4</ele><name>TP05357</name><time>2016-12-28T21:23:05Z</time></trkpt>
   <trkpt lat="30.926438" lon="34.747661"><ele>490.1</ele><name>TP05358</name><time>2016-12-28T21:23:07Z</time></trkpt>
   <trkpt lat="30.926472" lon="34.747636"><ele>489.9</ele><name>TP05359</name><time>2016-12-28T21:23:10Z</time></trkpt>
   <trkpt lat="30.926509" lon="34.747606"><ele>489.7</ele><name>TP05360</name><time>2016-12-28T21:23:12Z</time></trkpt>
   <trkpt lat="30.926544" lon="34.747565"><ele>489.6</ele><name>TP05361</name><time>2016-12-28T21:23:14Z</time></trkpt>
   <trkpt lat="30.926563" lon="34.747542"><ele>489.6</ele><name>TP05362</name><time>2016-12-28T21:23:15Z</time></trkpt>
   <trkpt lat="30.926604" lon="34.747512"><ele>489.6</ele><name>TP05363</name><time>2016-12-28T21:23:17Z</time></trkpt>
   <trkpt lat="30.926643" lon="34.747498"><ele>489.6</ele><name>TP05364</name><time>2016-12-28T21:23:19Z</time></trkpt>
   <trkpt lat="30.926674" lon="34.747485"><ele>489.6</ele><name>TP05365</name><time>2016-12-28T21:23:21Z</time></trkpt>
   <trkpt lat="30.926701" lon="34.747472"><ele>489.6</ele><name>TP05366</name><time>2016-12-28T21:23:23Z</time></trkpt>
   <trkpt lat="30.926731" lon="34.747457"><ele>489.7</ele><name>TP05367</name><time>2016-12-28T21:23:25Z</time></trkpt>
   <trkpt lat="30.926757" lon="34.747431"><ele>489.9</ele><name>TP05368</name><time>2016-12-28T21:23:27Z</time></trkpt>
   <trkpt lat="30.92678" lon="34.747411"><ele>490.1</ele><name>TP05369</name><time>2016-12-28T21:23:29Z</time></trkpt>
   <trkpt lat="30.926805" lon="34.747393"><ele>490.2</ele><name>TP05370</name><time>2016-12-28T21:23:31Z</time></trkpt>
   <trkpt lat="30.926839" lon="34.747364"><ele>490.6</ele><name>TP05371</name><time>2016-12-28T21:23:34Z</time></trkpt>
   <trkpt lat="30.926872" lon="34.747341"><ele>490.9</ele><name>TP05372</name><time>2016-12-28T21:23:36Z</time></trkpt>
   <trkpt lat="30.926904" lon="34.747318"><ele>491.3</ele><name>TP05373</name><time>2016-12-28T21:23:38Z</time></trkpt>
   <trkpt lat="30.926931" lon="34.747296"><ele>491.6</ele><name>TP05374</name><time>2016-12-28T21:23:40Z</time></trkpt>
   <trkpt lat="30.926956" lon="34.74727"><ele>492.1</ele><name>TP05375</name><time>2016-12-28T21:23:42Z</time></trkpt>
   <trkpt lat="30.92698" lon="34.747246"><ele>492.6</ele><name>TP05376</name><time>2016-12-28T21:23:44Z</time></trkpt>
   <trkpt lat="30.927008" lon="34.747221"><ele>493.1</ele><name>TP05377</name><time>2016-12-28T21:23:46Z</time></trkpt>
   <trkpt lat="30.927031" lon="34.747195"><ele>493.7</ele><name>TP05378</name><time>2016-12-28T21:23:48Z</time></trkpt>
   <trkpt lat="30.927054" lon="34.747169"><ele>494.2</ele><name>TP05379</name><time>2016-12-28T21:23:50Z</time></trkpt>
   <trkpt lat="30.92708" lon="34.747148"><ele>494.8</ele><name>TP05380</name><time>2016-12-28T21:23:52Z</time></trkpt>
   <trkpt lat="30.927118" lon="34.747106"><ele>494.8</ele><name>TP05381</name><time>2016-12-28T21:23:54Z</time></trkpt>
   <trkpt lat="30.927156" lon="34.747075"><ele>494.4</ele><name>TP05382</name><time>2016-12-28T21:23:56Z</time></trkpt>
   <trkpt lat="30.927196" lon="34.747057"><ele>493.5</ele><name>TP05383</name><time>2016-12-28T21:23:57Z</time></trkpt>
   <trkpt lat="30.927242" lon="34.747041"><ele>492.5</ele><name>TP05384</name><time>2016-12-28T21:23:58Z</time></trkpt>
   <trkpt lat="30.927309" lon="34.747019"><ele>491.1</ele><name>TP05385</name><time>2016-12-28T21:23:59Z</time></trkpt>
   <trkpt lat="30.927419" lon="34.746942"><ele>489</ele><name>TP05386</name><time>2016-12-28T21:24:01Z</time></trkpt>
   <trkpt lat="30.927458" lon="34.746897"><ele>488.3</ele><name>TP05387</name><time>2016-12-28T21:24:02Z</time></trkpt>
   <trkpt lat="30.927499" lon="34.746852"><ele>487.7</ele><name>TP05388</name><time>2016-12-28T21:24:03Z</time></trkpt>
   <trkpt lat="30.927534" lon="34.746808"><ele>487.2</ele><name>TP05389</name><time>2016-12-28T21:24:04Z</time></trkpt>
   <trkpt lat="30.927559" lon="34.746762"><ele>487</ele><name>TP05390</name><time>2016-12-28T21:24:05Z</time></trkpt>
   <trkpt lat="30.927589" lon="34.746726"><ele>486.7</ele><name>TP05391</name><time>2016-12-28T21:24:06Z</time></trkpt>
   <trkpt lat="30.927618" lon="34.746688"><ele>486.4</ele><name>TP05392</name><time>2016-12-28T21:24:07Z</time></trkpt>
   <trkpt lat="30.927645" lon="34.74664"><ele>486.2</ele><name>TP05393</name><time>2016-12-28T21:24:08Z</time></trkpt>
   <trkpt lat="30.92766" lon="34.746586"><ele>486.3</ele><name>TP05394</name><time>2016-12-28T21:24:09Z</time></trkpt>
   <trkpt lat="30.92767" lon="34.746531"><ele>486.5</ele><name>TP05395</name><time>2016-12-28T21:24:10Z</time></trkpt>
   <trkpt lat="30.927684" lon="34.746476"><ele>486.6</ele><name>TP05396</name><time>2016-12-28T21:24:11Z</time></trkpt>
   <trkpt lat="30.927692" lon="34.746421"><ele>486.9</ele><name>TP05397</name><time>2016-12-28T21:24:12Z</time></trkpt>
   <trkpt lat="30.927715" lon="34.74638"><ele>486.9</ele><name>TP05398</name><time>2016-12-28T21:24:13Z</time></trkpt>
   <trkpt lat="30.927738" lon="34.746338"><ele>486.9</ele><name>TP05399</name><time>2016-12-28T21:24:14Z</time></trkpt>
   <trkpt lat="30.927754" lon="34.746282"><ele>487.1</ele><name>TP05400</name><time>2016-12-28T21:24:15Z</time></trkpt>
   <trkpt lat="30.927771" lon="34.746221"><ele>487.2</ele><name>TP05401</name><time>2016-12-28T21:24:16Z</time></trkpt>
   <trkpt lat="30.927785" lon="34.746159"><ele>486.9</ele><name>TP05402</name><time>2016-12-28T21:24:17Z</time></trkpt>
   <trkpt lat="30.927792" lon="34.746097"><ele>486.8</ele><name>TP05403</name><time>2016-12-28T21:24:18Z</time></trkpt>
   <trkpt lat="30.927783" lon="34.746035"><ele>486.7</ele><name>TP05404</name><time>2016-12-28T21:24:19Z</time></trkpt>
   <trkpt lat="30.927771" lon="34.745978"><ele>486.7</ele><name>TP05405</name><time>2016-12-28T21:24:20Z</time></trkpt>
   <trkpt lat="30.927756" lon="34.745917"><ele>486.7</ele><name>TP05406</name><time>2016-12-28T21:24:21Z</time></trkpt>
   <trkpt lat="30.92773" lon="34.745866"><ele>486.8</ele><name>TP05407</name><time>2016-12-28T21:24:22Z</time></trkpt>
   <trkpt lat="30.927705" lon="34.74581"><ele>486.8</ele><name>TP05408</name><time>2016-12-28T21:24:23Z</time></trkpt>
   <trkpt lat="30.927665" lon="34.745771"><ele>487</ele><name>TP05409</name><time>2016-12-28T21:24:24Z</time></trkpt>
   <trkpt lat="30.927623" lon="34.745733"><ele>487.2</ele><name>TP05410</name><time>2016-12-28T21:24:25Z</time></trkpt>
   <trkpt lat="30.927581" lon="34.745698"><ele>487.4</ele><name>TP05411</name><time>2016-12-28T21:24:26Z</time></trkpt>
   <trkpt lat="30.927544" lon="34.745656"><ele>487.5</ele><name>TP05412</name><time>2016-12-28T21:24:27Z</time></trkpt>
   <trkpt lat="30.927507" lon="34.745602"><ele>487.5</ele><name>TP05413</name><time>2016-12-28T21:24:28Z</time></trkpt>
   <trkpt lat="30.927463" lon="34.745546"><ele>487.6</ele><name>TP05414</name><time>2016-12-28T21:24:29Z</time></trkpt>
   <trkpt lat="30.927431" lon="34.745473"><ele>487.5</ele><name>TP05415</name><time>2016-12-28T21:24:30Z</time></trkpt>
   <trkpt lat="30.927392" lon="34.745397"><ele>487.3</ele><name>TP05416</name><time>2016-12-28T21:24:31Z</time></trkpt>
   <trkpt lat="30.927367" lon="34.745315"><ele>486.5</ele><name>TP05417</name><time>2016-12-28T21:24:32Z</time></trkpt>
   <trkpt lat="30.92736" lon="34.745232"><ele>485.5</ele><name>TP05418</name><time>2016-12-28T21:24:33Z</time></trkpt>
   <trkpt lat="30.927341" lon="34.74515"><ele>484.7</ele><name>TP05419</name><time>2016-12-28T21:24:34Z</time></trkpt>
   <trkpt lat="30.927342" lon="34.745066"><ele>483.7</ele><name>TP05420</name><time>2016-12-28T21:24:35Z</time></trkpt>
   <trkpt lat="30.92735" lon="34.744982"><ele>482.7</ele><name>TP05421</name><time>2016-12-28T21:24:36Z</time></trkpt>
   <trkpt lat="30.927354" lon="34.744894"><ele>481.6</ele><name>TP05422</name><time>2016-12-28T21:24:37Z</time></trkpt>
   <trkpt lat="30.92736" lon="34.744806"><ele>480.6</ele><name>TP05423</name><time>2016-12-28T21:24:38Z</time></trkpt>
   <trkpt lat="30.927372" lon="34.744717"><ele>479.5</ele><name>TP05424</name><time>2016-12-28T21:24:39Z</time></trkpt>
   <trkpt lat="30.92739" lon="34.74463"><ele>478.3</ele><name>TP05425</name><time>2016-12-28T21:24:40Z</time></trkpt>
   <trkpt lat="30.927409" lon="34.744546"><ele>477.1</ele><name>TP05426</name><time>2016-12-28T21:24:41Z</time></trkpt>
   <trkpt lat="30.92743" lon="34.744478"><ele>476.1</ele><name>TP05427</name><time>2016-12-28T21:24:42Z</time></trkpt>
   <trkpt lat="30.927438" lon="34.744431"><ele>475.4</ele><name>TP05428</name><time>2016-12-28T21:24:43Z</time></trkpt>
   <trkpt lat="30.927445" lon="34.744388"><ele>474.8</ele><name>TP05429</name><time>2016-12-28T21:24:44Z</time></trkpt>
   <trkpt lat="30.927455" lon="34.74435"><ele>474.3</ele><name>TP05430</name><time>2016-12-28T21:24:45Z</time></trkpt>
   <trkpt lat="30.927477" lon="34.744307"><ele>473.7</ele><name>TP05431</name><time>2016-12-28T21:24:46Z</time></trkpt>
   <trkpt lat="30.927508" lon="34.744259"><ele>473.1</ele><name>TP05432</name><time>2016-12-28T21:24:47Z</time></trkpt>
   <trkpt lat="30.927537" lon="34.74421"><ele>472.5</ele><name>TP05433</name><time>2016-12-28T21:24:48Z</time></trkpt>
   <trkpt lat="30.927569" lon="34.744157"><ele>472</ele><name>TP05434</name><time>2016-12-28T21:24:49Z</time></trkpt>
   <trkpt lat="30.927595" lon="34.744096"><ele>471.4</ele><name>TP05435</name><time>2016-12-28T21:24:50Z</time></trkpt>
   <trkpt lat="30.927631" lon="34.744058"><ele>471.1</ele><name>TP05436</name><time>2016-12-28T21:24:51Z</time></trkpt>
   <trkpt lat="30.927672" lon="34.744029"><ele>471</ele><name>TP05437</name><time>2016-12-28T21:24:52Z</time></trkpt>
   <trkpt lat="30.927719" lon="34.743994"><ele>471</ele><name>TP05438</name><time>2016-12-28T21:24:53Z</time></trkpt>
   <trkpt lat="30.927758" lon="34.743945"><ele>470.8</ele><name>TP05439</name><time>2016-12-28T21:24:54Z</time></trkpt>
   <trkpt lat="30.927809" lon="34.743884"><ele>470.7</ele><name>TP05440</name><time>2016-12-28T21:24:55Z</time></trkpt>
   <trkpt lat="30.927852" lon="34.74383"><ele>470.8</ele><name>TP05441</name><time>2016-12-28T21:24:56Z</time></trkpt>
   <trkpt lat="30.927896" lon="34.743781"><ele>470.9</ele><name>TP05442</name><time>2016-12-28T21:24:57Z</time></trkpt>
   <trkpt lat="30.92794" lon="34.743728"><ele>470.7</ele><name>TP05443</name><time>2016-12-28T21:24:58Z</time></trkpt>
   <trkpt lat="30.927986" lon="34.743673"><ele>470</ele><name>TP05444</name><time>2016-12-28T21:24:59Z</time></trkpt>
   <trkpt lat="30.928024" lon="34.743622"><ele>469.5</ele><name>TP05445</name><time>2016-12-28T21:25:00Z</time></trkpt>
   <trkpt lat="30.928072" lon="34.743574"><ele>469</ele><name>TP05446</name><time>2016-12-28T21:25:01Z</time></trkpt>
   <trkpt lat="30.928116" lon="34.743516"><ele>468.6</ele><name>TP05447</name><time>2016-12-28T21:25:02Z</time></trkpt>
   <trkpt lat="30.928151" lon="34.743452"><ele>468.2</ele><name>TP05448</name><time>2016-12-28T21:25:03Z</time></trkpt>
   <trkpt lat="30.928189" lon="34.74339"><ele>467.9</ele><name>TP05449</name><time>2016-12-28T21:25:04Z</time></trkpt>
   <trkpt lat="30.928235" lon="34.743327"><ele>467.7</ele><name>TP05450</name><time>2016-12-28T21:25:05Z</time></trkpt>
   <trkpt lat="30.928281" lon="34.743275"><ele>467.6</ele><name>TP05451</name><time>2016-12-28T21:25:06Z</time></trkpt>
   <trkpt lat="30.928326" lon="34.743231"><ele>467.5</ele><name>TP05452</name><time>2016-12-28T21:25:07Z</time></trkpt>
   <trkpt lat="30.928373" lon="34.743203"><ele>467.6</ele><name>TP05453</name><time>2016-12-28T21:25:08Z</time></trkpt>
   <trkpt lat="30.928424" lon="34.743172"><ele>467.7</ele><name>TP05454</name><time>2016-12-28T21:25:09Z</time></trkpt>
   <trkpt lat="30.928478" lon="34.743144"><ele>467.9</ele><name>TP05455</name><time>2016-12-28T21:25:10Z</time></trkpt>
   <trkpt lat="30.928536" lon="34.743111"><ele>468.2</ele><name>TP05456</name><time>2016-12-28T21:25:11Z</time></trkpt>
   <trkpt lat="30.928589" lon="34.743074"><ele>468.5</ele><name>TP05457</name><time>2016-12-28T21:25:12Z</time></trkpt>
   <trkpt lat="30.928636" lon="34.743033"><ele>468.8</ele><name>TP05458</name><time>2016-12-28T21:25:13Z</time></trkpt>
   <trkpt lat="30.928688" lon="34.742995"><ele>469.3</ele><name>TP05459</name><time>2016-12-28T21:25:14Z</time></trkpt>
   <trkpt lat="30.928729" lon="34.742958"><ele>469.7</ele><name>TP05460</name><time>2016-12-28T21:25:15Z</time></trkpt>
   <trkpt lat="30.928767" lon="34.742919"><ele>469.7</ele><name>TP05461</name><time>2016-12-28T21:25:16Z</time></trkpt>
   <trkpt lat="30.928799" lon="34.742887"><ele>469</ele><name>TP05462</name><time>2016-12-28T21:25:17Z</time></trkpt>
   <trkpt lat="30.928834" lon="34.742855"><ele>468.2</ele><name>TP05463</name><time>2016-12-28T21:25:18Z</time></trkpt>
   <trkpt lat="30.928879" lon="34.74282"><ele>467.3</ele><name>TP05464</name><time>2016-12-28T21:25:19Z</time></trkpt>
   <trkpt lat="30.928928" lon="34.742787"><ele>466.5</ele><name>TP05465</name><time>2016-12-28T21:25:20Z</time></trkpt>
   <trkpt lat="30.92898" lon="34.742756"><ele>465.8</ele><name>TP05466</name><time>2016-12-28T21:25:21Z</time></trkpt>
   <trkpt lat="30.929025" lon="34.742724"><ele>465.2</ele><name>TP05467</name><time>2016-12-28T21:25:22Z</time></trkpt>
   <trkpt lat="30.929073" lon="34.742679"><ele>464.6</ele><name>TP05468</name><time>2016-12-28T21:25:23Z</time></trkpt>
   <trkpt lat="30.92912" lon="34.742633"><ele>464.1</ele><name>TP05469</name><time>2016-12-28T21:25:24Z</time></trkpt>
   <trkpt lat="30.929164" lon="34.742574"><ele>463.8</ele><name>TP05470</name><time>2016-12-28T21:25:25Z</time></trkpt>
   <trkpt lat="30.929186" lon="34.74251"><ele>463.7</ele><name>TP05471</name><time>2016-12-28T21:25:26Z</time></trkpt>
   <trkpt lat="30.929203" lon="34.742441"><ele>463.7</ele><name>TP05472</name><time>2016-12-28T21:25:27Z</time></trkpt>
   <trkpt lat="30.929225" lon="34.742374"><ele>463.7</ele><name>TP05473</name><time>2016-12-28T21:25:28Z</time></trkpt>
   <trkpt lat="30.92926" lon="34.742315"><ele>463.8</ele><name>TP05474</name><time>2016-12-28T21:25:29Z</time></trkpt>
   <trkpt lat="30.929303" lon="34.742271"><ele>464.1</ele><name>TP05475</name><time>2016-12-28T21:25:30Z</time></trkpt>
   <trkpt lat="30.929344" lon="34.742242"><ele>464.3</ele><name>TP05476</name><time>2016-12-28T21:25:31Z</time></trkpt>
   <trkpt lat="30.929366" lon="34.742222"><ele>464.5</ele><name>TP05477</name><time>2016-12-28T21:25:32Z</time></trkpt>
   <trkpt lat="30.929396" lon="34.742201"><ele>464.8</ele><name>TP05478</name><time>2016-12-28T21:25:40Z</time></trkpt>
   <trkpt lat="30.929435" lon="34.742171"><ele>465.2</ele><name>TP05479</name><time>2016-12-28T21:25:42Z</time></trkpt>
   <trkpt lat="30.929463" lon="34.74214"><ele>465.6</ele><name>TP05480</name><time>2016-12-28T21:25:43Z</time></trkpt>
   <trkpt lat="30.929493" lon="34.742105"><ele>466.1</ele><name>TP05481</name><time>2016-12-28T21:25:44Z</time></trkpt>
   <trkpt lat="30.92953" lon="34.742078"><ele>466.5</ele><name>TP05482</name><time>2016-12-28T21:25:45Z</time></trkpt>
   <trkpt lat="30.929568" lon="34.742036"><ele>466.4</ele><name>TP05483</name><time>2016-12-28T21:25:46Z</time></trkpt>
   <trkpt lat="30.929596" lon="34.741981"><ele>465.9</ele><name>TP05484</name><time>2016-12-28T21:25:47Z</time></trkpt>
   <trkpt lat="30.929635" lon="34.741925"><ele>464.9</ele><name>TP05485</name><time>2016-12-28T21:25:48Z</time></trkpt>
   <trkpt lat="30.929672" lon="34.741872"><ele>464.2</ele><name>TP05486</name><time>2016-12-28T21:25:49Z</time></trkpt>
   <trkpt lat="30.929711" lon="34.741822"><ele>463.5</ele><name>TP05487</name><time>2016-12-28T21:25:50Z</time></trkpt>
   <trkpt lat="30.929751" lon="34.741775"><ele>462.9</ele><name>TP05488</name><time>2016-12-28T21:25:51Z</time></trkpt>
   <trkpt lat="30.929793" lon="34.741728"><ele>462.4</ele><name>TP05489</name><time>2016-12-28T21:25:52Z</time></trkpt>
   <trkpt lat="30.929846" lon="34.741681"><ele>461.9</ele><name>TP05490</name><time>2016-12-28T21:25:53Z</time></trkpt>
   <trkpt lat="30.929896" lon="34.741635"><ele>461.6</ele><name>TP05491</name><time>2016-12-28T21:25:54Z</time></trkpt>
   <trkpt lat="30.929943" lon="34.741587"><ele>461.4</ele><name>TP05492</name><time>2016-12-28T21:25:55Z</time></trkpt>
   <trkpt lat="30.929983" lon="34.741529"><ele>461.3</ele><name>TP05493</name><time>2016-12-28T21:25:56Z</time></trkpt>
   <trkpt lat="30.930019" lon="34.741455"><ele>461.4</ele><name>TP05494</name><time>2016-12-28T21:25:57Z</time></trkpt>
   <trkpt lat="30.930061" lon="34.741386"><ele>461.6</ele><name>TP05495</name><time>2016-12-28T21:25:58Z</time></trkpt>
   <trkpt lat="30.930112" lon="34.74132"><ele>461.9</ele><name>TP05496</name><time>2016-12-28T21:25:59Z</time></trkpt>
   <trkpt lat="30.930154" lon="34.741254"><ele>462.4</ele><name>TP05497</name><time>2016-12-28T21:26:00Z</time></trkpt>
   <trkpt lat="30.930186" lon="34.741184"><ele>462.2</ele><name>TP05498</name><time>2016-12-28T21:26:01Z</time></trkpt>
   <trkpt lat="30.930206" lon="34.741108"><ele>461.8</ele><name>TP05499</name><time>2016-12-28T21:26:02Z</time></trkpt>
   <trkpt lat="30.930231" lon="34.741034"><ele>461.5</ele><name>TP05500</name><time>2016-12-28T21:26:03Z</time></trkpt>
   <trkpt lat="30.930252" lon="34.740952"><ele>461.2</ele><name>TP05501</name><time>2016-12-28T21:26:04Z</time></trkpt>
   <trkpt lat="30.930266" lon="34.740876"><ele>460.9</ele><name>TP05502</name><time>2016-12-28T21:26:05Z</time></trkpt>
   <trkpt lat="30.930273" lon="34.740795"><ele>460.6</ele><name>TP05503</name><time>2016-12-28T21:26:06Z</time></trkpt>
   <trkpt lat="30.930287" lon="34.740717"><ele>460.3</ele><name>TP05504</name><time>2016-12-28T21:26:07Z</time></trkpt>
   <trkpt lat="30.930301" lon="34.740638"><ele>460.1</ele><name>TP05505</name><time>2016-12-28T21:26:08Z</time></trkpt>
   <trkpt lat="30.930315" lon="34.740562"><ele>459.9</ele><name>TP05506</name><time>2016-12-28T21:26:09Z</time></trkpt>
   <trkpt lat="30.930319" lon="34.740481"><ele>459.6</ele><name>TP05507</name><time>2016-12-28T21:26:10Z</time></trkpt>
   <trkpt lat="30.930303" lon="34.740404"><ele>458.8</ele><name>TP05508</name><time>2016-12-28T21:26:11Z</time></trkpt>
   <trkpt lat="30.9303" lon="34.740326"><ele>457.7</ele><name>TP05509</name><time>2016-12-28T21:26:12Z</time></trkpt>
   <trkpt lat="30.930297" lon="34.740245"><ele>456.5</ele><name>TP05510</name><time>2016-12-28T21:26:13Z</time></trkpt>
   <trkpt lat="30.93031" lon="34.740165"><ele>455.6</ele><name>TP05511</name><time>2016-12-28T21:26:14Z</time></trkpt>
   <trkpt lat="30.930325" lon="34.74008"><ele>454.8</ele><name>TP05512</name><time>2016-12-28T21:26:15Z</time></trkpt>
   <trkpt lat="30.930334" lon="34.739998"><ele>453.8</ele><name>TP05513</name><time>2016-12-28T21:26:16Z</time></trkpt>
   <trkpt lat="30.93032" lon="34.739925"><ele>452.6</ele><name>TP05514</name><time>2016-12-28T21:26:17Z</time></trkpt>
   <trkpt lat="30.930311" lon="34.739854"><ele>451.4</ele><name>TP05515</name><time>2016-12-28T21:26:18Z</time></trkpt>
   <trkpt lat="30.93031" lon="34.739795"><ele>450.6</ele><name>TP05516</name><time>2016-12-28T21:26:19Z</time></trkpt>
   <trkpt lat="30.930327" lon="34.739755"><ele>450.4</ele><name>TP05517</name><time>2016-12-28T21:26:20Z</time></trkpt>
   <trkpt lat="30.930355" lon="34.739715"><ele>450.4</ele><name>TP05518</name><time>2016-12-28T21:26:21Z</time></trkpt>
   <trkpt lat="30.930368" lon="34.739662"><ele>450</ele><name>TP05519</name><time>2016-12-28T21:26:22Z</time></trkpt>
   <trkpt lat="30.930384" lon="34.739605"><ele>449.6</ele><name>TP05520</name><time>2016-12-28T21:26:23Z</time></trkpt>
   <trkpt lat="30.9304" lon="34.739548"><ele>449.3</ele><name>TP05521</name><time>2016-12-28T21:26:24Z</time></trkpt>
   <trkpt lat="30.930435" lon="34.739501"><ele>449.4</ele><name>TP05522</name><time>2016-12-28T21:26:25Z</time></trkpt>
   <trkpt lat="30.930467" lon="34.739446"><ele>449.1</ele><name>TP05523</name><time>2016-12-28T21:26:26Z</time></trkpt>
   <trkpt lat="30.930504" lon="34.73939"><ele>448.8</ele><name>TP05524</name><time>2016-12-28T21:26:27Z</time></trkpt>
   <trkpt lat="30.930536" lon="34.739337"><ele>448.6</ele><name>TP05525</name><time>2016-12-28T21:26:28Z</time></trkpt>
   <trkpt lat="30.930564" lon="34.739281"><ele>448.3</ele><name>TP05526</name><time>2016-12-28T21:26:29Z</time></trkpt>
   <trkpt lat="30.930601" lon="34.739233"><ele>448.1</ele><name>TP05527</name><time>2016-12-28T21:26:30Z</time></trkpt>
   <trkpt lat="30.930625" lon="34.739198"><ele>448</ele><name>TP05528</name><time>2016-12-28T21:26:31Z</time></trkpt>
   <trkpt lat="30.930634" lon="34.739144"><ele>447.6</ele><name>TP05529</name><time>2016-12-28T21:26:33Z</time></trkpt>
   <trkpt lat="30.930641" lon="34.739113"><ele>447.4</ele><name>TP05530</name><time>2016-12-28T21:26:34Z</time></trkpt>
   <trkpt lat="30.930655" lon="34.739078"><ele>447.2</ele><name>TP05531</name><time>2016-12-28T21:26:35Z</time></trkpt>
   <trkpt lat="30.930672" lon="34.739044"><ele>447.1</ele><name>TP05532</name><time>2016-12-28T21:26:36Z</time></trkpt>
   <trkpt lat="30.930693" lon="34.739009"><ele>447</ele><name>TP05533</name><time>2016-12-28T21:26:37Z</time></trkpt>
   <trkpt lat="30.930713" lon="34.738988"><ele>446.9</ele><name>TP05534</name><time>2016-12-28T21:26:38Z</time></trkpt>
   <trkpt lat="30.930745" lon="34.73896"><ele>446.9</ele><name>TP05535</name><time>2016-12-28T21:26:40Z</time></trkpt>
   <trkpt lat="30.930762" lon="34.738931"><ele>446.8</ele><name>TP05536</name><time>2016-12-28T21:26:42Z</time></trkpt>
   <trkpt lat="30.930771" lon="34.738891"><ele>446.6</ele><name>TP05537</name><time>2016-12-28T21:26:43Z</time></trkpt>
   <trkpt lat="30.930781" lon="34.73884"><ele>446.3</ele><name>TP05538</name><time>2016-12-28T21:26:44Z</time></trkpt>
   <trkpt lat="30.930789" lon="34.738801"><ele>446.1</ele><name>TP05539</name><time>2016-12-28T21:26:45Z</time></trkpt>
   <trkpt lat="30.930796" lon="34.738764"><ele>445.8</ele><name>TP05540</name><time>2016-12-28T21:26:46Z</time></trkpt>
   <trkpt lat="30.930806" lon="34.738732"><ele>445.6</ele><name>TP05541</name><time>2016-12-28T21:26:47Z</time></trkpt>
   <trkpt lat="30.93082" lon="34.738704"><ele>445.5</ele><name>TP05542</name><time>2016-12-28T21:26:48Z</time></trkpt>
   <trkpt lat="30.930833" lon="34.738674"><ele>445.3</ele><name>TP05543</name><time>2016-12-28T21:26:49Z</time></trkpt>
   <trkpt lat="30.930845" lon="34.738637"><ele>445.1</ele><name>TP05544</name><time>2016-12-28T21:26:50Z</time></trkpt>
   <trkpt lat="30.930855" lon="34.738594"><ele>444.8</ele><name>TP05545</name><time>2016-12-28T21:26:51Z</time></trkpt>
   <trkpt lat="30.930861" lon="34.738546"><ele>444.4</ele><name>TP05546</name><time>2016-12-28T21:26:52Z</time></trkpt>
   <trkpt lat="30.930861" lon="34.738492"><ele>443.9</ele><name>TP05547</name><time>2016-12-28T21:26:53Z</time></trkpt>
   <trkpt lat="30.93086" lon="34.738444"><ele>443.5</ele><name>TP05548</name><time>2016-12-28T21:26:54Z</time></trkpt>
   <trkpt lat="30.930855" lon="34.738395"><ele>443</ele><name>TP05549</name><time>2016-12-28T21:26:55Z</time></trkpt>
   <trkpt lat="30.930847" lon="34.738331"><ele>442.4</ele><name>TP05550</name><time>2016-12-28T21:26:56Z</time></trkpt>
   <trkpt lat="30.930838" lon="34.738278"><ele>441.8</ele><name>TP05551</name><time>2016-12-28T21:26:57Z</time></trkpt>
   <trkpt lat="30.930834" lon="34.738223"><ele>441.3</ele><name>TP05552</name><time>2016-12-28T21:26:58Z</time></trkpt>
   <trkpt lat="30.93084" lon="34.738163"><ele>440.8</ele><name>TP05553</name><time>2016-12-28T21:26:59Z</time></trkpt>
   <trkpt lat="30.930849" lon="34.738112"><ele>440.4</ele><name>TP05554</name><time>2016-12-28T21:27:00Z</time></trkpt>
   <trkpt lat="30.930875" lon="34.738066"><ele>440.3</ele><name>TP05555</name><time>2016-12-28T21:27:01Z</time></trkpt>
   <trkpt lat="30.930916" lon="34.738013"><ele>440.2</ele><name>TP05556</name><time>2016-12-28T21:27:02Z</time></trkpt>
   <trkpt lat="30.930953" lon="34.737961"><ele>440.2</ele><name>TP05557</name><time>2016-12-28T21:27:03Z</time></trkpt>
   <trkpt lat="30.930986" lon="34.737896"><ele>439.9</ele><name>TP05558</name><time>2016-12-28T21:27:04Z</time></trkpt>
   <trkpt lat="30.93102" lon="34.737834"><ele>439.7</ele><name>TP05559</name><time>2016-12-28T21:27:05Z</time></trkpt>
   <trkpt lat="30.931058" lon="34.73777"><ele>439.6</ele><name>TP05560</name><time>2016-12-28T21:27:06Z</time></trkpt>
   <trkpt lat="30.931098" lon="34.737702"><ele>439.6</ele><name>TP05561</name><time>2016-12-28T21:27:07Z</time></trkpt>
   <trkpt lat="30.931153" lon="34.737573"><ele>439.4</ele><name>TP05562</name><time>2016-12-28T21:27:09Z</time></trkpt>
   <trkpt lat="30.931264" lon="34.737339"><ele>439.5</ele><name>TP05563</name><time>2016-12-28T21:27:11Z</time></trkpt>
   <trkpt lat="30.931279" lon="34.737266"><ele>438.9</ele><name>TP05564</name><time>2016-12-28T21:27:12Z</time></trkpt>
   <trkpt lat="30.931279" lon="34.73719"><ele>438.5</ele><name>TP05565</name><time>2016-12-28T21:27:13Z</time></trkpt>
   <trkpt lat="30.931292" lon="34.737119"><ele>438</ele><name>TP05566</name><time>2016-12-28T21:27:14Z</time></trkpt>
   <trkpt lat="30.931317" lon="34.737049"><ele>436.8</ele><name>TP05567</name><time>2016-12-28T21:27:15Z</time></trkpt>
   <trkpt lat="30.931332" lon="34.736977"><ele>434.9</ele><name>TP05568</name><time>2016-12-28T21:27:16Z</time></trkpt>
   <trkpt lat="30.931337" lon="34.736908"><ele>433.2</ele><name>TP05569</name><time>2016-12-28T21:27:17Z</time></trkpt>
   <trkpt lat="30.931349" lon="34.736838"><ele>431.5</ele><name>TP05570</name><time>2016-12-28T21:27:18Z</time></trkpt>
   <trkpt lat="30.931362" lon="34.736763"><ele>429.6</ele><name>TP05571</name><time>2016-12-28T21:27:19Z</time></trkpt>
   <trkpt lat="30.931374" lon="34.736692"><ele>427.9</ele><name>TP05572</name><time>2016-12-28T21:27:20Z</time></trkpt>
   <trkpt lat="30.931377" lon="34.736628"><ele>426.3</ele><name>TP05573</name><time>2016-12-28T21:27:21Z</time></trkpt>
   <trkpt lat="30.931385" lon="34.736575"><ele>425.1</ele><name>TP05574</name><time>2016-12-28T21:27:22Z</time></trkpt>
   <trkpt lat="30.93139" lon="34.736522"><ele>423.8</ele><name>TP05575</name><time>2016-12-28T21:27:23Z</time></trkpt>
   <trkpt lat="30.931406" lon="34.736483"><ele>422.9</ele><name>TP05576</name><time>2016-12-28T21:27:24Z</time></trkpt>
   <trkpt lat="30.931416" lon="34.736443"><ele>421.9</ele><name>TP05577</name><time>2016-12-28T21:27:25Z</time></trkpt>
   <trkpt lat="30.931433" lon="34.736399"><ele>420.9</ele><name>TP05578</name><time>2016-12-28T21:27:26Z</time></trkpt>
   <trkpt lat="30.931464" lon="34.73636"><ele>420</ele><name>TP05579</name><time>2016-12-28T21:27:27Z</time></trkpt>
   <trkpt lat="30.931495" lon="34.736333"><ele>419.5</ele><name>TP05580</name><time>2016-12-28T21:27:28Z</time></trkpt>
   <trkpt lat="30.931524" lon="34.73631"><ele>419</ele><name>TP05581</name><time>2016-12-28T21:27:29Z</time></trkpt>
   <trkpt lat="30.931549" lon="34.736291"><ele>418.6</ele><name>TP05582</name><time>2016-12-28T21:27:30Z</time></trkpt>
   <trkpt lat="30.931572" lon="34.736267"><ele>418.1</ele><name>TP05583</name><time>2016-12-28T21:27:44Z</time></trkpt>
   <trkpt lat="30.931611" lon="34.736259"><ele>418.1</ele><name>TP05584</name><time>2016-12-28T21:27:46Z</time></trkpt>
   <trkpt lat="30.931651" lon="34.736279"><ele>418.6</ele><name>TP05585</name><time>2016-12-28T21:27:48Z</time></trkpt>
   <trkpt lat="30.931682" lon="34.736306"><ele>419.2</ele><name>TP05586</name><time>2016-12-28T21:27:50Z</time></trkpt>
   <trkpt lat="30.931714" lon="34.736325"><ele>419.7</ele><name>TP05587</name><time>2016-12-28T21:27:52Z</time></trkpt>
   <trkpt lat="30.931745" lon="34.736332"><ele>419.8</ele><name>TP05588</name><time>2016-12-28T21:27:54Z</time></trkpt>
   <trkpt lat="30.931788" lon="34.736334"><ele>420</ele><name>TP05589</name><time>2016-12-28T21:27:55Z</time></trkpt>
   <trkpt lat="30.93184" lon="34.736345"><ele>420.2</ele><name>TP05590</name><time>2016-12-28T21:27:56Z</time></trkpt>
   <trkpt lat="30.93197" lon="34.736428"><ele>421.9</ele><name>TP05591</name><time>2016-12-28T21:27:58Z</time></trkpt>
   <trkpt lat="30.932007" lon="34.736431"><ele>422</ele><name>TP05592</name><time>2016-12-28T21:27:59Z</time></trkpt>
   <trkpt lat="30.932042" lon="34.736415"><ele>421.7</ele><name>TP05593</name><time>2016-12-28T21:28:00Z</time></trkpt>
   <trkpt lat="30.932073" lon="34.736396"><ele>421.4</ele><name>TP05594</name><time>2016-12-28T21:28:01Z</time></trkpt>
   <trkpt lat="30.93211" lon="34.736388"><ele>421.6</ele><name>TP05595</name><time>2016-12-28T21:28:03Z</time></trkpt>
   <trkpt lat="30.93214" lon="34.736409"><ele>422.2</ele><name>TP05596</name><time>2016-12-28T21:28:05Z</time></trkpt>
   <trkpt lat="30.932163" lon="34.736436"><ele>422.9</ele><name>TP05597</name><time>2016-12-28T21:28:07Z</time></trkpt>
   <trkpt lat="30.932171" lon="34.736468"><ele>423.5</ele><name>TP05598</name><time>2016-12-28T21:28:09Z</time></trkpt>
   <trkpt lat="30.932191" lon="34.73651"><ele>424.3</ele><name>TP05599</name><time>2016-12-28T21:28:10Z</time></trkpt>
   <trkpt lat="30.932217" lon="34.736562"><ele>425.4</ele><name>TP05600</name><time>2016-12-28T21:28:11Z</time></trkpt>
   <trkpt lat="30.932242" lon="34.736619"><ele>426.4</ele><name>TP05601</name><time>2016-12-28T21:28:12Z</time></trkpt>
   <trkpt lat="30.932267" lon="34.736675"><ele>427.4</ele><name>TP05602</name><time>2016-12-28T21:28:13Z</time></trkpt>
   <trkpt lat="30.93229" lon="34.736738"><ele>428.5</ele><name>TP05603</name><time>2016-12-28T21:28:14Z</time></trkpt>
   <trkpt lat="30.932295" lon="34.736812"><ele>429.6</ele><name>TP05604</name><time>2016-12-28T21:28:16Z</time></trkpt>
   <trkpt lat="30.932304" lon="34.736874"><ele>430.5</ele><name>TP05605</name><time>2016-12-28T21:28:18Z</time></trkpt>
   <trkpt lat="30.932303" lon="34.736908"><ele>431</ele><name>TP05606</name><time>2016-12-28T21:28:19Z</time></trkpt>
   <trkpt lat="30.932305" lon="34.736948"><ele>431.6</ele><name>TP05607</name><time>2016-12-28T21:28:20Z</time></trkpt>
   <trkpt lat="30.932319" lon="34.736994"><ele>432.3</ele><name>TP05608</name><time>2016-12-28T21:28:21Z</time></trkpt>
   <trkpt lat="30.932342" lon="34.737016"><ele>432.7</ele><name>TP05609</name><time>2016-12-28T21:28:22Z</time></trkpt>
   <trkpt lat="30.932381" lon="34.737015"><ele>432.8</ele><name>TP05610</name><time>2016-12-28T21:28:24Z</time></trkpt>
   <trkpt lat="30.932408" lon="34.736981"><ele>432.4</ele><name>TP05611</name><time>2016-12-28T21:28:26Z</time></trkpt>
   <trkpt lat="30.932437" lon="34.736946"><ele>432.1</ele><name>TP05612</name><time>2016-12-28T21:28:28Z</time></trkpt>
   <trkpt lat="30.932464" lon="34.736922"><ele>431.9</ele><name>TP05613</name><time>2016-12-28T21:28:29Z</time></trkpt>
   <trkpt lat="30.932491" lon="34.736898"><ele>431.7</ele><name>TP05614</name><time>2016-12-28T21:28:30Z</time></trkpt>
   <trkpt lat="30.932518" lon="34.736872"><ele>431.6</ele><name>TP05615</name><time>2016-12-28T21:28:31Z</time></trkpt>
   <trkpt lat="30.932541" lon="34.736845"><ele>431.4</ele><name>TP05616</name><time>2016-12-28T21:28:32Z</time></trkpt>
   <trkpt lat="30.932564" lon="34.736814"><ele>431.1</ele><name>TP05617</name><time>2016-12-28T21:28:33Z</time></trkpt>
   <trkpt lat="30.932595" lon="34.736765"><ele>430.8</ele><name>TP05618</name><time>2016-12-28T21:28:35Z</time></trkpt>
   <trkpt lat="30.932701" lon="34.736627"><ele>430.1</ele><name>TP05619</name><time>2016-12-28T21:28:37Z</time></trkpt>
   <trkpt lat="30.932728" lon="34.736595"><ele>430</ele><name>TP05620</name><time>2016-12-28T21:28:38Z</time></trkpt>
   <trkpt lat="30.932749" lon="34.736558"><ele>429.8</ele><name>TP05621</name><time>2016-12-28T21:28:39Z</time></trkpt>
   <trkpt lat="30.932762" lon="34.736516"><ele>429.5</ele><name>TP05622</name><time>2016-12-28T21:28:40Z</time></trkpt>
   <trkpt lat="30.932774" lon="34.73648"><ele>429.3</ele><name>TP05623</name><time>2016-12-28T21:28:41Z</time></trkpt>
   <trkpt lat="30.932784" lon="34.736446"><ele>429.1</ele><name>TP05624</name><time>2016-12-28T21:28:42Z</time></trkpt>
   <trkpt lat="30.932797" lon="34.736416"><ele>429</ele><name>TP05625</name><time>2016-12-28T21:28:43Z</time></trkpt>
   <trkpt lat="30.932812" lon="34.736387"><ele>428.9</ele><name>TP05626</name><time>2016-12-28T21:28:44Z</time></trkpt>
   <trkpt lat="30.932814" lon="34.736341"><ele>428.5</ele><name>TP05627</name><time>2016-12-28T21:28:46Z</time></trkpt>
   <trkpt lat="30.932813" lon="34.73629"><ele>428.1</ele><name>TP05628</name><time>2016-12-28T21:28:48Z</time></trkpt>
   <trkpt lat="30.932817" lon="34.736237"><ele>427.8</ele><name>TP05629</name><time>2016-12-28T21:28:50Z</time></trkpt>
   <trkpt lat="30.932807" lon="34.736206"><ele>427.6</ele><name>TP05630</name><time>2016-12-28T21:28:53Z</time></trkpt>
   <trkpt lat="30.93282" lon="34.736169"><ele>427.6</ele><name>TP05631</name><time>2016-12-28T21:29:06Z</time></trkpt>
   <trkpt lat="30.932818" lon="34.736135"><ele>427.5</ele><name>TP05632</name><time>2016-12-28T21:29:19Z</time></trkpt>
   <trkpt lat="30.932821" lon="34.736089"><ele>427.4</ele><name>TP05633</name><time>2016-12-28T21:29:21Z</time></trkpt>
   <trkpt lat="30.932833" lon="34.736051"><ele>427.4</ele><name>TP05634</name><time>2016-12-28T21:29:23Z</time></trkpt>
   <trkpt lat="30.932845" lon="34.736013"><ele>427.5</ele><name>TP05635</name><time>2016-12-28T21:29:25Z</time></trkpt>
   <trkpt lat="30.932846" lon="34.735977"><ele>427.4</ele><name>TP05636</name><time>2016-12-28T21:29:27Z</time></trkpt>
   <trkpt lat="30.93285" lon="34.735937"><ele>427.4</ele><name>TP05637</name><time>2016-12-28T21:29:29Z</time></trkpt>
   <trkpt lat="30.932868" lon="34.735896"><ele>427.5</ele><name>TP05638</name><time>2016-12-28T21:29:31Z</time></trkpt>
   <trkpt lat="30.932876" lon="34.735856"><ele>427.5</ele><name>TP05639</name><time>2016-12-28T21:29:33Z</time></trkpt>
   <trkpt lat="30.932879" lon="34.735812"><ele>427.4</ele><name>TP05640</name><time>2016-12-28T21:29:34Z</time></trkpt>
   <trkpt lat="30.932881" lon="34.73576"><ele>427.3</ele><name>TP05641</name><time>2016-12-28T21:29:35Z</time></trkpt>
   <trkpt lat="30.932883" lon="34.735716"><ele>427.2</ele><name>TP05642</name><time>2016-12-28T21:29:36Z</time></trkpt>
   <trkpt lat="30.932887" lon="34.73567"><ele>427.2</ele><name>TP05643</name><time>2016-12-28T21:29:37Z</time></trkpt>
   <trkpt lat="30.932888" lon="34.735624"><ele>427.1</ele><name>TP05644</name><time>2016-12-28T21:29:38Z</time></trkpt>
   <trkpt lat="30.932887" lon="34.73558"><ele>427</ele><name>TP05645</name><time>2016-12-28T21:29:39Z</time></trkpt>
   <trkpt lat="30.932884" lon="34.73553"><ele>426.8</ele><name>TP05646</name><time>2016-12-28T21:29:40Z</time></trkpt>
   <trkpt lat="30.932882" lon="34.73548"><ele>426.6</ele><name>TP05647</name><time>2016-12-28T21:29:41Z</time></trkpt>
   <trkpt lat="30.93288" lon="34.735428"><ele>426.5</ele><name>TP05648</name><time>2016-12-28T21:29:42Z</time></trkpt>
   <trkpt lat="30.932877" lon="34.73537"><ele>426.6</ele><name>TP05649</name><time>2016-12-28T21:29:43Z</time></trkpt>
   <trkpt lat="30.932893" lon="34.735319"><ele>427</ele><name>TP05650</name><time>2016-12-28T21:29:45Z</time></trkpt>
   <trkpt lat="30.932891" lon="34.735268"><ele>427.1</ele><name>TP05651</name><time>2016-12-28T21:29:46Z</time></trkpt>
   <trkpt lat="30.932872" lon="34.73519"><ele>427.1</ele><name>TP05652</name><time>2016-12-28T21:29:47Z</time></trkpt>
   <trkpt lat="30.932855" lon="34.73514"><ele>427.1</ele><name>TP05653</name><time>2016-12-28T21:29:48Z</time></trkpt>
   <trkpt lat="30.932837" lon="34.735094"><ele>427</ele><name>TP05654</name><time>2016-12-28T21:29:49Z</time></trkpt>
   <trkpt lat="30.932821" lon="34.735043"><ele>426.9</ele><name>TP05655</name><time>2016-12-28T21:29:50Z</time></trkpt>
   <trkpt lat="30.932805" lon="34.73498"><ele>426.9</ele><name>TP05656</name><time>2016-12-28T21:29:51Z</time></trkpt>
   <trkpt lat="30.932796" lon="34.73492"><ele>427</ele><name>TP05657</name><time>2016-12-28T21:29:52Z</time></trkpt>
   <trkpt lat="30.932794" lon="34.734868"><ele>427.2</ele><name>TP05658</name><time>2016-12-28T21:29:53Z</time></trkpt>
   <trkpt lat="30.932801" lon="34.734809"><ele>427.5</ele><name>TP05659</name><time>2016-12-28T21:29:54Z</time></trkpt>
   <trkpt lat="30.93282" lon="34.734762"><ele>427.9</ele><name>TP05660</name><time>2016-12-28T21:29:55Z</time></trkpt>
   <trkpt lat="30.932841" lon="34.734713"><ele>428.4</ele><name>TP05661</name><time>2016-12-28T21:29:56Z</time></trkpt>
   <trkpt lat="30.932851" lon="34.734655"><ele>428.8</ele><name>TP05662</name><time>2016-12-28T21:29:57Z</time></trkpt>
   <trkpt lat="30.932845" lon="34.734601"><ele>428.9</ele><name>TP05663</name><time>2016-12-28T21:29:58Z</time></trkpt>
   <trkpt lat="30.932834" lon="34.73455"><ele>428.8</ele><name>TP05664</name><time>2016-12-28T21:29:59Z</time></trkpt>
   <trkpt lat="30.932824" lon="34.734499"><ele>428.6</ele><name>TP05665</name><time>2016-12-28T21:30:00Z</time></trkpt>
   <trkpt lat="30.932821" lon="34.734447"><ele>428.5</ele><name>TP05666</name><time>2016-12-28T21:30:01Z</time></trkpt>
   <trkpt lat="30.932827" lon="34.734396"><ele>428.6</ele><name>TP05667</name><time>2016-12-28T21:30:02Z</time></trkpt>
   <trkpt lat="30.932842" lon="34.734346"><ele>428.7</ele><name>TP05668</name><time>2016-12-28T21:30:03Z</time></trkpt>
   <trkpt lat="30.932854" lon="34.734292"><ele>428.9</ele><name>TP05669</name><time>2016-12-28T21:30:04Z</time></trkpt>
   <trkpt lat="30.93286" lon="34.734244"><ele>428.9</ele><name>TP05670</name><time>2016-12-28T21:30:05Z</time></trkpt>
   <trkpt lat="30.932868" lon="34.734192"><ele>428.9</ele><name>TP05671</name><time>2016-12-28T21:30:06Z</time></trkpt>
   <trkpt lat="30.932875" lon="34.734135"><ele>429</ele><name>TP05672</name><time>2016-12-28T21:30:07Z</time></trkpt>
   <trkpt lat="30.932876" lon="34.734085"><ele>428.9</ele><name>TP05673</name><time>2016-12-28T21:30:08Z</time></trkpt>
   <trkpt lat="30.932875" lon="34.734037"><ele>428.9</ele><name>TP05674</name><time>2016-12-28T21:30:09Z</time></trkpt>
   <trkpt lat="30.932869" lon="34.733987"><ele>428.8</ele><name>TP05675</name><time>2016-12-28T21:30:10Z</time></trkpt>
   <trkpt lat="30.932849" lon="34.733912"><ele>428.5</ele><name>TP05676</name><time>2016-12-28T21:30:11Z</time></trkpt>
   <trkpt lat="30.932821" lon="34.733815"><ele>428.1</ele><name>TP05677</name><time>2016-12-28T21:30:13Z</time></trkpt>
   <trkpt lat="30.932827" lon="34.733765"><ele>428.1</ele><name>TP05678</name><time>2016-12-28T21:30:14Z</time></trkpt>
   <trkpt lat="30.932834" lon="34.733714"><ele>428.2</ele><name>TP05679</name><time>2016-12-28T21:30:15Z</time></trkpt>
   <trkpt lat="30.93284" lon="34.733664"><ele>428.2</ele><name>TP05680</name><time>2016-12-28T21:30:16Z</time></trkpt>
   <trkpt lat="30.93284" lon="34.733613"><ele>428.2</ele><name>TP05681</name><time>2016-12-28T21:30:17Z</time></trkpt>
   <trkpt lat="30.932836" lon="34.733563"><ele>428.2</ele><name>TP05682</name><time>2016-12-28T21:30:18Z</time></trkpt>
   <trkpt lat="30.932821" lon="34.733515"><ele>428</ele><name>TP05683</name><time>2016-12-28T21:30:19Z</time></trkpt>
   <trkpt lat="30.93281" lon="34.733467"><ele>427.9</ele><name>TP05684</name><time>2016-12-28T21:30:20Z</time></trkpt>
   <trkpt lat="30.932802" lon="34.733415"><ele>427.9</ele><name>TP05685</name><time>2016-12-28T21:30:21Z</time></trkpt>
   <trkpt lat="30.93279" lon="34.733364"><ele>427.8</ele><name>TP05686</name><time>2016-12-28T21:30:22Z</time></trkpt>
   <trkpt lat="30.932783" lon="34.733315"><ele>427.8</ele><name>TP05687</name><time>2016-12-28T21:30:23Z</time></trkpt>
   <trkpt lat="30.932772" lon="34.733267"><ele>427.7</ele><name>TP05688</name><time>2016-12-28T21:30:24Z</time></trkpt>
   <trkpt lat="30.932749" lon="34.733222"><ele>427.6</ele><name>TP05689</name><time>2016-12-28T21:30:25Z</time></trkpt>
   <trkpt lat="30.932727" lon="34.73318"><ele>427.6</ele><name>TP05690</name><time>2016-12-28T21:30:26Z</time></trkpt>
   <trkpt lat="30.932704" lon="34.733139"><ele>427.5</ele><name>TP05691</name><time>2016-12-28T21:30:27Z</time></trkpt>
   <trkpt lat="30.932689" lon="34.733101"><ele>427.5</ele><name>TP05692</name><time>2016-12-28T21:30:28Z</time></trkpt>
   <trkpt lat="30.932672" lon="34.73306"><ele>427.5</ele><name>TP05693</name><time>2016-12-28T21:30:29Z</time></trkpt>
   <trkpt lat="30.932652" lon="34.733018"><ele>427.5</ele><name>TP05694</name><time>2016-12-28T21:30:30Z</time></trkpt>
   <trkpt lat="30.932632" lon="34.732972"><ele>427.6</ele><name>TP05695</name><time>2016-12-28T21:30:32Z</time></trkpt>
   <trkpt lat="30.932608" lon="34.732924"><ele>427.6</ele><name>TP05696</name><time>2016-12-28T21:30:34Z</time></trkpt>
   <trkpt lat="30.932604" lon="34.732892"><ele>427.7</ele><name>TP05697</name><time>2016-12-28T21:30:35Z</time></trkpt>
   <trkpt lat="30.932592" lon="34.732825"><ele>427.8</ele><name>TP05698</name><time>2016-12-28T21:30:37Z</time></trkpt>
   <trkpt lat="30.932579" lon="34.732775"><ele>427.9</ele><name>TP05699</name><time>2016-12-28T21:30:38Z</time></trkpt>
   <trkpt lat="30.932557" lon="34.732721"><ele>428</ele><name>TP05700</name><time>2016-12-28T21:30:40Z</time></trkpt>
   <trkpt lat="30.932531" lon="34.732673"><ele>428.2</ele><name>TP05701</name><time>2016-12-28T21:30:41Z</time></trkpt>
   <trkpt lat="30.932506" lon="34.732627"><ele>428.4</ele><name>TP05702</name><time>2016-12-28T21:30:42Z</time></trkpt>
   <trkpt lat="30.932484" lon="34.732579"><ele>428.5</ele><name>TP05703</name><time>2016-12-28T21:30:43Z</time></trkpt>
   <trkpt lat="30.932464" lon="34.732531"><ele>428.8</ele><name>TP05704</name><time>2016-12-28T21:30:44Z</time></trkpt>
   <trkpt lat="30.932448" lon="34.732481"><ele>429</ele><name>TP05705</name><time>2016-12-28T21:30:45Z</time></trkpt>
   <trkpt lat="30.932432" lon="34.732432"><ele>429.2</ele><name>TP05706</name><time>2016-12-28T21:30:46Z</time></trkpt>
   <trkpt lat="30.932418" lon="34.732383"><ele>429.4</ele><name>TP05707</name><time>2016-12-28T21:30:47Z</time></trkpt>
   <trkpt lat="30.932404" lon="34.732336"><ele>429.7</ele><name>TP05708</name><time>2016-12-28T21:30:48Z</time></trkpt>
   <trkpt lat="30.932346" lon="34.732213"><ele>430.5</ele><name>TP05709</name><time>2016-12-28T21:30:50Z</time></trkpt>
   <trkpt lat="30.932321" lon="34.732183"><ele>430.8</ele><name>TP05710</name><time>2016-12-28T21:30:51Z</time></trkpt>
   <trkpt lat="30.93229" lon="34.732158"><ele>431.1</ele><name>TP05711</name><time>2016-12-28T21:30:52Z</time></trkpt>
   <trkpt lat="30.932254" lon="34.732135"><ele>431.5</ele><name>TP05712</name><time>2016-12-28T21:30:53Z</time></trkpt>
   <trkpt lat="30.932221" lon="34.732109"><ele>431.9</ele><name>TP05713</name><time>2016-12-28T21:30:54Z</time></trkpt>
   <trkpt lat="30.93219" lon="34.732081"><ele>432.2</ele><name>TP05714</name><time>2016-12-28T21:30:55Z</time></trkpt>
   <trkpt lat="30.932155" lon="34.732053"><ele>432.3</ele><name>TP05715</name><time>2016-12-28T21:30:56Z</time></trkpt>
   <trkpt lat="30.932124" lon="34.732037"><ele>432.4</ele><name>TP05716</name><time>2016-12-28T21:30:59Z</time></trkpt>
   <trkpt lat="30.932065" lon="34.732011"><ele>432.3</ele><name>TP05717</name><time>2016-12-28T21:31:01Z</time></trkpt>
   <trkpt lat="30.932009" lon="34.731981"><ele>431.6</ele><name>TP05718</name><time>2016-12-28T21:31:02Z</time></trkpt>
   <trkpt lat="30.931962" lon="34.731952"><ele>431</ele><name>TP05719</name><time>2016-12-28T21:31:03Z</time></trkpt>
   <trkpt lat="30.93192" lon="34.731922"><ele>430.4</ele><name>TP05720</name><time>2016-12-28T21:31:04Z</time></trkpt>
   <trkpt lat="30.931881" lon="34.731892"><ele>429.9</ele><name>TP05721</name><time>2016-12-28T21:31:05Z</time></trkpt>
   <trkpt lat="30.931843" lon="34.731867"><ele>429.4</ele><name>TP05722</name><time>2016-12-28T21:31:06Z</time></trkpt>
   <trkpt lat="30.931806" lon="34.731843"><ele>429</ele><name>TP05723</name><time>2016-12-28T21:31:07Z</time></trkpt>
   <trkpt lat="30.931756" lon="34.731819"><ele>428.5</ele><name>TP05724</name><time>2016-12-28T21:31:08Z</time></trkpt>
   <trkpt lat="30.931654" lon="34.731736"><ele>427.2</ele><name>TP05725</name><time>2016-12-28T21:31:10Z</time></trkpt>
   <trkpt lat="30.931635" lon="34.731695"><ele>426.9</ele><name>TP05726</name><time>2016-12-28T21:31:11Z</time></trkpt>
   <trkpt lat="30.931622" lon="34.731659"><ele>426.6</ele><name>TP05727</name><time>2016-12-28T21:31:12Z</time></trkpt>
   <trkpt lat="30.931614" lon="34.73162"><ele>426.4</ele><name>TP05728</name><time>2016-12-28T21:31:13Z</time></trkpt>
   <trkpt lat="30.931611" lon="34.731578"><ele>426.2</ele><name>TP05729</name><time>2016-12-28T21:31:14Z</time></trkpt>
   <trkpt lat="30.931612" lon="34.731525"><ele>426</ele><name>TP05730</name><time>2016-12-28T21:31:15Z</time></trkpt>
   <trkpt lat="30.931616" lon="34.731475"><ele>425.8</ele><name>TP05731</name><time>2016-12-28T21:31:16Z</time></trkpt>
   <trkpt lat="30.931624" lon="34.731421"><ele>425.6</ele><name>TP05732</name><time>2016-12-28T21:31:17Z</time></trkpt>
   <trkpt lat="30.931636" lon="34.731368"><ele>425.4</ele><name>TP05733</name><time>2016-12-28T21:31:18Z</time></trkpt>
   <trkpt lat="30.931637" lon="34.731315"><ele>425.2</ele><name>TP05734</name><time>2016-12-28T21:31:19Z</time></trkpt>
   <trkpt lat="30.931637" lon="34.731262"><ele>424.9</ele><name>TP05735</name><time>2016-12-28T21:31:20Z</time></trkpt>
   <trkpt lat="30.93164" lon="34.731205"><ele>424.3</ele><name>TP05736</name><time>2016-12-28T21:31:21Z</time></trkpt>
   <trkpt lat="30.931646" lon="34.731148"><ele>423.6</ele><name>TP05737</name><time>2016-12-28T21:31:22Z</time></trkpt>
   <trkpt lat="30.931648" lon="34.731088"><ele>422.9</ele><name>TP05738</name><time>2016-12-28T21:31:23Z</time></trkpt>
   <trkpt lat="30.931655" lon="34.731029"><ele>422.2</ele><name>TP05739</name><time>2016-12-28T21:31:24Z</time></trkpt>
   <trkpt lat="30.931665" lon="34.730971"><ele>421.5</ele><name>TP05740</name><time>2016-12-28T21:31:25Z</time></trkpt>
   <trkpt lat="30.931678" lon="34.730904"><ele>420.7</ele><name>TP05741</name><time>2016-12-28T21:31:26Z</time></trkpt>
   <trkpt lat="30.931697" lon="34.730843"><ele>420</ele><name>TP05742</name><time>2016-12-28T21:31:27Z</time></trkpt>
   <trkpt lat="30.931721" lon="34.730784"><ele>419.4</ele><name>TP05743</name><time>2016-12-28T21:31:28Z</time></trkpt>
   <trkpt lat="30.931748" lon="34.730726"><ele>418.7</ele><name>TP05744</name><time>2016-12-28T21:31:29Z</time></trkpt>
   <trkpt lat="30.93177" lon="34.730667"><ele>418.1</ele><name>TP05745</name><time>2016-12-28T21:31:30Z</time></trkpt>
   <trkpt lat="30.93179" lon="34.730601"><ele>417.3</ele><name>TP05746</name><time>2016-12-28T21:31:31Z</time></trkpt>
   <trkpt lat="30.931813" lon="34.730531"><ele>416.5</ele><name>TP05747</name><time>2016-12-28T21:31:32Z</time></trkpt>
   <trkpt lat="30.931834" lon="34.73046"><ele>415.7</ele><name>TP05748</name><time>2016-12-28T21:31:33Z</time></trkpt>
   <trkpt lat="30.931858" lon="34.730392"><ele>414.8</ele><name>TP05749</name><time>2016-12-28T21:31:34Z</time></trkpt>
   <trkpt lat="30.931886" lon="34.730332"><ele>413.9</ele><name>TP05750</name><time>2016-12-28T21:31:35Z</time></trkpt>
   <trkpt lat="30.931899" lon="34.730275"><ele>413</ele><name>TP05751</name><time>2016-12-28T21:31:36Z</time></trkpt>
   <trkpt lat="30.93191" lon="34.730217"><ele>412</ele><name>TP05752</name><time>2016-12-28T21:31:37Z</time></trkpt>
   <trkpt lat="30.931923" lon="34.730161"><ele>411.1</ele><name>TP05753</name><time>2016-12-28T21:31:38Z</time></trkpt>
   <trkpt lat="30.931936" lon="34.730106"><ele>410.2</ele><name>TP05754</name><time>2016-12-28T21:31:39Z</time></trkpt>
   <trkpt lat="30.931943" lon="34.730049"><ele>409.2</ele><name>TP05755</name><time>2016-12-28T21:31:40Z</time></trkpt>
   <trkpt lat="30.93195" lon="34.729995"><ele>408.3</ele><name>TP05756</name><time>2016-12-28T21:31:41Z</time></trkpt>
   <trkpt lat="30.931959" lon="34.729933"><ele>407.3</ele><name>TP05757</name><time>2016-12-28T21:31:42Z</time></trkpt>
   <trkpt lat="30.931967" lon="34.729869"><ele>406.2</ele><name>TP05758</name><time>2016-12-28T21:31:43Z</time></trkpt>
   <trkpt lat="30.931976" lon="34.729804"><ele>405.1</ele><name>TP05759</name><time>2016-12-28T21:31:44Z</time></trkpt>
   <trkpt lat="30.931986" lon="34.729739"><ele>403.9</ele><name>TP05760</name><time>2016-12-28T21:31:45Z</time></trkpt>
   <trkpt lat="30.931999" lon="34.729671"><ele>402.7</ele><name>TP05761</name><time>2016-12-28T21:31:46Z</time></trkpt>
   <trkpt lat="30.932004" lon="34.729603"><ele>401.5</ele><name>TP05762</name><time>2016-12-28T21:31:47Z</time></trkpt>
   <trkpt lat="30.932001" lon="34.729537"><ele>400.4</ele><name>TP05763</name><time>2016-12-28T21:31:48Z</time></trkpt>
   <trkpt lat="30.932008" lon="34.729467"><ele>399.2</ele><name>TP05764</name><time>2016-12-28T21:31:49Z</time></trkpt>
   <trkpt lat="30.932016" lon="34.729399"><ele>398</ele><name>TP05765</name><time>2016-12-28T21:31:50Z</time></trkpt>
   <trkpt lat="30.932025" lon="34.729333"><ele>396.8</ele><name>TP05766</name><time>2016-12-28T21:31:51Z</time></trkpt>
   <trkpt lat="30.932034" lon="34.729272"><ele>395.7</ele><name>TP05767</name><time>2016-12-28T21:31:52Z</time></trkpt>
   <trkpt lat="30.932039" lon="34.729219"><ele>394.8</ele><name>TP05768</name><time>2016-12-28T21:31:53Z</time></trkpt>
   <trkpt lat="30.932052" lon="34.729172"><ele>393.8</ele><name>TP05769</name><time>2016-12-28T21:31:54Z</time></trkpt>
   <trkpt lat="30.932055" lon="34.729119"><ele>392.9</ele><name>TP05770</name><time>2016-12-28T21:31:55Z</time></trkpt>
   <trkpt lat="30.932061" lon="34.729072"><ele>392</ele><name>TP05771</name><time>2016-12-28T21:31:56Z</time></trkpt>
   <trkpt lat="30.93207" lon="34.729027"><ele>391.1</ele><name>TP05772</name><time>2016-12-28T21:31:57Z</time></trkpt>
   <trkpt lat="30.932069" lon="34.728988"><ele>390.4</ele><name>TP05773</name><time>2016-12-28T21:31:58Z</time></trkpt>
   <trkpt lat="30.93207" lon="34.728951"><ele>389.8</ele><name>TP05774</name><time>2016-12-28T21:31:59Z</time></trkpt>
   <trkpt lat="30.932074" lon="34.728909"><ele>389</ele><name>TP05775</name><time>2016-12-28T21:32:00Z</time></trkpt>
   <trkpt lat="30.932085" lon="34.72885"><ele>387.8</ele><name>TP05776</name><time>2016-12-28T21:32:02Z</time></trkpt>
   <trkpt lat="30.932059" lon="34.728814"><ele>387.5</ele><name>TP05777</name><time>2016-12-28T21:32:06Z</time></trkpt>
   <trkpt lat="30.932046" lon="34.728771"><ele>386.9</ele><name>TP05778</name><time>2016-12-28T21:32:07Z</time></trkpt>
   <trkpt lat="30.932026" lon="34.728728"><ele>386.4</ele><name>TP05779</name><time>2016-12-28T21:32:08Z</time></trkpt>
   <trkpt lat="30.932005" lon="34.728685"><ele>386.1</ele><name>TP05780</name><time>2016-12-28T21:32:09Z</time></trkpt>
   <trkpt lat="30.931987" lon="34.728645"><ele>385.7</ele><name>TP05781</name><time>2016-12-28T21:32:10Z</time></trkpt>
   <trkpt lat="30.93197" lon="34.728608"><ele>385.4</ele><name>TP05782</name><time>2016-12-28T21:32:11Z</time></trkpt>
   <trkpt lat="30.931958" lon="34.728579"><ele>385.2</ele><name>TP05783</name><time>2016-12-28T21:32:12Z</time></trkpt>
   <trkpt lat="30.931944" lon="34.728549"><ele>385</ele><name>TP05784</name><time>2016-12-28T21:32:14Z</time></trkpt>
   <trkpt lat="30.93192" lon="34.72852"><ele>384.9</ele><name>TP05785</name><time>2016-12-28T21:32:19Z</time></trkpt>
   <trkpt lat="30.931893" lon="34.728486"><ele>384.9</ele><name>TP05786</name><time>2016-12-28T21:32:22Z</time></trkpt>
   <trkpt lat="30.931877" lon="34.728458"><ele>384.8</ele><name>TP05787</name><time>2016-12-28T21:32:24Z</time></trkpt>
   <trkpt lat="30.931867" lon="34.728426"><ele>384.5</ele><name>TP05788</name><time>2016-12-28T21:32:26Z</time></trkpt>
   <trkpt lat="30.931862" lon="34.728387"><ele>384.1</ele><name>TP05789</name><time>2016-12-28T21:32:29Z</time></trkpt>
   <trkpt lat="30.931855" lon="34.728353"><ele>383.7</ele><name>TP05790</name><time>2016-12-28T21:32:31Z</time></trkpt>
   <trkpt lat="30.931847" lon="34.728322"><ele>383.5</ele><name>TP05791</name><time>2016-12-28T21:32:33Z</time></trkpt>
   <trkpt lat="30.931835" lon="34.728286"><ele>383.2</ele><name>TP05792</name><time>2016-12-28T21:32:35Z</time></trkpt>
   <trkpt lat="30.931824" lon="34.728256"><ele>383</ele><name>TP05793</name><time>2016-12-28T21:32:36Z</time></trkpt>
   <trkpt lat="30.93181" lon="34.728218"><ele>382.8</ele><name>TP05794</name><time>2016-12-28T21:32:37Z</time></trkpt>
   <trkpt lat="30.931797" lon="34.728189"><ele>382.6</ele><name>TP05795</name><time>2016-12-28T21:32:38Z</time></trkpt>
   <trkpt lat="30.931782" lon="34.728151"><ele>382.5</ele><name>TP05796</name><time>2016-12-28T21:32:40Z</time></trkpt>
   <trkpt lat="30.931774" lon="34.728119"><ele>382.2</ele><name>TP05797</name><time>2016-12-28T21:32:41Z</time></trkpt>
   <trkpt lat="30.931716" lon="34.72794"><ele>381.2</ele><name>TP05798</name><time>2016-12-28T21:32:43Z</time></trkpt>
   <trkpt lat="30.931716" lon="34.7279"><ele>380.8</ele><name>TP05799</name><time>2016-12-28T21:32:44Z</time></trkpt>
   <trkpt lat="30.931714" lon="34.727856"><ele>380.5</ele><name>TP05800</name><time>2016-12-28T21:32:45Z</time></trkpt>
   <trkpt lat="30.9317" lon="34.727822"><ele>380.5</ele><name>TP05801</name><time>2016-12-28T21:32:46Z</time></trkpt>
   <trkpt lat="30.931693" lon="34.727779"><ele>380.2</ele><name>TP05802</name><time>2016-12-28T21:32:47Z</time></trkpt>
   <trkpt lat="30.931688" lon="34.727729"><ele>379.9</ele><name>TP05803</name><time>2016-12-28T21:32:48Z</time></trkpt>
   <trkpt lat="30.931674" lon="34.72768"><ele>379.7</ele><name>TP05804</name><time>2016-12-28T21:32:49Z</time></trkpt>
   <trkpt lat="30.931658" lon="34.727628"><ele>379.6</ele><name>TP05805</name><time>2016-12-28T21:32:50Z</time></trkpt>
   <trkpt lat="30.931639" lon="34.727578"><ele>379.5</ele><name>TP05806</name><time>2016-12-28T21:32:51Z</time></trkpt>
   <trkpt lat="30.931617" lon="34.727531"><ele>379.5</ele><name>TP05807</name><time>2016-12-28T21:32:52Z</time></trkpt>
   <trkpt lat="30.931587" lon="34.727493"><ele>379.7</ele><name>TP05808</name><time>2016-12-28T21:32:53Z</time></trkpt>
   <trkpt lat="30.93156" lon="34.727455"><ele>379.8</ele><name>TP05809</name><time>2016-12-28T21:32:54Z</time></trkpt>
   <trkpt lat="30.931533" lon="34.727394"><ele>379.7</ele><name>TP05810</name><time>2016-12-28T21:32:56Z</time></trkpt>
   <trkpt lat="30.931497" lon="34.727373"><ele>380.1</ele><name>TP05811</name><time>2016-12-28T21:32:58Z</time></trkpt>
   <trkpt lat="30.93147" lon="34.727318"><ele>380</ele><name>TP05812</name><time>2016-12-28T21:33:00Z</time></trkpt>
   <trkpt lat="30.931438" lon="34.727287"><ele>380.2</ele><name>TP05813</name><time>2016-12-28T21:33:02Z</time></trkpt>
   <trkpt lat="30.93142" lon="34.727257"><ele>380.2</ele><name>TP05814</name><time>2016-12-28T21:33:04Z</time></trkpt>
   <trkpt lat="30.931399" lon="34.727231"><ele>380.3</ele><name>TP05815</name><time>2016-12-28T21:33:05Z</time></trkpt>
   <trkpt lat="30.931381" lon="34.727187"><ele>380.1</ele><name>TP05816</name><time>2016-12-28T21:33:06Z</time></trkpt>
   <trkpt lat="30.931374" lon="34.727134"><ele>379.6</ele><name>TP05817</name><time>2016-12-28T21:33:07Z</time></trkpt>
   <trkpt lat="30.931371" lon="34.727076"><ele>379</ele><name>TP05818</name><time>2016-12-28T21:33:08Z</time></trkpt>
   <trkpt lat="30.931377" lon="34.727016"><ele>378.3</ele><name>TP05819</name><time>2016-12-28T21:33:09Z</time></trkpt>
   <trkpt lat="30.931383" lon="34.726956"><ele>377.5</ele><name>TP05820</name><time>2016-12-28T21:33:10Z</time></trkpt>
   <trkpt lat="30.931387" lon="34.726898"><ele>376.8</ele><name>TP05821</name><time>2016-12-28T21:33:11Z</time></trkpt>
   <trkpt lat="30.931386" lon="34.72682"><ele>376</ele><name>TP05822</name><time>2016-12-28T21:33:12Z</time></trkpt>
   <trkpt lat="30.931352" lon="34.726701"><ele>375</ele><name>TP05823</name><time>2016-12-28T21:33:14Z</time></trkpt>
   <trkpt lat="30.931335" lon="34.726647"><ele>374.5</ele><name>TP05824</name><time>2016-12-28T21:33:15Z</time></trkpt>
   <trkpt lat="30.93134" lon="34.726595"><ele>373.8</ele><name>TP05825</name><time>2016-12-28T21:33:16Z</time></trkpt>
   <trkpt lat="30.931334" lon="34.726531"><ele>373.1</ele><name>TP05826</name><time>2016-12-28T21:33:17Z</time></trkpt>
   <trkpt lat="30.931307" lon="34.726469"><ele>372.6</ele><name>TP05827</name><time>2016-12-28T21:33:18Z</time></trkpt>
   <trkpt lat="30.931289" lon="34.726411"><ele>371.9</ele><name>TP05828</name><time>2016-12-28T21:33:19Z</time></trkpt>
   <trkpt lat="30.931262" lon="34.726364"><ele>371.5</ele><name>TP05829</name><time>2016-12-28T21:33:20Z</time></trkpt>
   <trkpt lat="30.931236" lon="34.726322"><ele>371</ele><name>TP05830</name><time>2016-12-28T21:33:21Z</time></trkpt>
   <trkpt lat="30.931192" lon="34.726274"><ele>370.7</ele><name>TP05831</name><time>2016-12-28T21:33:22Z</time></trkpt>
   <trkpt lat="30.931163" lon="34.72622"><ele>370.3</ele><name>TP05832</name><time>2016-12-28T21:33:23Z</time></trkpt>
   <trkpt lat="30.931145" lon="34.726154"><ele>369.8</ele><name>TP05833</name><time>2016-12-28T21:33:24Z</time></trkpt>
   <trkpt lat="30.931124" lon="34.726095"><ele>369.5</ele><name>TP05834</name><time>2016-12-28T21:33:25Z</time></trkpt>
   <trkpt lat="30.931107" lon="34.726044"><ele>369.1</ele><name>TP05835</name><time>2016-12-28T21:33:26Z</time></trkpt>
   <trkpt lat="30.93108" lon="34.725997"><ele>368.9</ele><name>TP05836</name><time>2016-12-28T21:33:27Z</time></trkpt>
   <trkpt lat="30.93106" lon="34.72595"><ele>368.6</ele><name>TP05837</name><time>2016-12-28T21:33:28Z</time></trkpt>
   <trkpt lat="30.931051" lon="34.725898"><ele>368.2</ele><name>TP05838</name><time>2016-12-28T21:33:29Z</time></trkpt>
   <trkpt lat="30.931031" lon="34.725841"><ele>367.9</ele><name>TP05839</name><time>2016-12-28T21:33:30Z</time></trkpt>
   <trkpt lat="30.931" lon="34.725787"><ele>367.6</ele><name>TP05840</name><time>2016-12-28T21:33:31Z</time></trkpt>
   <trkpt lat="30.930961" lon="34.72575"><ele>367.5</ele><name>TP05841</name><time>2016-12-28T21:33:32Z</time></trkpt>
   <trkpt lat="30.930922" lon="34.725738"><ele>367.7</ele><name>TP05842</name><time>2016-12-28T21:33:33Z</time></trkpt>
   <trkpt lat="30.930888" lon="34.72574"><ele>367.9</ele><name>TP05843</name><time>2016-12-28T21:33:34Z</time></trkpt>
   <trkpt lat="30.930857" lon="34.725751"><ele>368.2</ele><name>TP05844</name><time>2016-12-28T21:33:35Z</time></trkpt>
   <trkpt lat="30.930829" lon="34.725765"><ele>368.5</ele><name>TP05845</name><time>2016-12-28T21:33:36Z</time></trkpt>
   <trkpt lat="30.930801" lon="34.725782"><ele>368.8</ele><name>TP05846</name><time>2016-12-28T21:33:37Z</time></trkpt>
   <trkpt lat="30.930772" lon="34.725806"><ele>369.1</ele><name>TP05847</name><time>2016-12-28T21:33:38Z</time></trkpt>
   <trkpt lat="30.930744" lon="34.725834"><ele>369.5</ele><name>TP05848</name><time>2016-12-28T21:33:39Z</time></trkpt>
   <trkpt lat="30.930721" lon="34.725863"><ele>369.9</ele><name>TP05849</name><time>2016-12-28T21:33:40Z</time></trkpt>
   <trkpt lat="30.930688" lon="34.725873"><ele>370.2</ele><name>TP05850</name><time>2016-12-28T21:33:42Z</time></trkpt>
   <trkpt lat="30.930672" lon="34.725839"><ele>370</ele><name>TP05851</name><time>2016-12-28T21:33:44Z</time></trkpt>
   <trkpt lat="30.930682" lon="34.725785"><ele>369.5</ele><name>TP05852</name><time>2016-12-28T21:33:46Z</time></trkpt>
   <trkpt lat="30.930697" lon="34.725753"><ele>369.1</ele><name>TP05853</name><time>2016-12-28T21:33:47Z</time></trkpt>
   <trkpt lat="30.930716" lon="34.725719"><ele>368.7</ele><name>TP05854</name><time>2016-12-28T21:33:48Z</time></trkpt>
   <trkpt lat="30.930739" lon="34.725683"><ele>368.3</ele><name>TP05855</name><time>2016-12-28T21:33:49Z</time></trkpt>
   <trkpt lat="30.930768" lon="34.725646"><ele>367.8</ele><name>TP05856</name><time>2016-12-28T21:33:50Z</time></trkpt>
   <trkpt lat="30.930799" lon="34.72561"><ele>367.3</ele><name>TP05857</name><time>2016-12-28T21:33:51Z</time></trkpt>
   <trkpt lat="30.93083" lon="34.725578"><ele>366.9</ele><name>TP05858</name><time>2016-12-28T21:33:52Z</time></trkpt>
   <trkpt lat="30.930864" lon="34.725553"><ele>366.5</ele><name>TP05859</name><time>2016-12-28T21:33:53Z</time></trkpt>
   <trkpt lat="30.930903" lon="34.725538"><ele>366.1</ele><name>TP05860</name><time>2016-12-28T21:33:54Z</time></trkpt>
   <trkpt lat="30.930946" lon="34.725535"><ele>365.8</ele><name>TP05861</name><time>2016-12-28T21:33:55Z</time></trkpt>
   <trkpt lat="30.930991" lon="34.725547"><ele>365.6</ele><name>TP05862</name><time>2016-12-28T21:33:56Z</time></trkpt>
   <trkpt lat="30.931044" lon="34.725625"><ele>366</ele><name>TP05863</name><time>2016-12-28T21:33:57Z</time></trkpt>
   <trkpt lat="30.931096" lon="34.72565"><ele>365.9</ele><name>TP05864</name><time>2016-12-28T21:33:58Z</time></trkpt>
   <trkpt lat="30.931147" lon="34.725678"><ele>365.8</ele><name>TP05865</name><time>2016-12-28T21:33:59Z</time></trkpt>
   <trkpt lat="30.931192" lon="34.725717"><ele>365.9</ele><name>TP05866</name><time>2016-12-28T21:34:00Z</time></trkpt>
   <trkpt lat="30.931238" lon="34.725743"><ele>365.8</ele><name>TP05867</name><time>2016-12-28T21:34:01Z</time></trkpt>
   <trkpt lat="30.93129" lon="34.725778"><ele>366.3</ele><name>TP05868</name><time>2016-12-28T21:34:02Z</time></trkpt>
   <trkpt lat="30.931338" lon="34.725813"><ele>366.9</ele><name>TP05869</name><time>2016-12-28T21:34:03Z</time></trkpt>
   <trkpt lat="30.931396" lon="34.725837"><ele>367.5</ele><name>TP05870</name><time>2016-12-28T21:34:04Z</time></trkpt>
   <trkpt lat="30.931456" lon="34.725864"><ele>368</ele><name>TP05871</name><time>2016-12-28T21:34:05Z</time></trkpt>
   <trkpt lat="30.931509" lon="34.725882"><ele>368.3</ele><name>TP05872</name><time>2016-12-28T21:34:06Z</time></trkpt>
   <trkpt lat="30.931554" lon="34.72587"><ele>368.6</ele><name>TP05873</name><time>2016-12-28T21:34:07Z</time></trkpt>
   <trkpt lat="30.931591" lon="34.725827"><ele>368.7</ele><name>TP05874</name><time>2016-12-28T21:34:08Z</time></trkpt>
   <trkpt lat="30.93162" lon="34.725766"><ele>368.9</ele><name>TP05875</name><time>2016-12-28T21:34:09Z</time></trkpt>
   <trkpt lat="30.931647" lon="34.725701"><ele>369.1</ele><name>TP05876</name><time>2016-12-28T21:34:10Z</time></trkpt>
   <trkpt lat="30.931681" lon="34.725631"><ele>369.5</ele><name>TP05877</name><time>2016-12-28T21:34:11Z</time></trkpt>
   <trkpt lat="30.931717" lon="34.725579"><ele>370</ele><name>TP05878</name><time>2016-12-28T21:34:12Z</time></trkpt>
   <trkpt lat="30.931743" lon="34.725534"><ele>370.4</ele><name>TP05879</name><time>2016-12-28T21:34:13Z</time></trkpt>
   <trkpt lat="30.931756" lon="34.725476"><ele>370.7</ele><name>TP05880</name><time>2016-12-28T21:34:14Z</time></trkpt>
   <trkpt lat="30.931755" lon="34.725425"><ele>370.9</ele><name>TP05881</name><time>2016-12-28T21:34:15Z</time></trkpt>
   <trkpt lat="30.931753" lon="34.725375"><ele>371.2</ele><name>TP05882</name><time>2016-12-28T21:34:16Z</time></trkpt>
   <trkpt lat="30.931741" lon="34.725316"><ele>371.6</ele><name>TP05883</name><time>2016-12-28T21:34:17Z</time></trkpt>
   <trkpt lat="30.931726" lon="34.725259"><ele>371.8</ele><name>TP05884</name><time>2016-12-28T21:34:18Z</time></trkpt>
   <trkpt lat="30.931702" lon="34.725208"><ele>371.9</ele><name>TP05885</name><time>2016-12-28T21:34:19Z</time></trkpt>
   <trkpt lat="30.931683" lon="34.725155"><ele>372</ele><name>TP05886</name><time>2016-12-28T21:34:20Z</time></trkpt>
   <trkpt lat="30.931668" lon="34.725096"><ele>372.2</ele><name>TP05887</name><time>2016-12-28T21:34:21Z</time></trkpt>
   <trkpt lat="30.931657" lon="34.725048"><ele>372.4</ele><name>TP05888</name><time>2016-12-28T21:34:22Z</time></trkpt>
   <trkpt lat="30.931646" lon="34.724998"><ele>372.6</ele><name>TP05889</name><time>2016-12-28T21:34:23Z</time></trkpt>
   <trkpt lat="30.931633" lon="34.724945"><ele>372.8</ele><name>TP05890</name><time>2016-12-28T21:34:24Z</time></trkpt>
   <trkpt lat="30.931616" lon="34.7249"><ele>372.8</ele><name>TP05891</name><time>2016-12-28T21:34:25Z</time></trkpt>
   <trkpt lat="30.931594" lon="34.724862"><ele>372.7</ele><name>TP05892</name><time>2016-12-28T21:34:26Z</time></trkpt>
   <trkpt lat="30.931574" lon="34.724826"><ele>372.5</ele><name>TP05893</name><time>2016-12-28T21:34:27Z</time></trkpt>
   <trkpt lat="30.931549" lon="34.724791"><ele>372.3</ele><name>TP05894</name><time>2016-12-28T21:34:28Z</time></trkpt>
   <trkpt lat="30.931525" lon="34.724747"><ele>372.1</ele><name>TP05895</name><time>2016-12-28T21:34:30Z</time></trkpt>
   <trkpt lat="30.931506" lon="34.724707"><ele>372</ele><name>TP05896</name><time>2016-12-28T21:34:32Z</time></trkpt>
   <trkpt lat="30.931475" lon="34.724661"><ele>371.6</ele><name>TP05897</name><time>2016-12-28T21:34:34Z</time></trkpt>
   <trkpt lat="30.931457" lon="34.724637"><ele>371.4</ele><name>TP05898</name><time>2016-12-28T21:34:35Z</time></trkpt>
   <trkpt lat="30.931438" lon="34.724609"><ele>371.1</ele><name>TP05899</name><time>2016-12-28T21:34:36Z</time></trkpt>
   <trkpt lat="30.931416" lon="34.724579"><ele>370.8</ele><name>TP05900</name><time>2016-12-28T21:34:37Z</time></trkpt>
   <trkpt lat="30.93139" lon="34.724558"><ele>370.1</ele><name>TP05901</name><time>2016-12-28T21:34:38Z</time></trkpt>
   <trkpt lat="30.931358" lon="34.724539"><ele>369.4</ele><name>TP05902</name><time>2016-12-28T21:34:39Z</time></trkpt>
   <trkpt lat="30.93133" lon="34.724511"><ele>368.7</ele><name>TP05903</name><time>2016-12-28T21:34:40Z</time></trkpt>
   <trkpt lat="30.931307" lon="34.724474"><ele>368.1</ele><name>TP05904</name><time>2016-12-28T21:34:41Z</time></trkpt>
   <trkpt lat="30.931296" lon="34.724432"><ele>367.8</ele><name>TP05905</name><time>2016-12-28T21:34:42Z</time></trkpt>
   <trkpt lat="30.931309" lon="34.7244"><ele>368.1</ele><name>TP05906</name><time>2016-12-28T21:34:43Z</time></trkpt>
   <trkpt lat="30.931348" lon="34.724404"><ele>368.9</ele><name>TP05907</name><time>2016-12-28T21:34:45Z</time></trkpt>
   <trkpt lat="30.931363" lon="34.724447"><ele>369.3</ele><name>TP05908</name><time>2016-12-28T21:34:47Z</time></trkpt>
   <trkpt lat="30.931378" lon="34.724493"><ele>369.7</ele><name>TP05909</name><time>2016-12-28T21:34:49Z</time></trkpt>
   <trkpt lat="30.931394" lon="34.724531"><ele>370.2</ele><name>TP05910</name><time>2016-12-28T21:34:53Z</time></trkpt>
   <trkpt lat="30.931413" lon="34.724565"><ele>370.7</ele><name>TP05911</name><time>2016-12-28T21:34:54Z</time></trkpt>
   <trkpt lat="30.931433" lon="34.724599"><ele>371.1</ele><name>TP05912</name><time>2016-12-28T21:34:55Z</time></trkpt>
   <trkpt lat="30.931457" lon="34.724634"><ele>371.4</ele><name>TP05913</name><time>2016-12-28T21:34:56Z</time></trkpt>
   <trkpt lat="30.93148" lon="34.724671"><ele>371.6</ele><name>TP05914</name><time>2016-12-28T21:34:57Z</time></trkpt>
   <trkpt lat="30.931497" lon="34.724706"><ele>371.8</ele><name>TP05915</name><time>2016-12-28T21:34:58Z</time></trkpt>
   <trkpt lat="30.93151" lon="34.724748"><ele>371.8</ele><name>TP05916</name><time>2016-12-28T21:34:59Z</time></trkpt>
   <trkpt lat="30.931525" lon="34.724783"><ele>371.8</ele><name>TP05917</name><time>2016-12-28T21:35:00Z</time></trkpt>
   <trkpt lat="30.931546" lon="34.724828"><ele>371.9</ele><name>TP05918</name><time>2016-12-28T21:35:02Z</time></trkpt>
   <trkpt lat="30.931564" lon="34.724859"><ele>372.1</ele><name>TP05919</name><time>2016-12-28T21:35:03Z</time></trkpt>
   <trkpt lat="30.931579" lon="34.724892"><ele>372.1</ele><name>TP05920</name><time>2016-12-28T21:35:04Z</time></trkpt>
   <trkpt lat="30.931595" lon="34.724924"><ele>372.2</ele><name>TP05921</name><time>2016-12-28T21:35:05Z</time></trkpt>
   <trkpt lat="30.931617" lon="34.72497"><ele>372.3</ele><name>TP05922</name><time>2016-12-28T21:35:07Z</time></trkpt>
   <trkpt lat="30.931629" lon="34.725001"><ele>372.3</ele><name>TP05923</name><time>2016-12-28T21:35:08Z</time></trkpt>
   <trkpt lat="30.931644" lon="34.725061"><ele>372.1</ele><name>TP05924</name><time>2016-12-28T21:35:10Z</time></trkpt>
   <trkpt lat="30.931651" lon="34.725092"><ele>371.9</ele><name>TP05925</name><time>2016-12-28T21:35:11Z</time></trkpt>
   <trkpt lat="30.93166" lon="34.725124"><ele>371.8</ele><name>TP05926</name><time>2016-12-28T21:35:12Z</time></trkpt>
   <trkpt lat="30.931672" lon="34.725159"><ele>371.8</ele><name>TP05927</name><time>2016-12-28T21:35:13Z</time></trkpt>
   <trkpt lat="30.931685" lon="34.725191"><ele>371.7</ele><name>TP05928</name><time>2016-12-28T21:35:14Z</time></trkpt>
   <trkpt lat="30.9317" lon="34.725222"><ele>371.7</ele><name>TP05929</name><time>2016-12-28T21:35:15Z</time></trkpt>
   <trkpt lat="30.931714" lon="34.725252"><ele>371.7</ele><name>TP05930</name><time>2016-12-28T21:35:16Z</time></trkpt>
   <trkpt lat="30.931738" lon="34.725305"><ele>371.6</ele><name>TP05931</name><time>2016-12-28T21:35:18Z</time></trkpt>
   <trkpt lat="30.931762" lon="34.725357"><ele>371.5</ele><name>TP05932</name><time>2016-12-28T21:35:20Z</time></trkpt>
   <trkpt lat="30.931786" lon="34.725409"><ele>371.4</ele><name>TP05933</name><time>2016-12-28T21:35:22Z</time></trkpt>
   <trkpt lat="30.931801" lon="34.725445"><ele>371.5</ele><name>TP05934</name><time>2016-12-28T21:35:24Z</time></trkpt>
   <trkpt lat="30.931803" lon="34.725414"><ele>371.7</ele><name>TP05935</name><time>2016-12-28T21:35:32Z</time></trkpt>
   <trkpt lat="30.931775" lon="34.725385"><ele>371.5</ele><name>TP05936</name><time>2016-12-28T21:36:04Z</time></trkpt>
   <trkpt lat="30.931745" lon="34.7254"><ele>370.9</ele><name>TP05937</name><time>2016-12-28T21:36:06Z</time></trkpt>
   <trkpt lat="30.931772" lon="34.725403"><ele>371.3</ele><name>TP05938</name><time>2016-12-28T21:36:10Z</time></trkpt>
   <trkpt lat="30.931766" lon="34.725362"><ele>371.6</ele><name>TP05939</name><time>2016-12-28T21:42:36Z</time></trkpt>
   <trkpt lat="30.931757" lon="34.725328"><ele>371.7</ele><name>TP05940</name><time>2016-12-28T21:42:38Z</time></trkpt>
   <trkpt lat="30.931737" lon="34.725291"><ele>371.7</ele><name>TP05941</name><time>2016-12-28T21:42:40Z</time></trkpt>
   <trkpt lat="30.931711" lon="34.72525"><ele>371.7</ele><name>TP05942</name><time>2016-12-28T21:42:42Z</time></trkpt>
   <trkpt lat="30.931684" lon="34.725203"><ele>371.6</ele><name>TP05943</name><time>2016-12-28T21:42:44Z</time></trkpt>
   <trkpt lat="30.931657" lon="34.725147"><ele>371.6</ele><name>TP05944</name><time>2016-12-28T21:42:46Z</time></trkpt>
   <trkpt lat="30.931645" lon="34.725113"><ele>371.7</ele><name>TP05945</name><time>2016-12-28T21:42:47Z</time></trkpt>
   <trkpt lat="30.931638" lon="34.725082"><ele>371.8</ele><name>TP05946</name><time>2016-12-28T21:42:48Z</time></trkpt>
   <trkpt lat="30.931625" lon="34.72502"><ele>372</ele><name>TP05947</name><time>2016-12-28T21:42:50Z</time></trkpt>
   <trkpt lat="30.931618" lon="34.724987"><ele>372.2</ele><name>TP05948</name><time>2016-12-28T21:42:51Z</time></trkpt>
   <trkpt lat="30.93161" lon="34.724953"><ele>372.3</ele><name>TP05949</name><time>2016-12-28T21:42:52Z</time></trkpt>
   <trkpt lat="30.9316" lon="34.724918"><ele>372.4</ele><name>TP05950</name><time>2016-12-28T21:42:53Z</time></trkpt>
   <trkpt lat="30.931587" lon="34.724883"><ele>372.4</ele><name>TP05951</name><time>2016-12-28T21:42:54Z</time></trkpt>
   <trkpt lat="30.931543" lon="34.724819"><ele>372</ele><name>TP05952</name><time>2016-12-28T21:42:56Z</time></trkpt>
   <trkpt lat="30.931521" lon="34.724786"><ele>371.7</ele><name>TP05953</name><time>2016-12-28T21:42:57Z</time></trkpt>
   <trkpt lat="30.931503" lon="34.72475"><ele>371.6</ele><name>TP05954</name><time>2016-12-28T21:42:58Z</time></trkpt>
   <trkpt lat="30.931487" lon="34.72472"><ele>371.5</ele><name>TP05955</name><time>2016-12-28T21:42:59Z</time></trkpt>
   <trkpt lat="30.931455" lon="34.724669"><ele>371.1</ele><name>TP05956</name><time>2016-12-28T21:43:01Z</time></trkpt>
   <trkpt lat="30.931431" lon="34.724637"><ele>370.8</ele><name>TP05957</name><time>2016-12-28T21:43:03Z</time></trkpt>
   <trkpt lat="30.931416" lon="34.724604"><ele>370.7</ele><name>TP05958</name><time>2016-12-28T21:43:05Z</time></trkpt>
   <trkpt lat="30.931399" lon="34.724572"><ele>370.4</ele><name>TP05959</name><time>2016-12-28T21:43:07Z</time></trkpt>
   <trkpt lat="30.931383" lon="34.724545"><ele>370</ele><name>TP05960</name><time>2016-12-28T21:43:08Z</time></trkpt>
   <trkpt lat="30.931359" lon="34.724503"><ele>369.3</ele><name>TP05961</name><time>2016-12-28T21:43:09Z</time></trkpt>
   <trkpt lat="30.931335" lon="34.724461"><ele>368.7</ele><name>TP05962</name><time>2016-12-28T21:43:10Z</time></trkpt>
   <trkpt lat="30.931312" lon="34.724421"><ele>368.2</ele><name>TP05963</name><time>2016-12-28T21:43:11Z</time></trkpt>
   <trkpt lat="30.931292" lon="34.724382"><ele>367.7</ele><name>TP05964</name><time>2016-12-28T21:43:12Z</time></trkpt>
   <trkpt lat="30.931271" lon="34.724344"><ele>367.2</ele><name>TP05965</name><time>2016-12-28T21:43:13Z</time></trkpt>
   <trkpt lat="30.931251" lon="34.724306"><ele>366.7</ele><name>TP05966</name><time>2016-12-28T21:43:14Z</time></trkpt>
   <trkpt lat="30.931229" lon="34.724268"><ele>366.6</ele><name>TP05967</name><time>2016-12-28T21:43:15Z</time></trkpt>
   <trkpt lat="30.931162" lon="34.724167"><ele>366.3</ele><name>TP05968</name><time>2016-12-28T21:43:17Z</time></trkpt>
   <trkpt lat="30.931135" lon="34.724141"><ele>366.3</ele><name>TP05969</name><time>2016-12-28T21:43:18Z</time></trkpt>
   <trkpt lat="30.93111" lon="34.724121"><ele>366.2</ele><name>TP05970</name><time>2016-12-28T21:43:19Z</time></trkpt>
   <trkpt lat="30.931081" lon="34.724105"><ele>366.1</ele><name>TP05971</name><time>2016-12-28T21:43:20Z</time></trkpt>
   <trkpt lat="30.931052" lon="34.724092"><ele>366</ele><name>TP05972</name><time>2016-12-28T21:43:21Z</time></trkpt>
   <trkpt lat="30.93102" lon="34.724084"><ele>366</ele><name>TP05973</name><time>2016-12-28T21:43:22Z</time></trkpt>
   <trkpt lat="30.930984" lon="34.724077"><ele>365.9</ele><name>TP05974</name><time>2016-12-28T21:43:23Z</time></trkpt>
   <trkpt lat="30.930942" lon="34.724072"><ele>365.8</ele><name>TP05975</name><time>2016-12-28T21:43:25Z</time></trkpt>
   <trkpt lat="30.930905" lon="34.724072"><ele>365.7</ele><name>TP05976</name><time>2016-12-28T21:43:27Z</time></trkpt>
   <trkpt lat="30.930878" lon="34.724074"><ele>365.7</ele><name>TP05977</name><time>2016-12-28T21:43:28Z</time></trkpt>
   <trkpt lat="30.930847" lon="34.724078"><ele>365.6</ele><name>TP05978</name><time>2016-12-28T21:43:29Z</time></trkpt>
   <trkpt lat="30.930817" lon="34.72408"><ele>365.6</ele><name>TP05979</name><time>2016-12-28T21:43:30Z</time></trkpt>
   <trkpt lat="30.930788" lon="34.724081"><ele>365.5</ele><name>TP05980</name><time>2016-12-28T21:43:31Z</time></trkpt>
   <trkpt lat="30.93076" lon="34.724081"><ele>365.5</ele><name>TP05981</name><time>2016-12-28T21:43:32Z</time></trkpt>
   <trkpt lat="30.930731" lon="34.724079"><ele>365.4</ele><name>TP05982</name><time>2016-12-28T21:43:33Z</time></trkpt>
   <trkpt lat="30.930689" lon="34.724056"><ele>365.3</ele><name>TP05983</name><time>2016-12-28T21:43:35Z</time></trkpt>
   <trkpt lat="30.930675" lon="34.724017"><ele>365.2</ele><name>TP05984</name><time>2016-12-28T21:43:37Z</time></trkpt>
   <trkpt lat="30.93067" lon="34.723979"><ele>365.1</ele><name>TP05985</name><time>2016-12-28T21:43:38Z</time></trkpt>
   <trkpt lat="30.930671" lon="34.723935"><ele>365</ele><name>TP05986</name><time>2016-12-28T21:43:39Z</time></trkpt>
   <trkpt lat="30.930677" lon="34.723889"><ele>364.9</ele><name>TP05987</name><time>2016-12-28T21:43:40Z</time></trkpt>
   <trkpt lat="30.930688" lon="34.723843"><ele>364.8</ele><name>TP05988</name><time>2016-12-28T21:43:41Z</time></trkpt>
   <trkpt lat="30.930722" lon="34.723744"><ele>364.7</ele><name>TP05989</name><time>2016-12-28T21:43:43Z</time></trkpt>
   <trkpt lat="30.930745" lon="34.723713"><ele>364.8</ele><name>TP05990</name><time>2016-12-28T21:43:44Z</time></trkpt>
   <trkpt lat="30.93077" lon="34.72368"><ele>364.8</ele><name>TP05991</name><time>2016-12-28T21:43:45Z</time></trkpt>
   <trkpt lat="30.930798" lon="34.72365"><ele>364.9</ele><name>TP05992</name><time>2016-12-28T21:43:46Z</time></trkpt>
   <trkpt lat="30.930822" lon="34.72362"><ele>365</ele><name>TP05993</name><time>2016-12-28T21:43:47Z</time></trkpt>
   <trkpt lat="30.930844" lon="34.723587"><ele>365</ele><name>TP05994</name><time>2016-12-28T21:43:48Z</time></trkpt>
   <trkpt lat="30.930868" lon="34.723543"><ele>365.1</ele><name>TP05995</name><time>2016-12-28T21:43:50Z</time></trkpt>
   <trkpt lat="30.930885" lon="34.7235"><ele>365.2</ele><name>TP05996</name><time>2016-12-28T21:43:52Z</time></trkpt>
   <trkpt lat="30.930891" lon="34.723441"><ele>365.2</ele><name>TP05997</name><time>2016-12-28T21:43:54Z</time></trkpt>
   <trkpt lat="30.930896" lon="34.723381"><ele>365.2</ele><name>TP05998</name><time>2016-12-28T21:43:55Z</time></trkpt>
   <trkpt lat="30.930904" lon="34.723327"><ele>365.3</ele><name>TP05999</name><time>2016-12-28T21:43:56Z</time></trkpt>
   <trkpt lat="30.930911" lon="34.723279"><ele>365.3</ele><name>TP06000</name><time>2016-12-28T21:43:57Z</time></trkpt>
   <trkpt lat="30.930916" lon="34.723237"><ele>365.3</ele><name>TP06001</name><time>2016-12-28T21:43:58Z</time></trkpt>
   <trkpt lat="30.930918" lon="34.723203"><ele>365.3</ele><name>TP06002</name><time>2016-12-28T21:43:59Z</time></trkpt>
   <trkpt lat="30.930902" lon="34.723148"><ele>365.3</ele><name>TP06003</name><time>2016-12-28T21:44:01Z</time></trkpt>
   <trkpt lat="30.93086" lon="34.723122"><ele>365.1</ele><name>TP06004</name><time>2016-12-28T21:44:03Z</time></trkpt>
   <trkpt lat="30.930832" lon="34.723124"><ele>365</ele><name>TP06005</name><time>2016-12-28T21:44:04Z</time></trkpt>
   <trkpt lat="30.930801" lon="34.723131"><ele>364.9</ele><name>TP06006</name><time>2016-12-28T21:44:05Z</time></trkpt>
   <trkpt lat="30.930769" lon="34.723142"><ele>364.7</ele><name>TP06007</name><time>2016-12-28T21:44:07Z</time></trkpt>
   <trkpt lat="30.930702" lon="34.723163"><ele>364.5</ele><name>TP06008</name><time>2016-12-28T21:44:09Z</time></trkpt>
   <trkpt lat="30.930641" lon="34.72318"><ele>364.2</ele><name>TP06009</name><time>2016-12-28T21:44:11Z</time></trkpt>
   <trkpt lat="30.930618" lon="34.723203"><ele>364.1</ele><name>TP06010</name><time>2016-12-28T21:44:12Z</time></trkpt>
   <trkpt lat="30.930596" lon="34.723228"><ele>364.1</ele><name>TP06011</name><time>2016-12-28T21:44:13Z</time></trkpt>
   <trkpt lat="30.930553" lon="34.723279"><ele>363.9</ele><name>TP06012</name><time>2016-12-28T21:44:15Z</time></trkpt>
   <trkpt lat="30.930534" lon="34.723309"><ele>363.9</ele><name>TP06013</name><time>2016-12-28T21:44:16Z</time></trkpt>
   <trkpt lat="30.930515" lon="34.723349"><ele>363.9</ele><name>TP06014</name><time>2016-12-28T21:44:18Z</time></trkpt>
   <trkpt lat="30.930498" lon="34.723399"><ele>363.9</ele><name>TP06015</name><time>2016-12-28T21:44:20Z</time></trkpt>
   <trkpt lat="30.930485" lon="34.723443"><ele>363.9</ele><name>TP06016</name><time>2016-12-28T21:44:22Z</time></trkpt>
   <trkpt lat="30.930468" lon="34.723496"><ele>363.9</ele><name>TP06017</name><time>2016-12-28T21:44:24Z</time></trkpt>
   <trkpt lat="30.930457" lon="34.723528"><ele>363.9</ele><name>TP06018</name><time>2016-12-28T21:44:25Z</time></trkpt>
   <trkpt lat="30.930445" lon="34.723562"><ele>363.9</ele><name>TP06019</name><time>2016-12-28T21:44:26Z</time></trkpt>
   <trkpt lat="30.930434" lon="34.723594"><ele>363.9</ele><name>TP06020</name><time>2016-12-28T21:44:27Z</time></trkpt>
   <trkpt lat="30.930408" lon="34.723653"><ele>364</ele><name>TP06021</name><time>2016-12-28T21:44:29Z</time></trkpt>
   <trkpt lat="30.93039" lon="34.723688"><ele>364.1</ele><name>TP06022</name><time>2016-12-28T21:44:30Z</time></trkpt>
   <trkpt lat="30.930372" lon="34.723724"><ele>364.3</ele><name>TP06023</name><time>2016-12-28T21:44:31Z</time></trkpt>
   <trkpt lat="30.930354" lon="34.723756"><ele>364.5</ele><name>TP06024</name><time>2016-12-28T21:44:32Z</time></trkpt>
   <trkpt lat="30.930336" lon="34.723788"><ele>364.7</ele><name>TP06025</name><time>2016-12-28T21:44:33Z</time></trkpt>
   <trkpt lat="30.930315" lon="34.723823"><ele>365</ele><name>TP06026</name><time>2016-12-28T21:44:34Z</time></trkpt>
   <trkpt lat="30.930293" lon="34.723858"><ele>365.2</ele><name>TP06027</name><time>2016-12-28T21:44:35Z</time></trkpt>
   <trkpt lat="30.93027" lon="34.723891"><ele>365.4</ele><name>TP06028</name><time>2016-12-28T21:44:36Z</time></trkpt>
   <trkpt lat="30.930247" lon="34.723921"><ele>365.6</ele><name>TP06029</name><time>2016-12-28T21:44:37Z</time></trkpt>
   <trkpt lat="30.930224" lon="34.72395"><ele>365.8</ele><name>TP06030</name><time>2016-12-28T21:44:38Z</time></trkpt>
   <trkpt lat="30.930204" lon="34.723976"><ele>366</ele><name>TP06031</name><time>2016-12-28T21:44:39Z</time></trkpt>
   <trkpt lat="30.930184" lon="34.724004"><ele>366.1</ele><name>TP06032</name><time>2016-12-28T21:44:40Z</time></trkpt>
   <trkpt lat="30.930162" lon="34.724039"><ele>366.3</ele><name>TP06033</name><time>2016-12-28T21:44:41Z</time></trkpt>
   <trkpt lat="30.930133" lon="34.724068"><ele>366.5</ele><name>TP06034</name><time>2016-12-28T21:44:42Z</time></trkpt>
   <trkpt lat="30.930102" lon="34.724094"><ele>366.7</ele><name>TP06035</name><time>2016-12-28T21:44:43Z</time></trkpt>
   <trkpt lat="30.930071" lon="34.724122"><ele>366.9</ele><name>TP06036</name><time>2016-12-28T21:44:44Z</time></trkpt>
   <trkpt lat="30.930045" lon="34.724155"><ele>367</ele><name>TP06037</name><time>2016-12-28T21:44:45Z</time></trkpt>
   <trkpt lat="30.930027" lon="34.724189"><ele>367.1</ele><name>TP06038</name><time>2016-12-28T21:44:46Z</time></trkpt>
   <trkpt lat="30.930008" lon="34.724222"><ele>367.2</ele><name>TP06039</name><time>2016-12-28T21:44:47Z</time></trkpt>
   <trkpt lat="30.929982" lon="34.724247"><ele>367.3</ele><name>TP06040</name><time>2016-12-28T21:44:48Z</time></trkpt>
   <trkpt lat="30.929954" lon="34.724268"><ele>367.4</ele><name>TP06041</name><time>2016-12-28T21:44:49Z</time></trkpt>
   <trkpt lat="30.929927" lon="34.724293"><ele>367.5</ele><name>TP06042</name><time>2016-12-28T21:44:50Z</time></trkpt>
   <trkpt lat="30.929885" lon="34.724325"><ele>367.6</ele><name>TP06043</name><time>2016-12-28T21:44:52Z</time></trkpt>
   <trkpt lat="30.929863" lon="34.724353"><ele>367.7</ele><name>TP06044</name><time>2016-12-28T21:44:53Z</time></trkpt>
   <trkpt lat="30.929845" lon="34.724386"><ele>367.7</ele><name>TP06045</name><time>2016-12-28T21:44:54Z</time></trkpt>
   <trkpt lat="30.929831" lon="34.724418"><ele>367.7</ele><name>TP06046</name><time>2016-12-28T21:44:55Z</time></trkpt>
   <trkpt lat="30.92982" lon="34.724451"><ele>367.7</ele><name>TP06047</name><time>2016-12-28T21:44:56Z</time></trkpt>
   <trkpt lat="30.929807" lon="34.724482"><ele>367.7</ele><name>TP06048</name><time>2016-12-28T21:44:57Z</time></trkpt>
   <trkpt lat="30.929793" lon="34.72452"><ele>367.6</ele><name>TP06049</name><time>2016-12-28T21:44:58Z</time></trkpt>
   <trkpt lat="30.929778" lon="34.724554"><ele>367.6</ele><name>TP06050</name><time>2016-12-28T21:44:59Z</time></trkpt>
   <trkpt lat="30.929765" lon="34.724589"><ele>367.6</ele><name>TP06051</name><time>2016-12-28T21:45:00Z</time></trkpt>
   <trkpt lat="30.929753" lon="34.724626"><ele>367.5</ele><name>TP06052</name><time>2016-12-28T21:45:01Z</time></trkpt>
   <trkpt lat="30.92974" lon="34.724658"><ele>367.5</ele><name>TP06053</name><time>2016-12-28T21:45:02Z</time></trkpt>
   <trkpt lat="30.929726" lon="34.724693"><ele>367.5</ele><name>TP06054</name><time>2016-12-28T21:45:03Z</time></trkpt>
   <trkpt lat="30.929711" lon="34.724727"><ele>367.5</ele><name>TP06055</name><time>2016-12-28T21:45:04Z</time></trkpt>
   <trkpt lat="30.929696" lon="34.724759"><ele>367.4</ele><name>TP06056</name><time>2016-12-28T21:45:05Z</time></trkpt>
   <trkpt lat="30.929682" lon="34.724791"><ele>367.4</ele><name>TP06057</name><time>2016-12-28T21:45:06Z</time></trkpt>
   <trkpt lat="30.929669" lon="34.724826"><ele>367.3</ele><name>TP06058</name><time>2016-12-28T21:45:07Z</time></trkpt>
   <trkpt lat="30.92965" lon="34.72485"><ele>367.3</ele><name>TP06059</name><time>2016-12-28T21:45:08Z</time></trkpt>
   <trkpt lat="30.929631" lon="34.724876"><ele>367.3</ele><name>TP06060</name><time>2016-12-28T21:45:09Z</time></trkpt>
   <trkpt lat="30.929611" lon="34.7249"><ele>367.2</ele><name>TP06061</name><time>2016-12-28T21:45:10Z</time></trkpt>
   <trkpt lat="30.929593" lon="34.724929"><ele>367.2</ele><name>TP06062</name><time>2016-12-28T21:45:11Z</time></trkpt>
   <trkpt lat="30.929566" lon="34.72499"><ele>367.2</ele><name>TP06063</name><time>2016-12-28T21:45:13Z</time></trkpt>
   <trkpt lat="30.929556" lon="34.72503"><ele>367.2</ele><name>TP06064</name><time>2016-12-28T21:45:14Z</time></trkpt>
   <trkpt lat="30.929547" lon="34.725067"><ele>367.1</ele><name>TP06065</name><time>2016-12-28T21:45:15Z</time></trkpt>
   <trkpt lat="30.929535" lon="34.725096"><ele>367.1</ele><name>TP06066</name><time>2016-12-28T21:45:16Z</time></trkpt>
   <trkpt lat="30.929521" lon="34.725128"><ele>367.2</ele><name>TP06067</name><time>2016-12-28T21:45:17Z</time></trkpt>
   <trkpt lat="30.929504" lon="34.725159"><ele>367.2</ele><name>TP06068</name><time>2016-12-28T21:45:18Z</time></trkpt>
   <trkpt lat="30.929486" lon="34.725189"><ele>367.3</ele><name>TP06069</name><time>2016-12-28T21:45:19Z</time></trkpt>
   <trkpt lat="30.929466" lon="34.725217"><ele>367.3</ele><name>TP06070</name><time>2016-12-28T21:45:20Z</time></trkpt>
   <trkpt lat="30.929442" lon="34.725243"><ele>367.4</ele><name>TP06071</name><time>2016-12-28T21:45:21Z</time></trkpt>
   <trkpt lat="30.929422" lon="34.725269"><ele>367.5</ele><name>TP06072</name><time>2016-12-28T21:45:22Z</time></trkpt>
   <trkpt lat="30.929402" lon="34.725293"><ele>367.5</ele><name>TP06073</name><time>2016-12-28T21:45:23Z</time></trkpt>
   <trkpt lat="30.929354" lon="34.725309"><ele>367.8</ele><name>TP06074</name><time>2016-12-28T21:45:25Z</time></trkpt>
   <trkpt lat="30.929316" lon="34.725334"><ele>367.9</ele><name>TP06075</name><time>2016-12-28T21:45:27Z</time></trkpt>
   <trkpt lat="30.929298" lon="34.72536"><ele>367.9</ele><name>TP06076</name><time>2016-12-28T21:45:28Z</time></trkpt>
   <trkpt lat="30.929279" lon="34.725382"><ele>368</ele><name>TP06077</name><time>2016-12-28T21:45:29Z</time></trkpt>
   <trkpt lat="30.929235" lon="34.725413"><ele>368.1</ele><name>TP06078</name><time>2016-12-28T21:45:31Z</time></trkpt>
   <trkpt lat="30.929193" lon="34.725396"><ele>368.4</ele><name>TP06079</name><time>2016-12-28T21:45:33Z</time></trkpt>
   <trkpt lat="30.929152" lon="34.725405"><ele>368.6</ele><name>TP06080</name><time>2016-12-28T21:45:35Z</time></trkpt>
   <trkpt lat="30.92911" lon="34.725421"><ele>368.8</ele><name>TP06081</name><time>2016-12-28T21:45:37Z</time></trkpt>
   <trkpt lat="30.929072" lon="34.725458"><ele>369.1</ele><name>TP06082</name><time>2016-12-28T21:45:39Z</time></trkpt>
   <trkpt lat="30.929038" lon="34.725498"><ele>369.4</ele><name>TP06083</name><time>2016-12-28T21:45:41Z</time></trkpt>
   <trkpt lat="30.929015" lon="34.725525"><ele>369.5</ele><name>TP06084</name><time>2016-12-28T21:45:43Z</time></trkpt>
   <trkpt lat="30.928981" lon="34.725564"><ele>369.8</ele><name>TP06085</name><time>2016-12-28T21:45:46Z</time></trkpt>
   <trkpt lat="30.928966" lon="34.725595"><ele>369.9</ele><name>TP06086</name><time>2016-12-28T21:45:47Z</time></trkpt>
   <trkpt lat="30.928953" lon="34.725627"><ele>370</ele><name>TP06087</name><time>2016-12-28T21:45:48Z</time></trkpt>
   <trkpt lat="30.928937" lon="34.72566"><ele>370.1</ele><name>TP06088</name><time>2016-12-28T21:45:50Z</time></trkpt>
   <trkpt lat="30.92892" lon="34.725692"><ele>370.2</ele><name>TP06089</name><time>2016-12-28T21:45:51Z</time></trkpt>
   <trkpt lat="30.928905" lon="34.725722"><ele>370.3</ele><name>TP06090</name><time>2016-12-28T21:45:52Z</time></trkpt>
   <trkpt lat="30.928891" lon="34.72575"><ele>370.4</ele><name>TP06091</name><time>2016-12-28T21:45:53Z</time></trkpt>
   <trkpt lat="30.928872" lon="34.7258"><ele>370.5</ele><name>TP06092</name><time>2016-12-28T21:45:55Z</time></trkpt>
   <trkpt lat="30.928855" lon="34.725842"><ele>370.6</ele><name>TP06093</name><time>2016-12-28T21:45:57Z</time></trkpt>
   <trkpt lat="30.928821" lon="34.725877"><ele>370.7</ele><name>TP06094</name><time>2016-12-28T21:45:59Z</time></trkpt>
   <trkpt lat="30.928775" lon="34.725885"><ele>370.9</ele><name>TP06095</name><time>2016-12-28T21:46:01Z</time></trkpt>
   <trkpt lat="30.928728" lon="34.725867"><ele>371.4</ele><name>TP06096</name><time>2016-12-28T21:46:03Z</time></trkpt>
   <trkpt lat="30.928687" lon="34.725835"><ele>372.2</ele><name>TP06097</name><time>2016-12-28T21:46:05Z</time></trkpt>
   <trkpt lat="30.928656" lon="34.725796"><ele>372.8</ele><name>TP06098</name><time>2016-12-28T21:46:07Z</time></trkpt>
   <trkpt lat="30.928634" lon="34.72575"><ele>373.2</ele><name>TP06099</name><time>2016-12-28T21:46:09Z</time></trkpt>
   <trkpt lat="30.928635" lon="34.7257"><ele>373.2</ele><name>TP06100</name><time>2016-12-28T21:46:11Z</time></trkpt>
   <trkpt lat="30.928643" lon="34.725623"><ele>373.2</ele><name>TP06101</name><time>2016-12-28T21:46:14Z</time></trkpt>
   <trkpt lat="30.928644" lon="34.725587"><ele>373.2</ele><name>TP06102</name><time>2016-12-28T21:46:16Z</time></trkpt>
   <trkpt lat="30.928647" lon="34.725554"><ele>373.1</ele><name>TP06103</name><time>2016-12-28T21:46:17Z</time></trkpt>
   <trkpt lat="30.928652" lon="34.725522"><ele>373</ele><name>TP06104</name><time>2016-12-28T21:46:18Z</time></trkpt>
   <trkpt lat="30.928673" lon="34.725468"><ele>372.6</ele><name>TP06105</name><time>2016-12-28T21:46:20Z</time></trkpt>
   <trkpt lat="30.92869" lon="34.725422"><ele>372.3</ele><name>TP06106</name><time>2016-12-28T21:46:22Z</time></trkpt>
   <trkpt lat="30.928696" lon="34.725357"><ele>372.6</ele><name>TP06107</name><time>2016-12-28T21:46:24Z</time></trkpt>
   <trkpt lat="30.9287" lon="34.7253"><ele>372.9</ele><name>TP06108</name><time>2016-12-28T21:46:26Z</time></trkpt>
   <trkpt lat="30.928697" lon="34.725241"><ele>373.4</ele><name>TP06109</name><time>2016-12-28T21:46:28Z</time></trkpt>
   <trkpt lat="30.928689" lon="34.725179"><ele>374</ele><name>TP06110</name><time>2016-12-28T21:46:30Z</time></trkpt>
   <trkpt lat="30.928689" lon="34.725117"><ele>374.4</ele><name>TP06111</name><time>2016-12-28T21:46:32Z</time></trkpt>
   <trkpt lat="30.92869" lon="34.725084"><ele>374.6</ele><name>TP06112</name><time>2016-12-28T21:46:33Z</time></trkpt>
   <trkpt lat="30.928694" lon="34.725024"><ele>374.9</ele><name>TP06113</name><time>2016-12-28T21:46:35Z</time></trkpt>
   <trkpt lat="30.928695" lon="34.724963"><ele>375.3</ele><name>TP06114</name><time>2016-12-28T21:46:37Z</time></trkpt>
   <trkpt lat="30.928697" lon="34.724931"><ele>375.5</ele><name>TP06115</name><time>2016-12-28T21:46:38Z</time></trkpt>
   <trkpt lat="30.928698" lon="34.724898"><ele>375.7</ele><name>TP06116</name><time>2016-12-28T21:46:39Z</time></trkpt>
   <trkpt lat="30.928701" lon="34.724866"><ele>375.9</ele><name>TP06117</name><time>2016-12-28T21:46:40Z</time></trkpt>
   <trkpt lat="30.92871" lon="34.724808"><ele>376.1</ele><name>TP06118</name><time>2016-12-28T21:46:42Z</time></trkpt>
   <trkpt lat="30.928706" lon="34.724771"><ele>376.5</ele><name>TP06119</name><time>2016-12-28T21:46:43Z</time></trkpt>
   <trkpt lat="30.928711" lon="34.724736"><ele>376.6</ele><name>TP06120</name><time>2016-12-28T21:46:44Z</time></trkpt>
   <trkpt lat="30.928728" lon="34.724703"><ele>376.5</ele><name>TP06121</name><time>2016-12-28T21:46:45Z</time></trkpt>
   <trkpt lat="30.928746" lon="34.72467"><ele>376.4</ele><name>TP06122</name><time>2016-12-28T21:46:46Z</time></trkpt>
   <trkpt lat="30.928758" lon="34.724633"><ele>376.6</ele><name>TP06123</name><time>2016-12-28T21:46:47Z</time></trkpt>
   <trkpt lat="30.928768" lon="34.724597"><ele>376.7</ele><name>TP06124</name><time>2016-12-28T21:46:48Z</time></trkpt>
   <trkpt lat="30.928777" lon="34.724561"><ele>376.8</ele><name>TP06125</name><time>2016-12-28T21:46:49Z</time></trkpt>
   <trkpt lat="30.928786" lon="34.724526"><ele>376.8</ele><name>TP06126</name><time>2016-12-28T21:46:50Z</time></trkpt>
   <trkpt lat="30.9288" lon="34.724499"><ele>376.8</ele><name>TP06127</name><time>2016-12-28T21:46:51Z</time></trkpt>
   <trkpt lat="30.928813" lon="34.724467"><ele>376.7</ele><name>TP06128</name><time>2016-12-28T21:46:52Z</time></trkpt>
   <trkpt lat="30.928821" lon="34.724433"><ele>376.8</ele><name>TP06129</name><time>2016-12-28T21:46:53Z</time></trkpt>
   <trkpt lat="30.928847" lon="34.724404"><ele>376.6</ele><name>TP06130</name><time>2016-12-28T21:46:55Z</time></trkpt>
   <trkpt lat="30.928858" lon="34.724361"><ele>376.6</ele><name>TP06131</name><time>2016-12-28T21:46:56Z</time></trkpt>
   <trkpt lat="30.92887" lon="34.724319"><ele>376.7</ele><name>TP06132</name><time>2016-12-28T21:46:57Z</time></trkpt>
   <trkpt lat="30.928881" lon="34.724276"><ele>376.7</ele><name>TP06133</name><time>2016-12-28T21:46:58Z</time></trkpt>
   <trkpt lat="30.928887" lon="34.724236"><ele>376.8</ele><name>TP06134</name><time>2016-12-28T21:46:59Z</time></trkpt>
   <trkpt lat="30.928894" lon="34.724201"><ele>376.8</ele><name>TP06135</name><time>2016-12-28T21:47:00Z</time></trkpt>
   <trkpt lat="30.928905" lon="34.724168"><ele>376.8</ele><name>TP06136</name><time>2016-12-28T21:47:01Z</time></trkpt>
   <trkpt lat="30.928922" lon="34.724116"><ele>376.8</ele><name>TP06137</name><time>2016-12-28T21:47:03Z</time></trkpt>
   <trkpt lat="30.928941" lon="34.724059"><ele>376.8</ele><name>TP06138</name><time>2016-12-28T21:47:05Z</time></trkpt>
   <trkpt lat="30.928956" lon="34.724004"><ele>376.9</ele><name>TP06139</name><time>2016-12-28T21:47:07Z</time></trkpt>
   <trkpt lat="30.928984" lon="34.723958"><ele>376.7</ele><name>TP06140</name><time>2016-12-28T21:47:09Z</time></trkpt>
   <trkpt lat="30.929004" lon="34.723917"><ele>376.7</ele><name>TP06141</name><time>2016-12-28T21:47:11Z</time></trkpt>
   <trkpt lat="30.929024" lon="34.723875"><ele>376.6</ele><name>TP06142</name><time>2016-12-28T21:47:13Z</time></trkpt>
   <trkpt lat="30.929056" lon="34.72384"><ele>376.4</ele><name>TP06143</name><time>2016-12-28T21:47:15Z</time></trkpt>
   <trkpt lat="30.929096" lon="34.723814"><ele>376</ele><name>TP06144</name><time>2016-12-28T21:47:17Z</time></trkpt>
   <trkpt lat="30.929143" lon="34.723791"><ele>375.6</ele><name>TP06145</name><time>2016-12-28T21:47:19Z</time></trkpt>
   <trkpt lat="30.929189" lon="34.72376"><ele>375.2</ele><name>TP06146</name><time>2016-12-28T21:47:21Z</time></trkpt>
   <trkpt lat="30.929231" lon="34.723735"><ele>374.7</ele><name>TP06147</name><time>2016-12-28T21:47:23Z</time></trkpt>
   <trkpt lat="30.929275" lon="34.723711"><ele>374.1</ele><name>TP06148</name><time>2016-12-28T21:47:25Z</time></trkpt>
   <trkpt lat="30.929314" lon="34.723689"><ele>373.5</ele><name>TP06149</name><time>2016-12-28T21:47:27Z</time></trkpt>
   <trkpt lat="30.929359" lon="34.723679"><ele>373</ele><name>TP06150</name><time>2016-12-28T21:47:29Z</time></trkpt>
   <trkpt lat="30.929406" lon="34.723664"><ele>372.4</ele><name>TP06151</name><time>2016-12-28T21:47:31Z</time></trkpt>
   <trkpt lat="30.929454" lon="34.723652"><ele>371.9</ele><name>TP06152</name><time>2016-12-28T21:47:33Z</time></trkpt>
   <trkpt lat="30.929493" lon="34.72364"><ele>371.4</ele><name>TP06153</name><time>2016-12-28T21:47:35Z</time></trkpt>
   <trkpt lat="30.929547" lon="34.723622"><ele>370.8</ele><name>TP06154</name><time>2016-12-28T21:47:37Z</time></trkpt>
   <trkpt lat="30.929571" lon="34.723605"><ele>370.4</ele><name>TP06155</name><time>2016-12-28T21:47:38Z</time></trkpt>
   <trkpt lat="30.929601" lon="34.723583"><ele>370.1</ele><name>TP06156</name><time>2016-12-28T21:47:40Z</time></trkpt>
   <trkpt lat="30.929629" lon="34.723541"><ele>369.7</ele><name>TP06157</name><time>2016-12-28T21:47:42Z</time></trkpt>
   <trkpt lat="30.929646" lon="34.723507"><ele>369.4</ele><name>TP06158</name><time>2016-12-28T21:47:43Z</time></trkpt>
   <trkpt lat="30.929659" lon="34.723475"><ele>369.1</ele><name>TP06159</name><time>2016-12-28T21:47:44Z</time></trkpt>
   <trkpt lat="30.929664" lon="34.723435"><ele>368.9</ele><name>TP06160</name><time>2016-12-28T21:47:46Z</time></trkpt>
   <trkpt lat="30.92965" lon="34.72339"><ele>368.8</ele><name>TP06161</name><time>2016-12-28T21:47:48Z</time></trkpt>
   <trkpt lat="30.929608" lon="34.723358"><ele>369</ele><name>TP06162</name><time>2016-12-28T21:47:50Z</time></trkpt>
   <trkpt lat="30.929559" lon="34.723341"><ele>369.2</ele><name>TP06163</name><time>2016-12-28T21:47:52Z</time></trkpt>
   <trkpt lat="30.929511" lon="34.723347"><ele>369.7</ele><name>TP06164</name><time>2016-12-28T21:47:54Z</time></trkpt>
   <trkpt lat="30.929471" lon="34.723358"><ele>370.1</ele><name>TP06165</name><time>2016-12-28T21:47:56Z</time></trkpt>
   <trkpt lat="30.929443" lon="34.723372"><ele>370.4</ele><name>TP06166</name><time>2016-12-28T21:47:58Z</time></trkpt>
   <trkpt lat="30.929416" lon="34.723389"><ele>370.7</ele><name>TP06167</name><time>2016-12-28T21:47:59Z</time></trkpt>
   <trkpt lat="30.929377" lon="34.723417"><ele>371.2</ele><name>TP06168</name><time>2016-12-28T21:48:01Z</time></trkpt>
   <trkpt lat="30.929352" lon="34.72344"><ele>371.6</ele><name>TP06169</name><time>2016-12-28T21:48:02Z</time></trkpt>
   <trkpt lat="30.92933" lon="34.723461"><ele>371.9</ele><name>TP06170</name><time>2016-12-28T21:48:03Z</time></trkpt>
   <trkpt lat="30.929308" lon="34.72348"><ele>372.2</ele><name>TP06171</name><time>2016-12-28T21:48:04Z</time></trkpt>
   <trkpt lat="30.929263" lon="34.723511"><ele>372.9</ele><name>TP06172</name><time>2016-12-28T21:48:06Z</time></trkpt>
   <trkpt lat="30.929218" lon="34.723534"><ele>373.5</ele><name>TP06173</name><time>2016-12-28T21:48:08Z</time></trkpt>
   <trkpt lat="30.929175" lon="34.723556"><ele>374</ele><name>TP06174</name><time>2016-12-28T21:48:10Z</time></trkpt>
   <trkpt lat="30.929147" lon="34.723555"><ele>374.3</ele><name>TP06175</name><time>2016-12-28T21:48:12Z</time></trkpt>
   <trkpt lat="30.929097" lon="34.723547"><ele>374.7</ele><name>TP06176</name><time>2016-12-28T21:48:14Z</time></trkpt>
   <trkpt lat="30.929035" lon="34.723564"><ele>375.4</ele><name>TP06177</name><time>2016-12-28T21:48:16Z</time></trkpt>
   <trkpt lat="30.929009" lon="34.723575"><ele>375.8</ele><name>TP06178</name><time>2016-12-28T21:48:17Z</time></trkpt>
   <trkpt lat="30.92898" lon="34.723587"><ele>376.2</ele><name>TP06179</name><time>2016-12-28T21:48:18Z</time></trkpt>
   <trkpt lat="30.928952" lon="34.723594"><ele>376.5</ele><name>TP06180</name><time>2016-12-28T21:48:19Z</time></trkpt>
   <trkpt lat="30.928925" lon="34.723596"><ele>376.8</ele><name>TP06181</name><time>2016-12-28T21:48:20Z</time></trkpt>
   <trkpt lat="30.928881" lon="34.72361"><ele>377.3</ele><name>TP06182</name><time>2016-12-28T21:48:22Z</time></trkpt>
   <trkpt lat="30.928845" lon="34.723649"><ele>378.1</ele><name>TP06183</name><time>2016-12-28T21:48:24Z</time></trkpt>
   <trkpt lat="30.928809" lon="34.723687"><ele>378.8</ele><name>TP06184</name><time>2016-12-28T21:48:26Z</time></trkpt>
   <trkpt lat="30.928775" lon="34.723731"><ele>379.6</ele><name>TP06185</name><time>2016-12-28T21:48:28Z</time></trkpt>
   <trkpt lat="30.928739" lon="34.723761"><ele>380</ele><name>TP06186</name><time>2016-12-28T21:48:30Z</time></trkpt>
   <trkpt lat="30.928702" lon="34.723762"><ele>380.1</ele><name>TP06187</name><time>2016-12-28T21:48:33Z</time></trkpt>
   <trkpt lat="30.928679" lon="34.723794"><ele>380.1</ele><name>TP06188</name><time>2016-12-28T21:48:34Z</time></trkpt>
   <trkpt lat="30.928656" lon="34.723826"><ele>380.1</ele><name>TP06189</name><time>2016-12-28T21:48:35Z</time></trkpt>
   <trkpt lat="30.928636" lon="34.723854"><ele>380.1</ele><name>TP06190</name><time>2016-12-28T21:48:36Z</time></trkpt>
   <trkpt lat="30.928602" lon="34.723898"><ele>380.2</ele><name>TP06191</name><time>2016-12-28T21:48:38Z</time></trkpt>
   <trkpt lat="30.928567" lon="34.723941"><ele>380.4</ele><name>TP06192</name><time>2016-12-28T21:48:40Z</time></trkpt>
   <trkpt lat="30.928535" lon="34.723976"><ele>380.6</ele><name>TP06193</name><time>2016-12-28T21:48:42Z</time></trkpt>
   <trkpt lat="30.928501" lon="34.724009"><ele>380.9</ele><name>TP06194</name><time>2016-12-28T21:48:44Z</time></trkpt>
   <trkpt lat="30.928477" lon="34.724046"><ele>381.1</ele><name>TP06195</name><time>2016-12-28T21:48:46Z</time></trkpt>
   <trkpt lat="30.928459" lon="34.724074"><ele>381.3</ele><name>TP06196</name><time>2016-12-28T21:48:48Z</time></trkpt>
   <trkpt lat="30.92844" lon="34.724128"><ele>381.6</ele><name>TP06197</name><time>2016-12-28T21:48:50Z</time></trkpt>
   <trkpt lat="30.928423" lon="34.724154"><ele>381.8</ele><name>TP06198</name><time>2016-12-28T21:48:52Z</time></trkpt>
   <trkpt lat="30.928395" lon="34.724187"><ele>382.2</ele><name>TP06199</name><time>2016-12-28T21:48:54Z</time></trkpt>
   <trkpt lat="30.928371" lon="34.724227"><ele>382.6</ele><name>TP06200</name><time>2016-12-28T21:48:56Z</time></trkpt>
   <trkpt lat="30.928344" lon="34.72427"><ele>383.1</ele><name>TP06201</name><time>2016-12-28T21:48:58Z</time></trkpt>
   <trkpt lat="30.928317" lon="34.724312"><ele>383.6</ele><name>TP06202</name><time>2016-12-28T21:49:00Z</time></trkpt>
   <trkpt lat="30.92829" lon="34.72435"><ele>384.1</ele><name>TP06203</name><time>2016-12-28T21:49:02Z</time></trkpt>
   <trkpt lat="30.928263" lon="34.724381"><ele>384.6</ele><name>TP06204</name><time>2016-12-28T21:49:04Z</time></trkpt>
   <trkpt lat="30.928239" lon="34.72441"><ele>385.2</ele><name>TP06205</name><time>2016-12-28T21:49:06Z</time></trkpt>
   <trkpt lat="30.92822" lon="34.724448"><ele>385.7</ele><name>TP06206</name><time>2016-12-28T21:49:08Z</time></trkpt>
   <trkpt lat="30.928203" lon="34.724496"><ele>386.3</ele><name>TP06207</name><time>2016-12-28T21:49:10Z</time></trkpt>
   <trkpt lat="30.928184" lon="34.724541"><ele>386.9</ele><name>TP06208</name><time>2016-12-28T21:49:12Z</time></trkpt>
   <trkpt lat="30.928167" lon="34.724581"><ele>387.5</ele><name>TP06209</name><time>2016-12-28T21:49:14Z</time></trkpt>
   <trkpt lat="30.92815" lon="34.724617"><ele>387.6</ele><name>TP06210</name><time>2016-12-28T21:49:16Z</time></trkpt>
   <trkpt lat="30.928134" lon="34.724656"><ele>387.8</ele><name>TP06211</name><time>2016-12-28T21:49:18Z</time></trkpt>
   <trkpt lat="30.928122" lon="34.724696"><ele>387.8</ele><name>TP06212</name><time>2016-12-28T21:49:20Z</time></trkpt>
   <trkpt lat="30.928111" lon="34.724747"><ele>387.8</ele><name>TP06213</name><time>2016-12-28T21:49:22Z</time></trkpt>
   <trkpt lat="30.928091" lon="34.724799"><ele>387.9</ele><name>TP06214</name><time>2016-12-28T21:49:24Z</time></trkpt>
   <trkpt lat="30.928071" lon="34.724839"><ele>388.1</ele><name>TP06215</name><time>2016-12-28T21:49:26Z</time></trkpt>
   <trkpt lat="30.928054" lon="34.724886"><ele>388.3</ele><name>TP06216</name><time>2016-12-28T21:49:28Z</time></trkpt>
   <trkpt lat="30.928042" lon="34.724945"><ele>388.2</ele><name>TP06217</name><time>2016-12-28T21:49:30Z</time></trkpt>
   <trkpt lat="30.928031" lon="34.725008"><ele>388.2</ele><name>TP06218</name><time>2016-12-28T21:49:32Z</time></trkpt>
   <trkpt lat="30.928025" lon="34.725041"><ele>388.2</ele><name>TP06219</name><time>2016-12-28T21:49:33Z</time></trkpt>
   <trkpt lat="30.928017" lon="34.725075"><ele>388.2</ele><name>TP06220</name><time>2016-12-28T21:49:34Z</time></trkpt>
   <trkpt lat="30.928006" lon="34.725107"><ele>388.3</ele><name>TP06221</name><time>2016-12-28T21:49:35Z</time></trkpt>
   <trkpt lat="30.927995" lon="34.725137"><ele>388.4</ele><name>TP06222</name><time>2016-12-28T21:49:36Z</time></trkpt>
   <trkpt lat="30.927973" lon="34.725197"><ele>388.6</ele><name>TP06223</name><time>2016-12-28T21:49:38Z</time></trkpt>
   <trkpt lat="30.927965" lon="34.725227"><ele>388.7</ele><name>TP06224</name><time>2016-12-28T21:49:39Z</time></trkpt>
   <trkpt lat="30.927946" lon="34.725288"><ele>388.8</ele><name>TP06225</name><time>2016-12-28T21:49:41Z</time></trkpt>
   <trkpt lat="30.927937" lon="34.725323"><ele>388.9</ele><name>TP06226</name><time>2016-12-28T21:49:42Z</time></trkpt>
   <trkpt lat="30.927929" lon="34.725357"><ele>389</ele><name>TP06227</name><time>2016-12-28T21:49:43Z</time></trkpt>
   <trkpt lat="30.927923" lon="34.725392"><ele>389</ele><name>TP06228</name><time>2016-12-28T21:49:44Z</time></trkpt>
   <trkpt lat="30.927916" lon="34.725423"><ele>389</ele><name>TP06229</name><time>2016-12-28T21:49:45Z</time></trkpt>
   <trkpt lat="30.927906" lon="34.725462"><ele>388.9</ele><name>TP06230</name><time>2016-12-28T21:49:47Z</time></trkpt>
   <trkpt lat="30.927896" lon="34.725493"><ele>388.9</ele><name>TP06231</name><time>2016-12-28T21:49:49Z</time></trkpt>
   <trkpt lat="30.927878" lon="34.725542"><ele>388.9</ele><name>TP06232</name><time>2016-12-28T21:49:51Z</time></trkpt>
   <trkpt lat="30.927853" lon="34.725603"><ele>389</ele><name>TP06233</name><time>2016-12-28T21:49:53Z</time></trkpt>
   <trkpt lat="30.927838" lon="34.725638"><ele>389.1</ele><name>TP06234</name><time>2016-12-28T21:49:54Z</time></trkpt>
   <trkpt lat="30.927823" lon="34.725673"><ele>389.3</ele><name>TP06235</name><time>2016-12-28T21:49:55Z</time></trkpt>
   <trkpt lat="30.927811" lon="34.725709"><ele>389.3</ele><name>TP06236</name><time>2016-12-28T21:49:56Z</time></trkpt>
   <trkpt lat="30.927801" lon="34.725745"><ele>389.4</ele><name>TP06237</name><time>2016-12-28T21:49:57Z</time></trkpt>
   <trkpt lat="30.927766" lon="34.725845"><ele>389.8</ele><name>TP06238</name><time>2016-12-28T21:49:59Z</time></trkpt>
   <trkpt lat="30.927746" lon="34.725871"><ele>390.2</ele><name>TP06239</name><time>2016-12-28T21:50:00Z</time></trkpt>
   <trkpt lat="30.927724" lon="34.725894"><ele>390.6</ele><name>TP06240</name><time>2016-12-28T21:50:01Z</time></trkpt>
   <trkpt lat="30.9277" lon="34.725912"><ele>391.2</ele><name>TP06241</name><time>2016-12-28T21:50:02Z</time></trkpt>
   <trkpt lat="30.927657" lon="34.725946"><ele>392.1</ele><name>TP06242</name><time>2016-12-28T21:50:04Z</time></trkpt>
   <trkpt lat="30.927615" lon="34.72597"><ele>393.1</ele><name>TP06243</name><time>2016-12-28T21:50:06Z</time></trkpt>
   <trkpt lat="30.927584" lon="34.725993"><ele>393.9</ele><name>TP06244</name><time>2016-12-28T21:50:08Z</time></trkpt>
   <trkpt lat="30.927547" lon="34.726014"><ele>394.9</ele><name>TP06245</name><time>2016-12-28T21:50:10Z</time></trkpt>
   <trkpt lat="30.92751" lon="34.726037"><ele>395.9</ele><name>TP06246</name><time>2016-12-28T21:50:12Z</time></trkpt>
   <trkpt lat="30.927451" lon="34.726065"><ele>397.5</ele><name>TP06247</name><time>2016-12-28T21:50:16Z</time></trkpt>
   <trkpt lat="30.927416" lon="34.726097"><ele>398.5</ele><name>TP06248</name><time>2016-12-28T21:50:18Z</time></trkpt>
   <trkpt lat="30.927395" lon="34.726116"><ele>399.1</ele><name>TP06249</name><time>2016-12-28T21:50:19Z</time></trkpt>
   <trkpt lat="30.927357" lon="34.726154"><ele>400.4</ele><name>TP06250</name><time>2016-12-28T21:50:21Z</time></trkpt>
   <trkpt lat="30.927332" lon="34.72618"><ele>401.2</ele><name>TP06251</name><time>2016-12-28T21:50:22Z</time></trkpt>
   <trkpt lat="30.927308" lon="34.726204"><ele>402</ele><name>TP06252</name><time>2016-12-28T21:50:23Z</time></trkpt>
   <trkpt lat="30.927266" lon="34.726243"><ele>403.5</ele><name>TP06253</name><time>2016-12-28T21:50:25Z</time></trkpt>
   <trkpt lat="30.927245" lon="34.726268"><ele>403.9</ele><name>TP06254</name><time>2016-12-28T21:50:26Z</time></trkpt>
   <trkpt lat="30.927211" lon="34.726313"><ele>404.3</ele><name>TP06255</name><time>2016-12-28T21:50:28Z</time></trkpt>
   <trkpt lat="30.927177" lon="34.726355"><ele>404.6</ele><name>TP06256</name><time>2016-12-28T21:50:30Z</time></trkpt>
   <trkpt lat="30.927143" lon="34.726398"><ele>404.9</ele><name>TP06257</name><time>2016-12-28T21:50:32Z</time></trkpt>
   <trkpt lat="30.927109" lon="34.726436"><ele>405.2</ele><name>TP06258</name><time>2016-12-28T21:50:34Z</time></trkpt>
   <trkpt lat="30.927063" lon="34.726468"><ele>405.7</ele><name>TP06259</name><time>2016-12-28T21:50:36Z</time></trkpt>
   <trkpt lat="30.927016" lon="34.726483"><ele>406.3</ele><name>TP06260</name><time>2016-12-28T21:50:38Z</time></trkpt>
   <trkpt lat="30.92697" lon="34.726486"><ele>407.1</ele><name>TP06261</name><time>2016-12-28T21:50:40Z</time></trkpt>
   <trkpt lat="30.92692" lon="34.726492"><ele>407.9</ele><name>TP06262</name><time>2016-12-28T21:50:42Z</time></trkpt>
   <trkpt lat="30.926891" lon="34.72649"><ele>408.5</ele><name>TP06263</name><time>2016-12-28T21:50:43Z</time></trkpt>
   <trkpt lat="30.926861" lon="34.726493"><ele>409</ele><name>TP06264</name><time>2016-12-28T21:50:44Z</time></trkpt>
   <trkpt lat="30.926831" lon="34.726498"><ele>409.4</ele><name>TP06265</name><time>2016-12-28T21:50:45Z</time></trkpt>
   <trkpt lat="30.926804" lon="34.726506"><ele>409.8</ele><name>TP06266</name><time>2016-12-28T21:50:46Z</time></trkpt>
   <trkpt lat="30.926752" lon="34.726526"><ele>410.5</ele><name>TP06267</name><time>2016-12-28T21:50:48Z</time></trkpt>
   <trkpt lat="30.926725" lon="34.726535"><ele>410.8</ele><name>TP06268</name><time>2016-12-28T21:50:49Z</time></trkpt>
   <trkpt lat="30.926678" lon="34.726554"><ele>411.4</ele><name>TP06269</name><time>2016-12-28T21:50:51Z</time></trkpt>
   <trkpt lat="30.926648" lon="34.726564"><ele>411.8</ele><name>TP06270</name><time>2016-12-28T21:50:52Z</time></trkpt>
   <trkpt lat="30.92662" lon="34.726575"><ele>412.2</ele><name>TP06271</name><time>2016-12-28T21:50:53Z</time></trkpt>
   <trkpt lat="30.926596" lon="34.726589"><ele>412.4</ele><name>TP06272</name><time>2016-12-28T21:50:54Z</time></trkpt>
   <trkpt lat="30.926553" lon="34.726606"><ele>413</ele><name>TP06273</name><time>2016-12-28T21:50:56Z</time></trkpt>
   <trkpt lat="30.926512" lon="34.726611"><ele>413.7</ele><name>TP06274</name><time>2016-12-28T21:50:58Z</time></trkpt>
   <trkpt lat="30.926467" lon="34.726633"><ele>414.3</ele><name>TP06275</name><time>2016-12-28T21:51:00Z</time></trkpt>
   <trkpt lat="30.926424" lon="34.726669"><ele>414.6</ele><name>TP06276</name><time>2016-12-28T21:51:02Z</time></trkpt>
   <trkpt lat="30.926399" lon="34.72669"><ele>414.8</ele><name>TP06277</name><time>2016-12-28T21:51:03Z</time></trkpt>
   <trkpt lat="30.926374" lon="34.726715"><ele>415</ele><name>TP06278</name><time>2016-12-28T21:51:04Z</time></trkpt>
   <trkpt lat="30.926335" lon="34.726746"><ele>415.4</ele><name>TP06279</name><time>2016-12-28T21:51:06Z</time></trkpt>
   <trkpt lat="30.926313" lon="34.726766"><ele>415.6</ele><name>TP06280</name><time>2016-12-28T21:51:07Z</time></trkpt>
   <trkpt lat="30.926287" lon="34.726788"><ele>415.8</ele><name>TP06281</name><time>2016-12-28T21:51:08Z</time></trkpt>
   <trkpt lat="30.926244" lon="34.726832"><ele>416.2</ele><name>TP06282</name><time>2016-12-28T21:51:11Z</time></trkpt>
   <trkpt lat="30.926225" lon="34.726859"><ele>416.3</ele><name>TP06283</name><time>2016-12-28T21:51:12Z</time></trkpt>
   <trkpt lat="30.926207" lon="34.726882"><ele>416.6</ele><name>TP06284</name><time>2016-12-28T21:51:13Z</time></trkpt>
   <trkpt lat="30.926189" lon="34.726908"><ele>416.7</ele><name>TP06285</name><time>2016-12-28T21:51:14Z</time></trkpt>
   <trkpt lat="30.926172" lon="34.726935"><ele>416.9</ele><name>TP06286</name><time>2016-12-28T21:51:15Z</time></trkpt>
   <trkpt lat="30.926155" lon="34.726962"><ele>417.1</ele><name>TP06287</name><time>2016-12-28T21:51:16Z</time></trkpt>
   <trkpt lat="30.926126" lon="34.727011"><ele>417.3</ele><name>TP06288</name><time>2016-12-28T21:51:18Z</time></trkpt>
   <trkpt lat="30.926101" lon="34.727059"><ele>417.5</ele><name>TP06289</name><time>2016-12-28T21:51:20Z</time></trkpt>
   <trkpt lat="30.926077" lon="34.727104"><ele>417.6</ele><name>TP06290</name><time>2016-12-28T21:51:22Z</time></trkpt>
   <trkpt lat="30.926053" lon="34.727149"><ele>417.5</ele><name>TP06291</name><time>2016-12-28T21:51:24Z</time></trkpt>
   <trkpt lat="30.926028" lon="34.72719"><ele>417.6</ele><name>TP06292</name><time>2016-12-28T21:51:26Z</time></trkpt>
   <trkpt lat="30.926013" lon="34.727231"><ele>417.3</ele><name>TP06293</name><time>2016-12-28T21:51:28Z</time></trkpt>
   <trkpt lat="30.925996" lon="34.727265"><ele>417.2</ele><name>TP06294</name><time>2016-12-28T21:51:30Z</time></trkpt>
   <trkpt lat="30.925977" lon="34.727299"><ele>417.2</ele><name>TP06295</name><time>2016-12-28T21:51:32Z</time></trkpt>
   <trkpt lat="30.925962" lon="34.727332"><ele>417.1</ele><name>TP06296</name><time>2016-12-28T21:51:34Z</time></trkpt>
   <trkpt lat="30.925946" lon="34.727368"><ele>417</ele><name>TP06297</name><time>2016-12-28T21:51:36Z</time></trkpt>
   <trkpt lat="30.925927" lon="34.727401"><ele>417.1</ele><name>TP06298</name><time>2016-12-28T21:51:38Z</time></trkpt>
   <trkpt lat="30.925905" lon="34.727434"><ele>417.2</ele><name>TP06299</name><time>2016-12-28T21:51:40Z</time></trkpt>
   <trkpt lat="30.925883" lon="34.727467"><ele>417.4</ele><name>TP06300</name><time>2016-12-28T21:51:42Z</time></trkpt>
   <trkpt lat="30.925862" lon="34.727507"><ele>417.5</ele><name>TP06301</name><time>2016-12-28T21:51:44Z</time></trkpt>
   <trkpt lat="30.925846" lon="34.727546"><ele>417.4</ele><name>TP06302</name><time>2016-12-28T21:51:46Z</time></trkpt>
   <trkpt lat="30.925828" lon="34.727583"><ele>417.4</ele><name>TP06303</name><time>2016-12-28T21:51:48Z</time></trkpt>
   <trkpt lat="30.925805" lon="34.727616"><ele>417.6</ele><name>TP06304</name><time>2016-12-28T21:51:50Z</time></trkpt>
   <trkpt lat="30.925779" lon="34.72765"><ele>418</ele><name>TP06305</name><time>2016-12-28T21:51:52Z</time></trkpt>
   <trkpt lat="30.925747" lon="34.727673"><ele>418.7</ele><name>TP06306</name><time>2016-12-28T21:51:54Z</time></trkpt>
   <trkpt lat="30.925719" lon="34.727692"><ele>419.4</ele><name>TP06307</name><time>2016-12-28T21:51:56Z</time></trkpt>
   <trkpt lat="30.925697" lon="34.727714"><ele>419.8</ele><name>TP06308</name><time>2016-12-28T21:51:58Z</time></trkpt>
   <trkpt lat="30.925675" lon="34.72775"><ele>420.1</ele><name>TP06309</name><time>2016-12-28T21:52:00Z</time></trkpt>
   <trkpt lat="30.925666" lon="34.727793"><ele>419.8</ele><name>TP06310</name><time>2016-12-28T21:52:02Z</time></trkpt>
   <trkpt lat="30.925653" lon="34.727839"><ele>419.6</ele><name>TP06311</name><time>2016-12-28T21:52:04Z</time></trkpt>
   <trkpt lat="30.925657" lon="34.727881"><ele>418.9</ele><name>TP06312</name><time>2016-12-28T21:52:06Z</time></trkpt>
   <trkpt lat="30.925669" lon="34.727927"><ele>417.8</ele><name>TP06313</name><time>2016-12-28T21:52:08Z</time></trkpt>
   <trkpt lat="30.925676" lon="34.727968"><ele>417.3</ele><name>TP06314</name><time>2016-12-28T21:52:10Z</time></trkpt>
   <trkpt lat="30.925662" lon="34.728013"><ele>417.4</ele><name>TP06315</name><time>2016-12-28T21:52:12Z</time></trkpt>
   <trkpt lat="30.92565" lon="34.72805"><ele>417.5</ele><name>TP06316</name><time>2016-12-28T21:52:14Z</time></trkpt>
   <trkpt lat="30.925645" lon="34.728087"><ele>417.3</ele><name>TP06317</name><time>2016-12-28T21:52:16Z</time></trkpt>
   <trkpt lat="30.925644" lon="34.728135"><ele>416.9</ele><name>TP06318</name><time>2016-12-28T21:52:18Z</time></trkpt>
   <trkpt lat="30.925644" lon="34.728173"><ele>416.6</ele><name>TP06319</name><time>2016-12-28T21:52:20Z</time></trkpt>
   <trkpt lat="30.92564" lon="34.728213"><ele>416.3</ele><name>TP06320</name><time>2016-12-28T21:52:22Z</time></trkpt>
   <trkpt lat="30.925629" lon="34.72825"><ele>416.3</ele><name>TP06321</name><time>2016-12-28T21:52:24Z</time></trkpt>
   <trkpt lat="30.925617" lon="34.728299"><ele>416.1</ele><name>TP06322</name><time>2016-12-28T21:52:26Z</time></trkpt>
   <trkpt lat="30.925608" lon="34.728334"><ele>416</ele><name>TP06323</name><time>2016-12-28T21:52:28Z</time></trkpt>
   <trkpt lat="30.925587" lon="34.728366"><ele>416.2</ele><name>TP06324</name><time>2016-12-28T21:52:30Z</time></trkpt>
   <trkpt lat="30.925555" lon="34.728392"><ele>416.6</ele><name>TP06325</name><time>2016-12-28T21:52:32Z</time></trkpt>
   <trkpt lat="30.925514" lon="34.728396"><ele>417.4</ele><name>TP06326</name><time>2016-12-28T21:52:34Z</time></trkpt>
   <trkpt lat="30.925475" lon="34.728399"><ele>418.2</ele><name>TP06327</name><time>2016-12-28T21:52:36Z</time></trkpt>
   <trkpt lat="30.92543" lon="34.728414"><ele>419</ele><name>TP06328</name><time>2016-12-28T21:52:38Z</time></trkpt>
   <trkpt lat="30.925383" lon="34.728427"><ele>419.5</ele><name>TP06329</name><time>2016-12-28T21:52:40Z</time></trkpt>
   <trkpt lat="30.92535" lon="34.728444"><ele>419.7</ele><name>TP06330</name><time>2016-12-28T21:52:42Z</time></trkpt>
   <trkpt lat="30.925322" lon="34.728456"><ele>419.9</ele><name>TP06331</name><time>2016-12-28T21:52:44Z</time></trkpt>
   <trkpt lat="30.925286" lon="34.728474"><ele>420.2</ele><name>TP06332</name><time>2016-12-28T21:52:46Z</time></trkpt>
   <trkpt lat="30.925246" lon="34.728503"><ele>420.4</ele><name>TP06333</name><time>2016-12-28T21:52:48Z</time></trkpt>
   <trkpt lat="30.925226" lon="34.728524"><ele>420.4</ele><name>TP06334</name><time>2016-12-28T21:52:49Z</time></trkpt>
   <trkpt lat="30.925204" lon="34.728544"><ele>420.5</ele><name>TP06335</name><time>2016-12-28T21:52:50Z</time></trkpt>
   <trkpt lat="30.925164" lon="34.728573"><ele>420.7</ele><name>TP06336</name><time>2016-12-28T21:52:52Z</time></trkpt>
   <trkpt lat="30.92513" lon="34.728589"><ele>421.1</ele><name>TP06337</name><time>2016-12-28T21:52:54Z</time></trkpt>
   <trkpt lat="30.925091" lon="34.728616"><ele>421.4</ele><name>TP06338</name><time>2016-12-28T21:52:56Z</time></trkpt>
   <trkpt lat="30.925052" lon="34.72866"><ele>421.5</ele><name>TP06339</name><time>2016-12-28T21:52:58Z</time></trkpt>
   <trkpt lat="30.925023" lon="34.728711"><ele>421.5</ele><name>TP06340</name><time>2016-12-28T21:53:00Z</time></trkpt>
   <trkpt lat="30.925007" lon="34.728738"><ele>421.5</ele><name>TP06341</name><time>2016-12-28T21:53:01Z</time></trkpt>
   <trkpt lat="30.924992" lon="34.728766"><ele>421.6</ele><name>TP06342</name><time>2016-12-28T21:53:02Z</time></trkpt>
   <trkpt lat="30.924984" lon="34.728822"><ele>421.7</ele><name>TP06343</name><time>2016-12-28T21:53:04Z</time></trkpt>
   <trkpt lat="30.924972" lon="34.728875"><ele>421.9</ele><name>TP06344</name><time>2016-12-28T21:53:06Z</time></trkpt>
   <trkpt lat="30.924946" lon="34.728931"><ele>422.3</ele><name>TP06345</name><time>2016-12-28T21:53:08Z</time></trkpt>
   <trkpt lat="30.924935" lon="34.728962"><ele>422.4</ele><name>TP06346</name><time>2016-12-28T21:53:09Z</time></trkpt>
   <trkpt lat="30.924927" lon="34.728992"><ele>422.5</ele><name>TP06347</name><time>2016-12-28T21:53:10Z</time></trkpt>
   <trkpt lat="30.92492" lon="34.729023"><ele>422.6</ele><name>TP06348</name><time>2016-12-28T21:53:11Z</time></trkpt>
   <trkpt lat="30.924913" lon="34.729054"><ele>422.7</ele><name>TP06349</name><time>2016-12-28T21:53:12Z</time></trkpt>
   <trkpt lat="30.924899" lon="34.729118"><ele>422.9</ele><name>TP06350</name><time>2016-12-28T21:53:14Z</time></trkpt>
   <trkpt lat="30.924892" lon="34.729179"><ele>422.9</ele><name>TP06351</name><time>2016-12-28T21:53:16Z</time></trkpt>
   <trkpt lat="30.924898" lon="34.729235"><ele>422.8</ele><name>TP06352</name><time>2016-12-28T21:53:18Z</time></trkpt>
   <trkpt lat="30.924901" lon="34.729294"><ele>422.6</ele><name>TP06353</name><time>2016-12-28T21:53:20Z</time></trkpt>
   <trkpt lat="30.924898" lon="34.729353"><ele>422.6</ele><name>TP06354</name><time>2016-12-28T21:53:22Z</time></trkpt>
   <trkpt lat="30.924886" lon="34.729414"><ele>422.8</ele><name>TP06355</name><time>2016-12-28T21:53:24Z</time></trkpt>
   <trkpt lat="30.924857" lon="34.729464"><ele>423.2</ele><name>TP06356</name><time>2016-12-28T21:53:26Z</time></trkpt>
   <trkpt lat="30.92482" lon="34.729505"><ele>423.8</ele><name>TP06357</name><time>2016-12-28T21:53:28Z</time></trkpt>
   <trkpt lat="30.924795" lon="34.729528"><ele>424.3</ele><name>TP06358</name><time>2016-12-28T21:53:29Z</time></trkpt>
   <trkpt lat="30.924771" lon="34.72955"><ele>424.7</ele><name>TP06359</name><time>2016-12-28T21:53:30Z</time></trkpt>
   <trkpt lat="30.924731" lon="34.729589"><ele>425.4</ele><name>TP06360</name><time>2016-12-28T21:53:32Z</time></trkpt>
   <trkpt lat="30.924693" lon="34.729625"><ele>426.4</ele><name>TP06361</name><time>2016-12-28T21:53:34Z</time></trkpt>
   <trkpt lat="30.924658" lon="34.729664"><ele>427.3</ele><name>TP06362</name><time>2016-12-28T21:53:36Z</time></trkpt>
   <trkpt lat="30.924635" lon="34.729714"><ele>428.1</ele><name>TP06363</name><time>2016-12-28T21:53:38Z</time></trkpt>
   <trkpt lat="30.924629" lon="34.729769"><ele>428.7</ele><name>TP06364</name><time>2016-12-28T21:53:40Z</time></trkpt>
   <trkpt lat="30.924632" lon="34.729817"><ele>429</ele><name>TP06365</name><time>2016-12-28T21:53:42Z</time></trkpt>
   <trkpt lat="30.924628" lon="34.729867"><ele>429.5</ele><name>TP06366</name><time>2016-12-28T21:53:44Z</time></trkpt>
   <trkpt lat="30.924618" lon="34.729922"><ele>430</ele><name>TP06367</name><time>2016-12-28T21:53:46Z</time></trkpt>
   <trkpt lat="30.924598" lon="34.729964"><ele>430.6</ele><name>TP06368</name><time>2016-12-28T21:53:48Z</time></trkpt>
   <trkpt lat="30.92457" lon="34.730017"><ele>431</ele><name>TP06369</name><time>2016-12-28T21:53:50Z</time></trkpt>
   <trkpt lat="30.924554" lon="34.730043"><ele>431.1</ele><name>TP06370</name><time>2016-12-28T21:53:51Z</time></trkpt>
   <trkpt lat="30.924528" lon="34.730094"><ele>431.3</ele><name>TP06371</name><time>2016-12-28T21:53:53Z</time></trkpt>
   <trkpt lat="30.924501" lon="34.730142"><ele>431.5</ele><name>TP06372</name><time>2016-12-28T21:53:55Z</time></trkpt>
   <trkpt lat="30.924479" lon="34.730184"><ele>431.6</ele><name>TP06373</name><time>2016-12-28T21:53:57Z</time></trkpt>
   <trkpt lat="30.924453" lon="34.730233"><ele>431.9</ele><name>TP06374</name><time>2016-12-28T21:53:59Z</time></trkpt>
   <trkpt lat="30.924422" lon="34.730282"><ele>432.1</ele><name>TP06375</name><time>2016-12-28T21:54:01Z</time></trkpt>
   <trkpt lat="30.924396" lon="34.730326"><ele>432.3</ele><name>TP06376</name><time>2016-12-28T21:54:03Z</time></trkpt>
   <trkpt lat="30.924358" lon="34.730357"><ele>432.4</ele><name>TP06377</name><time>2016-12-28T21:54:05Z</time></trkpt>
   <trkpt lat="30.924315" lon="34.730388"><ele>432.5</ele><name>TP06378</name><time>2016-12-28T21:54:07Z</time></trkpt>
   <trkpt lat="30.924293" lon="34.730436"><ele>432.8</ele><name>TP06379</name><time>2016-12-28T21:54:09Z</time></trkpt>
   <trkpt lat="30.92429" lon="34.730492"><ele>433.4</ele><name>TP06380</name><time>2016-12-28T21:54:11Z</time></trkpt>
   <trkpt lat="30.924296" lon="34.730547"><ele>434</ele><name>TP06381</name><time>2016-12-28T21:54:13Z</time></trkpt>
   <trkpt lat="30.924301" lon="34.730594"><ele>434.6</ele><name>TP06382</name><time>2016-12-28T21:54:15Z</time></trkpt>
   <trkpt lat="30.924295" lon="34.730644"><ele>435.1</ele><name>TP06383</name><time>2016-12-28T21:54:17Z</time></trkpt>
   <trkpt lat="30.924285" lon="34.730701"><ele>435.7</ele><name>TP06384</name><time>2016-12-28T21:54:19Z</time></trkpt>
   <trkpt lat="30.924285" lon="34.730761"><ele>436.3</ele><name>TP06385</name><time>2016-12-28T21:54:21Z</time></trkpt>
   <trkpt lat="30.924284" lon="34.730793"><ele>436.7</ele><name>TP06386</name><time>2016-12-28T21:54:22Z</time></trkpt>
   <trkpt lat="30.924278" lon="34.730851"><ele>437.3</ele><name>TP06387</name><time>2016-12-28T21:54:24Z</time></trkpt>
   <trkpt lat="30.924258" lon="34.730906"><ele>437.9</ele><name>TP06388</name><time>2016-12-28T21:54:26Z</time></trkpt>
   <trkpt lat="30.924231" lon="34.730937"><ele>438.3</ele><name>TP06389</name><time>2016-12-28T21:54:28Z</time></trkpt>
   <trkpt lat="30.92419" lon="34.730986"><ele>438.8</ele><name>TP06390</name><time>2016-12-28T21:54:30Z</time></trkpt>
   <trkpt lat="30.924171" lon="34.731012"><ele>439.1</ele><name>TP06391</name><time>2016-12-28T21:54:31Z</time></trkpt>
   <trkpt lat="30.924146" lon="34.731051"><ele>439.6</ele><name>TP06392</name><time>2016-12-28T21:54:33Z</time></trkpt>
   <trkpt lat="30.924118" lon="34.731091"><ele>440.1</ele><name>TP06393</name><time>2016-12-28T21:54:35Z</time></trkpt>
   <trkpt lat="30.924099" lon="34.731119"><ele>440.5</ele><name>TP06394</name><time>2016-12-28T21:54:36Z</time></trkpt>
   <trkpt lat="30.924078" lon="34.731146"><ele>440.9</ele><name>TP06395</name><time>2016-12-28T21:54:37Z</time></trkpt>
   <trkpt lat="30.924058" lon="34.731171"><ele>441.2</ele><name>TP06396</name><time>2016-12-28T21:54:38Z</time></trkpt>
   <trkpt lat="30.924037" lon="34.731196"><ele>441.6</ele><name>TP06397</name><time>2016-12-28T21:54:39Z</time></trkpt>
   <trkpt lat="30.924016" lon="34.73122"><ele>442</ele><name>TP06398</name><time>2016-12-28T21:54:40Z</time></trkpt>
   <trkpt lat="30.923994" lon="34.731242"><ele>442.3</ele><name>TP06399</name><time>2016-12-28T21:54:41Z</time></trkpt>
   <trkpt lat="30.92397" lon="34.731264"><ele>442.6</ele><name>TP06400</name><time>2016-12-28T21:54:42Z</time></trkpt>
   <trkpt lat="30.923947" lon="34.731284"><ele>442.8</ele><name>TP06401</name><time>2016-12-28T21:54:43Z</time></trkpt>
   <trkpt lat="30.923924" lon="34.731302"><ele>443</ele><name>TP06402</name><time>2016-12-28T21:54:44Z</time></trkpt>
   <trkpt lat="30.923881" lon="34.731336"><ele>443.4</ele><name>TP06403</name><time>2016-12-28T21:54:46Z</time></trkpt>
   <trkpt lat="30.923859" lon="34.731355"><ele>443.7</ele><name>TP06404</name><time>2016-12-28T21:54:47Z</time></trkpt>
   <trkpt lat="30.923816" lon="34.731382"><ele>444</ele><name>TP06405</name><time>2016-12-28T21:54:49Z</time></trkpt>
   <trkpt lat="30.923778" lon="34.731394"><ele>444.2</ele><name>TP06406</name><time>2016-12-28T21:54:51Z</time></trkpt>
   <trkpt lat="30.923741" lon="34.731412"><ele>444.3</ele><name>TP06407</name><time>2016-12-28T21:54:53Z</time></trkpt>
   <trkpt lat="30.923707" lon="34.731441"><ele>444.2</ele><name>TP06408</name><time>2016-12-28T21:54:55Z</time></trkpt>
   <trkpt lat="30.923672" lon="34.731474"><ele>444.1</ele><name>TP06409</name><time>2016-12-28T21:54:57Z</time></trkpt>
   <trkpt lat="30.923652" lon="34.731508"><ele>444.2</ele><name>TP06410</name><time>2016-12-28T21:54:59Z</time></trkpt>
   <trkpt lat="30.923632" lon="34.731544"><ele>444.4</ele><name>TP06411</name><time>2016-12-28T21:55:01Z</time></trkpt>
   <trkpt lat="30.92361" lon="34.73159"><ele>444.7</ele><name>TP06412</name><time>2016-12-28T21:55:03Z</time></trkpt>
   <trkpt lat="30.923588" lon="34.731624"><ele>444.9</ele><name>TP06413</name><time>2016-12-28T21:55:05Z</time></trkpt>
   <trkpt lat="30.923565" lon="34.731658"><ele>445.1</ele><name>TP06414</name><time>2016-12-28T21:55:07Z</time></trkpt>
   <trkpt lat="30.923543" lon="34.731699"><ele>445.4</ele><name>TP06415</name><time>2016-12-28T21:55:09Z</time></trkpt>
   <trkpt lat="30.923524" lon="34.731746"><ele>445.8</ele><name>TP06416</name><time>2016-12-28T21:55:11Z</time></trkpt>
   <trkpt lat="30.9235" lon="34.73179"><ele>446.2</ele><name>TP06417</name><time>2016-12-28T21:55:13Z</time></trkpt>
   <trkpt lat="30.923467" lon="34.731815"><ele>446.3</ele><name>TP06418</name><time>2016-12-28T21:55:15Z</time></trkpt>
   <trkpt lat="30.923437" lon="34.731837"><ele>446.4</ele><name>TP06419</name><time>2016-12-28T21:55:17Z</time></trkpt>
   <trkpt lat="30.923397" lon="34.73186"><ele>446.6</ele><name>TP06420</name><time>2016-12-28T21:55:20Z</time></trkpt>
   <trkpt lat="30.923358" lon="34.731876"><ele>446.6</ele><name>TP06421</name><time>2016-12-28T21:55:22Z</time></trkpt>
   <trkpt lat="30.923318" lon="34.731895"><ele>446.7</ele><name>TP06422</name><time>2016-12-28T21:55:24Z</time></trkpt>
   <trkpt lat="30.92328" lon="34.731913"><ele>446.9</ele><name>TP06423</name><time>2016-12-28T21:55:26Z</time></trkpt>
   <trkpt lat="30.923241" lon="34.731929"><ele>447</ele><name>TP06424</name><time>2016-12-28T21:55:28Z</time></trkpt>
   <trkpt lat="30.923203" lon="34.731941"><ele>447</ele><name>TP06425</name><time>2016-12-28T21:55:30Z</time></trkpt>
   <trkpt lat="30.923158" lon="34.731956"><ele>447.1</ele><name>TP06426</name><time>2016-12-28T21:55:32Z</time></trkpt>
   <trkpt lat="30.923113" lon="34.731977"><ele>447.4</ele><name>TP06427</name><time>2016-12-28T21:55:34Z</time></trkpt>
   <trkpt lat="30.92308" lon="34.732007"><ele>447.8</ele><name>TP06428</name><time>2016-12-28T21:55:36Z</time></trkpt>
   <trkpt lat="30.923051" lon="34.732036"><ele>448.3</ele><name>TP06429</name><time>2016-12-28T21:55:38Z</time></trkpt>
   <trkpt lat="30.923021" lon="34.732061"><ele>448.7</ele><name>TP06430</name><time>2016-12-28T21:55:40Z</time></trkpt>
   <trkpt lat="30.922992" lon="34.732087"><ele>449.1</ele><name>TP06431</name><time>2016-12-28T21:55:42Z</time></trkpt>
   <trkpt lat="30.922963" lon="34.732113"><ele>449.3</ele><name>TP06432</name><time>2016-12-28T21:55:44Z</time></trkpt>
   <trkpt lat="30.922934" lon="34.732135"><ele>449.5</ele><name>TP06433</name><time>2016-12-28T21:55:46Z</time></trkpt>
   <trkpt lat="30.922898" lon="34.732162"><ele>449.5</ele><name>TP06434</name><time>2016-12-28T21:55:48Z</time></trkpt>
   <trkpt lat="30.922861" lon="34.73219"><ele>449.5</ele><name>TP06435</name><time>2016-12-28T21:55:50Z</time></trkpt>
   <trkpt lat="30.922833" lon="34.732212"><ele>449.5</ele><name>TP06436</name><time>2016-12-28T21:55:52Z</time></trkpt>
   <trkpt lat="30.922815" lon="34.732246"><ele>449.8</ele><name>TP06437</name><time>2016-12-28T21:55:54Z</time></trkpt>
   <trkpt lat="30.922796" lon="34.73228"><ele>450</ele><name>TP06438</name><time>2016-12-28T21:55:56Z</time></trkpt>
   <trkpt lat="30.922778" lon="34.732323"><ele>450.4</ele><name>TP06439</name><time>2016-12-28T21:55:58Z</time></trkpt>
   <trkpt lat="30.922761" lon="34.732362"><ele>450.7</ele><name>TP06440</name><time>2016-12-28T21:56:00Z</time></trkpt>
   <trkpt lat="30.92274" lon="34.732406"><ele>451.1</ele><name>TP06441</name><time>2016-12-28T21:56:02Z</time></trkpt>
   <trkpt lat="30.922715" lon="34.732431"><ele>451.3</ele><name>TP06442</name><time>2016-12-28T21:56:04Z</time></trkpt>
   <trkpt lat="30.922687" lon="34.732453"><ele>451.5</ele><name>TP06443</name><time>2016-12-28T21:56:06Z</time></trkpt>
   <trkpt lat="30.922657" lon="34.732481"><ele>451.8</ele><name>TP06444</name><time>2016-12-28T21:56:08Z</time></trkpt>
   <trkpt lat="30.922615" lon="34.732508"><ele>452.1</ele><name>TP06445</name><time>2016-12-28T21:56:10Z</time></trkpt>
   <trkpt lat="30.922568" lon="34.732519"><ele>452.1</ele><name>TP06446</name><time>2016-12-28T21:56:12Z</time></trkpt>
   <trkpt lat="30.922522" lon="34.732518"><ele>452.1</ele><name>TP06447</name><time>2016-12-28T21:56:14Z</time></trkpt>
   <trkpt lat="30.922464" lon="34.732525"><ele>452.1</ele><name>TP06448</name><time>2016-12-28T21:56:16Z</time></trkpt>
   <trkpt lat="30.922427" lon="34.732531"><ele>452.1</ele><name>TP06449</name><time>2016-12-28T21:56:17Z</time></trkpt>
   <trkpt lat="30.922389" lon="34.732538"><ele>452.2</ele><name>TP06450</name><time>2016-12-28T21:56:18Z</time></trkpt>
   <trkpt lat="30.92235" lon="34.732547"><ele>452.3</ele><name>TP06451</name><time>2016-12-28T21:56:19Z</time></trkpt>
   <trkpt lat="30.922312" lon="34.732557"><ele>452.4</ele><name>TP06452</name><time>2016-12-28T21:56:20Z</time></trkpt>
   <trkpt lat="30.922247" lon="34.732609"><ele>453.4</ele><name>TP06453</name><time>2016-12-28T21:56:22Z</time></trkpt>
   <trkpt lat="30.922217" lon="34.732638"><ele>453.9</ele><name>TP06454</name><time>2016-12-28T21:56:23Z</time></trkpt>
   <trkpt lat="30.922195" lon="34.732667"><ele>454.5</ele><name>TP06455</name><time>2016-12-28T21:56:24Z</time></trkpt>
   <trkpt lat="30.922185" lon="34.732704"><ele>455.3</ele><name>TP06456</name><time>2016-12-28T21:56:25Z</time></trkpt>
   <trkpt lat="30.922177" lon="34.732741"><ele>456</ele><name>TP06457</name><time>2016-12-28T21:56:26Z</time></trkpt>
   <trkpt lat="30.922167" lon="34.732778"><ele>456.8</ele><name>TP06458</name><time>2016-12-28T21:56:27Z</time></trkpt>
   <trkpt lat="30.922167" lon="34.732835"><ele>457.9</ele><name>TP06459</name><time>2016-12-28T21:56:29Z</time></trkpt>
   <trkpt lat="30.922173" lon="34.732873"><ele>458.7</ele><name>TP06460</name><time>2016-12-28T21:56:31Z</time></trkpt>
   <trkpt lat="30.92219" lon="34.732915"><ele>459.5</ele><name>TP06461</name><time>2016-12-28T21:56:33Z</time></trkpt>
   <trkpt lat="30.922219" lon="34.732964"><ele>459.7</ele><name>TP06462</name><time>2016-12-28T21:56:35Z</time></trkpt>
   <trkpt lat="30.922236" lon="34.732993"><ele>459.8</ele><name>TP06463</name><time>2016-12-28T21:56:36Z</time></trkpt>
   <trkpt lat="30.922264" lon="34.733045"><ele>460.1</ele><name>TP06464</name><time>2016-12-28T21:56:38Z</time></trkpt>
   <trkpt lat="30.922295" lon="34.733096"><ele>460.4</ele><name>TP06465</name><time>2016-12-28T21:56:40Z</time></trkpt>
   <trkpt lat="30.922311" lon="34.733124"><ele>460.6</ele><name>TP06466</name><time>2016-12-28T21:56:41Z</time></trkpt>
   <trkpt lat="30.922326" lon="34.733151"><ele>460.8</ele><name>TP06467</name><time>2016-12-28T21:56:42Z</time></trkpt>
   <trkpt lat="30.922335" lon="34.733182"><ele>461.1</ele><name>TP06468</name><time>2016-12-28T21:56:43Z</time></trkpt>
   <trkpt lat="30.922331" lon="34.733244"><ele>461.6</ele><name>TP06469</name><time>2016-12-28T21:56:45Z</time></trkpt>
   <trkpt lat="30.922321" lon="34.733302"><ele>462.1</ele><name>TP06470</name><time>2016-12-28T21:56:47Z</time></trkpt>
   <trkpt lat="30.922307" lon="34.733361"><ele>462.6</ele><name>TP06471</name><time>2016-12-28T21:56:49Z</time></trkpt>
   <trkpt lat="30.922299" lon="34.733393"><ele>462.9</ele><name>TP06472</name><time>2016-12-28T21:56:50Z</time></trkpt>
   <trkpt lat="30.922288" lon="34.733426"><ele>463.1</ele><name>TP06473</name><time>2016-12-28T21:56:51Z</time></trkpt>
   <trkpt lat="30.922263" lon="34.733482"><ele>463.6</ele><name>TP06474</name><time>2016-12-28T21:56:53Z</time></trkpt>
   <trkpt lat="30.922248" lon="34.733509"><ele>463.7</ele><name>TP06475</name><time>2016-12-28T21:56:54Z</time></trkpt>
   <trkpt lat="30.922231" lon="34.733538"><ele>463.9</ele><name>TP06476</name><time>2016-12-28T21:56:55Z</time></trkpt>
   <trkpt lat="30.922211" lon="34.733566"><ele>464.1</ele><name>TP06477</name><time>2016-12-28T21:56:56Z</time></trkpt>
   <trkpt lat="30.922191" lon="34.733592"><ele>464.3</ele><name>TP06478</name><time>2016-12-28T21:56:57Z</time></trkpt>
   <trkpt lat="30.922166" lon="34.73362"><ele>464.4</ele><name>TP06479</name><time>2016-12-28T21:56:58Z</time></trkpt>
   <trkpt lat="30.922147" lon="34.733644"><ele>464.5</ele><name>TP06480</name><time>2016-12-28T21:56:59Z</time></trkpt>
   <trkpt lat="30.922128" lon="34.733672"><ele>464.7</ele><name>TP06481</name><time>2016-12-28T21:57:00Z</time></trkpt>
   <trkpt lat="30.922107" lon="34.733703"><ele>464.8</ele><name>TP06482</name><time>2016-12-28T21:57:01Z</time></trkpt>
   <trkpt lat="30.922088" lon="34.733733"><ele>464.9</ele><name>TP06483</name><time>2016-12-28T21:57:02Z</time></trkpt>
   <trkpt lat="30.922069" lon="34.733761"><ele>465</ele><name>TP06484</name><time>2016-12-28T21:57:03Z</time></trkpt>
   <trkpt lat="30.922053" lon="34.733788"><ele>465</ele><name>TP06485</name><time>2016-12-28T21:57:04Z</time></trkpt>
   <trkpt lat="30.922024" lon="34.733833"><ele>465</ele><name>TP06486</name><time>2016-12-28T21:57:06Z</time></trkpt>
   <trkpt lat="30.921993" lon="34.733869"><ele>464.9</ele><name>TP06487</name><time>2016-12-28T21:57:08Z</time></trkpt>
   <trkpt lat="30.921966" lon="34.733912"><ele>465</ele><name>TP06488</name><time>2016-12-28T21:57:10Z</time></trkpt>
   <trkpt lat="30.921942" lon="34.733949"><ele>465</ele><name>TP06489</name><time>2016-12-28T21:57:12Z</time></trkpt>
   <trkpt lat="30.921925" lon="34.733992"><ele>465.1</ele><name>TP06490</name><time>2016-12-28T21:57:14Z</time></trkpt>
   <trkpt lat="30.92193" lon="34.734054"><ele>465.4</ele><name>TP06491</name><time>2016-12-28T21:57:16Z</time></trkpt>
   <trkpt lat="30.921937" lon="34.734085"><ele>465.6</ele><name>TP06492</name><time>2016-12-28T21:57:17Z</time></trkpt>
   <trkpt lat="30.921947" lon="34.734141"><ele>465.9</ele><name>TP06493</name><time>2016-12-28T21:57:19Z</time></trkpt>
   <trkpt lat="30.921956" lon="34.734191"><ele>466.1</ele><name>TP06494</name><time>2016-12-28T21:57:21Z</time></trkpt>
   <trkpt lat="30.92198" lon="34.734239"><ele>466.4</ele><name>TP06495</name><time>2016-12-28T21:57:23Z</time></trkpt>
   <trkpt lat="30.92202" lon="34.734278"><ele>466.7</ele><name>TP06496</name><time>2016-12-28T21:57:25Z</time></trkpt>
   <trkpt lat="30.922056" lon="34.734304"><ele>466.9</ele><name>TP06497</name><time>2016-12-28T21:57:27Z</time></trkpt>
   <trkpt lat="30.922085" lon="34.734342"><ele>467.1</ele><name>TP06498</name><time>2016-12-28T21:57:29Z</time></trkpt>
   <trkpt lat="30.922098" lon="34.734396"><ele>467.4</ele><name>TP06499</name><time>2016-12-28T21:57:31Z</time></trkpt>
   <trkpt lat="30.922102" lon="34.734458"><ele>467.7</ele><name>TP06500</name><time>2016-12-28T21:57:33Z</time></trkpt>
   <trkpt lat="30.922093" lon="34.734521"><ele>467.8</ele><name>TP06501</name><time>2016-12-28T21:57:35Z</time></trkpt>
   <trkpt lat="30.922087" lon="34.734582"><ele>468</ele><name>TP06502</name><time>2016-12-28T21:57:37Z</time></trkpt>
   <trkpt lat="30.92209" lon="34.734616"><ele>468.3</ele><name>TP06503</name><time>2016-12-28T21:57:38Z</time></trkpt>
   <trkpt lat="30.922097" lon="34.734652"><ele>468.6</ele><name>TP06504</name><time>2016-12-28T21:57:39Z</time></trkpt>
   <trkpt lat="30.922108" lon="34.734689"><ele>468.9</ele><name>TP06505</name><time>2016-12-28T21:57:40Z</time></trkpt>
   <trkpt lat="30.922124" lon="34.734726"><ele>469.2</ele><name>TP06506</name><time>2016-12-28T21:57:41Z</time></trkpt>
   <trkpt lat="30.922148" lon="34.734766"><ele>469.6</ele><name>TP06507</name><time>2016-12-28T21:57:42Z</time></trkpt>
   <trkpt lat="30.922202" lon="34.734797"><ele>470</ele><name>TP06508</name><time>2016-12-28T21:57:43Z</time></trkpt>
   <trkpt lat="30.922285" lon="34.734833"><ele>470.4</ele><name>TP06509</name><time>2016-12-28T21:57:45Z</time></trkpt>
   <trkpt lat="30.922316" lon="34.734848"><ele>470.5</ele><name>TP06510</name><time>2016-12-28T21:57:46Z</time></trkpt>
   <trkpt lat="30.922344" lon="34.734851"><ele>470.6</ele><name>TP06511</name><time>2016-12-28T21:57:47Z</time></trkpt>
   <trkpt lat="30.922376" lon="34.734848"><ele>470.7</ele><name>TP06512</name><time>2016-12-28T21:57:48Z</time></trkpt>
   <trkpt lat="30.922408" lon="34.734847"><ele>470.8</ele><name>TP06513</name><time>2016-12-28T21:57:49Z</time></trkpt>
   <trkpt lat="30.922439" lon="34.734844"><ele>470.8</ele><name>TP06514</name><time>2016-12-28T21:57:50Z</time></trkpt>
   <trkpt lat="30.922473" lon="34.734839"><ele>470.9</ele><name>TP06515</name><time>2016-12-28T21:57:51Z</time></trkpt>
   <trkpt lat="30.922513" lon="34.734829"><ele>471</ele><name>TP06516</name><time>2016-12-28T21:57:53Z</time></trkpt>
   <trkpt lat="30.922547" lon="34.734806"><ele>471.2</ele><name>TP06517</name><time>2016-12-28T21:57:55Z</time></trkpt>
   <trkpt lat="30.922584" lon="34.734778"><ele>471.3</ele><name>TP06518</name><time>2016-12-28T21:57:57Z</time></trkpt>
   <trkpt lat="30.922633" lon="34.734747"><ele>471.6</ele><name>TP06519</name><time>2016-12-28T21:57:59Z</time></trkpt>
   <trkpt lat="30.922671" lon="34.734725"><ele>471.8</ele><name>TP06520</name><time>2016-12-28T21:58:00Z</time></trkpt>
   <trkpt lat="30.922707" lon="34.734702"><ele>472.1</ele><name>TP06521</name><time>2016-12-28T21:58:01Z</time></trkpt>
   <trkpt lat="30.922744" lon="34.734676"><ele>472.4</ele><name>TP06522</name><time>2016-12-28T21:58:02Z</time></trkpt>
   <trkpt lat="30.922781" lon="34.73465"><ele>472.7</ele><name>TP06523</name><time>2016-12-28T21:58:03Z</time></trkpt>
   <trkpt lat="30.92288" lon="34.73457"><ele>473.6</ele><name>TP06524</name><time>2016-12-28T21:58:05Z</time></trkpt>
   <trkpt lat="30.922935" lon="34.734544"><ele>473.7</ele><name>TP06525</name><time>2016-12-28T21:58:07Z</time></trkpt>
   <trkpt lat="30.922968" lon="34.734536"><ele>473.5</ele><name>TP06526</name><time>2016-12-28T21:58:08Z</time></trkpt>
   <trkpt lat="30.923004" lon="34.734541"><ele>473.4</ele><name>TP06527</name><time>2016-12-28T21:58:09Z</time></trkpt>
   <trkpt lat="30.923042" lon="34.734544"><ele>473.3</ele><name>TP06528</name><time>2016-12-28T21:58:10Z</time></trkpt>
   <trkpt lat="30.923082" lon="34.734549"><ele>473.2</ele><name>TP06529</name><time>2016-12-28T21:58:11Z</time></trkpt>
   <trkpt lat="30.923121" lon="34.734557"><ele>473.1</ele><name>TP06530</name><time>2016-12-28T21:58:13Z</time></trkpt>
   <trkpt lat="30.923161" lon="34.734577"><ele>473.1</ele><name>TP06531</name><time>2016-12-28T21:58:15Z</time></trkpt>
   <trkpt lat="30.923222" lon="34.734636"><ele>472.3</ele><name>TP06532</name><time>2016-12-28T21:58:17Z</time></trkpt>
   <trkpt lat="30.923267" lon="34.734694"><ele>471.3</ele><name>TP06533</name><time>2016-12-28T21:58:18Z</time></trkpt>
   <trkpt lat="30.923302" lon="34.734748"><ele>470.4</ele><name>TP06534</name><time>2016-12-28T21:58:19Z</time></trkpt>
   <trkpt lat="30.923331" lon="34.7348"><ele>469.5</ele><name>TP06535</name><time>2016-12-28T21:58:20Z</time></trkpt>
   <trkpt lat="30.92335" lon="34.734846"><ele>468.7</ele><name>TP06536</name><time>2016-12-28T21:58:21Z</time></trkpt>
   <trkpt lat="30.923354" lon="34.734884"><ele>468.2</ele><name>TP06537</name><time>2016-12-28T21:58:22Z</time></trkpt>
   <trkpt lat="30.923315" lon="34.734921"><ele>468</ele><name>TP06538</name><time>2016-12-28T21:58:23Z</time></trkpt>
   <trkpt lat="30.923256" lon="34.734969"><ele>467.9</ele><name>TP06539</name><time>2016-12-28T21:58:25Z</time></trkpt>
   <trkpt lat="30.923206" lon="34.734999"><ele>468.1</ele><name>TP06540</name><time>2016-12-28T21:58:26Z</time></trkpt>
   <trkpt lat="30.923149" lon="34.735032"><ele>468.3</ele><name>TP06541</name><time>2016-12-28T21:58:27Z</time></trkpt>
   <trkpt lat="30.923098" lon="34.735066"><ele>468.5</ele><name>TP06542</name><time>2016-12-28T21:58:28Z</time></trkpt>
   <trkpt lat="30.923049" lon="34.735099"><ele>468.7</ele><name>TP06543</name><time>2016-12-28T21:58:29Z</time></trkpt>
   <trkpt lat="30.923002" lon="34.735136"><ele>469</ele><name>TP06544</name><time>2016-12-28T21:58:30Z</time></trkpt>
   <trkpt lat="30.922951" lon="34.73517"><ele>469.3</ele><name>TP06545</name><time>2016-12-28T21:58:31Z</time></trkpt>
   <trkpt lat="30.92291" lon="34.735206"><ele>469.5</ele><name>TP06546</name><time>2016-12-28T21:58:32Z</time></trkpt>
   <trkpt lat="30.922862" lon="34.735228"><ele>469.6</ele><name>TP06547</name><time>2016-12-28T21:58:33Z</time></trkpt>
   <trkpt lat="30.922814" lon="34.735248"><ele>469.7</ele><name>TP06548</name><time>2016-12-28T21:58:34Z</time></trkpt>
   <trkpt lat="30.922765" lon="34.735279"><ele>469.7</ele><name>TP06549</name><time>2016-12-28T21:58:35Z</time></trkpt>
   <trkpt lat="30.922716" lon="34.735301"><ele>469.9</ele><name>TP06550</name><time>2016-12-28T21:58:36Z</time></trkpt>
   <trkpt lat="30.922674" lon="34.735313"><ele>470.1</ele><name>TP06551</name><time>2016-12-28T21:58:37Z</time></trkpt>
   <trkpt lat="30.922633" lon="34.735333"><ele>470.2</ele><name>TP06552</name><time>2016-12-28T21:58:38Z</time></trkpt>
   <trkpt lat="30.922585" lon="34.735343"><ele>470.5</ele><name>TP06553</name><time>2016-12-28T21:58:39Z</time></trkpt>
   <trkpt lat="30.922538" lon="34.73534"><ele>470.8</ele><name>TP06554</name><time>2016-12-28T21:58:40Z</time></trkpt>
   <trkpt lat="30.922489" lon="34.735332"><ele>471.1</ele><name>TP06555</name><time>2016-12-28T21:58:41Z</time></trkpt>
   <trkpt lat="30.922441" lon="34.735319"><ele>471.3</ele><name>TP06556</name><time>2016-12-28T21:58:42Z</time></trkpt>
   <trkpt lat="30.922394" lon="34.735311"><ele>471.6</ele><name>TP06557</name><time>2016-12-28T21:58:43Z</time></trkpt>
   <trkpt lat="30.922342" lon="34.735308"><ele>471.8</ele><name>TP06558</name><time>2016-12-28T21:58:44Z</time></trkpt>
   <trkpt lat="30.922287" lon="34.735328"><ele>472.2</ele><name>TP06559</name><time>2016-12-28T21:58:45Z</time></trkpt>
   <trkpt lat="30.922229" lon="34.735361"><ele>472.7</ele><name>TP06560</name><time>2016-12-28T21:58:46Z</time></trkpt>
   <trkpt lat="30.922166" lon="34.735382"><ele>473.2</ele><name>TP06561</name><time>2016-12-28T21:58:47Z</time></trkpt>
   <trkpt lat="30.922136" lon="34.73545"><ele>473.1</ele><name>TP06562</name><time>2016-12-28T21:58:48Z</time></trkpt>
   <trkpt lat="30.922094" lon="34.735503"><ele>472.6</ele><name>TP06563</name><time>2016-12-28T21:58:49Z</time></trkpt>
   <trkpt lat="30.922061" lon="34.735545"><ele>471.9</ele><name>TP06564</name><time>2016-12-28T21:58:50Z</time></trkpt>
   <trkpt lat="30.922031" lon="34.735593"><ele>471</ele><name>TP06565</name><time>2016-12-28T21:58:51Z</time></trkpt>
   <trkpt lat="30.922012" lon="34.735643"><ele>470.2</ele><name>TP06566</name><time>2016-12-28T21:58:52Z</time></trkpt>
   <trkpt lat="30.92199" lon="34.735701"><ele>469.2</ele><name>TP06567</name><time>2016-12-28T21:58:53Z</time></trkpt>
   <trkpt lat="30.92196" lon="34.735746"><ele>468.4</ele><name>TP06568</name><time>2016-12-28T21:58:54Z</time></trkpt>
   <trkpt lat="30.921932" lon="34.735779"><ele>467.8</ele><name>TP06569</name><time>2016-12-28T21:58:55Z</time></trkpt>
   <trkpt lat="30.921899" lon="34.735817"><ele>467.2</ele><name>TP06570</name><time>2016-12-28T21:58:56Z</time></trkpt>
   <trkpt lat="30.921874" lon="34.735856"><ele>466.6</ele><name>TP06571</name><time>2016-12-28T21:58:57Z</time></trkpt>
   <trkpt lat="30.921852" lon="34.735902"><ele>465.8</ele><name>TP06572</name><time>2016-12-28T21:58:58Z</time></trkpt>
   <trkpt lat="30.921815" lon="34.735961"><ele>465</ele><name>TP06573</name><time>2016-12-28T21:58:59Z</time></trkpt>
   <trkpt lat="30.921783" lon="34.736026"><ele>464</ele><name>TP06574</name><time>2016-12-28T21:59:00Z</time></trkpt>
   <trkpt lat="30.921759" lon="34.736107"><ele>462.9</ele><name>TP06575</name><time>2016-12-28T21:59:01Z</time></trkpt>
   <trkpt lat="30.92174" lon="34.736199"><ele>461.7</ele><name>TP06576</name><time>2016-12-28T21:59:02Z</time></trkpt>
   <trkpt lat="30.921716" lon="34.73628"><ele>461</ele><name>TP06577</name><time>2016-12-28T21:59:03Z</time></trkpt>
   <trkpt lat="30.921684" lon="34.73634"><ele>461</ele><name>TP06578</name><time>2016-12-28T21:59:04Z</time></trkpt>
   <trkpt lat="30.921657" lon="34.736383"><ele>461.1</ele><name>TP06579</name><time>2016-12-28T21:59:05Z</time></trkpt>
   <trkpt lat="30.921644" lon="34.736418"><ele>461.1</ele><name>TP06580</name><time>2016-12-28T21:59:06Z</time></trkpt>
   <trkpt lat="30.921637" lon="34.736454"><ele>461.2</ele><name>TP06581</name><time>2016-12-28T21:59:07Z</time></trkpt>
   <trkpt lat="30.921637" lon="34.736494"><ele>461.2</ele><name>TP06582</name><time>2016-12-28T21:59:08Z</time></trkpt>
   <trkpt lat="30.921637" lon="34.73653"><ele>461.3</ele><name>TP06583</name><time>2016-12-28T21:59:09Z</time></trkpt>
   <trkpt lat="30.921626" lon="34.736595"><ele>461.3</ele><name>TP06584</name><time>2016-12-28T21:59:11Z</time></trkpt>
   <trkpt lat="30.921618" lon="34.736635"><ele>461.4</ele><name>TP06585</name><time>2016-12-28T21:59:13Z</time></trkpt>
   <trkpt lat="30.921614" lon="34.736672"><ele>461.5</ele><name>TP06586</name><time>2016-12-28T21:59:15Z</time></trkpt>
   <trkpt lat="30.921606" lon="34.736716"><ele>461.6</ele><name>TP06587</name><time>2016-12-28T21:59:17Z</time></trkpt>
   <trkpt lat="30.9216" lon="34.736758"><ele>461.6</ele><name>TP06588</name><time>2016-12-28T21:59:19Z</time></trkpt>
   <trkpt lat="30.921597" lon="34.736804"><ele>461.7</ele><name>TP06589</name><time>2016-12-28T21:59:20Z</time></trkpt>
   <trkpt lat="30.921596" lon="34.736882"><ele>461.8</ele><name>TP06590</name><time>2016-12-28T21:59:21Z</time></trkpt>
   <trkpt lat="30.921594" lon="34.737001"><ele>462</ele><name>TP06591</name><time>2016-12-28T21:59:23Z</time></trkpt>
   <trkpt lat="30.921594" lon="34.737035"><ele>462</ele><name>TP06592</name><time>2016-12-28T21:59:24Z</time></trkpt>
   <trkpt lat="30.921587" lon="34.737095"><ele>462.1</ele><name>TP06593</name><time>2016-12-28T21:59:26Z</time></trkpt>
   <trkpt lat="30.921567" lon="34.737148"><ele>462.2</ele><name>TP06594</name><time>2016-12-28T21:59:28Z</time></trkpt>
   <trkpt lat="30.921532" lon="34.737188"><ele>462.5</ele><name>TP06595</name><time>2016-12-28T21:59:30Z</time></trkpt>
   <trkpt lat="30.921507" lon="34.737211"><ele>462.7</ele><name>TP06596</name><time>2016-12-28T21:59:32Z</time></trkpt>
   <trkpt lat="30.921481" lon="34.737228"><ele>463</ele><name>TP06597</name><time>2016-12-28T21:59:34Z</time></trkpt>
   <trkpt lat="30.921447" lon="34.737253"><ele>463.4</ele><name>TP06598</name><time>2016-12-28T21:59:36Z</time></trkpt>
   <trkpt lat="30.921414" lon="34.737281"><ele>463.9</ele><name>TP06599</name><time>2016-12-28T21:59:38Z</time></trkpt>
   <trkpt lat="30.921386" lon="34.737313"><ele>464.4</ele><name>TP06600</name><time>2016-12-28T21:59:40Z</time></trkpt>
   <trkpt lat="30.921354" lon="34.737342"><ele>464.9</ele><name>TP06601</name><time>2016-12-28T21:59:42Z</time></trkpt>
   <trkpt lat="30.921327" lon="34.737361"><ele>465.4</ele><name>TP06602</name><time>2016-12-28T21:59:43Z</time></trkpt>
   <trkpt lat="30.921302" lon="34.737377"><ele>465.9</ele><name>TP06603</name><time>2016-12-28T21:59:44Z</time></trkpt>
   <trkpt lat="30.921257" lon="34.737403"><ele>466.8</ele><name>TP06604</name><time>2016-12-28T21:59:46Z</time></trkpt>
   <trkpt lat="30.921216" lon="34.737439"><ele>466.5</ele><name>TP06605</name><time>2016-12-28T21:59:48Z</time></trkpt>
   <trkpt lat="30.921194" lon="34.737484"><ele>466.4</ele><name>TP06606</name><time>2016-12-28T21:59:50Z</time></trkpt>
   <trkpt lat="30.921178" lon="34.737535"><ele>466.6</ele><name>TP06607</name><time>2016-12-28T21:59:52Z</time></trkpt>
   <trkpt lat="30.921154" lon="34.737592"><ele>466.6</ele><name>TP06608</name><time>2016-12-28T21:59:54Z</time></trkpt>
   <trkpt lat="30.921129" lon="34.737639"><ele>466.6</ele><name>TP06609</name><time>2016-12-28T21:59:56Z</time></trkpt>
   <trkpt lat="30.921104" lon="34.737679"><ele>466.6</ele><name>TP06610</name><time>2016-12-28T21:59:58Z</time></trkpt>
   <trkpt lat="30.921075" lon="34.737712"><ele>466.6</ele><name>TP06611</name><time>2016-12-28T22:00:00Z</time></trkpt>
   <trkpt lat="30.921042" lon="34.737753"><ele>466.6</ele><name>TP06612</name><time>2016-12-28T22:00:01Z</time></trkpt>
   <trkpt lat="30.921011" lon="34.737788"><ele>466.6</ele><name>TP06613</name><time>2016-12-28T22:00:02Z</time></trkpt>
   <trkpt lat="30.920982" lon="34.737816"><ele>466.6</ele><name>TP06614</name><time>2016-12-28T22:00:03Z</time></trkpt>
   <trkpt lat="30.920945" lon="34.737823"><ele>466.3</ele><name>TP06615</name><time>2016-12-28T22:00:05Z</time></trkpt>
   <trkpt lat="30.920918" lon="34.737848"><ele>466.3</ele><name>TP06616</name><time>2016-12-28T22:00:06Z</time></trkpt>
   <trkpt lat="30.920894" lon="34.737868"><ele>466.4</ele><name>TP06617</name><time>2016-12-28T22:00:07Z</time></trkpt>
   <trkpt lat="30.920847" lon="34.737885"><ele>466.2</ele><name>TP06618</name><time>2016-12-28T22:00:09Z</time></trkpt>
   <trkpt lat="30.92082" lon="34.737919"><ele>466.4</ele><name>TP06619</name><time>2016-12-28T22:00:10Z</time></trkpt>
   <trkpt lat="30.920801" lon="34.737955"><ele>466.3</ele><name>TP06620</name><time>2016-12-28T22:00:11Z</time></trkpt>
   <trkpt lat="30.920785" lon="34.737994"><ele>466.2</ele><name>TP06621</name><time>2016-12-28T22:00:12Z</time></trkpt>
   <trkpt lat="30.920764" lon="34.738035"><ele>466.1</ele><name>TP06622</name><time>2016-12-28T22:00:13Z</time></trkpt>
   <trkpt lat="30.92074" lon="34.738075"><ele>466.1</ele><name>TP06623</name><time>2016-12-28T22:00:14Z</time></trkpt>
   <trkpt lat="30.920717" lon="34.738114"><ele>466.1</ele><name>TP06624</name><time>2016-12-28T22:00:15Z</time></trkpt>
   <trkpt lat="30.920694" lon="34.738155"><ele>466.1</ele><name>TP06625</name><time>2016-12-28T22:00:16Z</time></trkpt>
   <trkpt lat="30.920662" lon="34.738216"><ele>466.2</ele><name>TP06626</name><time>2016-12-28T22:00:17Z</time></trkpt>
   <trkpt lat="30.920637" lon="34.738267"><ele>466.4</ele><name>TP06627</name><time>2016-12-28T22:00:18Z</time></trkpt>
   <trkpt lat="30.920614" lon="34.738313"><ele>466.7</ele><name>TP06628</name><time>2016-12-28T22:00:19Z</time></trkpt>
   <trkpt lat="30.920588" lon="34.738357"><ele>466.9</ele><name>TP06629</name><time>2016-12-28T22:00:20Z</time></trkpt>
   <trkpt lat="30.920558" lon="34.738398"><ele>467.2</ele><name>TP06630</name><time>2016-12-28T22:00:21Z</time></trkpt>
   <trkpt lat="30.920525" lon="34.738434"><ele>467.6</ele><name>TP06631</name><time>2016-12-28T22:00:22Z</time></trkpt>
   <trkpt lat="30.920421" lon="34.738515"><ele>468.7</ele><name>TP06632</name><time>2016-12-28T22:00:24Z</time></trkpt>
   <trkpt lat="30.920386" lon="34.738533"><ele>469</ele><name>TP06633</name><time>2016-12-28T22:00:25Z</time></trkpt>
   <trkpt lat="30.920357" lon="34.738544"><ele>469.3</ele><name>TP06634</name><time>2016-12-28T22:00:26Z</time></trkpt>
   <trkpt lat="30.920328" lon="34.738559"><ele>469.6</ele><name>TP06635</name><time>2016-12-28T22:00:27Z</time></trkpt>
   <trkpt lat="30.920295" lon="34.738574"><ele>469.9</ele><name>TP06636</name><time>2016-12-28T22:00:28Z</time></trkpt>
   <trkpt lat="30.920264" lon="34.738588"><ele>470.2</ele><name>TP06637</name><time>2016-12-28T22:00:29Z</time></trkpt>
   <trkpt lat="30.920235" lon="34.738605"><ele>470.6</ele><name>TP06638</name><time>2016-12-28T22:00:30Z</time></trkpt>
   <trkpt lat="30.920199" lon="34.73862"><ele>471</ele><name>TP06639</name><time>2016-12-28T22:00:32Z</time></trkpt>
   <trkpt lat="30.920166" lon="34.738635"><ele>471.4</ele><name>TP06640</name><time>2016-12-28T22:00:34Z</time></trkpt>
   <trkpt lat="30.920127" lon="34.738652"><ele>471.9</ele><name>TP06641</name><time>2016-12-28T22:00:36Z</time></trkpt>
   <trkpt lat="30.920076" lon="34.738668"><ele>472.5</ele><name>TP06642</name><time>2016-12-28T22:00:38Z</time></trkpt>
   <trkpt lat="30.920048" lon="34.738677"><ele>472.9</ele><name>TP06643</name><time>2016-12-28T22:00:39Z</time></trkpt>
   <trkpt lat="30.920018" lon="34.738686"><ele>473.2</ele><name>TP06644</name><time>2016-12-28T22:00:40Z</time></trkpt>
   <trkpt lat="30.919987" lon="34.738695"><ele>473.6</ele><name>TP06645</name><time>2016-12-28T22:00:41Z</time></trkpt>
   <trkpt lat="30.919953" lon="34.738707"><ele>474.1</ele><name>TP06646</name><time>2016-12-28T22:00:42Z</time></trkpt>
   <trkpt lat="30.919919" lon="34.73872"><ele>474.6</ele><name>TP06647</name><time>2016-12-28T22:00:43Z</time></trkpt>
   <trkpt lat="30.919881" lon="34.738737"><ele>475.2</ele><name>TP06648</name><time>2016-12-28T22:00:44Z</time></trkpt>
   <trkpt lat="30.919842" lon="34.738758"><ele>475.8</ele><name>TP06649</name><time>2016-12-28T22:00:45Z</time></trkpt>
   <trkpt lat="30.9198" lon="34.738785"><ele>475.9</ele><name>TP06650</name><time>2016-12-28T22:00:46Z</time></trkpt>
   <trkpt lat="30.91976" lon="34.738821"><ele>476</ele><name>TP06651</name><time>2016-12-28T22:00:47Z</time></trkpt>
   <trkpt lat="30.919726" lon="34.738864"><ele>476</ele><name>TP06652</name><time>2016-12-28T22:00:48Z</time></trkpt>
   <trkpt lat="30.919702" lon="34.738906"><ele>475.9</ele><name>TP06653</name><time>2016-12-28T22:00:49Z</time></trkpt>
   <trkpt lat="30.919684" lon="34.738961"><ele>475.7</ele><name>TP06654</name><time>2016-12-28T22:00:50Z</time></trkpt>
   <trkpt lat="30.91967" lon="34.739028"><ele>475.4</ele><name>TP06655</name><time>2016-12-28T22:00:51Z</time></trkpt>
   <trkpt lat="30.919662" lon="34.739098"><ele>475.1</ele><name>TP06656</name><time>2016-12-28T22:00:52Z</time></trkpt>
   <trkpt lat="30.919654" lon="34.739166"><ele>474.7</ele><name>TP06657</name><time>2016-12-28T22:00:53Z</time></trkpt>
   <trkpt lat="30.919641" lon="34.73923"><ele>474.4</ele><name>TP06658</name><time>2016-12-28T22:00:54Z</time></trkpt>
   <trkpt lat="30.919622" lon="34.739293"><ele>474.3</ele><name>TP06659</name><time>2016-12-28T22:00:55Z</time></trkpt>
   <trkpt lat="30.919604" lon="34.73934"><ele>474.2</ele><name>TP06660</name><time>2016-12-28T22:00:56Z</time></trkpt>
   <trkpt lat="30.919584" lon="34.739382"><ele>474.2</ele><name>TP06661</name><time>2016-12-28T22:00:57Z</time></trkpt>
   <trkpt lat="30.919558" lon="34.739432"><ele>473.7</ele><name>TP06662</name><time>2016-12-28T22:00:58Z</time></trkpt>
   <trkpt lat="30.919529" lon="34.739477"><ele>473.3</ele><name>TP06663</name><time>2016-12-28T22:00:59Z</time></trkpt>
   <trkpt lat="30.919467" lon="34.739536"><ele>472.5</ele><name>TP06664</name><time>2016-12-28T22:01:00Z</time></trkpt>
   <trkpt lat="30.919402" lon="34.73962"><ele>472.1</ele><name>TP06665</name><time>2016-12-28T22:01:02Z</time></trkpt>
   <trkpt lat="30.919372" lon="34.739658"><ele>472.1</ele><name>TP06666</name><time>2016-12-28T22:01:03Z</time></trkpt>
   <trkpt lat="30.91934" lon="34.739697"><ele>472.1</ele><name>TP06667</name><time>2016-12-28T22:01:04Z</time></trkpt>
   <trkpt lat="30.919311" lon="34.739731"><ele>472.1</ele><name>TP06668</name><time>2016-12-28T22:01:05Z</time></trkpt>
   <trkpt lat="30.919278" lon="34.739762"><ele>472.1</ele><name>TP06669</name><time>2016-12-28T22:01:06Z</time></trkpt>
   <trkpt lat="30.919247" lon="34.739793"><ele>472.1</ele><name>TP06670</name><time>2016-12-28T22:01:07Z</time></trkpt>
   <trkpt lat="30.919223" lon="34.739844"><ele>472.2</ele><name>TP06671</name><time>2016-12-28T22:01:08Z</time></trkpt>
   <trkpt lat="30.91919" lon="34.739889"><ele>472.3</ele><name>TP06672</name><time>2016-12-28T22:01:09Z</time></trkpt>
   <trkpt lat="30.91916" lon="34.739936"><ele>472.4</ele><name>TP06673</name><time>2016-12-28T22:01:10Z</time></trkpt>
   <trkpt lat="30.919148" lon="34.739989"><ele>472.6</ele><name>TP06674</name><time>2016-12-28T22:01:11Z</time></trkpt>
   <trkpt lat="30.919143" lon="34.740048"><ele>472.9</ele><name>TP06675</name><time>2016-12-28T22:01:12Z</time></trkpt>
   <trkpt lat="30.919142" lon="34.740091"><ele>473.1</ele><name>TP06676</name><time>2016-12-28T22:01:13Z</time></trkpt>
   <trkpt lat="30.919133" lon="34.740138"><ele>473.3</ele><name>TP06677</name><time>2016-12-28T22:01:14Z</time></trkpt>
   <trkpt lat="30.919126" lon="34.740183"><ele>473.5</ele><name>TP06678</name><time>2016-12-28T22:01:15Z</time></trkpt>
   <trkpt lat="30.919117" lon="34.74023"><ele>473.7</ele><name>TP06679</name><time>2016-12-28T22:01:16Z</time></trkpt>
   <trkpt lat="30.919101" lon="34.74027"><ele>473.9</ele><name>TP06680</name><time>2016-12-28T22:01:17Z</time></trkpt>
   <trkpt lat="30.919089" lon="34.740306"><ele>474</ele><name>TP06681</name><time>2016-12-28T22:01:18Z</time></trkpt>
   <trkpt lat="30.919084" lon="34.740346"><ele>474.2</ele><name>TP06682</name><time>2016-12-28T22:01:19Z</time></trkpt>
   <trkpt lat="30.919082" lon="34.740383"><ele>474.4</ele><name>TP06683</name><time>2016-12-28T22:01:20Z</time></trkpt>
   <trkpt lat="30.919076" lon="34.740434"><ele>474.7</ele><name>TP06684</name><time>2016-12-28T22:01:22Z</time></trkpt>
   <trkpt lat="30.919069" lon="34.740472"><ele>475</ele><name>TP06685</name><time>2016-12-28T22:01:24Z</time></trkpt>
   <trkpt lat="30.919059" lon="34.740509"><ele>475.3</ele><name>TP06686</name><time>2016-12-28T22:01:25Z</time></trkpt>
   <trkpt lat="30.919049" lon="34.740541"><ele>475.5</ele><name>TP06687</name><time>2016-12-28T22:01:26Z</time></trkpt>
   <trkpt lat="30.919046" lon="34.740573"><ele>475.8</ele><name>TP06688</name><time>2016-12-28T22:01:27Z</time></trkpt>
   <trkpt lat="30.919045" lon="34.740606"><ele>476.1</ele><name>TP06689</name><time>2016-12-28T22:01:28Z</time></trkpt>
   <trkpt lat="30.919046" lon="34.740639"><ele>476.4</ele><name>TP06690</name><time>2016-12-28T22:01:29Z</time></trkpt>
   <trkpt lat="30.919049" lon="34.740671"><ele>476.7</ele><name>TP06691</name><time>2016-12-28T22:01:30Z</time></trkpt>
   <trkpt lat="30.919063" lon="34.740729"><ele>477.3</ele><name>TP06692</name><time>2016-12-28T22:01:32Z</time></trkpt>
   <trkpt lat="30.919072" lon="34.740773"><ele>477.8</ele><name>TP06693</name><time>2016-12-28T22:01:34Z</time></trkpt>
   <trkpt lat="30.919089" lon="34.740827"><ele>478.4</ele><name>TP06694</name><time>2016-12-28T22:01:37Z</time></trkpt>
   <trkpt lat="30.919103" lon="34.740877"><ele>478.9</ele><name>TP06695</name><time>2016-12-28T22:01:39Z</time></trkpt>
   <trkpt lat="30.919117" lon="34.740926"><ele>479.5</ele><name>TP06696</name><time>2016-12-28T22:01:41Z</time></trkpt>
   <trkpt lat="30.91913" lon="34.740968"><ele>480</ele><name>TP06697</name><time>2016-12-28T22:01:43Z</time></trkpt>
   <trkpt lat="30.919126" lon="34.741016"><ele>480.4</ele><name>TP06698</name><time>2016-12-28T22:01:45Z</time></trkpt>
   <trkpt lat="30.919105" lon="34.741062"><ele>480.7</ele><name>TP06699</name><time>2016-12-28T22:01:47Z</time></trkpt>
   <trkpt lat="30.919095" lon="34.741108"><ele>481</ele><name>TP06700</name><time>2016-12-28T22:01:49Z</time></trkpt>
   <trkpt lat="30.919095" lon="34.741157"><ele>481.5</ele><name>TP06701</name><time>2016-12-28T22:01:51Z</time></trkpt>
   <trkpt lat="30.919094" lon="34.741201"><ele>481.9</ele><name>TP06702</name><time>2016-12-28T22:01:53Z</time></trkpt>
   <trkpt lat="30.919086" lon="34.74124"><ele>482.1</ele><name>TP06703</name><time>2016-12-28T22:01:55Z</time></trkpt>
   <trkpt lat="30.919072" lon="34.741281"><ele>482.4</ele><name>TP06704</name><time>2016-12-28T22:01:57Z</time></trkpt>
   <trkpt lat="30.919053" lon="34.741325"><ele>482.7</ele><name>TP06705</name><time>2016-12-28T22:01:59Z</time></trkpt>
   <trkpt lat="30.91903" lon="34.741368"><ele>483</ele><name>TP06706</name><time>2016-12-28T22:02:01Z</time></trkpt>
   <trkpt lat="30.919011" lon="34.741417"><ele>483.4</ele><name>TP06707</name><time>2016-12-28T22:02:03Z</time></trkpt>
   <trkpt lat="30.919" lon="34.741466"><ele>483.8</ele><name>TP06708</name><time>2016-12-28T22:02:05Z</time></trkpt>
   <trkpt lat="30.918987" lon="34.741519"><ele>484.4</ele><name>TP06709</name><time>2016-12-28T22:02:07Z</time></trkpt>
   <trkpt lat="30.918967" lon="34.741569"><ele>484.9</ele><name>TP06710</name><time>2016-12-28T22:02:09Z</time></trkpt>
   <trkpt lat="30.918937" lon="34.741609"><ele>485.2</ele><name>TP06711</name><time>2016-12-28T22:02:11Z</time></trkpt>
   <trkpt lat="30.918918" lon="34.741653"><ele>485.7</ele><name>TP06712</name><time>2016-12-28T22:02:13Z</time></trkpt>
   <trkpt lat="30.918908" lon="34.741704"><ele>486.4</ele><name>TP06713</name><time>2016-12-28T22:02:15Z</time></trkpt>
   <trkpt lat="30.918882" lon="34.741742"><ele>486.8</ele><name>TP06714</name><time>2016-12-28T22:02:17Z</time></trkpt>
   <trkpt lat="30.91885" lon="34.741765"><ele>487.1</ele><name>TP06715</name><time>2016-12-28T22:02:19Z</time></trkpt>
   <trkpt lat="30.91883" lon="34.741803"><ele>487.6</ele><name>TP06716</name><time>2016-12-28T22:02:21Z</time></trkpt>
   <trkpt lat="30.918812" lon="34.741857"><ele>488.4</ele><name>TP06717</name><time>2016-12-28T22:02:24Z</time></trkpt>
   <trkpt lat="30.918799" lon="34.741913"><ele>489.3</ele><name>TP06718</name><time>2016-12-28T22:02:26Z</time></trkpt>
   <trkpt lat="30.918793" lon="34.741969"><ele>490.1</ele><name>TP06719</name><time>2016-12-28T22:02:28Z</time></trkpt>
   <trkpt lat="30.91879" lon="34.742024"><ele>490.9</ele><name>TP06720</name><time>2016-12-28T22:02:30Z</time></trkpt>
   <trkpt lat="30.918789" lon="34.742084"><ele>491.8</ele><name>TP06721</name><time>2016-12-28T22:02:32Z</time></trkpt>
   <trkpt lat="30.918781" lon="34.742136"><ele>492.1</ele><name>TP06722</name><time>2016-12-28T22:02:34Z</time></trkpt>
   <trkpt lat="30.918774" lon="34.742191"><ele>492.3</ele><name>TP06723</name><time>2016-12-28T22:02:36Z</time></trkpt>
   <trkpt lat="30.918767" lon="34.742243"><ele>492.6</ele><name>TP06724</name><time>2016-12-28T22:02:38Z</time></trkpt>
   <trkpt lat="30.918749" lon="34.742294"><ele>493</ele><name>TP06725</name><time>2016-12-28T22:02:40Z</time></trkpt>
   <trkpt lat="30.918724" lon="34.742336"><ele>492.5</ele><name>TP06726</name><time>2016-12-28T22:02:42Z</time></trkpt>
   <trkpt lat="30.918701" lon="34.742371"><ele>492.2</ele><name>TP06727</name><time>2016-12-28T22:02:44Z</time></trkpt>
   <trkpt lat="30.918684" lon="34.742411"><ele>492</ele><name>TP06728</name><time>2016-12-28T22:02:46Z</time></trkpt>
   <trkpt lat="30.918666" lon="34.742459"><ele>491.9</ele><name>TP06729</name><time>2016-12-28T22:02:48Z</time></trkpt>
   <trkpt lat="30.918654" lon="34.742513"><ele>492</ele><name>TP06730</name><time>2016-12-28T22:02:50Z</time></trkpt>
   <trkpt lat="30.918654" lon="34.742567"><ele>492.3</ele><name>TP06731</name><time>2016-12-28T22:02:52Z</time></trkpt>
   <trkpt lat="30.918648" lon="34.742618"><ele>492.6</ele><name>TP06732</name><time>2016-12-28T22:02:54Z</time></trkpt>
   <trkpt lat="30.918628" lon="34.742657"><ele>492.5</ele><name>TP06733</name><time>2016-12-28T22:02:56Z</time></trkpt>
   <trkpt lat="30.918608" lon="34.742713"><ele>492.5</ele><name>TP06734</name><time>2016-12-28T22:02:59Z</time></trkpt>
   <trkpt lat="30.918588" lon="34.742742"><ele>492.4</ele><name>TP06735</name><time>2016-12-28T22:03:01Z</time></trkpt>
   <trkpt lat="30.918564" lon="34.742771"><ele>492.3</ele><name>TP06736</name><time>2016-12-28T22:03:02Z</time></trkpt>
   <trkpt lat="30.918537" lon="34.742803"><ele>492.1</ele><name>TP06737</name><time>2016-12-28T22:03:03Z</time></trkpt>
   <trkpt lat="30.918514" lon="34.742833"><ele>492.1</ele><name>TP06738</name><time>2016-12-28T22:03:04Z</time></trkpt>
   <trkpt lat="30.918492" lon="34.742861"><ele>492</ele><name>TP06739</name><time>2016-12-28T22:03:05Z</time></trkpt>
   <trkpt lat="30.91847" lon="34.742882"><ele>491.9</ele><name>TP06740</name><time>2016-12-28T22:03:06Z</time></trkpt>
   <trkpt lat="30.918448" lon="34.742901"><ele>491.8</ele><name>TP06741</name><time>2016-12-28T22:03:07Z</time></trkpt>
   <trkpt lat="30.918409" lon="34.742885"><ele>491.1</ele><name>TP06742</name><time>2016-12-28T22:03:09Z</time></trkpt>
   <trkpt lat="30.918375" lon="34.742897"><ele>490.8</ele><name>TP06743</name><time>2016-12-28T22:03:10Z</time></trkpt>
   <trkpt lat="30.918345" lon="34.742913"><ele>490.6</ele><name>TP06744</name><time>2016-12-28T22:03:11Z</time></trkpt>
   <trkpt lat="30.918319" lon="34.742929"><ele>490.4</ele><name>TP06745</name><time>2016-12-28T22:03:12Z</time></trkpt>
   <trkpt lat="30.918282" lon="34.742927"><ele>489.9</ele><name>TP06746</name><time>2016-12-28T22:03:14Z</time></trkpt>
   <trkpt lat="30.918249" lon="34.742945"><ele>489.6</ele><name>TP06747</name><time>2016-12-28T22:03:15Z</time></trkpt>
   <trkpt lat="30.9182" lon="34.742976"><ele>489.3</ele><name>TP06748</name><time>2016-12-28T22:03:17Z</time></trkpt>
   <trkpt lat="30.918168" lon="34.743003"><ele>489.2</ele><name>TP06749</name><time>2016-12-28T22:03:18Z</time></trkpt>
   <trkpt lat="30.918141" lon="34.743033"><ele>489.3</ele><name>TP06750</name><time>2016-12-28T22:03:19Z</time></trkpt>
   <trkpt lat="30.918111" lon="34.743059"><ele>489.4</ele><name>TP06751</name><time>2016-12-28T22:03:20Z</time></trkpt>
   <trkpt lat="30.918075" lon="34.743078"><ele>489.4</ele><name>TP06752</name><time>2016-12-28T22:03:21Z</time></trkpt>
   <trkpt lat="30.918038" lon="34.743095"><ele>489.4</ele><name>TP06753</name><time>2016-12-28T22:03:22Z</time></trkpt>
   <trkpt lat="30.918" lon="34.743109"><ele>489.4</ele><name>TP06754</name><time>2016-12-28T22:03:23Z</time></trkpt>
   <trkpt lat="30.917964" lon="34.743113"><ele>489.3</ele><name>TP06755</name><time>2016-12-28T22:03:24Z</time></trkpt>
   <trkpt lat="30.91793" lon="34.743111"><ele>489</ele><name>TP06756</name><time>2016-12-28T22:03:25Z</time></trkpt>
   <trkpt lat="30.917898" lon="34.743106"><ele>488.6</ele><name>TP06757</name><time>2016-12-28T22:03:26Z</time></trkpt>
   <trkpt lat="30.917866" lon="34.743097"><ele>488.1</ele><name>TP06758</name><time>2016-12-28T22:03:27Z</time></trkpt>
   <trkpt lat="30.917837" lon="34.743086"><ele>487.5</ele><name>TP06759</name><time>2016-12-28T22:03:28Z</time></trkpt>
   <trkpt lat="30.917807" lon="34.743073"><ele>486.8</ele><name>TP06760</name><time>2016-12-28T22:03:29Z</time></trkpt>
   <trkpt lat="30.917777" lon="34.743058"><ele>486.2</ele><name>TP06761</name><time>2016-12-28T22:03:30Z</time></trkpt>
   <trkpt lat="30.917749" lon="34.743048"><ele>485.6</ele><name>TP06762</name><time>2016-12-28T22:03:31Z</time></trkpt>
   <trkpt lat="30.91772" lon="34.743048"><ele>485.2</ele><name>TP06763</name><time>2016-12-28T22:03:32Z</time></trkpt>
   <trkpt lat="30.917677" lon="34.743085"><ele>485.5</ele><name>TP06764</name><time>2016-12-28T22:03:34Z</time></trkpt>
   <trkpt lat="30.91766" lon="34.743115"><ele>486</ele><name>TP06765</name><time>2016-12-28T22:03:35Z</time></trkpt>
   <trkpt lat="30.917643" lon="34.743146"><ele>486.4</ele><name>TP06766</name><time>2016-12-28T22:03:36Z</time></trkpt>
   <trkpt lat="30.917617" lon="34.743201"><ele>487.3</ele><name>TP06767</name><time>2016-12-28T22:03:38Z</time></trkpt>
   <trkpt lat="30.917595" lon="34.743255"><ele>488.3</ele><name>TP06768</name><time>2016-12-28T22:03:39Z</time></trkpt>
   <trkpt lat="30.917536" lon="34.743424"><ele>491.4</ele><name>TP06769</name><time>2016-12-28T22:03:41Z</time></trkpt>
   <trkpt lat="30.917525" lon="34.743467"><ele>492.3</ele><name>TP06770</name><time>2016-12-28T22:03:42Z</time></trkpt>
   <trkpt lat="30.917517" lon="34.743508"><ele>493.1</ele><name>TP06771</name><time>2016-12-28T22:03:43Z</time></trkpt>
   <trkpt lat="30.917508" lon="34.743544"><ele>493.9</ele><name>TP06772</name><time>2016-12-28T22:03:44Z</time></trkpt>
   <trkpt lat="30.9175" lon="34.743577"><ele>494.6</ele><name>TP06773</name><time>2016-12-28T22:03:45Z</time></trkpt>
   <trkpt lat="30.917499" lon="34.743631"><ele>495.8</ele><name>TP06774</name><time>2016-12-28T22:03:47Z</time></trkpt>
   <trkpt lat="30.917496" lon="34.743669"><ele>496.6</ele><name>TP06775</name><time>2016-12-28T22:03:49Z</time></trkpt>
   <trkpt lat="30.917484" lon="34.743701"><ele>497.2</ele><name>TP06776</name><time>2016-12-28T22:03:51Z</time></trkpt>
   <trkpt lat="30.917487" lon="34.743749"><ele>498.4</ele><name>TP06777</name><time>2016-12-28T22:03:53Z</time></trkpt>
   <trkpt lat="30.917476" lon="34.743804"><ele>498.7</ele><name>TP06778</name><time>2016-12-28T22:03:55Z</time></trkpt>
   <trkpt lat="30.917463" lon="34.743853"><ele>499</ele><name>TP06779</name><time>2016-12-28T22:03:57Z</time></trkpt>
   <trkpt lat="30.917449" lon="34.743904"><ele>499.4</ele><name>TP06780</name><time>2016-12-28T22:03:59Z</time></trkpt>
   <trkpt lat="30.917438" lon="34.743949"><ele>499.7</ele><name>TP06781</name><time>2016-12-28T22:04:01Z</time></trkpt>
   <trkpt lat="30.917423" lon="34.743994"><ele>500.1</ele><name>TP06782</name><time>2016-12-28T22:04:03Z</time></trkpt>
   <trkpt lat="30.917409" lon="34.744034"><ele>500.5</ele><name>TP06783</name><time>2016-12-28T22:04:05Z</time></trkpt>
   <trkpt lat="30.917382" lon="34.744073"><ele>500.8</ele><name>TP06784</name><time>2016-12-28T22:04:07Z</time></trkpt>
   <trkpt lat="30.917338" lon="34.744109"><ele>501.2</ele><name>TP06785</name><time>2016-12-28T22:04:09Z</time></trkpt>
   <trkpt lat="30.917314" lon="34.744125"><ele>501.4</ele><name>TP06786</name><time>2016-12-28T22:04:10Z</time></trkpt>
   <trkpt lat="30.917273" lon="34.744157"><ele>501.9</ele><name>TP06787</name><time>2016-12-28T22:04:12Z</time></trkpt>
   <trkpt lat="30.917247" lon="34.744199"><ele>502.6</ele><name>TP06788</name><time>2016-12-28T22:04:14Z</time></trkpt>
   <trkpt lat="30.917234" lon="34.744248"><ele>503.3</ele><name>TP06789</name><time>2016-12-28T22:04:16Z</time></trkpt>
   <trkpt lat="30.917234" lon="34.744295"><ele>503.9</ele><name>TP06790</name><time>2016-12-28T22:04:18Z</time></trkpt>
   <trkpt lat="30.917235" lon="34.744341"><ele>504.6</ele><name>TP06791</name><time>2016-12-28T22:04:20Z</time></trkpt>
   <trkpt lat="30.91723" lon="34.74439"><ele>505.3</ele><name>TP06792</name><time>2016-12-28T22:04:22Z</time></trkpt>
   <trkpt lat="30.917231" lon="34.744439"><ele>506</ele><name>TP06793</name><time>2016-12-28T22:04:24Z</time></trkpt>
   <trkpt lat="30.917235" lon="34.744486"><ele>506.6</ele><name>TP06794</name><time>2016-12-28T22:04:26Z</time></trkpt>
   <trkpt lat="30.917226" lon="34.744535"><ele>507.4</ele><name>TP06795</name><time>2016-12-28T22:04:28Z</time></trkpt>
   <trkpt lat="30.917212" lon="34.744581"><ele>508.3</ele><name>TP06796</name><time>2016-12-28T22:04:30Z</time></trkpt>
   <trkpt lat="30.9172" lon="34.744618"><ele>508.6</ele><name>TP06797</name><time>2016-12-28T22:04:32Z</time></trkpt>
   <trkpt lat="30.917184" lon="34.744647"><ele>508.9</ele><name>TP06798</name><time>2016-12-28T22:04:34Z</time></trkpt>
   <trkpt lat="30.917168" lon="34.744684"><ele>509.2</ele><name>TP06799</name><time>2016-12-28T22:04:36Z</time></trkpt>
   <trkpt lat="30.917141" lon="34.744726"><ele>509.8</ele><name>TP06800</name><time>2016-12-28T22:04:38Z</time></trkpt>
   <trkpt lat="30.917114" lon="34.744765"><ele>510.4</ele><name>TP06801</name><time>2016-12-28T22:04:40Z</time></trkpt>
   <trkpt lat="30.917098" lon="34.744811"><ele>510.8</ele><name>TP06802</name><time>2016-12-28T22:04:42Z</time></trkpt>
   <trkpt lat="30.917081" lon="34.744857"><ele>511.3</ele><name>TP06803</name><time>2016-12-28T22:04:44Z</time></trkpt>
   <trkpt lat="30.917071" lon="34.744904"><ele>511.3</ele><name>TP06804</name><time>2016-12-28T22:04:46Z</time></trkpt>
   <trkpt lat="30.917059" lon="34.744947"><ele>511.3</ele><name>TP06805</name><time>2016-12-28T22:04:48Z</time></trkpt>
   <trkpt lat="30.917041" lon="34.744988"><ele>511.3</ele><name>TP06806</name><time>2016-12-28T22:04:50Z</time></trkpt>
   <trkpt lat="30.917023" lon="34.74503"><ele>511.2</ele><name>TP06807</name><time>2016-12-28T22:04:52Z</time></trkpt>
   <trkpt lat="30.917009" lon="34.745073"><ele>511.3</ele><name>TP06808</name><time>2016-12-28T22:04:54Z</time></trkpt>
   <trkpt lat="30.917" lon="34.745116"><ele>511.5</ele><name>TP06809</name><time>2016-12-28T22:04:56Z</time></trkpt>
   <trkpt lat="30.916994" lon="34.74516"><ele>511.7</ele><name>TP06810</name><time>2016-12-28T22:04:58Z</time></trkpt>
   <trkpt lat="30.916996" lon="34.745203"><ele>512</ele><name>TP06811</name><time>2016-12-28T22:05:00Z</time></trkpt>
   <trkpt lat="30.916988" lon="34.74525"><ele>512.3</ele><name>TP06812</name><time>2016-12-28T22:05:02Z</time></trkpt>
   <trkpt lat="30.916968" lon="34.745297"><ele>512.4</ele><name>TP06813</name><time>2016-12-28T22:05:04Z</time></trkpt>
   <trkpt lat="30.916946" lon="34.745336"><ele>512.5</ele><name>TP06814</name><time>2016-12-28T22:05:06Z</time></trkpt>
   <trkpt lat="30.916918" lon="34.74537"><ele>512.6</ele><name>TP06815</name><time>2016-12-28T22:05:08Z</time></trkpt>
   <trkpt lat="30.916884" lon="34.745402"><ele>512.7</ele><name>TP06816</name><time>2016-12-28T22:05:10Z</time></trkpt>
   <trkpt lat="30.916857" lon="34.745446"><ele>512.7</ele><name>TP06817</name><time>2016-12-28T22:05:12Z</time></trkpt>
   <trkpt lat="30.916828" lon="34.74549"><ele>512.6</ele><name>TP06818</name><time>2016-12-28T22:05:14Z</time></trkpt>
   <trkpt lat="30.91679" lon="34.745522"><ele>512.5</ele><name>TP06819</name><time>2016-12-28T22:05:16Z</time></trkpt>
   <trkpt lat="30.916766" lon="34.745536"><ele>512.5</ele><name>TP06820</name><time>2016-12-28T22:05:17Z</time></trkpt>
   <trkpt lat="30.916741" lon="34.745548"><ele>512.5</ele><name>TP06821</name><time>2016-12-28T22:05:18Z</time></trkpt>
   <trkpt lat="30.916714" lon="34.745555"><ele>512.4</ele><name>TP06822</name><time>2016-12-28T22:05:19Z</time></trkpt>
   <trkpt lat="30.916686" lon="34.745556"><ele>512.4</ele><name>TP06823</name><time>2016-12-28T22:05:20Z</time></trkpt>
   <trkpt lat="30.916657" lon="34.745551"><ele>512.3</ele><name>TP06824</name><time>2016-12-28T22:05:21Z</time></trkpt>
   <trkpt lat="30.916629" lon="34.745538"><ele>512.1</ele><name>TP06825</name><time>2016-12-28T22:05:22Z</time></trkpt>
   <trkpt lat="30.916599" lon="34.74552"><ele>511.9</ele><name>TP06826</name><time>2016-12-28T22:05:23Z</time></trkpt>
   <trkpt lat="30.916568" lon="34.745502"><ele>511.6</ele><name>TP06827</name><time>2016-12-28T22:05:24Z</time></trkpt>
   <trkpt lat="30.916531" lon="34.74549"><ele>511.4</ele><name>TP06828</name><time>2016-12-28T22:05:25Z</time></trkpt>
   <trkpt lat="30.916497" lon="34.745484"><ele>511.2</ele><name>TP06829</name><time>2016-12-28T22:05:26Z</time></trkpt>
   <trkpt lat="30.916463" lon="34.745482"><ele>511</ele><name>TP06830</name><time>2016-12-28T22:05:27Z</time></trkpt>
   <trkpt lat="30.916428" lon="34.745479"><ele>510.8</ele><name>TP06831</name><time>2016-12-28T22:05:28Z</time></trkpt>
   <trkpt lat="30.916377" lon="34.745476"><ele>510.6</ele><name>TP06832</name><time>2016-12-28T22:05:30Z</time></trkpt>
   <trkpt lat="30.916348" lon="34.745451"><ele>510.1</ele><name>TP06833</name><time>2016-12-28T22:05:32Z</time></trkpt>
   <trkpt lat="30.916297" lon="34.745444"><ele>509.7</ele><name>TP06834</name><time>2016-12-28T22:05:34Z</time></trkpt>
   <trkpt lat="30.916246" lon="34.745445"><ele>509.5</ele><name>TP06835</name><time>2016-12-28T22:05:36Z</time></trkpt>
   <trkpt lat="30.916209" lon="34.745474"><ele>510</ele><name>TP06836</name><time>2016-12-28T22:05:38Z</time></trkpt>
   <trkpt lat="30.916213" lon="34.745523"><ele>510.8</ele><name>TP06837</name><time>2016-12-28T22:05:40Z</time></trkpt>
   <trkpt lat="30.916218" lon="34.745578"><ele>511.7</ele><name>TP06838</name><time>2016-12-28T22:05:42Z</time></trkpt>
   <trkpt lat="30.916218" lon="34.745636"><ele>512.6</ele><name>TP06839</name><time>2016-12-28T22:05:44Z</time></trkpt>
   <trkpt lat="30.916216" lon="34.745697"><ele>513.6</ele><name>TP06840</name><time>2016-12-28T22:05:46Z</time></trkpt>
   <trkpt lat="30.916214" lon="34.745729"><ele>514.1</ele><name>TP06841</name><time>2016-12-28T22:05:47Z</time></trkpt>
   <trkpt lat="30.916209" lon="34.745766"><ele>514.7</ele><name>TP06842</name><time>2016-12-28T22:05:48Z</time></trkpt>
   <trkpt lat="30.916202" lon="34.745808"><ele>515.4</ele><name>TP06843</name><time>2016-12-28T22:05:49Z</time></trkpt>
   <trkpt lat="30.916191" lon="34.745855"><ele>516.1</ele><name>TP06844</name><time>2016-12-28T22:05:50Z</time></trkpt>
   <trkpt lat="30.916173" lon="34.745899"><ele>516.6</ele><name>TP06845</name><time>2016-12-28T22:05:51Z</time></trkpt>
   <trkpt lat="30.916146" lon="34.74594"><ele>517.1</ele><name>TP06846</name><time>2016-12-28T22:05:52Z</time></trkpt>
   <trkpt lat="30.916118" lon="34.745984"><ele>517.6</ele><name>TP06847</name><time>2016-12-28T22:05:53Z</time></trkpt>
   <trkpt lat="30.916088" lon="34.746038"><ele>518.1</ele><name>TP06848</name><time>2016-12-28T22:05:54Z</time></trkpt>
   <trkpt lat="30.916058" lon="34.746086"><ele>518.5</ele><name>TP06849</name><time>2016-12-28T22:05:55Z</time></trkpt>
   <trkpt lat="30.916021" lon="34.746126"><ele>518.7</ele><name>TP06850</name><time>2016-12-28T22:05:56Z</time></trkpt>
   <trkpt lat="30.91598" lon="34.746162"><ele>518.7</ele><name>TP06851</name><time>2016-12-28T22:05:57Z</time></trkpt>
   <trkpt lat="30.915941" lon="34.746197"><ele>518.7</ele><name>TP06852</name><time>2016-12-28T22:05:58Z</time></trkpt>
   <trkpt lat="30.915916" lon="34.746219"><ele>518.7</ele><name>TP06853</name><time>2016-12-28T22:05:59Z</time></trkpt>
   <trkpt lat="30.915888" lon="34.746245"><ele>518.6</ele><name>TP06854</name><time>2016-12-28T22:06:00Z</time></trkpt>
   <trkpt lat="30.915844" lon="34.746292"><ele>518.2</ele><name>TP06855</name><time>2016-12-28T22:06:01Z</time></trkpt>
   <trkpt lat="30.915803" lon="34.746336"><ele>517.9</ele><name>TP06856</name><time>2016-12-28T22:06:02Z</time></trkpt>
   <trkpt lat="30.915755" lon="34.746383"><ele>517.6</ele><name>TP06857</name><time>2016-12-28T22:06:03Z</time></trkpt>
   <trkpt lat="30.915708" lon="34.746434"><ele>517.5</ele><name>TP06858</name><time>2016-12-28T22:06:04Z</time></trkpt>
   <trkpt lat="30.915644" lon="34.746542"><ele>517.7</ele><name>TP06859</name><time>2016-12-28T22:06:05Z</time></trkpt>
   <trkpt lat="30.915609" lon="34.746656"><ele>518.4</ele><name>TP06860</name><time>2016-12-28T22:06:07Z</time></trkpt>
   <trkpt lat="30.915609" lon="34.746701"><ele>518.7</ele><name>TP06861</name><time>2016-12-28T22:06:08Z</time></trkpt>
   <trkpt lat="30.915611" lon="34.746742"><ele>519</ele><name>TP06862</name><time>2016-12-28T22:06:09Z</time></trkpt>
   <trkpt lat="30.915621" lon="34.746777"><ele>519.3</ele><name>TP06863</name><time>2016-12-28T22:06:10Z</time></trkpt>
   <trkpt lat="30.915631" lon="34.74681"><ele>519.5</ele><name>TP06864</name><time>2016-12-28T22:06:11Z</time></trkpt>
   <trkpt lat="30.915642" lon="34.746843"><ele>519.7</ele><name>TP06865</name><time>2016-12-28T22:06:12Z</time></trkpt>
   <trkpt lat="30.915655" lon="34.746879"><ele>520</ele><name>TP06866</name><time>2016-12-28T22:06:13Z</time></trkpt>
   <trkpt lat="30.915666" lon="34.746916"><ele>520.2</ele><name>TP06867</name><time>2016-12-28T22:06:14Z</time></trkpt>
   <trkpt lat="30.915679" lon="34.746967"><ele>520.4</ele><name>TP06868</name><time>2016-12-28T22:06:16Z</time></trkpt>
   <trkpt lat="30.915701" lon="34.74702"><ele>520.6</ele><name>TP06869</name><time>2016-12-28T22:06:19Z</time></trkpt>
   <trkpt lat="30.915711" lon="34.747061"><ele>520.8</ele><name>TP06870</name><time>2016-12-28T22:06:20Z</time></trkpt>
   <trkpt lat="30.915716" lon="34.747095"><ele>520.7</ele><name>TP06871</name><time>2016-12-28T22:06:21Z</time></trkpt>
   <trkpt lat="30.915719" lon="34.747145"><ele>520.3</ele><name>TP06872</name><time>2016-12-28T22:06:23Z</time></trkpt>
   <trkpt lat="30.915727" lon="34.747194"><ele>519.8</ele><name>TP06873</name><time>2016-12-28T22:06:24Z</time></trkpt>
   <trkpt lat="30.91574" lon="34.747239"><ele>519.3</ele><name>TP06874</name><time>2016-12-28T22:06:25Z</time></trkpt>
   <trkpt lat="30.915753" lon="34.747282"><ele>518.8</ele><name>TP06875</name><time>2016-12-28T22:06:26Z</time></trkpt>
   <trkpt lat="30.915764" lon="34.74742"><ele>517.4</ele><name>TP06876</name><time>2016-12-28T22:06:28Z</time></trkpt>
   <trkpt lat="30.915756" lon="34.747453"><ele>517.2</ele><name>TP06877</name><time>2016-12-28T22:06:29Z</time></trkpt>
   <trkpt lat="30.915749" lon="34.747489"><ele>516.9</ele><name>TP06878</name><time>2016-12-28T22:06:30Z</time></trkpt>
   <trkpt lat="30.915744" lon="34.747525"><ele>516.6</ele><name>TP06879</name><time>2016-12-28T22:06:31Z</time></trkpt>
   <trkpt lat="30.915737" lon="34.747557"><ele>516.5</ele><name>TP06880</name><time>2016-12-28T22:06:32Z</time></trkpt>
   <trkpt lat="30.915726" lon="34.747611"><ele>516.1</ele><name>TP06881</name><time>2016-12-28T22:06:34Z</time></trkpt>
   <trkpt lat="30.915717" lon="34.747655"><ele>515.9</ele><name>TP06882</name><time>2016-12-28T22:06:36Z</time></trkpt>
   <trkpt lat="30.915692" lon="34.747677"><ele>516</ele><name>TP06883</name><time>2016-12-28T22:06:39Z</time></trkpt>
   <trkpt lat="30.915687" lon="34.747713"><ele>515.8</ele><name>TP06884</name><time>2016-12-28T22:06:40Z</time></trkpt>
   <trkpt lat="30.915677" lon="34.74776"><ele>515.6</ele><name>TP06885</name><time>2016-12-28T22:06:41Z</time></trkpt>
   <trkpt lat="30.915667" lon="34.747806"><ele>515.4</ele><name>TP06886</name><time>2016-12-28T22:06:42Z</time></trkpt>
   <trkpt lat="30.915658" lon="34.74785"><ele>515.2</ele><name>TP06887</name><time>2016-12-28T22:06:43Z</time></trkpt>
   <trkpt lat="30.915652" lon="34.747895"><ele>514.9</ele><name>TP06888</name><time>2016-12-28T22:06:44Z</time></trkpt>
   <trkpt lat="30.915646" lon="34.747939"><ele>514.9</ele><name>TP06889</name><time>2016-12-28T22:06:45Z</time></trkpt>
   <trkpt lat="30.915623" lon="34.748094"><ele>515.4</ele><name>TP06890</name><time>2016-12-28T22:06:47Z</time></trkpt>
   <trkpt lat="30.91561" lon="34.748125"><ele>515.7</ele><name>TP06891</name><time>2016-12-28T22:06:48Z</time></trkpt>
   <trkpt lat="30.915594" lon="34.748155"><ele>515.9</ele><name>TP06892</name><time>2016-12-28T22:06:49Z</time></trkpt>
   <trkpt lat="30.91558" lon="34.74819"><ele>516.2</ele><name>TP06893</name><time>2016-12-28T22:06:50Z</time></trkpt>
   <trkpt lat="30.915565" lon="34.748223"><ele>516.4</ele><name>TP06894</name><time>2016-12-28T22:06:51Z</time></trkpt>
   <trkpt lat="30.915546" lon="34.74825"><ele>516.7</ele><name>TP06895</name><time>2016-12-28T22:06:52Z</time></trkpt>
   <trkpt lat="30.915533" lon="34.748284"><ele>516.9</ele><name>TP06896</name><time>2016-12-28T22:06:54Z</time></trkpt>
   <trkpt lat="30.915514" lon="34.748315"><ele>517.2</ele><name>TP06897</name><time>2016-12-28T22:06:56Z</time></trkpt>
   <trkpt lat="30.915496" lon="34.748379"><ele>517.4</ele><name>TP06898</name><time>2016-12-28T22:06:59Z</time></trkpt>
   <trkpt lat="30.915491" lon="34.748428"><ele>517.4</ele><name>TP06899</name><time>2016-12-28T22:07:00Z</time></trkpt>
   <trkpt lat="30.915485" lon="34.748476"><ele>517.5</ele><name>TP06900</name><time>2016-12-28T22:07:01Z</time></trkpt>
   <trkpt lat="30.915478" lon="34.74852"><ele>517.5</ele><name>TP06901</name><time>2016-12-28T22:07:02Z</time></trkpt>
   <trkpt lat="30.915471" lon="34.748551"><ele>517.6</ele><name>TP06902</name><time>2016-12-28T22:07:03Z</time></trkpt>
   <trkpt lat="30.915462" lon="34.748598"><ele>517.7</ele><name>TP06903</name><time>2016-12-28T22:07:05Z</time></trkpt>
   <trkpt lat="30.915446" lon="34.748635"><ele>517.8</ele><name>TP06904</name><time>2016-12-28T22:07:09Z</time></trkpt>
   <trkpt lat="30.915433" lon="34.748684"><ele>517.9</ele><name>TP06905</name><time>2016-12-28T22:07:12Z</time></trkpt>
   <trkpt lat="30.91542" lon="34.748736"><ele>518</ele><name>TP06906</name><time>2016-12-28T22:07:14Z</time></trkpt>
   <trkpt lat="30.915411" lon="34.748768"><ele>517.9</ele><name>TP06907</name><time>2016-12-28T22:07:15Z</time></trkpt>
   <trkpt lat="30.9154" lon="34.748803"><ele>517.8</ele><name>TP06908</name><time>2016-12-28T22:07:16Z</time></trkpt>
   <trkpt lat="30.915388" lon="34.748835"><ele>517.8</ele><name>TP06909</name><time>2016-12-28T22:07:17Z</time></trkpt>
   <trkpt lat="30.915375" lon="34.748863"><ele>517.7</ele><name>TP06910</name><time>2016-12-28T22:07:18Z</time></trkpt>
   <trkpt lat="30.915347" lon="34.748917"><ele>517.7</ele><name>TP06911</name><time>2016-12-28T22:07:20Z</time></trkpt>
   <trkpt lat="30.915333" lon="34.748948"><ele>517.7</ele><name>TP06912</name><time>2016-12-28T22:07:21Z</time></trkpt>
   <trkpt lat="30.915318" lon="34.748982"><ele>517.8</ele><name>TP06913</name><time>2016-12-28T22:07:22Z</time></trkpt>
   <trkpt lat="30.915302" lon="34.749018"><ele>517.8</ele><name>TP06914</name><time>2016-12-28T22:07:23Z</time></trkpt>
   <trkpt lat="30.915283" lon="34.749052"><ele>518</ele><name>TP06915</name><time>2016-12-28T22:07:24Z</time></trkpt>
   <trkpt lat="30.915263" lon="34.749081"><ele>518.1</ele><name>TP06916</name><time>2016-12-28T22:07:25Z</time></trkpt>
   <trkpt lat="30.915243" lon="34.749113"><ele>518.3</ele><name>TP06917</name><time>2016-12-28T22:07:26Z</time></trkpt>
   <trkpt lat="30.915203" lon="34.749211"><ele>518.9</ele><name>TP06918</name><time>2016-12-28T22:07:28Z</time></trkpt>
   <trkpt lat="30.915183" lon="34.749256"><ele>519.2</ele><name>TP06919</name><time>2016-12-28T22:07:29Z</time></trkpt>
   <trkpt lat="30.915162" lon="34.749298"><ele>519.6</ele><name>TP06920</name><time>2016-12-28T22:07:30Z</time></trkpt>
   <trkpt lat="30.915146" lon="34.749333"><ele>520</ele><name>TP06921</name><time>2016-12-28T22:07:31Z</time></trkpt>
   <trkpt lat="30.915128" lon="34.749367"><ele>520.4</ele><name>TP06922</name><time>2016-12-28T22:07:32Z</time></trkpt>
   <trkpt lat="30.915115" lon="34.749402"><ele>520.8</ele><name>TP06923</name><time>2016-12-28T22:07:33Z</time></trkpt>
   <trkpt lat="30.915106" lon="34.749446"><ele>521.1</ele><name>TP06924</name><time>2016-12-28T22:07:34Z</time></trkpt>
   <trkpt lat="30.915097" lon="34.749476"><ele>521.4</ele><name>TP06925</name><time>2016-12-28T22:07:35Z</time></trkpt>
   <trkpt lat="30.915084" lon="34.749519"><ele>521.9</ele><name>TP06926</name><time>2016-12-28T22:07:37Z</time></trkpt>
   <trkpt lat="30.915073" lon="34.749568"><ele>522.3</ele><name>TP06927</name><time>2016-12-28T22:07:39Z</time></trkpt>
   <trkpt lat="30.915079" lon="34.749641"><ele>522.5</ele><name>TP06928</name><time>2016-12-28T22:07:41Z</time></trkpt>
   <trkpt lat="30.915089" lon="34.749712"><ele>522.4</ele><name>TP06929</name><time>2016-12-28T22:07:42Z</time></trkpt>
   <trkpt lat="30.915099" lon="34.749792"><ele>522.5</ele><name>TP06930</name><time>2016-12-28T22:07:43Z</time></trkpt>
   <trkpt lat="30.915112" lon="34.749859"><ele>522.4</ele><name>TP06931</name><time>2016-12-28T22:07:44Z</time></trkpt>
   <trkpt lat="30.915128" lon="34.749916"><ele>522.2</ele><name>TP06932</name><time>2016-12-28T22:07:45Z</time></trkpt>
   <trkpt lat="30.915181" lon="34.750128"><ele>521.6</ele><name>TP06933</name><time>2016-12-28T22:07:48Z</time></trkpt>
   <trkpt lat="30.91518" lon="34.75016"><ele>521.7</ele><name>TP06934</name><time>2016-12-28T22:07:49Z</time></trkpt>
   <trkpt lat="30.915169" lon="34.750191"><ele>522</ele><name>TP06935</name><time>2016-12-28T22:07:50Z</time></trkpt>
   <trkpt lat="30.915159" lon="34.750223"><ele>522.3</ele><name>TP06936</name><time>2016-12-28T22:07:51Z</time></trkpt>
   <trkpt lat="30.915139" lon="34.750257"><ele>522.9</ele><name>TP06937</name><time>2016-12-28T22:07:52Z</time></trkpt>
   <trkpt lat="30.915125" lon="34.750288"><ele>523.3</ele><name>TP06938</name><time>2016-12-28T22:07:53Z</time></trkpt>
   <trkpt lat="30.915111" lon="34.750322"><ele>523.7</ele><name>TP06939</name><time>2016-12-28T22:07:54Z</time></trkpt>
   <trkpt lat="30.915102" lon="34.750369"><ele>524</ele><name>TP06940</name><time>2016-12-28T22:07:56Z</time></trkpt>
   <trkpt lat="30.915103" lon="34.75042"><ele>524.2</ele><name>TP06941</name><time>2016-12-28T22:07:58Z</time></trkpt>
   <trkpt lat="30.915112" lon="34.750475"><ele>524.4</ele><name>TP06942</name><time>2016-12-28T22:08:00Z</time></trkpt>
   <trkpt lat="30.915124" lon="34.75053"><ele>524.5</ele><name>TP06943</name><time>2016-12-28T22:08:02Z</time></trkpt>
   <trkpt lat="30.915133" lon="34.750591"><ele>524.7</ele><name>TP06944</name><time>2016-12-28T22:08:04Z</time></trkpt>
   <trkpt lat="30.915145" lon="34.750651"><ele>524.9</ele><name>TP06945</name><time>2016-12-28T22:08:06Z</time></trkpt>
   <trkpt lat="30.915173" lon="34.750724"><ele>524.9</ele><name>TP06946</name><time>2016-12-28T22:08:08Z</time></trkpt>
   <trkpt lat="30.915216" lon="34.750791"><ele>524.5</ele><name>TP06947</name><time>2016-12-28T22:08:10Z</time></trkpt>
   <trkpt lat="30.915237" lon="34.750825"><ele>524.4</ele><name>TP06948</name><time>2016-12-28T22:08:11Z</time></trkpt>
   <trkpt lat="30.915262" lon="34.750863"><ele>524.2</ele><name>TP06949</name><time>2016-12-28T22:08:12Z</time></trkpt>
   <trkpt lat="30.915283" lon="34.750898"><ele>524.1</ele><name>TP06950</name><time>2016-12-28T22:08:13Z</time></trkpt>
   <trkpt lat="30.915304" lon="34.750938"><ele>524.1</ele><name>TP06951</name><time>2016-12-28T22:08:14Z</time></trkpt>
   <trkpt lat="30.915322" lon="34.750981"><ele>524.1</ele><name>TP06952</name><time>2016-12-28T22:08:15Z</time></trkpt>
   <trkpt lat="30.915338" lon="34.751028"><ele>524.2</ele><name>TP06953</name><time>2016-12-28T22:08:16Z</time></trkpt>
   <trkpt lat="30.915353" lon="34.751077"><ele>524.4</ele><name>TP06954</name><time>2016-12-28T22:08:17Z</time></trkpt>
   <trkpt lat="30.915362" lon="34.751126"><ele>524.7</ele><name>TP06955</name><time>2016-12-28T22:08:18Z</time></trkpt>
   <trkpt lat="30.915366" lon="34.751174"><ele>525.1</ele><name>TP06956</name><time>2016-12-28T22:08:19Z</time></trkpt>
   <trkpt lat="30.915368" lon="34.751219"><ele>525.5</ele><name>TP06957</name><time>2016-12-28T22:08:20Z</time></trkpt>
   <trkpt lat="30.915365" lon="34.751257"><ele>525.9</ele><name>TP06958</name><time>2016-12-28T22:08:21Z</time></trkpt>
   <trkpt lat="30.915361" lon="34.751296"><ele>526.3</ele><name>TP06959</name><time>2016-12-28T22:08:22Z</time></trkpt>
   <trkpt lat="30.915358" lon="34.751335"><ele>526.7</ele><name>TP06960</name><time>2016-12-28T22:08:23Z</time></trkpt>
   <trkpt lat="30.91536" lon="34.751372"><ele>527.1</ele><name>TP06961</name><time>2016-12-28T22:08:24Z</time></trkpt>
   <trkpt lat="30.915364" lon="34.751411"><ele>527.4</ele><name>TP06962</name><time>2016-12-28T22:08:25Z</time></trkpt>
   <trkpt lat="30.915367" lon="34.751454"><ele>527.8</ele><name>TP06963</name><time>2016-12-28T22:08:26Z</time></trkpt>
   <trkpt lat="30.915368" lon="34.751497"><ele>528.2</ele><name>TP06964</name><time>2016-12-28T22:08:27Z</time></trkpt>
   <trkpt lat="30.915361" lon="34.75155"><ele>528.8</ele><name>TP06965</name><time>2016-12-28T22:08:29Z</time></trkpt>
   <trkpt lat="30.915353" lon="34.751598"><ele>529.3</ele><name>TP06966</name><time>2016-12-28T22:08:30Z</time></trkpt>
   <trkpt lat="30.915342" lon="34.751644"><ele>529.9</ele><name>TP06967</name><time>2016-12-28T22:08:31Z</time></trkpt>
   <trkpt lat="30.915329" lon="34.751683"><ele>530.3</ele><name>TP06968</name><time>2016-12-28T22:08:32Z</time></trkpt>
   <trkpt lat="30.915311" lon="34.751721"><ele>530.8</ele><name>TP06969</name><time>2016-12-28T22:08:33Z</time></trkpt>
   <trkpt lat="30.915293" lon="34.751757"><ele>531.2</ele><name>TP06970</name><time>2016-12-28T22:08:34Z</time></trkpt>
   <trkpt lat="30.915277" lon="34.751794"><ele>531.6</ele><name>TP06971</name><time>2016-12-28T22:08:35Z</time></trkpt>
   <trkpt lat="30.915263" lon="34.751833"><ele>532</ele><name>TP06972</name><time>2016-12-28T22:08:36Z</time></trkpt>
   <trkpt lat="30.915258" lon="34.751878"><ele>532.4</ele><name>TP06973</name><time>2016-12-28T22:08:37Z</time></trkpt>
   <trkpt lat="30.91526" lon="34.751919"><ele>532.7</ele><name>TP06974</name><time>2016-12-28T22:08:38Z</time></trkpt>
   <trkpt lat="30.915259" lon="34.751962"><ele>533</ele><name>TP06975</name><time>2016-12-28T22:08:39Z</time></trkpt>
   <trkpt lat="30.915257" lon="34.752006"><ele>533.4</ele><name>TP06976</name><time>2016-12-28T22:08:40Z</time></trkpt>
   <trkpt lat="30.915249" lon="34.75205"><ele>533.7</ele><name>TP06977</name><time>2016-12-28T22:08:41Z</time></trkpt>
   <trkpt lat="30.915235" lon="34.752093"><ele>534.1</ele><name>TP06978</name><time>2016-12-28T22:08:42Z</time></trkpt>
   <trkpt lat="30.915218" lon="34.752133"><ele>534.5</ele><name>TP06979</name><time>2016-12-28T22:08:43Z</time></trkpt>
   <trkpt lat="30.915206" lon="34.752176"><ele>534.9</ele><name>TP06980</name><time>2016-12-28T22:08:44Z</time></trkpt>
   <trkpt lat="30.915197" lon="34.752222"><ele>535.4</ele><name>TP06981</name><time>2016-12-28T22:08:45Z</time></trkpt>
   <trkpt lat="30.915188" lon="34.75227"><ele>535.8</ele><name>TP06982</name><time>2016-12-28T22:08:46Z</time></trkpt>
   <trkpt lat="30.915178" lon="34.752314"><ele>536.3</ele><name>TP06983</name><time>2016-12-28T22:08:47Z</time></trkpt>
   <trkpt lat="30.915169" lon="34.752363"><ele>536.7</ele><name>TP06984</name><time>2016-12-28T22:08:48Z</time></trkpt>
   <trkpt lat="30.915163" lon="34.752419"><ele>537.3</ele><name>TP06985</name><time>2016-12-28T22:08:49Z</time></trkpt>
   <trkpt lat="30.915155" lon="34.752479"><ele>537.8</ele><name>TP06986</name><time>2016-12-28T22:08:50Z</time></trkpt>
   <trkpt lat="30.915143" lon="34.752544"><ele>538.4</ele><name>TP06987</name><time>2016-12-28T22:08:51Z</time></trkpt>
   <trkpt lat="30.915125" lon="34.752604"><ele>539</ele><name>TP06988</name><time>2016-12-28T22:08:52Z</time></trkpt>
   <trkpt lat="30.915099" lon="34.75266"><ele>539.4</ele><name>TP06989</name><time>2016-12-28T22:08:53Z</time></trkpt>
   <trkpt lat="30.915065" lon="34.752711"><ele>539.8</ele><name>TP06990</name><time>2016-12-28T22:08:54Z</time></trkpt>
   <trkpt lat="30.915021" lon="34.752754"><ele>540.1</ele><name>TP06991</name><time>2016-12-28T22:08:55Z</time></trkpt>
   <trkpt lat="30.914969" lon="34.752785"><ele>540.2</ele><name>TP06992</name><time>2016-12-28T22:08:56Z</time></trkpt>
   <trkpt lat="30.91487" lon="34.752834"><ele>540.3</ele><name>TP06993</name><time>2016-12-28T22:08:57Z</time></trkpt>
   <trkpt lat="30.914709" lon="34.752891"><ele>540.3</ele><name>TP06994</name><time>2016-12-28T22:08:59Z</time></trkpt>
   <trkpt lat="30.914655" lon="34.752894"><ele>540.1</ele><name>TP06995</name><time>2016-12-28T22:09:00Z</time></trkpt>
   <trkpt lat="30.914602" lon="34.752879"><ele>539.8</ele><name>TP06996</name><time>2016-12-28T22:09:01Z</time></trkpt>
   <trkpt lat="30.914554" lon="34.752861"><ele>539.3</ele><name>TP06997</name><time>2016-12-28T22:09:02Z</time></trkpt>
   <trkpt lat="30.914507" lon="34.752846"><ele>538.8</ele><name>TP06998</name><time>2016-12-28T22:09:03Z</time></trkpt>
   <trkpt lat="30.914463" lon="34.752831"><ele>538.3</ele><name>TP06999</name><time>2016-12-28T22:09:04Z</time></trkpt>
   <trkpt lat="30.914416" lon="34.752828"><ele>537.8</ele><name>TP07000</name><time>2016-12-28T22:09:05Z</time></trkpt>
   <trkpt lat="30.914372" lon="34.752826"><ele>537.4</ele><name>TP07001</name><time>2016-12-28T22:09:06Z</time></trkpt>
   <trkpt lat="30.914334" lon="34.752838"><ele>537.2</ele><name>TP07002</name><time>2016-12-28T22:09:07Z</time></trkpt>
   <trkpt lat="30.914287" lon="34.752855"><ele>536.9</ele><name>TP07003</name><time>2016-12-28T22:09:08Z</time></trkpt>
   <trkpt lat="30.914253" lon="34.752888"><ele>536.9</ele><name>TP07004</name><time>2016-12-28T22:09:09Z</time></trkpt>
   <trkpt lat="30.91422" lon="34.752936"><ele>537.1</ele><name>TP07005</name><time>2016-12-28T22:09:10Z</time></trkpt>
   <trkpt lat="30.914193" lon="34.752995"><ele>537.5</ele><name>TP07006</name><time>2016-12-28T22:09:11Z</time></trkpt>
   <trkpt lat="30.91417" lon="34.753055"><ele>537.9</ele><name>TP07007</name><time>2016-12-28T22:09:12Z</time></trkpt>
   <trkpt lat="30.914145" lon="34.753116"><ele>538.4</ele><name>TP07008</name><time>2016-12-28T22:09:13Z</time></trkpt>
   <trkpt lat="30.914114" lon="34.753176"><ele>538.9</ele><name>TP07009</name><time>2016-12-28T22:09:14Z</time></trkpt>
   <trkpt lat="30.914073" lon="34.753222"><ele>539.2</ele><name>TP07010</name><time>2016-12-28T22:09:15Z</time></trkpt>
   <trkpt lat="30.914025" lon="34.753265"><ele>539.5</ele><name>TP07011</name><time>2016-12-28T22:09:16Z</time></trkpt>
   <trkpt lat="30.91398" lon="34.753299"><ele>539.8</ele><name>TP07012</name><time>2016-12-28T22:09:17Z</time></trkpt>
   <trkpt lat="30.913927" lon="34.753322"><ele>539.9</ele><name>TP07013</name><time>2016-12-28T22:09:18Z</time></trkpt>
   <trkpt lat="30.913873" lon="34.753323"><ele>539.7</ele><name>TP07014</name><time>2016-12-28T22:09:19Z</time></trkpt>
   <trkpt lat="30.913823" lon="34.753301"><ele>539.2</ele><name>TP07015</name><time>2016-12-28T22:09:20Z</time></trkpt>
   <trkpt lat="30.91377" lon="34.753281"><ele>538.8</ele><name>TP07016</name><time>2016-12-28T22:09:21Z</time></trkpt>
   <trkpt lat="30.913714" lon="34.753275"><ele>538.3</ele><name>TP07017</name><time>2016-12-28T22:09:22Z</time></trkpt>
   <trkpt lat="30.913661" lon="34.753278"><ele>537.9</ele><name>TP07018</name><time>2016-12-28T22:09:23Z</time></trkpt>
   <trkpt lat="30.913615" lon="34.753287"><ele>537.6</ele><name>TP07019</name><time>2016-12-28T22:09:24Z</time></trkpt>
   <trkpt lat="30.91357" lon="34.753304"><ele>537.5</ele><name>TP07020</name><time>2016-12-28T22:09:25Z</time></trkpt>
   <trkpt lat="30.91353" lon="34.753326"><ele>537.5</ele><name>TP07021</name><time>2016-12-28T22:09:26Z</time></trkpt>
   <trkpt lat="30.913488" lon="34.753356"><ele>537.7</ele><name>TP07022</name><time>2016-12-28T22:09:27Z</time></trkpt>
   <trkpt lat="30.913448" lon="34.753395"><ele>537.9</ele><name>TP07023</name><time>2016-12-28T22:09:28Z</time></trkpt>
   <trkpt lat="30.91341" lon="34.753439"><ele>538.3</ele><name>TP07024</name><time>2016-12-28T22:09:29Z</time></trkpt>
   <trkpt lat="30.913372" lon="34.75349"><ele>538.8</ele><name>TP07025</name><time>2016-12-28T22:09:30Z</time></trkpt>
   <trkpt lat="30.913342" lon="34.753539"><ele>539.3</ele><name>TP07026</name><time>2016-12-28T22:09:31Z</time></trkpt>
   <trkpt lat="30.913296" lon="34.753582"><ele>539.6</ele><name>TP07027</name><time>2016-12-28T22:09:32Z</time></trkpt>
   <trkpt lat="30.913247" lon="34.753624"><ele>539.8</ele><name>TP07028</name><time>2016-12-28T22:09:33Z</time></trkpt>
   <trkpt lat="30.913187" lon="34.753657"><ele>539.8</ele><name>TP07029</name><time>2016-12-28T22:09:34Z</time></trkpt>
   <trkpt lat="30.913132" lon="34.753682"><ele>539.7</ele><name>TP07030</name><time>2016-12-28T22:09:35Z</time></trkpt>
   <trkpt lat="30.913072" lon="34.753699"><ele>539.5</ele><name>TP07031</name><time>2016-12-28T22:09:36Z</time></trkpt>
   <trkpt lat="30.913011" lon="34.753707"><ele>539.1</ele><name>TP07032</name><time>2016-12-28T22:09:37Z</time></trkpt>
   <trkpt lat="30.912956" lon="34.753702"><ele>538.6</ele><name>TP07033</name><time>2016-12-28T22:09:38Z</time></trkpt>
   <trkpt lat="30.912902" lon="34.753695"><ele>538.1</ele><name>TP07034</name><time>2016-12-28T22:09:39Z</time></trkpt>
   <trkpt lat="30.912853" lon="34.753672"><ele>537.8</ele><name>TP07035</name><time>2016-12-28T22:09:40Z</time></trkpt>
   <trkpt lat="30.9128" lon="34.753639"><ele>537.4</ele><name>TP07036</name><time>2016-12-28T22:09:41Z</time></trkpt>
   <trkpt lat="30.912739" lon="34.753609"><ele>537.1</ele><name>TP07037</name><time>2016-12-28T22:09:42Z</time></trkpt>
   <trkpt lat="30.912675" lon="34.753586"><ele>537</ele><name>TP07038</name><time>2016-12-28T22:09:43Z</time></trkpt>
   <trkpt lat="30.912618" lon="34.75356"><ele>536.9</ele><name>TP07039</name><time>2016-12-28T22:09:44Z</time></trkpt>
   <trkpt lat="30.912561" lon="34.753541"><ele>536.9</ele><name>TP07040</name><time>2016-12-28T22:09:45Z</time></trkpt>
   <trkpt lat="30.912516" lon="34.753521"><ele>536.9</ele><name>TP07041</name><time>2016-12-28T22:09:46Z</time></trkpt>
   <trkpt lat="30.912474" lon="34.753498"><ele>536.9</ele><name>TP07042</name><time>2016-12-28T22:09:47Z</time></trkpt>
   <trkpt lat="30.912432" lon="34.75348"><ele>537</ele><name>TP07043</name><time>2016-12-28T22:09:48Z</time></trkpt>
   <trkpt lat="30.912393" lon="34.753457"><ele>537.1</ele><name>TP07044</name><time>2016-12-28T22:09:49Z</time></trkpt>
   <trkpt lat="30.912356" lon="34.753429"><ele>537.2</ele><name>TP07045</name><time>2016-12-28T22:09:50Z</time></trkpt>
   <trkpt lat="30.912321" lon="34.753404"><ele>537.3</ele><name>TP07046</name><time>2016-12-28T22:09:51Z</time></trkpt>
   <trkpt lat="30.912288" lon="34.75339"><ele>537.5</ele><name>TP07047</name><time>2016-12-28T22:09:52Z</time></trkpt>
   <trkpt lat="30.912252" lon="34.753397"><ele>537.8</ele><name>TP07048</name><time>2016-12-28T22:09:53Z</time></trkpt>
   <trkpt lat="30.912226" lon="34.753373"><ele>537.9</ele><name>TP07049</name><time>2016-12-28T22:09:56Z</time></trkpt>
   <trkpt lat="30.912248" lon="34.75335"><ele>537.7</ele><name>TP07050</name><time>2016-12-28T22:09:59Z</time></trkpt>
   <trkpt lat="30.912279" lon="34.753363"><ele>537.5</ele><name>TP07051</name><time>2016-12-28T22:10:02Z</time></trkpt>
   <trkpt lat="30.912305" lon="34.753373"><ele>537.4</ele><name>TP07052</name><time>2016-12-28T22:10:05Z</time></trkpt>
   <trkpt lat="30.912343" lon="34.753388"><ele>537.2</ele><name>TP07053</name><time>2016-12-28T22:10:07Z</time></trkpt>
   <trkpt lat="30.912372" lon="34.753403"><ele>537</ele><name>TP07054</name><time>2016-12-28T22:10:08Z</time></trkpt>
   <trkpt lat="30.912406" lon="34.753423"><ele>536.9</ele><name>TP07055</name><time>2016-12-28T22:10:09Z</time></trkpt>
   <trkpt lat="30.912483" lon="34.753476"><ele>536.8</ele><name>TP07056</name><time>2016-12-28T22:10:11Z</time></trkpt>
   <trkpt lat="30.912524" lon="34.753504"><ele>536.8</ele><name>TP07057</name><time>2016-12-28T22:10:12Z</time></trkpt>
   <trkpt lat="30.912578" lon="34.753534"><ele>536.8</ele><name>TP07058</name><time>2016-12-28T22:10:13Z</time></trkpt>
   <trkpt lat="30.912667" lon="34.753577"><ele>536.9</ele><name>TP07059</name><time>2016-12-28T22:10:15Z</time></trkpt>
   <trkpt lat="30.91272" lon="34.753603"><ele>537.1</ele><name>TP07060</name><time>2016-12-28T22:10:16Z</time></trkpt>
   <trkpt lat="30.912769" lon="34.753625"><ele>537.3</ele><name>TP07061</name><time>2016-12-28T22:10:17Z</time></trkpt>
   <trkpt lat="30.912824" lon="34.753656"><ele>537.6</ele><name>TP07062</name><time>2016-12-28T22:10:18Z</time></trkpt>
   <trkpt lat="30.91287" lon="34.753684"><ele>538</ele><name>TP07063</name><time>2016-12-28T22:10:19Z</time></trkpt>
   <trkpt lat="30.912923" lon="34.753706"><ele>538.4</ele><name>TP07064</name><time>2016-12-28T22:10:20Z</time></trkpt>
   <trkpt lat="30.912978" lon="34.753714"><ele>539</ele><name>TP07065</name><time>2016-12-28T22:10:21Z</time></trkpt>
   <trkpt lat="30.913025" lon="34.753715"><ele>539.4</ele><name>TP07066</name><time>2016-12-28T22:10:22Z</time></trkpt>
   <trkpt lat="30.91307" lon="34.753716"><ele>539.8</ele><name>TP07067</name><time>2016-12-28T22:10:23Z</time></trkpt>
   <trkpt lat="30.913113" lon="34.753699"><ele>539.9</ele><name>TP07068</name><time>2016-12-28T22:10:24Z</time></trkpt>
   <trkpt lat="30.913155" lon="34.753685"><ele>540</ele><name>TP07069</name><time>2016-12-28T22:10:25Z</time></trkpt>
   <trkpt lat="30.913191" lon="34.753669"><ele>540</ele><name>TP07070</name><time>2016-12-28T22:10:26Z</time></trkpt>
   <trkpt lat="30.913229" lon="34.753645"><ele>540</ele><name>TP07071</name><time>2016-12-28T22:10:27Z</time></trkpt>
   <trkpt lat="30.913265" lon="34.753619"><ele>539.9</ele><name>TP07072</name><time>2016-12-28T22:10:28Z</time></trkpt>
   <trkpt lat="30.913302" lon="34.753589"><ele>539.7</ele><name>TP07073</name><time>2016-12-28T22:10:29Z</time></trkpt>
   <trkpt lat="30.913336" lon="34.75355"><ele>539.4</ele><name>TP07074</name><time>2016-12-28T22:10:30Z</time></trkpt>
   <trkpt lat="30.913365" lon="34.753508"><ele>539</ele><name>TP07075</name><time>2016-12-28T22:10:31Z</time></trkpt>
   <trkpt lat="30.913395" lon="34.753459"><ele>538.5</ele><name>TP07076</name><time>2016-12-28T22:10:32Z</time></trkpt>
   <trkpt lat="30.913427" lon="34.753419"><ele>538.1</ele><name>TP07077</name><time>2016-12-28T22:10:33Z</time></trkpt>
   <trkpt lat="30.913456" lon="34.753377"><ele>537.7</ele><name>TP07078</name><time>2016-12-28T22:10:34Z</time></trkpt>
   <trkpt lat="30.913489" lon="34.75334"><ele>537.4</ele><name>TP07079</name><time>2016-12-28T22:10:35Z</time></trkpt>
   <trkpt lat="30.913528" lon="34.753311"><ele>537.3</ele><name>TP07080</name><time>2016-12-28T22:10:36Z</time></trkpt>
   <trkpt lat="30.91357" lon="34.753291"><ele>537.3</ele><name>TP07081</name><time>2016-12-28T22:10:37Z</time></trkpt>
   <trkpt lat="30.913615" lon="34.753277"><ele>537.5</ele><name>TP07082</name><time>2016-12-28T22:10:38Z</time></trkpt>
   <trkpt lat="30.913665" lon="34.753268"><ele>537.8</ele><name>TP07083</name><time>2016-12-28T22:10:39Z</time></trkpt>
   <trkpt lat="30.913718" lon="34.753265"><ele>538.2</ele><name>TP07084</name><time>2016-12-28T22:10:40Z</time></trkpt>
   <trkpt lat="30.913775" lon="34.753266"><ele>538.5</ele><name>TP07085</name><time>2016-12-28T22:10:41Z</time></trkpt>
   <trkpt lat="30.913828" lon="34.753282"><ele>539</ele><name>TP07086</name><time>2016-12-28T22:10:42Z</time></trkpt>
   <trkpt lat="30.913874" lon="34.753304"><ele>539.5</ele><name>TP07087</name><time>2016-12-28T22:10:43Z</time></trkpt>
   <trkpt lat="30.913924" lon="34.753316"><ele>539.8</ele><name>TP07088</name><time>2016-12-28T22:10:44Z</time></trkpt>
   <trkpt lat="30.913975" lon="34.753303"><ele>539.8</ele><name>TP07089</name><time>2016-12-28T22:10:45Z</time></trkpt>
   <trkpt lat="30.91402" lon="34.75327"><ele>539.5</ele><name>TP07090</name><time>2016-12-28T22:10:46Z</time></trkpt>
   <trkpt lat="30.914065" lon="34.753234"><ele>539.3</ele><name>TP07091</name><time>2016-12-28T22:10:47Z</time></trkpt>
   <trkpt lat="30.91411" lon="34.753188"><ele>539</ele><name>TP07092</name><time>2016-12-28T22:10:48Z</time></trkpt>
   <trkpt lat="30.914146" lon="34.753134"><ele>538.6</ele><name>TP07093</name><time>2016-12-28T22:10:49Z</time></trkpt>
   <trkpt lat="30.91417" lon="34.75307"><ele>538.1</ele><name>TP07094</name><time>2016-12-28T22:10:50Z</time></trkpt>
   <trkpt lat="30.914189" lon="34.753007"><ele>537.6</ele><name>TP07095</name><time>2016-12-28T22:10:51Z</time></trkpt>
   <trkpt lat="30.914213" lon="34.752947"><ele>537.2</ele><name>TP07096</name><time>2016-12-28T22:10:52Z</time></trkpt>
   <trkpt lat="30.914244" lon="34.752901"><ele>537</ele><name>TP07097</name><time>2016-12-28T22:10:53Z</time></trkpt>
   <trkpt lat="30.914276" lon="34.752861"><ele>536.9</ele><name>TP07098</name><time>2016-12-28T22:10:54Z</time></trkpt>
   <trkpt lat="30.914319" lon="34.752835"><ele>537</ele><name>TP07099</name><time>2016-12-28T22:10:55Z</time></trkpt>
   <trkpt lat="30.914368" lon="34.752823"><ele>537.3</ele><name>TP07100</name><time>2016-12-28T22:10:56Z</time></trkpt>
   <trkpt lat="30.914424" lon="34.752827"><ele>537.9</ele><name>TP07101</name><time>2016-12-28T22:10:57Z</time></trkpt>
   <trkpt lat="30.914482" lon="34.752836"><ele>538.5</ele><name>TP07102</name><time>2016-12-28T22:10:58Z</time></trkpt>
   <trkpt lat="30.914545" lon="34.752851"><ele>539.2</ele><name>TP07103</name><time>2016-12-28T22:10:59Z</time></trkpt>
   <trkpt lat="30.914605" lon="34.75287"><ele>539.7</ele><name>TP07104</name><time>2016-12-28T22:11:00Z</time></trkpt>
   <trkpt lat="30.914667" lon="34.75289"><ele>540.1</ele><name>TP07105</name><time>2016-12-28T22:11:01Z</time></trkpt>
   <trkpt lat="30.914729" lon="34.752891"><ele>540.3</ele><name>TP07106</name><time>2016-12-28T22:11:02Z</time></trkpt>
   <trkpt lat="30.914794" lon="34.752874"><ele>540.4</ele><name>TP07107</name><time>2016-12-28T22:11:03Z</time></trkpt>
   <trkpt lat="30.914857" lon="34.752853"><ele>540.5</ele><name>TP07108</name><time>2016-12-28T22:11:04Z</time></trkpt>
   <trkpt lat="30.914911" lon="34.752834"><ele>540.5</ele><name>TP07109</name><time>2016-12-28T22:11:05Z</time></trkpt>
   <trkpt lat="30.914962" lon="34.75282"><ele>540.5</ele><name>TP07110</name><time>2016-12-28T22:11:06Z</time></trkpt>
   <trkpt lat="30.915009" lon="34.752797"><ele>540.5</ele><name>TP07111</name><time>2016-12-28T22:11:07Z</time></trkpt>
   <trkpt lat="30.915052" lon="34.752765"><ele>540.3</ele><name>TP07112</name><time>2016-12-28T22:11:08Z</time></trkpt>
   <trkpt lat="30.915091" lon="34.752717"><ele>540</ele><name>TP07113</name><time>2016-12-28T22:11:09Z</time></trkpt>
   <trkpt lat="30.915119" lon="34.752666"><ele>539.5</ele><name>TP07114</name><time>2016-12-28T22:11:10Z</time></trkpt>
   <trkpt lat="30.915138" lon="34.752608"><ele>539</ele><name>TP07115</name><time>2016-12-28T22:11:11Z</time></trkpt>
   <trkpt lat="30.915154" lon="34.752548"><ele>538.5</ele><name>TP07116</name><time>2016-12-28T22:11:12Z</time></trkpt>
   <trkpt lat="30.915163" lon="34.75249"><ele>537.9</ele><name>TP07117</name><time>2016-12-28T22:11:13Z</time></trkpt>
   <trkpt lat="30.915168" lon="34.752433"><ele>537.4</ele><name>TP07118</name><time>2016-12-28T22:11:14Z</time></trkpt>
   <trkpt lat="30.915175" lon="34.752376"><ele>536.9</ele><name>TP07119</name><time>2016-12-28T22:11:15Z</time></trkpt>
   <trkpt lat="30.915189" lon="34.75232"><ele>536.3</ele><name>TP07120</name><time>2016-12-28T22:11:16Z</time></trkpt>
   <trkpt lat="30.915202" lon="34.752271"><ele>535.9</ele><name>TP07121</name><time>2016-12-28T22:11:17Z</time></trkpt>
   <trkpt lat="30.915211" lon="34.752224"><ele>535.4</ele><name>TP07122</name><time>2016-12-28T22:11:18Z</time></trkpt>
   <trkpt lat="30.915222" lon="34.752176"><ele>534.9</ele><name>TP07123</name><time>2016-12-28T22:11:19Z</time></trkpt>
   <trkpt lat="30.915236" lon="34.752134"><ele>534.5</ele><name>TP07124</name><time>2016-12-28T22:11:20Z</time></trkpt>
   <trkpt lat="30.915255" lon="34.752102"><ele>534.2</ele><name>TP07125</name><time>2016-12-28T22:11:21Z</time></trkpt>
   <trkpt lat="30.915278" lon="34.752078"><ele>534</ele><name>TP07126</name><time>2016-12-28T22:11:22Z</time></trkpt>
   <trkpt lat="30.915312" lon="34.752077"><ele>533.9</ele><name>TP07127</name><time>2016-12-28T22:11:25Z</time></trkpt>
   <trkpt lat="30.915346" lon="34.752107"><ele>534.2</ele><name>TP07128</name><time>2016-12-28T22:11:28Z</time></trkpt>
   <trkpt lat="30.91537" lon="34.752124"><ele>534.4</ele><name>TP07129</name><time>2016-12-28T22:11:29Z</time></trkpt>
   <trkpt lat="30.915413" lon="34.752156"><ele>534.8</ele><name>TP07130</name><time>2016-12-28T22:11:31Z</time></trkpt>
   <trkpt lat="30.915457" lon="34.752188"><ele>535.4</ele><name>TP07131</name><time>2016-12-28T22:11:33Z</time></trkpt>
   <trkpt lat="30.91548" lon="34.752212"><ele>535.9</ele><name>TP07132</name><time>2016-12-28T22:11:34Z</time></trkpt>
   <trkpt lat="30.915501" lon="34.752239"><ele>536.3</ele><name>TP07133</name><time>2016-12-28T22:11:35Z</time></trkpt>
   <trkpt lat="30.915523" lon="34.752268"><ele>536.7</ele><name>TP07134</name><time>2016-12-28T22:11:36Z</time></trkpt>
   <trkpt lat="30.915549" lon="34.752297"><ele>537.2</ele><name>TP07135</name><time>2016-12-28T22:11:37Z</time></trkpt>
   <trkpt lat="30.915586" lon="34.75233"><ele>537.8</ele><name>TP07136</name><time>2016-12-28T22:11:38Z</time></trkpt>
   <trkpt lat="30.915637" lon="34.752366"><ele>538.5</ele><name>TP07137</name><time>2016-12-28T22:11:40Z</time></trkpt>
   <trkpt lat="30.915687" lon="34.752376"><ele>538.9</ele><name>TP07138</name><time>2016-12-28T22:11:42Z</time></trkpt>
   <trkpt lat="30.915723" lon="34.752377"><ele>539.1</ele><name>TP07139</name><time>2016-12-28T22:11:43Z</time></trkpt>
   <trkpt lat="30.915757" lon="34.752376"><ele>539.3</ele><name>TP07140</name><time>2016-12-28T22:11:44Z</time></trkpt>
   <trkpt lat="30.915788" lon="34.752377"><ele>539.5</ele><name>TP07141</name><time>2016-12-28T22:11:45Z</time></trkpt>
   <trkpt lat="30.915827" lon="34.752393"><ele>539.9</ele><name>TP07142</name><time>2016-12-28T22:11:47Z</time></trkpt>
   <trkpt lat="30.915851" lon="34.752425"><ele>540.3</ele><name>TP07143</name><time>2016-12-28T22:11:49Z</time></trkpt>
   <trkpt lat="30.915869" lon="34.752461"><ele>540.6</ele><name>TP07144</name><time>2016-12-28T22:11:51Z</time></trkpt>
   <trkpt lat="30.915897" lon="34.752488"><ele>541</ele><name>TP07145</name><time>2016-12-28T22:11:53Z</time></trkpt>
   <trkpt lat="30.915933" lon="34.752496"><ele>541.3</ele><name>TP07146</name><time>2016-12-28T22:11:55Z</time></trkpt>
   <trkpt lat="30.915944" lon="34.752467"><ele>541.1</ele><name>TP07147</name><time>2016-12-28T22:12:02Z</time></trkpt>
   <trkpt lat="30.91592" lon="34.752441"><ele>540.8</ele><name>TP07148</name><time>2016-12-28T22:12:05Z</time></trkpt>
   <trkpt lat="30.915896" lon="34.752416"><ele>540.5</ele><name>TP07149</name><time>2016-12-28T22:12:27Z</time></trkpt>
   <trkpt lat="30.915867" lon="34.752421"><ele>540.3</ele><name>TP07150</name><time>2016-12-28T22:12:41Z</time></trkpt>
   <trkpt lat="30.915894" lon="34.752432"><ele>540.6</ele><name>TP07151</name><time>2016-12-28T22:13:09Z</time></trkpt>
   <trkpt lat="30.915921" lon="34.752447"><ele>540.8</ele><name>TP07152</name><time>2016-12-28T22:13:12Z</time></trkpt>
   <trkpt lat="30.91595" lon="34.752466"><ele>541.1</ele><name>TP07153</name><time>2016-12-28T22:13:20Z</time></trkpt>
   <trkpt lat="30.915977" lon="34.75248"><ele>541.4</ele><name>TP07154</name><time>2016-12-28T22:13:23Z</time></trkpt>
   <trkpt lat="30.916006" lon="34.752499"><ele>541.7</ele><name>TP07155</name><time>2016-12-28T22:13:27Z</time></trkpt>
   <trkpt lat="30.916038" lon="34.752524"><ele>542</ele><name>TP07156</name><time>2016-12-28T22:13:30Z</time></trkpt>
   <trkpt lat="30.916069" lon="34.752532"><ele>542.2</ele><name>TP07157</name><time>2016-12-28T22:13:32Z</time></trkpt>
   <trkpt lat="30.916104" lon="34.752543"><ele>542.5</ele><name>TP07158</name><time>2016-12-28T22:13:34Z</time></trkpt>
   <trkpt lat="30.916145" lon="34.752558"><ele>542.8</ele><name>TP07159</name><time>2016-12-28T22:13:36Z</time></trkpt>
   <trkpt lat="30.916188" lon="34.752576"><ele>543.1</ele><name>TP07160</name><time>2016-12-28T22:13:38Z</time></trkpt>
   <trkpt lat="30.916237" lon="34.752595"><ele>543.4</ele><name>TP07161</name><time>2016-12-28T22:13:40Z</time></trkpt>
   <trkpt lat="30.916265" lon="34.752611"><ele>543.4</ele><name>TP07162</name><time>2016-12-28T22:13:41Z</time></trkpt>
   <trkpt lat="30.916292" lon="34.752625"><ele>543.2</ele><name>TP07163</name><time>2016-12-28T22:13:42Z</time></trkpt>
   <trkpt lat="30.91632" lon="34.752636"><ele>543</ele><name>TP07164</name><time>2016-12-28T22:13:43Z</time></trkpt>
   <trkpt lat="30.916349" lon="34.752643"><ele>542.8</ele><name>TP07165</name><time>2016-12-28T22:13:44Z</time></trkpt>
   <trkpt lat="30.916379" lon="34.752651"><ele>542.6</ele><name>TP07166</name><time>2016-12-28T22:13:45Z</time></trkpt>
   <trkpt lat="30.916411" lon="34.75266"><ele>542.3</ele><name>TP07167</name><time>2016-12-28T22:13:46Z</time></trkpt>
   <trkpt lat="30.916446" lon="34.752667"><ele>542.1</ele><name>TP07168</name><time>2016-12-28T22:13:47Z</time></trkpt>
   <trkpt lat="30.916484" lon="34.752679"><ele>541.8</ele><name>TP07169</name><time>2016-12-28T22:13:48Z</time></trkpt>
   <trkpt lat="30.916522" lon="34.752697"><ele>541.6</ele><name>TP07170</name><time>2016-12-28T22:13:49Z</time></trkpt>
   <trkpt lat="30.916562" lon="34.752719"><ele>541.5</ele><name>TP07171</name><time>2016-12-28T22:13:50Z</time></trkpt>
   <trkpt lat="30.916599" lon="34.752743"><ele>541.4</ele><name>TP07172</name><time>2016-12-28T22:13:51Z</time></trkpt>
   <trkpt lat="30.916631" lon="34.752768"><ele>541.3</ele><name>TP07173</name><time>2016-12-28T22:13:52Z</time></trkpt>
   <trkpt lat="30.916664" lon="34.752796"><ele>541.4</ele><name>TP07174</name><time>2016-12-28T22:13:53Z</time></trkpt>
   <trkpt lat="30.916688" lon="34.752823"><ele>541.4</ele><name>TP07175</name><time>2016-12-28T22:13:54Z</time></trkpt>
   <trkpt lat="30.916708" lon="34.752853"><ele>541.6</ele><name>TP07176</name><time>2016-12-28T22:13:55Z</time></trkpt>
   <trkpt lat="30.91673" lon="34.752884"><ele>541.8</ele><name>TP07177</name><time>2016-12-28T22:13:56Z</time></trkpt>
   <trkpt lat="30.916749" lon="34.752922"><ele>542</ele><name>TP07178</name><time>2016-12-28T22:13:57Z</time></trkpt>
   <trkpt lat="30.916764" lon="34.752965"><ele>541.7</ele><name>TP07179</name><time>2016-12-28T22:13:58Z</time></trkpt>
   <trkpt lat="30.91678" lon="34.753009"><ele>541.4</ele><name>TP07180</name><time>2016-12-28T22:13:59Z</time></trkpt>
   <trkpt lat="30.9168" lon="34.753054"><ele>541.1</ele><name>TP07181</name><time>2016-12-28T22:14:00Z</time></trkpt>
   <trkpt lat="30.916824" lon="34.753099"><ele>540.8</ele><name>TP07182</name><time>2016-12-28T22:14:01Z</time></trkpt>
   <trkpt lat="30.916847" lon="34.753142"><ele>540.5</ele><name>TP07183</name><time>2016-12-28T22:14:02Z</time></trkpt>
   <trkpt lat="30.916873" lon="34.753185"><ele>540.1</ele><name>TP07184</name><time>2016-12-28T22:14:03Z</time></trkpt>
   <trkpt lat="30.9169" lon="34.753231"><ele>539.8</ele><name>TP07185</name><time>2016-12-28T22:14:04Z</time></trkpt>
   <trkpt lat="30.916943" lon="34.753326"><ele>539.2</ele><name>TP07186</name><time>2016-12-28T22:14:06Z</time></trkpt>
   <trkpt lat="30.916958" lon="34.753377"><ele>538.9</ele><name>TP07187</name><time>2016-12-28T22:14:07Z</time></trkpt>
   <trkpt lat="30.916969" lon="34.75342"><ele>538.7</ele><name>TP07188</name><time>2016-12-28T22:14:08Z</time></trkpt>
   <trkpt lat="30.916976" lon="34.753459"><ele>538.5</ele><name>TP07189</name><time>2016-12-28T22:14:09Z</time></trkpt>
   <trkpt lat="30.916975" lon="34.753509"><ele>538.3</ele><name>TP07190</name><time>2016-12-28T22:14:11Z</time></trkpt>
   <trkpt lat="30.916974" lon="34.753553"><ele>538.2</ele><name>TP07191</name><time>2016-12-28T22:14:12Z</time></trkpt>
   <trkpt lat="30.916975" lon="34.753597"><ele>538</ele><name>TP07192</name><time>2016-12-28T22:14:13Z</time></trkpt>
   <trkpt lat="30.916978" lon="34.75364"><ele>537.8</ele><name>TP07193</name><time>2016-12-28T22:14:14Z</time></trkpt>
   <trkpt lat="30.916981" lon="34.753683"><ele>537.6</ele><name>TP07194</name><time>2016-12-28T22:14:15Z</time></trkpt>
   <trkpt lat="30.917018" lon="34.753788"><ele>537.4</ele><name>TP07195</name><time>2016-12-28T22:14:17Z</time></trkpt>
   <trkpt lat="30.91702" lon="34.753822"><ele>537.5</ele><name>TP07196</name><time>2016-12-28T22:14:18Z</time></trkpt>
   <trkpt lat="30.917019" lon="34.753858"><ele>537.6</ele><name>TP07197</name><time>2016-12-28T22:14:19Z</time></trkpt>
   <trkpt lat="30.917025" lon="34.753894"><ele>537.7</ele><name>TP07198</name><time>2016-12-28T22:14:20Z</time></trkpt>
   <trkpt lat="30.917024" lon="34.753937"><ele>537.8</ele><name>TP07199</name><time>2016-12-28T22:14:21Z</time></trkpt>
   <trkpt lat="30.917017" lon="34.753972"><ele>538</ele><name>TP07200</name><time>2016-12-28T22:14:22Z</time></trkpt>
   <trkpt lat="30.917017" lon="34.754005"><ele>538.1</ele><name>TP07201</name><time>2016-12-28T22:14:23Z</time></trkpt>
   <trkpt lat="30.917022" lon="34.754039"><ele>538.2</ele><name>TP07202</name><time>2016-12-28T22:14:24Z</time></trkpt>
   <trkpt lat="30.917035" lon="34.754083"><ele>538.3</ele><name>TP07203</name><time>2016-12-28T22:14:26Z</time></trkpt>
   <trkpt lat="30.917046" lon="34.754114"><ele>538.4</ele><name>TP07204</name><time>2016-12-28T22:14:28Z</time></trkpt>
   <trkpt lat="30.917064" lon="34.754168"><ele>538.5</ele><name>TP07205</name><time>2016-12-28T22:14:30Z</time></trkpt>
   <trkpt lat="30.917084" lon="34.754215"><ele>538.7</ele><name>TP07206</name><time>2016-12-28T22:14:31Z</time></trkpt>
   <trkpt lat="30.917106" lon="34.754257"><ele>538.7</ele><name>TP07207</name><time>2016-12-28T22:14:32Z</time></trkpt>
   <trkpt lat="30.917129" lon="34.754298"><ele>538.7</ele><name>TP07208</name><time>2016-12-28T22:14:33Z</time></trkpt>
   <trkpt lat="30.917152" lon="34.754338"><ele>538.7</ele><name>TP07209</name><time>2016-12-28T22:14:34Z</time></trkpt>
   <trkpt lat="30.917172" lon="34.754378"><ele>538.8</ele><name>TP07210</name><time>2016-12-28T22:14:35Z</time></trkpt>
   <trkpt lat="30.917187" lon="34.754417"><ele>538.9</ele><name>TP07211</name><time>2016-12-28T22:14:36Z</time></trkpt>
   <trkpt lat="30.917243" lon="34.754535"><ele>539.2</ele><name>TP07212</name><time>2016-12-28T22:14:38Z</time></trkpt>
   <trkpt lat="30.917268" lon="34.754562"><ele>539.2</ele><name>TP07213</name><time>2016-12-28T22:14:39Z</time></trkpt>
   <trkpt lat="30.91729" lon="34.754584"><ele>539.3</ele><name>TP07214</name><time>2016-12-28T22:14:40Z</time></trkpt>
   <trkpt lat="30.917318" lon="34.754611"><ele>539.4</ele><name>TP07215</name><time>2016-12-28T22:14:41Z</time></trkpt>
   <trkpt lat="30.917344" lon="34.754635"><ele>539.6</ele><name>TP07216</name><time>2016-12-28T22:14:42Z</time></trkpt>
   <trkpt lat="30.91737" lon="34.754653"><ele>539.7</ele><name>TP07217</name><time>2016-12-28T22:14:43Z</time></trkpt>
   <trkpt lat="30.917397" lon="34.754675"><ele>539.8</ele><name>TP07218</name><time>2016-12-28T22:14:44Z</time></trkpt>
   <trkpt lat="30.917416" lon="34.754706"><ele>540.1</ele><name>TP07219</name><time>2016-12-28T22:14:47Z</time></trkpt>
   <trkpt lat="30.917454" lon="34.754725"><ele>540.1</ele><name>TP07220</name><time>2016-12-28T22:14:49Z</time></trkpt>
   <trkpt lat="30.917498" lon="34.754747"><ele>540.2</ele><name>TP07221</name><time>2016-12-28T22:14:51Z</time></trkpt>
   <trkpt lat="30.917525" lon="34.754753"><ele>540.1</ele><name>TP07222</name><time>2016-12-28T22:14:52Z</time></trkpt>
   <trkpt lat="30.917566" lon="34.754763"><ele>540.1</ele><name>TP07223</name><time>2016-12-28T22:14:53Z</time></trkpt>
   <trkpt lat="30.917604" lon="34.754767"><ele>540</ele><name>TP07224</name><time>2016-12-28T22:14:54Z</time></trkpt>
   <trkpt lat="30.917645" lon="34.754762"><ele>539.8</ele><name>TP07225</name><time>2016-12-28T22:14:55Z</time></trkpt>
   <trkpt lat="30.917688" lon="34.754753"><ele>539.5</ele><name>TP07226</name><time>2016-12-28T22:14:56Z</time></trkpt>
   <trkpt lat="30.917816" lon="34.754749"><ele>539</ele><name>TP07227</name><time>2016-12-28T22:14:58Z</time></trkpt>
   <trkpt lat="30.91784" lon="34.754734"><ele>538.7</ele><name>TP07228</name><time>2016-12-28T22:14:59Z</time></trkpt>
   <trkpt lat="30.917884" lon="34.754697"><ele>538.2</ele><name>TP07229</name><time>2016-12-28T22:15:01Z</time></trkpt>
   <trkpt lat="30.917906" lon="34.754677"><ele>537.9</ele><name>TP07230</name><time>2016-12-28T22:15:02Z</time></trkpt>
   <trkpt lat="30.917939" lon="34.754646"><ele>537.7</ele><name>TP07231</name><time>2016-12-28T22:15:04Z</time></trkpt>
   <trkpt lat="30.917963" lon="34.754616"><ele>537.5</ele><name>TP07232</name><time>2016-12-28T22:15:06Z</time></trkpt>
   <trkpt lat="30.917975" lon="34.754581"><ele>537.3</ele><name>TP07233</name><time>2016-12-28T22:15:08Z</time></trkpt>
   <trkpt lat="30.917992" lon="34.754547"><ele>536.9</ele><name>TP07234</name><time>2016-12-28T22:15:10Z</time></trkpt>
   <trkpt lat="30.918024" lon="34.754505"><ele>536.6</ele><name>TP07235</name><time>2016-12-28T22:15:12Z</time></trkpt>
   <trkpt lat="30.918047" lon="34.754483"><ele>536.4</ele><name>TP07236</name><time>2016-12-28T22:15:13Z</time></trkpt>
   <trkpt lat="30.918076" lon="34.754468"><ele>536.4</ele><name>TP07237</name><time>2016-12-28T22:15:14Z</time></trkpt>
   <trkpt lat="30.918108" lon="34.754465"><ele>536.5</ele><name>TP07238</name><time>2016-12-28T22:15:15Z</time></trkpt>
   <trkpt lat="30.918135" lon="34.754473"><ele>536.7</ele><name>TP07239</name><time>2016-12-28T22:15:16Z</time></trkpt>
   <trkpt lat="30.918163" lon="34.754484"><ele>536.9</ele><name>TP07240</name><time>2016-12-28T22:15:17Z</time></trkpt>
   <trkpt lat="30.918191" lon="34.7545"><ele>537.3</ele><name>TP07241</name><time>2016-12-28T22:15:18Z</time></trkpt>
   <trkpt lat="30.918215" lon="34.754515"><ele>537.5</ele><name>TP07242</name><time>2016-12-28T22:15:19Z</time></trkpt>
   <trkpt lat="30.918242" lon="34.754532"><ele>537.9</ele><name>TP07243</name><time>2016-12-28T22:15:20Z</time></trkpt>
   <trkpt lat="30.918271" lon="34.75455"><ele>538.3</ele><name>TP07244</name><time>2016-12-28T22:15:21Z</time></trkpt>
   <trkpt lat="30.918298" lon="34.75457"><ele>538.6</ele><name>TP07245</name><time>2016-12-28T22:15:22Z</time></trkpt>
   <trkpt lat="30.918325" lon="34.75459"><ele>539</ele><name>TP07246</name><time>2016-12-28T22:15:23Z</time></trkpt>
   <trkpt lat="30.918352" lon="34.754607"><ele>539.2</ele><name>TP07247</name><time>2016-12-28T22:15:24Z</time></trkpt>
   <trkpt lat="30.918383" lon="34.754621"><ele>539.4</ele><name>TP07248</name><time>2016-12-28T22:15:25Z</time></trkpt>
   <trkpt lat="30.918416" lon="34.754631"><ele>539.6</ele><name>TP07249</name><time>2016-12-28T22:15:26Z</time></trkpt>
   <trkpt lat="30.918449" lon="34.754636"><ele>539.7</ele><name>TP07250</name><time>2016-12-28T22:15:27Z</time></trkpt>
   <trkpt lat="30.91848" lon="34.754643"><ele>539.9</ele><name>TP07251</name><time>2016-12-28T22:15:28Z</time></trkpt>
   <trkpt lat="30.918507" lon="34.754657"><ele>540</ele><name>TP07252</name><time>2016-12-28T22:15:29Z</time></trkpt>
   <trkpt lat="30.918535" lon="34.754703"><ele>540.3</ele><name>TP07253</name><time>2016-12-28T22:15:31Z</time></trkpt>
   <trkpt lat="30.91852" lon="34.754748"><ele>540.3</ele><name>TP07254</name><time>2016-12-28T22:15:33Z</time></trkpt>
   <trkpt lat="30.918491" lon="34.754776"><ele>540.3</ele><name>TP07255</name><time>2016-12-28T22:15:35Z</time></trkpt>
   <trkpt lat="30.91847" lon="34.754797"><ele>540.3</ele><name>TP07256</name><time>2016-12-28T22:15:38Z</time></trkpt>
   <trkpt lat="30.91844" lon="34.754773"><ele>540.2</ele><name>TP07257</name><time>2016-12-28T22:16:08Z</time></trkpt>
   <trkpt lat="30.918413" lon="34.754759"><ele>540.1</ele><name>TP07258</name><time>2016-12-28T22:16:10Z</time></trkpt>
   <trkpt lat="30.918387" lon="34.754744"><ele>539.9</ele><name>TP07259</name><time>2016-12-28T22:16:12Z</time></trkpt>
   <trkpt lat="30.918352" lon="34.75475"><ele>539.9</ele><name>TP07260</name><time>2016-12-28T22:16:16Z</time></trkpt>
   <trkpt lat="30.918322" lon="34.754757"><ele>539.8</ele><name>TP07261</name><time>2016-12-28T22:16:19Z</time></trkpt>
   <trkpt lat="30.918293" lon="34.754761"><ele>539.7</ele><name>TP07262</name><time>2016-12-28T22:16:21Z</time></trkpt>
   <trkpt lat="30.918265" lon="34.754767"><ele>539.7</ele><name>TP07263</name><time>2016-12-28T22:16:23Z</time></trkpt>
   <trkpt lat="30.918238" lon="34.754745"><ele>539.5</ele><name>TP07264</name><time>2016-12-28T22:16:26Z</time></trkpt>
   <trkpt lat="30.918239" lon="34.754782"><ele>539.7</ele><name>TP07265</name><time>2016-12-28T22:16:41Z</time></trkpt>
   <trkpt lat="30.918212" lon="34.754796"><ele>539.7</ele><name>TP07266</name><time>2016-12-28T22:16:43Z</time></trkpt>
   <trkpt lat="30.91818" lon="34.75481"><ele>539.8</ele><name>TP07267</name><time>2016-12-28T22:16:45Z</time></trkpt>
   <trkpt lat="30.918147" lon="34.754826"><ele>539.8</ele><name>TP07268</name><time>2016-12-28T22:16:47Z</time></trkpt>
   <trkpt lat="30.918111" lon="34.754851"><ele>539.9</ele><name>TP07269</name><time>2016-12-28T22:16:49Z</time></trkpt>
   <trkpt lat="30.918079" lon="34.754876"><ele>540</ele><name>TP07270</name><time>2016-12-28T22:16:51Z</time></trkpt>
   <trkpt lat="30.91804" lon="34.754906"><ele>540.2</ele><name>TP07271</name><time>2016-12-28T22:16:53Z</time></trkpt>
   <trkpt lat="30.917996" lon="34.754938"><ele>540.5</ele><name>TP07272</name><time>2016-12-28T22:16:55Z</time></trkpt>
   <trkpt lat="30.917963" lon="34.754964"><ele>540.7</ele><name>TP07273</name><time>2016-12-28T22:16:57Z</time></trkpt>
   <trkpt lat="30.917914" lon="34.755006"><ele>541.1</ele><name>TP07274</name><time>2016-12-28T22:16:59Z</time></trkpt>
   <trkpt lat="30.917882" lon="34.755035"><ele>541.5</ele><name>TP07275</name><time>2016-12-28T22:17:01Z</time></trkpt>
   <trkpt lat="30.917851" lon="34.755042"><ele>541.7</ele><name>TP07276</name><time>2016-12-28T22:17:03Z</time></trkpt>
   <trkpt lat="30.91781" lon="34.75507"><ele>542.1</ele><name>TP07277</name><time>2016-12-28T22:17:05Z</time></trkpt>
   <trkpt lat="30.917769" lon="34.755108"><ele>542.7</ele><name>TP07278</name><time>2016-12-28T22:17:07Z</time></trkpt>
   <trkpt lat="30.917731" lon="34.755143"><ele>543.2</ele><name>TP07279</name><time>2016-12-28T22:17:09Z</time></trkpt>
   <trkpt lat="30.917699" lon="34.755179"><ele>543.7</ele><name>TP07280</name><time>2016-12-28T22:17:11Z</time></trkpt>
   <trkpt lat="30.917672" lon="34.755208"><ele>544.1</ele><name>TP07281</name><time>2016-12-28T22:17:13Z</time></trkpt>
   <trkpt lat="30.917643" lon="34.755245"><ele>544.6</ele><name>TP07282</name><time>2016-12-28T22:17:15Z</time></trkpt>
   <trkpt lat="30.917627" lon="34.755285"><ele>545.1</ele><name>TP07283</name><time>2016-12-28T22:17:17Z</time></trkpt>
   <trkpt lat="30.917601" lon="34.755329"><ele>545.6</ele><name>TP07284</name><time>2016-12-28T22:17:19Z</time></trkpt>
   <trkpt lat="30.91757" lon="34.75537"><ele>546.2</ele><name>TP07285</name><time>2016-12-28T22:17:21Z</time></trkpt>
   <trkpt lat="30.91754" lon="34.755397"><ele>546.6</ele><name>TP07286</name><time>2016-12-28T22:17:23Z</time></trkpt>
   <trkpt lat="30.917509" lon="34.755434"><ele>546.9</ele><name>TP07287</name><time>2016-12-28T22:17:25Z</time></trkpt>
   <trkpt lat="30.917478" lon="34.755466"><ele>546.8</ele><name>TP07288</name><time>2016-12-28T22:17:27Z</time></trkpt>
   <trkpt lat="30.91745" lon="34.7555"><ele>546.8</ele><name>TP07289</name><time>2016-12-28T22:17:29Z</time></trkpt>
   <trkpt lat="30.917411" lon="34.75554"><ele>546.8</ele><name>TP07290</name><time>2016-12-28T22:17:31Z</time></trkpt>
   <trkpt lat="30.917372" lon="34.755573"><ele>547</ele><name>TP07291</name><time>2016-12-28T22:17:33Z</time></trkpt>
   <trkpt lat="30.917334" lon="34.755599"><ele>547.1</ele><name>TP07292</name><time>2016-12-28T22:17:35Z</time></trkpt>
   <trkpt lat="30.917301" lon="34.755638"><ele>547.3</ele><name>TP07293</name><time>2016-12-28T22:17:37Z</time></trkpt>
   <trkpt lat="30.917265" lon="34.755677"><ele>547.4</ele><name>TP07294</name><time>2016-12-28T22:17:39Z</time></trkpt>
   <trkpt lat="30.917228" lon="34.755717"><ele>547.7</ele><name>TP07295</name><time>2016-12-28T22:17:41Z</time></trkpt>
   <trkpt lat="30.917204" lon="34.755743"><ele>547.9</ele><name>TP07296</name><time>2016-12-28T22:17:42Z</time></trkpt>
   <trkpt lat="30.917183" lon="34.755765"><ele>548</ele><name>TP07297</name><time>2016-12-28T22:17:43Z</time></trkpt>
   <trkpt lat="30.917161" lon="34.755785"><ele>548.2</ele><name>TP07298</name><time>2016-12-28T22:17:44Z</time></trkpt>
   <trkpt lat="30.917133" lon="34.755813"><ele>548.5</ele><name>TP07299</name><time>2016-12-28T22:17:46Z</time></trkpt>
   <trkpt lat="30.917099" lon="34.755853"><ele>548.8</ele><name>TP07300</name><time>2016-12-28T22:17:48Z</time></trkpt>
   <trkpt lat="30.917065" lon="34.755885"><ele>548.9</ele><name>TP07301</name><time>2016-12-28T22:17:50Z</time></trkpt>
   <trkpt lat="30.917024" lon="34.755918"><ele>548.8</ele><name>TP07302</name><time>2016-12-28T22:17:52Z</time></trkpt>
   <trkpt lat="30.91698" lon="34.755947"><ele>548.7</ele><name>TP07303</name><time>2016-12-28T22:17:54Z</time></trkpt>
   <trkpt lat="30.916954" lon="34.755966"><ele>548.7</ele><name>TP07304</name><time>2016-12-28T22:17:56Z</time></trkpt>
   <trkpt lat="30.916929" lon="34.755986"><ele>548.7</ele><name>TP07305</name><time>2016-12-28T22:17:57Z</time></trkpt>
   <trkpt lat="30.916885" lon="34.756015"><ele>548.8</ele><name>TP07306</name><time>2016-12-28T22:17:59Z</time></trkpt>
   <trkpt lat="30.916838" lon="34.756042"><ele>548.9</ele><name>TP07307</name><time>2016-12-28T22:18:01Z</time></trkpt>
   <trkpt lat="30.916813" lon="34.756055"><ele>548.9</ele><name>TP07308</name><time>2016-12-28T22:18:02Z</time></trkpt>
   <trkpt lat="30.916771" lon="34.756076"><ele>549</ele><name>TP07309</name><time>2016-12-28T22:18:04Z</time></trkpt>
   <trkpt lat="30.916742" lon="34.756081"><ele>549.1</ele><name>TP07310</name><time>2016-12-28T22:18:06Z</time></trkpt>
   <trkpt lat="30.916712" lon="34.756081"><ele>549.1</ele><name>TP07311</name><time>2016-12-28T22:18:07Z</time></trkpt>
   <trkpt lat="30.91668" lon="34.756079"><ele>549.1</ele><name>TP07312</name><time>2016-12-28T22:18:08Z</time></trkpt>
   <trkpt lat="30.916649" lon="34.75608"><ele>549.1</ele><name>TP07313</name><time>2016-12-28T22:18:09Z</time></trkpt>
   <trkpt lat="30.916609" lon="34.756098"><ele>549.3</ele><name>TP07314</name><time>2016-12-28T22:18:11Z</time></trkpt>
   <trkpt lat="30.916561" lon="34.75613"><ele>549.6</ele><name>TP07315</name><time>2016-12-28T22:18:38Z</time></trkpt>
   <trkpt lat="30.916532" lon="34.756142"><ele>549.8</ele><name>TP07316</name><time>2016-12-28T22:18:39Z</time></trkpt>
   <trkpt lat="30.916507" lon="34.756153"><ele>549.9</ele><name>TP07317</name><time>2016-12-28T22:18:40Z</time></trkpt>
   <trkpt lat="30.916476" lon="34.756169"><ele>550.2</ele><name>TP07318</name><time>2016-12-28T22:18:41Z</time></trkpt>
   <trkpt lat="30.916446" lon="34.756182"><ele>550.4</ele><name>TP07319</name><time>2016-12-28T22:18:42Z</time></trkpt>
   <trkpt lat="30.916412" lon="34.756196"><ele>550.7</ele><name>TP07320</name><time>2016-12-28T22:18:43Z</time></trkpt>
   <trkpt lat="30.916377" lon="34.75621"><ele>551</ele><name>TP07321</name><time>2016-12-28T22:18:44Z</time></trkpt>
   <trkpt lat="30.91634" lon="34.75622"><ele>551.2</ele><name>TP07322</name><time>2016-12-28T22:18:45Z</time></trkpt>
   <trkpt lat="30.916304" lon="34.756229"><ele>551.5</ele><name>TP07323</name><time>2016-12-28T22:18:46Z</time></trkpt>
   <trkpt lat="30.916269" lon="34.756234"><ele>551.7</ele><name>TP07324</name><time>2016-12-28T22:18:47Z</time></trkpt>
   <trkpt lat="30.916232" lon="34.756236"><ele>551.7</ele><name>TP07325</name><time>2016-12-28T22:18:48Z</time></trkpt>
   <trkpt lat="30.916196" lon="34.756234"><ele>551.5</ele><name>TP07326</name><time>2016-12-28T22:18:49Z</time></trkpt>
   <trkpt lat="30.916152" lon="34.756238"><ele>551.3</ele><name>TP07327</name><time>2016-12-28T22:18:50Z</time></trkpt>
   <trkpt lat="30.916104" lon="34.756243"><ele>551.2</ele><name>TP07328</name><time>2016-12-28T22:18:51Z</time></trkpt>
   <trkpt lat="30.916056" lon="34.756248"><ele>551</ele><name>TP07329</name><time>2016-12-28T22:18:52Z</time></trkpt>
   <trkpt lat="30.916008" lon="34.756255"><ele>550.8</ele><name>TP07330</name><time>2016-12-28T22:18:53Z</time></trkpt>
   <trkpt lat="30.915963" lon="34.756262"><ele>550.6</ele><name>TP07331</name><time>2016-12-28T22:18:54Z</time></trkpt>
   <trkpt lat="30.915916" lon="34.756269"><ele>550.3</ele><name>TP07332</name><time>2016-12-28T22:18:55Z</time></trkpt>
   <trkpt lat="30.915869" lon="34.756273"><ele>550.1</ele><name>TP07333</name><time>2016-12-28T22:18:56Z</time></trkpt>
   <trkpt lat="30.915824" lon="34.756274"><ele>549.9</ele><name>TP07334</name><time>2016-12-28T22:18:57Z</time></trkpt>
   <trkpt lat="30.915791" lon="34.756278"><ele>549.8</ele><name>TP07335</name><time>2016-12-28T22:18:58Z</time></trkpt>
   <trkpt lat="30.915755" lon="34.756298"><ele>549.6</ele><name>TP07336</name><time>2016-12-28T22:18:59Z</time></trkpt>
   <trkpt lat="30.915712" lon="34.756333"><ele>549.4</ele><name>TP07337</name><time>2016-12-28T22:19:00Z</time></trkpt>
   <trkpt lat="30.915665" lon="34.756374"><ele>549.2</ele><name>TP07338</name><time>2016-12-28T22:19:01Z</time></trkpt>
   <trkpt lat="30.915615" lon="34.756416"><ele>549</ele><name>TP07339</name><time>2016-12-28T22:19:02Z</time></trkpt>
   <trkpt lat="30.915469" lon="34.756536"><ele>548.8</ele><name>TP07340</name><time>2016-12-28T22:19:04Z</time></trkpt>
   <trkpt lat="30.915434" lon="34.756588"><ele>548.8</ele><name>TP07341</name><time>2016-12-28T22:19:05Z</time></trkpt>
   <trkpt lat="30.915402" lon="34.756648"><ele>548.9</ele><name>TP07342</name><time>2016-12-28T22:19:06Z</time></trkpt>
   <trkpt lat="30.915371" lon="34.756717"><ele>548.9</ele><name>TP07343</name><time>2016-12-28T22:19:07Z</time></trkpt>
   <trkpt lat="30.915353" lon="34.756797"><ele>549.1</ele><name>TP07344</name><time>2016-12-28T22:19:08Z</time></trkpt>
   <trkpt lat="30.915328" lon="34.756878"><ele>549.3</ele><name>TP07345</name><time>2016-12-28T22:19:09Z</time></trkpt>
   <trkpt lat="30.915318" lon="34.756957"><ele>549.5</ele><name>TP07346</name><time>2016-12-28T22:19:10Z</time></trkpt>
   <trkpt lat="30.915318" lon="34.757048"><ele>549.9</ele><name>TP07347</name><time>2016-12-28T22:19:11Z</time></trkpt>
   <trkpt lat="30.915317" lon="34.757135"><ele>549.4</ele><name>TP07348</name><time>2016-12-28T22:19:12Z</time></trkpt>
   <trkpt lat="30.915334" lon="34.757203"><ele>548.6</ele><name>TP07349</name><time>2016-12-28T22:19:13Z</time></trkpt>
   <trkpt lat="30.915368" lon="34.757255"><ele>548</ele><name>TP07350</name><time>2016-12-28T22:19:14Z</time></trkpt>
   <trkpt lat="30.915416" lon="34.75731"><ele>547.3</ele><name>TP07351</name><time>2016-12-28T22:19:15Z</time></trkpt>
   <trkpt lat="30.915472" lon="34.757361"><ele>546.4</ele><name>TP07352</name><time>2016-12-28T22:19:16Z</time></trkpt>
   <trkpt lat="30.915529" lon="34.757409"><ele>545.6</ele><name>TP07353</name><time>2016-12-28T22:19:17Z</time></trkpt>
   <trkpt lat="30.915583" lon="34.757461"><ele>544.8</ele><name>TP07354</name><time>2016-12-28T22:19:18Z</time></trkpt>
   <trkpt lat="30.915631" lon="34.757522"><ele>543.8</ele><name>TP07355</name><time>2016-12-28T22:19:19Z</time></trkpt>
   <trkpt lat="30.915673" lon="34.75759"><ele>542.8</ele><name>TP07356</name><time>2016-12-28T22:19:20Z</time></trkpt>
   <trkpt lat="30.91571" lon="34.757655"><ele>541.8</ele><name>TP07357</name><time>2016-12-28T22:19:21Z</time></trkpt>
   <trkpt lat="30.915746" lon="34.757723"><ele>540.8</ele><name>TP07358</name><time>2016-12-28T22:19:22Z</time></trkpt>
   <trkpt lat="30.915804" lon="34.75778"><ele>539.9</ele><name>TP07359</name><time>2016-12-28T22:19:23Z</time></trkpt>
   <trkpt lat="30.915876" lon="34.757816"><ele>539.1</ele><name>TP07360</name><time>2016-12-28T22:19:24Z</time></trkpt>
   <trkpt lat="30.915959" lon="34.757851"><ele>538.2</ele><name>TP07361</name><time>2016-12-28T22:19:25Z</time></trkpt>
   <trkpt lat="30.916035" lon="34.757903"><ele>537.2</ele><name>TP07362</name><time>2016-12-28T22:19:26Z</time></trkpt>
   <trkpt lat="30.916107" lon="34.757962"><ele>536.4</ele><name>TP07363</name><time>2016-12-28T22:19:27Z</time></trkpt>
   <trkpt lat="30.916173" lon="34.758024"><ele>535.8</ele><name>TP07364</name><time>2016-12-28T22:19:28Z</time></trkpt>
   <trkpt lat="30.916231" lon="34.75809"><ele>535.2</ele><name>TP07365</name><time>2016-12-28T22:19:29Z</time></trkpt>
   <trkpt lat="30.916281" lon="34.75816"><ele>534.7</ele><name>TP07366</name><time>2016-12-28T22:19:30Z</time></trkpt>
   <trkpt lat="30.916326" lon="34.75824"><ele>534.2</ele><name>TP07367</name><time>2016-12-28T22:19:31Z</time></trkpt>
   <trkpt lat="30.916353" lon="34.758316"><ele>533.7</ele><name>TP07368</name><time>2016-12-28T22:19:32Z</time></trkpt>
   <trkpt lat="30.916374" lon="34.758384"><ele>533.3</ele><name>TP07369</name><time>2016-12-28T22:19:33Z</time></trkpt>
   <trkpt lat="30.91641" lon="34.758439"><ele>533</ele><name>TP07370</name><time>2016-12-28T22:19:34Z</time></trkpt>
   <trkpt lat="30.916441" lon="34.758486"><ele>532.7</ele><name>TP07371</name><time>2016-12-28T22:19:35Z</time></trkpt>
   <trkpt lat="30.916472" lon="34.758536"><ele>532.4</ele><name>TP07372</name><time>2016-12-28T22:19:36Z</time></trkpt>
   <trkpt lat="30.916501" lon="34.758599"><ele>532</ele><name>TP07373</name><time>2016-12-28T22:19:37Z</time></trkpt>
   <trkpt lat="30.916537" lon="34.758667"><ele>531.6</ele><name>TP07374</name><time>2016-12-28T22:19:38Z</time></trkpt>
   <trkpt lat="30.916563" lon="34.758738"><ele>531.3</ele><name>TP07375</name><time>2016-12-28T22:19:39Z</time></trkpt>
   <trkpt lat="30.916586" lon="34.758808"><ele>531</ele><name>TP07376</name><time>2016-12-28T22:19:40Z</time></trkpt>
   <trkpt lat="30.916609" lon="34.758879"><ele>530.7</ele><name>TP07377</name><time>2016-12-28T22:19:41Z</time></trkpt>
   <trkpt lat="30.916628" lon="34.758954"><ele>530.3</ele><name>TP07378</name><time>2016-12-28T22:19:42Z</time></trkpt>
   <trkpt lat="30.916643" lon="34.759031"><ele>529.9</ele><name>TP07379</name><time>2016-12-28T22:19:43Z</time></trkpt>
   <trkpt lat="30.916654" lon="34.759107"><ele>529.6</ele><name>TP07380</name><time>2016-12-28T22:19:44Z</time></trkpt>
   <trkpt lat="30.916658" lon="34.759183"><ele>529.2</ele><name>TP07381</name><time>2016-12-28T22:19:45Z</time></trkpt>
   <trkpt lat="30.916654" lon="34.759253"><ele>529</ele><name>TP07382</name><time>2016-12-28T22:19:46Z</time></trkpt>
   <trkpt lat="30.916644" lon="34.759326"><ele>528.8</ele><name>TP07383</name><time>2016-12-28T22:19:47Z</time></trkpt>
   <trkpt lat="30.916631" lon="34.7594"><ele>528.6</ele><name>TP07384</name><time>2016-12-28T22:19:48Z</time></trkpt>
   <trkpt lat="30.916607" lon="34.759475"><ele>528.5</ele><name>TP07385</name><time>2016-12-28T22:19:49Z</time></trkpt>
   <trkpt lat="30.916572" lon="34.759542"><ele>528.7</ele><name>TP07386</name><time>2016-12-28T22:19:50Z</time></trkpt>
   <trkpt lat="30.916524" lon="34.759603"><ele>528.9</ele><name>TP07387</name><time>2016-12-28T22:19:51Z</time></trkpt>
   <trkpt lat="30.916477" lon="34.759661"><ele>529.1</ele><name>TP07388</name><time>2016-12-28T22:19:52Z</time></trkpt>
   <trkpt lat="30.916438" lon="34.759733"><ele>529</ele><name>TP07389</name><time>2016-12-28T22:19:53Z</time></trkpt>
   <trkpt lat="30.916399" lon="34.759811"><ele>529</ele><name>TP07390</name><time>2016-12-28T22:19:54Z</time></trkpt>
   <trkpt lat="30.916365" lon="34.759883"><ele>528.9</ele><name>TP07391</name><time>2016-12-28T22:19:55Z</time></trkpt>
   <trkpt lat="30.916322" lon="34.75995"><ele>529</ele><name>TP07392</name><time>2016-12-28T22:19:56Z</time></trkpt>
   <trkpt lat="30.916285" lon="34.760016"><ele>529</ele><name>TP07393</name><time>2016-12-28T22:19:57Z</time></trkpt>
   <trkpt lat="30.916248" lon="34.760091"><ele>529</ele><name>TP07394</name><time>2016-12-28T22:19:58Z</time></trkpt>
   <trkpt lat="30.916216" lon="34.760167"><ele>528.5</ele><name>TP07395</name><time>2016-12-28T22:19:59Z</time></trkpt>
   <trkpt lat="30.916185" lon="34.760249"><ele>528.1</ele><name>TP07396</name><time>2016-12-28T22:20:00Z</time></trkpt>
   <trkpt lat="30.916149" lon="34.760329"><ele>527.8</ele><name>TP07397</name><time>2016-12-28T22:20:01Z</time></trkpt>
   <trkpt lat="30.916115" lon="34.7604"><ele>527.6</ele><name>TP07398</name><time>2016-12-28T22:20:02Z</time></trkpt>
   <trkpt lat="30.916082" lon="34.760453"><ele>527.6</ele><name>TP07399</name><time>2016-12-28T22:20:03Z</time></trkpt>
   <trkpt lat="30.91605" lon="34.760497"><ele>527.6</ele><name>TP07400</name><time>2016-12-28T22:20:04Z</time></trkpt>
   <trkpt lat="30.916014" lon="34.760526"><ele>527.6</ele><name>TP07401</name><time>2016-12-28T22:20:05Z</time></trkpt>
   <trkpt lat="30.915974" lon="34.760559"><ele>527.7</ele><name>TP07402</name><time>2016-12-28T22:20:06Z</time></trkpt>
   <trkpt lat="30.915933" lon="34.760589"><ele>527.7</ele><name>TP07403</name><time>2016-12-28T22:20:07Z</time></trkpt>
   <trkpt lat="30.915899" lon="34.760621"><ele>527.6</ele><name>TP07404</name><time>2016-12-28T22:20:08Z</time></trkpt>
   <trkpt lat="30.915876" lon="34.760668"><ele>527.5</ele><name>TP07405</name><time>2016-12-28T22:20:09Z</time></trkpt>
   <trkpt lat="30.915846" lon="34.760711"><ele>527.4</ele><name>TP07406</name><time>2016-12-28T22:20:10Z</time></trkpt>
   <trkpt lat="30.915821" lon="34.760765"><ele>527.3</ele><name>TP07407</name><time>2016-12-28T22:20:11Z</time></trkpt>
   <trkpt lat="30.915789" lon="34.760817"><ele>527.1</ele><name>TP07408</name><time>2016-12-28T22:20:12Z</time></trkpt>
   <trkpt lat="30.915745" lon="34.760865"><ele>526.9</ele><name>TP07409</name><time>2016-12-28T22:20:13Z</time></trkpt>
   <trkpt lat="30.915699" lon="34.760921"><ele>526.6</ele><name>TP07410</name><time>2016-12-28T22:20:14Z</time></trkpt>
   <trkpt lat="30.915661" lon="34.760975"><ele>526.3</ele><name>TP07411</name><time>2016-12-28T22:20:15Z</time></trkpt>
   <trkpt lat="30.915611" lon="34.761022"><ele>526</ele><name>TP07412</name><time>2016-12-28T22:20:16Z</time></trkpt>
   <trkpt lat="30.915558" lon="34.761067"><ele>525.6</ele><name>TP07413</name><time>2016-12-28T22:20:17Z</time></trkpt>
   <trkpt lat="30.915504" lon="34.761106"><ele>525.2</ele><name>TP07414</name><time>2016-12-28T22:20:18Z</time></trkpt>
   <trkpt lat="30.915449" lon="34.761151"><ele>524.8</ele><name>TP07415</name><time>2016-12-28T22:20:19Z</time></trkpt>
   <trkpt lat="30.915394" lon="34.761187"><ele>524.1</ele><name>TP07416</name><time>2016-12-28T22:20:20Z</time></trkpt>
   <trkpt lat="30.915333" lon="34.761223"><ele>522.8</ele><name>TP07417</name><time>2016-12-28T22:20:21Z</time></trkpt>
   <trkpt lat="30.915278" lon="34.761266"><ele>521.6</ele><name>TP07418</name><time>2016-12-28T22:20:22Z</time></trkpt>
   <trkpt lat="30.915216" lon="34.761308"><ele>520.4</ele><name>TP07419</name><time>2016-12-28T22:20:23Z</time></trkpt>
   <trkpt lat="30.915162" lon="34.761354"><ele>519.5</ele><name>TP07420</name><time>2016-12-28T22:20:24Z</time></trkpt>
   <trkpt lat="30.915107" lon="34.761401"><ele>518.6</ele><name>TP07421</name><time>2016-12-28T22:20:25Z</time></trkpt>
   <trkpt lat="30.915054" lon="34.761445"><ele>517.8</ele><name>TP07422</name><time>2016-12-28T22:20:26Z</time></trkpt>
   <trkpt lat="30.915" lon="34.761485"><ele>517</ele><name>TP07423</name><time>2016-12-28T22:20:27Z</time></trkpt>
   <trkpt lat="30.914942" lon="34.761527"><ele>516.3</ele><name>TP07424</name><time>2016-12-28T22:20:28Z</time></trkpt>
   <trkpt lat="30.914879" lon="34.761564"><ele>515.5</ele><name>TP07425</name><time>2016-12-28T22:20:29Z</time></trkpt>
   <trkpt lat="30.914815" lon="34.761602"><ele>514.8</ele><name>TP07426</name><time>2016-12-28T22:20:30Z</time></trkpt>
   <trkpt lat="30.914745" lon="34.761629"><ele>514.1</ele><name>TP07427</name><time>2016-12-28T22:20:31Z</time></trkpt>
   <trkpt lat="30.914671" lon="34.761655"><ele>513.4</ele><name>TP07428</name><time>2016-12-28T22:20:32Z</time></trkpt>
   <trkpt lat="30.914603" lon="34.761695"><ele>512.9</ele><name>TP07429</name><time>2016-12-28T22:20:33Z</time></trkpt>
   <trkpt lat="30.914536" lon="34.761735"><ele>512.2</ele><name>TP07430</name><time>2016-12-28T22:20:34Z</time></trkpt>
   <trkpt lat="30.914466" lon="34.76177"><ele>511.3</ele><name>TP07431</name><time>2016-12-28T22:20:35Z</time></trkpt>
   <trkpt lat="30.91439" lon="34.761797"><ele>510.2</ele><name>TP07432</name><time>2016-12-28T22:20:36Z</time></trkpt>
   <trkpt lat="30.914314" lon="34.76182"><ele>509.1</ele><name>TP07433</name><time>2016-12-28T22:20:37Z</time></trkpt>
   <trkpt lat="30.914239" lon="34.761845"><ele>508</ele><name>TP07434</name><time>2016-12-28T22:20:38Z</time></trkpt>
   <trkpt lat="30.91417" lon="34.761878"><ele>507.1</ele><name>TP07435</name><time>2016-12-28T22:20:39Z</time></trkpt>
   <trkpt lat="30.914092" lon="34.761907"><ele>505.9</ele><name>TP07436</name><time>2016-12-28T22:20:40Z</time></trkpt>
   <trkpt lat="30.914007" lon="34.76193"><ele>504.7</ele><name>TP07437</name><time>2016-12-28T22:20:41Z</time></trkpt>
   <trkpt lat="30.913914" lon="34.761948"><ele>503.2</ele><name>TP07438</name><time>2016-12-28T22:20:42Z</time></trkpt>
   <trkpt lat="30.913823" lon="34.761959"><ele>501.8</ele><name>TP07439</name><time>2016-12-28T22:20:43Z</time></trkpt>
   <trkpt lat="30.913737" lon="34.761961"><ele>500.4</ele><name>TP07440</name><time>2016-12-28T22:20:44Z</time></trkpt>
   <trkpt lat="30.913654" lon="34.761963"><ele>499.6</ele><name>TP07441</name><time>2016-12-28T22:20:45Z</time></trkpt>
   <trkpt lat="30.913571" lon="34.761952"><ele>498.7</ele><name>TP07442</name><time>2016-12-28T22:20:46Z</time></trkpt>
   <trkpt lat="30.913481" lon="34.761934"><ele>497.8</ele><name>TP07443</name><time>2016-12-28T22:20:47Z</time></trkpt>
   <trkpt lat="30.913396" lon="34.761916"><ele>496.8</ele><name>TP07444</name><time>2016-12-28T22:20:48Z</time></trkpt>
   <trkpt lat="30.913317" lon="34.761904"><ele>496</ele><name>TP07445</name><time>2016-12-28T22:20:49Z</time></trkpt>
   <trkpt lat="30.913242" lon="34.761896"><ele>495.2</ele><name>TP07446</name><time>2016-12-28T22:20:50Z</time></trkpt>
   <trkpt lat="30.913167" lon="34.761901"><ele>494.4</ele><name>TP07447</name><time>2016-12-28T22:20:51Z</time></trkpt>
   <trkpt lat="30.913096" lon="34.761907"><ele>493.8</ele><name>TP07448</name><time>2016-12-28T22:20:52Z</time></trkpt>
   <trkpt lat="30.913024" lon="34.761918"><ele>493.1</ele><name>TP07449</name><time>2016-12-28T22:20:53Z</time></trkpt>
   <trkpt lat="30.912952" lon="34.761928"><ele>492.4</ele><name>TP07450</name><time>2016-12-28T22:20:54Z</time></trkpt>
   <trkpt lat="30.912878" lon="34.76194"><ele>491.7</ele><name>TP07451</name><time>2016-12-28T22:20:55Z</time></trkpt>
   <trkpt lat="30.912808" lon="34.761943"><ele>491</ele><name>TP07452</name><time>2016-12-28T22:20:56Z</time></trkpt>
   <trkpt lat="30.912753" lon="34.761936"><ele>490.3</ele><name>TP07453</name><time>2016-12-28T22:20:57Z</time></trkpt>
   <trkpt lat="30.912719" lon="34.761913"><ele>489.8</ele><name>TP07454</name><time>2016-12-28T22:20:58Z</time></trkpt>
   <trkpt lat="30.912688" lon="34.761887"><ele>489.4</ele><name>TP07455</name><time>2016-12-28T22:20:59Z</time></trkpt>
   <trkpt lat="30.912653" lon="34.761855"><ele>488.9</ele><name>TP07456</name><time>2016-12-28T22:21:00Z</time></trkpt>
   <trkpt lat="30.912613" lon="34.761821"><ele>488.4</ele><name>TP07457</name><time>2016-12-28T22:21:01Z</time></trkpt>
   <trkpt lat="30.912568" lon="34.761791"><ele>487.8</ele><name>TP07458</name><time>2016-12-28T22:21:02Z</time></trkpt>
   <trkpt lat="30.912514" lon="34.761768"><ele>487.2</ele><name>TP07459</name><time>2016-12-28T22:21:03Z</time></trkpt>
   <trkpt lat="30.912461" lon="34.761737"><ele>486.6</ele><name>TP07460</name><time>2016-12-28T22:21:04Z</time></trkpt>
   <trkpt lat="30.912411" lon="34.761717"><ele>486.1</ele><name>TP07461</name><time>2016-12-28T22:21:05Z</time></trkpt>
   <trkpt lat="30.912361" lon="34.761715"><ele>485.6</ele><name>TP07462</name><time>2016-12-28T22:21:06Z</time></trkpt>
   <trkpt lat="30.912311" lon="34.761726"><ele>485.1</ele><name>TP07463</name><time>2016-12-28T22:21:07Z</time></trkpt>
   <trkpt lat="30.912259" lon="34.761736"><ele>484.7</ele><name>TP07464</name><time>2016-12-28T22:21:08Z</time></trkpt>
   <trkpt lat="30.912203" lon="34.761756"><ele>484.2</ele><name>TP07465</name><time>2016-12-28T22:21:09Z</time></trkpt>
   <trkpt lat="30.912142" lon="34.761802"><ele>483.6</ele><name>TP07466</name><time>2016-12-28T22:21:10Z</time></trkpt>
   <trkpt lat="30.912078" lon="34.761851"><ele>483</ele><name>TP07467</name><time>2016-12-28T22:21:11Z</time></trkpt>
   <trkpt lat="30.912008" lon="34.761903"><ele>482.3</ele><name>TP07468</name><time>2016-12-28T22:21:12Z</time></trkpt>
   <trkpt lat="30.911939" lon="34.761958"><ele>481.7</ele><name>TP07469</name><time>2016-12-28T22:21:13Z</time></trkpt>
   <trkpt lat="30.911875" lon="34.762026"><ele>481.1</ele><name>TP07470</name><time>2016-12-28T22:21:14Z</time></trkpt>
   <trkpt lat="30.911806" lon="34.762087"><ele>480.4</ele><name>TP07471</name><time>2016-12-28T22:21:15Z</time></trkpt>
   <trkpt lat="30.911744" lon="34.76213"><ele>480.3</ele><name>TP07472</name><time>2016-12-28T22:21:16Z</time></trkpt>
   <trkpt lat="30.911684" lon="34.762147"><ele>479.9</ele><name>TP07473</name><time>2016-12-28T22:21:17Z</time></trkpt>
   <trkpt lat="30.91162" lon="34.76213"><ele>479.1</ele><name>TP07474</name><time>2016-12-28T22:21:18Z</time></trkpt>
   <trkpt lat="30.91157" lon="34.762087"><ele>478.1</ele><name>TP07475</name><time>2016-12-28T22:21:19Z</time></trkpt>
   <trkpt lat="30.911513" lon="34.76205"><ele>477.6</ele><name>TP07476</name><time>2016-12-28T22:21:20Z</time></trkpt>
   <trkpt lat="30.911451" lon="34.762018"><ele>477.1</ele><name>TP07477</name><time>2016-12-28T22:21:21Z</time></trkpt>
   <trkpt lat="30.911387" lon="34.761989"><ele>476.6</ele><name>TP07478</name><time>2016-12-28T22:21:22Z</time></trkpt>
   <trkpt lat="30.91132" lon="34.761961"><ele>476.1</ele><name>TP07479</name><time>2016-12-28T22:21:23Z</time></trkpt>
   <trkpt lat="30.91125" lon="34.761933"><ele>475.5</ele><name>TP07480</name><time>2016-12-28T22:21:24Z</time></trkpt>
   <trkpt lat="30.911179" lon="34.761915"><ele>475</ele><name>TP07481</name><time>2016-12-28T22:21:25Z</time></trkpt>
   <trkpt lat="30.911108" lon="34.761897"><ele>474.5</ele><name>TP07482</name><time>2016-12-28T22:21:26Z</time></trkpt>
   <trkpt lat="30.911037" lon="34.761878"><ele>473.9</ele><name>TP07483</name><time>2016-12-28T22:21:27Z</time></trkpt>
   <trkpt lat="30.910965" lon="34.761871"><ele>473.3</ele><name>TP07484</name><time>2016-12-28T22:21:28Z</time></trkpt>
   <trkpt lat="30.910892" lon="34.761853"><ele>472.7</ele><name>TP07485</name><time>2016-12-28T22:21:29Z</time></trkpt>
   <trkpt lat="30.910815" lon="34.761852"><ele>472</ele><name>TP07486</name><time>2016-12-28T22:21:30Z</time></trkpt>
   <trkpt lat="30.910743" lon="34.761857"><ele>471.3</ele><name>TP07487</name><time>2016-12-28T22:21:31Z</time></trkpt>
   <trkpt lat="30.910668" lon="34.76186"><ele>470.7</ele><name>TP07488</name><time>2016-12-28T22:21:32Z</time></trkpt>
   <trkpt lat="30.910597" lon="34.761861"><ele>470.1</ele><name>TP07489</name><time>2016-12-28T22:21:33Z</time></trkpt>
   <trkpt lat="30.910525" lon="34.761857"><ele>469.4</ele><name>TP07490</name><time>2016-12-28T22:21:34Z</time></trkpt>
   <trkpt lat="30.910457" lon="34.761858"><ele>468.8</ele><name>TP07491</name><time>2016-12-28T22:21:35Z</time></trkpt>
   <trkpt lat="30.910384" lon="34.761858"><ele>468.3</ele><name>TP07492</name><time>2016-12-28T22:21:36Z</time></trkpt>
   <trkpt lat="30.910311" lon="34.761868"><ele>467.9</ele><name>TP07493</name><time>2016-12-28T22:21:37Z</time></trkpt>
   <trkpt lat="30.91024" lon="34.761897"><ele>467.6</ele><name>TP07494</name><time>2016-12-28T22:21:38Z</time></trkpt>
   <trkpt lat="30.910167" lon="34.761935"><ele>467.2</ele><name>TP07495</name><time>2016-12-28T22:21:39Z</time></trkpt>
   <trkpt lat="30.910099" lon="34.761973"><ele>466.8</ele><name>TP07496</name><time>2016-12-28T22:21:40Z</time></trkpt>
   <trkpt lat="30.910031" lon="34.762012"><ele>466.3</ele><name>TP07497</name><time>2016-12-28T22:21:41Z</time></trkpt>
   <trkpt lat="30.909965" lon="34.762045"><ele>465.8</ele><name>TP07498</name><time>2016-12-28T22:21:42Z</time></trkpt>
   <trkpt lat="30.909891" lon="34.762069"><ele>465.2</ele><name>TP07499</name><time>2016-12-28T22:21:43Z</time></trkpt>
   <trkpt lat="30.909818" lon="34.762085"><ele>464.7</ele><name>TP07500</name><time>2016-12-28T22:21:44Z</time></trkpt>
   <trkpt lat="30.909744" lon="34.762115"><ele>464.2</ele><name>TP07501</name><time>2016-12-28T22:21:45Z</time></trkpt>
   <trkpt lat="30.909678" lon="34.762144"><ele>463.8</ele><name>TP07502</name><time>2016-12-28T22:21:46Z</time></trkpt>
   <trkpt lat="30.909613" lon="34.762181"><ele>463.5</ele><name>TP07503</name><time>2016-12-28T22:21:47Z</time></trkpt>
   <trkpt lat="30.909552" lon="34.762221"><ele>463.2</ele><name>TP07504</name><time>2016-12-28T22:21:48Z</time></trkpt>
   <trkpt lat="30.909488" lon="34.762259"><ele>463.1</ele><name>TP07505</name><time>2016-12-28T22:21:49Z</time></trkpt>
   <trkpt lat="30.909424" lon="34.762304"><ele>463</ele><name>TP07506</name><time>2016-12-28T22:21:50Z</time></trkpt>
   <trkpt lat="30.909367" lon="34.762349"><ele>462.9</ele><name>TP07507</name><time>2016-12-28T22:21:51Z</time></trkpt>
   <trkpt lat="30.909312" lon="34.762399"><ele>462.7</ele><name>TP07508</name><time>2016-12-28T22:21:52Z</time></trkpt>
   <trkpt lat="30.909257" lon="34.762453"><ele>462.6</ele><name>TP07509</name><time>2016-12-28T22:21:53Z</time></trkpt>
   <trkpt lat="30.9092" lon="34.762502"><ele>462.4</ele><name>TP07510</name><time>2016-12-28T22:21:54Z</time></trkpt>
   <trkpt lat="30.90914" lon="34.762553"><ele>462.2</ele><name>TP07511</name><time>2016-12-28T22:21:55Z</time></trkpt>
   <trkpt lat="30.909084" lon="34.762603"><ele>461.9</ele><name>TP07512</name><time>2016-12-28T22:21:56Z</time></trkpt>
   <trkpt lat="30.909027" lon="34.762647"><ele>461.7</ele><name>TP07513</name><time>2016-12-28T22:21:57Z</time></trkpt>
   <trkpt lat="30.908969" lon="34.76269"><ele>461.4</ele><name>TP07514</name><time>2016-12-28T22:21:58Z</time></trkpt>
   <trkpt lat="30.908911" lon="34.762728"><ele>461.1</ele><name>TP07515</name><time>2016-12-28T22:21:59Z</time></trkpt>
   <trkpt lat="30.908864" lon="34.762767"><ele>460.8</ele><name>TP07516</name><time>2016-12-28T22:22:00Z</time></trkpt>
   <trkpt lat="30.908814" lon="34.762803"><ele>460.5</ele><name>TP07517</name><time>2016-12-28T22:22:01Z</time></trkpt>
   <trkpt lat="30.908769" lon="34.76285"><ele>460.2</ele><name>TP07518</name><time>2016-12-28T22:22:02Z</time></trkpt>
   <trkpt lat="30.908729" lon="34.762899"><ele>459.9</ele><name>TP07519</name><time>2016-12-28T22:22:03Z</time></trkpt>
   <trkpt lat="30.908686" lon="34.762946"><ele>459.7</ele><name>TP07520</name><time>2016-12-28T22:22:04Z</time></trkpt>
   <trkpt lat="30.908648" lon="34.762994"><ele>459.4</ele><name>TP07521</name><time>2016-12-28T22:22:05Z</time></trkpt>
   <trkpt lat="30.908617" lon="34.76305"><ele>459.2</ele><name>TP07522</name><time>2016-12-28T22:22:06Z</time></trkpt>
   <trkpt lat="30.90859" lon="34.763097"><ele>459</ele><name>TP07523</name><time>2016-12-28T22:22:07Z</time></trkpt>
   <trkpt lat="30.90855" lon="34.763139"><ele>458.7</ele><name>TP07524</name><time>2016-12-28T22:22:08Z</time></trkpt>
   <trkpt lat="30.90851" lon="34.763179"><ele>458.4</ele><name>TP07525</name><time>2016-12-28T22:22:09Z</time></trkpt>
   <trkpt lat="30.90846" lon="34.763221"><ele>458.1</ele><name>TP07526</name><time>2016-12-28T22:22:10Z</time></trkpt>
   <trkpt lat="30.908409" lon="34.763257"><ele>457.8</ele><name>TP07527</name><time>2016-12-28T22:22:11Z</time></trkpt>
   <trkpt lat="30.908368" lon="34.763282"><ele>457.5</ele><name>TP07528</name><time>2016-12-28T22:22:12Z</time></trkpt>
   <trkpt lat="30.908329" lon="34.763307"><ele>457.3</ele><name>TP07529</name><time>2016-12-28T22:22:13Z</time></trkpt>
   <trkpt lat="30.908286" lon="34.763332"><ele>457</ele><name>TP07530</name><time>2016-12-28T22:22:14Z</time></trkpt>
   <trkpt lat="30.908234" lon="34.76335"><ele>456.7</ele><name>TP07531</name><time>2016-12-28T22:22:15Z</time></trkpt>
   <trkpt lat="30.908178" lon="34.763374"><ele>456.3</ele><name>TP07532</name><time>2016-12-28T22:22:16Z</time></trkpt>
   <trkpt lat="30.908124" lon="34.7634"><ele>456</ele><name>TP07533</name><time>2016-12-28T22:22:17Z</time></trkpt>
   <trkpt lat="30.908078" lon="34.763427"><ele>455.7</ele><name>TP07534</name><time>2016-12-28T22:22:18Z</time></trkpt>
   <trkpt lat="30.908042" lon="34.76345"><ele>455.4</ele><name>TP07535</name><time>2016-12-28T22:22:19Z</time></trkpt>
   <trkpt lat="30.908007" lon="34.763477"><ele>455.2</ele><name>TP07536</name><time>2016-12-28T22:22:20Z</time></trkpt>
   <trkpt lat="30.907972" lon="34.763498"><ele>454.9</ele><name>TP07537</name><time>2016-12-28T22:22:21Z</time></trkpt>
   <trkpt lat="30.90794" lon="34.763523"><ele>454.7</ele><name>TP07538</name><time>2016-12-28T22:22:22Z</time></trkpt>
   <trkpt lat="30.907911" lon="34.763552"><ele>454.5</ele><name>TP07539</name><time>2016-12-28T22:22:23Z</time></trkpt>
   <trkpt lat="30.907876" lon="34.763577"><ele>454.3</ele><name>TP07540</name><time>2016-12-28T22:22:24Z</time></trkpt>
   <trkpt lat="30.907836" lon="34.763602"><ele>454</ele><name>TP07541</name><time>2016-12-28T22:22:25Z</time></trkpt>
   <trkpt lat="30.907812" lon="34.763618"><ele>453.9</ele><name>TP07542</name><time>2016-12-28T22:22:26Z</time></trkpt>
   <trkpt lat="30.907783" lon="34.763639"><ele>453.7</ele><name>TP07543</name><time>2016-12-28T22:22:28Z</time></trkpt>
   <trkpt lat="30.907754" lon="34.763656"><ele>453.5</ele><name>TP07544</name><time>2016-12-28T22:22:41Z</time></trkpt>
   <trkpt lat="30.907727" lon="34.763663"><ele>453.4</ele><name>TP07545</name><time>2016-12-28T22:22:50Z</time></trkpt>
   <trkpt lat="30.907696" lon="34.763669"><ele>453.2</ele><name>TP07546</name><time>2016-12-28T22:23:01Z</time></trkpt>
   <trkpt lat="30.907653" lon="34.76369"><ele>452.9</ele><name>TP07547</name><time>2016-12-28T22:23:04Z</time></trkpt>
   <trkpt lat="30.907614" lon="34.763708"><ele>452.7</ele><name>TP07548</name><time>2016-12-28T22:23:06Z</time></trkpt>
   <trkpt lat="30.90757" lon="34.763732"><ele>452.4</ele><name>TP07549</name><time>2016-12-28T22:23:08Z</time></trkpt>
   <trkpt lat="30.907545" lon="34.763747"><ele>452.2</ele><name>TP07550</name><time>2016-12-28T22:23:09Z</time></trkpt>
   <trkpt lat="30.90752" lon="34.763763"><ele>452.1</ele><name>TP07551</name><time>2016-12-28T22:23:10Z</time></trkpt>
   <trkpt lat="30.907492" lon="34.763781"><ele>452</ele><name>TP07552</name><time>2016-12-28T22:23:11Z</time></trkpt>
   <trkpt lat="30.907463" lon="34.7638"><ele>451.9</ele><name>TP07553</name><time>2016-12-28T22:23:12Z</time></trkpt>
   <trkpt lat="30.907433" lon="34.763821"><ele>451.7</ele><name>TP07554</name><time>2016-12-28T22:23:13Z</time></trkpt>
   <trkpt lat="30.907402" lon="34.763843"><ele>451.6</ele><name>TP07555</name><time>2016-12-28T22:23:14Z</time></trkpt>
   <trkpt lat="30.907364" lon="34.763872"><ele>451.4</ele><name>TP07556</name><time>2016-12-28T22:23:15Z</time></trkpt>
   <trkpt lat="30.907322" lon="34.763904"><ele>451.3</ele><name>TP07557</name><time>2016-12-28T22:23:16Z</time></trkpt>
   <trkpt lat="30.907277" lon="34.763937"><ele>451.1</ele><name>TP07558</name><time>2016-12-28T22:23:17Z</time></trkpt>
   <trkpt lat="30.907228" lon="34.76397"><ele>450.9</ele><name>TP07559</name><time>2016-12-28T22:23:18Z</time></trkpt>
   <trkpt lat="30.907176" lon="34.764008"><ele>450.7</ele><name>TP07560</name><time>2016-12-28T22:23:19Z</time></trkpt>
   <trkpt lat="30.907128" lon="34.764054"><ele>450.6</ele><name>TP07561</name><time>2016-12-28T22:23:20Z</time></trkpt>
   <trkpt lat="30.907081" lon="34.764104"><ele>450.4</ele><name>TP07562</name><time>2016-12-28T22:23:21Z</time></trkpt>
   <trkpt lat="30.90687" lon="34.764267"><ele>450.1</ele><name>TP07563</name><time>2016-12-28T22:23:23Z</time></trkpt>
   <trkpt lat="30.906816" lon="34.764295"><ele>450</ele><name>TP07564</name><time>2016-12-28T22:23:24Z</time></trkpt>
   <trkpt lat="30.90676" lon="34.764316"><ele>449.9</ele><name>TP07565</name><time>2016-12-28T22:23:25Z</time></trkpt>
   <trkpt lat="30.906705" lon="34.764333"><ele>449.7</ele><name>TP07566</name><time>2016-12-28T22:23:26Z</time></trkpt>
   <trkpt lat="30.906645" lon="34.764342"><ele>449.6</ele><name>TP07567</name><time>2016-12-28T22:23:27Z</time></trkpt>
   <trkpt lat="30.906588" lon="34.76435"><ele>449.4</ele><name>TP07568</name><time>2016-12-28T22:23:28Z</time></trkpt>
   <trkpt lat="30.906535" lon="34.764362"><ele>449.3</ele><name>TP07569</name><time>2016-12-28T22:23:29Z</time></trkpt>
   <trkpt lat="30.906485" lon="34.764378"><ele>449.1</ele><name>TP07570</name><time>2016-12-28T22:23:30Z</time></trkpt>
   <trkpt lat="30.906435" lon="34.764399"><ele>449</ele><name>TP07571</name><time>2016-12-28T22:23:31Z</time></trkpt>
   <trkpt lat="30.906386" lon="34.764429"><ele>448.8</ele><name>TP07572</name><time>2016-12-28T22:23:32Z</time></trkpt>
   <trkpt lat="30.906346" lon="34.764476"><ele>448.6</ele><name>TP07573</name><time>2016-12-28T22:23:33Z</time></trkpt>
   <trkpt lat="30.906311" lon="34.764527"><ele>448.3</ele><name>TP07574</name><time>2016-12-28T22:23:34Z</time></trkpt>
   <trkpt lat="30.906279" lon="34.764577"><ele>448.1</ele><name>TP07575</name><time>2016-12-28T22:23:35Z</time></trkpt>
   <trkpt lat="30.906243" lon="34.764624"><ele>447.9</ele><name>TP07576</name><time>2016-12-28T22:23:36Z</time></trkpt>
   <trkpt lat="30.90621" lon="34.764664"><ele>447.9</ele><name>TP07577</name><time>2016-12-28T22:23:37Z</time></trkpt>
   <trkpt lat="30.906179" lon="34.764705"><ele>447.8</ele><name>TP07578</name><time>2016-12-28T22:23:38Z</time></trkpt>
   <trkpt lat="30.906146" lon="34.764744"><ele>447.8</ele><name>TP07579</name><time>2016-12-28T22:23:39Z</time></trkpt>
   <trkpt lat="30.906111" lon="34.764783"><ele>447.7</ele><name>TP07580</name><time>2016-12-28T22:23:40Z</time></trkpt>
   <trkpt lat="30.906065" lon="34.764822"><ele>447.7</ele><name>TP07581</name><time>2016-12-28T22:23:41Z</time></trkpt>
   <trkpt lat="30.906012" lon="34.764853"><ele>447.7</ele><name>TP07582</name><time>2016-12-28T22:23:42Z</time></trkpt>
   <trkpt lat="30.905958" lon="34.764883"><ele>447.8</ele><name>TP07583</name><time>2016-12-28T22:23:43Z</time></trkpt>
   <trkpt lat="30.905911" lon="34.764919"><ele>447.8</ele><name>TP07584</name><time>2016-12-28T22:23:44Z</time></trkpt>
   <trkpt lat="30.905867" lon="34.764961"><ele>447.8</ele><name>TP07585</name><time>2016-12-28T22:23:45Z</time></trkpt>
   <trkpt lat="30.905826" lon="34.765005"><ele>447.8</ele><name>TP07586</name><time>2016-12-28T22:23:46Z</time></trkpt>
   <trkpt lat="30.905783" lon="34.76505"><ele>447.8</ele><name>TP07587</name><time>2016-12-28T22:23:47Z</time></trkpt>
   <trkpt lat="30.905744" lon="34.765091"><ele>447.8</ele><name>TP07588</name><time>2016-12-28T22:23:48Z</time></trkpt>
   <trkpt lat="30.905706" lon="34.765134"><ele>447.8</ele><name>TP07589</name><time>2016-12-28T22:23:49Z</time></trkpt>
   <trkpt lat="30.905669" lon="34.765179"><ele>447.8</ele><name>TP07590</name><time>2016-12-28T22:23:50Z</time></trkpt>
   <trkpt lat="30.905632" lon="34.765226"><ele>447.8</ele><name>TP07591</name><time>2016-12-28T22:23:51Z</time></trkpt>
   <trkpt lat="30.905595" lon="34.765273"><ele>447.8</ele><name>TP07592</name><time>2016-12-28T22:23:52Z</time></trkpt>
   <trkpt lat="30.90556" lon="34.76532"><ele>447.8</ele><name>TP07593</name><time>2016-12-28T22:23:53Z</time></trkpt>
   <trkpt lat="30.905521" lon="34.765371"><ele>447.8</ele><name>TP07594</name><time>2016-12-28T22:23:54Z</time></trkpt>
   <trkpt lat="30.905484" lon="34.765413"><ele>447.8</ele><name>TP07595</name><time>2016-12-28T22:23:55Z</time></trkpt>
   <trkpt lat="30.90545" lon="34.765459"><ele>447.9</ele><name>TP07596</name><time>2016-12-28T22:23:56Z</time></trkpt>
   <trkpt lat="30.905407" lon="34.765504"><ele>447.9</ele><name>TP07597</name><time>2016-12-28T22:23:57Z</time></trkpt>
   <trkpt lat="30.905362" lon="34.765549"><ele>447.6</ele><name>TP07598</name><time>2016-12-28T22:23:58Z</time></trkpt>
   <trkpt lat="30.905318" lon="34.765592"><ele>447.3</ele><name>TP07599</name><time>2016-12-28T22:23:59Z</time></trkpt>
   <trkpt lat="30.905275" lon="34.765637"><ele>447.1</ele><name>TP07600</name><time>2016-12-28T22:24:00Z</time></trkpt>
   <trkpt lat="30.905229" lon="34.765684"><ele>446.9</ele><name>TP07601</name><time>2016-12-28T22:24:01Z</time></trkpt>
   <trkpt lat="30.905189" lon="34.765733"><ele>446.6</ele><name>TP07602</name><time>2016-12-28T22:24:02Z</time></trkpt>
   <trkpt lat="30.905147" lon="34.765774"><ele>446.4</ele><name>TP07603</name><time>2016-12-28T22:24:03Z</time></trkpt>
   <trkpt lat="30.905108" lon="34.765816"><ele>446.2</ele><name>TP07604</name><time>2016-12-28T22:24:04Z</time></trkpt>
   <trkpt lat="30.905074" lon="34.76586"><ele>446</ele><name>TP07605</name><time>2016-12-28T22:24:05Z</time></trkpt>
   <trkpt lat="30.905047" lon="34.765902"><ele>445.9</ele><name>TP07606</name><time>2016-12-28T22:24:06Z</time></trkpt>
   <trkpt lat="30.905024" lon="34.765955"><ele>445.8</ele><name>TP07607</name><time>2016-12-28T22:24:07Z</time></trkpt>
   <trkpt lat="30.904999" lon="34.766007"><ele>445.6</ele><name>TP07608</name><time>2016-12-28T22:24:08Z</time></trkpt>
   <trkpt lat="30.904972" lon="34.766055"><ele>445.5</ele><name>TP07609</name><time>2016-12-28T22:24:09Z</time></trkpt>
   <trkpt lat="30.90494" lon="34.766105"><ele>445.4</ele><name>TP07610</name><time>2016-12-28T22:24:10Z</time></trkpt>
   <trkpt lat="30.904902" lon="34.766148"><ele>445.2</ele><name>TP07611</name><time>2016-12-28T22:24:11Z</time></trkpt>
   <trkpt lat="30.904864" lon="34.766191"><ele>445</ele><name>TP07612</name><time>2016-12-28T22:24:12Z</time></trkpt>
   <trkpt lat="30.904827" lon="34.766233"><ele>444.9</ele><name>TP07613</name><time>2016-12-28T22:24:13Z</time></trkpt>
   <trkpt lat="30.904791" lon="34.766268"><ele>444.8</ele><name>TP07614</name><time>2016-12-28T22:24:14Z</time></trkpt>
   <trkpt lat="30.904747" lon="34.766298"><ele>444.7</ele><name>TP07615</name><time>2016-12-28T22:24:15Z</time></trkpt>
   <trkpt lat="30.904709" lon="34.766335"><ele>444.7</ele><name>TP07616</name><time>2016-12-28T22:24:16Z</time></trkpt>
   <trkpt lat="30.904675" lon="34.766368"><ele>444.7</ele><name>TP07617</name><time>2016-12-28T22:24:17Z</time></trkpt>
   <trkpt lat="30.904639" lon="34.7664"><ele>444.7</ele><name>TP07618</name><time>2016-12-28T22:24:18Z</time></trkpt>
   <trkpt lat="30.904595" lon="34.766431"><ele>444.7</ele><name>TP07619</name><time>2016-12-28T22:24:19Z</time></trkpt>
   <trkpt lat="30.904551" lon="34.766462"><ele>444.6</ele><name>TP07620</name><time>2016-12-28T22:24:20Z</time></trkpt>
   <trkpt lat="30.90451" lon="34.766492"><ele>444.6</ele><name>TP07621</name><time>2016-12-28T22:24:21Z</time></trkpt>
   <trkpt lat="30.904473" lon="34.766528"><ele>444.5</ele><name>TP07622</name><time>2016-12-28T22:24:22Z</time></trkpt>
   <trkpt lat="30.904436" lon="34.76656"><ele>444.4</ele><name>TP07623</name><time>2016-12-28T22:24:23Z</time></trkpt>
   <trkpt lat="30.904397" lon="34.766591"><ele>444.3</ele><name>TP07624</name><time>2016-12-28T22:24:24Z</time></trkpt>
   <trkpt lat="30.904353" lon="34.766624"><ele>444.2</ele><name>TP07625</name><time>2016-12-28T22:24:25Z</time></trkpt>
   <trkpt lat="30.904316" lon="34.766666"><ele>444.1</ele><name>TP07626</name><time>2016-12-28T22:24:26Z</time></trkpt>
   <trkpt lat="30.904287" lon="34.766719"><ele>444</ele><name>TP07627</name><time>2016-12-28T22:24:27Z</time></trkpt>
   <trkpt lat="30.904258" lon="34.766765"><ele>443.9</ele><name>TP07628</name><time>2016-12-28T22:24:28Z</time></trkpt>
   <trkpt lat="30.90423" lon="34.766802"><ele>443.7</ele><name>TP07629</name><time>2016-12-28T22:24:29Z</time></trkpt>
   <trkpt lat="30.904194" lon="34.766833"><ele>443.5</ele><name>TP07630</name><time>2016-12-28T22:24:30Z</time></trkpt>
   <trkpt lat="30.904143" lon="34.766851"><ele>443.2</ele><name>TP07631</name><time>2016-12-28T22:24:31Z</time></trkpt>
   <trkpt lat="30.904098" lon="34.766857"><ele>442.9</ele><name>TP07632</name><time>2016-12-28T22:24:32Z</time></trkpt>
   <trkpt lat="30.904052" lon="34.76687"><ele>442.6</ele><name>TP07633</name><time>2016-12-28T22:24:33Z</time></trkpt>
   <trkpt lat="30.904006" lon="34.766886"><ele>442.3</ele><name>TP07634</name><time>2016-12-28T22:24:34Z</time></trkpt>
   <trkpt lat="30.903959" lon="34.766904"><ele>441.9</ele><name>TP07635</name><time>2016-12-28T22:24:35Z</time></trkpt>
   <trkpt lat="30.903915" lon="34.766921"><ele>441.6</ele><name>TP07636</name><time>2016-12-28T22:24:36Z</time></trkpt>
   <trkpt lat="30.903877" lon="34.766934"><ele>441.3</ele><name>TP07637</name><time>2016-12-28T22:24:37Z</time></trkpt>
   <trkpt lat="30.903837" lon="34.76695"><ele>441</ele><name>TP07638</name><time>2016-12-28T22:24:38Z</time></trkpt>
   <trkpt lat="30.903793" lon="34.766974"><ele>440.6</ele><name>TP07639</name><time>2016-12-28T22:24:39Z</time></trkpt>
   <trkpt lat="30.903751" lon="34.766997"><ele>440.2</ele><name>TP07640</name><time>2016-12-28T22:24:40Z</time></trkpt>
   <trkpt lat="30.903711" lon="34.767029"><ele>440.1</ele><name>TP07641</name><time>2016-12-28T22:24:41Z</time></trkpt>
   <trkpt lat="30.903674" lon="34.767065"><ele>440</ele><name>TP07642</name><time>2016-12-28T22:24:42Z</time></trkpt>
   <trkpt lat="30.903633" lon="34.7671"><ele>440</ele><name>TP07643</name><time>2016-12-28T22:24:43Z</time></trkpt>
   <trkpt lat="30.903588" lon="34.767121"><ele>440.1</ele><name>TP07644</name><time>2016-12-28T22:24:44Z</time></trkpt>
   <trkpt lat="30.903543" lon="34.76714"><ele>440.1</ele><name>TP07645</name><time>2016-12-28T22:24:45Z</time></trkpt>
   <trkpt lat="30.903492" lon="34.76716"><ele>440.2</ele><name>TP07646</name><time>2016-12-28T22:24:46Z</time></trkpt>
   <trkpt lat="30.903443" lon="34.767182"><ele>440.2</ele><name>TP07647</name><time>2016-12-28T22:24:47Z</time></trkpt>
   <trkpt lat="30.903391" lon="34.767206"><ele>440.3</ele><name>TP07648</name><time>2016-12-28T22:24:48Z</time></trkpt>
   <trkpt lat="30.903341" lon="34.767236"><ele>440.4</ele><name>TP07649</name><time>2016-12-28T22:24:49Z</time></trkpt>
   <trkpt lat="30.903292" lon="34.767272"><ele>440.5</ele><name>TP07650</name><time>2016-12-28T22:24:50Z</time></trkpt>
   <trkpt lat="30.903246" lon="34.767307"><ele>440.5</ele><name>TP07651</name><time>2016-12-28T22:24:51Z</time></trkpt>
   <trkpt lat="30.903204" lon="34.767345"><ele>440.6</ele><name>TP07652</name><time>2016-12-28T22:24:52Z</time></trkpt>
   <trkpt lat="30.903172" lon="34.767389"><ele>440.7</ele><name>TP07653</name><time>2016-12-28T22:24:53Z</time></trkpt>
   <trkpt lat="30.903148" lon="34.767438"><ele>440.9</ele><name>TP07654</name><time>2016-12-28T22:24:54Z</time></trkpt>
   <trkpt lat="30.903122" lon="34.767483"><ele>441</ele><name>TP07655</name><time>2016-12-28T22:24:55Z</time></trkpt>
   <trkpt lat="30.903098" lon="34.767526"><ele>441.1</ele><name>TP07656</name><time>2016-12-28T22:24:56Z</time></trkpt>
   <trkpt lat="30.903075" lon="34.767573"><ele>441.2</ele><name>TP07657</name><time>2016-12-28T22:24:57Z</time></trkpt>
   <trkpt lat="30.90305" lon="34.767616"><ele>441.3</ele><name>TP07658</name><time>2016-12-28T22:24:58Z</time></trkpt>
   <trkpt lat="30.903027" lon="34.767656"><ele>441.4</ele><name>TP07659</name><time>2016-12-28T22:24:59Z</time></trkpt>
   <trkpt lat="30.903005" lon="34.767698"><ele>441.5</ele><name>TP07660</name><time>2016-12-28T22:25:00Z</time></trkpt>
   <trkpt lat="30.902977" lon="34.767736"><ele>441.6</ele><name>TP07661</name><time>2016-12-28T22:25:01Z</time></trkpt>
   <trkpt lat="30.902946" lon="34.767773"><ele>441.7</ele><name>TP07662</name><time>2016-12-28T22:25:02Z</time></trkpt>
   <trkpt lat="30.902922" lon="34.767802"><ele>441.7</ele><name>TP07663</name><time>2016-12-28T22:25:04Z</time></trkpt>
   <trkpt lat="30.902884" lon="34.767849"><ele>441.9</ele><name>TP07664</name><time>2016-12-28T22:25:06Z</time></trkpt>
   <trkpt lat="30.90286" lon="34.767879"><ele>442</ele><name>TP07665</name><time>2016-12-28T22:25:07Z</time></trkpt>
   <trkpt lat="30.902832" lon="34.767913"><ele>442.1</ele><name>TP07666</name><time>2016-12-28T22:25:08Z</time></trkpt>
   <trkpt lat="30.902804" lon="34.767944"><ele>442.1</ele><name>TP07667</name><time>2016-12-28T22:25:09Z</time></trkpt>
   <trkpt lat="30.902767" lon="34.767982"><ele>442.2</ele><name>TP07668</name><time>2016-12-28T22:25:10Z</time></trkpt>
   <trkpt lat="30.902723" lon="34.768024"><ele>442.2</ele><name>TP07669</name><time>2016-12-28T22:25:11Z</time></trkpt>
   <trkpt lat="30.902686" lon="34.768059"><ele>442.2</ele><name>TP07670</name><time>2016-12-28T22:25:12Z</time></trkpt>
   <trkpt lat="30.90264" lon="34.768102"><ele>442.2</ele><name>TP07671</name><time>2016-12-28T22:25:13Z</time></trkpt>
   <trkpt lat="30.902596" lon="34.768139"><ele>442.2</ele><name>TP07672</name><time>2016-12-28T22:25:14Z</time></trkpt>
   <trkpt lat="30.902553" lon="34.768172"><ele>442.2</ele><name>TP07673</name><time>2016-12-28T22:25:15Z</time></trkpt>
   <trkpt lat="30.902511" lon="34.768204"><ele>442.2</ele><name>TP07674</name><time>2016-12-28T22:25:16Z</time></trkpt>
   <trkpt lat="30.902467" lon="34.768235"><ele>442.1</ele><name>TP07675</name><time>2016-12-28T22:25:17Z</time></trkpt>
   <trkpt lat="30.902427" lon="34.768264"><ele>442.1</ele><name>TP07676</name><time>2016-12-28T22:25:18Z</time></trkpt>
   <trkpt lat="30.902388" lon="34.768294"><ele>442.1</ele><name>TP07677</name><time>2016-12-28T22:25:19Z</time></trkpt>
   <trkpt lat="30.902345" lon="34.768324"><ele>442</ele><name>TP07678</name><time>2016-12-28T22:25:20Z</time></trkpt>
   <trkpt lat="30.902301" lon="34.768357"><ele>442</ele><name>TP07679</name><time>2016-12-28T22:25:21Z</time></trkpt>
   <trkpt lat="30.902259" lon="34.768391"><ele>441.9</ele><name>TP07680</name><time>2016-12-28T22:25:22Z</time></trkpt>
   <trkpt lat="30.902218" lon="34.768426"><ele>441.8</ele><name>TP07681</name><time>2016-12-28T22:25:23Z</time></trkpt>
   <trkpt lat="30.902175" lon="34.768464"><ele>441.7</ele><name>TP07682</name><time>2016-12-28T22:25:24Z</time></trkpt>
   <trkpt lat="30.902131" lon="34.768502"><ele>441.6</ele><name>TP07683</name><time>2016-12-28T22:25:25Z</time></trkpt>
   <trkpt lat="30.902088" lon="34.768537"><ele>441.5</ele><name>TP07684</name><time>2016-12-28T22:25:26Z</time></trkpt>
   <trkpt lat="30.902045" lon="34.768571"><ele>441.6</ele><name>TP07685</name><time>2016-12-28T22:25:27Z</time></trkpt>
   <trkpt lat="30.902002" lon="34.768604"><ele>441.7</ele><name>TP07686</name><time>2016-12-28T22:25:28Z</time></trkpt>
   <trkpt lat="30.901955" lon="34.768638"><ele>441.8</ele><name>TP07687</name><time>2016-12-28T22:25:29Z</time></trkpt>
   <trkpt lat="30.901918" lon="34.768663"><ele>441.9</ele><name>TP07688</name><time>2016-12-28T22:25:30Z</time></trkpt>
   <trkpt lat="30.901871" lon="34.76869"><ele>442.1</ele><name>TP07689</name><time>2016-12-28T22:25:31Z</time></trkpt>
   <trkpt lat="30.901807" lon="34.768725"><ele>442.4</ele><name>TP07690</name><time>2016-12-28T22:25:32Z</time></trkpt>
   <trkpt lat="30.901738" lon="34.768757"><ele>442.7</ele><name>TP07691</name><time>2016-12-28T22:25:33Z</time></trkpt>
   <trkpt lat="30.901645" lon="34.768797"><ele>443.1</ele><name>TP07692</name><time>2016-12-28T22:25:34Z</time></trkpt>
   <trkpt lat="30.90154" lon="34.768852"><ele>443.5</ele><name>TP07693</name><time>2016-12-28T22:25:36Z</time></trkpt>
   <trkpt lat="30.901486" lon="34.768869"><ele>443.7</ele><name>TP07694</name><time>2016-12-28T22:25:37Z</time></trkpt>
   <trkpt lat="30.901439" lon="34.768883"><ele>443.9</ele><name>TP07695</name><time>2016-12-28T22:25:38Z</time></trkpt>
   <trkpt lat="30.901394" lon="34.768886"><ele>444.1</ele><name>TP07696</name><time>2016-12-28T22:25:39Z</time></trkpt>
   <trkpt lat="30.901353" lon="34.768887"><ele>444.3</ele><name>TP07697</name><time>2016-12-28T22:25:40Z</time></trkpt>
   <trkpt lat="30.90131" lon="34.768879"><ele>444.4</ele><name>TP07698</name><time>2016-12-28T22:25:41Z</time></trkpt>
   <trkpt lat="30.90127" lon="34.768861"><ele>444.7</ele><name>TP07699</name><time>2016-12-28T22:25:42Z</time></trkpt>
   <trkpt lat="30.901226" lon="34.768839"><ele>444.8</ele><name>TP07700</name><time>2016-12-28T22:25:43Z</time></trkpt>
   <trkpt lat="30.901184" lon="34.768813"><ele>444.9</ele><name>TP07701</name><time>2016-12-28T22:25:44Z</time></trkpt>
   <trkpt lat="30.901143" lon="34.768793"><ele>444.9</ele><name>TP07702</name><time>2016-12-28T22:25:45Z</time></trkpt>
   <trkpt lat="30.9011" lon="34.768781"><ele>444.9</ele><name>TP07703</name><time>2016-12-28T22:25:46Z</time></trkpt>
   <trkpt lat="30.901054" lon="34.768781"><ele>445</ele><name>TP07704</name><time>2016-12-28T22:25:47Z</time></trkpt>
   <trkpt lat="30.901002" lon="34.768792"><ele>444.9</ele><name>TP07705</name><time>2016-12-28T22:25:48Z</time></trkpt>
   <trkpt lat="30.900954" lon="34.768813"><ele>444.9</ele><name>TP07706</name><time>2016-12-28T22:25:49Z</time></trkpt>
   <trkpt lat="30.900911" lon="34.76884"><ele>444.9</ele><name>TP07707</name><time>2016-12-28T22:25:50Z</time></trkpt>
   <trkpt lat="30.900865" lon="34.768873"><ele>444.9</ele><name>TP07708</name><time>2016-12-28T22:25:51Z</time></trkpt>
   <trkpt lat="30.900824" lon="34.768904"><ele>444.9</ele><name>TP07709</name><time>2016-12-28T22:25:52Z</time></trkpt>
   <trkpt lat="30.900784" lon="34.768935"><ele>444.9</ele><name>TP07710</name><time>2016-12-28T22:25:53Z</time></trkpt>
   <trkpt lat="30.900747" lon="34.768964"><ele>445</ele><name>TP07711</name><time>2016-12-28T22:25:54Z</time></trkpt>
   <trkpt lat="30.900703" lon="34.768993"><ele>445</ele><name>TP07712</name><time>2016-12-28T22:25:55Z</time></trkpt>
   <trkpt lat="30.900662" lon="34.769024"><ele>445</ele><name>TP07713</name><time>2016-12-28T22:25:56Z</time></trkpt>
   <trkpt lat="30.900622" lon="34.769055"><ele>445.1</ele><name>TP07714</name><time>2016-12-28T22:25:57Z</time></trkpt>
   <trkpt lat="30.900578" lon="34.769083"><ele>445.2</ele><name>TP07715</name><time>2016-12-28T22:25:58Z</time></trkpt>
   <trkpt lat="30.900532" lon="34.76911"><ele>445.3</ele><name>TP07716</name><time>2016-12-28T22:25:59Z</time></trkpt>
   <trkpt lat="30.900491" lon="34.769139"><ele>445.3</ele><name>TP07717</name><time>2016-12-28T22:26:00Z</time></trkpt>
   <trkpt lat="30.900451" lon="34.769165"><ele>445.4</ele><name>TP07718</name><time>2016-12-28T22:26:01Z</time></trkpt>
   <trkpt lat="30.900407" lon="34.769189"><ele>445.5</ele><name>TP07719</name><time>2016-12-28T22:26:02Z</time></trkpt>
   <trkpt lat="30.900361" lon="34.769207"><ele>445.6</ele><name>TP07720</name><time>2016-12-28T22:26:03Z</time></trkpt>
   <trkpt lat="30.900317" lon="34.769221"><ele>445.7</ele><name>TP07721</name><time>2016-12-28T22:26:04Z</time></trkpt>
   <trkpt lat="30.900275" lon="34.769239"><ele>445.8</ele><name>TP07722</name><time>2016-12-28T22:26:05Z</time></trkpt>
   <trkpt lat="30.900228" lon="34.769259"><ele>445.9</ele><name>TP07723</name><time>2016-12-28T22:26:06Z</time></trkpt>
   <trkpt lat="30.900193" lon="34.769289"><ele>446</ele><name>TP07724</name><time>2016-12-28T22:26:07Z</time></trkpt>
   <trkpt lat="30.900179" lon="34.769329"><ele>446.1</ele><name>TP07725</name><time>2016-12-28T22:26:08Z</time></trkpt>
   <trkpt lat="30.900173" lon="34.769366"><ele>446.1</ele><name>TP07726</name><time>2016-12-28T22:26:09Z</time></trkpt>
   <trkpt lat="30.900165" lon="34.769403"><ele>446.2</ele><name>TP07727</name><time>2016-12-28T22:26:10Z</time></trkpt>
   <trkpt lat="30.900152" lon="34.769441"><ele>446.2</ele><name>TP07728</name><time>2016-12-28T22:26:11Z</time></trkpt>
   <trkpt lat="30.900139" lon="34.769472"><ele>446.2</ele><name>TP07729</name><time>2016-12-28T22:26:12Z</time></trkpt>
   <trkpt lat="30.900126" lon="34.769505"><ele>446.3</ele><name>TP07730</name><time>2016-12-28T22:26:13Z</time></trkpt>
   <trkpt lat="30.900109" lon="34.769544"><ele>446.3</ele><name>TP07731</name><time>2016-12-28T22:26:14Z</time></trkpt>
   <trkpt lat="30.900089" lon="34.769585"><ele>446.4</ele><name>TP07732</name><time>2016-12-28T22:26:16Z</time></trkpt>
   <trkpt lat="30.900068" lon="34.769617"><ele>446.4</ele><name>TP07733</name><time>2016-12-28T22:26:18Z</time></trkpt>
   <trkpt lat="30.900056" lon="34.769658"><ele>446.5</ele><name>TP07734</name><time>2016-12-28T22:26:20Z</time></trkpt>
   <trkpt lat="30.900028" lon="34.769696"><ele>446.5</ele><name>TP07735</name><time>2016-12-28T22:26:21Z</time></trkpt>
   <trkpt lat="30.899986" lon="34.769741"><ele>446.6</ele><name>TP07736</name><time>2016-12-28T22:26:22Z</time></trkpt>
   <trkpt lat="30.899942" lon="34.769784"><ele>446.7</ele><name>TP07737</name><time>2016-12-28T22:26:23Z</time></trkpt>
   <trkpt lat="30.899896" lon="34.76982"><ele>446.7</ele><name>TP07738</name><time>2016-12-28T22:26:24Z</time></trkpt>
   <trkpt lat="30.899851" lon="34.769855"><ele>446.8</ele><name>TP07739</name><time>2016-12-28T22:26:25Z</time></trkpt>
   <trkpt lat="30.899808" lon="34.769889"><ele>446.8</ele><name>TP07740</name><time>2016-12-28T22:26:26Z</time></trkpt>
   <trkpt lat="30.899677" lon="34.770006"><ele>446.9</ele><name>TP07741</name><time>2016-12-28T22:26:28Z</time></trkpt>
   <trkpt lat="30.899648" lon="34.770044"><ele>447</ele><name>TP07742</name><time>2016-12-28T22:26:29Z</time></trkpt>
   <trkpt lat="30.899619" lon="34.770085"><ele>447</ele><name>TP07743</name><time>2016-12-28T22:26:30Z</time></trkpt>
   <trkpt lat="30.899587" lon="34.770126"><ele>447</ele><name>TP07744</name><time>2016-12-28T22:26:31Z</time></trkpt>
   <trkpt lat="30.89956" lon="34.77017"><ele>447</ele><name>TP07745</name><time>2016-12-28T22:26:32Z</time></trkpt>
   <trkpt lat="30.899532" lon="34.770213"><ele>447</ele><name>TP07746</name><time>2016-12-28T22:26:33Z</time></trkpt>
   <trkpt lat="30.899506" lon="34.770262"><ele>447</ele><name>TP07747</name><time>2016-12-28T22:26:34Z</time></trkpt>
   <trkpt lat="30.899473" lon="34.7703"><ele>447</ele><name>TP07748</name><time>2016-12-28T22:26:35Z</time></trkpt>
   <trkpt lat="30.899441" lon="34.770337"><ele>446.9</ele><name>TP07749</name><time>2016-12-28T22:26:36Z</time></trkpt>
   <trkpt lat="30.899408" lon="34.770372"><ele>446.8</ele><name>TP07750</name><time>2016-12-28T22:26:37Z</time></trkpt>
   <trkpt lat="30.899371" lon="34.770407"><ele>446.8</ele><name>TP07751</name><time>2016-12-28T22:26:38Z</time></trkpt>
   <trkpt lat="30.899335" lon="34.770444"><ele>446.7</ele><name>TP07752</name><time>2016-12-28T22:26:39Z</time></trkpt>
   <trkpt lat="30.899302" lon="34.770483"><ele>446.6</ele><name>TP07753</name><time>2016-12-28T22:26:40Z</time></trkpt>
   <trkpt lat="30.899268" lon="34.770522"><ele>446.5</ele><name>TP07754</name><time>2016-12-28T22:26:41Z</time></trkpt>
   <trkpt lat="30.899232" lon="34.770564"><ele>446.4</ele><name>TP07755</name><time>2016-12-28T22:26:42Z</time></trkpt>
   <trkpt lat="30.899196" lon="34.770608"><ele>446.3</ele><name>TP07756</name><time>2016-12-28T22:26:43Z</time></trkpt>
   <trkpt lat="30.899158" lon="34.770642"><ele>446.2</ele><name>TP07757</name><time>2016-12-28T22:26:44Z</time></trkpt>
   <trkpt lat="30.899118" lon="34.770679"><ele>446.2</ele><name>TP07758</name><time>2016-12-28T22:26:45Z</time></trkpt>
   <trkpt lat="30.899077" lon="34.770714"><ele>446.1</ele><name>TP07759</name><time>2016-12-28T22:26:46Z</time></trkpt>
   <trkpt lat="30.89904" lon="34.770754"><ele>446.1</ele><name>TP07760</name><time>2016-12-28T22:26:47Z</time></trkpt>
   <trkpt lat="30.898998" lon="34.770791"><ele>446</ele><name>TP07761</name><time>2016-12-28T22:26:48Z</time></trkpt>
   <trkpt lat="30.898958" lon="34.77083"><ele>446</ele><name>TP07762</name><time>2016-12-28T22:26:49Z</time></trkpt>
   <trkpt lat="30.898917" lon="34.77087"><ele>446</ele><name>TP07763</name><time>2016-12-28T22:26:50Z</time></trkpt>
   <trkpt lat="30.89888" lon="34.770903"><ele>446</ele><name>TP07764</name><time>2016-12-28T22:26:51Z</time></trkpt>
   <trkpt lat="30.898836" lon="34.770939"><ele>446</ele><name>TP07765</name><time>2016-12-28T22:26:52Z</time></trkpt>
   <trkpt lat="30.898795" lon="34.770969"><ele>446</ele><name>TP07766</name><time>2016-12-28T22:26:53Z</time></trkpt>
   <trkpt lat="30.898755" lon="34.771002"><ele>446</ele><name>TP07767</name><time>2016-12-28T22:26:54Z</time></trkpt>
   <trkpt lat="30.89871" lon="34.771031"><ele>446.1</ele><name>TP07768</name><time>2016-12-28T22:26:55Z</time></trkpt>
   <trkpt lat="30.89867" lon="34.771065"><ele>446.2</ele><name>TP07769</name><time>2016-12-28T22:26:56Z</time></trkpt>
   <trkpt lat="30.898629" lon="34.771106"><ele>446.3</ele><name>TP07770</name><time>2016-12-28T22:26:57Z</time></trkpt>
   <trkpt lat="30.898584" lon="34.771145"><ele>446.3</ele><name>TP07771</name><time>2016-12-28T22:26:58Z</time></trkpt>
   <trkpt lat="30.89854" lon="34.771179"><ele>446.4</ele><name>TP07772</name><time>2016-12-28T22:26:59Z</time></trkpt>
   <trkpt lat="30.898497" lon="34.771214"><ele>446.4</ele><name>TP07773</name><time>2016-12-28T22:27:00Z</time></trkpt>
   <trkpt lat="30.898455" lon="34.771247"><ele>446.4</ele><name>TP07774</name><time>2016-12-28T22:27:01Z</time></trkpt>
   <trkpt lat="30.898413" lon="34.771281"><ele>446.4</ele><name>TP07775</name><time>2016-12-28T22:27:02Z</time></trkpt>
   <trkpt lat="30.898371" lon="34.771319"><ele>446.5</ele><name>TP07776</name><time>2016-12-28T22:27:03Z</time></trkpt>
   <trkpt lat="30.898333" lon="34.771357"><ele>446.5</ele><name>TP07777</name><time>2016-12-28T22:27:04Z</time></trkpt>
   <trkpt lat="30.898293" lon="34.771393"><ele>446.5</ele><name>TP07778</name><time>2016-12-28T22:27:05Z</time></trkpt>
   <trkpt lat="30.898256" lon="34.77143"><ele>446.6</ele><name>TP07779</name><time>2016-12-28T22:27:06Z</time></trkpt>
   <trkpt lat="30.898217" lon="34.771468"><ele>446.6</ele><name>TP07780</name><time>2016-12-28T22:27:07Z</time></trkpt>
   <trkpt lat="30.898175" lon="34.771509"><ele>446.7</ele><name>TP07781</name><time>2016-12-28T22:27:08Z</time></trkpt>
   <trkpt lat="30.898135" lon="34.771543"><ele>446.7</ele><name>TP07782</name><time>2016-12-28T22:27:09Z</time></trkpt>
   <trkpt lat="30.898098" lon="34.771585"><ele>446.8</ele><name>TP07783</name><time>2016-12-28T22:27:10Z</time></trkpt>
   <trkpt lat="30.898058" lon="34.771621"><ele>446.8</ele><name>TP07784</name><time>2016-12-28T22:27:11Z</time></trkpt>
   <trkpt lat="30.898017" lon="34.771659"><ele>446.9</ele><name>TP07785</name><time>2016-12-28T22:27:12Z</time></trkpt>
   <trkpt lat="30.897978" lon="34.771698"><ele>446.9</ele><name>TP07786</name><time>2016-12-28T22:27:13Z</time></trkpt>
   <trkpt lat="30.89794" lon="34.771737"><ele>447</ele><name>TP07787</name><time>2016-12-28T22:27:14Z</time></trkpt>
   <trkpt lat="30.8979" lon="34.771775"><ele>447.1</ele><name>TP07788</name><time>2016-12-28T22:27:15Z</time></trkpt>
   <trkpt lat="30.897858" lon="34.771813"><ele>447.3</ele><name>TP07789</name><time>2016-12-28T22:27:16Z</time></trkpt>
   <trkpt lat="30.89782" lon="34.771852"><ele>447.4</ele><name>TP07790</name><time>2016-12-28T22:27:17Z</time></trkpt>
   <trkpt lat="30.897779" lon="34.771888"><ele>447.6</ele><name>TP07791</name><time>2016-12-28T22:27:18Z</time></trkpt>
   <trkpt lat="30.897737" lon="34.771925"><ele>447.6</ele><name>TP07792</name><time>2016-12-28T22:27:19Z</time></trkpt>
   <trkpt lat="30.897695" lon="34.771956"><ele>447.7</ele><name>TP07793</name><time>2016-12-28T22:27:20Z</time></trkpt>
   <trkpt lat="30.897657" lon="34.771998"><ele>447.6</ele><name>TP07794</name><time>2016-12-28T22:27:21Z</time></trkpt>
   <trkpt lat="30.897613" lon="34.772035"><ele>447.6</ele><name>TP07795</name><time>2016-12-28T22:27:22Z</time></trkpt>
   <trkpt lat="30.897566" lon="34.772066"><ele>447.5</ele><name>TP07796</name><time>2016-12-28T22:27:23Z</time></trkpt>
   <trkpt lat="30.897525" lon="34.772097"><ele>447.5</ele><name>TP07797</name><time>2016-12-28T22:27:24Z</time></trkpt>
   <trkpt lat="30.897479" lon="34.772129"><ele>447.5</ele><name>TP07798</name><time>2016-12-28T22:27:25Z</time></trkpt>
   <trkpt lat="30.897435" lon="34.772165"><ele>447.6</ele><name>TP07799</name><time>2016-12-28T22:27:26Z</time></trkpt>
   <trkpt lat="30.897397" lon="34.772213"><ele>447.6</ele><name>TP07800</name><time>2016-12-28T22:27:27Z</time></trkpt>
   <trkpt lat="30.897357" lon="34.772259"><ele>447.5</ele><name>TP07801</name><time>2016-12-28T22:27:28Z</time></trkpt>
   <trkpt lat="30.89732" lon="34.772305"><ele>447.4</ele><name>TP07802</name><time>2016-12-28T22:27:29Z</time></trkpt>
   <trkpt lat="30.89728" lon="34.772345"><ele>447.3</ele><name>TP07803</name><time>2016-12-28T22:27:30Z</time></trkpt>
   <trkpt lat="30.897232" lon="34.772372"><ele>447.2</ele><name>TP07804</name><time>2016-12-28T22:27:31Z</time></trkpt>
   <trkpt lat="30.897181" lon="34.772393"><ele>447.1</ele><name>TP07805</name><time>2016-12-28T22:27:32Z</time></trkpt>
   <trkpt lat="30.897134" lon="34.77241"><ele>446.9</ele><name>TP07806</name><time>2016-12-28T22:27:33Z</time></trkpt>
   <trkpt lat="30.897083" lon="34.772425"><ele>446.8</ele><name>TP07807</name><time>2016-12-28T22:27:34Z</time></trkpt>
   <trkpt lat="30.897032" lon="34.772431"><ele>447</ele><name>TP07808</name><time>2016-12-28T22:27:35Z</time></trkpt>
   <trkpt lat="30.89698" lon="34.772428"><ele>447.3</ele><name>TP07809</name><time>2016-12-28T22:27:36Z</time></trkpt>
   <trkpt lat="30.896925" lon="34.77242"><ele>447.6</ele><name>TP07810</name><time>2016-12-28T22:27:37Z</time></trkpt>
   <trkpt lat="30.89687" lon="34.772423"><ele>447.8</ele><name>TP07811</name><time>2016-12-28T22:27:38Z</time></trkpt>
   <trkpt lat="30.896816" lon="34.772426"><ele>448.1</ele><name>TP07812</name><time>2016-12-28T22:27:39Z</time></trkpt>
   <trkpt lat="30.896771" lon="34.772438"><ele>448.2</ele><name>TP07813</name><time>2016-12-28T22:27:40Z</time></trkpt>
   <trkpt lat="30.89672" lon="34.772447"><ele>448.4</ele><name>TP07814</name><time>2016-12-28T22:27:41Z</time></trkpt>
   <trkpt lat="30.896674" lon="34.772456"><ele>448.6</ele><name>TP07815</name><time>2016-12-28T22:27:42Z</time></trkpt>
   <trkpt lat="30.896628" lon="34.772471"><ele>448.6</ele><name>TP07816</name><time>2016-12-28T22:27:43Z</time></trkpt>
   <trkpt lat="30.896582" lon="34.772488"><ele>448.7</ele><name>TP07817</name><time>2016-12-28T22:27:44Z</time></trkpt>
   <trkpt lat="30.896535" lon="34.772507"><ele>448.7</ele><name>TP07818</name><time>2016-12-28T22:27:45Z</time></trkpt>
   <trkpt lat="30.896486" lon="34.772524"><ele>448.8</ele><name>TP07819</name><time>2016-12-28T22:27:46Z</time></trkpt>
   <trkpt lat="30.896445" lon="34.772543"><ele>448.7</ele><name>TP07820</name><time>2016-12-28T22:27:47Z</time></trkpt>
   <trkpt lat="30.896402" lon="34.772568"><ele>448.6</ele><name>TP07821</name><time>2016-12-28T22:27:48Z</time></trkpt>
   <trkpt lat="30.896357" lon="34.772591"><ele>448.6</ele><name>TP07822</name><time>2016-12-28T22:27:49Z</time></trkpt>
   <trkpt lat="30.896314" lon="34.772616"><ele>448.4</ele><name>TP07823</name><time>2016-12-28T22:27:50Z</time></trkpt>
   <trkpt lat="30.896267" lon="34.772637"><ele>448.3</ele><name>TP07824</name><time>2016-12-28T22:27:51Z</time></trkpt>
   <trkpt lat="30.896221" lon="34.772662"><ele>448.4</ele><name>TP07825</name><time>2016-12-28T22:27:52Z</time></trkpt>
   <trkpt lat="30.89617" lon="34.772687"><ele>448.6</ele><name>TP07826</name><time>2016-12-28T22:27:53Z</time></trkpt>
   <trkpt lat="30.896123" lon="34.772707"><ele>448.8</ele><name>TP07827</name><time>2016-12-28T22:27:54Z</time></trkpt>
   <trkpt lat="30.896077" lon="34.772727"><ele>449.1</ele><name>TP07828</name><time>2016-12-28T22:27:55Z</time></trkpt>
   <trkpt lat="30.896032" lon="34.77275"><ele>449.3</ele><name>TP07829</name><time>2016-12-28T22:27:56Z</time></trkpt>
   <trkpt lat="30.895986" lon="34.772771"><ele>449.5</ele><name>TP07830</name><time>2016-12-28T22:27:57Z</time></trkpt>
   <trkpt lat="30.895941" lon="34.772792"><ele>449.8</ele><name>TP07831</name><time>2016-12-28T22:27:58Z</time></trkpt>
   <trkpt lat="30.895897" lon="34.772808"><ele>450.1</ele><name>TP07832</name><time>2016-12-28T22:27:59Z</time></trkpt>
   <trkpt lat="30.895853" lon="34.772825"><ele>450.3</ele><name>TP07833</name><time>2016-12-28T22:28:00Z</time></trkpt>
   <trkpt lat="30.89581" lon="34.772838"><ele>450.6</ele><name>TP07834</name><time>2016-12-28T22:28:01Z</time></trkpt>
   <trkpt lat="30.895765" lon="34.772853"><ele>451</ele><name>TP07835</name><time>2016-12-28T22:28:02Z</time></trkpt>
   <trkpt lat="30.89572" lon="34.772871"><ele>451.2</ele><name>TP07836</name><time>2016-12-28T22:28:03Z</time></trkpt>
   <trkpt lat="30.895678" lon="34.772885"><ele>451.5</ele><name>TP07837</name><time>2016-12-28T22:28:04Z</time></trkpt>
   <trkpt lat="30.895638" lon="34.7729"><ele>451.8</ele><name>TP07838</name><time>2016-12-28T22:28:05Z</time></trkpt>
   <trkpt lat="30.895597" lon="34.772922"><ele>452</ele><name>TP07839</name><time>2016-12-28T22:28:06Z</time></trkpt>
   <trkpt lat="30.895557" lon="34.772949"><ele>452.3</ele><name>TP07840</name><time>2016-12-28T22:28:07Z</time></trkpt>
   <trkpt lat="30.895516" lon="34.772976"><ele>452.6</ele><name>TP07841</name><time>2016-12-28T22:28:08Z</time></trkpt>
   <trkpt lat="30.895475" lon="34.772999"><ele>452.8</ele><name>TP07842</name><time>2016-12-28T22:28:09Z</time></trkpt>
   <trkpt lat="30.895435" lon="34.773013"><ele>453.1</ele><name>TP07843</name><time>2016-12-28T22:28:10Z</time></trkpt>
   <trkpt lat="30.895394" lon="34.773027"><ele>453.4</ele><name>TP07844</name><time>2016-12-28T22:28:11Z</time></trkpt>
   <trkpt lat="30.895353" lon="34.773041"><ele>453.5</ele><name>TP07845</name><time>2016-12-28T22:28:12Z</time></trkpt>
   <trkpt lat="30.895314" lon="34.773056"><ele>453.7</ele><name>TP07846</name><time>2016-12-28T22:28:13Z</time></trkpt>
   <trkpt lat="30.895272" lon="34.773072"><ele>453.9</ele><name>TP07847</name><time>2016-12-28T22:28:14Z</time></trkpt>
   <trkpt lat="30.895233" lon="34.773083"><ele>454</ele><name>TP07848</name><time>2016-12-28T22:28:15Z</time></trkpt>
   <trkpt lat="30.89519" lon="34.773096"><ele>454.2</ele><name>TP07849</name><time>2016-12-28T22:28:16Z</time></trkpt>
   <trkpt lat="30.895161" lon="34.773104"><ele>454.4</ele><name>TP07850</name><time>2016-12-28T22:28:18Z</time></trkpt>
   <trkpt lat="30.895135" lon="34.773112"><ele>454.5</ele><name>TP07851</name><time>2016-12-28T22:28:19Z</time></trkpt>
   <trkpt lat="30.895105" lon="34.773121"><ele>454.6</ele><name>TP07852</name><time>2016-12-28T22:28:20Z</time></trkpt>
   <trkpt lat="30.895045" lon="34.773112"><ele>455.1</ele><name>TP07853</name><time>2016-12-28T22:28:22Z</time></trkpt>
   <trkpt lat="30.895002" lon="34.773127"><ele>455.2</ele><name>TP07854</name><time>2016-12-28T22:28:23Z</time></trkpt>
   <trkpt lat="30.894968" lon="34.77314"><ele>455.3</ele><name>TP07855</name><time>2016-12-28T22:28:24Z</time></trkpt>
   <trkpt lat="30.894932" lon="34.773153"><ele>455.5</ele><name>TP07856</name><time>2016-12-28T22:28:25Z</time></trkpt>
   <trkpt lat="30.894894" lon="34.773168"><ele>455.6</ele><name>TP07857</name><time>2016-12-28T22:28:26Z</time></trkpt>
   <trkpt lat="30.894852" lon="34.773184"><ele>455.7</ele><name>TP07858</name><time>2016-12-28T22:28:27Z</time></trkpt>
   <trkpt lat="30.894804" lon="34.773202"><ele>455.9</ele><name>TP07859</name><time>2016-12-28T22:28:28Z</time></trkpt>
   <trkpt lat="30.894756" lon="34.77322"><ele>456</ele><name>TP07860</name><time>2016-12-28T22:28:29Z</time></trkpt>
   <trkpt lat="30.894706" lon="34.773239"><ele>456.1</ele><name>TP07861</name><time>2016-12-28T22:28:30Z</time></trkpt>
   <trkpt lat="30.894643" lon="34.773264"><ele>456.3</ele><name>TP07862</name><time>2016-12-28T22:28:31Z</time></trkpt>
   <trkpt lat="30.894577" lon="34.773289"><ele>456.5</ele><name>TP07863</name><time>2016-12-28T22:28:32Z</time></trkpt>
   <trkpt lat="30.894521" lon="34.77331"><ele>456.5</ele><name>TP07864</name><time>2016-12-28T22:28:33Z</time></trkpt>
   <trkpt lat="30.894464" lon="34.773331"><ele>456.6</ele><name>TP07865</name><time>2016-12-28T22:28:34Z</time></trkpt>
   <trkpt lat="30.894411" lon="34.773351"><ele>456.7</ele><name>TP07866</name><time>2016-12-28T22:28:35Z</time></trkpt>
   <trkpt lat="30.894364" lon="34.773369"><ele>456.7</ele><name>TP07867</name><time>2016-12-28T22:28:36Z</time></trkpt>
   <trkpt lat="30.894321" lon="34.77338"><ele>456.8</ele><name>TP07868</name><time>2016-12-28T22:28:37Z</time></trkpt>
   <trkpt lat="30.894281" lon="34.773386"><ele>456.9</ele><name>TP07869</name><time>2016-12-28T22:28:38Z</time></trkpt>
   <trkpt lat="30.894243" lon="34.773393"><ele>457.1</ele><name>TP07870</name><time>2016-12-28T22:28:39Z</time></trkpt>
   <trkpt lat="30.894201" lon="34.773401"><ele>457.2</ele><name>TP07871</name><time>2016-12-28T22:28:40Z</time></trkpt>
   <trkpt lat="30.89416" lon="34.773417"><ele>457.2</ele><name>TP07872</name><time>2016-12-28T22:28:41Z</time></trkpt>
   <trkpt lat="30.894116" lon="34.773436"><ele>457.3</ele><name>TP07873</name><time>2016-12-28T22:28:42Z</time></trkpt>
   <trkpt lat="30.894077" lon="34.773449"><ele>457.3</ele><name>TP07874</name><time>2016-12-28T22:28:43Z</time></trkpt>
   <trkpt lat="30.894037" lon="34.773469"><ele>457.3</ele><name>TP07875</name><time>2016-12-28T22:28:44Z</time></trkpt>
   <trkpt lat="30.894002" lon="34.773478"><ele>457.4</ele><name>TP07876</name><time>2016-12-28T22:28:45Z</time></trkpt>
   <trkpt lat="30.893963" lon="34.773493"><ele>457.4</ele><name>TP07877</name><time>2016-12-28T22:28:46Z</time></trkpt>
   <trkpt lat="30.893924" lon="34.773503"><ele>457.5</ele><name>TP07878</name><time>2016-12-28T22:28:47Z</time></trkpt>
   <trkpt lat="30.893883" lon="34.773516"><ele>457.6</ele><name>TP07879</name><time>2016-12-28T22:28:48Z</time></trkpt>
   <trkpt lat="30.89384" lon="34.773526"><ele>457.7</ele><name>TP07880</name><time>2016-12-28T22:28:49Z</time></trkpt>
   <trkpt lat="30.893796" lon="34.773542"><ele>457.8</ele><name>TP07881</name><time>2016-12-28T22:28:50Z</time></trkpt>
   <trkpt lat="30.893751" lon="34.773559"><ele>457.8</ele><name>TP07882</name><time>2016-12-28T22:28:51Z</time></trkpt>
   <trkpt lat="30.893715" lon="34.773572"><ele>457.8</ele><name>TP07883</name><time>2016-12-28T22:28:52Z</time></trkpt>
   <trkpt lat="30.893668" lon="34.773592"><ele>457.8</ele><name>TP07884</name><time>2016-12-28T22:28:53Z</time></trkpt>
   <trkpt lat="30.893626" lon="34.773602"><ele>457.9</ele><name>TP07885</name><time>2016-12-28T22:28:54Z</time></trkpt>
   <trkpt lat="30.893583" lon="34.773613"><ele>457.9</ele><name>TP07886</name><time>2016-12-28T22:28:55Z</time></trkpt>
   <trkpt lat="30.89354" lon="34.773621"><ele>458</ele><name>TP07887</name><time>2016-12-28T22:28:56Z</time></trkpt>
   <trkpt lat="30.893495" lon="34.773635"><ele>458</ele><name>TP07888</name><time>2016-12-28T22:28:57Z</time></trkpt>
   <trkpt lat="30.893457" lon="34.773648"><ele>458</ele><name>TP07889</name><time>2016-12-28T22:28:58Z</time></trkpt>
   <trkpt lat="30.89341" lon="34.773665"><ele>458</ele><name>TP07890</name><time>2016-12-28T22:28:59Z</time></trkpt>
   <trkpt lat="30.893363" lon="34.773683"><ele>458</ele><name>TP07891</name><time>2016-12-28T22:29:00Z</time></trkpt>
   <trkpt lat="30.89332" lon="34.773697"><ele>458.1</ele><name>TP07892</name><time>2016-12-28T22:29:01Z</time></trkpt>
   <trkpt lat="30.893272" lon="34.773716"><ele>458</ele><name>TP07893</name><time>2016-12-28T22:29:02Z</time></trkpt>
   <trkpt lat="30.893221" lon="34.773736"><ele>458</ele><name>TP07894</name><time>2016-12-28T22:29:03Z</time></trkpt>
   <trkpt lat="30.89317" lon="34.773756"><ele>458.1</ele><name>TP07895</name><time>2016-12-28T22:29:04Z</time></trkpt>
   <trkpt lat="30.893123" lon="34.773777"><ele>458.1</ele><name>TP07896</name><time>2016-12-28T22:29:05Z</time></trkpt>
   <trkpt lat="30.893077" lon="34.773797"><ele>458.2</ele><name>TP07897</name><time>2016-12-28T22:29:06Z</time></trkpt>
   <trkpt lat="30.893034" lon="34.773815"><ele>458.2</ele><name>TP07898</name><time>2016-12-28T22:29:07Z</time></trkpt>
   <trkpt lat="30.892991" lon="34.773834"><ele>458.3</ele><name>TP07899</name><time>2016-12-28T22:29:08Z</time></trkpt>
   <trkpt lat="30.892948" lon="34.773851"><ele>458.3</ele><name>TP07900</name><time>2016-12-28T22:29:09Z</time></trkpt>
   <trkpt lat="30.892907" lon="34.773866"><ele>458.4</ele><name>TP07901</name><time>2016-12-28T22:29:10Z</time></trkpt>
   <trkpt lat="30.892849" lon="34.773872"><ele>458.7</ele><name>TP07902</name><time>2016-12-28T22:29:12Z</time></trkpt>
   <trkpt lat="30.892819" lon="34.773883"><ele>458.8</ele><name>TP07903</name><time>2016-12-28T22:29:13Z</time></trkpt>
   <trkpt lat="30.892762" lon="34.773906"><ele>458.9</ele><name>TP07904</name><time>2016-12-28T22:29:14Z</time></trkpt>
   <trkpt lat="30.892704" lon="34.773929"><ele>459.1</ele><name>TP07905</name><time>2016-12-28T22:29:15Z</time></trkpt>
   <trkpt lat="30.892649" lon="34.773953"><ele>459.2</ele><name>TP07906</name><time>2016-12-28T22:29:16Z</time></trkpt>
   <trkpt lat="30.892594" lon="34.773978"><ele>459.2</ele><name>TP07907</name><time>2016-12-28T22:29:17Z</time></trkpt>
   <trkpt lat="30.89255" lon="34.773997"><ele>459.2</ele><name>TP07908</name><time>2016-12-28T22:29:18Z</time></trkpt>
   <trkpt lat="30.892502" lon="34.774014"><ele>459.3</ele><name>TP07909</name><time>2016-12-28T22:29:19Z</time></trkpt>
   <trkpt lat="30.892435" lon="34.774039"><ele>459.3</ele><name>TP07910</name><time>2016-12-28T22:29:20Z</time></trkpt>
   <trkpt lat="30.892377" lon="34.774061"><ele>459.3</ele><name>TP07911</name><time>2016-12-28T22:29:21Z</time></trkpt>
   <trkpt lat="30.892326" lon="34.774079"><ele>459.3</ele><name>TP07912</name><time>2016-12-28T22:29:22Z</time></trkpt>
   <trkpt lat="30.892277" lon="34.774095"><ele>459.3</ele><name>TP07913</name><time>2016-12-28T22:29:23Z</time></trkpt>
   <trkpt lat="30.892225" lon="34.774108"><ele>459.3</ele><name>TP07914</name><time>2016-12-28T22:29:24Z</time></trkpt>
   <trkpt lat="30.892172" lon="34.774119"><ele>459.4</ele><name>TP07915</name><time>2016-12-28T22:29:25Z</time></trkpt>
   <trkpt lat="30.892122" lon="34.77413"><ele>459.4</ele><name>TP07916</name><time>2016-12-28T22:29:26Z</time></trkpt>
   <trkpt lat="30.892078" lon="34.774139"><ele>459.4</ele><name>TP07917</name><time>2016-12-28T22:29:27Z</time></trkpt>
   <trkpt lat="30.892038" lon="34.774145"><ele>459.5</ele><name>TP07918</name><time>2016-12-28T22:29:28Z</time></trkpt>
   <trkpt lat="30.892004" lon="34.774159"><ele>459.4</ele><name>TP07919</name><time>2016-12-28T22:29:29Z</time></trkpt>
   <trkpt lat="30.891966" lon="34.774165"><ele>459.5</ele><name>TP07920</name><time>2016-12-28T22:29:30Z</time></trkpt>
   <trkpt lat="30.891922" lon="34.774174"><ele>459.6</ele><name>TP07921</name><time>2016-12-28T22:29:31Z</time></trkpt>
   <trkpt lat="30.891877" lon="34.77419"><ele>459.5</ele><name>TP07922</name><time>2016-12-28T22:29:32Z</time></trkpt>
   <trkpt lat="30.891835" lon="34.774201"><ele>459.6</ele><name>TP07923</name><time>2016-12-28T22:29:34Z</time></trkpt>
   <trkpt lat="30.891771" lon="34.774228"><ele>459.5</ele><name>TP07924</name><time>2016-12-28T22:29:35Z</time></trkpt>
   <trkpt lat="30.891711" lon="34.774254"><ele>459.4</ele><name>TP07925</name><time>2016-12-28T22:29:36Z</time></trkpt>
   <trkpt lat="30.891659" lon="34.774256"><ele>459.6</ele><name>TP07926</name><time>2016-12-28T22:29:38Z</time></trkpt>
   <trkpt lat="30.891599" lon="34.774288"><ele>459.4</ele><name>TP07927</name><time>2016-12-28T22:29:39Z</time></trkpt>
   <trkpt lat="30.891534" lon="34.77432"><ele>459.2</ele><name>TP07928</name><time>2016-12-28T22:29:40Z</time></trkpt>
   <trkpt lat="30.89147" lon="34.774353"><ele>459.1</ele><name>TP07929</name><time>2016-12-28T22:29:41Z</time></trkpt>
   <trkpt lat="30.89141" lon="34.774379"><ele>459</ele><name>TP07930</name><time>2016-12-28T22:29:42Z</time></trkpt>
   <trkpt lat="30.891348" lon="34.774405"><ele>458.9</ele><name>TP07931</name><time>2016-12-28T22:29:43Z</time></trkpt>
   <trkpt lat="30.891291" lon="34.774429"><ele>458.8</ele><name>TP07932</name><time>2016-12-28T22:29:44Z</time></trkpt>
   <trkpt lat="30.891243" lon="34.774451"><ele>458.8</ele><name>TP07933</name><time>2016-12-28T22:29:45Z</time></trkpt>
   <trkpt lat="30.891192" lon="34.774472"><ele>458.7</ele><name>TP07934</name><time>2016-12-28T22:29:46Z</time></trkpt>
   <trkpt lat="30.891139" lon="34.774492"><ele>458.7</ele><name>TP07935</name><time>2016-12-28T22:29:47Z</time></trkpt>
   <trkpt lat="30.891093" lon="34.774494"><ele>458.9</ele><name>TP07936</name><time>2016-12-28T22:29:48Z</time></trkpt>
   <trkpt lat="30.891065" lon="34.774478"><ele>459.2</ele><name>TP07937</name><time>2016-12-28T22:29:49Z</time></trkpt>
   <trkpt lat="30.89102" lon="34.774474"><ele>459.4</ele><name>TP07938</name><time>2016-12-28T22:29:50Z</time></trkpt>
   <trkpt lat="30.890964" lon="34.774493"><ele>459.4</ele><name>TP07939</name><time>2016-12-28T22:29:51Z</time></trkpt>
   <trkpt lat="30.89091" lon="34.774514"><ele>459.4</ele><name>TP07940</name><time>2016-12-28T22:29:52Z</time></trkpt>
   <trkpt lat="30.890856" lon="34.774533"><ele>459.4</ele><name>TP07941</name><time>2016-12-28T22:29:53Z</time></trkpt>
   <trkpt lat="30.890805" lon="34.774543"><ele>459.6</ele><name>TP07942</name><time>2016-12-28T22:29:55Z</time></trkpt>
   <trkpt lat="30.890749" lon="34.774565"><ele>459.6</ele><name>TP07943</name><time>2016-12-28T22:29:56Z</time></trkpt>
   <trkpt lat="30.890692" lon="34.774587"><ele>459.6</ele><name>TP07944</name><time>2016-12-28T22:29:57Z</time></trkpt>
   <trkpt lat="30.890637" lon="34.774608"><ele>459.7</ele><name>TP07945</name><time>2016-12-28T22:29:58Z</time></trkpt>
   <trkpt lat="30.890583" lon="34.774628"><ele>459.8</ele><name>TP07946</name><time>2016-12-28T22:29:59Z</time></trkpt>
   <trkpt lat="30.89053" lon="34.774647"><ele>459.9</ele><name>TP07947</name><time>2016-12-28T22:30:00Z</time></trkpt>
   <trkpt lat="30.890477" lon="34.774667"><ele>459.9</ele><name>TP07948</name><time>2016-12-28T22:30:01Z</time></trkpt>
   <trkpt lat="30.890421" lon="34.774684"><ele>460</ele><name>TP07949</name><time>2016-12-28T22:30:02Z</time></trkpt>
   <trkpt lat="30.890355" lon="34.774668"><ele>460.4</ele><name>TP07950</name><time>2016-12-28T22:30:04Z</time></trkpt>
   <trkpt lat="30.890291" lon="34.774681"><ele>460.5</ele><name>TP07951</name><time>2016-12-28T22:30:05Z</time></trkpt>
   <trkpt lat="30.890235" lon="34.774684"><ele>460.6</ele><name>TP07952</name><time>2016-12-28T22:30:06Z</time></trkpt>
   <trkpt lat="30.890182" lon="34.774689"><ele>460.8</ele><name>TP07953</name><time>2016-12-28T22:30:07Z</time></trkpt>
   <trkpt lat="30.890132" lon="34.774688"><ele>460.9</ele><name>TP07954</name><time>2016-12-28T22:30:08Z</time></trkpt>
   <trkpt lat="30.890081" lon="34.774691"><ele>461.1</ele><name>TP07955</name><time>2016-12-28T22:30:09Z</time></trkpt>
   <trkpt lat="30.890032" lon="34.774686"><ele>461.3</ele><name>TP07956</name><time>2016-12-28T22:30:10Z</time></trkpt>
   <trkpt lat="30.889979" lon="34.774689"><ele>461.4</ele><name>TP07957</name><time>2016-12-28T22:30:11Z</time></trkpt>
   <trkpt lat="30.889933" lon="34.774695"><ele>461.5</ele><name>TP07958</name><time>2016-12-28T22:30:12Z</time></trkpt>
   <trkpt lat="30.889876" lon="34.774705"><ele>461.6</ele><name>TP07959</name><time>2016-12-28T22:30:13Z</time></trkpt>
   <trkpt lat="30.889826" lon="34.77471"><ele>461.7</ele><name>TP07960</name><time>2016-12-28T22:30:14Z</time></trkpt>
   <trkpt lat="30.889772" lon="34.774714"><ele>461.8</ele><name>TP07961</name><time>2016-12-28T22:30:15Z</time></trkpt>
   <trkpt lat="30.889724" lon="34.77472"><ele>461.9</ele><name>TP07962</name><time>2016-12-28T22:30:16Z</time></trkpt>
   <trkpt lat="30.889664" lon="34.774725"><ele>462</ele><name>TP07963</name><time>2016-12-28T22:30:17Z</time></trkpt>
   <trkpt lat="30.889604" lon="34.774732"><ele>462.2</ele><name>TP07964</name><time>2016-12-28T22:30:18Z</time></trkpt>
   <trkpt lat="30.889547" lon="34.774742"><ele>462.1</ele><name>TP07965</name><time>2016-12-28T22:30:19Z</time></trkpt>
   <trkpt lat="30.889493" lon="34.774753"><ele>462</ele><name>TP07966</name><time>2016-12-28T22:30:20Z</time></trkpt>
   <trkpt lat="30.889441" lon="34.774763"><ele>461.9</ele><name>TP07967</name><time>2016-12-28T22:30:21Z</time></trkpt>
   <trkpt lat="30.889393" lon="34.774772"><ele>461.8</ele><name>TP07968</name><time>2016-12-28T22:30:22Z</time></trkpt>
   <trkpt lat="30.889332" lon="34.774759"><ele>462</ele><name>TP07969</name><time>2016-12-28T22:30:24Z</time></trkpt>
   <trkpt lat="30.889275" lon="34.774775"><ele>461.8</ele><name>TP07970</name><time>2016-12-28T22:30:25Z</time></trkpt>
   <trkpt lat="30.889228" lon="34.77478"><ele>461.7</ele><name>TP07971</name><time>2016-12-28T22:30:26Z</time></trkpt>
   <trkpt lat="30.889177" lon="34.77479"><ele>461.6</ele><name>TP07972</name><time>2016-12-28T22:30:27Z</time></trkpt>
   <trkpt lat="30.889128" lon="34.774801"><ele>461.5</ele><name>TP07973</name><time>2016-12-28T22:30:28Z</time></trkpt>
   <trkpt lat="30.889073" lon="34.774814"><ele>461.4</ele><name>TP07974</name><time>2016-12-28T22:30:29Z</time></trkpt>
   <trkpt lat="30.889017" lon="34.774829"><ele>461.3</ele><name>TP07975</name><time>2016-12-28T22:30:30Z</time></trkpt>
   <trkpt lat="30.888959" lon="34.774845"><ele>461.1</ele><name>TP07976</name><time>2016-12-28T22:30:31Z</time></trkpt>
   <trkpt lat="30.888903" lon="34.774859"><ele>461</ele><name>TP07977</name><time>2016-12-28T22:30:32Z</time></trkpt>
   <trkpt lat="30.888845" lon="34.774872"><ele>460.8</ele><name>TP07978</name><time>2016-12-28T22:30:33Z</time></trkpt>
   <trkpt lat="30.888791" lon="34.774883"><ele>460.7</ele><name>TP07979</name><time>2016-12-28T22:30:34Z</time></trkpt>
   <trkpt lat="30.88874" lon="34.774888"><ele>460.7</ele><name>TP07980</name><time>2016-12-28T22:30:35Z</time></trkpt>
   <trkpt lat="30.88869" lon="34.774895"><ele>460.5</ele><name>TP07981</name><time>2016-12-28T22:30:36Z</time></trkpt>
   <trkpt lat="30.888641" lon="34.774904"><ele>460.2</ele><name>TP07982</name><time>2016-12-28T22:30:37Z</time></trkpt>
   <trkpt lat="30.888591" lon="34.774925"><ele>459.9</ele><name>TP07983</name><time>2016-12-28T22:30:38Z</time></trkpt>
   <trkpt lat="30.888541" lon="34.774941"><ele>459.6</ele><name>TP07984</name><time>2016-12-28T22:30:39Z</time></trkpt>
   <trkpt lat="30.88849" lon="34.774953"><ele>459.3</ele><name>TP07985</name><time>2016-12-28T22:30:40Z</time></trkpt>
   <trkpt lat="30.888438" lon="34.774965"><ele>459.1</ele><name>TP07986</name><time>2016-12-28T22:30:41Z</time></trkpt>
   <trkpt lat="30.888385" lon="34.774974"><ele>458.9</ele><name>TP07987</name><time>2016-12-28T22:30:42Z</time></trkpt>
   <trkpt lat="30.888334" lon="34.774982"><ele>458.7</ele><name>TP07988</name><time>2016-12-28T22:30:43Z</time></trkpt>
   <trkpt lat="30.888285" lon="34.774988"><ele>458.5</ele><name>TP07989</name><time>2016-12-28T22:30:44Z</time></trkpt>
   <trkpt lat="30.888233" lon="34.774992"><ele>458.3</ele><name>TP07990</name><time>2016-12-28T22:30:45Z</time></trkpt>
   <trkpt lat="30.888174" lon="34.774998"><ele>458.1</ele><name>TP07991</name><time>2016-12-28T22:30:46Z</time></trkpt>
   <trkpt lat="30.888122" lon="34.775002"><ele>458</ele><name>TP07992</name><time>2016-12-28T22:30:47Z</time></trkpt>
   <trkpt lat="30.888077" lon="34.775"><ele>457.9</ele><name>TP07993</name><time>2016-12-28T22:30:48Z</time></trkpt>
   <trkpt lat="30.888029" lon="34.775"><ele>457.8</ele><name>TP07994</name><time>2016-12-28T22:30:49Z</time></trkpt>
   <trkpt lat="30.887982" lon="34.775"><ele>457.7</ele><name>TP07995</name><time>2016-12-28T22:30:50Z</time></trkpt>
   <trkpt lat="30.887929" lon="34.775001"><ele>457.5</ele><name>TP07996</name><time>2016-12-28T22:30:51Z</time></trkpt>
   <trkpt lat="30.887872" lon="34.775003"><ele>457.6</ele><name>TP07997</name><time>2016-12-28T22:30:52Z</time></trkpt>
   <trkpt lat="30.887816" lon="34.775008"><ele>457.8</ele><name>TP07998</name><time>2016-12-28T22:30:53Z</time></trkpt>
   <trkpt lat="30.887763" lon="34.775013"><ele>457.9</ele><name>TP07999</name><time>2016-12-28T22:30:54Z</time></trkpt>
   <trkpt lat="30.887715" lon="34.775016"><ele>458</ele><name>TP08000</name><time>2016-12-28T22:30:55Z</time></trkpt>
   <trkpt lat="30.887666" lon="34.77502"><ele>458.1</ele><name>TP08001</name><time>2016-12-28T22:30:56Z</time></trkpt>
   <trkpt lat="30.887613" lon="34.775026"><ele>458.2</ele><name>TP08002</name><time>2016-12-28T22:30:57Z</time></trkpt>
   <trkpt lat="30.887562" lon="34.77503"><ele>458.3</ele><name>TP08003</name><time>2016-12-28T22:30:58Z</time></trkpt>
   <trkpt lat="30.887518" lon="34.77502"><ele>458.5</ele><name>TP08004</name><time>2016-12-28T22:30:59Z</time></trkpt>
   <trkpt lat="30.88747" lon="34.775015"><ele>458.7</ele><name>TP08005</name><time>2016-12-28T22:31:00Z</time></trkpt>
   <trkpt lat="30.887423" lon="34.775018"><ele>458.8</ele><name>TP08006</name><time>2016-12-28T22:31:01Z</time></trkpt>
   <trkpt lat="30.887378" lon="34.775022"><ele>458.9</ele><name>TP08007</name><time>2016-12-28T22:31:02Z</time></trkpt>
   <trkpt lat="30.887329" lon="34.775025"><ele>459</ele><name>TP08008</name><time>2016-12-28T22:31:03Z</time></trkpt>
   <trkpt lat="30.887284" lon="34.775019"><ele>459.2</ele><name>TP08009</name><time>2016-12-28T22:31:04Z</time></trkpt>
   <trkpt lat="30.887232" lon="34.775017"><ele>459.4</ele><name>TP08010</name><time>2016-12-28T22:31:05Z</time></trkpt>
   <trkpt lat="30.887174" lon="34.775019"><ele>459.6</ele><name>TP08011</name><time>2016-12-28T22:31:06Z</time></trkpt>
   <trkpt lat="30.887122" lon="34.775019"><ele>459.7</ele><name>TP08012</name><time>2016-12-28T22:31:07Z</time></trkpt>
   <trkpt lat="30.887096" lon="34.775008"><ele>459.9</ele><name>TP08013</name><time>2016-12-28T22:31:08Z</time></trkpt>
   <trkpt lat="30.887046" lon="34.774979"><ele>460.2</ele><name>TP08014</name><time>2016-12-28T22:31:10Z</time></trkpt>
   <trkpt lat="30.886983" lon="34.774996"><ele>459.9</ele><name>TP08015</name><time>2016-12-28T22:31:11Z</time></trkpt>
   <trkpt lat="30.886927" lon="34.775008"><ele>459.7</ele><name>TP08016</name><time>2016-12-28T22:31:12Z</time></trkpt>
   <trkpt lat="30.88687" lon="34.775031"><ele>459.5</ele><name>TP08017</name><time>2016-12-28T22:31:13Z</time></trkpt>
   <trkpt lat="30.886817" lon="34.775051"><ele>459.3</ele><name>TP08018</name><time>2016-12-28T22:31:14Z</time></trkpt>
   <trkpt lat="30.88676" lon="34.775069"><ele>459.1</ele><name>TP08019</name><time>2016-12-28T22:31:15Z</time></trkpt>
   <trkpt lat="30.886711" lon="34.775082"><ele>458.9</ele><name>TP08020</name><time>2016-12-28T22:31:16Z</time></trkpt>
   <trkpt lat="30.886665" lon="34.775091"><ele>458.8</ele><name>TP08021</name><time>2016-12-28T22:31:17Z</time></trkpt>
   <trkpt lat="30.886619" lon="34.775101"><ele>458.7</ele><name>TP08022</name><time>2016-12-28T22:31:18Z</time></trkpt>
   <trkpt lat="30.886579" lon="34.775107"><ele>458.7</ele><name>TP08023</name><time>2016-12-28T22:31:19Z</time></trkpt>
   <trkpt lat="30.886538" lon="34.775111"><ele>458.6</ele><name>TP08024</name><time>2016-12-28T22:31:20Z</time></trkpt>
   <trkpt lat="30.8865" lon="34.775107"><ele>458.6</ele><name>TP08025</name><time>2016-12-28T22:31:21Z</time></trkpt>
   <trkpt lat="30.886465" lon="34.775108"><ele>458.6</ele><name>TP08026</name><time>2016-12-28T22:31:22Z</time></trkpt>
   <trkpt lat="30.886426" lon="34.775103"><ele>458.6</ele><name>TP08027</name><time>2016-12-28T22:31:23Z</time></trkpt>
   <trkpt lat="30.886379" lon="34.775101"><ele>458.6</ele><name>TP08028</name><time>2016-12-28T22:31:24Z</time></trkpt>
   <trkpt lat="30.886332" lon="34.775102"><ele>458.6</ele><name>TP08029</name><time>2016-12-28T22:31:25Z</time></trkpt>
   <trkpt lat="30.886283" lon="34.775105"><ele>458.5</ele><name>TP08030</name><time>2016-12-28T22:31:26Z</time></trkpt>
   <trkpt lat="30.88624" lon="34.775107"><ele>458.5</ele><name>TP08031</name><time>2016-12-28T22:31:27Z</time></trkpt>
   <trkpt lat="30.886191" lon="34.77511"><ele>458.4</ele><name>TP08032</name><time>2016-12-28T22:31:28Z</time></trkpt>
   <trkpt lat="30.886146" lon="34.775113"><ele>458.3</ele><name>TP08033</name><time>2016-12-28T22:31:29Z</time></trkpt>
   <trkpt lat="30.886098" lon="34.775117"><ele>458.1</ele><name>TP08034</name><time>2016-12-28T22:31:30Z</time></trkpt>
   <trkpt lat="30.886051" lon="34.775121"><ele>458</ele><name>TP08035</name><time>2016-12-28T22:31:31Z</time></trkpt>
   <trkpt lat="30.886012" lon="34.775118"><ele>458</ele><name>TP08036</name><time>2016-12-28T22:31:32Z</time></trkpt>
   <trkpt lat="30.885963" lon="34.775121"><ele>457.9</ele><name>TP08037</name><time>2016-12-28T22:31:33Z</time></trkpt>
   <trkpt lat="30.885922" lon="34.775117"><ele>457.8</ele><name>TP08038</name><time>2016-12-28T22:31:34Z</time></trkpt>
   <trkpt lat="30.885876" lon="34.775123"><ele>457.7</ele><name>TP08039</name><time>2016-12-28T22:31:35Z</time></trkpt>
   <trkpt lat="30.885837" lon="34.775118"><ele>457.6</ele><name>TP08040</name><time>2016-12-28T22:31:36Z</time></trkpt>
   <trkpt lat="30.885791" lon="34.775116"><ele>457.5</ele><name>TP08041</name><time>2016-12-28T22:31:37Z</time></trkpt>
   <trkpt lat="30.885744" lon="34.775117"><ele>457.4</ele><name>TP08042</name><time>2016-12-28T22:31:38Z</time></trkpt>
   <trkpt lat="30.8857" lon="34.775117"><ele>457.4</ele><name>TP08043</name><time>2016-12-28T22:31:39Z</time></trkpt>
   <trkpt lat="30.885665" lon="34.77512"><ele>457.3</ele><name>TP08044</name><time>2016-12-28T22:31:40Z</time></trkpt>
   <trkpt lat="30.885628" lon="34.775122"><ele>457.2</ele><name>TP08045</name><time>2016-12-28T22:31:41Z</time></trkpt>
   <trkpt lat="30.885586" lon="34.775126"><ele>457.1</ele><name>TP08046</name><time>2016-12-28T22:31:42Z</time></trkpt>
   <trkpt lat="30.885543" lon="34.775133"><ele>457</ele><name>TP08047</name><time>2016-12-28T22:31:43Z</time></trkpt>
   <trkpt lat="30.885498" lon="34.775141"><ele>456.8</ele><name>TP08048</name><time>2016-12-28T22:31:44Z</time></trkpt>
   <trkpt lat="30.885456" lon="34.77515"><ele>456.7</ele><name>TP08049</name><time>2016-12-28T22:31:45Z</time></trkpt>
   <trkpt lat="30.885415" lon="34.775162"><ele>456.5</ele><name>TP08050</name><time>2016-12-28T22:31:46Z</time></trkpt>
   <trkpt lat="30.885376" lon="34.775174"><ele>456.4</ele><name>TP08051</name><time>2016-12-28T22:31:47Z</time></trkpt>
   <trkpt lat="30.885338" lon="34.775184"><ele>456.3</ele><name>TP08052</name><time>2016-12-28T22:31:48Z</time></trkpt>
   <trkpt lat="30.885298" lon="34.775192"><ele>456.2</ele><name>TP08053</name><time>2016-12-28T22:31:49Z</time></trkpt>
   <trkpt lat="30.885257" lon="34.775199"><ele>456.1</ele><name>TP08054</name><time>2016-12-28T22:31:50Z</time></trkpt>
   <trkpt lat="30.885213" lon="34.775205"><ele>456</ele><name>TP08055</name><time>2016-12-28T22:31:51Z</time></trkpt>
   <trkpt lat="30.885174" lon="34.775208"><ele>455.9</ele><name>TP08056</name><time>2016-12-28T22:31:52Z</time></trkpt>
   <trkpt lat="30.885127" lon="34.775186"><ele>455.9</ele><name>TP08057</name><time>2016-12-28T22:31:54Z</time></trkpt>
   <trkpt lat="30.885073" lon="34.775194"><ele>455.8</ele><name>TP08058</name><time>2016-12-28T22:31:55Z</time></trkpt>
   <trkpt lat="30.885023" lon="34.775201"><ele>455.7</ele><name>TP08059</name><time>2016-12-28T22:31:56Z</time></trkpt>
   <trkpt lat="30.884969" lon="34.775186"><ele>455.7</ele><name>TP08060</name><time>2016-12-28T22:31:58Z</time></trkpt>
   <trkpt lat="30.884917" lon="34.775199"><ele>455.5</ele><name>TP08061</name><time>2016-12-28T22:31:59Z</time></trkpt>
   <trkpt lat="30.884866" lon="34.775211"><ele>455.4</ele><name>TP08062</name><time>2016-12-28T22:32:00Z</time></trkpt>
   <trkpt lat="30.884812" lon="34.775195"><ele>455.4</ele><name>TP08063</name><time>2016-12-28T22:32:02Z</time></trkpt>
   <trkpt lat="30.884758" lon="34.775208"><ele>455.3</ele><name>TP08064</name><time>2016-12-28T22:32:03Z</time></trkpt>
   <trkpt lat="30.884708" lon="34.775219"><ele>455.1</ele><name>TP08065</name><time>2016-12-28T22:32:04Z</time></trkpt>
   <trkpt lat="30.88466" lon="34.775229"><ele>455</ele><name>TP08066</name><time>2016-12-28T22:32:05Z</time></trkpt>
   <trkpt lat="30.88461" lon="34.775238"><ele>454.9</ele><name>TP08067</name><time>2016-12-28T22:32:06Z</time></trkpt>
   <trkpt lat="30.884559" lon="34.775245"><ele>454.9</ele><name>TP08068</name><time>2016-12-28T22:32:07Z</time></trkpt>
   <trkpt lat="30.884511" lon="34.775252"><ele>455</ele><name>TP08069</name><time>2016-12-28T22:32:08Z</time></trkpt>
   <trkpt lat="30.884465" lon="34.775259"><ele>455.1</ele><name>TP08070</name><time>2016-12-28T22:32:09Z</time></trkpt>
   <trkpt lat="30.884419" lon="34.775265"><ele>455.2</ele><name>TP08071</name><time>2016-12-28T22:32:10Z</time></trkpt>
   <trkpt lat="30.884372" lon="34.77527"><ele>455.3</ele><name>TP08072</name><time>2016-12-28T22:32:11Z</time></trkpt>
   <trkpt lat="30.884335" lon="34.775274"><ele>455.3</ele><name>TP08073</name><time>2016-12-28T22:32:12Z</time></trkpt>
   <trkpt lat="30.884293" lon="34.775279"><ele>455.4</ele><name>TP08074</name><time>2016-12-28T22:32:13Z</time></trkpt>
   <trkpt lat="30.884249" lon="34.775284"><ele>455.5</ele><name>TP08075</name><time>2016-12-28T22:32:14Z</time></trkpt>
   <trkpt lat="30.884201" lon="34.775289"><ele>455.6</ele><name>TP08076</name><time>2016-12-28T22:32:15Z</time></trkpt>
   <trkpt lat="30.88415" lon="34.775295"><ele>455.7</ele><name>TP08077</name><time>2016-12-28T22:32:16Z</time></trkpt>
   <trkpt lat="30.884107" lon="34.775302"><ele>455.8</ele><name>TP08078</name><time>2016-12-28T22:32:17Z</time></trkpt>
   <trkpt lat="30.88406" lon="34.775309"><ele>455.9</ele><name>TP08079</name><time>2016-12-28T22:32:18Z</time></trkpt>
   <trkpt lat="30.884005" lon="34.775318"><ele>455.9</ele><name>TP08080</name><time>2016-12-28T22:32:19Z</time></trkpt>
   <trkpt lat="30.883955" lon="34.775328"><ele>456</ele><name>TP08081</name><time>2016-12-28T22:32:20Z</time></trkpt>
   <trkpt lat="30.883902" lon="34.775339"><ele>456.1</ele><name>TP08082</name><time>2016-12-28T22:32:21Z</time></trkpt>
   <trkpt lat="30.883846" lon="34.775352"><ele>456.1</ele><name>TP08083</name><time>2016-12-28T22:32:22Z</time></trkpt>
   <trkpt lat="30.883794" lon="34.775365"><ele>456.2</ele><name>TP08084</name><time>2016-12-28T22:32:23Z</time></trkpt>
   <trkpt lat="30.883747" lon="34.77538"><ele>456.2</ele><name>TP08085</name><time>2016-12-28T22:32:24Z</time></trkpt>
   <trkpt lat="30.883706" lon="34.775393"><ele>456.1</ele><name>TP08086</name><time>2016-12-28T22:32:25Z</time></trkpt>
   <trkpt lat="30.883654" lon="34.775406"><ele>456.1</ele><name>TP08087</name><time>2016-12-28T22:32:26Z</time></trkpt>
   <trkpt lat="30.883598" lon="34.775418"><ele>456</ele><name>TP08088</name><time>2016-12-28T22:32:27Z</time></trkpt>
   <trkpt lat="30.883545" lon="34.775428"><ele>456.1</ele><name>TP08089</name><time>2016-12-28T22:32:28Z</time></trkpt>
   <trkpt lat="30.883497" lon="34.775438"><ele>456.1</ele><name>TP08090</name><time>2016-12-28T22:32:29Z</time></trkpt>
   <trkpt lat="30.883427" lon="34.775426"><ele>456.1</ele><name>TP08091</name><time>2016-12-28T22:32:31Z</time></trkpt>
   <trkpt lat="30.883381" lon="34.775434"><ele>456.1</ele><name>TP08092</name><time>2016-12-28T22:32:32Z</time></trkpt>
   <trkpt lat="30.883306" lon="34.775459"><ele>456.3</ele><name>TP08093</name><time>2016-12-28T22:32:33Z</time></trkpt>
   <trkpt lat="30.883227" lon="34.775484"><ele>456.4</ele><name>TP08094</name><time>2016-12-28T22:32:34Z</time></trkpt>
   <trkpt lat="30.883157" lon="34.775512"><ele>456.6</ele><name>TP08095</name><time>2016-12-28T22:32:35Z</time></trkpt>
   <trkpt lat="30.883093" lon="34.775544"><ele>456.8</ele><name>TP08096</name><time>2016-12-28T22:32:36Z</time></trkpt>
   <trkpt lat="30.883045" lon="34.775576"><ele>457</ele><name>TP08097</name><time>2016-12-28T22:32:37Z</time></trkpt>
   <trkpt lat="30.883003" lon="34.775612"><ele>457.2</ele><name>TP08098</name><time>2016-12-28T22:32:38Z</time></trkpt>
   <trkpt lat="30.88294" lon="34.775646"><ele>457.4</ele><name>TP08099</name><time>2016-12-28T22:32:39Z</time></trkpt>
   <trkpt lat="30.882814" lon="34.775797"><ele>458.1</ele><name>TP08100</name><time>2016-12-28T22:32:41Z</time></trkpt>
   <trkpt lat="30.882773" lon="34.77584"><ele>458.3</ele><name>TP08101</name><time>2016-12-28T22:32:42Z</time></trkpt>
   <trkpt lat="30.88273" lon="34.775879"><ele>458.4</ele><name>TP08102</name><time>2016-12-28T22:32:43Z</time></trkpt>
   <trkpt lat="30.882692" lon="34.775921"><ele>458.5</ele><name>TP08103</name><time>2016-12-28T22:32:44Z</time></trkpt>
   <trkpt lat="30.882649" lon="34.775965"><ele>458.7</ele><name>TP08104</name><time>2016-12-28T22:32:45Z</time></trkpt>
   <trkpt lat="30.882614" lon="34.776006"><ele>458.8</ele><name>TP08105</name><time>2016-12-28T22:32:46Z</time></trkpt>
   <trkpt lat="30.882578" lon="34.776047"><ele>458.9</ele><name>TP08106</name><time>2016-12-28T22:32:47Z</time></trkpt>
   <trkpt lat="30.882543" lon="34.776094"><ele>459</ele><name>TP08107</name><time>2016-12-28T22:32:48Z</time></trkpt>
   <trkpt lat="30.882504" lon="34.776136"><ele>459</ele><name>TP08108</name><time>2016-12-28T22:32:49Z</time></trkpt>
   <trkpt lat="30.882461" lon="34.776165"><ele>459</ele><name>TP08109</name><time>2016-12-28T22:32:50Z</time></trkpt>
   <trkpt lat="30.882424" lon="34.776198"><ele>459</ele><name>TP08110</name><time>2016-12-28T22:32:51Z</time></trkpt>
   <trkpt lat="30.882388" lon="34.776235"><ele>459</ele><name>TP08111</name><time>2016-12-28T22:32:52Z</time></trkpt>
   <trkpt lat="30.882354" lon="34.77628"><ele>459.3</ele><name>TP08112</name><time>2016-12-28T22:32:53Z</time></trkpt>
   <trkpt lat="30.882327" lon="34.776325"><ele>459.7</ele><name>TP08113</name><time>2016-12-28T22:32:54Z</time></trkpt>
   <trkpt lat="30.882299" lon="34.776369"><ele>460</ele><name>TP08114</name><time>2016-12-28T22:32:55Z</time></trkpt>
   <trkpt lat="30.882267" lon="34.776412"><ele>460.3</ele><name>TP08115</name><time>2016-12-28T22:32:56Z</time></trkpt>
   <trkpt lat="30.88223" lon="34.776455"><ele>460.5</ele><name>TP08116</name><time>2016-12-28T22:32:57Z</time></trkpt>
   <trkpt lat="30.882194" lon="34.776494"><ele>460.6</ele><name>TP08117</name><time>2016-12-28T22:32:58Z</time></trkpt>
   <trkpt lat="30.88216" lon="34.776532"><ele>460.6</ele><name>TP08118</name><time>2016-12-28T22:32:59Z</time></trkpt>
   <trkpt lat="30.882127" lon="34.776576"><ele>460.7</ele><name>TP08119</name><time>2016-12-28T22:33:00Z</time></trkpt>
   <trkpt lat="30.882098" lon="34.776616"><ele>460.8</ele><name>TP08120</name><time>2016-12-28T22:33:01Z</time></trkpt>
   <trkpt lat="30.882068" lon="34.776665"><ele>461</ele><name>TP08121</name><time>2016-12-28T22:33:02Z</time></trkpt>
   <trkpt lat="30.882041" lon="34.77671"><ele>461.3</ele><name>TP08122</name><time>2016-12-28T22:33:03Z</time></trkpt>
   <trkpt lat="30.882009" lon="34.776761"><ele>461.6</ele><name>TP08123</name><time>2016-12-28T22:33:04Z</time></trkpt>
   <trkpt lat="30.881988" lon="34.776805"><ele>461.9</ele><name>TP08124</name><time>2016-12-28T22:33:05Z</time></trkpt>
   <trkpt lat="30.881956" lon="34.776855"><ele>462.1</ele><name>TP08125</name><time>2016-12-28T22:33:06Z</time></trkpt>
   <trkpt lat="30.881931" lon="34.7769"><ele>462.4</ele><name>TP08126</name><time>2016-12-28T22:33:07Z</time></trkpt>
   <trkpt lat="30.881908" lon="34.776946"><ele>462.6</ele><name>TP08127</name><time>2016-12-28T22:33:08Z</time></trkpt>
   <trkpt lat="30.881885" lon="34.776988"><ele>462.8</ele><name>TP08128</name><time>2016-12-28T22:33:09Z</time></trkpt>
   <trkpt lat="30.88186" lon="34.777035"><ele>462.9</ele><name>TP08129</name><time>2016-12-28T22:33:10Z</time></trkpt>
   <trkpt lat="30.881836" lon="34.777081"><ele>463.1</ele><name>TP08130</name><time>2016-12-28T22:33:11Z</time></trkpt>
   <trkpt lat="30.881812" lon="34.777127"><ele>463.4</ele><name>TP08131</name><time>2016-12-28T22:33:12Z</time></trkpt>
   <trkpt lat="30.881785" lon="34.77717"><ele>463.6</ele><name>TP08132</name><time>2016-12-28T22:33:13Z</time></trkpt>
   <trkpt lat="30.881765" lon="34.777217"><ele>463.8</ele><name>TP08133</name><time>2016-12-28T22:33:14Z</time></trkpt>
   <trkpt lat="30.881738" lon="34.777265"><ele>463.9</ele><name>TP08134</name><time>2016-12-28T22:33:15Z</time></trkpt>
   <trkpt lat="30.88172" lon="34.777303"><ele>464.1</ele><name>TP08135</name><time>2016-12-28T22:33:16Z</time></trkpt>
   <trkpt lat="30.881699" lon="34.777343"><ele>464.2</ele><name>TP08136</name><time>2016-12-28T22:33:17Z</time></trkpt>
   <trkpt lat="30.881681" lon="34.777386"><ele>464.3</ele><name>TP08137</name><time>2016-12-28T22:33:18Z</time></trkpt>
   <trkpt lat="30.881659" lon="34.777429"><ele>464.3</ele><name>TP08138</name><time>2016-12-28T22:33:19Z</time></trkpt>
   <trkpt lat="30.881637" lon="34.777472"><ele>464.3</ele><name>TP08139</name><time>2016-12-28T22:33:20Z</time></trkpt>
   <trkpt lat="30.881621" lon="34.7775"><ele>464.3</ele><name>TP08140</name><time>2016-12-28T22:33:21Z</time></trkpt>
   <trkpt lat="30.881598" lon="34.777542"><ele>464.2</ele><name>TP08141</name><time>2016-12-28T22:33:23Z</time></trkpt>
   <trkpt lat="30.881583" lon="34.777569"><ele>464.2</ele><name>TP08142</name><time>2016-12-28T22:33:24Z</time></trkpt>
   <trkpt lat="30.88155" lon="34.777628"><ele>464</ele><name>TP08143</name><time>2016-12-28T22:33:26Z</time></trkpt>
   <trkpt lat="30.881516" lon="34.777685"><ele>463.8</ele><name>TP08144</name><time>2016-12-28T22:33:27Z</time></trkpt>
   <trkpt lat="30.881481" lon="34.777737"><ele>463.4</ele><name>TP08145</name><time>2016-12-28T22:33:28Z</time></trkpt>
   <trkpt lat="30.881448" lon="34.777782"><ele>463.1</ele><name>TP08146</name><time>2016-12-28T22:33:29Z</time></trkpt>
   <trkpt lat="30.88142" lon="34.777816"><ele>462.7</ele><name>TP08147</name><time>2016-12-28T22:33:30Z</time></trkpt>
   <trkpt lat="30.881393" lon="34.777846"><ele>462.3</ele><name>TP08148</name><time>2016-12-28T22:33:31Z</time></trkpt>
   <trkpt lat="30.881365" lon="34.777876"><ele>461.9</ele><name>TP08149</name><time>2016-12-28T22:33:32Z</time></trkpt>
   <trkpt lat="30.881333" lon="34.77791"><ele>461.4</ele><name>TP08150</name><time>2016-12-28T22:33:33Z</time></trkpt>
   <trkpt lat="30.881302" lon="34.77795"><ele>461.1</ele><name>TP08151</name><time>2016-12-28T22:33:34Z</time></trkpt>
   <trkpt lat="30.881271" lon="34.777994"><ele>460.7</ele><name>TP08152</name><time>2016-12-28T22:33:35Z</time></trkpt>
   <trkpt lat="30.88124" lon="34.778042"><ele>460.6</ele><name>TP08153</name><time>2016-12-28T22:33:36Z</time></trkpt>
   <trkpt lat="30.881207" lon="34.778094"><ele>461</ele><name>TP08154</name><time>2016-12-28T22:33:37Z</time></trkpt>
   <trkpt lat="30.881177" lon="34.778144"><ele>461.3</ele><name>TP08155</name><time>2016-12-28T22:33:38Z</time></trkpt>
   <trkpt lat="30.881148" lon="34.778146"><ele>461.4</ele><name>TP08156</name><time>2016-12-28T22:33:39Z</time></trkpt>
   <trkpt lat="30.88112" lon="34.778178"><ele>461.6</ele><name>TP08157</name><time>2016-12-28T22:33:40Z</time></trkpt>
   <trkpt lat="30.881094" lon="34.778242"><ele>461.9</ele><name>TP08158</name><time>2016-12-28T22:33:41Z</time></trkpt>
   <trkpt lat="30.881066" lon="34.778303"><ele>462.2</ele><name>TP08159</name><time>2016-12-28T22:33:42Z</time></trkpt>
   <trkpt lat="30.881041" lon="34.778364"><ele>462.5</ele><name>TP08160</name><time>2016-12-28T22:33:43Z</time></trkpt>
   <trkpt lat="30.881019" lon="34.778429"><ele>462.8</ele><name>TP08161</name><time>2016-12-28T22:33:44Z</time></trkpt>
   <trkpt lat="30.881" lon="34.778468"><ele>463</ele><name>TP08162</name><time>2016-12-28T22:33:45Z</time></trkpt>
   <trkpt lat="30.880991" lon="34.77852"><ele>463.2</ele><name>TP08163</name><time>2016-12-28T22:33:47Z</time></trkpt>
   <trkpt lat="30.880974" lon="34.778586"><ele>463.4</ele><name>TP08164</name><time>2016-12-28T22:33:49Z</time></trkpt>
   <trkpt lat="30.880939" lon="34.778645"><ele>463.6</ele><name>TP08165</name><time>2016-12-28T22:33:50Z</time></trkpt>
   <trkpt lat="30.880903" lon="34.778706"><ele>463.9</ele><name>TP08166</name><time>2016-12-28T22:33:51Z</time></trkpt>
   <trkpt lat="30.880863" lon="34.778768"><ele>464.1</ele><name>TP08167</name><time>2016-12-28T22:33:52Z</time></trkpt>
   <trkpt lat="30.880822" lon="34.778834"><ele>464.2</ele><name>TP08168</name><time>2016-12-28T22:33:53Z</time></trkpt>
   <trkpt lat="30.88082" lon="34.778867"><ele>464.3</ele><name>TP08169</name><time>2016-12-28T22:33:54Z</time></trkpt>
   <trkpt lat="30.880797" lon="34.778904"><ele>464.4</ele><name>TP08170</name><time>2016-12-28T22:33:55Z</time></trkpt>
   <trkpt lat="30.880759" lon="34.778948"><ele>464.5</ele><name>TP08171</name><time>2016-12-28T22:33:56Z</time></trkpt>
   <trkpt lat="30.880718" lon="34.778996"><ele>464.5</ele><name>TP08172</name><time>2016-12-28T22:33:57Z</time></trkpt>
   <trkpt lat="30.880697" lon="34.779021"><ele>464.5</ele><name>TP08173</name><time>2016-12-28T22:33:58Z</time></trkpt>
   <trkpt lat="30.880681" lon="34.779062"><ele>464.6</ele><name>TP08174</name><time>2016-12-28T22:33:59Z</time></trkpt>
   <trkpt lat="30.880655" lon="34.779114"><ele>464.6</ele><name>TP08175</name><time>2016-12-28T22:34:00Z</time></trkpt>
   <trkpt lat="30.88063" lon="34.779158"><ele>464.6</ele><name>TP08176</name><time>2016-12-28T22:34:01Z</time></trkpt>
   <trkpt lat="30.880601" lon="34.779213"><ele>464.6</ele><name>TP08177</name><time>2016-12-28T22:34:02Z</time></trkpt>
   <trkpt lat="30.880559" lon="34.779293"><ele>464.6</ele><name>TP08178</name><time>2016-12-28T22:34:03Z</time></trkpt>
   <trkpt lat="30.880536" lon="34.779337"><ele>464.5</ele><name>TP08179</name><time>2016-12-28T22:34:04Z</time></trkpt>
   <trkpt lat="30.880515" lon="34.77938"><ele>464.4</ele><name>TP08180</name><time>2016-12-28T22:34:05Z</time></trkpt>
   <trkpt lat="30.880486" lon="34.779442"><ele>464.3</ele><name>TP08181</name><time>2016-12-28T22:34:06Z</time></trkpt>
   <trkpt lat="30.880459" lon="34.779496"><ele>464.2</ele><name>TP08182</name><time>2016-12-28T22:34:07Z</time></trkpt>
   <trkpt lat="30.880432" lon="34.779543"><ele>464.1</ele><name>TP08183</name><time>2016-12-28T22:34:08Z</time></trkpt>
   <trkpt lat="30.880405" lon="34.779591"><ele>464</ele><name>TP08184</name><time>2016-12-28T22:34:09Z</time></trkpt>
   <trkpt lat="30.880377" lon="34.779639"><ele>463.9</ele><name>TP08185</name><time>2016-12-28T22:34:10Z</time></trkpt>
   <trkpt lat="30.880349" lon="34.779682"><ele>463.8</ele><name>TP08186</name><time>2016-12-28T22:34:11Z</time></trkpt>
   <trkpt lat="30.880319" lon="34.779735"><ele>463.7</ele><name>TP08187</name><time>2016-12-28T22:34:12Z</time></trkpt>
   <trkpt lat="30.880286" lon="34.779794"><ele>463.6</ele><name>TP08188</name><time>2016-12-28T22:34:13Z</time></trkpt>
   <trkpt lat="30.88024" lon="34.779866"><ele>463.5</ele><name>TP08189</name><time>2016-12-28T22:34:14Z</time></trkpt>
   <trkpt lat="30.880174" lon="34.779974"><ele>463.4</ele><name>TP08190</name><time>2016-12-28T22:34:16Z</time></trkpt>
   <trkpt lat="30.880151" lon="34.780016"><ele>463.4</ele><name>TP08191</name><time>2016-12-28T22:34:17Z</time></trkpt>
   <trkpt lat="30.880121" lon="34.780056"><ele>463.3</ele><name>TP08192</name><time>2016-12-28T22:34:18Z</time></trkpt>
   <trkpt lat="30.880098" lon="34.780095"><ele>463.3</ele><name>TP08193</name><time>2016-12-28T22:34:19Z</time></trkpt>
   <trkpt lat="30.880077" lon="34.780137"><ele>463.3</ele><name>TP08194</name><time>2016-12-28T22:34:20Z</time></trkpt>
   <trkpt lat="30.880058" lon="34.780181"><ele>463.3</ele><name>TP08195</name><time>2016-12-28T22:34:21Z</time></trkpt>
   <trkpt lat="30.880034" lon="34.780228"><ele>463.3</ele><name>TP08196</name><time>2016-12-28T22:34:22Z</time></trkpt>
   <trkpt lat="30.880011" lon="34.780279"><ele>463.4</ele><name>TP08197</name><time>2016-12-28T22:34:23Z</time></trkpt>
   <trkpt lat="30.879989" lon="34.780324"><ele>463.4</ele><name>TP08198</name><time>2016-12-28T22:34:24Z</time></trkpt>
   <trkpt lat="30.879972" lon="34.780369"><ele>463.4</ele><name>TP08199</name><time>2016-12-28T22:34:25Z</time></trkpt>
   <trkpt lat="30.879949" lon="34.780412"><ele>463.4</ele><name>TP08200</name><time>2016-12-28T22:34:26Z</time></trkpt>
   <trkpt lat="30.879924" lon="34.780459"><ele>463.6</ele><name>TP08201</name><time>2016-12-28T22:34:27Z</time></trkpt>
   <trkpt lat="30.879903" lon="34.7805"><ele>463.7</ele><name>TP08202</name><time>2016-12-28T22:34:28Z</time></trkpt>
   <trkpt lat="30.879884" lon="34.780543"><ele>463.8</ele><name>TP08203</name><time>2016-12-28T22:34:29Z</time></trkpt>
   <trkpt lat="30.879863" lon="34.780585"><ele>463.9</ele><name>TP08204</name><time>2016-12-28T22:34:30Z</time></trkpt>
   <trkpt lat="30.879838" lon="34.780626"><ele>464.1</ele><name>TP08205</name><time>2016-12-28T22:34:31Z</time></trkpt>
   <trkpt lat="30.87981" lon="34.780671"><ele>464.2</ele><name>TP08206</name><time>2016-12-28T22:34:32Z</time></trkpt>
   <trkpt lat="30.879783" lon="34.780712"><ele>464.3</ele><name>TP08207</name><time>2016-12-28T22:34:33Z</time></trkpt>
   <trkpt lat="30.879753" lon="34.780749"><ele>464.4</ele><name>TP08208</name><time>2016-12-28T22:34:34Z</time></trkpt>
   <trkpt lat="30.87972" lon="34.780788"><ele>464.5</ele><name>TP08209</name><time>2016-12-28T22:34:35Z</time></trkpt>
   <trkpt lat="30.879695" lon="34.780831"><ele>464.6</ele><name>TP08210</name><time>2016-12-28T22:34:36Z</time></trkpt>
   <trkpt lat="30.879668" lon="34.780874"><ele>464.7</ele><name>TP08211</name><time>2016-12-28T22:34:37Z</time></trkpt>
   <trkpt lat="30.879639" lon="34.780919"><ele>464.9</ele><name>TP08212</name><time>2016-12-28T22:34:38Z</time></trkpt>
   <trkpt lat="30.879609" lon="34.780968"><ele>465</ele><name>TP08213</name><time>2016-12-28T22:34:39Z</time></trkpt>
   <trkpt lat="30.879587" lon="34.781012"><ele>465.1</ele><name>TP08214</name><time>2016-12-28T22:34:40Z</time></trkpt>
   <trkpt lat="30.879563" lon="34.78106"><ele>465.3</ele><name>TP08215</name><time>2016-12-28T22:34:41Z</time></trkpt>
   <trkpt lat="30.879541" lon="34.781108"><ele>465.4</ele><name>TP08216</name><time>2016-12-28T22:34:42Z</time></trkpt>
   <trkpt lat="30.879519" lon="34.781154"><ele>465.5</ele><name>TP08217</name><time>2016-12-28T22:34:43Z</time></trkpt>
   <trkpt lat="30.8795" lon="34.781205"><ele>465.7</ele><name>TP08218</name><time>2016-12-28T22:34:44Z</time></trkpt>
   <trkpt lat="30.879479" lon="34.781253"><ele>465.7</ele><name>TP08219</name><time>2016-12-28T22:34:45Z</time></trkpt>
   <trkpt lat="30.879455" lon="34.781304"><ele>465.7</ele><name>TP08220</name><time>2016-12-28T22:34:46Z</time></trkpt>
   <trkpt lat="30.879435" lon="34.781349"><ele>465.6</ele><name>TP08221</name><time>2016-12-28T22:34:47Z</time></trkpt>
   <trkpt lat="30.879413" lon="34.781395"><ele>465.6</ele><name>TP08222</name><time>2016-12-28T22:34:48Z</time></trkpt>
   <trkpt lat="30.879387" lon="34.781445"><ele>465.5</ele><name>TP08223</name><time>2016-12-28T22:34:49Z</time></trkpt>
   <trkpt lat="30.879364" lon="34.781487"><ele>465.4</ele><name>TP08224</name><time>2016-12-28T22:34:50Z</time></trkpt>
   <trkpt lat="30.87934" lon="34.781531"><ele>465.3</ele><name>TP08225</name><time>2016-12-28T22:34:51Z</time></trkpt>
   <trkpt lat="30.879316" lon="34.781578"><ele>465.2</ele><name>TP08226</name><time>2016-12-28T22:34:52Z</time></trkpt>
   <trkpt lat="30.879294" lon="34.781629"><ele>465.1</ele><name>TP08227</name><time>2016-12-28T22:34:53Z</time></trkpt>
   <trkpt lat="30.879272" lon="34.781683"><ele>465.1</ele><name>TP08228</name><time>2016-12-28T22:34:54Z</time></trkpt>
   <trkpt lat="30.87925" lon="34.781731"><ele>465</ele><name>TP08229</name><time>2016-12-28T22:34:55Z</time></trkpt>
   <trkpt lat="30.879228" lon="34.781776"><ele>464.9</ele><name>TP08230</name><time>2016-12-28T22:34:56Z</time></trkpt>
   <trkpt lat="30.879204" lon="34.781819"><ele>464.8</ele><name>TP08231</name><time>2016-12-28T22:34:57Z</time></trkpt>
   <trkpt lat="30.879176" lon="34.781863"><ele>464.7</ele><name>TP08232</name><time>2016-12-28T22:34:58Z</time></trkpt>
   <trkpt lat="30.879155" lon="34.781909"><ele>464.6</ele><name>TP08233</name><time>2016-12-28T22:34:59Z</time></trkpt>
   <trkpt lat="30.879134" lon="34.781951"><ele>464.5</ele><name>TP08234</name><time>2016-12-28T22:35:00Z</time></trkpt>
   <trkpt lat="30.879106" lon="34.782001"><ele>464.3</ele><name>TP08235</name><time>2016-12-28T22:35:01Z</time></trkpt>
   <trkpt lat="30.879082" lon="34.782047"><ele>464.2</ele><name>TP08236</name><time>2016-12-28T22:35:02Z</time></trkpt>
   <trkpt lat="30.879062" lon="34.782093"><ele>464.1</ele><name>TP08237</name><time>2016-12-28T22:35:03Z</time></trkpt>
   <trkpt lat="30.879042" lon="34.782138"><ele>464</ele><name>TP08238</name><time>2016-12-28T22:35:04Z</time></trkpt>
   <trkpt lat="30.879022" lon="34.782181"><ele>463.9</ele><name>TP08239</name><time>2016-12-28T22:35:05Z</time></trkpt>
   <trkpt lat="30.879" lon="34.782221"><ele>463.7</ele><name>TP08240</name><time>2016-12-28T22:35:06Z</time></trkpt>
   <trkpt lat="30.87898" lon="34.782268"><ele>463.6</ele><name>TP08241</name><time>2016-12-28T22:35:07Z</time></trkpt>
   <trkpt lat="30.878955" lon="34.782312"><ele>463.5</ele><name>TP08242</name><time>2016-12-28T22:35:08Z</time></trkpt>
   <trkpt lat="30.878932" lon="34.78236"><ele>463.3</ele><name>TP08243</name><time>2016-12-28T22:35:09Z</time></trkpt>
   <trkpt lat="30.878906" lon="34.782405"><ele>463.2</ele><name>TP08244</name><time>2016-12-28T22:35:10Z</time></trkpt>
   <trkpt lat="30.878876" lon="34.782453"><ele>463</ele><name>TP08245</name><time>2016-12-28T22:35:11Z</time></trkpt>
   <trkpt lat="30.878845" lon="34.7825"><ele>462.8</ele><name>TP08246</name><time>2016-12-28T22:35:12Z</time></trkpt>
   <trkpt lat="30.878812" lon="34.782552"><ele>462.7</ele><name>TP08247</name><time>2016-12-28T22:35:13Z</time></trkpt>
   <trkpt lat="30.87878" lon="34.782612"><ele>462.5</ele><name>TP08248</name><time>2016-12-28T22:35:14Z</time></trkpt>
   <trkpt lat="30.878753" lon="34.78267"><ele>462.3</ele><name>TP08249</name><time>2016-12-28T22:35:15Z</time></trkpt>
   <trkpt lat="30.878727" lon="34.782723"><ele>462.3</ele><name>TP08250</name><time>2016-12-28T22:35:16Z</time></trkpt>
   <trkpt lat="30.878701" lon="34.78277"><ele>462.4</ele><name>TP08251</name><time>2016-12-28T22:35:17Z</time></trkpt>
   <trkpt lat="30.878676" lon="34.782812"><ele>462.5</ele><name>TP08252</name><time>2016-12-28T22:35:18Z</time></trkpt>
   <trkpt lat="30.878651" lon="34.782856"><ele>462.5</ele><name>TP08253</name><time>2016-12-28T22:35:19Z</time></trkpt>
   <trkpt lat="30.878629" lon="34.782894"><ele>462.6</ele><name>TP08254</name><time>2016-12-28T22:35:20Z</time></trkpt>
   <trkpt lat="30.878604" lon="34.782936"><ele>462.8</ele><name>TP08255</name><time>2016-12-28T22:35:21Z</time></trkpt>
   <trkpt lat="30.878577" lon="34.782983"><ele>463.1</ele><name>TP08256</name><time>2016-12-28T22:35:22Z</time></trkpt>
   <trkpt lat="30.878554" lon="34.78303"><ele>463.3</ele><name>TP08257</name><time>2016-12-28T22:35:23Z</time></trkpt>
   <trkpt lat="30.878527" lon="34.783077"><ele>463.6</ele><name>TP08258</name><time>2016-12-28T22:35:24Z</time></trkpt>
   <trkpt lat="30.878499" lon="34.783121"><ele>463.9</ele><name>TP08259</name><time>2016-12-28T22:35:25Z</time></trkpt>
   <trkpt lat="30.878473" lon="34.783169"><ele>464.2</ele><name>TP08260</name><time>2016-12-28T22:35:26Z</time></trkpt>
   <trkpt lat="30.878451" lon="34.783216"><ele>464.5</ele><name>TP08261</name><time>2016-12-28T22:35:27Z</time></trkpt>
   <trkpt lat="30.878426" lon="34.783262"><ele>464.8</ele><name>TP08262</name><time>2016-12-28T22:35:28Z</time></trkpt>
   <trkpt lat="30.878407" lon="34.783303"><ele>465</ele><name>TP08263</name><time>2016-12-28T22:35:29Z</time></trkpt>
   <trkpt lat="30.878385" lon="34.78334"><ele>465.3</ele><name>TP08264</name><time>2016-12-28T22:35:30Z</time></trkpt>
   <trkpt lat="30.878367" lon="34.783381"><ele>465.5</ele><name>TP08265</name><time>2016-12-28T22:35:31Z</time></trkpt>
   <trkpt lat="30.878344" lon="34.783424"><ele>465.8</ele><name>TP08266</name><time>2016-12-28T22:35:32Z</time></trkpt>
   <trkpt lat="30.878317" lon="34.783468"><ele>466.1</ele><name>TP08267</name><time>2016-12-28T22:35:33Z</time></trkpt>
   <trkpt lat="30.878291" lon="34.783512"><ele>466.3</ele><name>TP08268</name><time>2016-12-28T22:35:34Z</time></trkpt>
   <trkpt lat="30.878267" lon="34.783556"><ele>466.6</ele><name>TP08269</name><time>2016-12-28T22:35:35Z</time></trkpt>
   <trkpt lat="30.878241" lon="34.783598"><ele>466.9</ele><name>TP08270</name><time>2016-12-28T22:35:36Z</time></trkpt>
   <trkpt lat="30.878222" lon="34.78364"><ele>467.1</ele><name>TP08271</name><time>2016-12-28T22:35:37Z</time></trkpt>
   <trkpt lat="30.878198" lon="34.78368"><ele>467.4</ele><name>TP08272</name><time>2016-12-28T22:35:38Z</time></trkpt>
   <trkpt lat="30.878178" lon="34.783716"><ele>467.6</ele><name>TP08273</name><time>2016-12-28T22:35:39Z</time></trkpt>
   <trkpt lat="30.87816" lon="34.783753"><ele>467.8</ele><name>TP08274</name><time>2016-12-28T22:35:40Z</time></trkpt>
   <trkpt lat="30.878136" lon="34.783787"><ele>468</ele><name>TP08275</name><time>2016-12-28T22:35:41Z</time></trkpt>
   <trkpt lat="30.878114" lon="34.783817"><ele>468.2</ele><name>TP08276</name><time>2016-12-28T22:35:42Z</time></trkpt>
   <trkpt lat="30.878097" lon="34.783843"><ele>468.3</ele><name>TP08277</name><time>2016-12-28T22:35:44Z</time></trkpt>
   <trkpt lat="30.878067" lon="34.783885"><ele>468.5</ele><name>TP08278</name><time>2016-12-28T22:35:46Z</time></trkpt>
   <trkpt lat="30.878043" lon="34.783911"><ele>468.6</ele><name>TP08279</name><time>2016-12-28T22:35:47Z</time></trkpt>
   <trkpt lat="30.878017" lon="34.783938"><ele>468.7</ele><name>TP08280</name><time>2016-12-28T22:35:48Z</time></trkpt>
   <trkpt lat="30.877987" lon="34.783952"><ele>468.8</ele><name>TP08281</name><time>2016-12-28T22:35:49Z</time></trkpt>
   <trkpt lat="30.877961" lon="34.783972"><ele>468.9</ele><name>TP08282</name><time>2016-12-28T22:35:50Z</time></trkpt>
   <trkpt lat="30.877937" lon="34.783999"><ele>469</ele><name>TP08283</name><time>2016-12-28T22:35:51Z</time></trkpt>
   <trkpt lat="30.87791" lon="34.784027"><ele>469</ele><name>TP08284</name><time>2016-12-28T22:35:52Z</time></trkpt>
   <trkpt lat="30.877882" lon="34.784055"><ele>468.9</ele><name>TP08285</name><time>2016-12-28T22:35:53Z</time></trkpt>
   <trkpt lat="30.877851" lon="34.784083"><ele>468.8</ele><name>TP08286</name><time>2016-12-28T22:35:54Z</time></trkpt>
   <trkpt lat="30.87782" lon="34.784112"><ele>468.8</ele><name>TP08287</name><time>2016-12-28T22:35:55Z</time></trkpt>
   <trkpt lat="30.877787" lon="34.784144"><ele>468.7</ele><name>TP08288</name><time>2016-12-28T22:35:56Z</time></trkpt>
   <trkpt lat="30.877754" lon="34.784178"><ele>468.7</ele><name>TP08289</name><time>2016-12-28T22:35:57Z</time></trkpt>
   <trkpt lat="30.877723" lon="34.784213"><ele>468.7</ele><name>TP08290</name><time>2016-12-28T22:35:58Z</time></trkpt>
   <trkpt lat="30.877693" lon="34.784248"><ele>468.7</ele><name>TP08291</name><time>2016-12-28T22:35:59Z</time></trkpt>
   <trkpt lat="30.877659" lon="34.784284"><ele>468.8</ele><name>TP08292</name><time>2016-12-28T22:36:00Z</time></trkpt>
   <trkpt lat="30.877623" lon="34.784319"><ele>468.8</ele><name>TP08293</name><time>2016-12-28T22:36:01Z</time></trkpt>
   <trkpt lat="30.877591" lon="34.784352"><ele>468.8</ele><name>TP08294</name><time>2016-12-28T22:36:02Z</time></trkpt>
   <trkpt lat="30.877557" lon="34.784389"><ele>468.9</ele><name>TP08295</name><time>2016-12-28T22:36:03Z</time></trkpt>
   <trkpt lat="30.877523" lon="34.784423"><ele>469</ele><name>TP08296</name><time>2016-12-28T22:36:04Z</time></trkpt>
   <trkpt lat="30.87749" lon="34.784455"><ele>469.1</ele><name>TP08297</name><time>2016-12-28T22:36:05Z</time></trkpt>
   <trkpt lat="30.877462" lon="34.784482"><ele>469.2</ele><name>TP08298</name><time>2016-12-28T22:36:06Z</time></trkpt>
   <trkpt lat="30.877431" lon="34.784509"><ele>469.3</ele><name>TP08299</name><time>2016-12-28T22:36:07Z</time></trkpt>
   <trkpt lat="30.877394" lon="34.784542"><ele>469.5</ele><name>TP08300</name><time>2016-12-28T22:36:08Z</time></trkpt>
   <trkpt lat="30.877356" lon="34.784575"><ele>469.6</ele><name>TP08301</name><time>2016-12-28T22:36:09Z</time></trkpt>
   <trkpt lat="30.877327" lon="34.784603"><ele>469.7</ele><name>TP08302</name><time>2016-12-28T22:36:10Z</time></trkpt>
   <trkpt lat="30.877299" lon="34.784638"><ele>469.7</ele><name>TP08303</name><time>2016-12-28T22:36:12Z</time></trkpt>
   <trkpt lat="30.877275" lon="34.784668"><ele>469.7</ele><name>TP08304</name><time>2016-12-28T22:36:13Z</time></trkpt>
   <trkpt lat="30.877252" lon="34.784696"><ele>469.7</ele><name>TP08305</name><time>2016-12-28T22:36:14Z</time></trkpt>
   <trkpt lat="30.877229" lon="34.784721"><ele>469.7</ele><name>TP08306</name><time>2016-12-28T22:36:15Z</time></trkpt>
   <trkpt lat="30.877205" lon="34.784745"><ele>469.7</ele><name>TP08307</name><time>2016-12-28T22:36:16Z</time></trkpt>
   <trkpt lat="30.877181" lon="34.784767"><ele>469.7</ele><name>TP08308</name><time>2016-12-28T22:36:17Z</time></trkpt>
   <trkpt lat="30.877159" lon="34.784787"><ele>469.7</ele><name>TP08309</name><time>2016-12-28T22:36:18Z</time></trkpt>
   <trkpt lat="30.877126" lon="34.784823"><ele>469.7</ele><name>TP08310</name><time>2016-12-28T22:36:20Z</time></trkpt>
   <trkpt lat="30.877105" lon="34.784868"><ele>469.7</ele><name>TP08311</name><time>2016-12-28T22:36:22Z</time></trkpt>
   <trkpt lat="30.877098" lon="34.7849"><ele>469.6</ele><name>TP08312</name><time>2016-12-28T22:36:23Z</time></trkpt>
   <trkpt lat="30.877106" lon="34.784931"><ele>469.6</ele><name>TP08313</name><time>2016-12-28T22:36:24Z</time></trkpt>
   <trkpt lat="30.877116" lon="34.784961"><ele>469.5</ele><name>TP08314</name><time>2016-12-28T22:36:25Z</time></trkpt>
   <trkpt lat="30.877119" lon="34.785008"><ele>469.5</ele><name>TP08315</name><time>2016-12-28T22:36:27Z</time></trkpt>
   <trkpt lat="30.877097" lon="34.785044"><ele>469.4</ele><name>TP08316</name><time>2016-12-28T22:36:29Z</time></trkpt>
   <trkpt lat="30.877087" lon="34.785002"><ele>469.5</ele><name>TP08317</name><time>2016-12-28T22:36:32Z</time></trkpt>
   <trkpt lat="30.877091" lon="34.784958"><ele>469.5</ele><name>TP08318</name><time>2016-12-28T22:36:33Z</time></trkpt>
   <trkpt lat="30.877097" lon="34.784911"><ele>469.6</ele><name>TP08319</name><time>2016-12-28T22:36:34Z</time></trkpt>
   <trkpt lat="30.877106" lon="34.784858"><ele>469.7</ele><name>TP08320</name><time>2016-12-28T22:36:36Z</time></trkpt>
   <trkpt lat="30.877117" lon="34.784812"><ele>469.7</ele><name>TP08321</name><time>2016-12-28T22:36:38Z</time></trkpt>
   <trkpt lat="30.877118" lon="34.78478"><ele>469.7</ele><name>TP08322</name><time>2016-12-28T22:36:40Z</time></trkpt>
   <trkpt lat="30.877145" lon="34.78475"><ele>469.8</ele><name>TP08323</name><time>2016-12-28T22:36:42Z</time></trkpt>
   <trkpt lat="30.877172" lon="34.784712"><ele>469.8</ele><name>TP08324</name><time>2016-12-28T22:36:44Z</time></trkpt>
   <trkpt lat="30.877187" lon="34.78466"><ele>469.8</ele><name>TP08325</name><time>2016-12-28T22:36:46Z</time></trkpt>
   <trkpt lat="30.877185" lon="34.784599"><ele>469.9</ele><name>TP08326</name><time>2016-12-28T22:36:48Z</time></trkpt>
   <trkpt lat="30.877174" lon="34.78456"><ele>469.8</ele><name>TP08327</name><time>2016-12-28T22:36:50Z</time></trkpt>
   <trkpt lat="30.877144" lon="34.784484"><ele>469.4</ele><name>TP08328</name><time>2016-12-28T22:36:52Z</time></trkpt>
   <trkpt lat="30.87712" lon="34.784459"><ele>469.2</ele><name>TP08329</name><time>2016-12-28T22:36:55Z</time></trkpt>
   <trkpt lat="30.877089" lon="34.784431"><ele>469.1</ele><name>TP08330</name><time>2016-12-28T22:36:57Z</time></trkpt>
   <trkpt lat="30.87707" lon="34.784408"><ele>468.9</ele><name>TP08331</name><time>2016-12-28T22:36:59Z</time></trkpt>
   <trkpt lat="30.877047" lon="34.784386"><ele>468.8</ele><name>TP08332</name><time>2016-12-28T22:37:00Z</time></trkpt>
   <trkpt lat="30.877021" lon="34.784368"><ele>468.7</ele><name>TP08333</name><time>2016-12-28T22:37:01Z</time></trkpt>
   <trkpt lat="30.876992" lon="34.784356"><ele>468.6</ele><name>TP08334</name><time>2016-12-28T22:37:02Z</time></trkpt>
   <trkpt lat="30.876961" lon="34.784357"><ele>468.6</ele><name>TP08335</name><time>2016-12-28T22:37:03Z</time></trkpt>
   <trkpt lat="30.876931" lon="34.784366"><ele>468.6</ele><name>TP08336</name><time>2016-12-28T22:37:04Z</time></trkpt>
   <trkpt lat="30.876903" lon="34.784381"><ele>468.7</ele><name>TP08337</name><time>2016-12-28T22:37:05Z</time></trkpt>
   <trkpt lat="30.876869" lon="34.784407"><ele>468.8</ele><name>TP08338</name><time>2016-12-28T22:37:07Z</time></trkpt>
   <trkpt lat="30.876836" lon="34.784435"><ele>468.8</ele><name>TP08339</name><time>2016-12-28T22:37:08Z</time></trkpt>
   <trkpt lat="30.876755" lon="34.784507"><ele>469</ele><name>TP08340</name><time>2016-12-28T22:37:10Z</time></trkpt>
   <trkpt lat="30.87674" lon="34.784542"><ele>469.1</ele><name>TP08341</name><time>2016-12-28T22:37:11Z</time></trkpt>
   <trkpt lat="30.876725" lon="34.784573"><ele>469.1</ele><name>TP08342</name><time>2016-12-28T22:37:12Z</time></trkpt>
   <trkpt lat="30.876711" lon="34.784611"><ele>469.1</ele><name>TP08343</name><time>2016-12-28T22:37:13Z</time></trkpt>
   <trkpt lat="30.8767" lon="34.78465"><ele>469.2</ele><name>TP08344</name><time>2016-12-28T22:37:14Z</time></trkpt>
   <trkpt lat="30.876681" lon="34.78469"><ele>469.2</ele><name>TP08345</name><time>2016-12-28T22:37:15Z</time></trkpt>
   <trkpt lat="30.876653" lon="34.78472"><ele>469.2</ele><name>TP08346</name><time>2016-12-28T22:37:16Z</time></trkpt>
   <trkpt lat="30.876626" lon="34.784758"><ele>469.3</ele><name>TP08347</name><time>2016-12-28T22:37:18Z</time></trkpt>
   <trkpt lat="30.876592" lon="34.784787"><ele>469.3</ele><name>TP08348</name><time>2016-12-28T22:37:20Z</time></trkpt>
   <trkpt lat="30.876553" lon="34.784821"><ele>469.3</ele><name>TP08349</name><time>2016-12-28T22:37:22Z</time></trkpt>
   <trkpt lat="30.876517" lon="34.784854"><ele>469.4</ele><name>TP08350</name><time>2016-12-28T22:37:23Z</time></trkpt>
   <trkpt lat="30.876478" lon="34.784895"><ele>469.5</ele><name>TP08351</name><time>2016-12-28T22:37:24Z</time></trkpt>
   <trkpt lat="30.876447" lon="34.784932"><ele>469.7</ele><name>TP08352</name><time>2016-12-28T22:37:25Z</time></trkpt>
   <trkpt lat="30.876416" lon="34.784968"><ele>469.8</ele><name>TP08353</name><time>2016-12-28T22:37:26Z</time></trkpt>
   <trkpt lat="30.876381" lon="34.785006"><ele>469.9</ele><name>TP08354</name><time>2016-12-28T22:37:27Z</time></trkpt>
   <trkpt lat="30.876309" lon="34.785065"><ele>470.2</ele><name>TP08355</name><time>2016-12-28T22:37:28Z</time></trkpt>
   <trkpt lat="30.876235" lon="34.785148"><ele>470.7</ele><name>TP08356</name><time>2016-12-28T22:37:30Z</time></trkpt>
   <trkpt lat="30.876204" lon="34.785184"><ele>470.8</ele><name>TP08357</name><time>2016-12-28T22:37:31Z</time></trkpt>
   <trkpt lat="30.87617" lon="34.785214"><ele>470.9</ele><name>TP08358</name><time>2016-12-28T22:37:32Z</time></trkpt>
   <trkpt lat="30.876131" lon="34.785247"><ele>471</ele><name>TP08359</name><time>2016-12-28T22:37:33Z</time></trkpt>
   <trkpt lat="30.876097" lon="34.785282"><ele>471.1</ele><name>TP08360</name><time>2016-12-28T22:37:34Z</time></trkpt>
   <trkpt lat="30.876074" lon="34.785318"><ele>471.2</ele><name>TP08361</name><time>2016-12-28T22:37:35Z</time></trkpt>
   <trkpt lat="30.876053" lon="34.785352"><ele>471.3</ele><name>TP08362</name><time>2016-12-28T22:37:36Z</time></trkpt>
   <trkpt lat="30.876011" lon="34.785381"><ele>471.3</ele><name>TP08363</name><time>2016-12-28T22:37:37Z</time></trkpt>
   <trkpt lat="30.875976" lon="34.785403"><ele>471.3</ele><name>TP08364</name><time>2016-12-28T22:37:38Z</time></trkpt>
   <trkpt lat="30.875943" lon="34.785427"><ele>471.3</ele><name>TP08365</name><time>2016-12-28T22:37:39Z</time></trkpt>
   <trkpt lat="30.87591" lon="34.785458"><ele>471.4</ele><name>TP08366</name><time>2016-12-28T22:37:40Z</time></trkpt>
   <trkpt lat="30.875879" lon="34.785492"><ele>471.5</ele><name>TP08367</name><time>2016-12-28T22:37:42Z</time></trkpt>
   <trkpt lat="30.87586" lon="34.785516"><ele>471.5</ele><name>TP08368</name><time>2016-12-28T22:37:44Z</time></trkpt>
   <trkpt lat="30.875833" lon="34.785549"><ele>471.6</ele><name>TP08369</name><time>2016-12-28T22:37:46Z</time></trkpt>
   <trkpt lat="30.875799" lon="34.78561"><ele>471.8</ele><name>TP08370</name><time>2016-12-28T22:37:48Z</time></trkpt>
   <trkpt lat="30.875779" lon="34.785651"><ele>472</ele><name>TP08371</name><time>2016-12-28T22:37:49Z</time></trkpt>
   <trkpt lat="30.875768" lon="34.785689"><ele>472.1</ele><name>TP08372</name><time>2016-12-28T22:37:50Z</time></trkpt>
   <trkpt lat="30.875765" lon="34.785729"><ele>472.3</ele><name>TP08373</name><time>2016-12-28T22:37:51Z</time></trkpt>
   <trkpt lat="30.875765" lon="34.785769"><ele>472.5</ele><name>TP08374</name><time>2016-12-28T22:37:52Z</time></trkpt>
   <trkpt lat="30.875764" lon="34.785813"><ele>472.7</ele><name>TP08375</name><time>2016-12-28T22:37:53Z</time></trkpt>
   <trkpt lat="30.875761" lon="34.78586"><ele>472.9</ele><name>TP08376</name><time>2016-12-28T22:37:54Z</time></trkpt>
   <trkpt lat="30.875756" lon="34.785908"><ele>473.1</ele><name>TP08377</name><time>2016-12-28T22:37:55Z</time></trkpt>
   <trkpt lat="30.875751" lon="34.785959"><ele>473.3</ele><name>TP08378</name><time>2016-12-28T22:37:56Z</time></trkpt>
   <trkpt lat="30.875741" lon="34.786017"><ele>473.5</ele><name>TP08379</name><time>2016-12-28T22:37:57Z</time></trkpt>
   <trkpt lat="30.875731" lon="34.786076"><ele>473.7</ele><name>TP08380</name><time>2016-12-28T22:37:58Z</time></trkpt>
   <trkpt lat="30.875719" lon="34.786135"><ele>473.9</ele><name>TP08381</name><time>2016-12-28T22:37:59Z</time></trkpt>
   <trkpt lat="30.875704" lon="34.786191"><ele>474.1</ele><name>TP08382</name><time>2016-12-28T22:38:00Z</time></trkpt>
   <trkpt lat="30.875688" lon="34.786242"><ele>474.3</ele><name>TP08383</name><time>2016-12-28T22:38:01Z</time></trkpt>
   <trkpt lat="30.87567" lon="34.786288"><ele>474.3</ele><name>TP08384</name><time>2016-12-28T22:38:02Z</time></trkpt>
   <trkpt lat="30.87565" lon="34.786325"><ele>474.4</ele><name>TP08385</name><time>2016-12-28T22:38:03Z</time></trkpt>
   <trkpt lat="30.875626" lon="34.786354"><ele>474.3</ele><name>TP08386</name><time>2016-12-28T22:38:04Z</time></trkpt>
   <trkpt lat="30.875595" lon="34.786385"><ele>474.2</ele><name>TP08387</name><time>2016-12-28T22:38:05Z</time></trkpt>
   <trkpt lat="30.875563" lon="34.786414"><ele>474.1</ele><name>TP08388</name><time>2016-12-28T22:38:06Z</time></trkpt>
   <trkpt lat="30.875532" lon="34.78644"><ele>474</ele><name>TP08389</name><time>2016-12-28T22:38:07Z</time></trkpt>
   <trkpt lat="30.875503" lon="34.786462"><ele>473.8</ele><name>TP08390</name><time>2016-12-28T22:38:08Z</time></trkpt>
   <trkpt lat="30.875472" lon="34.786482"><ele>473.7</ele><name>TP08391</name><time>2016-12-28T22:38:09Z</time></trkpt>
   <trkpt lat="30.875426" lon="34.786503"><ele>473.4</ele><name>TP08392</name><time>2016-12-28T22:38:10Z</time></trkpt>
   <trkpt lat="30.875368" lon="34.786539"><ele>473.3</ele><name>TP08393</name><time>2016-12-28T22:38:12Z</time></trkpt>
   <trkpt lat="30.875339" lon="34.786571"><ele>473.3</ele><name>TP08394</name><time>2016-12-28T22:38:14Z</time></trkpt>
   <trkpt lat="30.875315" lon="34.786597"><ele>473.3</ele><name>TP08395</name><time>2016-12-28T22:38:16Z</time></trkpt>
   <trkpt lat="30.875275" lon="34.786636"><ele>473.2</ele><name>TP08396</name><time>2016-12-28T22:38:18Z</time></trkpt>
   <trkpt lat="30.875248" lon="34.786653"><ele>473.2</ele><name>TP08397</name><time>2016-12-28T22:38:19Z</time></trkpt>
   <trkpt lat="30.875217" lon="34.786676"><ele>473.1</ele><name>TP08398</name><time>2016-12-28T22:38:20Z</time></trkpt>
   <trkpt lat="30.875188" lon="34.786702"><ele>473.1</ele><name>TP08399</name><time>2016-12-28T22:38:21Z</time></trkpt>
   <trkpt lat="30.875157" lon="34.786726"><ele>473</ele><name>TP08400</name><time>2016-12-28T22:38:22Z</time></trkpt>
   <trkpt lat="30.875127" lon="34.786754"><ele>472.9</ele><name>TP08401</name><time>2016-12-28T22:38:23Z</time></trkpt>
   <trkpt lat="30.875101" lon="34.786783"><ele>472.8</ele><name>TP08402</name><time>2016-12-28T22:38:24Z</time></trkpt>
   <trkpt lat="30.87507" lon="34.786816"><ele>472.7</ele><name>TP08403</name><time>2016-12-28T22:38:25Z</time></trkpt>
   <trkpt lat="30.875041" lon="34.786854"><ele>472.5</ele><name>TP08404</name><time>2016-12-28T22:38:26Z</time></trkpt>
   <trkpt lat="30.875012" lon="34.786882"><ele>472.4</ele><name>TP08405</name><time>2016-12-28T22:38:27Z</time></trkpt>
   <trkpt lat="30.87498" lon="34.786911"><ele>472.2</ele><name>TP08406</name><time>2016-12-28T22:38:28Z</time></trkpt>
   <trkpt lat="30.87495" lon="34.78694"><ele>472.1</ele><name>TP08407</name><time>2016-12-28T22:38:29Z</time></trkpt>
   <trkpt lat="30.874921" lon="34.786971"><ele>471.9</ele><name>TP08408</name><time>2016-12-28T22:38:30Z</time></trkpt>
   <trkpt lat="30.874888" lon="34.787008"><ele>471.7</ele><name>TP08409</name><time>2016-12-28T22:38:32Z</time></trkpt>
   <trkpt lat="30.874858" lon="34.78704"><ele>471.4</ele><name>TP08410</name><time>2016-12-28T22:38:34Z</time></trkpt>
   <trkpt lat="30.87481" lon="34.787088"><ele>471.1</ele><name>TP08411</name><time>2016-12-28T22:38:36Z</time></trkpt>
   <trkpt lat="30.874779" lon="34.787117"><ele>470.9</ele><name>TP08412</name><time>2016-12-28T22:38:37Z</time></trkpt>
   <trkpt lat="30.874743" lon="34.78715"><ele>470.6</ele><name>TP08413</name><time>2016-12-28T22:38:38Z</time></trkpt>
   <trkpt lat="30.874712" lon="34.787177"><ele>470.5</ele><name>TP08414</name><time>2016-12-28T22:38:39Z</time></trkpt>
   <trkpt lat="30.874676" lon="34.787209"><ele>470.2</ele><name>TP08415</name><time>2016-12-28T22:38:40Z</time></trkpt>
   <trkpt lat="30.874638" lon="34.787243"><ele>470</ele><name>TP08416</name><time>2016-12-28T22:38:41Z</time></trkpt>
   <trkpt lat="30.874599" lon="34.787279"><ele>469.8</ele><name>TP08417</name><time>2016-12-28T22:38:42Z</time></trkpt>
   <trkpt lat="30.874559" lon="34.787315"><ele>469.7</ele><name>TP08418</name><time>2016-12-28T22:38:43Z</time></trkpt>
   <trkpt lat="30.87453" lon="34.787349"><ele>469.7</ele><name>TP08419</name><time>2016-12-28T22:38:44Z</time></trkpt>
   <trkpt lat="30.874484" lon="34.787361"><ele>469.7</ele><name>TP08420</name><time>2016-12-28T22:38:45Z</time></trkpt>
   <trkpt lat="30.874433" lon="34.787355"><ele>469.7</ele><name>TP08421</name><time>2016-12-28T22:38:46Z</time></trkpt>
   <trkpt lat="30.874385" lon="34.787351"><ele>469.7</ele><name>TP08422</name><time>2016-12-28T22:38:47Z</time></trkpt>
   <trkpt lat="30.874339" lon="34.787351"><ele>469.7</ele><name>TP08423</name><time>2016-12-28T22:38:48Z</time></trkpt>
   <trkpt lat="30.874293" lon="34.787347"><ele>469.7</ele><name>TP08424</name><time>2016-12-28T22:38:49Z</time></trkpt>
   <trkpt lat="30.874262" lon="34.787338"><ele>469.7</ele><name>TP08425</name><time>2016-12-28T22:38:50Z</time></trkpt>
   <trkpt lat="30.874223" lon="34.787303"><ele>469.6</ele><name>TP08426</name><time>2016-12-28T22:38:52Z</time></trkpt>
   <trkpt lat="30.874205" lon="34.787279"><ele>469.6</ele><name>TP08427</name><time>2016-12-28T22:38:53Z</time></trkpt>
   <trkpt lat="30.874184" lon="34.787253"><ele>469.6</ele><name>TP08428</name><time>2016-12-28T22:38:54Z</time></trkpt>
   <trkpt lat="30.874136" lon="34.787218"><ele>469.6</ele><name>TP08429</name><time>2016-12-28T22:38:56Z</time></trkpt>
   <trkpt lat="30.874106" lon="34.787198"><ele>469.5</ele><name>TP08430</name><time>2016-12-28T22:38:57Z</time></trkpt>
   <trkpt lat="30.874075" lon="34.787177"><ele>469.5</ele><name>TP08431</name><time>2016-12-28T22:38:58Z</time></trkpt>
   <trkpt lat="30.874046" lon="34.787153"><ele>469.4</ele><name>TP08432</name><time>2016-12-28T22:38:59Z</time></trkpt>
   <trkpt lat="30.874016" lon="34.787124"><ele>469.4</ele><name>TP08433</name><time>2016-12-28T22:39:00Z</time></trkpt>
   <trkpt lat="30.873984" lon="34.78708"><ele>469.3</ele><name>TP08434</name><time>2016-12-28T22:39:02Z</time></trkpt>
   <trkpt lat="30.873962" lon="34.787037"><ele>469.3</ele><name>TP08435</name><time>2016-12-28T22:39:03Z</time></trkpt>
   <trkpt lat="30.873942" lon="34.786996"><ele>469.3</ele><name>TP08436</name><time>2016-12-28T22:39:04Z</time></trkpt>
   <trkpt lat="30.873922" lon="34.786957"><ele>469.3</ele><name>TP08437</name><time>2016-12-28T22:39:05Z</time></trkpt>
   <trkpt lat="30.8739" lon="34.786919"><ele>469.3</ele><name>TP08438</name><time>2016-12-28T22:39:06Z</time></trkpt>
   <trkpt lat="30.873877" lon="34.786878"><ele>469.3</ele><name>TP08439</name><time>2016-12-28T22:39:07Z</time></trkpt>
   <trkpt lat="30.873855" lon="34.786836"><ele>469.3</ele><name>TP08440</name><time>2016-12-28T22:39:08Z</time></trkpt>
   <trkpt lat="30.873832" lon="34.786793"><ele>469.2</ele><name>TP08441</name><time>2016-12-28T22:39:09Z</time></trkpt>
   <trkpt lat="30.873808" lon="34.786749"><ele>469.2</ele><name>TP08442</name><time>2016-12-28T22:39:10Z</time></trkpt>
   <trkpt lat="30.873785" lon="34.786705"><ele>469.1</ele><name>TP08443</name><time>2016-12-28T22:39:11Z</time></trkpt>
   <trkpt lat="30.87376" lon="34.786659"><ele>469</ele><name>TP08444</name><time>2016-12-28T22:39:12Z</time></trkpt>
   <trkpt lat="30.87374" lon="34.786617"><ele>469</ele><name>TP08445</name><time>2016-12-28T22:39:13Z</time></trkpt>
   <trkpt lat="30.873727" lon="34.786575"><ele>469</ele><name>TP08446</name><time>2016-12-28T22:39:14Z</time></trkpt>
   <trkpt lat="30.873704" lon="34.78653"><ele>469</ele><name>TP08447</name><time>2016-12-28T22:39:15Z</time></trkpt>
   <trkpt lat="30.873679" lon="34.786489"><ele>468.9</ele><name>TP08448</name><time>2016-12-28T22:39:16Z</time></trkpt>
   <trkpt lat="30.873654" lon="34.786446"><ele>468.9</ele><name>TP08449</name><time>2016-12-28T22:39:17Z</time></trkpt>
   <trkpt lat="30.87363" lon="34.786404"><ele>468.8</ele><name>TP08450</name><time>2016-12-28T22:39:18Z</time></trkpt>
   <trkpt lat="30.873609" lon="34.786363"><ele>468.8</ele><name>TP08451</name><time>2016-12-28T22:39:19Z</time></trkpt>
   <trkpt lat="30.873588" lon="34.786318"><ele>468.7</ele><name>TP08452</name><time>2016-12-28T22:39:20Z</time></trkpt>
   <trkpt lat="30.873567" lon="34.786277"><ele>468.6</ele><name>TP08453</name><time>2016-12-28T22:39:21Z</time></trkpt>
   <trkpt lat="30.873544" lon="34.786231"><ele>468.5</ele><name>TP08454</name><time>2016-12-28T22:39:22Z</time></trkpt>
   <trkpt lat="30.873521" lon="34.786184"><ele>468.5</ele><name>TP08455</name><time>2016-12-28T22:39:23Z</time></trkpt>
   <trkpt lat="30.873496" lon="34.786137"><ele>468.4</ele><name>TP08456</name><time>2016-12-28T22:39:24Z</time></trkpt>
   <trkpt lat="30.873476" lon="34.786106"><ele>468.3</ele><name>TP08457</name><time>2016-12-28T22:39:25Z</time></trkpt>
   <trkpt lat="30.873432" lon="34.786078"><ele>468.2</ele><name>TP08458</name><time>2016-12-28T22:39:26Z</time></trkpt>
   <trkpt lat="30.873379" lon="34.78607"><ele>468.1</ele><name>TP08459</name><time>2016-12-28T22:39:27Z</time></trkpt>
   <trkpt lat="30.873336" lon="34.786087"><ele>468</ele><name>TP08460</name><time>2016-12-28T22:39:28Z</time></trkpt>
   <trkpt lat="30.873295" lon="34.786112"><ele>467.9</ele><name>TP08461</name><time>2016-12-28T22:39:29Z</time></trkpt>
   <trkpt lat="30.873255" lon="34.786142"><ele>467.8</ele><name>TP08462</name><time>2016-12-28T22:39:30Z</time></trkpt>
   <trkpt lat="30.873215" lon="34.786174"><ele>467.7</ele><name>TP08463</name><time>2016-12-28T22:39:31Z</time></trkpt>
   <trkpt lat="30.873174" lon="34.786205"><ele>467.6</ele><name>TP08464</name><time>2016-12-28T22:39:32Z</time></trkpt>
   <trkpt lat="30.873123" lon="34.786233"><ele>467.5</ele><name>TP08465</name><time>2016-12-28T22:39:33Z</time></trkpt>
   <trkpt lat="30.873046" lon="34.786301"><ele>467.5</ele><name>TP08466</name><time>2016-12-28T22:39:35Z</time></trkpt>
   <trkpt lat="30.873009" lon="34.786336"><ele>467.6</ele><name>TP08467</name><time>2016-12-28T22:39:36Z</time></trkpt>
   <trkpt lat="30.87297" lon="34.78637"><ele>467.7</ele><name>TP08468</name><time>2016-12-28T22:39:37Z</time></trkpt>
   <trkpt lat="30.872932" lon="34.786404"><ele>467.8</ele><name>TP08469</name><time>2016-12-28T22:39:38Z</time></trkpt>
   <trkpt lat="30.872895" lon="34.786441"><ele>468</ele><name>TP08470</name><time>2016-12-28T22:39:39Z</time></trkpt>
   <trkpt lat="30.872855" lon="34.786477"><ele>468.2</ele><name>TP08471</name><time>2016-12-28T22:39:40Z</time></trkpt>
   <trkpt lat="30.872813" lon="34.786508"><ele>468.4</ele><name>TP08472</name><time>2016-12-28T22:39:41Z</time></trkpt>
   <trkpt lat="30.872769" lon="34.786544"><ele>468.6</ele><name>TP08473</name><time>2016-12-28T22:39:42Z</time></trkpt>
   <trkpt lat="30.872729" lon="34.78658"><ele>468.8</ele><name>TP08474</name><time>2016-12-28T22:39:43Z</time></trkpt>
   <trkpt lat="30.872684" lon="34.786614"><ele>468.9</ele><name>TP08475</name><time>2016-12-28T22:39:44Z</time></trkpt>
   <trkpt lat="30.872639" lon="34.786646"><ele>469.1</ele><name>TP08476</name><time>2016-12-28T22:39:45Z</time></trkpt>
   <trkpt lat="30.872603" lon="34.786686"><ele>469.3</ele><name>TP08477</name><time>2016-12-28T22:39:46Z</time></trkpt>
   <trkpt lat="30.872559" lon="34.786726"><ele>469.4</ele><name>TP08478</name><time>2016-12-28T22:39:47Z</time></trkpt>
   <trkpt lat="30.872515" lon="34.786758"><ele>469.5</ele><name>TP08479</name><time>2016-12-28T22:39:48Z</time></trkpt>
   <trkpt lat="30.872472" lon="34.786795"><ele>469.6</ele><name>TP08480</name><time>2016-12-28T22:39:49Z</time></trkpt>
   <trkpt lat="30.872431" lon="34.786836"><ele>469.7</ele><name>TP08481</name><time>2016-12-28T22:39:50Z</time></trkpt>
   <trkpt lat="30.87239" lon="34.78688"><ele>469.9</ele><name>TP08482</name><time>2016-12-28T22:39:51Z</time></trkpt>
   <trkpt lat="30.872348" lon="34.78692"><ele>469.9</ele><name>TP08483</name><time>2016-12-28T22:39:52Z</time></trkpt>
   <trkpt lat="30.872279" lon="34.786992"><ele>470</ele><name>TP08484</name><time>2016-12-28T22:39:54Z</time></trkpt>
   <trkpt lat="30.872211" lon="34.787051"><ele>470.1</ele><name>TP08485</name><time>2016-12-28T22:39:56Z</time></trkpt>
   <trkpt lat="30.872173" lon="34.787069"><ele>470.1</ele><name>TP08486</name><time>2016-12-28T22:39:57Z</time></trkpt>
   <trkpt lat="30.872131" lon="34.787088"><ele>470.1</ele><name>TP08487</name><time>2016-12-28T22:39:58Z</time></trkpt>
   <trkpt lat="30.872083" lon="34.787104"><ele>470</ele><name>TP08488</name><time>2016-12-28T22:39:59Z</time></trkpt>
   <trkpt lat="30.872034" lon="34.787117"><ele>469.8</ele><name>TP08489</name><time>2016-12-28T22:40:00Z</time></trkpt>
   <trkpt lat="30.871991" lon="34.787134"><ele>469.7</ele><name>TP08490</name><time>2016-12-28T22:40:01Z</time></trkpt>
   <trkpt lat="30.87194" lon="34.787151"><ele>469.5</ele><name>TP08491</name><time>2016-12-28T22:40:02Z</time></trkpt>
   <trkpt lat="30.871891" lon="34.787164"><ele>469.3</ele><name>TP08492</name><time>2016-12-28T22:40:03Z</time></trkpt>
   <trkpt lat="30.871845" lon="34.787177"><ele>469.1</ele><name>TP08493</name><time>2016-12-28T22:40:04Z</time></trkpt>
   <trkpt lat="30.871803" lon="34.787189"><ele>469</ele><name>TP08494</name><time>2016-12-28T22:40:05Z</time></trkpt>
   <trkpt lat="30.87176" lon="34.787197"><ele>468.8</ele><name>TP08495</name><time>2016-12-28T22:40:06Z</time></trkpt>
   <trkpt lat="30.871719" lon="34.787208"><ele>468.7</ele><name>TP08496</name><time>2016-12-28T22:40:07Z</time></trkpt>
   <trkpt lat="30.871675" lon="34.787213"><ele>468.5</ele><name>TP08497</name><time>2016-12-28T22:40:08Z</time></trkpt>
   <trkpt lat="30.871631" lon="34.787216"><ele>468.4</ele><name>TP08498</name><time>2016-12-28T22:40:09Z</time></trkpt>
   <trkpt lat="30.871592" lon="34.787215"><ele>468.2</ele><name>TP08499</name><time>2016-12-28T22:40:10Z</time></trkpt>
   <trkpt lat="30.87155" lon="34.787215"><ele>468.1</ele><name>TP08500</name><time>2016-12-28T22:40:11Z</time></trkpt>
   <trkpt lat="30.871506" lon="34.787211"><ele>467.9</ele><name>TP08501</name><time>2016-12-28T22:40:12Z</time></trkpt>
   <trkpt lat="30.871464" lon="34.787205"><ele>467.8</ele><name>TP08502</name><time>2016-12-28T22:40:13Z</time></trkpt>
   <trkpt lat="30.871425" lon="34.787201"><ele>467.6</ele><name>TP08503</name><time>2016-12-28T22:40:15Z</time></trkpt>
   <trkpt lat="30.871395" lon="34.787199"><ele>467.5</ele><name>TP08504</name><time>2016-12-28T22:40:16Z</time></trkpt>
   <trkpt lat="30.871361" lon="34.787196"><ele>467.4</ele><name>TP08505</name><time>2016-12-28T22:40:17Z</time></trkpt>
   <trkpt lat="30.871332" lon="34.787193"><ele>467.3</ele><name>TP08506</name><time>2016-12-28T22:40:18Z</time></trkpt>
   <trkpt lat="30.871254" lon="34.787201"><ele>467</ele><name>TP08507</name><time>2016-12-28T22:40:20Z</time></trkpt>
   <trkpt lat="30.871189" lon="34.787203"><ele>467.2</ele><name>TP08508</name><time>2016-12-28T22:40:21Z</time></trkpt>
   <trkpt lat="30.871126" lon="34.787207"><ele>467.5</ele><name>TP08509</name><time>2016-12-28T22:40:22Z</time></trkpt>
   <trkpt lat="30.871063" lon="34.787213"><ele>467.7</ele><name>TP08510</name><time>2016-12-28T22:40:23Z</time></trkpt>
   <trkpt lat="30.871002" lon="34.787223"><ele>467.9</ele><name>TP08511</name><time>2016-12-28T22:40:24Z</time></trkpt>
   <trkpt lat="30.870907" lon="34.787248"><ele>468.2</ele><name>TP08512</name><time>2016-12-28T22:40:25Z</time></trkpt>
   <trkpt lat="30.870769" lon="34.787276"><ele>468.6</ele><name>TP08513</name><time>2016-12-28T22:40:27Z</time></trkpt>
   <trkpt lat="30.870726" lon="34.787294"><ele>468.7</ele><name>TP08514</name><time>2016-12-28T22:40:28Z</time></trkpt>
   <trkpt lat="30.870676" lon="34.787313"><ele>468.8</ele><name>TP08515</name><time>2016-12-28T22:40:29Z</time></trkpt>
   <trkpt lat="30.870626" lon="34.787334"><ele>468.9</ele><name>TP08516</name><time>2016-12-28T22:40:30Z</time></trkpt>
   <trkpt lat="30.870581" lon="34.787352"><ele>468.9</ele><name>TP08517</name><time>2016-12-28T22:40:31Z</time></trkpt>
   <trkpt lat="30.870532" lon="34.787369"><ele>469</ele><name>TP08518</name><time>2016-12-28T22:40:32Z</time></trkpt>
   <trkpt lat="30.870481" lon="34.787383"><ele>469</ele><name>TP08519</name><time>2016-12-28T22:40:33Z</time></trkpt>
   <trkpt lat="30.87043" lon="34.787394"><ele>469.1</ele><name>TP08520</name><time>2016-12-28T22:40:34Z</time></trkpt>
   <trkpt lat="30.87038" lon="34.787405"><ele>469.1</ele><name>TP08521</name><time>2016-12-28T22:40:35Z</time></trkpt>
   <trkpt lat="30.870332" lon="34.787417"><ele>469.1</ele><name>TP08522</name><time>2016-12-28T22:40:36Z</time></trkpt>
   <trkpt lat="30.87028" lon="34.787434"><ele>469.1</ele><name>TP08523</name><time>2016-12-28T22:40:37Z</time></trkpt>
   <trkpt lat="30.870233" lon="34.787447"><ele>469.1</ele><name>TP08524</name><time>2016-12-28T22:40:38Z</time></trkpt>
   <trkpt lat="30.870181" lon="34.787457"><ele>469.1</ele><name>TP08525</name><time>2016-12-28T22:40:39Z</time></trkpt>
   <trkpt lat="30.870129" lon="34.787469"><ele>469.1</ele><name>TP08526</name><time>2016-12-28T22:40:40Z</time></trkpt>
   <trkpt lat="30.870075" lon="34.787483"><ele>469.2</ele><name>TP08527</name><time>2016-12-28T22:40:41Z</time></trkpt>
   <trkpt lat="30.870025" lon="34.787498"><ele>469.2</ele><name>TP08528</name><time>2016-12-28T22:40:42Z</time></trkpt>
   <trkpt lat="30.869977" lon="34.787512"><ele>469.3</ele><name>TP08529</name><time>2016-12-28T22:40:43Z</time></trkpt>
   <trkpt lat="30.869934" lon="34.787529"><ele>469.3</ele><name>TP08530</name><time>2016-12-28T22:40:44Z</time></trkpt>
   <trkpt lat="30.869889" lon="34.787546"><ele>469.3</ele><name>TP08531</name><time>2016-12-28T22:40:45Z</time></trkpt>
   <trkpt lat="30.869843" lon="34.787561"><ele>469.4</ele><name>TP08532</name><time>2016-12-28T22:40:46Z</time></trkpt>
   <trkpt lat="30.869798" lon="34.787581"><ele>469.5</ele><name>TP08533</name><time>2016-12-28T22:40:47Z</time></trkpt>
   <trkpt lat="30.86975" lon="34.787602"><ele>469.6</ele><name>TP08534</name><time>2016-12-28T22:40:48Z</time></trkpt>
   <trkpt lat="30.869704" lon="34.787634"><ele>469.7</ele><name>TP08535</name><time>2016-12-28T22:40:49Z</time></trkpt>
   <trkpt lat="30.869663" lon="34.787668"><ele>469.8</ele><name>TP08536</name><time>2016-12-28T22:40:50Z</time></trkpt>
   <trkpt lat="30.869629" lon="34.787707"><ele>469.8</ele><name>TP08537</name><time>2016-12-28T22:40:51Z</time></trkpt>
   <trkpt lat="30.869601" lon="34.787751"><ele>469.9</ele><name>TP08538</name><time>2016-12-28T22:40:52Z</time></trkpt>
   <trkpt lat="30.869576" lon="34.787796"><ele>470</ele><name>TP08539</name><time>2016-12-28T22:40:53Z</time></trkpt>
   <trkpt lat="30.869545" lon="34.787839"><ele>469.9</ele><name>TP08540</name><time>2016-12-28T22:40:54Z</time></trkpt>
   <trkpt lat="30.869506" lon="34.787878"><ele>469.9</ele><name>TP08541</name><time>2016-12-28T22:40:55Z</time></trkpt>
   <trkpt lat="30.869477" lon="34.787926"><ele>469.9</ele><name>TP08542</name><time>2016-12-28T22:40:56Z</time></trkpt>
   <trkpt lat="30.869451" lon="34.787973"><ele>469.7</ele><name>TP08543</name><time>2016-12-28T22:40:57Z</time></trkpt>
   <trkpt lat="30.869424" lon="34.788024"><ele>469.6</ele><name>TP08544</name><time>2016-12-28T22:40:58Z</time></trkpt>
   <trkpt lat="30.869396" lon="34.788077"><ele>469.5</ele><name>TP08545</name><time>2016-12-28T22:40:59Z</time></trkpt>
   <trkpt lat="30.869369" lon="34.788122"><ele>469.4</ele><name>TP08546</name><time>2016-12-28T22:41:00Z</time></trkpt>
   <trkpt lat="30.869342" lon="34.788169"><ele>469.4</ele><name>TP08547</name><time>2016-12-28T22:41:01Z</time></trkpt>
   <trkpt lat="30.869312" lon="34.788217"><ele>469.3</ele><name>TP08548</name><time>2016-12-28T22:41:02Z</time></trkpt>
   <trkpt lat="30.869278" lon="34.788262"><ele>469.3</ele><name>TP08549</name><time>2016-12-28T22:41:03Z</time></trkpt>
   <trkpt lat="30.869249" lon="34.788305"><ele>469.2</ele><name>TP08550</name><time>2016-12-28T22:41:04Z</time></trkpt>
   <trkpt lat="30.869214" lon="34.788349"><ele>469.2</ele><name>TP08551</name><time>2016-12-28T22:41:05Z</time></trkpt>
   <trkpt lat="30.869185" lon="34.788391"><ele>469.2</ele><name>TP08552</name><time>2016-12-28T22:41:06Z</time></trkpt>
   <trkpt lat="30.869156" lon="34.788444"><ele>469.2</ele><name>TP08553</name><time>2016-12-28T22:41:07Z</time></trkpt>
   <trkpt lat="30.869122" lon="34.788489"><ele>469.2</ele><name>TP08554</name><time>2016-12-28T22:41:08Z</time></trkpt>
   <trkpt lat="30.869084" lon="34.788533"><ele>469.3</ele><name>TP08555</name><time>2016-12-28T22:41:09Z</time></trkpt>
   <trkpt lat="30.869052" lon="34.788573"><ele>469.3</ele><name>TP08556</name><time>2016-12-28T22:41:10Z</time></trkpt>
   <trkpt lat="30.86902" lon="34.788605"><ele>469.3</ele><name>TP08557</name><time>2016-12-28T22:41:11Z</time></trkpt>
   <trkpt lat="30.868985" lon="34.788641"><ele>469.4</ele><name>TP08558</name><time>2016-12-28T22:41:12Z</time></trkpt>
   <trkpt lat="30.868951" lon="34.788683"><ele>469.5</ele><name>TP08559</name><time>2016-12-28T22:41:13Z</time></trkpt>
   <trkpt lat="30.868913" lon="34.788722"><ele>469.6</ele><name>TP08560</name><time>2016-12-28T22:41:14Z</time></trkpt>
   <trkpt lat="30.868872" lon="34.788763"><ele>469.7</ele><name>TP08561</name><time>2016-12-28T22:41:15Z</time></trkpt>
   <trkpt lat="30.868833" lon="34.788804"><ele>469.9</ele><name>TP08562</name><time>2016-12-28T22:41:16Z</time></trkpt>
   <trkpt lat="30.868794" lon="34.788849"><ele>470.1</ele><name>TP08563</name><time>2016-12-28T22:41:17Z</time></trkpt>
   <trkpt lat="30.868757" lon="34.788893"><ele>470.3</ele><name>TP08564</name><time>2016-12-28T22:41:18Z</time></trkpt>
   <trkpt lat="30.868723" lon="34.788939"><ele>470.4</ele><name>TP08565</name><time>2016-12-28T22:41:19Z</time></trkpt>
   <trkpt lat="30.86869" lon="34.788982"><ele>470.5</ele><name>TP08566</name><time>2016-12-28T22:41:20Z</time></trkpt>
   <trkpt lat="30.868664" lon="34.789023"><ele>470.6</ele><name>TP08567</name><time>2016-12-28T22:41:21Z</time></trkpt>
   <trkpt lat="30.868633" lon="34.789067"><ele>470.7</ele><name>TP08568</name><time>2016-12-28T22:41:22Z</time></trkpt>
   <trkpt lat="30.868599" lon="34.789114"><ele>470.7</ele><name>TP08569</name><time>2016-12-28T22:41:23Z</time></trkpt>
   <trkpt lat="30.868565" lon="34.789154"><ele>470.8</ele><name>TP08570</name><time>2016-12-28T22:41:24Z</time></trkpt>
   <trkpt lat="30.868526" lon="34.789194"><ele>470.8</ele><name>TP08571</name><time>2016-12-28T22:41:25Z</time></trkpt>
   <trkpt lat="30.868486" lon="34.789227"><ele>470.8</ele><name>TP08572</name><time>2016-12-28T22:41:26Z</time></trkpt>
   <trkpt lat="30.868447" lon="34.789258"><ele>470.8</ele><name>TP08573</name><time>2016-12-28T22:41:27Z</time></trkpt>
   <trkpt lat="30.868409" lon="34.789291"><ele>470.8</ele><name>TP08574</name><time>2016-12-28T22:41:28Z</time></trkpt>
   <trkpt lat="30.868373" lon="34.78933"><ele>470.8</ele><name>TP08575</name><time>2016-12-28T22:41:29Z</time></trkpt>
   <trkpt lat="30.86834" lon="34.789371"><ele>470.8</ele><name>TP08576</name><time>2016-12-28T22:41:30Z</time></trkpt>
   <trkpt lat="30.86831" lon="34.789418"><ele>470.8</ele><name>TP08577</name><time>2016-12-28T22:41:31Z</time></trkpt>
   <trkpt lat="30.868279" lon="34.789466"><ele>470.7</ele><name>TP08578</name><time>2016-12-28T22:41:32Z</time></trkpt>
   <trkpt lat="30.86825" lon="34.789519"><ele>470.7</ele><name>TP08579</name><time>2016-12-28T22:41:33Z</time></trkpt>
   <trkpt lat="30.868221" lon="34.78957"><ele>470.7</ele><name>TP08580</name><time>2016-12-28T22:41:34Z</time></trkpt>
   <trkpt lat="30.868193" lon="34.789621"><ele>470.7</ele><name>TP08581</name><time>2016-12-28T22:41:35Z</time></trkpt>
   <trkpt lat="30.86816" lon="34.789667"><ele>470.7</ele><name>TP08582</name><time>2016-12-28T22:41:36Z</time></trkpt>
   <trkpt lat="30.868124" lon="34.789712"><ele>470.7</ele><name>TP08583</name><time>2016-12-28T22:41:37Z</time></trkpt>
   <trkpt lat="30.868088" lon="34.789753"><ele>470.7</ele><name>TP08584</name><time>2016-12-28T22:41:38Z</time></trkpt>
   <trkpt lat="30.868052" lon="34.789794"><ele>470.7</ele><name>TP08585</name><time>2016-12-28T22:41:39Z</time></trkpt>
   <trkpt lat="30.86802" lon="34.789838"><ele>470.8</ele><name>TP08586</name><time>2016-12-28T22:41:40Z</time></trkpt>
   <trkpt lat="30.867986" lon="34.789881"><ele>470.8</ele><name>TP08587</name><time>2016-12-28T22:41:41Z</time></trkpt>
   <trkpt lat="30.867952" lon="34.789924"><ele>470.9</ele><name>TP08588</name><time>2016-12-28T22:41:42Z</time></trkpt>
   <trkpt lat="30.867917" lon="34.789969"><ele>470.9</ele><name>TP08589</name><time>2016-12-28T22:41:43Z</time></trkpt>
   <trkpt lat="30.867882" lon="34.790015"><ele>471</ele><name>TP08590</name><time>2016-12-28T22:41:44Z</time></trkpt>
   <trkpt lat="30.867841" lon="34.790059"><ele>471.1</ele><name>TP08591</name><time>2016-12-28T22:41:45Z</time></trkpt>
   <trkpt lat="30.867802" lon="34.790101"><ele>471.2</ele><name>TP08592</name><time>2016-12-28T22:41:46Z</time></trkpt>
   <trkpt lat="30.867761" lon="34.790138"><ele>471.2</ele><name>TP08593</name><time>2016-12-28T22:41:47Z</time></trkpt>
   <trkpt lat="30.867717" lon="34.790175"><ele>471.2</ele><name>TP08594</name><time>2016-12-28T22:41:48Z</time></trkpt>
   <trkpt lat="30.867677" lon="34.790214"><ele>471.3</ele><name>TP08595</name><time>2016-12-28T22:41:49Z</time></trkpt>
   <trkpt lat="30.867639" lon="34.79025"><ele>471.3</ele><name>TP08596</name><time>2016-12-28T22:41:50Z</time></trkpt>
   <trkpt lat="30.8676" lon="34.790293"><ele>471.4</ele><name>TP08597</name><time>2016-12-28T22:41:51Z</time></trkpt>
   <trkpt lat="30.867565" lon="34.790328"><ele>471.4</ele><name>TP08598</name><time>2016-12-28T22:41:52Z</time></trkpt>
   <trkpt lat="30.867528" lon="34.790366"><ele>471.4</ele><name>TP08599</name><time>2016-12-28T22:41:53Z</time></trkpt>
   <trkpt lat="30.867494" lon="34.790401"><ele>471.5</ele><name>TP08600</name><time>2016-12-28T22:41:54Z</time></trkpt>
   <trkpt lat="30.867464" lon="34.790433"><ele>471.4</ele><name>TP08601</name><time>2016-12-28T22:41:55Z</time></trkpt>
   <trkpt lat="30.867436" lon="34.790468"><ele>471.3</ele><name>TP08602</name><time>2016-12-28T22:41:56Z</time></trkpt>
   <trkpt lat="30.867407" lon="34.790504"><ele>471.1</ele><name>TP08603</name><time>2016-12-28T22:41:57Z</time></trkpt>
   <trkpt lat="30.867369" lon="34.790537"><ele>471</ele><name>TP08604</name><time>2016-12-28T22:41:58Z</time></trkpt>
   <trkpt lat="30.867334" lon="34.790575"><ele>470.9</ele><name>TP08605</name><time>2016-12-28T22:41:59Z</time></trkpt>
   <trkpt lat="30.867297" lon="34.79061"><ele>470.7</ele><name>TP08606</name><time>2016-12-28T22:42:00Z</time></trkpt>
   <trkpt lat="30.86726" lon="34.790644"><ele>470.6</ele><name>TP08607</name><time>2016-12-28T22:42:01Z</time></trkpt>
   <trkpt lat="30.867228" lon="34.79068"><ele>470.5</ele><name>TP08608</name><time>2016-12-28T22:42:02Z</time></trkpt>
   <trkpt lat="30.867193" lon="34.79071"><ele>470.4</ele><name>TP08609</name><time>2016-12-28T22:42:03Z</time></trkpt>
   <trkpt lat="30.867156" lon="34.790745"><ele>470.3</ele><name>TP08610</name><time>2016-12-28T22:42:04Z</time></trkpt>
   <trkpt lat="30.867122" lon="34.790776"><ele>470.2</ele><name>TP08611</name><time>2016-12-28T22:42:05Z</time></trkpt>
   <trkpt lat="30.86709" lon="34.790813"><ele>470.1</ele><name>TP08612</name><time>2016-12-28T22:42:06Z</time></trkpt>
   <trkpt lat="30.867056" lon="34.790851"><ele>470</ele><name>TP08613</name><time>2016-12-28T22:42:07Z</time></trkpt>
   <trkpt lat="30.86702" lon="34.790887"><ele>470</ele><name>TP08614</name><time>2016-12-28T22:42:08Z</time></trkpt>
   <trkpt lat="30.866986" lon="34.790921"><ele>470</ele><name>TP08615</name><time>2016-12-28T22:42:09Z</time></trkpt>
   <trkpt lat="30.866953" lon="34.790957"><ele>470.1</ele><name>TP08616</name><time>2016-12-28T22:42:10Z</time></trkpt>
   <trkpt lat="30.866918" lon="34.790993"><ele>470.1</ele><name>TP08617</name><time>2016-12-28T22:42:11Z</time></trkpt>
   <trkpt lat="30.866882" lon="34.791031"><ele>470.2</ele><name>TP08618</name><time>2016-12-28T22:42:12Z</time></trkpt>
   <trkpt lat="30.866846" lon="34.791068"><ele>470.3</ele><name>TP08619</name><time>2016-12-28T22:42:13Z</time></trkpt>
   <trkpt lat="30.866813" lon="34.791108"><ele>470.4</ele><name>TP08620</name><time>2016-12-28T22:42:14Z</time></trkpt>
   <trkpt lat="30.866777" lon="34.791151"><ele>470.5</ele><name>TP08621</name><time>2016-12-28T22:42:15Z</time></trkpt>
   <trkpt lat="30.86674" lon="34.791188"><ele>470.6</ele><name>TP08622</name><time>2016-12-28T22:42:16Z</time></trkpt>
   <trkpt lat="30.866699" lon="34.791219"><ele>470.8</ele><name>TP08623</name><time>2016-12-28T22:42:17Z</time></trkpt>
   <trkpt lat="30.866662" lon="34.791257"><ele>471.1</ele><name>TP08624</name><time>2016-12-28T22:42:18Z</time></trkpt>
   <trkpt lat="30.866625" lon="34.791295"><ele>471.4</ele><name>TP08625</name><time>2016-12-28T22:42:19Z</time></trkpt>
   <trkpt lat="30.866589" lon="34.791338"><ele>471.8</ele><name>TP08626</name><time>2016-12-28T22:42:20Z</time></trkpt>
   <trkpt lat="30.866552" lon="34.791378"><ele>472.1</ele><name>TP08627</name><time>2016-12-28T22:42:21Z</time></trkpt>
   <trkpt lat="30.86652" lon="34.791416"><ele>472.4</ele><name>TP08628</name><time>2016-12-28T22:42:22Z</time></trkpt>
   <trkpt lat="30.866478" lon="34.791451"><ele>472.7</ele><name>TP08629</name><time>2016-12-28T22:42:23Z</time></trkpt>
   <trkpt lat="30.866435" lon="34.791484"><ele>472.9</ele><name>TP08630</name><time>2016-12-28T22:42:24Z</time></trkpt>
   <trkpt lat="30.866393" lon="34.791515"><ele>473.2</ele><name>TP08631</name><time>2016-12-28T22:42:25Z</time></trkpt>
   <trkpt lat="30.86635" lon="34.791552"><ele>473.4</ele><name>TP08632</name><time>2016-12-28T22:42:26Z</time></trkpt>
   <trkpt lat="30.86631" lon="34.791588"><ele>473.6</ele><name>TP08633</name><time>2016-12-28T22:42:27Z</time></trkpt>
   <trkpt lat="30.866266" lon="34.791628"><ele>473.9</ele><name>TP08634</name><time>2016-12-28T22:42:28Z</time></trkpt>
   <trkpt lat="30.866229" lon="34.791672"><ele>473.9</ele><name>TP08635</name><time>2016-12-28T22:42:29Z</time></trkpt>
   <trkpt lat="30.866187" lon="34.791715"><ele>473.9</ele><name>TP08636</name><time>2016-12-28T22:42:30Z</time></trkpt>
   <trkpt lat="30.866149" lon="34.791761"><ele>473.9</ele><name>TP08637</name><time>2016-12-28T22:42:31Z</time></trkpt>
   <trkpt lat="30.866113" lon="34.791807"><ele>473.8</ele><name>TP08638</name><time>2016-12-28T22:42:32Z</time></trkpt>
   <trkpt lat="30.866082" lon="34.791853"><ele>473.8</ele><name>TP08639</name><time>2016-12-28T22:42:33Z</time></trkpt>
   <trkpt lat="30.866045" lon="34.7919"><ele>473.7</ele><name>TP08640</name><time>2016-12-28T22:42:34Z</time></trkpt>
   <trkpt lat="30.866003" lon="34.791946"><ele>473.6</ele><name>TP08641</name><time>2016-12-28T22:42:35Z</time></trkpt>
   <trkpt lat="30.865967" lon="34.791997"><ele>473.5</ele><name>TP08642</name><time>2016-12-28T22:42:36Z</time></trkpt>
   <trkpt lat="30.865931" lon="34.792046"><ele>473.4</ele><name>TP08643</name><time>2016-12-28T22:42:37Z</time></trkpt>
   <trkpt lat="30.865898" lon="34.792096"><ele>473.2</ele><name>TP08644</name><time>2016-12-28T22:42:38Z</time></trkpt>
   <trkpt lat="30.865864" lon="34.792151"><ele>472.8</ele><name>TP08645</name><time>2016-12-28T22:42:39Z</time></trkpt>
   <trkpt lat="30.865838" lon="34.792206"><ele>472.4</ele><name>TP08646</name><time>2016-12-28T22:42:40Z</time></trkpt>
   <trkpt lat="30.865809" lon="34.79226"><ele>472</ele><name>TP08647</name><time>2016-12-28T22:42:41Z</time></trkpt>
   <trkpt lat="30.865782" lon="34.792307"><ele>471.6</ele><name>TP08648</name><time>2016-12-28T22:42:42Z</time></trkpt>
   <trkpt lat="30.865754" lon="34.792358"><ele>471.3</ele><name>TP08649</name><time>2016-12-28T22:42:43Z</time></trkpt>
   <trkpt lat="30.865724" lon="34.792408"><ele>471</ele><name>TP08650</name><time>2016-12-28T22:42:44Z</time></trkpt>
   <trkpt lat="30.865693" lon="34.79246"><ele>470.7</ele><name>TP08651</name><time>2016-12-28T22:42:45Z</time></trkpt>
   <trkpt lat="30.865661" lon="34.792505"><ele>470.4</ele><name>TP08652</name><time>2016-12-28T22:42:46Z</time></trkpt>
   <trkpt lat="30.865626" lon="34.792553"><ele>470.2</ele><name>TP08653</name><time>2016-12-28T22:42:47Z</time></trkpt>
   <trkpt lat="30.865586" lon="34.792594"><ele>470</ele><name>TP08654</name><time>2016-12-28T22:42:48Z</time></trkpt>
   <trkpt lat="30.865545" lon="34.792634"><ele>469.8</ele><name>TP08655</name><time>2016-12-28T22:42:49Z</time></trkpt>
   <trkpt lat="30.865501" lon="34.792661"><ele>469.7</ele><name>TP08656</name><time>2016-12-28T22:42:50Z</time></trkpt>
   <trkpt lat="30.865454" lon="34.792686"><ele>469.6</ele><name>TP08657</name><time>2016-12-28T22:42:51Z</time></trkpt>
   <trkpt lat="30.865407" lon="34.79272"><ele>469.5</ele><name>TP08658</name><time>2016-12-28T22:42:52Z</time></trkpt>
   <trkpt lat="30.865359" lon="34.79275"><ele>469.6</ele><name>TP08659</name><time>2016-12-28T22:42:53Z</time></trkpt>
   <trkpt lat="30.865315" lon="34.792785"><ele>469.8</ele><name>TP08660</name><time>2016-12-28T22:42:54Z</time></trkpt>
   <trkpt lat="30.865272" lon="34.792819"><ele>469.9</ele><name>TP08661</name><time>2016-12-28T22:42:55Z</time></trkpt>
   <trkpt lat="30.865237" lon="34.792865"><ele>470</ele><name>TP08662</name><time>2016-12-28T22:42:56Z</time></trkpt>
   <trkpt lat="30.865203" lon="34.792911"><ele>470</ele><name>TP08663</name><time>2016-12-28T22:42:57Z</time></trkpt>
   <trkpt lat="30.865174" lon="34.79296"><ele>470.2</ele><name>TP08664</name><time>2016-12-28T22:42:58Z</time></trkpt>
   <trkpt lat="30.86515" lon="34.793013"><ele>470.4</ele><name>TP08665</name><time>2016-12-28T22:42:59Z</time></trkpt>
   <trkpt lat="30.865122" lon="34.79307"><ele>470.6</ele><name>TP08666</name><time>2016-12-28T22:43:00Z</time></trkpt>
   <trkpt lat="30.865089" lon="34.793128"><ele>470.7</ele><name>TP08667</name><time>2016-12-28T22:43:01Z</time></trkpt>
   <trkpt lat="30.865061" lon="34.793181"><ele>470.8</ele><name>TP08668</name><time>2016-12-28T22:43:02Z</time></trkpt>
   <trkpt lat="30.865033" lon="34.793237"><ele>470.9</ele><name>TP08669</name><time>2016-12-28T22:43:03Z</time></trkpt>
   <trkpt lat="30.865006" lon="34.793288"><ele>471</ele><name>TP08670</name><time>2016-12-28T22:43:04Z</time></trkpt>
   <trkpt lat="30.864981" lon="34.79334"><ele>471</ele><name>TP08671</name><time>2016-12-28T22:43:05Z</time></trkpt>
   <trkpt lat="30.864955" lon="34.793395"><ele>471</ele><name>TP08672</name><time>2016-12-28T22:43:06Z</time></trkpt>
   <trkpt lat="30.864932" lon="34.793449"><ele>471</ele><name>TP08673</name><time>2016-12-28T22:43:07Z</time></trkpt>
   <trkpt lat="30.864907" lon="34.793504"><ele>471</ele><name>TP08674</name><time>2016-12-28T22:43:08Z</time></trkpt>
   <trkpt lat="30.864878" lon="34.793556"><ele>470.9</ele><name>TP08675</name><time>2016-12-28T22:43:09Z</time></trkpt>
   <trkpt lat="30.864847" lon="34.793607"><ele>470.8</ele><name>TP08676</name><time>2016-12-28T22:43:10Z</time></trkpt>
   <trkpt lat="30.864815" lon="34.793658"><ele>470.7</ele><name>TP08677</name><time>2016-12-28T22:43:11Z</time></trkpt>
   <trkpt lat="30.864781" lon="34.793705"><ele>470.6</ele><name>TP08678</name><time>2016-12-28T22:43:12Z</time></trkpt>
   <trkpt lat="30.864741" lon="34.793749"><ele>470.4</ele><name>TP08679</name><time>2016-12-28T22:43:13Z</time></trkpt>
   <trkpt lat="30.864699" lon="34.793793"><ele>470.4</ele><name>TP08680</name><time>2016-12-28T22:43:14Z</time></trkpt>
   <trkpt lat="30.86466" lon="34.793836"><ele>470.5</ele><name>TP08681</name><time>2016-12-28T22:43:15Z</time></trkpt>
   <trkpt lat="30.86462" lon="34.793878"><ele>470.5</ele><name>TP08682</name><time>2016-12-28T22:43:16Z</time></trkpt>
   <trkpt lat="30.864581" lon="34.79392"><ele>470.6</ele><name>TP08683</name><time>2016-12-28T22:43:17Z</time></trkpt>
   <trkpt lat="30.864535" lon="34.793959"><ele>470.9</ele><name>TP08684</name><time>2016-12-28T22:43:18Z</time></trkpt>
   <trkpt lat="30.864486" lon="34.793997"><ele>471.2</ele><name>TP08685</name><time>2016-12-28T22:43:19Z</time></trkpt>
   <trkpt lat="30.864441" lon="34.794036"><ele>471.4</ele><name>TP08686</name><time>2016-12-28T22:43:20Z</time></trkpt>
   <trkpt lat="30.864395" lon="34.794073"><ele>471.7</ele><name>TP08687</name><time>2016-12-28T22:43:21Z</time></trkpt>
   <trkpt lat="30.86435" lon="34.794111"><ele>471.9</ele><name>TP08688</name><time>2016-12-28T22:43:22Z</time></trkpt>
   <trkpt lat="30.864302" lon="34.794149"><ele>472.1</ele><name>TP08689</name><time>2016-12-28T22:43:23Z</time></trkpt>
   <trkpt lat="30.864255" lon="34.794186"><ele>472.3</ele><name>TP08690</name><time>2016-12-28T22:43:24Z</time></trkpt>
   <trkpt lat="30.864212" lon="34.794225"><ele>472.5</ele><name>TP08691</name><time>2016-12-28T22:43:25Z</time></trkpt>
   <trkpt lat="30.864168" lon="34.794267"><ele>472.7</ele><name>TP08692</name><time>2016-12-28T22:43:26Z</time></trkpt>
   <trkpt lat="30.864131" lon="34.794308"><ele>472.9</ele><name>TP08693</name><time>2016-12-28T22:43:27Z</time></trkpt>
   <trkpt lat="30.864096" lon="34.794356"><ele>473.1</ele><name>TP08694</name><time>2016-12-28T22:43:28Z</time></trkpt>
   <trkpt lat="30.864058" lon="34.794403"><ele>473.3</ele><name>TP08695</name><time>2016-12-28T22:43:29Z</time></trkpt>
   <trkpt lat="30.86402" lon="34.794447"><ele>473.4</ele><name>TP08696</name><time>2016-12-28T22:43:30Z</time></trkpt>
   <trkpt lat="30.863984" lon="34.794491"><ele>473.5</ele><name>TP08697</name><time>2016-12-28T22:43:31Z</time></trkpt>
   <trkpt lat="30.863945" lon="34.79453"><ele>473.7</ele><name>TP08698</name><time>2016-12-28T22:43:32Z</time></trkpt>
   <trkpt lat="30.863903" lon="34.794572"><ele>473.8</ele><name>TP08699</name><time>2016-12-28T22:43:33Z</time></trkpt>
   <trkpt lat="30.863861" lon="34.794619"><ele>473.9</ele><name>TP08700</name><time>2016-12-28T22:43:34Z</time></trkpt>
   <trkpt lat="30.863822" lon="34.794669"><ele>473.9</ele><name>TP08701</name><time>2016-12-28T22:43:35Z</time></trkpt>
   <trkpt lat="30.863783" lon="34.79471"><ele>474</ele><name>TP08702</name><time>2016-12-28T22:43:36Z</time></trkpt>
   <trkpt lat="30.863742" lon="34.794752"><ele>474</ele><name>TP08703</name><time>2016-12-28T22:43:37Z</time></trkpt>
   <trkpt lat="30.863702" lon="34.794796"><ele>474</ele><name>TP08704</name><time>2016-12-28T22:43:38Z</time></trkpt>
   <trkpt lat="30.863658" lon="34.794837"><ele>474</ele><name>TP08705</name><time>2016-12-28T22:43:39Z</time></trkpt>
   <trkpt lat="30.863611" lon="34.794878"><ele>473.9</ele><name>TP08706</name><time>2016-12-28T22:43:40Z</time></trkpt>
   <trkpt lat="30.863564" lon="34.794923"><ele>473.9</ele><name>TP08707</name><time>2016-12-28T22:43:41Z</time></trkpt>
   <trkpt lat="30.86352" lon="34.794973"><ele>473.9</ele><name>TP08708</name><time>2016-12-28T22:43:42Z</time></trkpt>
   <trkpt lat="30.863481" lon="34.795018"><ele>473.8</ele><name>TP08709</name><time>2016-12-28T22:43:43Z</time></trkpt>
   <trkpt lat="30.863445" lon="34.795065"><ele>473.8</ele><name>TP08710</name><time>2016-12-28T22:43:44Z</time></trkpt>
   <trkpt lat="30.863417" lon="34.795116"><ele>473.7</ele><name>TP08711</name><time>2016-12-28T22:43:45Z</time></trkpt>
   <trkpt lat="30.863391" lon="34.795168"><ele>473.7</ele><name>TP08712</name><time>2016-12-28T22:43:46Z</time></trkpt>
   <trkpt lat="30.863362" lon="34.795213"><ele>473.6</ele><name>TP08713</name><time>2016-12-28T22:43:47Z</time></trkpt>
   <trkpt lat="30.863331" lon="34.795245"><ele>473.6</ele><name>TP08714</name><time>2016-12-28T22:43:48Z</time></trkpt>
   <trkpt lat="30.863293" lon="34.795271"><ele>473.5</ele><name>TP08715</name><time>2016-12-28T22:43:49Z</time></trkpt>
   <trkpt lat="30.863253" lon="34.795288"><ele>473.5</ele><name>TP08716</name><time>2016-12-28T22:43:50Z</time></trkpt>
   <trkpt lat="30.86321" lon="34.795293"><ele>473.4</ele><name>TP08717</name><time>2016-12-28T22:43:51Z</time></trkpt>
   <trkpt lat="30.863171" lon="34.79529"><ele>473.4</ele><name>TP08718</name><time>2016-12-28T22:43:52Z</time></trkpt>
   <trkpt lat="30.863136" lon="34.795273"><ele>473.4</ele><name>TP08719</name><time>2016-12-28T22:43:53Z</time></trkpt>
   <trkpt lat="30.8631" lon="34.795249"><ele>473.4</ele><name>TP08720</name><time>2016-12-28T22:43:54Z</time></trkpt>
   <trkpt lat="30.863064" lon="34.795221"><ele>473.4</ele><name>TP08721</name><time>2016-12-28T22:43:55Z</time></trkpt>
   <trkpt lat="30.86303" lon="34.795186"><ele>473.4</ele><name>TP08722</name><time>2016-12-28T22:43:57Z</time></trkpt>
   <trkpt lat="30.863" lon="34.795148"><ele>473.4</ele><name>TP08723</name><time>2016-12-28T22:43:59Z</time></trkpt>
   <trkpt lat="30.862973" lon="34.795125"><ele>473.4</ele><name>TP08724</name><time>2016-12-28T22:44:01Z</time></trkpt>
   <trkpt lat="30.862937" lon="34.795084"><ele>473.4</ele><name>TP08725</name><time>2016-12-28T22:44:02Z</time></trkpt>
   <trkpt lat="30.862892" lon="34.795026"><ele>473.5</ele><name>TP08726</name><time>2016-12-28T22:44:03Z</time></trkpt>
   <trkpt lat="30.862856" lon="34.79498"><ele>473.5</ele><name>TP08727</name><time>2016-12-28T22:44:04Z</time></trkpt>
   <trkpt lat="30.862838" lon="34.794934"><ele>473.5</ele><name>TP08728</name><time>2016-12-28T22:44:06Z</time></trkpt>
   <trkpt lat="30.862826" lon="34.7949"><ele>473.6</ele><name>TP08729</name><time>2016-12-28T22:44:09Z</time></trkpt>
   <trkpt lat="30.86277" lon="34.794837"><ele>473.6</ele><name>TP08730</name><time>2016-12-28T22:44:11Z</time></trkpt>
   <trkpt lat="30.862719" lon="34.794778"><ele>473.7</ele><name>TP08731</name><time>2016-12-28T22:44:12Z</time></trkpt>
   <trkpt lat="30.862596" lon="34.794642"><ele>473.9</ele><name>TP08732</name><time>2016-12-28T22:44:13Z</time></trkpt>
   <trkpt lat="30.862389" lon="34.794332"><ele>473.7</ele><name>TP08733</name><time>2016-12-28T22:44:15Z</time></trkpt>
   <trkpt lat="30.862355" lon="34.794286"><ele>473.6</ele><name>TP08734</name><time>2016-12-28T22:44:16Z</time></trkpt>
   <trkpt lat="30.862322" lon="34.794243"><ele>473.6</ele><name>TP08735</name><time>2016-12-28T22:44:17Z</time></trkpt>
   <trkpt lat="30.862286" lon="34.794196"><ele>473.5</ele><name>TP08736</name><time>2016-12-28T22:44:18Z</time></trkpt>
   <trkpt lat="30.862251" lon="34.794156"><ele>473.5</ele><name>TP08737</name><time>2016-12-28T22:44:19Z</time></trkpt>
   <trkpt lat="30.862219" lon="34.794112"><ele>473.4</ele><name>TP08738</name><time>2016-12-28T22:44:20Z</time></trkpt>
   <trkpt lat="30.862183" lon="34.794067"><ele>473.4</ele><name>TP08739</name><time>2016-12-28T22:44:21Z</time></trkpt>
   <trkpt lat="30.86215" lon="34.794021"><ele>473.3</ele><name>TP08740</name><time>2016-12-28T22:44:22Z</time></trkpt>
   <trkpt lat="30.862118" lon="34.793973"><ele>473.3</ele><name>TP08741</name><time>2016-12-28T22:44:23Z</time></trkpt>
   <trkpt lat="30.862083" lon="34.793928"><ele>473.2</ele><name>TP08742</name><time>2016-12-28T22:44:24Z</time></trkpt>
   <trkpt lat="30.862046" lon="34.793878"><ele>473.2</ele><name>TP08743</name><time>2016-12-28T22:44:25Z</time></trkpt>
   <trkpt lat="30.862011" lon="34.793831"><ele>473.1</ele><name>TP08744</name><time>2016-12-28T22:44:26Z</time></trkpt>
   <trkpt lat="30.861973" lon="34.79379"><ele>473.1</ele><name>TP08745</name><time>2016-12-28T22:44:27Z</time></trkpt>
   <trkpt lat="30.861938" lon="34.793747"><ele>473</ele><name>TP08746</name><time>2016-12-28T22:44:28Z</time></trkpt>
   <trkpt lat="30.861902" lon="34.793701"><ele>473.1</ele><name>TP08747</name><time>2016-12-28T22:44:29Z</time></trkpt>
   <trkpt lat="30.861869" lon="34.793657"><ele>473.2</ele><name>TP08748</name><time>2016-12-28T22:44:30Z</time></trkpt>
   <trkpt lat="30.861835" lon="34.793616"><ele>473.3</ele><name>TP08749</name><time>2016-12-28T22:44:31Z</time></trkpt>
   <trkpt lat="30.861798" lon="34.793572"><ele>473.4</ele><name>TP08750</name><time>2016-12-28T22:44:32Z</time></trkpt>
   <trkpt lat="30.861761" lon="34.793525"><ele>473.4</ele><name>TP08751</name><time>2016-12-28T22:44:33Z</time></trkpt>
   <trkpt lat="30.861721" lon="34.793485"><ele>473.5</ele><name>TP08752</name><time>2016-12-28T22:44:34Z</time></trkpt>
   <trkpt lat="30.861681" lon="34.793445"><ele>473.6</ele><name>TP08753</name><time>2016-12-28T22:44:35Z</time></trkpt>
   <trkpt lat="30.861644" lon="34.793397"><ele>473.6</ele><name>TP08754</name><time>2016-12-28T22:44:36Z</time></trkpt>
   <trkpt lat="30.861607" lon="34.793351"><ele>473.7</ele><name>TP08755</name><time>2016-12-28T22:44:37Z</time></trkpt>
   <trkpt lat="30.861564" lon="34.79331"><ele>473.7</ele><name>TP08756</name><time>2016-12-28T22:44:38Z</time></trkpt>
   <trkpt lat="30.861521" lon="34.793271"><ele>473.8</ele><name>TP08757</name><time>2016-12-28T22:44:39Z</time></trkpt>
   <trkpt lat="30.861481" lon="34.793229"><ele>473.8</ele><name>TP08758</name><time>2016-12-28T22:44:40Z</time></trkpt>
   <trkpt lat="30.861436" lon="34.793184"><ele>473.8</ele><name>TP08759</name><time>2016-12-28T22:44:41Z</time></trkpt>
   <trkpt lat="30.86139" lon="34.793139"><ele>473.9</ele><name>TP08760</name><time>2016-12-28T22:44:42Z</time></trkpt>
   <trkpt lat="30.861347" lon="34.79309"><ele>473.9</ele><name>TP08761</name><time>2016-12-28T22:44:43Z</time></trkpt>
   <trkpt lat="30.86131" lon="34.793043"><ele>473.9</ele><name>TP08762</name><time>2016-12-28T22:44:44Z</time></trkpt>
   <trkpt lat="30.861275" lon="34.792995"><ele>473.9</ele><name>TP08763</name><time>2016-12-28T22:44:45Z</time></trkpt>
   <trkpt lat="30.861243" lon="34.792948"><ele>473.9</ele><name>TP08764</name><time>2016-12-28T22:44:46Z</time></trkpt>
   <trkpt lat="30.861207" lon="34.792905"><ele>473.7</ele><name>TP08765</name><time>2016-12-28T22:44:47Z</time></trkpt>
   <trkpt lat="30.861165" lon="34.792859"><ele>473.5</ele><name>TP08766</name><time>2016-12-28T22:44:48Z</time></trkpt>
   <trkpt lat="30.861124" lon="34.792817"><ele>473.2</ele><name>TP08767</name><time>2016-12-28T22:44:49Z</time></trkpt>
   <trkpt lat="30.861088" lon="34.792769"><ele>473</ele><name>TP08768</name><time>2016-12-28T22:44:50Z</time></trkpt>
   <trkpt lat="30.861057" lon="34.792736"><ele>472.9</ele><name>TP08769</name><time>2016-12-28T22:44:51Z</time></trkpt>
   <trkpt lat="30.861023" lon="34.792698"><ele>472.7</ele><name>TP08770</name><time>2016-12-28T22:44:52Z</time></trkpt>
   <trkpt lat="30.860988" lon="34.79266"><ele>472.6</ele><name>TP08771</name><time>2016-12-28T22:44:53Z</time></trkpt>
   <trkpt lat="30.860952" lon="34.79262"><ele>472.5</ele><name>TP08772</name><time>2016-12-28T22:44:54Z</time></trkpt>
   <trkpt lat="30.860913" lon="34.792582"><ele>472.4</ele><name>TP08773</name><time>2016-12-28T22:44:55Z</time></trkpt>
   <trkpt lat="30.860872" lon="34.792541"><ele>472.3</ele><name>TP08774</name><time>2016-12-28T22:44:56Z</time></trkpt>
   <trkpt lat="30.860836" lon="34.7925"><ele>472.3</ele><name>TP08775</name><time>2016-12-28T22:44:57Z</time></trkpt>
   <trkpt lat="30.860797" lon="34.792461"><ele>472.2</ele><name>TP08776</name><time>2016-12-28T22:44:58Z</time></trkpt>
   <trkpt lat="30.860754" lon="34.792427"><ele>472.2</ele><name>TP08777</name><time>2016-12-28T22:44:59Z</time></trkpt>
   <trkpt lat="30.86071" lon="34.792396"><ele>472.2</ele><name>TP08778</name><time>2016-12-28T22:45:00Z</time></trkpt>
   <trkpt lat="30.86066" lon="34.792372"><ele>472.1</ele><name>TP08779</name><time>2016-12-28T22:45:01Z</time></trkpt>
   <trkpt lat="30.860614" lon="34.792346"><ele>472.1</ele><name>TP08780</name><time>2016-12-28T22:45:02Z</time></trkpt>
   <trkpt lat="30.860567" lon="34.79232"><ele>472.1</ele><name>TP08781</name><time>2016-12-28T22:45:03Z</time></trkpt>
   <trkpt lat="30.860519" lon="34.792292"><ele>472.2</ele><name>TP08782</name><time>2016-12-28T22:45:04Z</time></trkpt>
   <trkpt lat="30.860472" lon="34.792264"><ele>472.2</ele><name>TP08783</name><time>2016-12-28T22:45:05Z</time></trkpt>
   <trkpt lat="30.860426" lon="34.792239"><ele>472.3</ele><name>TP08784</name><time>2016-12-28T22:45:06Z</time></trkpt>
   <trkpt lat="30.86038" lon="34.792215"><ele>472.5</ele><name>TP08785</name><time>2016-12-28T22:45:07Z</time></trkpt>
   <trkpt lat="30.860336" lon="34.792191"><ele>472.9</ele><name>TP08786</name><time>2016-12-28T22:45:08Z</time></trkpt>
   <trkpt lat="30.860294" lon="34.792166"><ele>473.1</ele><name>TP08787</name><time>2016-12-28T22:45:09Z</time></trkpt>
   <trkpt lat="30.860246" lon="34.792147"><ele>473.4</ele><name>TP08788</name><time>2016-12-28T22:45:10Z</time></trkpt>
   <trkpt lat="30.860197" lon="34.792127"><ele>473.7</ele><name>TP08789</name><time>2016-12-28T22:45:11Z</time></trkpt>
   <trkpt lat="30.860149" lon="34.792111"><ele>473.9</ele><name>TP08790</name><time>2016-12-28T22:45:12Z</time></trkpt>
   <trkpt lat="30.860098" lon="34.792091"><ele>474.1</ele><name>TP08791</name><time>2016-12-28T22:45:13Z</time></trkpt>
   <trkpt lat="30.860052" lon="34.792075"><ele>474.3</ele><name>TP08792</name><time>2016-12-28T22:45:14Z</time></trkpt>
   <trkpt lat="30.860005" lon="34.792052"><ele>474.4</ele><name>TP08793</name><time>2016-12-28T22:45:15Z</time></trkpt>
   <trkpt lat="30.859954" lon="34.792034"><ele>474.6</ele><name>TP08794</name><time>2016-12-28T22:45:16Z</time></trkpt>
   <trkpt lat="30.859905" lon="34.792018"><ele>474.7</ele><name>TP08795</name><time>2016-12-28T22:45:17Z</time></trkpt>
   <trkpt lat="30.85986" lon="34.792002"><ele>474.8</ele><name>TP08796</name><time>2016-12-28T22:45:18Z</time></trkpt>
   <trkpt lat="30.859815" lon="34.791984"><ele>474.9</ele><name>TP08797</name><time>2016-12-28T22:45:19Z</time></trkpt>
   <trkpt lat="30.859766" lon="34.791967"><ele>475</ele><name>TP08798</name><time>2016-12-28T22:45:20Z</time></trkpt>
   <trkpt lat="30.859713" lon="34.791949"><ele>475.1</ele><name>TP08799</name><time>2016-12-28T22:45:21Z</time></trkpt>
   <trkpt lat="30.859666" lon="34.791932"><ele>475.2</ele><name>TP08800</name><time>2016-12-28T22:45:22Z</time></trkpt>
   <trkpt lat="30.859613" lon="34.791924"><ele>475.3</ele><name>TP08801</name><time>2016-12-28T22:45:23Z</time></trkpt>
   <trkpt lat="30.859562" lon="34.791905"><ele>475.5</ele><name>TP08802</name><time>2016-12-28T22:45:24Z</time></trkpt>
   <trkpt lat="30.859513" lon="34.791889"><ele>475.8</ele><name>TP08803</name><time>2016-12-28T22:45:25Z</time></trkpt>
   <trkpt lat="30.85946" lon="34.791873"><ele>476.1</ele><name>TP08804</name><time>2016-12-28T22:45:26Z</time></trkpt>
   <trkpt lat="30.859412" lon="34.791857"><ele>476.3</ele><name>TP08805</name><time>2016-12-28T22:45:27Z</time></trkpt>
   <trkpt lat="30.859363" lon="34.791842"><ele>476.6</ele><name>TP08806</name><time>2016-12-28T22:45:28Z</time></trkpt>
   <trkpt lat="30.859311" lon="34.791825"><ele>476.8</ele><name>TP08807</name><time>2016-12-28T22:45:29Z</time></trkpt>
   <trkpt lat="30.85926" lon="34.791811"><ele>477.1</ele><name>TP08808</name><time>2016-12-28T22:45:30Z</time></trkpt>
   <trkpt lat="30.859214" lon="34.791797"><ele>477.3</ele><name>TP08809</name><time>2016-12-28T22:45:31Z</time></trkpt>
   <trkpt lat="30.859165" lon="34.791781"><ele>477.6</ele><name>TP08810</name><time>2016-12-28T22:45:32Z</time></trkpt>
   <trkpt lat="30.859113" lon="34.79177"><ele>477.8</ele><name>TP08811</name><time>2016-12-28T22:45:33Z</time></trkpt>
   <trkpt lat="30.859065" lon="34.791755"><ele>478.1</ele><name>TP08812</name><time>2016-12-28T22:45:34Z</time></trkpt>
   <trkpt lat="30.859017" lon="34.791735"><ele>478.3</ele><name>TP08813</name><time>2016-12-28T22:45:35Z</time></trkpt>
   <trkpt lat="30.85897" lon="34.791714"><ele>478.4</ele><name>TP08814</name><time>2016-12-28T22:45:36Z</time></trkpt>
   <trkpt lat="30.858917" lon="34.791699"><ele>478.7</ele><name>TP08815</name><time>2016-12-28T22:45:37Z</time></trkpt>
   <trkpt lat="30.858866" lon="34.791684"><ele>478.9</ele><name>TP08816</name><time>2016-12-28T22:45:38Z</time></trkpt>
   <trkpt lat="30.858814" lon="34.791672"><ele>479.1</ele><name>TP08817</name><time>2016-12-28T22:45:39Z</time></trkpt>
   <trkpt lat="30.858771" lon="34.791651"><ele>479.3</ele><name>TP08818</name><time>2016-12-28T22:45:40Z</time></trkpt>
   <trkpt lat="30.858721" lon="34.791632"><ele>479.2</ele><name>TP08819</name><time>2016-12-28T22:45:41Z</time></trkpt>
   <trkpt lat="30.858675" lon="34.791613"><ele>479</ele><name>TP08820</name><time>2016-12-28T22:45:42Z</time></trkpt>
   <trkpt lat="30.858629" lon="34.791595"><ele>478.7</ele><name>TP08821</name><time>2016-12-28T22:45:43Z</time></trkpt>
   <trkpt lat="30.858582" lon="34.791576"><ele>478.5</ele><name>TP08822</name><time>2016-12-28T22:45:44Z</time></trkpt>
   <trkpt lat="30.858532" lon="34.791557"><ele>478.2</ele><name>TP08823</name><time>2016-12-28T22:45:45Z</time></trkpt>
   <trkpt lat="30.858483" lon="34.791541"><ele>478</ele><name>TP08824</name><time>2016-12-28T22:45:46Z</time></trkpt>
   <trkpt lat="30.858437" lon="34.791522"><ele>477.8</ele><name>TP08825</name><time>2016-12-28T22:45:47Z</time></trkpt>
   <trkpt lat="30.858388" lon="34.791507"><ele>477.5</ele><name>TP08826</name><time>2016-12-28T22:45:48Z</time></trkpt>
   <trkpt lat="30.858335" lon="34.791491"><ele>477.3</ele><name>TP08827</name><time>2016-12-28T22:45:49Z</time></trkpt>
   <trkpt lat="30.858285" lon="34.791472"><ele>477.1</ele><name>TP08828</name><time>2016-12-28T22:45:50Z</time></trkpt>
   <trkpt lat="30.858232" lon="34.791459"><ele>476.9</ele><name>TP08829</name><time>2016-12-28T22:45:51Z</time></trkpt>
   <trkpt lat="30.858183" lon="34.791438"><ele>476.6</ele><name>TP08830</name><time>2016-12-28T22:45:52Z</time></trkpt>
   <trkpt lat="30.858134" lon="34.791422"><ele>476.4</ele><name>TP08831</name><time>2016-12-28T22:45:53Z</time></trkpt>
   <trkpt lat="30.858081" lon="34.791408"><ele>476.2</ele><name>TP08832</name><time>2016-12-28T22:45:54Z</time></trkpt>
   <trkpt lat="30.85803" lon="34.791393"><ele>476</ele><name>TP08833</name><time>2016-12-28T22:45:55Z</time></trkpt>
   <trkpt lat="30.857979" lon="34.791375"><ele>475.8</ele><name>TP08834</name><time>2016-12-28T22:45:56Z</time></trkpt>
   <trkpt lat="30.857927" lon="34.791357"><ele>475.5</ele><name>TP08835</name><time>2016-12-28T22:45:57Z</time></trkpt>
   <trkpt lat="30.857877" lon="34.791342"><ele>475.6</ele><name>TP08836</name><time>2016-12-28T22:45:58Z</time></trkpt>
   <trkpt lat="30.857827" lon="34.791325"><ele>475.8</ele><name>TP08837</name><time>2016-12-28T22:45:59Z</time></trkpt>
   <trkpt lat="30.857779" lon="34.791306"><ele>476</ele><name>TP08838</name><time>2016-12-28T22:46:00Z</time></trkpt>
   <trkpt lat="30.857686" lon="34.791259"><ele>476.4</ele><name>TP08839</name><time>2016-12-28T22:46:02Z</time></trkpt>
   <trkpt lat="30.857636" lon="34.791236"><ele>476.7</ele><name>TP08840</name><time>2016-12-28T22:46:03Z</time></trkpt>
   <trkpt lat="30.857583" lon="34.791214"><ele>476.9</ele><name>TP08841</name><time>2016-12-28T22:46:04Z</time></trkpt>
   <trkpt lat="30.857532" lon="34.791188"><ele>477.2</ele><name>TP08842</name><time>2016-12-28T22:46:05Z</time></trkpt>
   <trkpt lat="30.85748" lon="34.791167"><ele>477.5</ele><name>TP08843</name><time>2016-12-28T22:46:06Z</time></trkpt>
   <trkpt lat="30.857431" lon="34.791148"><ele>477.7</ele><name>TP08844</name><time>2016-12-28T22:46:07Z</time></trkpt>
   <trkpt lat="30.857382" lon="34.791129"><ele>478</ele><name>TP08845</name><time>2016-12-28T22:46:08Z</time></trkpt>
   <trkpt lat="30.857332" lon="34.791114"><ele>478.2</ele><name>TP08846</name><time>2016-12-28T22:46:09Z</time></trkpt>
   <trkpt lat="30.857286" lon="34.791095"><ele>478.5</ele><name>TP08847</name><time>2016-12-28T22:46:10Z</time></trkpt>
   <trkpt lat="30.857236" lon="34.791075"><ele>478.7</ele><name>TP08848</name><time>2016-12-28T22:46:11Z</time></trkpt>
   <trkpt lat="30.857189" lon="34.791044"><ele>478.9</ele><name>TP08849</name><time>2016-12-28T22:46:12Z</time></trkpt>
   <trkpt lat="30.857144" lon="34.791015"><ele>479.1</ele><name>TP08850</name><time>2016-12-28T22:46:13Z</time></trkpt>
   <trkpt lat="30.857092" lon="34.790998"><ele>479.3</ele><name>TP08851</name><time>2016-12-28T22:46:14Z</time></trkpt>
   <trkpt lat="30.857041" lon="34.790981"><ele>479.7</ele><name>TP08852</name><time>2016-12-28T22:46:15Z</time></trkpt>
   <trkpt lat="30.856988" lon="34.790961"><ele>480.1</ele><name>TP08853</name><time>2016-12-28T22:46:16Z</time></trkpt>
   <trkpt lat="30.856937" lon="34.79094"><ele>480.4</ele><name>TP08854</name><time>2016-12-28T22:46:17Z</time></trkpt>
   <trkpt lat="30.856886" lon="34.790922"><ele>480.8</ele><name>TP08855</name><time>2016-12-28T22:46:18Z</time></trkpt>
   <trkpt lat="30.856835" lon="34.7909"><ele>481.1</ele><name>TP08856</name><time>2016-12-28T22:46:19Z</time></trkpt>
   <trkpt lat="30.856787" lon="34.790884"><ele>481.4</ele><name>TP08857</name><time>2016-12-28T22:46:20Z</time></trkpt>
   <trkpt lat="30.856736" lon="34.790865"><ele>481.7</ele><name>TP08858</name><time>2016-12-28T22:46:21Z</time></trkpt>
   <trkpt lat="30.856684" lon="34.790845"><ele>481.9</ele><name>TP08859</name><time>2016-12-28T22:46:22Z</time></trkpt>
   <trkpt lat="30.856639" lon="34.79082"><ele>482.1</ele><name>TP08860</name><time>2016-12-28T22:46:23Z</time></trkpt>
   <trkpt lat="30.856593" lon="34.790793"><ele>482.3</ele><name>TP08861</name><time>2016-12-28T22:46:24Z</time></trkpt>
   <trkpt lat="30.856554" lon="34.790764"><ele>482.3</ele><name>TP08862</name><time>2016-12-28T22:46:25Z</time></trkpt>
   <trkpt lat="30.85651" lon="34.790742"><ele>482.5</ele><name>TP08863</name><time>2016-12-28T22:46:26Z</time></trkpt>
   <trkpt lat="30.856464" lon="34.790726"><ele>482.6</ele><name>TP08864</name><time>2016-12-28T22:46:27Z</time></trkpt>
   <trkpt lat="30.856418" lon="34.79073"><ele>482.9</ele><name>TP08865</name><time>2016-12-28T22:46:28Z</time></trkpt>
   <trkpt lat="30.85637" lon="34.790732"><ele>483.3</ele><name>TP08866</name><time>2016-12-28T22:46:29Z</time></trkpt>
   <trkpt lat="30.856324" lon="34.790732"><ele>483.6</ele><name>TP08867</name><time>2016-12-28T22:46:30Z</time></trkpt>
   <trkpt lat="30.856272" lon="34.790736"><ele>483.9</ele><name>TP08868</name><time>2016-12-28T22:46:31Z</time></trkpt>
   <trkpt lat="30.856224" lon="34.790742"><ele>484.1</ele><name>TP08869</name><time>2016-12-28T22:46:32Z</time></trkpt>
   <trkpt lat="30.856179" lon="34.790742"><ele>484</ele><name>TP08870</name><time>2016-12-28T22:46:33Z</time></trkpt>
   <trkpt lat="30.856146" lon="34.790734"><ele>483.9</ele><name>TP08871</name><time>2016-12-28T22:46:34Z</time></trkpt>
   <trkpt lat="30.856111" lon="34.79073"><ele>483.9</ele><name>TP08872</name><time>2016-12-28T22:46:35Z</time></trkpt>
   <trkpt lat="30.856068" lon="34.790715"><ele>483.7</ele><name>TP08873</name><time>2016-12-28T22:46:36Z</time></trkpt>
   <trkpt lat="30.85603" lon="34.790693"><ele>483.6</ele><name>TP08874</name><time>2016-12-28T22:46:37Z</time></trkpt>
   <trkpt lat="30.855995" lon="34.790664"><ele>483.4</ele><name>TP08875</name><time>2016-12-28T22:46:38Z</time></trkpt>
   <trkpt lat="30.85597" lon="34.790643"><ele>483.3</ele><name>TP08876</name><time>2016-12-28T22:46:39Z</time></trkpt>
   <trkpt lat="30.855934" lon="34.790606"><ele>483.2</ele><name>TP08877</name><time>2016-12-28T22:46:41Z</time></trkpt>
   <trkpt lat="30.855891" lon="34.790557"><ele>483.1</ele><name>TP08878</name><time>2016-12-28T22:46:43Z</time></trkpt>
   <trkpt lat="30.85585" lon="34.7905"><ele>483.1</ele><name>TP08879</name><time>2016-12-28T22:46:44Z</time></trkpt>
   <trkpt lat="30.855814" lon="34.790444"><ele>483.1</ele><name>TP08880</name><time>2016-12-28T22:46:45Z</time></trkpt>
   <trkpt lat="30.855782" lon="34.790387"><ele>483.1</ele><name>TP08881</name><time>2016-12-28T22:46:46Z</time></trkpt>
   <trkpt lat="30.85575" lon="34.790329"><ele>483.1</ele><name>TP08882</name><time>2016-12-28T22:46:47Z</time></trkpt>
   <trkpt lat="30.85572" lon="34.790271"><ele>483.1</ele><name>TP08883</name><time>2016-12-28T22:46:48Z</time></trkpt>
   <trkpt lat="30.85569" lon="34.790211"><ele>483</ele><name>TP08884</name><time>2016-12-28T22:46:49Z</time></trkpt>
   <trkpt lat="30.855653" lon="34.790138"><ele>483</ele><name>TP08885</name><time>2016-12-28T22:46:50Z</time></trkpt>
   <trkpt lat="30.855561" lon="34.790013"><ele>483.2</ele><name>TP08886</name><time>2016-12-28T22:46:52Z</time></trkpt>
   <trkpt lat="30.855525" lon="34.789965"><ele>483.3</ele><name>TP08887</name><time>2016-12-28T22:46:53Z</time></trkpt>
   <trkpt lat="30.855494" lon="34.789909"><ele>483.3</ele><name>TP08888</name><time>2016-12-28T22:46:54Z</time></trkpt>
   <trkpt lat="30.85546" lon="34.789857"><ele>483.4</ele><name>TP08889</name><time>2016-12-28T22:46:55Z</time></trkpt>
   <trkpt lat="30.855428" lon="34.78981"><ele>483.5</ele><name>TP08890</name><time>2016-12-28T22:46:56Z</time></trkpt>
   <trkpt lat="30.855396" lon="34.789761"><ele>483.3</ele><name>TP08891</name><time>2016-12-28T22:46:57Z</time></trkpt>
   <trkpt lat="30.855362" lon="34.789712"><ele>483</ele><name>TP08892</name><time>2016-12-28T22:46:58Z</time></trkpt>
   <trkpt lat="30.855324" lon="34.789663"><ele>482.7</ele><name>TP08893</name><time>2016-12-28T22:46:59Z</time></trkpt>
   <trkpt lat="30.855289" lon="34.789616"><ele>482.5</ele><name>TP08894</name><time>2016-12-28T22:47:00Z</time></trkpt>
   <trkpt lat="30.855252" lon="34.789568"><ele>482.2</ele><name>TP08895</name><time>2016-12-28T22:47:01Z</time></trkpt>
   <trkpt lat="30.855217" lon="34.78952"><ele>482.2</ele><name>TP08896</name><time>2016-12-28T22:47:02Z</time></trkpt>
   <trkpt lat="30.855183" lon="34.789473"><ele>482.1</ele><name>TP08897</name><time>2016-12-28T22:47:03Z</time></trkpt>
   <trkpt lat="30.855147" lon="34.789426"><ele>482</ele><name>TP08898</name><time>2016-12-28T22:47:04Z</time></trkpt>
   <trkpt lat="30.855115" lon="34.789377"><ele>482</ele><name>TP08899</name><time>2016-12-28T22:47:05Z</time></trkpt>
   <trkpt lat="30.855079" lon="34.789329"><ele>481.9</ele><name>TP08900</name><time>2016-12-28T22:47:06Z</time></trkpt>
   <trkpt lat="30.855047" lon="34.789281"><ele>481.9</ele><name>TP08901</name><time>2016-12-28T22:47:07Z</time></trkpt>
   <trkpt lat="30.855015" lon="34.789235"><ele>481.9</ele><name>TP08902</name><time>2016-12-28T22:47:08Z</time></trkpt>
   <trkpt lat="30.854982" lon="34.789185"><ele>481.9</ele><name>TP08903</name><time>2016-12-28T22:47:09Z</time></trkpt>
   <trkpt lat="30.854948" lon="34.789141"><ele>481.9</ele><name>TP08904</name><time>2016-12-28T22:47:10Z</time></trkpt>
   <trkpt lat="30.854915" lon="34.789101"><ele>481.9</ele><name>TP08905</name><time>2016-12-28T22:47:11Z</time></trkpt>
   <trkpt lat="30.854877" lon="34.789067"><ele>481.8</ele><name>TP08906</name><time>2016-12-28T22:47:12Z</time></trkpt>
   <trkpt lat="30.854838" lon="34.789043"><ele>481.8</ele><name>TP08907</name><time>2016-12-28T22:47:13Z</time></trkpt>
   <trkpt lat="30.8548" lon="34.789018"><ele>481.7</ele><name>TP08908</name><time>2016-12-28T22:47:14Z</time></trkpt>
   <trkpt lat="30.854761" lon="34.788988"><ele>481.7</ele><name>TP08909</name><time>2016-12-28T22:47:15Z</time></trkpt>
   <trkpt lat="30.854718" lon="34.788958"><ele>481.7</ele><name>TP08910</name><time>2016-12-28T22:47:16Z</time></trkpt>
   <trkpt lat="30.854659" lon="34.788932"><ele>481.6</ele><name>TP08911</name><time>2016-12-28T22:47:17Z</time></trkpt>
   <trkpt lat="30.85461" lon="34.788911"><ele>481.5</ele><name>TP08912</name><time>2016-12-28T22:47:18Z</time></trkpt>
   <trkpt lat="30.854581" lon="34.788898"><ele>481.5</ele><name>TP08913</name><time>2016-12-28T22:47:19Z</time></trkpt>
   <trkpt lat="30.854551" lon="34.7889"><ele>481.3</ele><name>TP08914</name><time>2016-12-28T22:47:20Z</time></trkpt>
   <trkpt lat="30.854518" lon="34.788898"><ele>481.1</ele><name>TP08915</name><time>2016-12-28T22:47:21Z</time></trkpt>
   <trkpt lat="30.854483" lon="34.788892"><ele>480.9</ele><name>TP08916</name><time>2016-12-28T22:47:22Z</time></trkpt>
   <trkpt lat="30.854443" lon="34.788892"><ele>480.6</ele><name>TP08917</name><time>2016-12-28T22:47:23Z</time></trkpt>
   <trkpt lat="30.854393" lon="34.788888"><ele>480.3</ele><name>TP08918</name><time>2016-12-28T22:47:24Z</time></trkpt>
   <trkpt lat="30.854341" lon="34.788878"><ele>480</ele><name>TP08919</name><time>2016-12-28T22:47:25Z</time></trkpt>
   <trkpt lat="30.854293" lon="34.788857"><ele>479.7</ele><name>TP08920</name><time>2016-12-28T22:47:26Z</time></trkpt>
   <trkpt lat="30.854249" lon="34.78883"><ele>479.5</ele><name>TP08921</name><time>2016-12-28T22:47:27Z</time></trkpt>
   <trkpt lat="30.854212" lon="34.78881"><ele>479.3</ele><name>TP08922</name><time>2016-12-28T22:47:28Z</time></trkpt>
   <trkpt lat="30.854172" lon="34.788783"><ele>479</ele><name>TP08923</name><time>2016-12-28T22:47:29Z</time></trkpt>
   <trkpt lat="30.854134" lon="34.788762"><ele>478.8</ele><name>TP08924</name><time>2016-12-28T22:47:30Z</time></trkpt>
   <trkpt lat="30.854099" lon="34.788733"><ele>478.5</ele><name>TP08925</name><time>2016-12-28T22:47:31Z</time></trkpt>
   <trkpt lat="30.854069" lon="34.788702"><ele>478.2</ele><name>TP08926</name><time>2016-12-28T22:47:32Z</time></trkpt>
   <trkpt lat="30.854046" lon="34.788668"><ele>478.1</ele><name>TP08927</name><time>2016-12-28T22:47:33Z</time></trkpt>
   <trkpt lat="30.854021" lon="34.788634"><ele>477.9</ele><name>TP08928</name><time>2016-12-28T22:47:34Z</time></trkpt>
   <trkpt lat="30.853991" lon="34.788605"><ele>477.7</ele><name>TP08929</name><time>2016-12-28T22:47:35Z</time></trkpt>
   <trkpt lat="30.85396" lon="34.788573"><ele>477.5</ele><name>TP08930</name><time>2016-12-28T22:47:36Z</time></trkpt>
   <trkpt lat="30.85393" lon="34.788538"><ele>477.3</ele><name>TP08931</name><time>2016-12-28T22:47:37Z</time></trkpt>
   <trkpt lat="30.853906" lon="34.788502"><ele>477.1</ele><name>TP08932</name><time>2016-12-28T22:47:38Z</time></trkpt>
   <trkpt lat="30.853873" lon="34.788475"><ele>477</ele><name>TP08933</name><time>2016-12-28T22:47:39Z</time></trkpt>
   <trkpt lat="30.853842" lon="34.78845"><ele>476.8</ele><name>TP08934</name><time>2016-12-28T22:47:40Z</time></trkpt>
   <trkpt lat="30.853806" lon="34.788422"><ele>476.7</ele><name>TP08935</name><time>2016-12-28T22:47:41Z</time></trkpt>
   <trkpt lat="30.853776" lon="34.788389"><ele>476.6</ele><name>TP08936</name><time>2016-12-28T22:47:42Z</time></trkpt>
   <trkpt lat="30.853741" lon="34.788359"><ele>476.5</ele><name>TP08937</name><time>2016-12-28T22:47:43Z</time></trkpt>
   <trkpt lat="30.853705" lon="34.788329"><ele>476.6</ele><name>TP08938</name><time>2016-12-28T22:47:44Z</time></trkpt>
   <trkpt lat="30.853665" lon="34.788301"><ele>476.6</ele><name>TP08939</name><time>2016-12-28T22:47:45Z</time></trkpt>
   <trkpt lat="30.853624" lon="34.788273"><ele>476.7</ele><name>TP08940</name><time>2016-12-28T22:47:46Z</time></trkpt>
   <trkpt lat="30.853587" lon="34.788242"><ele>476.8</ele><name>TP08941</name><time>2016-12-28T22:47:47Z</time></trkpt>
   <trkpt lat="30.853551" lon="34.788204"><ele>476.8</ele><name>TP08942</name><time>2016-12-28T22:47:48Z</time></trkpt>
   <trkpt lat="30.853513" lon="34.788173"><ele>476.9</ele><name>TP08943</name><time>2016-12-28T22:47:49Z</time></trkpt>
   <trkpt lat="30.853474" lon="34.788139"><ele>476.9</ele><name>TP08944</name><time>2016-12-28T22:47:50Z</time></trkpt>
   <trkpt lat="30.853437" lon="34.788109"><ele>476.9</ele><name>TP08945</name><time>2016-12-28T22:47:51Z</time></trkpt>
   <trkpt lat="30.853397" lon="34.788074"><ele>477</ele><name>TP08946</name><time>2016-12-28T22:47:52Z</time></trkpt>
   <trkpt lat="30.853358" lon="34.788044"><ele>477</ele><name>TP08947</name><time>2016-12-28T22:47:53Z</time></trkpt>
   <trkpt lat="30.85332" lon="34.788013"><ele>477</ele><name>TP08948</name><time>2016-12-28T22:47:54Z</time></trkpt>
   <trkpt lat="30.853283" lon="34.787977"><ele>477</ele><name>TP08949</name><time>2016-12-28T22:47:55Z</time></trkpt>
   <trkpt lat="30.853245" lon="34.78794"><ele>477</ele><name>TP08950</name><time>2016-12-28T22:47:56Z</time></trkpt>
   <trkpt lat="30.853205" lon="34.787907"><ele>477</ele><name>TP08951</name><time>2016-12-28T22:47:57Z</time></trkpt>
   <trkpt lat="30.853168" lon="34.787879"><ele>477.1</ele><name>TP08952</name><time>2016-12-28T22:47:58Z</time></trkpt>
   <trkpt lat="30.853128" lon="34.787846"><ele>477.1</ele><name>TP08953</name><time>2016-12-28T22:47:59Z</time></trkpt>
   <trkpt lat="30.853051" lon="34.787778"><ele>477.3</ele><name>TP08954</name><time>2016-12-28T22:48:01Z</time></trkpt>
   <trkpt lat="30.852971" lon="34.787711"><ele>477.5</ele><name>TP08955</name><time>2016-12-28T22:48:03Z</time></trkpt>
   <trkpt lat="30.852929" lon="34.787679"><ele>477.6</ele><name>TP08956</name><time>2016-12-28T22:48:04Z</time></trkpt>
   <trkpt lat="30.852889" lon="34.787645"><ele>477.7</ele><name>TP08957</name><time>2016-12-28T22:48:05Z</time></trkpt>
   <trkpt lat="30.852858" lon="34.787605"><ele>477.8</ele><name>TP08958</name><time>2016-12-28T22:48:06Z</time></trkpt>
   <trkpt lat="30.85282" lon="34.787567"><ele>477.9</ele><name>TP08959</name><time>2016-12-28T22:48:07Z</time></trkpt>
   <trkpt lat="30.852779" lon="34.787534"><ele>478</ele><name>TP08960</name><time>2016-12-28T22:48:08Z</time></trkpt>
   <trkpt lat="30.852736" lon="34.7875"><ele>478.1</ele><name>TP08961</name><time>2016-12-28T22:48:09Z</time></trkpt>
   <trkpt lat="30.852694" lon="34.787467"><ele>478.2</ele><name>TP08962</name><time>2016-12-28T22:48:10Z</time></trkpt>
   <trkpt lat="30.852654" lon="34.787434"><ele>478.3</ele><name>TP08963</name><time>2016-12-28T22:48:11Z</time></trkpt>
   <trkpt lat="30.852612" lon="34.787398"><ele>478.4</ele><name>TP08964</name><time>2016-12-28T22:48:12Z</time></trkpt>
   <trkpt lat="30.852568" lon="34.78737"><ele>478.5</ele><name>TP08965</name><time>2016-12-28T22:48:13Z</time></trkpt>
   <trkpt lat="30.852528" lon="34.787337"><ele>478.5</ele><name>TP08966</name><time>2016-12-28T22:48:14Z</time></trkpt>
   <trkpt lat="30.852487" lon="34.787304"><ele>478.6</ele><name>TP08967</name><time>2016-12-28T22:48:15Z</time></trkpt>
   <trkpt lat="30.852447" lon="34.787265"><ele>478.7</ele><name>TP08968</name><time>2016-12-28T22:48:16Z</time></trkpt>
   <trkpt lat="30.852408" lon="34.78723"><ele>478.8</ele><name>TP08969</name><time>2016-12-28T22:48:17Z</time></trkpt>
   <trkpt lat="30.852366" lon="34.787196"><ele>478.8</ele><name>TP08970</name><time>2016-12-28T22:48:18Z</time></trkpt>
   <trkpt lat="30.852322" lon="34.787163"><ele>478.9</ele><name>TP08971</name><time>2016-12-28T22:48:19Z</time></trkpt>
   <trkpt lat="30.852282" lon="34.78713"><ele>478.9</ele><name>TP08972</name><time>2016-12-28T22:48:20Z</time></trkpt>
   <trkpt lat="30.852243" lon="34.787096"><ele>479</ele><name>TP08973</name><time>2016-12-28T22:48:21Z</time></trkpt>
   <trkpt lat="30.852207" lon="34.787059"><ele>479</ele><name>TP08974</name><time>2016-12-28T22:48:22Z</time></trkpt>
   <trkpt lat="30.852169" lon="34.787029"><ele>479.1</ele><name>TP08975</name><time>2016-12-28T22:48:23Z</time></trkpt>
   <trkpt lat="30.852134" lon="34.786994"><ele>479.1</ele><name>TP08976</name><time>2016-12-28T22:48:24Z</time></trkpt>
   <trkpt lat="30.8521" lon="34.786957"><ele>479.1</ele><name>TP08977</name><time>2016-12-28T22:48:25Z</time></trkpt>
   <trkpt lat="30.852068" lon="34.786918"><ele>479.2</ele><name>TP08978</name><time>2016-12-28T22:48:26Z</time></trkpt>
   <trkpt lat="30.852039" lon="34.786877"><ele>479.3</ele><name>TP08979</name><time>2016-12-28T22:48:27Z</time></trkpt>
   <trkpt lat="30.852016" lon="34.786833"><ele>479.4</ele><name>TP08980</name><time>2016-12-28T22:48:28Z</time></trkpt>
   <trkpt lat="30.851997" lon="34.786785"><ele>479.5</ele><name>TP08981</name><time>2016-12-28T22:48:29Z</time></trkpt>
   <trkpt lat="30.851981" lon="34.786734"><ele>479.6</ele><name>TP08982</name><time>2016-12-28T22:48:30Z</time></trkpt>
   <trkpt lat="30.851967" lon="34.786684"><ele>479.7</ele><name>TP08983</name><time>2016-12-28T22:48:31Z</time></trkpt>
   <trkpt lat="30.851954" lon="34.786633"><ele>479.8</ele><name>TP08984</name><time>2016-12-28T22:48:32Z</time></trkpt>
   <trkpt lat="30.85194" lon="34.786578"><ele>479.8</ele><name>TP08985</name><time>2016-12-28T22:48:33Z</time></trkpt>
   <trkpt lat="30.851929" lon="34.786523"><ele>479.9</ele><name>TP08986</name><time>2016-12-28T22:48:34Z</time></trkpt>
   <trkpt lat="30.851915" lon="34.786464"><ele>480</ele><name>TP08987</name><time>2016-12-28T22:48:35Z</time></trkpt>
   <trkpt lat="30.851903" lon="34.786406"><ele>480.1</ele><name>TP08988</name><time>2016-12-28T22:48:36Z</time></trkpt>
   <trkpt lat="30.85189" lon="34.786351"><ele>480.1</ele><name>TP08989</name><time>2016-12-28T22:48:37Z</time></trkpt>
   <trkpt lat="30.851879" lon="34.786297"><ele>480.2</ele><name>TP08990</name><time>2016-12-28T22:48:38Z</time></trkpt>
   <trkpt lat="30.851868" lon="34.786236"><ele>480.3</ele><name>TP08991</name><time>2016-12-28T22:48:39Z</time></trkpt>
   <trkpt lat="30.851856" lon="34.786177"><ele>480.4</ele><name>TP08992</name><time>2016-12-28T22:48:40Z</time></trkpt>
   <trkpt lat="30.851848" lon="34.786124"><ele>480.5</ele><name>TP08993</name><time>2016-12-28T22:48:41Z</time></trkpt>
   <trkpt lat="30.851842" lon="34.786067"><ele>480.7</ele><name>TP08994</name><time>2016-12-28T22:48:42Z</time></trkpt>
   <trkpt lat="30.851831" lon="34.786017"><ele>480.8</ele><name>TP08995</name><time>2016-12-28T22:48:43Z</time></trkpt>
   <trkpt lat="30.851825" lon="34.785967"><ele>480.9</ele><name>TP08996</name><time>2016-12-28T22:48:44Z</time></trkpt>
   <trkpt lat="30.851819" lon="34.785922"><ele>481</ele><name>TP08997</name><time>2016-12-28T22:48:45Z</time></trkpt>
   <trkpt lat="30.85181" lon="34.785871"><ele>481.1</ele><name>TP08998</name><time>2016-12-28T22:48:46Z</time></trkpt>
   <trkpt lat="30.851797" lon="34.785822"><ele>481.2</ele><name>TP08999</name><time>2016-12-28T22:48:47Z</time></trkpt>
   <trkpt lat="30.851785" lon="34.785771"><ele>481.3</ele><name>TP09000</name><time>2016-12-28T22:48:48Z</time></trkpt>
   <trkpt lat="30.851773" lon="34.785715"><ele>481.4</ele><name>TP09001</name><time>2016-12-28T22:48:49Z</time></trkpt>
   <trkpt lat="30.851761" lon="34.785662"><ele>481.5</ele><name>TP09002</name><time>2016-12-28T22:48:50Z</time></trkpt>
   <trkpt lat="30.851748" lon="34.785609"><ele>481.6</ele><name>TP09003</name><time>2016-12-28T22:48:51Z</time></trkpt>
   <trkpt lat="30.851737" lon="34.785557"><ele>481.7</ele><name>TP09004</name><time>2016-12-28T22:48:52Z</time></trkpt>
   <trkpt lat="30.851726" lon="34.785506"><ele>481.8</ele><name>TP09005</name><time>2016-12-28T22:48:53Z</time></trkpt>
   <trkpt lat="30.851713" lon="34.785459"><ele>481.9</ele><name>TP09006</name><time>2016-12-28T22:48:54Z</time></trkpt>
   <trkpt lat="30.851703" lon="34.785413"><ele>482</ele><name>TP09007</name><time>2016-12-28T22:48:55Z</time></trkpt>
   <trkpt lat="30.851691" lon="34.785361"><ele>482</ele><name>TP09008</name><time>2016-12-28T22:48:56Z</time></trkpt>
   <trkpt lat="30.851682" lon="34.78531"><ele>481.9</ele><name>TP09009</name><time>2016-12-28T22:48:57Z</time></trkpt>
   <trkpt lat="30.851676" lon="34.785255"><ele>481.9</ele><name>TP09010</name><time>2016-12-28T22:48:58Z</time></trkpt>
   <trkpt lat="30.851663" lon="34.785205"><ele>481.9</ele><name>TP09011</name><time>2016-12-28T22:48:59Z</time></trkpt>
   <trkpt lat="30.851653" lon="34.785157"><ele>481.8</ele><name>TP09012</name><time>2016-12-28T22:49:00Z</time></trkpt>
   <trkpt lat="30.851644" lon="34.785106"><ele>481.8</ele><name>TP09013</name><time>2016-12-28T22:49:01Z</time></trkpt>
   <trkpt lat="30.851635" lon="34.785055"><ele>481.8</ele><name>TP09014</name><time>2016-12-28T22:49:02Z</time></trkpt>
   <trkpt lat="30.851625" lon="34.785005"><ele>481.7</ele><name>TP09015</name><time>2016-12-28T22:49:03Z</time></trkpt>
   <trkpt lat="30.851621" lon="34.784953"><ele>481.7</ele><name>TP09016</name><time>2016-12-28T22:49:04Z</time></trkpt>
   <trkpt lat="30.851614" lon="34.784899"><ele>481.7</ele><name>TP09017</name><time>2016-12-28T22:49:05Z</time></trkpt>
   <trkpt lat="30.851613" lon="34.784849"><ele>481.6</ele><name>TP09018</name><time>2016-12-28T22:49:06Z</time></trkpt>
   <trkpt lat="30.851613" lon="34.784797"><ele>481.6</ele><name>TP09019</name><time>2016-12-28T22:49:07Z</time></trkpt>
   <trkpt lat="30.851618" lon="34.784745"><ele>481.5</ele><name>TP09020</name><time>2016-12-28T22:49:08Z</time></trkpt>
   <trkpt lat="30.851625" lon="34.784691"><ele>481.5</ele><name>TP09021</name><time>2016-12-28T22:49:09Z</time></trkpt>
   <trkpt lat="30.851621" lon="34.784635"><ele>481.5</ele><name>TP09022</name><time>2016-12-28T22:49:10Z</time></trkpt>
   <trkpt lat="30.851606" lon="34.784585"><ele>481.4</ele><name>TP09023</name><time>2016-12-28T22:49:11Z</time></trkpt>
   <trkpt lat="30.851589" lon="34.784544"><ele>481.3</ele><name>TP09024</name><time>2016-12-28T22:49:12Z</time></trkpt>
   <trkpt lat="30.85157" lon="34.784493"><ele>481.2</ele><name>TP09025</name><time>2016-12-28T22:49:13Z</time></trkpt>
   <trkpt lat="30.851554" lon="34.784442"><ele>481.1</ele><name>TP09026</name><time>2016-12-28T22:49:14Z</time></trkpt>
   <trkpt lat="30.851538" lon="34.784387"><ele>480.9</ele><name>TP09027</name><time>2016-12-28T22:49:15Z</time></trkpt>
   <trkpt lat="30.851527" lon="34.784329"><ele>480.8</ele><name>TP09028</name><time>2016-12-28T22:49:16Z</time></trkpt>
   <trkpt lat="30.851512" lon="34.784276"><ele>480.7</ele><name>TP09029</name><time>2016-12-28T22:49:17Z</time></trkpt>
   <trkpt lat="30.851496" lon="34.784222"><ele>480.6</ele><name>TP09030</name><time>2016-12-28T22:49:18Z</time></trkpt>
   <trkpt lat="30.851481" lon="34.784166"><ele>480.5</ele><name>TP09031</name><time>2016-12-28T22:49:19Z</time></trkpt>
   <trkpt lat="30.851465" lon="34.784112"><ele>480.4</ele><name>TP09032</name><time>2016-12-28T22:49:20Z</time></trkpt>
   <trkpt lat="30.851456" lon="34.784059"><ele>480.3</ele><name>TP09033</name><time>2016-12-28T22:49:21Z</time></trkpt>
   <trkpt lat="30.851445" lon="34.784001"><ele>480.2</ele><name>TP09034</name><time>2016-12-28T22:49:22Z</time></trkpt>
   <trkpt lat="30.851431" lon="34.783948"><ele>480.1</ele><name>TP09035</name><time>2016-12-28T22:49:23Z</time></trkpt>
   <trkpt lat="30.851418" lon="34.783895"><ele>480</ele><name>TP09036</name><time>2016-12-28T22:49:24Z</time></trkpt>
   <trkpt lat="30.851407" lon="34.783837"><ele>480</ele><name>TP09037</name><time>2016-12-28T22:49:25Z</time></trkpt>
   <trkpt lat="30.851397" lon="34.783779"><ele>479.9</ele><name>TP09038</name><time>2016-12-28T22:49:26Z</time></trkpt>
   <trkpt lat="30.851383" lon="34.783719"><ele>479.8</ele><name>TP09039</name><time>2016-12-28T22:49:27Z</time></trkpt>
   <trkpt lat="30.851369" lon="34.783656"><ele>479.8</ele><name>TP09040</name><time>2016-12-28T22:49:28Z</time></trkpt>
   <trkpt lat="30.851357" lon="34.783595"><ele>479.8</ele><name>TP09041</name><time>2016-12-28T22:49:29Z</time></trkpt>
   <trkpt lat="30.851345" lon="34.783536"><ele>479.7</ele><name>TP09042</name><time>2016-12-28T22:49:30Z</time></trkpt>
   <trkpt lat="30.851335" lon="34.783477"><ele>479.7</ele><name>TP09043</name><time>2016-12-28T22:49:31Z</time></trkpt>
   <trkpt lat="30.85132" lon="34.783419"><ele>479.6</ele><name>TP09044</name><time>2016-12-28T22:49:32Z</time></trkpt>
   <trkpt lat="30.851304" lon="34.783367"><ele>479.6</ele><name>TP09045</name><time>2016-12-28T22:49:33Z</time></trkpt>
   <trkpt lat="30.851285" lon="34.783322"><ele>479.5</ele><name>TP09046</name><time>2016-12-28T22:49:34Z</time></trkpt>
   <trkpt lat="30.851265" lon="34.783287"><ele>479.5</ele><name>TP09047</name><time>2016-12-28T22:49:35Z</time></trkpt>
   <trkpt lat="30.851231" lon="34.783272"><ele>479.4</ele><name>TP09048</name><time>2016-12-28T22:49:36Z</time></trkpt>
   <trkpt lat="30.851194" lon="34.78327"><ele>479.5</ele><name>TP09049</name><time>2016-12-28T22:49:37Z</time></trkpt>
   <trkpt lat="30.851156" lon="34.783284"><ele>479.5</ele><name>TP09050</name><time>2016-12-28T22:49:38Z</time></trkpt>
   <trkpt lat="30.851117" lon="34.783295"><ele>479.5</ele><name>TP09051</name><time>2016-12-28T22:49:39Z</time></trkpt>
   <trkpt lat="30.851079" lon="34.783308"><ele>479.6</ele><name>TP09052</name><time>2016-12-28T22:49:40Z</time></trkpt>
   <trkpt lat="30.851041" lon="34.783317"><ele>479.6</ele><name>TP09053</name><time>2016-12-28T22:49:41Z</time></trkpt>
   <trkpt lat="30.851003" lon="34.783324"><ele>479.6</ele><name>TP09054</name><time>2016-12-28T22:49:42Z</time></trkpt>
   <trkpt lat="30.850972" lon="34.783322"><ele>479.7</ele><name>TP09055</name><time>2016-12-28T22:49:45Z</time></trkpt>
   <trkpt lat="30.850937" lon="34.783327"><ele>479.7</ele><name>TP09056</name><time>2016-12-28T22:49:46Z</time></trkpt>
   <trkpt lat="30.850898" lon="34.783331"><ele>479.7</ele><name>TP09057</name><time>2016-12-28T22:49:47Z</time></trkpt>
   <trkpt lat="30.850859" lon="34.783335"><ele>479.7</ele><name>TP09058</name><time>2016-12-28T22:49:48Z</time></trkpt>
   <trkpt lat="30.850818" lon="34.783338"><ele>479.8</ele><name>TP09059</name><time>2016-12-28T22:49:49Z</time></trkpt>
   <trkpt lat="30.850779" lon="34.78334"><ele>479.8</ele><name>TP09060</name><time>2016-12-28T22:49:50Z</time></trkpt>
   <trkpt lat="30.850727" lon="34.783345"><ele>479.8</ele><name>TP09061</name><time>2016-12-28T22:49:51Z</time></trkpt>
   <trkpt lat="30.85064" lon="34.783303"><ele>479.9</ele><name>TP09062</name><time>2016-12-28T22:49:53Z</time></trkpt>
   <trkpt lat="30.850615" lon="34.783286"><ele>479.9</ele><name>TP09063</name><time>2016-12-28T22:49:54Z</time></trkpt>
   <trkpt lat="30.850579" lon="34.783294"><ele>479.9</ele><name>TP09064</name><time>2016-12-28T22:49:55Z</time></trkpt>
   <trkpt lat="30.850547" lon="34.783365"><ele>479.9</ele><name>TP09065</name><time>2016-12-28T22:49:57Z</time></trkpt>
   <trkpt lat="30.850523" lon="34.783406"><ele>479.9</ele><name>TP09066</name><time>2016-12-28T22:49:58Z</time></trkpt>
   <trkpt lat="30.850494" lon="34.783447"><ele>480</ele><name>TP09067</name><time>2016-12-28T22:49:59Z</time></trkpt>
   <trkpt lat="30.850477" lon="34.783475"><ele>480</ele><name>TP09068</name><time>2016-12-28T22:50:00Z</time></trkpt>
   <trkpt lat="30.850439" lon="34.783536"><ele>480</ele><name>TP09069</name><time>2016-12-28T22:50:03Z</time></trkpt>
   <trkpt lat="30.850407" lon="34.783595"><ele>480</ele><name>TP09070</name><time>2016-12-28T22:50:05Z</time></trkpt>
   <trkpt lat="30.850379" lon="34.783652"><ele>479.9</ele><name>TP09071</name><time>2016-12-28T22:50:06Z</time></trkpt>
   <trkpt lat="30.850359" lon="34.783708"><ele>479.8</ele><name>TP09072</name><time>2016-12-28T22:50:07Z</time></trkpt>
   <trkpt lat="30.850345" lon="34.783763"><ele>479.8</ele><name>TP09073</name><time>2016-12-28T22:50:08Z</time></trkpt>
   <trkpt lat="30.850334" lon="34.783816"><ele>479.9</ele><name>TP09074</name><time>2016-12-28T22:50:09Z</time></trkpt>
   <trkpt lat="30.850331" lon="34.783865"><ele>480.1</ele><name>TP09075</name><time>2016-12-28T22:50:10Z</time></trkpt>
   <trkpt lat="30.850336" lon="34.783937"><ele>480.4</ele><name>TP09076</name><time>2016-12-28T22:50:11Z</time></trkpt>
   <trkpt lat="30.850337" lon="34.784039"><ele>480.7</ele><name>TP09077</name><time>2016-12-28T22:50:13Z</time></trkpt>
   <trkpt lat="30.850348" lon="34.784076"><ele>480.9</ele><name>TP09078</name><time>2016-12-28T22:50:14Z</time></trkpt>
   <trkpt lat="30.850352" lon="34.784112"><ele>481</ele><name>TP09079</name><time>2016-12-28T22:50:15Z</time></trkpt>
   <trkpt lat="30.850356" lon="34.784143"><ele>481.2</ele><name>TP09080</name><time>2016-12-28T22:50:16Z</time></trkpt>
  </trkseg>
 </trk>
</gpx>
